<?xml version="1.0" encoding="UTF-8"?>
<gpx version="1.1" creator="https://www.youtrack.es" xsi:schemaLocation="http://www.topografix.com/GPX/1/1 http://www.topografix.com/GPX/1/1/gpx.xsd http://www.garmin.com/xmlschemas/GpxExtensions/v3 http://www.garmin.com/xmlschemas/GpxExtensionsv3.xsd http://www.garmin.com/xmlschemas/TrackPointExtension/v1 http://www.garmin.com/xmlschemas/TrackPointExtensionv1.xsd" xmlns:gpxtpx="http://www.garmin.com/xmlschemas/TrackPointExtension/v1" xmlns:gpxx="http://www.garmin.com/xmlschemas/GpxExtensions/v3" xmlns:xsi="http://www.w3.org/2001/XMLSchema-instance">
  <metadata>
    <link href="https://www.youtrack.es">
      <text>YouTrack.es</text>
    </link>
    <time>2026-05-08T05:11:52Z</time>
  </metadata>
  <trk>
    <src>https://www.youtrack.es</src>
    <link href="https://www.youtrack.es/ruta/6700-eric-jones">
      <text>YouTrack.es</text>
    </link>
    <trkseg>
      <trkpt lat="41.50621" lon="-8.781661666666666">
        <ele>55.0</ele>
        <time>2019-07-05T13:17:02Z</time>
      </trkpt>
      <trkpt lat="41.50621" lon="-8.781661666666666">
        <ele>55.0</ele>
        <time>2019-07-05T13:17:02Z</time>
      </trkpt>
      <trkpt lat="41.506205" lon="-8.781665">
        <ele>56.0</ele>
        <time>2019-07-05T13:17:08Z</time>
      </trkpt>
      <trkpt lat="41.50614" lon="-8.78163">
        <ele>54.0</ele>
        <time>2019-07-05T13:17:20Z</time>
      </trkpt>
      <trkpt lat="41.50606" lon="-8.78162">
        <ele>57.0</ele>
        <time>2019-07-05T13:17:25Z</time>
      </trkpt>
      <trkpt lat="41.506008333333334" lon="-8.781625">
        <ele>56.0</ele>
        <time>2019-07-05T13:17:32Z</time>
      </trkpt>
      <trkpt lat="41.50596" lon="-8.781625">
        <ele>56.0</ele>
        <time>2019-07-05T13:17:39Z</time>
      </trkpt>
      <trkpt lat="41.50596" lon="-8.781625">
        <ele>56.0</ele>
        <time>2019-07-05T13:17:45Z</time>
      </trkpt>
      <trkpt lat="41.50588" lon="-8.781636666666667">
        <ele>57.0</ele>
        <time>2019-07-05T13:17:58Z</time>
      </trkpt>
      <trkpt lat="41.505806666666665" lon="-8.78174">
        <ele>58.0</ele>
        <time>2019-07-05T13:18:01Z</time>
      </trkpt>
      <trkpt lat="41.505745" lon="-8.781805">
        <ele>58.0</ele>
        <time>2019-07-05T13:18:03Z</time>
      </trkpt>
      <trkpt lat="41.50568666666667" lon="-8.781885">
        <ele>58.0</ele>
        <time>2019-07-05T13:18:05Z</time>
      </trkpt>
      <trkpt lat="41.505626666666664" lon="-8.781975">
        <ele>58.0</ele>
        <time>2019-07-05T13:18:07Z</time>
      </trkpt>
      <trkpt lat="41.505555" lon="-8.782045">
        <ele>58.0</ele>
        <time>2019-07-05T13:18:09Z</time>
      </trkpt>
      <trkpt lat="41.50548666666667" lon="-8.782125">
        <ele>59.0</ele>
        <time>2019-07-05T13:18:11Z</time>
      </trkpt>
      <trkpt lat="41.505415" lon="-8.782206666666667">
        <ele>58.0</ele>
        <time>2019-07-05T13:18:13Z</time>
      </trkpt>
      <trkpt lat="41.50532666666667" lon="-8.7823">
        <ele>59.0</ele>
        <time>2019-07-05T13:18:15Z</time>
      </trkpt>
      <trkpt lat="41.50524166666667" lon="-8.782375">
        <ele>58.0</ele>
        <time>2019-07-05T13:18:17Z</time>
      </trkpt>
      <trkpt lat="41.505175" lon="-8.78247">
        <ele>58.0</ele>
        <time>2019-07-05T13:18:19Z</time>
      </trkpt>
      <trkpt lat="41.5051" lon="-8.782548333333333">
        <ele>58.0</ele>
        <time>2019-07-05T13:18:21Z</time>
      </trkpt>
      <trkpt lat="41.50504" lon="-8.782646666666666">
        <ele>59.0</ele>
        <time>2019-07-05T13:18:23Z</time>
      </trkpt>
      <trkpt lat="41.50498" lon="-8.782746666666666">
        <ele>60.0</ele>
        <time>2019-07-05T13:18:25Z</time>
      </trkpt>
      <trkpt lat="41.504915" lon="-8.78285">
        <ele>60.0</ele>
        <time>2019-07-05T13:18:27Z</time>
      </trkpt>
      <trkpt lat="41.50484" lon="-8.782945">
        <ele>60.0</ele>
        <time>2019-07-05T13:18:29Z</time>
      </trkpt>
      <trkpt lat="41.50477" lon="-8.783045">
        <ele>60.0</ele>
        <time>2019-07-05T13:18:31Z</time>
      </trkpt>
      <trkpt lat="41.50469666666667" lon="-8.783145">
        <ele>60.0</ele>
        <time>2019-07-05T13:18:33Z</time>
      </trkpt>
      <trkpt lat="41.50463166666667" lon="-8.783246666666667">
        <ele>60.0</ele>
        <time>2019-07-05T13:18:35Z</time>
      </trkpt>
      <trkpt lat="41.504585" lon="-8.78336">
        <ele>60.0</ele>
        <time>2019-07-05T13:18:37Z</time>
      </trkpt>
      <trkpt lat="41.504565" lon="-8.783495">
        <ele>61.0</ele>
        <time>2019-07-05T13:18:39Z</time>
      </trkpt>
      <trkpt lat="41.50455" lon="-8.783635">
        <ele>60.0</ele>
        <time>2019-07-05T13:18:41Z</time>
      </trkpt>
      <trkpt lat="41.504535" lon="-8.783765">
        <ele>60.0</ele>
        <time>2019-07-05T13:18:43Z</time>
      </trkpt>
      <trkpt lat="41.50452166666667" lon="-8.7839">
        <ele>60.0</ele>
        <time>2019-07-05T13:18:45Z</time>
      </trkpt>
      <trkpt lat="41.504515" lon="-8.784">
        <ele>60.0</ele>
        <time>2019-07-05T13:18:47Z</time>
      </trkpt>
      <trkpt lat="41.50447" lon="-8.784105">
        <ele>60.0</ele>
        <time>2019-07-05T13:18:51Z</time>
      </trkpt>
      <trkpt lat="41.50439" lon="-8.784176666666667">
        <ele>60.0</ele>
        <time>2019-07-05T13:18:54Z</time>
      </trkpt>
      <trkpt lat="41.50428" lon="-8.78421">
        <ele>60.0</ele>
        <time>2019-07-05T13:18:57Z</time>
      </trkpt>
      <trkpt lat="41.504176666666666" lon="-8.784226666666667">
        <ele>60.0</ele>
        <time>2019-07-05T13:18:59Z</time>
      </trkpt>
      <trkpt lat="41.50407" lon="-8.78424">
        <ele>60.0</ele>
        <time>2019-07-05T13:19:01Z</time>
      </trkpt>
      <trkpt lat="41.503965" lon="-8.784265">
        <ele>61.0</ele>
        <time>2019-07-05T13:19:03Z</time>
      </trkpt>
      <trkpt lat="41.503855" lon="-8.784286666666667">
        <ele>61.0</ele>
        <time>2019-07-05T13:19:05Z</time>
      </trkpt>
      <trkpt lat="41.503745" lon="-8.784305">
        <ele>61.0</ele>
        <time>2019-07-05T13:19:07Z</time>
      </trkpt>
      <trkpt lat="41.503635" lon="-8.784328333333333">
        <ele>61.0</ele>
        <time>2019-07-05T13:19:09Z</time>
      </trkpt>
      <trkpt lat="41.503525" lon="-8.784345">
        <ele>62.0</ele>
        <time>2019-07-05T13:19:11Z</time>
      </trkpt>
      <trkpt lat="41.503415" lon="-8.784365">
        <ele>62.0</ele>
        <time>2019-07-05T13:19:13Z</time>
      </trkpt>
      <trkpt lat="41.503295" lon="-8.78441">
        <ele>61.0</ele>
        <time>2019-07-05T13:19:15Z</time>
      </trkpt>
      <trkpt lat="41.503185" lon="-8.784435">
        <ele>61.0</ele>
        <time>2019-07-05T13:19:17Z</time>
      </trkpt>
      <trkpt lat="41.50306" lon="-8.784455">
        <ele>62.0</ele>
        <time>2019-07-05T13:19:19Z</time>
      </trkpt>
      <trkpt lat="41.502935" lon="-8.784475">
        <ele>62.0</ele>
        <time>2019-07-05T13:19:21Z</time>
      </trkpt>
      <trkpt lat="41.502813333333336" lon="-8.78451">
        <ele>63.0</ele>
        <time>2019-07-05T13:19:23Z</time>
      </trkpt>
      <trkpt lat="41.502695" lon="-8.784525">
        <ele>63.0</ele>
        <time>2019-07-05T13:19:25Z</time>
      </trkpt>
      <trkpt lat="41.502575" lon="-8.784545">
        <ele>64.0</ele>
        <time>2019-07-05T13:19:27Z</time>
      </trkpt>
      <trkpt lat="41.50246" lon="-8.784566666666667">
        <ele>65.0</ele>
        <time>2019-07-05T13:19:29Z</time>
      </trkpt>
      <trkpt lat="41.50234" lon="-8.784593333333333">
        <ele>65.0</ele>
        <time>2019-07-05T13:19:31Z</time>
      </trkpt>
      <trkpt lat="41.50222" lon="-8.784625">
        <ele>65.0</ele>
        <time>2019-07-05T13:19:33Z</time>
      </trkpt>
      <trkpt lat="41.5021" lon="-8.784645">
        <ele>65.0</ele>
        <time>2019-07-05T13:19:35Z</time>
      </trkpt>
      <trkpt lat="41.501975" lon="-8.78467">
        <ele>64.0</ele>
        <time>2019-07-05T13:19:37Z</time>
      </trkpt>
      <trkpt lat="41.50185" lon="-8.784695">
        <ele>65.0</ele>
        <time>2019-07-05T13:19:39Z</time>
      </trkpt>
      <trkpt lat="41.50173" lon="-8.78472">
        <ele>65.0</ele>
        <time>2019-07-05T13:19:41Z</time>
      </trkpt>
      <trkpt lat="41.50161" lon="-8.784746666666667">
        <ele>65.0</ele>
        <time>2019-07-05T13:19:43Z</time>
      </trkpt>
      <trkpt lat="41.501485" lon="-8.78477">
        <ele>65.0</ele>
        <time>2019-07-05T13:19:45Z</time>
      </trkpt>
      <trkpt lat="41.501365" lon="-8.784796666666667">
        <ele>65.0</ele>
        <time>2019-07-05T13:19:47Z</time>
      </trkpt>
      <trkpt lat="41.501245" lon="-8.784835">
        <ele>64.0</ele>
        <time>2019-07-05T13:19:49Z</time>
      </trkpt>
      <trkpt lat="41.50113" lon="-8.78487">
        <ele>63.0</ele>
        <time>2019-07-05T13:19:51Z</time>
      </trkpt>
      <trkpt lat="41.50101" lon="-8.784895">
        <ele>63.0</ele>
        <time>2019-07-05T13:19:53Z</time>
      </trkpt>
      <trkpt lat="41.50089" lon="-8.784926666666667">
        <ele>63.0</ele>
        <time>2019-07-05T13:19:55Z</time>
      </trkpt>
      <trkpt lat="41.500766666666664" lon="-8.78495">
        <ele>62.0</ele>
        <time>2019-07-05T13:19:57Z</time>
      </trkpt>
      <trkpt lat="41.500645" lon="-8.784973333333333">
        <ele>62.0</ele>
        <time>2019-07-05T13:19:59Z</time>
      </trkpt>
      <trkpt lat="41.500526666666666" lon="-8.785005">
        <ele>62.0</ele>
        <time>2019-07-05T13:20:01Z</time>
      </trkpt>
      <trkpt lat="41.500405" lon="-8.785031666666667">
        <ele>62.0</ele>
        <time>2019-07-05T13:20:03Z</time>
      </trkpt>
      <trkpt lat="41.50029" lon="-8.78505">
        <ele>62.0</ele>
        <time>2019-07-05T13:20:05Z</time>
      </trkpt>
      <trkpt lat="41.500168333333335" lon="-8.785051666666666">
        <ele>62.0</ele>
        <time>2019-07-05T13:20:07Z</time>
      </trkpt>
      <trkpt lat="41.500055" lon="-8.785075">
        <ele>62.0</ele>
        <time>2019-07-05T13:20:09Z</time>
      </trkpt>
      <trkpt lat="41.499941666666665" lon="-8.78509">
        <ele>63.0</ele>
        <time>2019-07-05T13:20:11Z</time>
      </trkpt>
      <trkpt lat="41.499855" lon="-8.785115">
        <ele>64.0</ele>
        <time>2019-07-05T13:20:13Z</time>
      </trkpt>
      <trkpt lat="41.499766666666666" lon="-8.785135">
        <ele>64.0</ele>
        <time>2019-07-05T13:20:15Z</time>
      </trkpt>
      <trkpt lat="41.49967" lon="-8.78515">
        <ele>64.0</ele>
        <time>2019-07-05T13:20:17Z</time>
      </trkpt>
      <trkpt lat="41.499561666666665" lon="-8.78517">
        <ele>64.0</ele>
        <time>2019-07-05T13:20:19Z</time>
      </trkpt>
      <trkpt lat="41.49945" lon="-8.78519">
        <ele>63.0</ele>
        <time>2019-07-05T13:20:21Z</time>
      </trkpt>
      <trkpt lat="41.49933166666667" lon="-8.785205">
        <ele>64.0</ele>
        <time>2019-07-05T13:20:23Z</time>
      </trkpt>
      <trkpt lat="41.49922" lon="-8.78522">
        <ele>63.0</ele>
        <time>2019-07-05T13:20:25Z</time>
      </trkpt>
      <trkpt lat="41.499111666666664" lon="-8.785235">
        <ele>62.0</ele>
        <time>2019-07-05T13:20:27Z</time>
      </trkpt>
      <trkpt lat="41.499015" lon="-8.78524">
        <ele>62.0</ele>
        <time>2019-07-05T13:20:29Z</time>
      </trkpt>
      <trkpt lat="41.49891" lon="-8.78525">
        <ele>62.0</ele>
        <time>2019-07-05T13:20:31Z</time>
      </trkpt>
      <trkpt lat="41.498801666666665" lon="-8.785255">
        <ele>61.0</ele>
        <time>2019-07-05T13:20:33Z</time>
      </trkpt>
      <trkpt lat="41.498695" lon="-8.785258333333333">
        <ele>62.0</ele>
        <time>2019-07-05T13:20:35Z</time>
      </trkpt>
      <trkpt lat="41.49858666666667" lon="-8.785256666666667">
        <ele>62.0</ele>
        <time>2019-07-05T13:20:37Z</time>
      </trkpt>
      <trkpt lat="41.49848" lon="-8.78525">
        <ele>62.0</ele>
        <time>2019-07-05T13:20:39Z</time>
      </trkpt>
      <trkpt lat="41.49837" lon="-8.785245">
        <ele>62.0</ele>
        <time>2019-07-05T13:20:41Z</time>
      </trkpt>
      <trkpt lat="41.498265" lon="-8.78524">
        <ele>62.0</ele>
        <time>2019-07-05T13:20:43Z</time>
      </trkpt>
      <trkpt lat="41.49816" lon="-8.785235">
        <ele>63.0</ele>
        <time>2019-07-05T13:20:45Z</time>
      </trkpt>
      <trkpt lat="41.49805666666666" lon="-8.78523">
        <ele>63.0</ele>
        <time>2019-07-05T13:20:47Z</time>
      </trkpt>
      <trkpt lat="41.49796166666667" lon="-8.785218333333333">
        <ele>65.0</ele>
        <time>2019-07-05T13:20:49Z</time>
      </trkpt>
      <trkpt lat="41.497888333333336" lon="-8.78523">
        <ele>65.0</ele>
        <time>2019-07-05T13:20:51Z</time>
      </trkpt>
      <trkpt lat="41.49779" lon="-8.785235">
        <ele>65.0</ele>
        <time>2019-07-05T13:20:54Z</time>
      </trkpt>
      <trkpt lat="41.49771166666667" lon="-8.78521">
        <ele>65.0</ele>
        <time>2019-07-05T13:20:56Z</time>
      </trkpt>
      <trkpt lat="41.497616666666666" lon="-8.785185">
        <ele>65.0</ele>
        <time>2019-07-05T13:20:58Z</time>
      </trkpt>
      <trkpt lat="41.49752" lon="-8.78517">
        <ele>64.0</ele>
        <time>2019-07-05T13:21:00Z</time>
      </trkpt>
      <trkpt lat="41.497416666666666" lon="-8.78515">
        <ele>64.0</ele>
        <time>2019-07-05T13:21:02Z</time>
      </trkpt>
      <trkpt lat="41.497315" lon="-8.785121666666667">
        <ele>64.0</ele>
        <time>2019-07-05T13:21:04Z</time>
      </trkpt>
      <trkpt lat="41.49720666666666" lon="-8.785096666666666">
        <ele>64.0</ele>
        <time>2019-07-05T13:21:06Z</time>
      </trkpt>
      <trkpt lat="41.4971" lon="-8.785066666666667">
        <ele>64.0</ele>
        <time>2019-07-05T13:21:08Z</time>
      </trkpt>
      <trkpt lat="41.496985" lon="-8.785035">
        <ele>63.0</ele>
        <time>2019-07-05T13:21:10Z</time>
      </trkpt>
      <trkpt lat="41.49688" lon="-8.785005">
        <ele>63.0</ele>
        <time>2019-07-05T13:21:12Z</time>
      </trkpt>
      <trkpt lat="41.49677166666667" lon="-8.784976666666667">
        <ele>63.0</ele>
        <time>2019-07-05T13:21:14Z</time>
      </trkpt>
      <trkpt lat="41.496665" lon="-8.78495">
        <ele>63.0</ele>
        <time>2019-07-05T13:21:16Z</time>
      </trkpt>
      <trkpt lat="41.496555" lon="-8.784916666666666">
        <ele>63.0</ele>
        <time>2019-07-05T13:21:18Z</time>
      </trkpt>
      <trkpt lat="41.496446666666664" lon="-8.78489">
        <ele>63.0</ele>
        <time>2019-07-05T13:21:20Z</time>
      </trkpt>
      <trkpt lat="41.496345" lon="-8.784861666666666">
        <ele>64.0</ele>
        <time>2019-07-05T13:21:22Z</time>
      </trkpt>
      <trkpt lat="41.49623666666667" lon="-8.784835">
        <ele>64.0</ele>
        <time>2019-07-05T13:21:24Z</time>
      </trkpt>
      <trkpt lat="41.49613" lon="-8.784805">
        <ele>64.0</ele>
        <time>2019-07-05T13:21:26Z</time>
      </trkpt>
      <trkpt lat="41.496025" lon="-8.784775">
        <ele>64.0</ele>
        <time>2019-07-05T13:21:28Z</time>
      </trkpt>
      <trkpt lat="41.49592166666667" lon="-8.784745">
        <ele>65.0</ele>
        <time>2019-07-05T13:21:30Z</time>
      </trkpt>
      <trkpt lat="41.49582" lon="-8.784725">
        <ele>65.0</ele>
        <time>2019-07-05T13:21:32Z</time>
      </trkpt>
      <trkpt lat="41.49572666666667" lon="-8.784691666666667">
        <ele>66.0</ele>
        <time>2019-07-05T13:21:34Z</time>
      </trkpt>
      <trkpt lat="41.495635" lon="-8.78466">
        <ele>66.0</ele>
        <time>2019-07-05T13:21:36Z</time>
      </trkpt>
      <trkpt lat="41.495536666666666" lon="-8.784635">
        <ele>66.0</ele>
        <time>2019-07-05T13:21:38Z</time>
      </trkpt>
      <trkpt lat="41.49544" lon="-8.784605">
        <ele>66.0</ele>
        <time>2019-07-05T13:21:40Z</time>
      </trkpt>
      <trkpt lat="41.495345" lon="-8.78457">
        <ele>67.0</ele>
        <time>2019-07-05T13:21:42Z</time>
      </trkpt>
      <trkpt lat="41.49524" lon="-8.784541666666666">
        <ele>67.0</ele>
        <time>2019-07-05T13:21:44Z</time>
      </trkpt>
      <trkpt lat="41.49514" lon="-8.784515">
        <ele>68.0</ele>
        <time>2019-07-05T13:21:46Z</time>
      </trkpt>
      <trkpt lat="41.495035" lon="-8.78449">
        <ele>68.0</ele>
        <time>2019-07-05T13:21:48Z</time>
      </trkpt>
      <trkpt lat="41.494931666666666" lon="-8.78446">
        <ele>69.0</ele>
        <time>2019-07-05T13:21:50Z</time>
      </trkpt>
      <trkpt lat="41.49483" lon="-8.78443">
        <ele>70.0</ele>
        <time>2019-07-05T13:21:52Z</time>
      </trkpt>
      <trkpt lat="41.49473" lon="-8.7844">
        <ele>70.0</ele>
        <time>2019-07-05T13:21:54Z</time>
      </trkpt>
      <trkpt lat="41.49463" lon="-8.784368333333333">
        <ele>70.0</ele>
        <time>2019-07-05T13:21:56Z</time>
      </trkpt>
      <trkpt lat="41.49453" lon="-8.784335">
        <ele>71.0</ele>
        <time>2019-07-05T13:21:58Z</time>
      </trkpt>
      <trkpt lat="41.494425" lon="-8.784315">
        <ele>71.0</ele>
        <time>2019-07-05T13:22:00Z</time>
      </trkpt>
      <trkpt lat="41.494325" lon="-8.78429">
        <ele>71.0</ele>
        <time>2019-07-05T13:22:02Z</time>
      </trkpt>
      <trkpt lat="41.494225" lon="-8.784255">
        <ele>70.0</ele>
        <time>2019-07-05T13:22:04Z</time>
      </trkpt>
      <trkpt lat="41.494121666666665" lon="-8.784225">
        <ele>70.0</ele>
        <time>2019-07-05T13:22:06Z</time>
      </trkpt>
      <trkpt lat="41.49402" lon="-8.784195">
        <ele>70.0</ele>
        <time>2019-07-05T13:22:08Z</time>
      </trkpt>
      <trkpt lat="41.49392" lon="-8.784165">
        <ele>70.0</ele>
        <time>2019-07-05T13:22:10Z</time>
      </trkpt>
      <trkpt lat="41.49383" lon="-8.784135">
        <ele>70.0</ele>
        <time>2019-07-05T13:22:12Z</time>
      </trkpt>
      <trkpt lat="41.49374" lon="-8.78409">
        <ele>69.0</ele>
        <time>2019-07-05T13:22:14Z</time>
      </trkpt>
      <trkpt lat="41.49364" lon="-8.784055">
        <ele>69.0</ele>
        <time>2019-07-05T13:22:16Z</time>
      </trkpt>
      <trkpt lat="41.49354" lon="-8.78403">
        <ele>69.0</ele>
        <time>2019-07-05T13:22:18Z</time>
      </trkpt>
      <trkpt lat="41.493435" lon="-8.784">
        <ele>70.0</ele>
        <time>2019-07-05T13:22:20Z</time>
      </trkpt>
      <trkpt lat="41.493335" lon="-8.783965">
        <ele>70.0</ele>
        <time>2019-07-05T13:22:22Z</time>
      </trkpt>
      <trkpt lat="41.49323166666667" lon="-8.783935">
        <ele>69.0</ele>
        <time>2019-07-05T13:22:24Z</time>
      </trkpt>
      <trkpt lat="41.49313166666666" lon="-8.783905">
        <ele>70.0</ele>
        <time>2019-07-05T13:22:26Z</time>
      </trkpt>
      <trkpt lat="41.49303" lon="-8.78387">
        <ele>69.0</ele>
        <time>2019-07-05T13:22:28Z</time>
      </trkpt>
      <trkpt lat="41.49294" lon="-8.783856666666667">
        <ele>69.0</ele>
        <time>2019-07-05T13:22:30Z</time>
      </trkpt>
      <trkpt lat="41.49286" lon="-8.783835">
        <ele>70.0</ele>
        <time>2019-07-05T13:22:32Z</time>
      </trkpt>
      <trkpt lat="41.492776666666664" lon="-8.78381">
        <ele>70.0</ele>
        <time>2019-07-05T13:22:34Z</time>
      </trkpt>
      <trkpt lat="41.492705" lon="-8.78379">
        <ele>70.0</ele>
        <time>2019-07-05T13:22:36Z</time>
      </trkpt>
      <trkpt lat="41.492625" lon="-8.78377">
        <ele>70.0</ele>
        <time>2019-07-05T13:22:38Z</time>
      </trkpt>
      <trkpt lat="41.49255" lon="-8.783746666666667">
        <ele>70.0</ele>
        <time>2019-07-05T13:22:40Z</time>
      </trkpt>
      <trkpt lat="41.49248" lon="-8.783725">
        <ele>69.0</ele>
        <time>2019-07-05T13:22:42Z</time>
      </trkpt>
      <trkpt lat="41.492395" lon="-8.783701666666667">
        <ele>69.0</ele>
        <time>2019-07-05T13:22:44Z</time>
      </trkpt>
      <trkpt lat="41.49232" lon="-8.783668333333333">
        <ele>69.0</ele>
        <time>2019-07-05T13:22:46Z</time>
      </trkpt>
      <trkpt lat="41.492235" lon="-8.78364">
        <ele>70.0</ele>
        <time>2019-07-05T13:22:48Z</time>
      </trkpt>
      <trkpt lat="41.49216" lon="-8.783606666666667">
        <ele>70.0</ele>
        <time>2019-07-05T13:22:50Z</time>
      </trkpt>
      <trkpt lat="41.492085" lon="-8.78357">
        <ele>71.0</ele>
        <time>2019-07-05T13:22:55Z</time>
      </trkpt>
      <trkpt lat="41.492015" lon="-8.78354">
        <ele>71.0</ele>
        <time>2019-07-05T13:22:58Z</time>
      </trkpt>
      <trkpt lat="41.49194" lon="-8.783525">
        <ele>71.0</ele>
        <time>2019-07-05T13:23:00Z</time>
      </trkpt>
      <trkpt lat="41.49186" lon="-8.78351">
        <ele>72.0</ele>
        <time>2019-07-05T13:23:02Z</time>
      </trkpt>
      <trkpt lat="41.49177666666667" lon="-8.783516666666667">
        <ele>71.0</ele>
        <time>2019-07-05T13:23:03Z</time>
      </trkpt>
      <trkpt lat="41.491695" lon="-8.78352">
        <ele>71.0</ele>
        <time>2019-07-05T13:23:05Z</time>
      </trkpt>
      <trkpt lat="41.491595" lon="-8.78348">
        <ele>72.0</ele>
        <time>2019-07-05T13:23:07Z</time>
      </trkpt>
      <trkpt lat="41.49149" lon="-8.783455">
        <ele>72.0</ele>
        <time>2019-07-05T13:23:09Z</time>
      </trkpt>
      <trkpt lat="41.49138" lon="-8.783418333333334">
        <ele>72.0</ele>
        <time>2019-07-05T13:23:11Z</time>
      </trkpt>
      <trkpt lat="41.491275" lon="-8.78339">
        <ele>72.0</ele>
        <time>2019-07-05T13:23:13Z</time>
      </trkpt>
      <trkpt lat="41.49117" lon="-8.78336">
        <ele>73.0</ele>
        <time>2019-07-05T13:23:14Z</time>
      </trkpt>
      <trkpt lat="41.49106166666667" lon="-8.78333">
        <ele>72.0</ele>
        <time>2019-07-05T13:23:16Z</time>
      </trkpt>
      <trkpt lat="41.490955" lon="-8.783295">
        <ele>72.0</ele>
        <time>2019-07-05T13:23:18Z</time>
      </trkpt>
      <trkpt lat="41.490845" lon="-8.78326">
        <ele>72.0</ele>
        <time>2019-07-05T13:23:20Z</time>
      </trkpt>
      <trkpt lat="41.490735" lon="-8.78323">
        <ele>72.0</ele>
        <time>2019-07-05T13:23:22Z</time>
      </trkpt>
      <trkpt lat="41.49062166666667" lon="-8.78319">
        <ele>72.0</ele>
        <time>2019-07-05T13:23:24Z</time>
      </trkpt>
      <trkpt lat="41.49050666666667" lon="-8.783158333333333">
        <ele>72.0</ele>
        <time>2019-07-05T13:23:26Z</time>
      </trkpt>
      <trkpt lat="41.49039166666667" lon="-8.78312">
        <ele>72.0</ele>
        <time>2019-07-05T13:23:28Z</time>
      </trkpt>
      <trkpt lat="41.49028" lon="-8.78309">
        <ele>72.0</ele>
        <time>2019-07-05T13:23:30Z</time>
      </trkpt>
      <trkpt lat="41.490161666666665" lon="-8.783045">
        <ele>71.0</ele>
        <time>2019-07-05T13:23:32Z</time>
      </trkpt>
      <trkpt lat="41.490045" lon="-8.78301">
        <ele>71.0</ele>
        <time>2019-07-05T13:23:34Z</time>
      </trkpt>
      <trkpt lat="41.489925" lon="-8.78297">
        <ele>71.0</ele>
        <time>2019-07-05T13:23:36Z</time>
      </trkpt>
      <trkpt lat="41.489805" lon="-8.782931666666666">
        <ele>70.0</ele>
        <time>2019-07-05T13:23:38Z</time>
      </trkpt>
      <trkpt lat="41.48969" lon="-8.782906666666667">
        <ele>70.0</ele>
        <time>2019-07-05T13:23:40Z</time>
      </trkpt>
      <trkpt lat="41.48958" lon="-8.782873333333333">
        <ele>69.0</ele>
        <time>2019-07-05T13:23:42Z</time>
      </trkpt>
      <trkpt lat="41.489466666666665" lon="-8.782845">
        <ele>69.0</ele>
        <time>2019-07-05T13:23:45Z</time>
      </trkpt>
      <trkpt lat="41.48934166666667" lon="-8.78281">
        <ele>68.0</ele>
        <time>2019-07-05T13:23:47Z</time>
      </trkpt>
      <trkpt lat="41.489215" lon="-8.782765">
        <ele>67.0</ele>
        <time>2019-07-05T13:23:49Z</time>
      </trkpt>
      <trkpt lat="41.48909" lon="-8.782726666666667">
        <ele>67.0</ele>
        <time>2019-07-05T13:23:51Z</time>
      </trkpt>
      <trkpt lat="41.48895666666667" lon="-8.782695">
        <ele>66.0</ele>
        <time>2019-07-05T13:23:53Z</time>
      </trkpt>
      <trkpt lat="41.488885" lon="-8.78267">
        <ele>66.0</ele>
        <time>2019-07-05T13:23:54Z</time>
      </trkpt>
      <trkpt lat="41.488815" lon="-8.78264">
        <ele>66.0</ele>
        <time>2019-07-05T13:23:55Z</time>
      </trkpt>
      <trkpt lat="41.48868" lon="-8.78257">
        <ele>66.0</ele>
        <time>2019-07-05T13:23:57Z</time>
      </trkpt>
      <trkpt lat="41.488611666666664" lon="-8.782531666666667">
        <ele>66.0</ele>
        <time>2019-07-05T13:23:58Z</time>
      </trkpt>
      <trkpt lat="41.488545" lon="-8.78249">
        <ele>66.0</ele>
        <time>2019-07-05T13:23:59Z</time>
      </trkpt>
      <trkpt lat="41.48848" lon="-8.782445">
        <ele>65.0</ele>
        <time>2019-07-05T13:24:00Z</time>
      </trkpt>
      <trkpt lat="41.488415" lon="-8.782396666666667">
        <ele>65.0</ele>
        <time>2019-07-05T13:24:01Z</time>
      </trkpt>
      <trkpt lat="41.488348333333334" lon="-8.78235">
        <ele>65.0</ele>
        <time>2019-07-05T13:24:02Z</time>
      </trkpt>
      <trkpt lat="41.488235" lon="-8.78224">
        <ele>65.0</ele>
        <time>2019-07-05T13:24:04Z</time>
      </trkpt>
      <trkpt lat="41.48818" lon="-8.78218">
        <ele>65.0</ele>
        <time>2019-07-05T13:24:05Z</time>
      </trkpt>
      <trkpt lat="41.48807" lon="-8.78206">
        <ele>65.0</ele>
        <time>2019-07-05T13:24:07Z</time>
      </trkpt>
      <trkpt lat="41.487965" lon="-8.781935">
        <ele>64.0</ele>
        <time>2019-07-05T13:24:09Z</time>
      </trkpt>
      <trkpt lat="41.48786" lon="-8.781815">
        <ele>64.0</ele>
        <time>2019-07-05T13:24:11Z</time>
      </trkpt>
      <trkpt lat="41.487755" lon="-8.78169">
        <ele>64.0</ele>
        <time>2019-07-05T13:24:13Z</time>
      </trkpt>
      <trkpt lat="41.48764666666667" lon="-8.781575">
        <ele>64.0</ele>
        <time>2019-07-05T13:24:15Z</time>
      </trkpt>
      <trkpt lat="41.48758333333333" lon="-8.78149">
        <ele>63.0</ele>
        <time>2019-07-05T13:24:17Z</time>
      </trkpt>
      <trkpt lat="41.48753" lon="-8.7814">
        <ele>64.0</ele>
        <time>2019-07-05T13:24:19Z</time>
      </trkpt>
      <trkpt lat="41.487455" lon="-8.78131">
        <ele>64.0</ele>
        <time>2019-07-05T13:24:21Z</time>
      </trkpt>
      <trkpt lat="41.487375" lon="-8.781195">
        <ele>63.0</ele>
        <time>2019-07-05T13:24:23Z</time>
      </trkpt>
      <trkpt lat="41.4873" lon="-8.78108">
        <ele>63.0</ele>
        <time>2019-07-05T13:24:25Z</time>
      </trkpt>
      <trkpt lat="41.487231666666666" lon="-8.780951666666667">
        <ele>63.0</ele>
        <time>2019-07-05T13:24:27Z</time>
      </trkpt>
      <trkpt lat="41.48716" lon="-8.78084">
        <ele>63.0</ele>
        <time>2019-07-05T13:24:29Z</time>
      </trkpt>
      <trkpt lat="41.48709" lon="-8.780736666666666">
        <ele>64.0</ele>
        <time>2019-07-05T13:24:31Z</time>
      </trkpt>
      <trkpt lat="41.487015" lon="-8.780631666666666">
        <ele>64.0</ele>
        <time>2019-07-05T13:24:33Z</time>
      </trkpt>
      <trkpt lat="41.486945" lon="-8.780531666666667">
        <ele>64.0</ele>
        <time>2019-07-05T13:24:35Z</time>
      </trkpt>
      <trkpt lat="41.486875" lon="-8.780426666666667">
        <ele>64.0</ele>
        <time>2019-07-05T13:24:37Z</time>
      </trkpt>
      <trkpt lat="41.486805" lon="-8.780326666666667">
        <ele>64.0</ele>
        <time>2019-07-05T13:24:39Z</time>
      </trkpt>
      <trkpt lat="41.48674" lon="-8.780225">
        <ele>64.0</ele>
        <time>2019-07-05T13:24:41Z</time>
      </trkpt>
      <trkpt lat="41.486665" lon="-8.780155">
        <ele>64.0</ele>
        <time>2019-07-05T13:24:43Z</time>
      </trkpt>
      <trkpt lat="41.486580000000004" lon="-8.78012">
        <ele>65.0</ele>
        <time>2019-07-05T13:24:45Z</time>
      </trkpt>
      <trkpt lat="41.486505" lon="-8.780065">
        <ele>65.0</ele>
        <time>2019-07-05T13:24:47Z</time>
      </trkpt>
      <trkpt lat="41.486415" lon="-8.78003">
        <ele>65.0</ele>
        <time>2019-07-05T13:24:49Z</time>
      </trkpt>
      <trkpt lat="41.486315" lon="-8.780001666666667">
        <ele>65.0</ele>
        <time>2019-07-05T13:24:51Z</time>
      </trkpt>
      <trkpt lat="41.486216666666664" lon="-8.77997">
        <ele>65.0</ele>
        <time>2019-07-05T13:24:53Z</time>
      </trkpt>
      <trkpt lat="41.486115" lon="-8.779945">
        <ele>65.0</ele>
        <time>2019-07-05T13:24:55Z</time>
      </trkpt>
      <trkpt lat="41.486015" lon="-8.77993">
        <ele>66.0</ele>
        <time>2019-07-05T13:24:57Z</time>
      </trkpt>
      <trkpt lat="41.48592" lon="-8.77994">
        <ele>66.0</ele>
        <time>2019-07-05T13:24:59Z</time>
      </trkpt>
      <trkpt lat="41.48582" lon="-8.779935">
        <ele>66.0</ele>
        <time>2019-07-05T13:25:01Z</time>
      </trkpt>
      <trkpt lat="41.48573" lon="-8.77989">
        <ele>66.0</ele>
        <time>2019-07-05T13:25:03Z</time>
      </trkpt>
      <trkpt lat="41.485641666666666" lon="-8.779815">
        <ele>65.0</ele>
        <time>2019-07-05T13:25:05Z</time>
      </trkpt>
      <trkpt lat="41.48556" lon="-8.779735">
        <ele>65.0</ele>
        <time>2019-07-05T13:25:07Z</time>
      </trkpt>
      <trkpt lat="41.48547" lon="-8.779665">
        <ele>65.0</ele>
        <time>2019-07-05T13:25:09Z</time>
      </trkpt>
      <trkpt lat="41.48538" lon="-8.7796">
        <ele>65.0</ele>
        <time>2019-07-05T13:25:11Z</time>
      </trkpt>
      <trkpt lat="41.48529" lon="-8.77953">
        <ele>65.0</ele>
        <time>2019-07-05T13:25:13Z</time>
      </trkpt>
      <trkpt lat="41.485195" lon="-8.779455">
        <ele>64.0</ele>
        <time>2019-07-05T13:25:15Z</time>
      </trkpt>
      <trkpt lat="41.48511666666667" lon="-8.77937">
        <ele>65.0</ele>
        <time>2019-07-05T13:25:17Z</time>
      </trkpt>
      <trkpt lat="41.48502666666667" lon="-8.779288333333334">
        <ele>65.0</ele>
        <time>2019-07-05T13:25:19Z</time>
      </trkpt>
      <trkpt lat="41.484935" lon="-8.779235">
        <ele>65.0</ele>
        <time>2019-07-05T13:25:21Z</time>
      </trkpt>
      <trkpt lat="41.484845" lon="-8.779195">
        <ele>64.0</ele>
        <time>2019-07-05T13:25:23Z</time>
      </trkpt>
      <trkpt lat="41.48476" lon="-8.779116666666667">
        <ele>64.0</ele>
        <time>2019-07-05T13:25:25Z</time>
      </trkpt>
      <trkpt lat="41.484676666666665" lon="-8.77903">
        <ele>65.0</ele>
        <time>2019-07-05T13:25:27Z</time>
      </trkpt>
      <trkpt lat="41.4846" lon="-8.778945">
        <ele>65.0</ele>
        <time>2019-07-05T13:25:29Z</time>
      </trkpt>
      <trkpt lat="41.484505" lon="-8.778871666666667">
        <ele>64.0</ele>
        <time>2019-07-05T13:25:31Z</time>
      </trkpt>
      <trkpt lat="41.484406666666665" lon="-8.778815">
        <ele>64.0</ele>
        <time>2019-07-05T13:25:33Z</time>
      </trkpt>
      <trkpt lat="41.48432666666667" lon="-8.778725">
        <ele>64.0</ele>
        <time>2019-07-05T13:25:35Z</time>
      </trkpt>
      <trkpt lat="41.484245" lon="-8.77862">
        <ele>64.0</ele>
        <time>2019-07-05T13:25:37Z</time>
      </trkpt>
      <trkpt lat="41.48415166666667" lon="-8.77853">
        <ele>64.0</ele>
        <time>2019-07-05T13:25:39Z</time>
      </trkpt>
      <trkpt lat="41.48406" lon="-8.77844">
        <ele>63.0</ele>
        <time>2019-07-05T13:25:41Z</time>
      </trkpt>
      <trkpt lat="41.48396666666667" lon="-8.77834">
        <ele>64.0</ele>
        <time>2019-07-05T13:25:43Z</time>
      </trkpt>
      <trkpt lat="41.483873333333335" lon="-8.77825">
        <ele>64.0</ele>
        <time>2019-07-05T13:25:45Z</time>
      </trkpt>
      <trkpt lat="41.48379" lon="-8.77816">
        <ele>64.0</ele>
        <time>2019-07-05T13:25:47Z</time>
      </trkpt>
      <trkpt lat="41.48371" lon="-8.77806">
        <ele>64.0</ele>
        <time>2019-07-05T13:25:49Z</time>
      </trkpt>
      <trkpt lat="41.483646666666665" lon="-8.77794">
        <ele>64.0</ele>
        <time>2019-07-05T13:25:51Z</time>
      </trkpt>
      <trkpt lat="41.483605" lon="-8.777806666666667">
        <ele>64.0</ele>
        <time>2019-07-05T13:25:53Z</time>
      </trkpt>
      <trkpt lat="41.48359" lon="-8.777661666666667">
        <ele>64.0</ele>
        <time>2019-07-05T13:25:55Z</time>
      </trkpt>
      <trkpt lat="41.48361166666667" lon="-8.777508333333333">
        <ele>64.0</ele>
        <time>2019-07-05T13:25:57Z</time>
      </trkpt>
      <trkpt lat="41.48364" lon="-8.777361666666666">
        <ele>64.0</ele>
        <time>2019-07-05T13:25:59Z</time>
      </trkpt>
      <trkpt lat="41.483675" lon="-8.77722">
        <ele>64.0</ele>
        <time>2019-07-05T13:26:01Z</time>
      </trkpt>
      <trkpt lat="41.483715" lon="-8.777086666666667">
        <ele>64.0</ele>
        <time>2019-07-05T13:26:03Z</time>
      </trkpt>
      <trkpt lat="41.4837" lon="-8.776965">
        <ele>64.0</ele>
        <time>2019-07-05T13:26:05Z</time>
      </trkpt>
      <trkpt lat="41.48363166666667" lon="-8.776891666666666">
        <ele>64.0</ele>
        <time>2019-07-05T13:26:07Z</time>
      </trkpt>
      <trkpt lat="41.48355" lon="-8.77683">
        <ele>64.0</ele>
        <time>2019-07-05T13:26:09Z</time>
      </trkpt>
      <trkpt lat="41.483475" lon="-8.77677">
        <ele>64.0</ele>
        <time>2019-07-05T13:26:11Z</time>
      </trkpt>
      <trkpt lat="41.483385" lon="-8.77671">
        <ele>64.0</ele>
        <time>2019-07-05T13:26:13Z</time>
      </trkpt>
      <trkpt lat="41.483291666666666" lon="-8.776645">
        <ele>64.0</ele>
        <time>2019-07-05T13:26:15Z</time>
      </trkpt>
      <trkpt lat="41.483196666666664" lon="-8.776576666666667">
        <ele>64.0</ele>
        <time>2019-07-05T13:26:17Z</time>
      </trkpt>
      <trkpt lat="41.48309166666667" lon="-8.776505">
        <ele>63.0</ele>
        <time>2019-07-05T13:26:19Z</time>
      </trkpt>
      <trkpt lat="41.482985" lon="-8.77644">
        <ele>64.0</ele>
        <time>2019-07-05T13:26:21Z</time>
      </trkpt>
      <trkpt lat="41.482886666666666" lon="-8.776385">
        <ele>64.0</ele>
        <time>2019-07-05T13:26:23Z</time>
      </trkpt>
      <trkpt lat="41.482795" lon="-8.77634">
        <ele>65.0</ele>
        <time>2019-07-05T13:26:25Z</time>
      </trkpt>
      <trkpt lat="41.4827" lon="-8.776306666666667">
        <ele>65.0</ele>
        <time>2019-07-05T13:26:27Z</time>
      </trkpt>
      <trkpt lat="41.48263" lon="-8.776235">
        <ele>65.0</ele>
        <time>2019-07-05T13:26:29Z</time>
      </trkpt>
      <trkpt lat="41.482545" lon="-8.77617">
        <ele>65.0</ele>
        <time>2019-07-05T13:26:31Z</time>
      </trkpt>
      <trkpt lat="41.48245" lon="-8.776105">
        <ele>65.0</ele>
        <time>2019-07-05T13:26:33Z</time>
      </trkpt>
      <trkpt lat="41.48236" lon="-8.77604">
        <ele>64.0</ele>
        <time>2019-07-05T13:26:35Z</time>
      </trkpt>
      <trkpt lat="41.48227833333333" lon="-8.775985">
        <ele>64.0</ele>
        <time>2019-07-05T13:26:37Z</time>
      </trkpt>
      <trkpt lat="41.4822" lon="-8.775925">
        <ele>64.0</ele>
        <time>2019-07-05T13:26:39Z</time>
      </trkpt>
      <trkpt lat="41.482115" lon="-8.775865">
        <ele>64.0</ele>
        <time>2019-07-05T13:26:41Z</time>
      </trkpt>
      <trkpt lat="41.48203" lon="-8.775821666666667">
        <ele>64.0</ele>
        <time>2019-07-05T13:26:43Z</time>
      </trkpt>
      <trkpt lat="41.48193" lon="-8.775755">
        <ele>64.0</ele>
        <time>2019-07-05T13:26:45Z</time>
      </trkpt>
      <trkpt lat="41.481836666666666" lon="-8.77567">
        <ele>63.0</ele>
        <time>2019-07-05T13:26:47Z</time>
      </trkpt>
      <trkpt lat="41.48174" lon="-8.775586666666667">
        <ele>63.0</ele>
        <time>2019-07-05T13:26:49Z</time>
      </trkpt>
      <trkpt lat="41.481645" lon="-8.775501666666667">
        <ele>64.0</ele>
        <time>2019-07-05T13:26:51Z</time>
      </trkpt>
      <trkpt lat="41.481555" lon="-8.775415">
        <ele>64.0</ele>
        <time>2019-07-05T13:26:53Z</time>
      </trkpt>
      <trkpt lat="41.48146166666667" lon="-8.775325">
        <ele>64.0</ele>
        <time>2019-07-05T13:26:55Z</time>
      </trkpt>
      <trkpt lat="41.481365" lon="-8.775245">
        <ele>64.0</ele>
        <time>2019-07-05T13:26:57Z</time>
      </trkpt>
      <trkpt lat="41.481265" lon="-8.775165">
        <ele>65.0</ele>
        <time>2019-07-05T13:26:59Z</time>
      </trkpt>
      <trkpt lat="41.481165" lon="-8.77508">
        <ele>65.0</ele>
        <time>2019-07-05T13:27:01Z</time>
      </trkpt>
      <trkpt lat="41.481065" lon="-8.774985">
        <ele>65.0</ele>
        <time>2019-07-05T13:27:03Z</time>
      </trkpt>
      <trkpt lat="41.480965" lon="-8.774893333333333">
        <ele>65.0</ele>
        <time>2019-07-05T13:27:05Z</time>
      </trkpt>
      <trkpt lat="41.48086166666667" lon="-8.774801666666667">
        <ele>65.0</ele>
        <time>2019-07-05T13:27:07Z</time>
      </trkpt>
      <trkpt lat="41.480763333333336" lon="-8.77471">
        <ele>66.0</ele>
        <time>2019-07-05T13:27:09Z</time>
      </trkpt>
      <trkpt lat="41.480675" lon="-8.77462">
        <ele>66.0</ele>
        <time>2019-07-05T13:27:11Z</time>
      </trkpt>
      <trkpt lat="41.48058666666667" lon="-8.77452">
        <ele>66.0</ele>
        <time>2019-07-05T13:27:13Z</time>
      </trkpt>
      <trkpt lat="41.48051" lon="-8.774425">
        <ele>66.0</ele>
        <time>2019-07-05T13:27:15Z</time>
      </trkpt>
      <trkpt lat="41.480445" lon="-8.774335">
        <ele>67.0</ele>
        <time>2019-07-05T13:27:17Z</time>
      </trkpt>
      <trkpt lat="41.480375" lon="-8.77423">
        <ele>67.0</ele>
        <time>2019-07-05T13:27:19Z</time>
      </trkpt>
      <trkpt lat="41.480295" lon="-8.774125">
        <ele>67.0</ele>
        <time>2019-07-05T13:27:21Z</time>
      </trkpt>
      <trkpt lat="41.48022" lon="-8.77401">
        <ele>67.0</ele>
        <time>2019-07-05T13:27:23Z</time>
      </trkpt>
      <trkpt lat="41.480145" lon="-8.773895">
        <ele>67.0</ele>
        <time>2019-07-05T13:27:25Z</time>
      </trkpt>
      <trkpt lat="41.480075" lon="-8.773785">
        <ele>67.0</ele>
        <time>2019-07-05T13:27:27Z</time>
      </trkpt>
      <trkpt lat="41.480003333333336" lon="-8.773671666666667">
        <ele>67.0</ele>
        <time>2019-07-05T13:27:29Z</time>
      </trkpt>
      <trkpt lat="41.479933333333335" lon="-8.77356">
        <ele>67.0</ele>
        <time>2019-07-05T13:27:31Z</time>
      </trkpt>
      <trkpt lat="41.47985833333333" lon="-8.77345">
        <ele>67.0</ele>
        <time>2019-07-05T13:27:33Z</time>
      </trkpt>
      <trkpt lat="41.479776666666666" lon="-8.773361666666666">
        <ele>67.0</ele>
        <time>2019-07-05T13:27:35Z</time>
      </trkpt>
      <trkpt lat="41.479685" lon="-8.7733">
        <ele>67.0</ele>
        <time>2019-07-05T13:27:37Z</time>
      </trkpt>
      <trkpt lat="41.47958" lon="-8.77326">
        <ele>68.0</ele>
        <time>2019-07-05T13:27:39Z</time>
      </trkpt>
      <trkpt lat="41.479475" lon="-8.77325">
        <ele>68.0</ele>
        <time>2019-07-05T13:27:41Z</time>
      </trkpt>
      <trkpt lat="41.479365" lon="-8.77325">
        <ele>68.0</ele>
        <time>2019-07-05T13:27:43Z</time>
      </trkpt>
      <trkpt lat="41.47925166666667" lon="-8.77326">
        <ele>67.0</ele>
        <time>2019-07-05T13:27:45Z</time>
      </trkpt>
      <trkpt lat="41.479135" lon="-8.773265">
        <ele>66.0</ele>
        <time>2019-07-05T13:27:47Z</time>
      </trkpt>
      <trkpt lat="41.47902166666667" lon="-8.77327">
        <ele>65.0</ele>
        <time>2019-07-05T13:27:49Z</time>
      </trkpt>
      <trkpt lat="41.478905" lon="-8.77328">
        <ele>65.0</ele>
        <time>2019-07-05T13:27:51Z</time>
      </trkpt>
      <trkpt lat="41.4788" lon="-8.773275">
        <ele>66.0</ele>
        <time>2019-07-05T13:27:53Z</time>
      </trkpt>
      <trkpt lat="41.478685" lon="-8.77329">
        <ele>66.0</ele>
        <time>2019-07-05T13:27:55Z</time>
      </trkpt>
      <trkpt lat="41.478565" lon="-8.773305">
        <ele>66.0</ele>
        <time>2019-07-05T13:27:57Z</time>
      </trkpt>
      <trkpt lat="41.47845" lon="-8.773311666666666">
        <ele>66.0</ele>
        <time>2019-07-05T13:27:59Z</time>
      </trkpt>
      <trkpt lat="41.478335" lon="-8.773325">
        <ele>66.0</ele>
        <time>2019-07-05T13:28:01Z</time>
      </trkpt>
      <trkpt lat="41.47821" lon="-8.773325">
        <ele>67.0</ele>
        <time>2019-07-05T13:28:03Z</time>
      </trkpt>
      <trkpt lat="41.4781" lon="-8.773343333333333">
        <ele>66.0</ele>
        <time>2019-07-05T13:28:05Z</time>
      </trkpt>
      <trkpt lat="41.47799" lon="-8.773355">
        <ele>66.0</ele>
        <time>2019-07-05T13:28:07Z</time>
      </trkpt>
      <trkpt lat="41.47788" lon="-8.77337">
        <ele>66.0</ele>
        <time>2019-07-05T13:28:09Z</time>
      </trkpt>
      <trkpt lat="41.477761666666666" lon="-8.773385">
        <ele>66.0</ele>
        <time>2019-07-05T13:28:11Z</time>
      </trkpt>
      <trkpt lat="41.477645" lon="-8.773391666666667">
        <ele>66.0</ele>
        <time>2019-07-05T13:28:13Z</time>
      </trkpt>
      <trkpt lat="41.47752166666667" lon="-8.773405">
        <ele>66.0</ele>
        <time>2019-07-05T13:28:15Z</time>
      </trkpt>
      <trkpt lat="41.4774" lon="-8.77341">
        <ele>66.0</ele>
        <time>2019-07-05T13:28:17Z</time>
      </trkpt>
      <trkpt lat="41.47728" lon="-8.77341">
        <ele>66.0</ele>
        <time>2019-07-05T13:28:19Z</time>
      </trkpt>
      <trkpt lat="41.477151666666664" lon="-8.773405">
        <ele>66.0</ele>
        <time>2019-07-05T13:28:21Z</time>
      </trkpt>
      <trkpt lat="41.47702666666667" lon="-8.773401666666667">
        <ele>66.0</ele>
        <time>2019-07-05T13:28:23Z</time>
      </trkpt>
      <trkpt lat="41.476905" lon="-8.773385">
        <ele>66.0</ele>
        <time>2019-07-05T13:28:25Z</time>
      </trkpt>
      <trkpt lat="41.476795" lon="-8.77335">
        <ele>66.0</ele>
        <time>2019-07-05T13:28:27Z</time>
      </trkpt>
      <trkpt lat="41.4767" lon="-8.773301666666667">
        <ele>66.0</ele>
        <time>2019-07-05T13:28:29Z</time>
      </trkpt>
      <trkpt lat="41.47661166666666" lon="-8.77321">
        <ele>65.0</ele>
        <time>2019-07-05T13:28:31Z</time>
      </trkpt>
      <trkpt lat="41.47660166666667" lon="-8.773055">
        <ele>64.0</ele>
        <time>2019-07-05T13:28:33Z</time>
      </trkpt>
      <trkpt lat="41.476625" lon="-8.772885">
        <ele>64.0</ele>
        <time>2019-07-05T13:28:35Z</time>
      </trkpt>
      <trkpt lat="41.476645" lon="-8.772716666666666">
        <ele>64.0</ele>
        <time>2019-07-05T13:28:37Z</time>
      </trkpt>
      <trkpt lat="41.47667166666667" lon="-8.77254">
        <ele>63.0</ele>
        <time>2019-07-05T13:28:39Z</time>
      </trkpt>
      <trkpt lat="41.476695" lon="-8.772365">
        <ele>63.0</ele>
        <time>2019-07-05T13:28:41Z</time>
      </trkpt>
      <trkpt lat="41.47672" lon="-8.77219">
        <ele>63.0</ele>
        <time>2019-07-05T13:28:43Z</time>
      </trkpt>
      <trkpt lat="41.476745" lon="-8.77202">
        <ele>63.0</ele>
        <time>2019-07-05T13:28:45Z</time>
      </trkpt>
      <trkpt lat="41.47676166666667" lon="-8.771841666666667">
        <ele>63.0</ele>
        <time>2019-07-05T13:28:47Z</time>
      </trkpt>
      <trkpt lat="41.476785" lon="-8.77167">
        <ele>64.0</ele>
        <time>2019-07-05T13:28:49Z</time>
      </trkpt>
      <trkpt lat="41.476815" lon="-8.77149">
        <ele>64.0</ele>
        <time>2019-07-05T13:28:51Z</time>
      </trkpt>
      <trkpt lat="41.476845" lon="-8.771325">
        <ele>64.0</ele>
        <time>2019-07-05T13:28:53Z</time>
      </trkpt>
      <trkpt lat="41.47687" lon="-8.771155">
        <ele>64.0</ele>
        <time>2019-07-05T13:28:55Z</time>
      </trkpt>
      <trkpt lat="41.47689666666667" lon="-8.77099">
        <ele>64.0</ele>
        <time>2019-07-05T13:28:57Z</time>
      </trkpt>
      <trkpt lat="41.476925" lon="-8.77083">
        <ele>65.0</ele>
        <time>2019-07-05T13:28:59Z</time>
      </trkpt>
      <trkpt lat="41.476955" lon="-8.770665">
        <ele>64.0</ele>
        <time>2019-07-05T13:29:01Z</time>
      </trkpt>
      <trkpt lat="41.47698166666667" lon="-8.770501666666666">
        <ele>64.0</ele>
        <time>2019-07-05T13:29:03Z</time>
      </trkpt>
      <trkpt lat="41.47701" lon="-8.77034">
        <ele>65.0</ele>
        <time>2019-07-05T13:29:05Z</time>
      </trkpt>
      <trkpt lat="41.477035" lon="-8.77018">
        <ele>65.0</ele>
        <time>2019-07-05T13:29:07Z</time>
      </trkpt>
      <trkpt lat="41.477066666666666" lon="-8.77002">
        <ele>65.0</ele>
        <time>2019-07-05T13:29:09Z</time>
      </trkpt>
      <trkpt lat="41.4771" lon="-8.76986">
        <ele>65.0</ele>
        <time>2019-07-05T13:29:11Z</time>
      </trkpt>
      <trkpt lat="41.47712833333333" lon="-8.769705">
        <ele>65.0</ele>
        <time>2019-07-05T13:29:13Z</time>
      </trkpt>
      <trkpt lat="41.47716" lon="-8.76955">
        <ele>65.0</ele>
        <time>2019-07-05T13:29:15Z</time>
      </trkpt>
      <trkpt lat="41.47719" lon="-8.769395">
        <ele>65.0</ele>
        <time>2019-07-05T13:29:17Z</time>
      </trkpt>
      <trkpt lat="41.47721166666667" lon="-8.769245">
        <ele>65.0</ele>
        <time>2019-07-05T13:29:19Z</time>
      </trkpt>
      <trkpt lat="41.477195" lon="-8.76909">
        <ele>66.0</ele>
        <time>2019-07-05T13:29:21Z</time>
      </trkpt>
      <trkpt lat="41.477151666666664" lon="-8.76894">
        <ele>66.0</ele>
        <time>2019-07-05T13:29:23Z</time>
      </trkpt>
      <trkpt lat="41.477115" lon="-8.768798333333333">
        <ele>66.0</ele>
        <time>2019-07-05T13:29:25Z</time>
      </trkpt>
      <trkpt lat="41.477075" lon="-8.76866">
        <ele>67.0</ele>
        <time>2019-07-05T13:29:27Z</time>
      </trkpt>
      <trkpt lat="41.477021666666666" lon="-8.768541666666666">
        <ele>67.0</ele>
        <time>2019-07-05T13:29:29Z</time>
      </trkpt>
      <trkpt lat="41.476956666666666" lon="-8.768431666666666">
        <ele>66.0</ele>
        <time>2019-07-05T13:29:31Z</time>
      </trkpt>
      <trkpt lat="41.4769" lon="-8.76831">
        <ele>66.0</ele>
        <time>2019-07-05T13:29:33Z</time>
      </trkpt>
      <trkpt lat="41.47683833333333" lon="-8.768181666666667">
        <ele>66.0</ele>
        <time>2019-07-05T13:29:35Z</time>
      </trkpt>
      <trkpt lat="41.476785" lon="-8.76807">
        <ele>67.0</ele>
        <time>2019-07-05T13:29:37Z</time>
      </trkpt>
      <trkpt lat="41.47672166666667" lon="-8.767943333333333">
        <ele>66.0</ele>
        <time>2019-07-05T13:29:39Z</time>
      </trkpt>
      <trkpt lat="41.476686666666666" lon="-8.767825">
        <ele>66.0</ele>
        <time>2019-07-05T13:29:41Z</time>
      </trkpt>
      <trkpt lat="41.47663" lon="-8.76773">
        <ele>66.0</ele>
        <time>2019-07-05T13:29:43Z</time>
      </trkpt>
      <trkpt lat="41.47657" lon="-8.76759">
        <ele>66.0</ele>
        <time>2019-07-05T13:29:45Z</time>
      </trkpt>
      <trkpt lat="41.476505" lon="-8.767465">
        <ele>66.0</ele>
        <time>2019-07-05T13:29:47Z</time>
      </trkpt>
      <trkpt lat="41.476441666666666" lon="-8.767325">
        <ele>66.0</ele>
        <time>2019-07-05T13:29:49Z</time>
      </trkpt>
      <trkpt lat="41.47638" lon="-8.767205">
        <ele>65.0</ele>
        <time>2019-07-05T13:29:51Z</time>
      </trkpt>
      <trkpt lat="41.476315" lon="-8.767075">
        <ele>63.0</ele>
        <time>2019-07-05T13:29:53Z</time>
      </trkpt>
      <trkpt lat="41.47625" lon="-8.766951666666667">
        <ele>64.0</ele>
        <time>2019-07-05T13:29:55Z</time>
      </trkpt>
      <trkpt lat="41.476215" lon="-8.76684">
        <ele>66.0</ele>
        <time>2019-07-05T13:29:57Z</time>
      </trkpt>
      <trkpt lat="41.47616" lon="-8.766705">
        <ele>66.0</ele>
        <time>2019-07-05T13:29:59Z</time>
      </trkpt>
      <trkpt lat="41.476095" lon="-8.766586666666667">
        <ele>65.0</ele>
        <time>2019-07-05T13:30:01Z</time>
      </trkpt>
      <trkpt lat="41.47605" lon="-8.766465">
        <ele>63.0</ele>
        <time>2019-07-05T13:30:03Z</time>
      </trkpt>
      <trkpt lat="41.47597666666667" lon="-8.76635">
        <ele>65.0</ele>
        <time>2019-07-05T13:30:05Z</time>
      </trkpt>
      <trkpt lat="41.47591" lon="-8.766218333333333">
        <ele>65.0</ele>
        <time>2019-07-05T13:30:07Z</time>
      </trkpt>
      <trkpt lat="41.475836666666666" lon="-8.766095">
        <ele>67.0</ele>
        <time>2019-07-05T13:30:09Z</time>
      </trkpt>
      <trkpt lat="41.475775" lon="-8.765965">
        <ele>67.0</ele>
        <time>2019-07-05T13:30:11Z</time>
      </trkpt>
      <trkpt lat="41.47572" lon="-8.765835">
        <ele>67.0</ele>
        <time>2019-07-05T13:30:13Z</time>
      </trkpt>
      <trkpt lat="41.475655" lon="-8.76571">
        <ele>68.0</ele>
        <time>2019-07-05T13:30:15Z</time>
      </trkpt>
      <trkpt lat="41.475585" lon="-8.765591666666667">
        <ele>68.0</ele>
        <time>2019-07-05T13:30:17Z</time>
      </trkpt>
      <trkpt lat="41.475535" lon="-8.765471666666667">
        <ele>68.0</ele>
        <time>2019-07-05T13:30:19Z</time>
      </trkpt>
      <trkpt lat="41.47549" lon="-8.765356666666667">
        <ele>68.0</ele>
        <time>2019-07-05T13:30:21Z</time>
      </trkpt>
      <trkpt lat="41.47540333333333" lon="-8.76529">
        <ele>67.0</ele>
        <time>2019-07-05T13:30:23Z</time>
      </trkpt>
      <trkpt lat="41.475305" lon="-8.76528">
        <ele>68.0</ele>
        <time>2019-07-05T13:30:25Z</time>
      </trkpt>
      <trkpt lat="41.475205" lon="-8.76532">
        <ele>68.0</ele>
        <time>2019-07-05T13:30:27Z</time>
      </trkpt>
      <trkpt lat="41.475091666666664" lon="-8.76536">
        <ele>68.0</ele>
        <time>2019-07-05T13:30:29Z</time>
      </trkpt>
      <trkpt lat="41.474985" lon="-8.765395">
        <ele>69.0</ele>
        <time>2019-07-05T13:30:31Z</time>
      </trkpt>
      <trkpt lat="41.47488" lon="-8.76543">
        <ele>69.0</ele>
        <time>2019-07-05T13:30:33Z</time>
      </trkpt>
      <trkpt lat="41.474775" lon="-8.765496666666667">
        <ele>69.0</ele>
        <time>2019-07-05T13:30:35Z</time>
      </trkpt>
      <trkpt lat="41.47467" lon="-8.76553">
        <ele>70.0</ele>
        <time>2019-07-05T13:30:37Z</time>
      </trkpt>
      <trkpt lat="41.47456666666667" lon="-8.76555">
        <ele>69.0</ele>
        <time>2019-07-05T13:30:39Z</time>
      </trkpt>
      <trkpt lat="41.474471666666666" lon="-8.765555">
        <ele>67.0</ele>
        <time>2019-07-05T13:30:41Z</time>
      </trkpt>
      <trkpt lat="41.47436666666667" lon="-8.765556666666667">
        <ele>68.0</ele>
        <time>2019-07-05T13:30:43Z</time>
      </trkpt>
      <trkpt lat="41.474266666666665" lon="-8.76557">
        <ele>67.0</ele>
        <time>2019-07-05T13:30:45Z</time>
      </trkpt>
      <trkpt lat="41.47416" lon="-8.765585">
        <ele>68.0</ele>
        <time>2019-07-05T13:30:47Z</time>
      </trkpt>
      <trkpt lat="41.474055" lon="-8.765565">
        <ele>69.0</ele>
        <time>2019-07-05T13:30:49Z</time>
      </trkpt>
      <trkpt lat="41.473951666666665" lon="-8.765555">
        <ele>69.0</ele>
        <time>2019-07-05T13:30:51Z</time>
      </trkpt>
      <trkpt lat="41.473845" lon="-8.765545">
        <ele>69.0</ele>
        <time>2019-07-05T13:30:53Z</time>
      </trkpt>
      <trkpt lat="41.473731666666666" lon="-8.76554">
        <ele>69.0</ele>
        <time>2019-07-05T13:30:55Z</time>
      </trkpt>
      <trkpt lat="41.473625" lon="-8.765526666666666">
        <ele>69.0</ele>
        <time>2019-07-05T13:30:57Z</time>
      </trkpt>
      <trkpt lat="41.473535" lon="-8.765516666666667">
        <ele>69.0</ele>
        <time>2019-07-05T13:30:58Z</time>
      </trkpt>
      <trkpt lat="41.47344" lon="-8.76551">
        <ele>70.0</ele>
        <time>2019-07-05T13:31:00Z</time>
      </trkpt>
      <trkpt lat="41.473301666666664" lon="-8.76548">
        <ele>70.0</ele>
        <time>2019-07-05T13:31:02Z</time>
      </trkpt>
      <trkpt lat="41.473175" lon="-8.765486666666666">
        <ele>71.0</ele>
        <time>2019-07-05T13:31:04Z</time>
      </trkpt>
      <trkpt lat="41.473045" lon="-8.765485">
        <ele>71.0</ele>
        <time>2019-07-05T13:31:06Z</time>
      </trkpt>
      <trkpt lat="41.47293166666667" lon="-8.76547">
        <ele>70.0</ele>
        <time>2019-07-05T13:31:08Z</time>
      </trkpt>
      <trkpt lat="41.472813333333335" lon="-8.765441666666666">
        <ele>70.0</ele>
        <time>2019-07-05T13:31:10Z</time>
      </trkpt>
      <trkpt lat="41.4727" lon="-8.7654">
        <ele>70.0</ele>
        <time>2019-07-05T13:31:12Z</time>
      </trkpt>
      <trkpt lat="41.47257666666667" lon="-8.765375">
        <ele>70.0</ele>
        <time>2019-07-05T13:31:14Z</time>
      </trkpt>
      <trkpt lat="41.472455" lon="-8.76534">
        <ele>70.0</ele>
        <time>2019-07-05T13:31:16Z</time>
      </trkpt>
      <trkpt lat="41.47233166666667" lon="-8.765306666666667">
        <ele>70.0</ele>
        <time>2019-07-05T13:31:18Z</time>
      </trkpt>
      <trkpt lat="41.472208333333334" lon="-8.765275">
        <ele>71.0</ele>
        <time>2019-07-05T13:31:20Z</time>
      </trkpt>
      <trkpt lat="41.472085" lon="-8.76524">
        <ele>70.0</ele>
        <time>2019-07-05T13:31:22Z</time>
      </trkpt>
      <trkpt lat="41.471955" lon="-8.7652">
        <ele>71.0</ele>
        <time>2019-07-05T13:31:24Z</time>
      </trkpt>
      <trkpt lat="41.471835" lon="-8.765166666666667">
        <ele>71.0</ele>
        <time>2019-07-05T13:31:26Z</time>
      </trkpt>
      <trkpt lat="41.471715" lon="-8.76513">
        <ele>71.0</ele>
        <time>2019-07-05T13:31:28Z</time>
      </trkpt>
      <trkpt lat="41.47159" lon="-8.765095">
        <ele>71.0</ele>
        <time>2019-07-05T13:31:30Z</time>
      </trkpt>
      <trkpt lat="41.47147" lon="-8.765065">
        <ele>71.0</ele>
        <time>2019-07-05T13:31:32Z</time>
      </trkpt>
      <trkpt lat="41.471355" lon="-8.765035">
        <ele>72.0</ele>
        <time>2019-07-05T13:31:35Z</time>
      </trkpt>
      <trkpt lat="41.47123" lon="-8.764995">
        <ele>72.0</ele>
        <time>2019-07-05T13:31:37Z</time>
      </trkpt>
      <trkpt lat="41.471115" lon="-8.76496">
        <ele>72.0</ele>
        <time>2019-07-05T13:31:39Z</time>
      </trkpt>
      <trkpt lat="41.47099166666667" lon="-8.76492">
        <ele>72.0</ele>
        <time>2019-07-05T13:31:41Z</time>
      </trkpt>
      <trkpt lat="41.47087" lon="-8.764886666666667">
        <ele>72.0</ele>
        <time>2019-07-05T13:31:43Z</time>
      </trkpt>
      <trkpt lat="41.47075" lon="-8.764846666666667">
        <ele>72.0</ele>
        <time>2019-07-05T13:31:45Z</time>
      </trkpt>
      <trkpt lat="41.47063" lon="-8.764805">
        <ele>71.0</ele>
        <time>2019-07-05T13:31:47Z</time>
      </trkpt>
      <trkpt lat="41.47051" lon="-8.764756666666667">
        <ele>71.0</ele>
        <time>2019-07-05T13:31:49Z</time>
      </trkpt>
      <trkpt lat="41.470391666666664" lon="-8.764701666666667">
        <ele>71.0</ele>
        <time>2019-07-05T13:31:51Z</time>
      </trkpt>
      <trkpt lat="41.470275" lon="-8.764695">
        <ele>71.0</ele>
        <time>2019-07-05T13:31:53Z</time>
      </trkpt>
      <trkpt lat="41.470151666666666" lon="-8.764715">
        <ele>71.0</ele>
        <time>2019-07-05T13:31:55Z</time>
      </trkpt>
      <trkpt lat="41.470035" lon="-8.764745">
        <ele>71.0</ele>
        <time>2019-07-05T13:31:57Z</time>
      </trkpt>
      <trkpt lat="41.469905" lon="-8.764775">
        <ele>71.0</ele>
        <time>2019-07-05T13:31:59Z</time>
      </trkpt>
      <trkpt lat="41.469785" lon="-8.764801666666667">
        <ele>71.0</ele>
        <time>2019-07-05T13:32:01Z</time>
      </trkpt>
      <trkpt lat="41.46966166666667" lon="-8.764835">
        <ele>71.0</ele>
        <time>2019-07-05T13:32:03Z</time>
      </trkpt>
      <trkpt lat="41.469545" lon="-8.76489">
        <ele>72.0</ele>
        <time>2019-07-05T13:32:05Z</time>
      </trkpt>
      <trkpt lat="41.469435" lon="-8.764935">
        <ele>72.0</ele>
        <time>2019-07-05T13:32:07Z</time>
      </trkpt>
      <trkpt lat="41.469321666666666" lon="-8.764975">
        <ele>72.0</ele>
        <time>2019-07-05T13:32:09Z</time>
      </trkpt>
      <trkpt lat="41.469215" lon="-8.765031666666667">
        <ele>71.0</ele>
        <time>2019-07-05T13:32:11Z</time>
      </trkpt>
      <trkpt lat="41.469098333333335" lon="-8.765101666666666">
        <ele>71.0</ele>
        <time>2019-07-05T13:32:13Z</time>
      </trkpt>
      <trkpt lat="41.468995" lon="-8.765191666666666">
        <ele>70.0</ele>
        <time>2019-07-05T13:32:15Z</time>
      </trkpt>
      <trkpt lat="41.468896666666666" lon="-8.765281666666667">
        <ele>71.0</ele>
        <time>2019-07-05T13:32:17Z</time>
      </trkpt>
      <trkpt lat="41.468801666666664" lon="-8.76539">
        <ele>71.0</ele>
        <time>2019-07-05T13:32:19Z</time>
      </trkpt>
      <trkpt lat="41.468695" lon="-8.76547">
        <ele>73.0</ele>
        <time>2019-07-05T13:32:21Z</time>
      </trkpt>
      <trkpt lat="41.468595" lon="-8.765585">
        <ele>72.0</ele>
        <time>2019-07-05T13:32:23Z</time>
      </trkpt>
      <trkpt lat="41.468493333333335" lon="-8.765688333333333">
        <ele>72.0</ele>
        <time>2019-07-05T13:32:25Z</time>
      </trkpt>
      <trkpt lat="41.4684" lon="-8.765781666666667">
        <ele>72.0</ele>
        <time>2019-07-05T13:32:27Z</time>
      </trkpt>
      <trkpt lat="41.468305" lon="-8.765875">
        <ele>72.0</ele>
        <time>2019-07-05T13:32:29Z</time>
      </trkpt>
      <trkpt lat="41.4682" lon="-8.76595">
        <ele>72.0</ele>
        <time>2019-07-05T13:32:31Z</time>
      </trkpt>
      <trkpt lat="41.46809" lon="-8.766">
        <ele>71.0</ele>
        <time>2019-07-05T13:32:33Z</time>
      </trkpt>
      <trkpt lat="41.467971666666664" lon="-8.766045">
        <ele>71.0</ele>
        <time>2019-07-05T13:32:35Z</time>
      </trkpt>
      <trkpt lat="41.467855" lon="-8.76608">
        <ele>71.0</ele>
        <time>2019-07-05T13:32:37Z</time>
      </trkpt>
      <trkpt lat="41.46775" lon="-8.76617">
        <ele>71.0</ele>
        <time>2019-07-05T13:32:39Z</time>
      </trkpt>
      <trkpt lat="41.467705" lon="-8.76632">
        <ele>71.0</ele>
        <time>2019-07-05T13:32:41Z</time>
      </trkpt>
      <trkpt lat="41.46767666666667" lon="-8.76648">
        <ele>71.0</ele>
        <time>2019-07-05T13:32:43Z</time>
      </trkpt>
      <trkpt lat="41.467645" lon="-8.76662">
        <ele>72.0</ele>
        <time>2019-07-05T13:32:45Z</time>
      </trkpt>
      <trkpt lat="41.467625" lon="-8.766771666666667">
        <ele>74.0</ele>
        <time>2019-07-05T13:32:48Z</time>
      </trkpt>
      <trkpt lat="41.467605" lon="-8.766871666666667">
        <ele>73.0</ele>
        <time>2019-07-05T13:32:49Z</time>
      </trkpt>
      <trkpt lat="41.467575" lon="-8.76697">
        <ele>72.0</ele>
        <time>2019-07-05T13:32:50Z</time>
      </trkpt>
      <trkpt lat="41.46753" lon="-8.76712">
        <ele>72.0</ele>
        <time>2019-07-05T13:32:52Z</time>
      </trkpt>
      <trkpt lat="41.467485" lon="-8.76727">
        <ele>71.0</ele>
        <time>2019-07-05T13:32:54Z</time>
      </trkpt>
      <trkpt lat="41.46745" lon="-8.767425">
        <ele>72.0</ele>
        <time>2019-07-05T13:32:56Z</time>
      </trkpt>
      <trkpt lat="41.467396666666666" lon="-8.767591666666666">
        <ele>69.0</ele>
        <time>2019-07-05T13:32:58Z</time>
      </trkpt>
      <trkpt lat="41.467295" lon="-8.76767">
        <ele>68.0</ele>
        <time>2019-07-05T13:33:00Z</time>
      </trkpt>
      <trkpt lat="41.46717" lon="-8.76771">
        <ele>69.0</ele>
        <time>2019-07-05T13:33:02Z</time>
      </trkpt>
      <trkpt lat="41.46705333333333" lon="-8.76775">
        <ele>69.0</ele>
        <time>2019-07-05T13:33:04Z</time>
      </trkpt>
      <trkpt lat="41.46694" lon="-8.767806666666667">
        <ele>69.0</ele>
        <time>2019-07-05T13:33:06Z</time>
      </trkpt>
      <trkpt lat="41.466818333333336" lon="-8.767865">
        <ele>69.0</ele>
        <time>2019-07-05T13:33:08Z</time>
      </trkpt>
      <trkpt lat="41.4667" lon="-8.767915">
        <ele>69.0</ele>
        <time>2019-07-05T13:33:10Z</time>
      </trkpt>
      <trkpt lat="41.466575" lon="-8.76796">
        <ele>69.0</ele>
        <time>2019-07-05T13:33:12Z</time>
      </trkpt>
      <trkpt lat="41.46644666666667" lon="-8.768">
        <ele>69.0</ele>
        <time>2019-07-05T13:33:14Z</time>
      </trkpt>
      <trkpt lat="41.466315" lon="-8.768035">
        <ele>68.0</ele>
        <time>2019-07-05T13:33:16Z</time>
      </trkpt>
      <trkpt lat="41.466185" lon="-8.76805">
        <ele>68.0</ele>
        <time>2019-07-05T13:33:18Z</time>
      </trkpt>
      <trkpt lat="41.466055" lon="-8.768061666666666">
        <ele>68.0</ele>
        <time>2019-07-05T13:33:20Z</time>
      </trkpt>
      <trkpt lat="41.465916666666665" lon="-8.76807">
        <ele>68.0</ele>
        <time>2019-07-05T13:33:22Z</time>
      </trkpt>
      <trkpt lat="41.46579" lon="-8.768085">
        <ele>68.0</ele>
        <time>2019-07-05T13:33:24Z</time>
      </trkpt>
      <trkpt lat="41.46566" lon="-8.768085">
        <ele>68.0</ele>
        <time>2019-07-05T13:33:26Z</time>
      </trkpt>
      <trkpt lat="41.465531666666664" lon="-8.768085">
        <ele>68.0</ele>
        <time>2019-07-05T13:33:28Z</time>
      </trkpt>
      <trkpt lat="41.465405" lon="-8.76809">
        <ele>68.0</ele>
        <time>2019-07-05T13:33:30Z</time>
      </trkpt>
      <trkpt lat="41.465275" lon="-8.7681">
        <ele>68.0</ele>
        <time>2019-07-05T13:33:32Z</time>
      </trkpt>
      <trkpt lat="41.46515" lon="-8.768105">
        <ele>68.0</ele>
        <time>2019-07-05T13:33:34Z</time>
      </trkpt>
      <trkpt lat="41.46502" lon="-8.76811">
        <ele>69.0</ele>
        <time>2019-07-05T13:33:36Z</time>
      </trkpt>
      <trkpt lat="41.46489666666667" lon="-8.76813">
        <ele>68.0</ele>
        <time>2019-07-05T13:33:38Z</time>
      </trkpt>
      <trkpt lat="41.464765" lon="-8.76816">
        <ele>68.0</ele>
        <time>2019-07-05T13:33:40Z</time>
      </trkpt>
      <trkpt lat="41.464635" lon="-8.76818">
        <ele>69.0</ele>
        <time>2019-07-05T13:33:42Z</time>
      </trkpt>
      <trkpt lat="41.464515" lon="-8.768226666666667">
        <ele>69.0</ele>
        <time>2019-07-05T13:33:44Z</time>
      </trkpt>
      <trkpt lat="41.464396666666666" lon="-8.768285">
        <ele>69.0</ele>
        <time>2019-07-05T13:33:46Z</time>
      </trkpt>
      <trkpt lat="41.464265" lon="-8.76833">
        <ele>69.0</ele>
        <time>2019-07-05T13:33:48Z</time>
      </trkpt>
      <trkpt lat="41.464135" lon="-8.76837">
        <ele>68.0</ele>
        <time>2019-07-05T13:33:50Z</time>
      </trkpt>
      <trkpt lat="41.464011666666664" lon="-8.768426666666667">
        <ele>68.0</ele>
        <time>2019-07-05T13:33:52Z</time>
      </trkpt>
      <trkpt lat="41.463885" lon="-8.768485">
        <ele>68.0</ele>
        <time>2019-07-05T13:33:54Z</time>
      </trkpt>
      <trkpt lat="41.463765" lon="-8.768525">
        <ele>68.0</ele>
        <time>2019-07-05T13:33:56Z</time>
      </trkpt>
      <trkpt lat="41.463645" lon="-8.768575">
        <ele>68.0</ele>
        <time>2019-07-05T13:33:58Z</time>
      </trkpt>
      <trkpt lat="41.463525" lon="-8.768621666666666">
        <ele>68.0</ele>
        <time>2019-07-05T13:34:00Z</time>
      </trkpt>
      <trkpt lat="41.4634" lon="-8.76867">
        <ele>68.0</ele>
        <time>2019-07-05T13:34:02Z</time>
      </trkpt>
      <trkpt lat="41.463271666666664" lon="-8.768726666666666">
        <ele>67.0</ele>
        <time>2019-07-05T13:34:04Z</time>
      </trkpt>
      <trkpt lat="41.46316" lon="-8.76878">
        <ele>68.0</ele>
        <time>2019-07-05T13:34:06Z</time>
      </trkpt>
      <trkpt lat="41.463051666666665" lon="-8.768836666666667">
        <ele>68.0</ele>
        <time>2019-07-05T13:34:08Z</time>
      </trkpt>
      <trkpt lat="41.46295" lon="-8.768905">
        <ele>68.0</ele>
        <time>2019-07-05T13:34:10Z</time>
      </trkpt>
      <trkpt lat="41.46285" lon="-8.768931666666667">
        <ele>67.0</ele>
        <time>2019-07-05T13:34:12Z</time>
      </trkpt>
      <trkpt lat="41.46275" lon="-8.76888">
        <ele>67.0</ele>
        <time>2019-07-05T13:34:14Z</time>
      </trkpt>
      <trkpt lat="41.462671666666665" lon="-8.768765">
        <ele>67.0</ele>
        <time>2019-07-05T13:34:16Z</time>
      </trkpt>
      <trkpt lat="41.462595" lon="-8.768641666666667">
        <ele>67.0</ele>
        <time>2019-07-05T13:34:18Z</time>
      </trkpt>
      <trkpt lat="41.46251" lon="-8.76852">
        <ele>67.0</ele>
        <time>2019-07-05T13:34:20Z</time>
      </trkpt>
      <trkpt lat="41.462426666666666" lon="-8.768395">
        <ele>67.0</ele>
        <time>2019-07-05T13:34:22Z</time>
      </trkpt>
      <trkpt lat="41.462345" lon="-8.768275">
        <ele>67.0</ele>
        <time>2019-07-05T13:34:24Z</time>
      </trkpt>
      <trkpt lat="41.462265" lon="-8.768155">
        <ele>67.0</ele>
        <time>2019-07-05T13:34:26Z</time>
      </trkpt>
      <trkpt lat="41.462185" lon="-8.768038333333333">
        <ele>67.0</ele>
        <time>2019-07-05T13:34:28Z</time>
      </trkpt>
      <trkpt lat="41.4621" lon="-8.76794">
        <ele>67.0</ele>
        <time>2019-07-05T13:34:30Z</time>
      </trkpt>
      <trkpt lat="41.462005" lon="-8.767855">
        <ele>67.0</ele>
        <time>2019-07-05T13:34:32Z</time>
      </trkpt>
      <trkpt lat="41.461891666666666" lon="-8.76783">
        <ele>67.0</ele>
        <time>2019-07-05T13:34:34Z</time>
      </trkpt>
      <trkpt lat="41.461785" lon="-8.767825">
        <ele>67.0</ele>
        <time>2019-07-05T13:34:36Z</time>
      </trkpt>
      <trkpt lat="41.461681666666664" lon="-8.767806666666667">
        <ele>68.0</ele>
        <time>2019-07-05T13:34:38Z</time>
      </trkpt>
      <trkpt lat="41.461576666666666" lon="-8.767795">
        <ele>68.0</ele>
        <time>2019-07-05T13:34:40Z</time>
      </trkpt>
      <trkpt lat="41.46147666666667" lon="-8.767781666666666">
        <ele>68.0</ele>
        <time>2019-07-05T13:34:42Z</time>
      </trkpt>
      <trkpt lat="41.46137" lon="-8.76776">
        <ele>68.0</ele>
        <time>2019-07-05T13:34:44Z</time>
      </trkpt>
      <trkpt lat="41.461265" lon="-8.767745">
        <ele>68.0</ele>
        <time>2019-07-05T13:34:46Z</time>
      </trkpt>
      <trkpt lat="41.46116" lon="-8.767726666666666">
        <ele>68.0</ele>
        <time>2019-07-05T13:34:48Z</time>
      </trkpt>
      <trkpt lat="41.46104666666667" lon="-8.76771">
        <ele>69.0</ele>
        <time>2019-07-05T13:34:50Z</time>
      </trkpt>
      <trkpt lat="41.46094166666666" lon="-8.767695">
        <ele>69.0</ele>
        <time>2019-07-05T13:34:52Z</time>
      </trkpt>
      <trkpt lat="41.460835" lon="-8.76767">
        <ele>69.0</ele>
        <time>2019-07-05T13:34:54Z</time>
      </trkpt>
      <trkpt lat="41.46073" lon="-8.767651666666668">
        <ele>68.0</ele>
        <time>2019-07-05T13:34:56Z</time>
      </trkpt>
      <trkpt lat="41.460625" lon="-8.76764">
        <ele>68.0</ele>
        <time>2019-07-05T13:34:58Z</time>
      </trkpt>
      <trkpt lat="41.460525" lon="-8.767615">
        <ele>68.0</ele>
        <time>2019-07-05T13:35:00Z</time>
      </trkpt>
      <trkpt lat="41.46042666666666" lon="-8.767595">
        <ele>68.0</ele>
        <time>2019-07-05T13:35:02Z</time>
      </trkpt>
      <trkpt lat="41.460325" lon="-8.76756">
        <ele>68.0</ele>
        <time>2019-07-05T13:35:04Z</time>
      </trkpt>
      <trkpt lat="41.46024" lon="-8.767491666666666">
        <ele>68.0</ele>
        <time>2019-07-05T13:35:06Z</time>
      </trkpt>
      <trkpt lat="41.460145" lon="-8.767425">
        <ele>68.0</ele>
        <time>2019-07-05T13:35:07Z</time>
      </trkpt>
      <trkpt lat="41.460045" lon="-8.7674">
        <ele>69.0</ele>
        <time>2019-07-05T13:35:10Z</time>
      </trkpt>
      <trkpt lat="41.459941666666666" lon="-8.767376666666667">
        <ele>69.0</ele>
        <time>2019-07-05T13:35:12Z</time>
      </trkpt>
      <trkpt lat="41.459845" lon="-8.767325">
        <ele>69.0</ele>
        <time>2019-07-05T13:35:14Z</time>
      </trkpt>
      <trkpt lat="41.459745" lon="-8.767276666666667">
        <ele>69.0</ele>
        <time>2019-07-05T13:35:16Z</time>
      </trkpt>
      <trkpt lat="41.459651666666666" lon="-8.76721">
        <ele>69.0</ele>
        <time>2019-07-05T13:35:18Z</time>
      </trkpt>
      <trkpt lat="41.459561666666666" lon="-8.767125">
        <ele>69.0</ele>
        <time>2019-07-05T13:35:20Z</time>
      </trkpt>
      <trkpt lat="41.459465" lon="-8.76704">
        <ele>69.0</ele>
        <time>2019-07-05T13:35:22Z</time>
      </trkpt>
      <trkpt lat="41.459365" lon="-8.766956666666667">
        <ele>69.0</ele>
        <time>2019-07-05T13:35:24Z</time>
      </trkpt>
      <trkpt lat="41.45926166666667" lon="-8.766876666666667">
        <ele>69.0</ele>
        <time>2019-07-05T13:35:26Z</time>
      </trkpt>
      <trkpt lat="41.45916" lon="-8.7668">
        <ele>69.0</ele>
        <time>2019-07-05T13:35:28Z</time>
      </trkpt>
      <trkpt lat="41.459055" lon="-8.76671">
        <ele>68.0</ele>
        <time>2019-07-05T13:35:30Z</time>
      </trkpt>
      <trkpt lat="41.458951666666664" lon="-8.76662">
        <ele>68.0</ele>
        <time>2019-07-05T13:35:32Z</time>
      </trkpt>
      <trkpt lat="41.458855" lon="-8.76654">
        <ele>68.0</ele>
        <time>2019-07-05T13:35:34Z</time>
      </trkpt>
      <trkpt lat="41.458755" lon="-8.766465">
        <ele>68.0</ele>
        <time>2019-07-05T13:35:36Z</time>
      </trkpt>
      <trkpt lat="41.458655" lon="-8.7664">
        <ele>68.0</ele>
        <time>2019-07-05T13:35:38Z</time>
      </trkpt>
      <trkpt lat="41.458545" lon="-8.766335">
        <ele>69.0</ele>
        <time>2019-07-05T13:35:40Z</time>
      </trkpt>
      <trkpt lat="41.458445" lon="-8.766258333333333">
        <ele>69.0</ele>
        <time>2019-07-05T13:35:42Z</time>
      </trkpt>
      <trkpt lat="41.458346666666664" lon="-8.766185">
        <ele>69.0</ele>
        <time>2019-07-05T13:35:44Z</time>
      </trkpt>
      <trkpt lat="41.45825" lon="-8.76611">
        <ele>70.0</ele>
        <time>2019-07-05T13:35:46Z</time>
      </trkpt>
      <trkpt lat="41.458155" lon="-8.766031666666667">
        <ele>70.0</ele>
        <time>2019-07-05T13:35:48Z</time>
      </trkpt>
      <trkpt lat="41.45806" lon="-8.765945">
        <ele>70.0</ele>
        <time>2019-07-05T13:35:50Z</time>
      </trkpt>
      <trkpt lat="41.45796" lon="-8.765855">
        <ele>70.0</ele>
        <time>2019-07-05T13:35:52Z</time>
      </trkpt>
      <trkpt lat="41.45786" lon="-8.765766666666666">
        <ele>70.0</ele>
        <time>2019-07-05T13:35:54Z</time>
      </trkpt>
      <trkpt lat="41.457765" lon="-8.76568">
        <ele>70.0</ele>
        <time>2019-07-05T13:35:56Z</time>
      </trkpt>
      <trkpt lat="41.457665" lon="-8.765593333333333">
        <ele>70.0</ele>
        <time>2019-07-05T13:35:58Z</time>
      </trkpt>
      <trkpt lat="41.45757" lon="-8.765516666666667">
        <ele>70.0</ele>
        <time>2019-07-05T13:36:00Z</time>
      </trkpt>
      <trkpt lat="41.45746" lon="-8.76544">
        <ele>70.0</ele>
        <time>2019-07-05T13:36:02Z</time>
      </trkpt>
      <trkpt lat="41.457345" lon="-8.765385">
        <ele>70.0</ele>
        <time>2019-07-05T13:36:04Z</time>
      </trkpt>
      <trkpt lat="41.45724" lon="-8.765328333333333">
        <ele>70.0</ele>
        <time>2019-07-05T13:36:06Z</time>
      </trkpt>
      <trkpt lat="41.45713666666666" lon="-8.76528">
        <ele>70.0</ele>
        <time>2019-07-05T13:36:08Z</time>
      </trkpt>
      <trkpt lat="41.457031666666666" lon="-8.765245">
        <ele>70.0</ele>
        <time>2019-07-05T13:36:10Z</time>
      </trkpt>
      <trkpt lat="41.45693" lon="-8.76522">
        <ele>70.0</ele>
        <time>2019-07-05T13:36:12Z</time>
      </trkpt>
      <trkpt lat="41.456826666666664" lon="-8.76518">
        <ele>70.0</ele>
        <time>2019-07-05T13:36:14Z</time>
      </trkpt>
      <trkpt lat="41.45673" lon="-8.765135">
        <ele>71.0</ele>
        <time>2019-07-05T13:36:16Z</time>
      </trkpt>
      <trkpt lat="41.45663" lon="-8.765081666666667">
        <ele>71.0</ele>
        <time>2019-07-05T13:36:18Z</time>
      </trkpt>
      <trkpt lat="41.456535" lon="-8.765043333333333">
        <ele>71.0</ele>
        <time>2019-07-05T13:36:20Z</time>
      </trkpt>
      <trkpt lat="41.45644" lon="-8.76501">
        <ele>71.0</ele>
        <time>2019-07-05T13:36:22Z</time>
      </trkpt>
      <trkpt lat="41.456345" lon="-8.76496">
        <ele>71.0</ele>
        <time>2019-07-05T13:36:24Z</time>
      </trkpt>
      <trkpt lat="41.45625" lon="-8.764896666666667">
        <ele>72.0</ele>
        <time>2019-07-05T13:36:26Z</time>
      </trkpt>
      <trkpt lat="41.45616" lon="-8.764835">
        <ele>72.0</ele>
        <time>2019-07-05T13:36:28Z</time>
      </trkpt>
      <trkpt lat="41.456065" lon="-8.76478">
        <ele>72.0</ele>
        <time>2019-07-05T13:36:30Z</time>
      </trkpt>
      <trkpt lat="41.45597" lon="-8.764715">
        <ele>72.0</ele>
        <time>2019-07-05T13:36:32Z</time>
      </trkpt>
      <trkpt lat="41.455875" lon="-8.764645">
        <ele>72.0</ele>
        <time>2019-07-05T13:36:34Z</time>
      </trkpt>
      <trkpt lat="41.455775" lon="-8.76458">
        <ele>72.0</ele>
        <time>2019-07-05T13:36:36Z</time>
      </trkpt>
      <trkpt lat="41.455675" lon="-8.76452">
        <ele>72.0</ele>
        <time>2019-07-05T13:36:38Z</time>
      </trkpt>
      <trkpt lat="41.45558" lon="-8.764445">
        <ele>72.0</ele>
        <time>2019-07-05T13:36:40Z</time>
      </trkpt>
      <trkpt lat="41.45549" lon="-8.76438">
        <ele>72.0</ele>
        <time>2019-07-05T13:36:42Z</time>
      </trkpt>
      <trkpt lat="41.45539" lon="-8.76431">
        <ele>72.0</ele>
        <time>2019-07-05T13:36:44Z</time>
      </trkpt>
      <trkpt lat="41.455295" lon="-8.764241666666667">
        <ele>72.0</ele>
        <time>2019-07-05T13:36:46Z</time>
      </trkpt>
      <trkpt lat="41.455205" lon="-8.764165">
        <ele>72.0</ele>
        <time>2019-07-05T13:36:48Z</time>
      </trkpt>
      <trkpt lat="41.45511" lon="-8.76409">
        <ele>72.0</ele>
        <time>2019-07-05T13:36:50Z</time>
      </trkpt>
      <trkpt lat="41.455016666666666" lon="-8.76402">
        <ele>72.0</ele>
        <time>2019-07-05T13:36:52Z</time>
      </trkpt>
      <trkpt lat="41.45492" lon="-8.76394">
        <ele>72.0</ele>
        <time>2019-07-05T13:36:54Z</time>
      </trkpt>
      <trkpt lat="41.454825" lon="-8.763861666666667">
        <ele>72.0</ele>
        <time>2019-07-05T13:36:56Z</time>
      </trkpt>
      <trkpt lat="41.45473" lon="-8.763785">
        <ele>72.0</ele>
        <time>2019-07-05T13:36:58Z</time>
      </trkpt>
      <trkpt lat="41.454633333333334" lon="-8.763705">
        <ele>72.0</ele>
        <time>2019-07-05T13:37:00Z</time>
      </trkpt>
      <trkpt lat="41.45454" lon="-8.763623333333333">
        <ele>72.0</ele>
        <time>2019-07-05T13:37:02Z</time>
      </trkpt>
      <trkpt lat="41.454445" lon="-8.76355">
        <ele>72.0</ele>
        <time>2019-07-05T13:37:04Z</time>
      </trkpt>
      <trkpt lat="41.45435" lon="-8.763471666666666">
        <ele>72.0</ele>
        <time>2019-07-05T13:37:06Z</time>
      </trkpt>
      <trkpt lat="41.45425" lon="-8.763405">
        <ele>72.0</ele>
        <time>2019-07-05T13:37:08Z</time>
      </trkpt>
      <trkpt lat="41.454155" lon="-8.763345">
        <ele>72.0</ele>
        <time>2019-07-05T13:37:10Z</time>
      </trkpt>
      <trkpt lat="41.45405" lon="-8.763285">
        <ele>72.0</ele>
        <time>2019-07-05T13:37:12Z</time>
      </trkpt>
      <trkpt lat="41.453943333333335" lon="-8.76322">
        <ele>72.0</ele>
        <time>2019-07-05T13:37:14Z</time>
      </trkpt>
      <trkpt lat="41.453845" lon="-8.763155">
        <ele>72.0</ele>
        <time>2019-07-05T13:37:16Z</time>
      </trkpt>
      <trkpt lat="41.45375166666667" lon="-8.76309">
        <ele>72.0</ele>
        <time>2019-07-05T13:37:18Z</time>
      </trkpt>
      <trkpt lat="41.45366" lon="-8.76301">
        <ele>73.0</ele>
        <time>2019-07-05T13:37:20Z</time>
      </trkpt>
      <trkpt lat="41.453575" lon="-8.762935">
        <ele>73.0</ele>
        <time>2019-07-05T13:37:21Z</time>
      </trkpt>
      <trkpt lat="41.45348666666667" lon="-8.762855">
        <ele>73.0</ele>
        <time>2019-07-05T13:37:24Z</time>
      </trkpt>
      <trkpt lat="41.453395" lon="-8.76278">
        <ele>73.0</ele>
        <time>2019-07-05T13:37:26Z</time>
      </trkpt>
      <trkpt lat="41.45330666666667" lon="-8.762705">
        <ele>73.0</ele>
        <time>2019-07-05T13:37:28Z</time>
      </trkpt>
      <trkpt lat="41.45322" lon="-8.762615">
        <ele>73.0</ele>
        <time>2019-07-05T13:37:30Z</time>
      </trkpt>
      <trkpt lat="41.453125" lon="-8.76254">
        <ele>73.0</ele>
        <time>2019-07-05T13:37:32Z</time>
      </trkpt>
      <trkpt lat="41.453035" lon="-8.762465">
        <ele>73.0</ele>
        <time>2019-07-05T13:37:34Z</time>
      </trkpt>
      <trkpt lat="41.45294" lon="-8.762385">
        <ele>73.0</ele>
        <time>2019-07-05T13:37:36Z</time>
      </trkpt>
      <trkpt lat="41.45285" lon="-8.762306666666667">
        <ele>73.0</ele>
        <time>2019-07-05T13:37:38Z</time>
      </trkpt>
      <trkpt lat="41.45275" lon="-8.762225">
        <ele>72.0</ele>
        <time>2019-07-05T13:37:40Z</time>
      </trkpt>
      <trkpt lat="41.452655" lon="-8.76216">
        <ele>72.0</ele>
        <time>2019-07-05T13:37:42Z</time>
      </trkpt>
      <trkpt lat="41.452565" lon="-8.76208">
        <ele>72.0</ele>
        <time>2019-07-05T13:37:44Z</time>
      </trkpt>
      <trkpt lat="41.45248" lon="-8.761986666666667">
        <ele>73.0</ele>
        <time>2019-07-05T13:37:46Z</time>
      </trkpt>
      <trkpt lat="41.45239" lon="-8.761905">
        <ele>73.0</ele>
        <time>2019-07-05T13:37:48Z</time>
      </trkpt>
      <trkpt lat="41.452305" lon="-8.761815">
        <ele>73.0</ele>
        <time>2019-07-05T13:37:50Z</time>
      </trkpt>
      <trkpt lat="41.452235" lon="-8.761706666666667">
        <ele>73.0</ele>
        <time>2019-07-05T13:37:52Z</time>
      </trkpt>
      <trkpt lat="41.45216" lon="-8.76159">
        <ele>74.0</ele>
        <time>2019-07-05T13:37:54Z</time>
      </trkpt>
      <trkpt lat="41.45209" lon="-8.761475">
        <ele>74.0</ele>
        <time>2019-07-05T13:37:56Z</time>
      </trkpt>
      <trkpt lat="41.45203" lon="-8.76135">
        <ele>74.0</ele>
        <time>2019-07-05T13:37:58Z</time>
      </trkpt>
      <trkpt lat="41.451985" lon="-8.761215">
        <ele>74.0</ele>
        <time>2019-07-05T13:38:00Z</time>
      </trkpt>
      <trkpt lat="41.45196166666667" lon="-8.761071666666666">
        <ele>74.0</ele>
        <time>2019-07-05T13:38:02Z</time>
      </trkpt>
      <trkpt lat="41.451945" lon="-8.76094">
        <ele>73.0</ele>
        <time>2019-07-05T13:38:04Z</time>
      </trkpt>
      <trkpt lat="41.451935" lon="-8.760816666666667">
        <ele>74.0</ele>
        <time>2019-07-05T13:38:06Z</time>
      </trkpt>
      <trkpt lat="41.45189666666667" lon="-8.7607">
        <ele>73.0</ele>
        <time>2019-07-05T13:38:08Z</time>
      </trkpt>
      <trkpt lat="41.45183" lon="-8.760605">
        <ele>73.0</ele>
        <time>2019-07-05T13:38:10Z</time>
      </trkpt>
      <trkpt lat="41.451735" lon="-8.76055">
        <ele>74.0</ele>
        <time>2019-07-05T13:38:12Z</time>
      </trkpt>
      <trkpt lat="41.45163" lon="-8.760515">
        <ele>74.0</ele>
        <time>2019-07-05T13:38:14Z</time>
      </trkpt>
      <trkpt lat="41.451535" lon="-8.760443333333333">
        <ele>74.0</ele>
        <time>2019-07-05T13:38:16Z</time>
      </trkpt>
      <trkpt lat="41.451445" lon="-8.760335">
        <ele>74.0</ele>
        <time>2019-07-05T13:38:18Z</time>
      </trkpt>
      <trkpt lat="41.451365" lon="-8.760221666666666">
        <ele>74.0</ele>
        <time>2019-07-05T13:38:20Z</time>
      </trkpt>
      <trkpt lat="41.45128166666667" lon="-8.76012">
        <ele>72.0</ele>
        <time>2019-07-05T13:38:22Z</time>
      </trkpt>
      <trkpt lat="41.45119" lon="-8.760006666666667">
        <ele>70.0</ele>
        <time>2019-07-05T13:38:24Z</time>
      </trkpt>
      <trkpt lat="41.451105" lon="-8.759886666666667">
        <ele>71.0</ele>
        <time>2019-07-05T13:38:26Z</time>
      </trkpt>
      <trkpt lat="41.451015" lon="-8.759765">
        <ele>71.0</ele>
        <time>2019-07-05T13:38:28Z</time>
      </trkpt>
      <trkpt lat="41.45093" lon="-8.75964">
        <ele>71.0</ele>
        <time>2019-07-05T13:38:30Z</time>
      </trkpt>
      <trkpt lat="41.450855" lon="-8.75951">
        <ele>72.0</ele>
        <time>2019-07-05T13:38:32Z</time>
      </trkpt>
      <trkpt lat="41.450775" lon="-8.759376666666666">
        <ele>72.0</ele>
        <time>2019-07-05T13:38:34Z</time>
      </trkpt>
      <trkpt lat="41.450691666666664" lon="-8.75925">
        <ele>72.0</ele>
        <time>2019-07-05T13:38:36Z</time>
      </trkpt>
      <trkpt lat="41.45060333333333" lon="-8.75913">
        <ele>72.0</ele>
        <time>2019-07-05T13:38:38Z</time>
      </trkpt>
      <trkpt lat="41.45052" lon="-8.759006666666666">
        <ele>72.0</ele>
        <time>2019-07-05T13:38:40Z</time>
      </trkpt>
      <trkpt lat="41.450445" lon="-8.75888">
        <ele>72.0</ele>
        <time>2019-07-05T13:38:42Z</time>
      </trkpt>
      <trkpt lat="41.450381666666665" lon="-8.758745">
        <ele>73.0</ele>
        <time>2019-07-05T13:38:44Z</time>
      </trkpt>
      <trkpt lat="41.45034" lon="-8.758596666666667">
        <ele>73.0</ele>
        <time>2019-07-05T13:38:46Z</time>
      </trkpt>
      <trkpt lat="41.4503" lon="-8.758445">
        <ele>73.0</ele>
        <time>2019-07-05T13:38:48Z</time>
      </trkpt>
      <trkpt lat="41.450265" lon="-8.7583">
        <ele>74.0</ele>
        <time>2019-07-05T13:38:50Z</time>
      </trkpt>
      <trkpt lat="41.450225" lon="-8.758155">
        <ele>73.0</ele>
        <time>2019-07-05T13:38:52Z</time>
      </trkpt>
      <trkpt lat="41.45017" lon="-8.75802">
        <ele>74.0</ele>
        <time>2019-07-05T13:38:54Z</time>
      </trkpt>
      <trkpt lat="41.4501" lon="-8.75789">
        <ele>74.0</ele>
        <time>2019-07-05T13:38:56Z</time>
      </trkpt>
      <trkpt lat="41.450025" lon="-8.757761666666667">
        <ele>74.0</ele>
        <time>2019-07-05T13:38:58Z</time>
      </trkpt>
      <trkpt lat="41.44996" lon="-8.75763">
        <ele>73.0</ele>
        <time>2019-07-05T13:39:00Z</time>
      </trkpt>
      <trkpt lat="41.44989" lon="-8.757505">
        <ele>73.0</ele>
        <time>2019-07-05T13:39:02Z</time>
      </trkpt>
      <trkpt lat="41.449805" lon="-8.757395">
        <ele>74.0</ele>
        <time>2019-07-05T13:39:04Z</time>
      </trkpt>
      <trkpt lat="41.44971" lon="-8.757295">
        <ele>74.0</ele>
        <time>2019-07-05T13:39:06Z</time>
      </trkpt>
      <trkpt lat="41.449616666666664" lon="-8.757195">
        <ele>74.0</ele>
        <time>2019-07-05T13:39:08Z</time>
      </trkpt>
      <trkpt lat="41.449525" lon="-8.75709">
        <ele>74.0</ele>
        <time>2019-07-05T13:39:10Z</time>
      </trkpt>
      <trkpt lat="41.449445" lon="-8.756971666666667">
        <ele>74.0</ele>
        <time>2019-07-05T13:39:12Z</time>
      </trkpt>
      <trkpt lat="41.44937" lon="-8.75685">
        <ele>74.0</ele>
        <time>2019-07-05T13:39:14Z</time>
      </trkpt>
      <trkpt lat="41.449305" lon="-8.756715">
        <ele>73.0</ele>
        <time>2019-07-05T13:39:16Z</time>
      </trkpt>
      <trkpt lat="41.449235" lon="-8.75658">
        <ele>74.0</ele>
        <time>2019-07-05T13:39:18Z</time>
      </trkpt>
      <trkpt lat="41.449173333333334" lon="-8.756455">
        <ele>74.0</ele>
        <time>2019-07-05T13:39:20Z</time>
      </trkpt>
      <trkpt lat="41.449095" lon="-8.756348333333333">
        <ele>74.0</ele>
        <time>2019-07-05T13:39:22Z</time>
      </trkpt>
      <trkpt lat="41.44901" lon="-8.756245">
        <ele>74.0</ele>
        <time>2019-07-05T13:39:24Z</time>
      </trkpt>
      <trkpt lat="41.448925" lon="-8.756125">
        <ele>74.0</ele>
        <time>2019-07-05T13:39:26Z</time>
      </trkpt>
      <trkpt lat="41.448835" lon="-8.756025">
        <ele>74.0</ele>
        <time>2019-07-05T13:39:28Z</time>
      </trkpt>
      <trkpt lat="41.448735" lon="-8.75594">
        <ele>74.0</ele>
        <time>2019-07-05T13:39:30Z</time>
      </trkpt>
      <trkpt lat="41.44864166666667" lon="-8.755835">
        <ele>74.0</ele>
        <time>2019-07-05T13:39:32Z</time>
      </trkpt>
      <trkpt lat="41.448565" lon="-8.755715">
        <ele>74.0</ele>
        <time>2019-07-05T13:39:34Z</time>
      </trkpt>
      <trkpt lat="41.44849833333333" lon="-8.755591666666668">
        <ele>74.0</ele>
        <time>2019-07-05T13:39:36Z</time>
      </trkpt>
      <trkpt lat="41.448435" lon="-8.755458333333333">
        <ele>74.0</ele>
        <time>2019-07-05T13:39:38Z</time>
      </trkpt>
      <trkpt lat="41.448375" lon="-8.755325">
        <ele>74.0</ele>
        <time>2019-07-05T13:39:40Z</time>
      </trkpt>
      <trkpt lat="41.44831" lon="-8.755185">
        <ele>75.0</ele>
        <time>2019-07-05T13:39:42Z</time>
      </trkpt>
      <trkpt lat="41.44824166666667" lon="-8.755055">
        <ele>75.0</ele>
        <time>2019-07-05T13:39:44Z</time>
      </trkpt>
      <trkpt lat="41.448195" lon="-8.754915">
        <ele>74.0</ele>
        <time>2019-07-05T13:39:46Z</time>
      </trkpt>
      <trkpt lat="41.44817166666667" lon="-8.75477">
        <ele>74.0</ele>
        <time>2019-07-05T13:39:48Z</time>
      </trkpt>
      <trkpt lat="41.44815" lon="-8.754628333333333">
        <ele>75.0</ele>
        <time>2019-07-05T13:39:50Z</time>
      </trkpt>
      <trkpt lat="41.44813" lon="-8.75451">
        <ele>75.0</ele>
        <time>2019-07-05T13:39:52Z</time>
      </trkpt>
      <trkpt lat="41.44810666666667" lon="-8.75441">
        <ele>75.0</ele>
        <time>2019-07-05T13:39:54Z</time>
      </trkpt>
      <trkpt lat="41.448056666666666" lon="-8.75434">
        <ele>74.0</ele>
        <time>2019-07-05T13:39:56Z</time>
      </trkpt>
      <trkpt lat="41.44798" lon="-8.75431">
        <ele>74.0</ele>
        <time>2019-07-05T13:39:58Z</time>
      </trkpt>
      <trkpt lat="41.44789" lon="-8.75429">
        <ele>74.0</ele>
        <time>2019-07-05T13:40:00Z</time>
      </trkpt>
      <trkpt lat="41.447785" lon="-8.75429">
        <ele>74.0</ele>
        <time>2019-07-05T13:40:02Z</time>
      </trkpt>
      <trkpt lat="41.44766666666666" lon="-8.75429">
        <ele>74.0</ele>
        <time>2019-07-05T13:40:04Z</time>
      </trkpt>
      <trkpt lat="41.44755" lon="-8.75428">
        <ele>74.0</ele>
        <time>2019-07-05T13:40:06Z</time>
      </trkpt>
      <trkpt lat="41.447426666666665" lon="-8.75426">
        <ele>75.0</ele>
        <time>2019-07-05T13:40:08Z</time>
      </trkpt>
      <trkpt lat="41.447305" lon="-8.754276666666666">
        <ele>75.0</ele>
        <time>2019-07-05T13:40:10Z</time>
      </trkpt>
      <trkpt lat="41.447185" lon="-8.754325">
        <ele>75.0</ele>
        <time>2019-07-05T13:40:12Z</time>
      </trkpt>
      <trkpt lat="41.447048333333335" lon="-8.754361666666666">
        <ele>75.0</ele>
        <time>2019-07-05T13:40:14Z</time>
      </trkpt>
      <trkpt lat="41.446925" lon="-8.754385">
        <ele>76.0</ele>
        <time>2019-07-05T13:40:16Z</time>
      </trkpt>
      <trkpt lat="41.446801666666666" lon="-8.754405">
        <ele>75.0</ele>
        <time>2019-07-05T13:40:18Z</time>
      </trkpt>
      <trkpt lat="41.44668333333333" lon="-8.75443">
        <ele>75.0</ele>
        <time>2019-07-05T13:40:20Z</time>
      </trkpt>
      <trkpt lat="41.44657" lon="-8.75445">
        <ele>75.0</ele>
        <time>2019-07-05T13:40:22Z</time>
      </trkpt>
      <trkpt lat="41.446465" lon="-8.75447">
        <ele>75.0</ele>
        <time>2019-07-05T13:40:24Z</time>
      </trkpt>
      <trkpt lat="41.44636" lon="-8.75449">
        <ele>75.0</ele>
        <time>2019-07-05T13:40:26Z</time>
      </trkpt>
      <trkpt lat="41.44625" lon="-8.754516666666667">
        <ele>75.0</ele>
        <time>2019-07-05T13:40:28Z</time>
      </trkpt>
      <trkpt lat="41.446165" lon="-8.754535">
        <ele>77.0</ele>
        <time>2019-07-05T13:40:30Z</time>
      </trkpt>
      <trkpt lat="41.446075" lon="-8.754565">
        <ele>76.0</ele>
        <time>2019-07-05T13:40:32Z</time>
      </trkpt>
      <trkpt lat="41.44598" lon="-8.75459">
        <ele>77.0</ele>
        <time>2019-07-05T13:40:34Z</time>
      </trkpt>
      <trkpt lat="41.44589" lon="-8.75462">
        <ele>77.0</ele>
        <time>2019-07-05T13:40:36Z</time>
      </trkpt>
      <trkpt lat="41.445795" lon="-8.754645">
        <ele>78.0</ele>
        <time>2019-07-05T13:40:38Z</time>
      </trkpt>
      <trkpt lat="41.44571" lon="-8.75466">
        <ele>78.0</ele>
        <time>2019-07-05T13:40:40Z</time>
      </trkpt>
      <trkpt lat="41.445625" lon="-8.75468">
        <ele>78.0</ele>
        <time>2019-07-05T13:40:42Z</time>
      </trkpt>
      <trkpt lat="41.44554" lon="-8.754705">
        <ele>78.0</ele>
        <time>2019-07-05T13:40:44Z</time>
      </trkpt>
      <trkpt lat="41.445458333333335" lon="-8.754725">
        <ele>79.0</ele>
        <time>2019-07-05T13:40:46Z</time>
      </trkpt>
      <trkpt lat="41.44538166666667" lon="-8.754731666666666">
        <ele>79.0</ele>
        <time>2019-07-05T13:40:48Z</time>
      </trkpt>
      <trkpt lat="41.445298333333334" lon="-8.75474">
        <ele>80.0</ele>
        <time>2019-07-05T13:40:50Z</time>
      </trkpt>
      <trkpt lat="41.44521666666667" lon="-8.754765">
        <ele>80.0</ele>
        <time>2019-07-05T13:40:52Z</time>
      </trkpt>
      <trkpt lat="41.44514" lon="-8.75478">
        <ele>81.0</ele>
        <time>2019-07-05T13:40:54Z</time>
      </trkpt>
      <trkpt lat="41.445065" lon="-8.754796666666667">
        <ele>81.0</ele>
        <time>2019-07-05T13:40:56Z</time>
      </trkpt>
      <trkpt lat="41.44499" lon="-8.754805">
        <ele>81.0</ele>
        <time>2019-07-05T13:40:58Z</time>
      </trkpt>
      <trkpt lat="41.444916666666664" lon="-8.75479">
        <ele>82.0</ele>
        <time>2019-07-05T13:41:00Z</time>
      </trkpt>
      <trkpt lat="41.44481666666667" lon="-8.75477">
        <ele>82.0</ele>
        <time>2019-07-05T13:41:03Z</time>
      </trkpt>
      <trkpt lat="41.44473" lon="-8.754721666666667">
        <ele>83.0</ele>
        <time>2019-07-05T13:41:06Z</time>
      </trkpt>
      <trkpt lat="41.444655" lon="-8.75469">
        <ele>83.0</ele>
        <time>2019-07-05T13:41:08Z</time>
      </trkpt>
      <trkpt lat="41.44456" lon="-8.75464">
        <ele>82.0</ele>
        <time>2019-07-05T13:41:11Z</time>
      </trkpt>
      <trkpt lat="41.4445" lon="-8.75459">
        <ele>83.0</ele>
        <time>2019-07-05T13:41:13Z</time>
      </trkpt>
      <trkpt lat="41.444435" lon="-8.754545">
        <ele>83.0</ele>
        <time>2019-07-05T13:41:15Z</time>
      </trkpt>
      <trkpt lat="41.444345" lon="-8.754473333333333">
        <ele>83.0</ele>
        <time>2019-07-05T13:41:18Z</time>
      </trkpt>
      <trkpt lat="41.44426" lon="-8.7544">
        <ele>83.0</ele>
        <time>2019-07-05T13:41:21Z</time>
      </trkpt>
      <trkpt lat="41.44417833333333" lon="-8.75433">
        <ele>84.0</ele>
        <time>2019-07-05T13:41:24Z</time>
      </trkpt>
      <trkpt lat="41.4441" lon="-8.75427">
        <ele>84.0</ele>
        <time>2019-07-05T13:41:27Z</time>
      </trkpt>
      <trkpt lat="41.444005" lon="-8.754225">
        <ele>84.0</ele>
        <time>2019-07-05T13:41:30Z</time>
      </trkpt>
      <trkpt lat="41.44393" lon="-8.7542">
        <ele>84.0</ele>
        <time>2019-07-05T13:41:32Z</time>
      </trkpt>
      <trkpt lat="41.44386166666666" lon="-8.75416">
        <ele>84.0</ele>
        <time>2019-07-05T13:41:34Z</time>
      </trkpt>
      <trkpt lat="41.4438" lon="-8.7541">
        <ele>84.0</ele>
        <time>2019-07-05T13:41:36Z</time>
      </trkpt>
      <trkpt lat="41.44372833333333" lon="-8.754035">
        <ele>84.0</ele>
        <time>2019-07-05T13:41:38Z</time>
      </trkpt>
      <trkpt lat="41.44365166666667" lon="-8.75398">
        <ele>84.0</ele>
        <time>2019-07-05T13:41:40Z</time>
      </trkpt>
      <trkpt lat="41.44357" lon="-8.753945">
        <ele>84.0</ele>
        <time>2019-07-05T13:41:42Z</time>
      </trkpt>
      <trkpt lat="41.443475" lon="-8.753935">
        <ele>84.0</ele>
        <time>2019-07-05T13:41:44Z</time>
      </trkpt>
      <trkpt lat="41.443375" lon="-8.753935">
        <ele>84.0</ele>
        <time>2019-07-05T13:41:46Z</time>
      </trkpt>
      <trkpt lat="41.44327666666667" lon="-8.75393">
        <ele>84.0</ele>
        <time>2019-07-05T13:41:48Z</time>
      </trkpt>
      <trkpt lat="41.44317" lon="-8.753923333333333">
        <ele>85.0</ele>
        <time>2019-07-05T13:41:50Z</time>
      </trkpt>
      <trkpt lat="41.443075" lon="-8.753925">
        <ele>85.0</ele>
        <time>2019-07-05T13:41:52Z</time>
      </trkpt>
      <trkpt lat="41.442975" lon="-8.753935">
        <ele>85.0</ele>
        <time>2019-07-05T13:41:54Z</time>
      </trkpt>
      <trkpt lat="41.44287833333333" lon="-8.753945">
        <ele>85.0</ele>
        <time>2019-07-05T13:41:56Z</time>
      </trkpt>
      <trkpt lat="41.442785" lon="-8.75395">
        <ele>85.0</ele>
        <time>2019-07-05T13:41:58Z</time>
      </trkpt>
      <trkpt lat="41.442681666666665" lon="-8.753941666666666">
        <ele>85.0</ele>
        <time>2019-07-05T13:42:00Z</time>
      </trkpt>
      <trkpt lat="41.44258" lon="-8.75394">
        <ele>84.0</ele>
        <time>2019-07-05T13:42:02Z</time>
      </trkpt>
      <trkpt lat="41.44248" lon="-8.75393">
        <ele>84.0</ele>
        <time>2019-07-05T13:42:04Z</time>
      </trkpt>
      <trkpt lat="41.44237" lon="-8.75392">
        <ele>85.0</ele>
        <time>2019-07-05T13:42:06Z</time>
      </trkpt>
      <trkpt lat="41.44226166666667" lon="-8.753935">
        <ele>86.0</ele>
        <time>2019-07-05T13:42:08Z</time>
      </trkpt>
      <trkpt lat="41.442155" lon="-8.753945">
        <ele>86.0</ele>
        <time>2019-07-05T13:42:10Z</time>
      </trkpt>
      <trkpt lat="41.44206" lon="-8.753935">
        <ele>86.0</ele>
        <time>2019-07-05T13:42:12Z</time>
      </trkpt>
      <trkpt lat="41.441955" lon="-8.753935">
        <ele>87.0</ele>
        <time>2019-07-05T13:42:14Z</time>
      </trkpt>
      <trkpt lat="41.44187" lon="-8.75393">
        <ele>87.0</ele>
        <time>2019-07-05T13:42:16Z</time>
      </trkpt>
      <trkpt lat="41.441785" lon="-8.753946666666666">
        <ele>87.0</ele>
        <time>2019-07-05T13:42:18Z</time>
      </trkpt>
      <trkpt lat="41.44171" lon="-8.75394">
        <ele>86.0</ele>
        <time>2019-07-05T13:42:20Z</time>
      </trkpt>
      <trkpt lat="41.441625" lon="-8.753946666666666">
        <ele>86.0</ele>
        <time>2019-07-05T13:42:22Z</time>
      </trkpt>
      <trkpt lat="41.44154" lon="-8.753923333333333">
        <ele>86.0</ele>
        <time>2019-07-05T13:42:24Z</time>
      </trkpt>
      <trkpt lat="41.441455" lon="-8.753875">
        <ele>86.0</ele>
        <time>2019-07-05T13:42:26Z</time>
      </trkpt>
      <trkpt lat="41.441363333333335" lon="-8.753826666666667">
        <ele>86.0</ele>
        <time>2019-07-05T13:42:28Z</time>
      </trkpt>
      <trkpt lat="41.44128" lon="-8.753786666666667">
        <ele>88.0</ele>
        <time>2019-07-05T13:42:30Z</time>
      </trkpt>
      <trkpt lat="41.441181666666665" lon="-8.75374">
        <ele>87.0</ele>
        <time>2019-07-05T13:42:32Z</time>
      </trkpt>
      <trkpt lat="41.441105" lon="-8.75369">
        <ele>88.0</ele>
        <time>2019-07-05T13:42:34Z</time>
      </trkpt>
      <trkpt lat="41.44103" lon="-8.75365">
        <ele>88.0</ele>
        <time>2019-07-05T13:42:36Z</time>
      </trkpt>
      <trkpt lat="41.44095" lon="-8.753595">
        <ele>88.0</ele>
        <time>2019-07-05T13:42:38Z</time>
      </trkpt>
      <trkpt lat="41.44087" lon="-8.75354">
        <ele>87.0</ele>
        <time>2019-07-05T13:42:40Z</time>
      </trkpt>
      <trkpt lat="41.44079166666667" lon="-8.753481666666667">
        <ele>87.0</ele>
        <time>2019-07-05T13:42:42Z</time>
      </trkpt>
      <trkpt lat="41.440715" lon="-8.75343">
        <ele>87.0</ele>
        <time>2019-07-05T13:42:44Z</time>
      </trkpt>
      <trkpt lat="41.44065" lon="-8.753365">
        <ele>88.0</ele>
        <time>2019-07-05T13:42:46Z</time>
      </trkpt>
      <trkpt lat="41.44058666666667" lon="-8.753285">
        <ele>87.0</ele>
        <time>2019-07-05T13:42:48Z</time>
      </trkpt>
      <trkpt lat="41.440511666666666" lon="-8.753215">
        <ele>87.0</ele>
        <time>2019-07-05T13:42:50Z</time>
      </trkpt>
      <trkpt lat="41.44044" lon="-8.753155">
        <ele>87.0</ele>
        <time>2019-07-05T13:42:52Z</time>
      </trkpt>
      <trkpt lat="41.440365" lon="-8.753095">
        <ele>88.0</ele>
        <time>2019-07-05T13:42:54Z</time>
      </trkpt>
      <trkpt lat="41.44030166666667" lon="-8.75302">
        <ele>88.0</ele>
        <time>2019-07-05T13:42:56Z</time>
      </trkpt>
      <trkpt lat="41.44023833333333" lon="-8.75294">
        <ele>88.0</ele>
        <time>2019-07-05T13:42:58Z</time>
      </trkpt>
      <trkpt lat="41.440176666666666" lon="-8.75285">
        <ele>87.0</ele>
        <time>2019-07-05T13:43:00Z</time>
      </trkpt>
      <trkpt lat="41.440085" lon="-8.752835">
        <ele>87.0</ele>
        <time>2019-07-05T13:43:03Z</time>
      </trkpt>
      <trkpt lat="41.440025" lon="-8.75291">
        <ele>87.0</ele>
        <time>2019-07-05T13:43:05Z</time>
      </trkpt>
      <trkpt lat="41.43996" lon="-8.752995">
        <ele>88.0</ele>
        <time>2019-07-05T13:43:07Z</time>
      </trkpt>
      <trkpt lat="41.43987666666666" lon="-8.753075">
        <ele>88.0</ele>
        <time>2019-07-05T13:43:09Z</time>
      </trkpt>
      <trkpt lat="41.43978666666667" lon="-8.753165">
        <ele>87.0</ele>
        <time>2019-07-05T13:43:11Z</time>
      </trkpt>
      <trkpt lat="41.439695" lon="-8.753225">
        <ele>87.0</ele>
        <time>2019-07-05T13:43:13Z</time>
      </trkpt>
      <trkpt lat="41.439585" lon="-8.753255">
        <ele>86.0</ele>
        <time>2019-07-05T13:43:15Z</time>
      </trkpt>
      <trkpt lat="41.439485" lon="-8.753211666666667">
        <ele>86.0</ele>
        <time>2019-07-05T13:43:17Z</time>
      </trkpt>
      <trkpt lat="41.43939" lon="-8.75314">
        <ele>86.0</ele>
        <time>2019-07-05T13:43:19Z</time>
      </trkpt>
      <trkpt lat="41.43931" lon="-8.75304">
        <ele>86.0</ele>
        <time>2019-07-05T13:43:21Z</time>
      </trkpt>
      <trkpt lat="41.43924166666667" lon="-8.752915">
        <ele>87.0</ele>
        <time>2019-07-05T13:43:23Z</time>
      </trkpt>
      <trkpt lat="41.43918166666667" lon="-8.752785">
        <ele>86.0</ele>
        <time>2019-07-05T13:43:25Z</time>
      </trkpt>
      <trkpt lat="41.439125" lon="-8.752655">
        <ele>86.0</ele>
        <time>2019-07-05T13:43:27Z</time>
      </trkpt>
      <trkpt lat="41.43907" lon="-8.752525">
        <ele>87.0</ele>
        <time>2019-07-05T13:43:29Z</time>
      </trkpt>
      <trkpt lat="41.43902" lon="-8.752395">
        <ele>87.0</ele>
        <time>2019-07-05T13:43:31Z</time>
      </trkpt>
      <trkpt lat="41.43897" lon="-8.752266666666667">
        <ele>86.0</ele>
        <time>2019-07-05T13:43:33Z</time>
      </trkpt>
      <trkpt lat="41.438925" lon="-8.752135">
        <ele>86.0</ele>
        <time>2019-07-05T13:43:35Z</time>
      </trkpt>
      <trkpt lat="41.43891" lon="-8.751985">
        <ele>86.0</ele>
        <time>2019-07-05T13:43:37Z</time>
      </trkpt>
      <trkpt lat="41.438895" lon="-8.75185">
        <ele>86.0</ele>
        <time>2019-07-05T13:43:39Z</time>
      </trkpt>
      <trkpt lat="41.43889" lon="-8.751715">
        <ele>86.0</ele>
        <time>2019-07-05T13:43:41Z</time>
      </trkpt>
      <trkpt lat="41.438865" lon="-8.751585">
        <ele>86.0</ele>
        <time>2019-07-05T13:43:43Z</time>
      </trkpt>
      <trkpt lat="41.438806666666665" lon="-8.751496666666666">
        <ele>86.0</ele>
        <time>2019-07-05T13:43:45Z</time>
      </trkpt>
      <trkpt lat="41.438718333333334" lon="-8.75146">
        <ele>86.0</ele>
        <time>2019-07-05T13:43:47Z</time>
      </trkpt>
      <trkpt lat="41.43862" lon="-8.751445">
        <ele>86.0</ele>
        <time>2019-07-05T13:43:49Z</time>
      </trkpt>
      <trkpt lat="41.438515" lon="-8.751423333333333">
        <ele>87.0</ele>
        <time>2019-07-05T13:43:51Z</time>
      </trkpt>
      <trkpt lat="41.438408333333335" lon="-8.7514">
        <ele>87.0</ele>
        <time>2019-07-05T13:43:53Z</time>
      </trkpt>
      <trkpt lat="41.4383" lon="-8.751375">
        <ele>87.0</ele>
        <time>2019-07-05T13:43:55Z</time>
      </trkpt>
      <trkpt lat="41.438205" lon="-8.751335">
        <ele>86.0</ele>
        <time>2019-07-05T13:43:57Z</time>
      </trkpt>
      <trkpt lat="41.43810166666667" lon="-8.75128">
        <ele>88.0</ele>
        <time>2019-07-05T13:43:59Z</time>
      </trkpt>
      <trkpt lat="41.438005" lon="-8.75122">
        <ele>88.0</ele>
        <time>2019-07-05T13:44:01Z</time>
      </trkpt>
      <trkpt lat="41.437915" lon="-8.751135">
        <ele>87.0</ele>
        <time>2019-07-05T13:44:03Z</time>
      </trkpt>
      <trkpt lat="41.43781666666667" lon="-8.751063333333333">
        <ele>87.0</ele>
        <time>2019-07-05T13:44:05Z</time>
      </trkpt>
      <trkpt lat="41.437725" lon="-8.750985">
        <ele>87.0</ele>
        <time>2019-07-05T13:44:07Z</time>
      </trkpt>
      <trkpt lat="41.43763166666667" lon="-8.750905">
        <ele>87.0</ele>
        <time>2019-07-05T13:44:09Z</time>
      </trkpt>
      <trkpt lat="41.43752" lon="-8.75084">
        <ele>87.0</ele>
        <time>2019-07-05T13:44:11Z</time>
      </trkpt>
      <trkpt lat="41.437416666666664" lon="-8.75076">
        <ele>86.0</ele>
        <time>2019-07-05T13:44:13Z</time>
      </trkpt>
      <trkpt lat="41.43731" lon="-8.750688333333333">
        <ele>86.0</ele>
        <time>2019-07-05T13:44:15Z</time>
      </trkpt>
      <trkpt lat="41.43720666666667" lon="-8.75062">
        <ele>87.0</ele>
        <time>2019-07-05T13:44:17Z</time>
      </trkpt>
      <trkpt lat="41.437095" lon="-8.750536666666667">
        <ele>87.0</ele>
        <time>2019-07-05T13:44:19Z</time>
      </trkpt>
      <trkpt lat="41.436985" lon="-8.750445">
        <ele>87.0</ele>
        <time>2019-07-05T13:44:21Z</time>
      </trkpt>
      <trkpt lat="41.43688" lon="-8.750335">
        <ele>86.0</ele>
        <time>2019-07-05T13:44:23Z</time>
      </trkpt>
      <trkpt lat="41.43678" lon="-8.75022">
        <ele>86.0</ele>
        <time>2019-07-05T13:44:25Z</time>
      </trkpt>
      <trkpt lat="41.43668" lon="-8.750105">
        <ele>87.0</ele>
        <time>2019-07-05T13:44:27Z</time>
      </trkpt>
      <trkpt lat="41.43658" lon="-8.749985">
        <ele>87.0</ele>
        <time>2019-07-05T13:44:29Z</time>
      </trkpt>
      <trkpt lat="41.43648" lon="-8.74988">
        <ele>87.0</ele>
        <time>2019-07-05T13:44:31Z</time>
      </trkpt>
      <trkpt lat="41.436365" lon="-8.749805">
        <ele>87.0</ele>
        <time>2019-07-05T13:44:33Z</time>
      </trkpt>
      <trkpt lat="41.43624" lon="-8.749756666666666">
        <ele>86.0</ele>
        <time>2019-07-05T13:44:35Z</time>
      </trkpt>
      <trkpt lat="41.436125" lon="-8.749735">
        <ele>87.0</ele>
        <time>2019-07-05T13:44:37Z</time>
      </trkpt>
      <trkpt lat="41.436005" lon="-8.749695">
        <ele>87.0</ele>
        <time>2019-07-05T13:44:39Z</time>
      </trkpt>
      <trkpt lat="41.43589" lon="-8.749675">
        <ele>86.0</ele>
        <time>2019-07-05T13:44:41Z</time>
      </trkpt>
      <trkpt lat="41.43577166666667" lon="-8.74964">
        <ele>87.0</ele>
        <time>2019-07-05T13:44:43Z</time>
      </trkpt>
      <trkpt lat="41.43566166666667" lon="-8.749585">
        <ele>87.0</ele>
        <time>2019-07-05T13:44:45Z</time>
      </trkpt>
      <trkpt lat="41.435555" lon="-8.74953">
        <ele>88.0</ele>
        <time>2019-07-05T13:44:47Z</time>
      </trkpt>
      <trkpt lat="41.435445" lon="-8.749451666666667">
        <ele>89.0</ele>
        <time>2019-07-05T13:44:49Z</time>
      </trkpt>
      <trkpt lat="41.43534" lon="-8.749365">
        <ele>89.0</ele>
        <time>2019-07-05T13:44:51Z</time>
      </trkpt>
      <trkpt lat="41.43524" lon="-8.74927">
        <ele>89.0</ele>
        <time>2019-07-05T13:44:53Z</time>
      </trkpt>
      <trkpt lat="41.43514" lon="-8.749175">
        <ele>89.0</ele>
        <time>2019-07-05T13:44:55Z</time>
      </trkpt>
      <trkpt lat="41.43504" lon="-8.749073333333333">
        <ele>89.0</ele>
        <time>2019-07-05T13:44:57Z</time>
      </trkpt>
      <trkpt lat="41.434945" lon="-8.748975">
        <ele>89.0</ele>
        <time>2019-07-05T13:44:59Z</time>
      </trkpt>
      <trkpt lat="41.434845" lon="-8.748866666666666">
        <ele>89.0</ele>
        <time>2019-07-05T13:45:01Z</time>
      </trkpt>
      <trkpt lat="41.43475" lon="-8.74877">
        <ele>89.0</ele>
        <time>2019-07-05T13:45:03Z</time>
      </trkpt>
      <trkpt lat="41.434655" lon="-8.748676666666666">
        <ele>89.0</ele>
        <time>2019-07-05T13:45:05Z</time>
      </trkpt>
      <trkpt lat="41.434556666666666" lon="-8.748585">
        <ele>89.0</ele>
        <time>2019-07-05T13:45:07Z</time>
      </trkpt>
      <trkpt lat="41.434475" lon="-8.748486666666667">
        <ele>90.0</ele>
        <time>2019-07-05T13:45:09Z</time>
      </trkpt>
      <trkpt lat="41.43438166666667" lon="-8.748395">
        <ele>90.0</ele>
        <time>2019-07-05T13:45:11Z</time>
      </trkpt>
      <trkpt lat="41.434295" lon="-8.748315">
        <ele>90.0</ele>
        <time>2019-07-05T13:45:13Z</time>
      </trkpt>
      <trkpt lat="41.43421" lon="-8.748225">
        <ele>91.0</ele>
        <time>2019-07-05T13:45:15Z</time>
      </trkpt>
      <trkpt lat="41.434125" lon="-8.748145">
        <ele>91.0</ele>
        <time>2019-07-05T13:45:17Z</time>
      </trkpt>
      <trkpt lat="41.434036666666664" lon="-8.748065">
        <ele>91.0</ele>
        <time>2019-07-05T13:45:19Z</time>
      </trkpt>
      <trkpt lat="41.43395" lon="-8.74798">
        <ele>91.0</ele>
        <time>2019-07-05T13:45:21Z</time>
      </trkpt>
      <trkpt lat="41.433863333333335" lon="-8.747885">
        <ele>91.0</ele>
        <time>2019-07-05T13:45:23Z</time>
      </trkpt>
      <trkpt lat="41.43378" lon="-8.747796666666666">
        <ele>91.0</ele>
        <time>2019-07-05T13:45:25Z</time>
      </trkpt>
      <trkpt lat="41.43369" lon="-8.747715">
        <ele>91.0</ele>
        <time>2019-07-05T13:45:27Z</time>
      </trkpt>
      <trkpt lat="41.43361" lon="-8.747625">
        <ele>92.0</ele>
        <time>2019-07-05T13:45:29Z</time>
      </trkpt>
      <trkpt lat="41.433526666666666" lon="-8.747535">
        <ele>92.0</ele>
        <time>2019-07-05T13:45:31Z</time>
      </trkpt>
      <trkpt lat="41.43344" lon="-8.747455">
        <ele>92.0</ele>
        <time>2019-07-05T13:45:33Z</time>
      </trkpt>
      <trkpt lat="41.43336" lon="-8.747366666666666">
        <ele>91.0</ele>
        <time>2019-07-05T13:45:35Z</time>
      </trkpt>
      <trkpt lat="41.43328" lon="-8.74729">
        <ele>91.0</ele>
        <time>2019-07-05T13:45:37Z</time>
      </trkpt>
      <trkpt lat="41.433195" lon="-8.747225">
        <ele>91.0</ele>
        <time>2019-07-05T13:45:39Z</time>
      </trkpt>
      <trkpt lat="41.43311666666666" lon="-8.74717">
        <ele>92.0</ele>
        <time>2019-07-05T13:45:41Z</time>
      </trkpt>
      <trkpt lat="41.433031666666665" lon="-8.747115">
        <ele>92.0</ele>
        <time>2019-07-05T13:45:43Z</time>
      </trkpt>
      <trkpt lat="41.432948333333336" lon="-8.74706">
        <ele>93.0</ele>
        <time>2019-07-05T13:45:45Z</time>
      </trkpt>
      <trkpt lat="41.43286166666667" lon="-8.747015">
        <ele>93.0</ele>
        <time>2019-07-05T13:45:47Z</time>
      </trkpt>
      <trkpt lat="41.43277" lon="-8.746965">
        <ele>94.0</ele>
        <time>2019-07-05T13:45:49Z</time>
      </trkpt>
      <trkpt lat="41.432695" lon="-8.74691">
        <ele>95.0</ele>
        <time>2019-07-05T13:45:51Z</time>
      </trkpt>
      <trkpt lat="41.432595" lon="-8.746855">
        <ele>96.0</ele>
        <time>2019-07-05T13:45:53Z</time>
      </trkpt>
      <trkpt lat="41.43251166666667" lon="-8.746815">
        <ele>96.0</ele>
        <time>2019-07-05T13:45:55Z</time>
      </trkpt>
      <trkpt lat="41.432428333333334" lon="-8.74676">
        <ele>97.0</ele>
        <time>2019-07-05T13:45:57Z</time>
      </trkpt>
      <trkpt lat="41.43234" lon="-8.746725">
        <ele>96.0</ele>
        <time>2019-07-05T13:45:59Z</time>
      </trkpt>
      <trkpt lat="41.432255" lon="-8.74668">
        <ele>96.0</ele>
        <time>2019-07-05T13:46:01Z</time>
      </trkpt>
      <trkpt lat="41.43217" lon="-8.746635">
        <ele>96.0</ele>
        <time>2019-07-05T13:46:03Z</time>
      </trkpt>
      <trkpt lat="41.43209" lon="-8.74659">
        <ele>96.0</ele>
        <time>2019-07-05T13:46:05Z</time>
      </trkpt>
      <trkpt lat="41.432015" lon="-8.74654">
        <ele>96.0</ele>
        <time>2019-07-05T13:46:07Z</time>
      </trkpt>
      <trkpt lat="41.43194" lon="-8.746496666666667">
        <ele>97.0</ele>
        <time>2019-07-05T13:46:09Z</time>
      </trkpt>
      <trkpt lat="41.431865" lon="-8.746455">
        <ele>97.0</ele>
        <time>2019-07-05T13:46:11Z</time>
      </trkpt>
      <trkpt lat="41.431805" lon="-8.7464">
        <ele>97.0</ele>
        <time>2019-07-05T13:46:13Z</time>
      </trkpt>
      <trkpt lat="41.43172" lon="-8.746345">
        <ele>98.0</ele>
        <time>2019-07-05T13:46:16Z</time>
      </trkpt>
      <trkpt lat="41.431635" lon="-8.74627">
        <ele>99.0</ele>
        <time>2019-07-05T13:46:19Z</time>
      </trkpt>
      <trkpt lat="41.43154666666667" lon="-8.746196666666666">
        <ele>99.0</ele>
        <time>2019-07-05T13:46:22Z</time>
      </trkpt>
      <trkpt lat="41.431475" lon="-8.746101666666666">
        <ele>100.0</ele>
        <time>2019-07-05T13:46:25Z</time>
      </trkpt>
      <trkpt lat="41.43140666666667" lon="-8.746016666666666">
        <ele>100.0</ele>
        <time>2019-07-05T13:46:28Z</time>
      </trkpt>
      <trkpt lat="41.43134" lon="-8.74592">
        <ele>100.0</ele>
        <time>2019-07-05T13:46:31Z</time>
      </trkpt>
      <trkpt lat="41.431285" lon="-8.745815">
        <ele>100.0</ele>
        <time>2019-07-05T13:46:34Z</time>
      </trkpt>
      <trkpt lat="41.43123" lon="-8.745696666666667">
        <ele>100.0</ele>
        <time>2019-07-05T13:46:37Z</time>
      </trkpt>
      <trkpt lat="41.431175" lon="-8.745575">
        <ele>101.0</ele>
        <time>2019-07-05T13:46:40Z</time>
      </trkpt>
      <trkpt lat="41.431131666666666" lon="-8.745455">
        <ele>101.0</ele>
        <time>2019-07-05T13:46:43Z</time>
      </trkpt>
      <trkpt lat="41.431095" lon="-8.745335">
        <ele>101.0</ele>
        <time>2019-07-05T13:46:46Z</time>
      </trkpt>
      <trkpt lat="41.43105" lon="-8.745221666666666">
        <ele>102.0</ele>
        <time>2019-07-05T13:46:49Z</time>
      </trkpt>
      <trkpt lat="41.431005" lon="-8.745105">
        <ele>102.0</ele>
        <time>2019-07-05T13:46:52Z</time>
      </trkpt>
      <trkpt lat="41.43097" lon="-8.744995">
        <ele>102.0</ele>
        <time>2019-07-05T13:46:55Z</time>
      </trkpt>
      <trkpt lat="41.430935" lon="-8.74488">
        <ele>102.0</ele>
        <time>2019-07-05T13:46:58Z</time>
      </trkpt>
      <trkpt lat="41.43089" lon="-8.74476">
        <ele>102.0</ele>
        <time>2019-07-05T13:47:01Z</time>
      </trkpt>
      <trkpt lat="41.43085" lon="-8.744635">
        <ele>102.0</ele>
        <time>2019-07-05T13:47:04Z</time>
      </trkpt>
      <trkpt lat="41.43082" lon="-8.744545">
        <ele>103.0</ele>
        <time>2019-07-05T13:47:06Z</time>
      </trkpt>
      <trkpt lat="41.43079" lon="-8.744455">
        <ele>102.0</ele>
        <time>2019-07-05T13:47:08Z</time>
      </trkpt>
      <trkpt lat="41.43075666666667" lon="-8.744355">
        <ele>102.0</ele>
        <time>2019-07-05T13:47:10Z</time>
      </trkpt>
      <trkpt lat="41.430725" lon="-8.744241666666667">
        <ele>102.0</ele>
        <time>2019-07-05T13:47:12Z</time>
      </trkpt>
      <trkpt lat="41.430695" lon="-8.744126666666666">
        <ele>102.0</ele>
        <time>2019-07-05T13:47:14Z</time>
      </trkpt>
      <trkpt lat="41.430655" lon="-8.744">
        <ele>101.0</ele>
        <time>2019-07-05T13:47:16Z</time>
      </trkpt>
      <trkpt lat="41.430605" lon="-8.74387">
        <ele>100.0</ele>
        <time>2019-07-05T13:47:18Z</time>
      </trkpt>
      <trkpt lat="41.430535" lon="-8.74373">
        <ele>99.0</ele>
        <time>2019-07-05T13:47:20Z</time>
      </trkpt>
      <trkpt lat="41.430435" lon="-8.743601666666667">
        <ele>98.0</ele>
        <time>2019-07-05T13:47:22Z</time>
      </trkpt>
      <trkpt lat="41.43038" lon="-8.743541666666667">
        <ele>97.0</ele>
        <time>2019-07-05T13:47:23Z</time>
      </trkpt>
      <trkpt lat="41.430315" lon="-8.74349">
        <ele>97.0</ele>
        <time>2019-07-05T13:47:24Z</time>
      </trkpt>
      <trkpt lat="41.430245" lon="-8.743455">
        <ele>97.0</ele>
        <time>2019-07-05T13:47:25Z</time>
      </trkpt>
      <trkpt lat="41.43017" lon="-8.74343">
        <ele>96.0</ele>
        <time>2019-07-05T13:47:26Z</time>
      </trkpt>
      <trkpt lat="41.430095" lon="-8.743425">
        <ele>96.0</ele>
        <time>2019-07-05T13:47:27Z</time>
      </trkpt>
      <trkpt lat="41.43002" lon="-8.743425">
        <ele>96.0</ele>
        <time>2019-07-05T13:47:28Z</time>
      </trkpt>
      <trkpt lat="41.42994" lon="-8.743445">
        <ele>96.0</ele>
        <time>2019-07-05T13:47:29Z</time>
      </trkpt>
      <trkpt lat="41.429865" lon="-8.743475">
        <ele>96.0</ele>
        <time>2019-07-05T13:47:30Z</time>
      </trkpt>
      <trkpt lat="41.429795" lon="-8.743515">
        <ele>96.0</ele>
        <time>2019-07-05T13:47:31Z</time>
      </trkpt>
      <trkpt lat="41.429725" lon="-8.743561666666666">
        <ele>96.0</ele>
        <time>2019-07-05T13:47:32Z</time>
      </trkpt>
      <trkpt lat="41.429665" lon="-8.743625">
        <ele>96.0</ele>
        <time>2019-07-05T13:47:33Z</time>
      </trkpt>
      <trkpt lat="41.429605" lon="-8.74369">
        <ele>96.0</ele>
        <time>2019-07-05T13:47:34Z</time>
      </trkpt>
      <trkpt lat="41.429543333333335" lon="-8.743756666666666">
        <ele>96.0</ele>
        <time>2019-07-05T13:47:35Z</time>
      </trkpt>
      <trkpt lat="41.429491666666664" lon="-8.743825">
        <ele>96.0</ele>
        <time>2019-07-05T13:47:36Z</time>
      </trkpt>
      <trkpt lat="41.42944" lon="-8.743895">
        <ele>97.0</ele>
        <time>2019-07-05T13:47:37Z</time>
      </trkpt>
      <trkpt lat="41.429386666666666" lon="-8.743966666666667">
        <ele>97.0</ele>
        <time>2019-07-05T13:47:38Z</time>
      </trkpt>
      <trkpt lat="41.42934" lon="-8.744036666666666">
        <ele>97.0</ele>
        <time>2019-07-05T13:47:39Z</time>
      </trkpt>
      <trkpt lat="41.42929" lon="-8.74411">
        <ele>97.0</ele>
        <time>2019-07-05T13:47:40Z</time>
      </trkpt>
      <trkpt lat="41.4292" lon="-8.74424">
        <ele>98.0</ele>
        <time>2019-07-05T13:47:42Z</time>
      </trkpt>
      <trkpt lat="41.42910166666667" lon="-8.744375">
        <ele>98.0</ele>
        <time>2019-07-05T13:47:44Z</time>
      </trkpt>
      <trkpt lat="41.429008333333336" lon="-8.744493333333333">
        <ele>98.0</ele>
        <time>2019-07-05T13:47:46Z</time>
      </trkpt>
      <trkpt lat="41.42892166666667" lon="-8.74462">
        <ele>99.0</ele>
        <time>2019-07-05T13:47:48Z</time>
      </trkpt>
      <trkpt lat="41.428825" lon="-8.74474">
        <ele>99.0</ele>
        <time>2019-07-05T13:47:50Z</time>
      </trkpt>
      <trkpt lat="41.428725" lon="-8.74486">
        <ele>99.0</ele>
        <time>2019-07-05T13:47:52Z</time>
      </trkpt>
      <trkpt lat="41.428625" lon="-8.744971666666666">
        <ele>99.0</ele>
        <time>2019-07-05T13:47:54Z</time>
      </trkpt>
      <trkpt lat="41.42851666666667" lon="-8.745075">
        <ele>99.0</ele>
        <time>2019-07-05T13:47:56Z</time>
      </trkpt>
      <trkpt lat="41.428415" lon="-8.745171666666666">
        <ele>99.0</ele>
        <time>2019-07-05T13:47:58Z</time>
      </trkpt>
      <trkpt lat="41.428295" lon="-8.74526">
        <ele>99.0</ele>
        <time>2019-07-05T13:48:00Z</time>
      </trkpt>
      <trkpt lat="41.428185" lon="-8.74535">
        <ele>99.0</ele>
        <time>2019-07-05T13:48:02Z</time>
      </trkpt>
      <trkpt lat="41.42807" lon="-8.745441666666666">
        <ele>100.0</ele>
        <time>2019-07-05T13:48:04Z</time>
      </trkpt>
      <trkpt lat="41.42796" lon="-8.74553">
        <ele>100.0</ele>
        <time>2019-07-05T13:48:06Z</time>
      </trkpt>
      <trkpt lat="41.42785166666667" lon="-8.745615">
        <ele>102.0</ele>
        <time>2019-07-05T13:48:08Z</time>
      </trkpt>
      <trkpt lat="41.427735" lon="-8.74568">
        <ele>101.0</ele>
        <time>2019-07-05T13:48:10Z</time>
      </trkpt>
      <trkpt lat="41.427615" lon="-8.745758333333333">
        <ele>101.0</ele>
        <time>2019-07-05T13:48:12Z</time>
      </trkpt>
      <trkpt lat="41.42749666666667" lon="-8.745845">
        <ele>100.0</ele>
        <time>2019-07-05T13:48:14Z</time>
      </trkpt>
      <trkpt lat="41.42738166666667" lon="-8.74592">
        <ele>99.0</ele>
        <time>2019-07-05T13:48:16Z</time>
      </trkpt>
      <trkpt lat="41.427261666666666" lon="-8.745995">
        <ele>99.0</ele>
        <time>2019-07-05T13:48:18Z</time>
      </trkpt>
      <trkpt lat="41.427145" lon="-8.746075">
        <ele>98.0</ele>
        <time>2019-07-05T13:48:20Z</time>
      </trkpt>
      <trkpt lat="41.427025" lon="-8.74615">
        <ele>98.0</ele>
        <time>2019-07-05T13:48:22Z</time>
      </trkpt>
      <trkpt lat="41.42691" lon="-8.746235">
        <ele>97.0</ele>
        <time>2019-07-05T13:48:24Z</time>
      </trkpt>
      <trkpt lat="41.42679" lon="-8.746306666666667">
        <ele>98.0</ele>
        <time>2019-07-05T13:48:26Z</time>
      </trkpt>
      <trkpt lat="41.426671666666664" lon="-8.746375">
        <ele>97.0</ele>
        <time>2019-07-05T13:48:28Z</time>
      </trkpt>
      <trkpt lat="41.426555" lon="-8.74644">
        <ele>97.0</ele>
        <time>2019-07-05T13:48:30Z</time>
      </trkpt>
      <trkpt lat="41.426431666666666" lon="-8.746495">
        <ele>97.0</ele>
        <time>2019-07-05T13:48:32Z</time>
      </trkpt>
      <trkpt lat="41.42631" lon="-8.74653">
        <ele>97.0</ele>
        <time>2019-07-05T13:48:34Z</time>
      </trkpt>
      <trkpt lat="41.426185" lon="-8.746545">
        <ele>97.0</ele>
        <time>2019-07-05T13:48:36Z</time>
      </trkpt>
      <trkpt lat="41.42605666666667" lon="-8.746565">
        <ele>97.0</ele>
        <time>2019-07-05T13:48:38Z</time>
      </trkpt>
      <trkpt lat="41.425935" lon="-8.746591666666667">
        <ele>97.0</ele>
        <time>2019-07-05T13:48:40Z</time>
      </trkpt>
      <trkpt lat="41.425815" lon="-8.746645">
        <ele>97.0</ele>
        <time>2019-07-05T13:48:42Z</time>
      </trkpt>
      <trkpt lat="41.42569666666667" lon="-8.74671">
        <ele>97.0</ele>
        <time>2019-07-05T13:48:44Z</time>
      </trkpt>
      <trkpt lat="41.42558" lon="-8.746775">
        <ele>97.0</ele>
        <time>2019-07-05T13:48:46Z</time>
      </trkpt>
      <trkpt lat="41.42547" lon="-8.74686">
        <ele>97.0</ele>
        <time>2019-07-05T13:48:48Z</time>
      </trkpt>
      <trkpt lat="41.425365" lon="-8.746965">
        <ele>97.0</ele>
        <time>2019-07-05T13:48:50Z</time>
      </trkpt>
      <trkpt lat="41.42526" lon="-8.74707">
        <ele>97.0</ele>
        <time>2019-07-05T13:48:52Z</time>
      </trkpt>
      <trkpt lat="41.425153333333334" lon="-8.747185">
        <ele>97.0</ele>
        <time>2019-07-05T13:48:54Z</time>
      </trkpt>
      <trkpt lat="41.425065000000004" lon="-8.74731">
        <ele>96.0</ele>
        <time>2019-07-05T13:48:56Z</time>
      </trkpt>
      <trkpt lat="41.424975" lon="-8.747426666666666">
        <ele>96.0</ele>
        <time>2019-07-05T13:48:58Z</time>
      </trkpt>
      <trkpt lat="41.424895" lon="-8.747535">
        <ele>96.0</ele>
        <time>2019-07-05T13:49:00Z</time>
      </trkpt>
      <trkpt lat="41.424805" lon="-8.747625">
        <ele>97.0</ele>
        <time>2019-07-05T13:49:02Z</time>
      </trkpt>
      <trkpt lat="41.42469166666667" lon="-8.747685">
        <ele>97.0</ele>
        <time>2019-07-05T13:49:04Z</time>
      </trkpt>
      <trkpt lat="41.42458" lon="-8.747715">
        <ele>97.0</ele>
        <time>2019-07-05T13:49:06Z</time>
      </trkpt>
      <trkpt lat="41.424461666666666" lon="-8.747735">
        <ele>97.0</ele>
        <time>2019-07-05T13:49:08Z</time>
      </trkpt>
      <trkpt lat="41.424355" lon="-8.74776">
        <ele>97.0</ele>
        <time>2019-07-05T13:49:10Z</time>
      </trkpt>
      <trkpt lat="41.424245" lon="-8.74779">
        <ele>97.0</ele>
        <time>2019-07-05T13:49:12Z</time>
      </trkpt>
      <trkpt lat="41.424135" lon="-8.74782">
        <ele>97.0</ele>
        <time>2019-07-05T13:49:14Z</time>
      </trkpt>
      <trkpt lat="41.42402666666667" lon="-8.74784">
        <ele>98.0</ele>
        <time>2019-07-05T13:49:16Z</time>
      </trkpt>
      <trkpt lat="41.423955" lon="-8.74795">
        <ele>97.0</ele>
        <time>2019-07-05T13:49:18Z</time>
      </trkpt>
      <trkpt lat="41.42387166666666" lon="-8.748035">
        <ele>97.0</ele>
        <time>2019-07-05T13:49:20Z</time>
      </trkpt>
      <trkpt lat="41.423765" lon="-8.748075">
        <ele>97.0</ele>
        <time>2019-07-05T13:49:22Z</time>
      </trkpt>
      <trkpt lat="41.423656666666666" lon="-8.748116666666666">
        <ele>96.0</ele>
        <time>2019-07-05T13:49:24Z</time>
      </trkpt>
      <trkpt lat="41.423545" lon="-8.748181666666667">
        <ele>96.0</ele>
        <time>2019-07-05T13:49:26Z</time>
      </trkpt>
      <trkpt lat="41.42344" lon="-8.74825">
        <ele>95.0</ele>
        <time>2019-07-05T13:49:28Z</time>
      </trkpt>
      <trkpt lat="41.423335" lon="-8.748315">
        <ele>95.0</ele>
        <time>2019-07-05T13:49:30Z</time>
      </trkpt>
      <trkpt lat="41.42323" lon="-8.748345">
        <ele>95.0</ele>
        <time>2019-07-05T13:49:32Z</time>
      </trkpt>
      <trkpt lat="41.42313" lon="-8.748306666666666">
        <ele>95.0</ele>
        <time>2019-07-05T13:49:34Z</time>
      </trkpt>
      <trkpt lat="41.42302333333333" lon="-8.748255">
        <ele>95.0</ele>
        <time>2019-07-05T13:49:36Z</time>
      </trkpt>
      <trkpt lat="41.42292" lon="-8.748201666666667">
        <ele>95.0</ele>
        <time>2019-07-05T13:49:38Z</time>
      </trkpt>
      <trkpt lat="41.42281" lon="-8.74815">
        <ele>95.0</ele>
        <time>2019-07-05T13:49:40Z</time>
      </trkpt>
      <trkpt lat="41.422705" lon="-8.748088333333333">
        <ele>95.0</ele>
        <time>2019-07-05T13:49:42Z</time>
      </trkpt>
      <trkpt lat="41.422596666666664" lon="-8.74803">
        <ele>95.0</ele>
        <time>2019-07-05T13:49:44Z</time>
      </trkpt>
      <trkpt lat="41.42248166666667" lon="-8.747991666666667">
        <ele>95.0</ele>
        <time>2019-07-05T13:49:46Z</time>
      </trkpt>
      <trkpt lat="41.422365" lon="-8.74797">
        <ele>95.0</ele>
        <time>2019-07-05T13:49:48Z</time>
      </trkpt>
      <trkpt lat="41.422246666666666" lon="-8.747945">
        <ele>95.0</ele>
        <time>2019-07-05T13:49:50Z</time>
      </trkpt>
      <trkpt lat="41.422135" lon="-8.747926666666666">
        <ele>95.0</ele>
        <time>2019-07-05T13:49:52Z</time>
      </trkpt>
      <trkpt lat="41.42203" lon="-8.747911666666667">
        <ele>95.0</ele>
        <time>2019-07-05T13:49:54Z</time>
      </trkpt>
      <trkpt lat="41.421926666666664" lon="-8.747901666666667">
        <ele>95.0</ele>
        <time>2019-07-05T13:49:56Z</time>
      </trkpt>
      <trkpt lat="41.42183" lon="-8.747886666666666">
        <ele>95.0</ele>
        <time>2019-07-05T13:49:58Z</time>
      </trkpt>
      <trkpt lat="41.421725" lon="-8.747885">
        <ele>95.0</ele>
        <time>2019-07-05T13:50:00Z</time>
      </trkpt>
      <trkpt lat="41.42161" lon="-8.74791">
        <ele>95.0</ele>
        <time>2019-07-05T13:50:02Z</time>
      </trkpt>
      <trkpt lat="41.42149" lon="-8.74794">
        <ele>94.0</ele>
        <time>2019-07-05T13:50:04Z</time>
      </trkpt>
      <trkpt lat="41.42138" lon="-8.747991666666667">
        <ele>94.0</ele>
        <time>2019-07-05T13:50:06Z</time>
      </trkpt>
      <trkpt lat="41.42127" lon="-8.748045">
        <ele>94.0</ele>
        <time>2019-07-05T13:50:08Z</time>
      </trkpt>
      <trkpt lat="41.42117" lon="-8.748095">
        <ele>94.0</ele>
        <time>2019-07-05T13:50:10Z</time>
      </trkpt>
      <trkpt lat="41.42107" lon="-8.74817">
        <ele>94.0</ele>
        <time>2019-07-05T13:50:12Z</time>
      </trkpt>
      <trkpt lat="41.42098333333333" lon="-8.748255">
        <ele>93.0</ele>
        <time>2019-07-05T13:50:14Z</time>
      </trkpt>
      <trkpt lat="41.420896666666664" lon="-8.74833">
        <ele>93.0</ele>
        <time>2019-07-05T13:50:16Z</time>
      </trkpt>
      <trkpt lat="41.42081" lon="-8.748395">
        <ele>93.0</ele>
        <time>2019-07-05T13:50:18Z</time>
      </trkpt>
      <trkpt lat="41.420715" lon="-8.748445">
        <ele>93.0</ele>
        <time>2019-07-05T13:50:20Z</time>
      </trkpt>
      <trkpt lat="41.420615" lon="-8.748485">
        <ele>93.0</ele>
        <time>2019-07-05T13:50:22Z</time>
      </trkpt>
      <trkpt lat="41.420515" lon="-8.748515">
        <ele>93.0</ele>
        <time>2019-07-05T13:50:24Z</time>
      </trkpt>
      <trkpt lat="41.42042" lon="-8.74852">
        <ele>92.0</ele>
        <time>2019-07-05T13:50:26Z</time>
      </trkpt>
      <trkpt lat="41.420335" lon="-8.748528333333333">
        <ele>93.0</ele>
        <time>2019-07-05T13:50:28Z</time>
      </trkpt>
      <trkpt lat="41.42024" lon="-8.748526666666667">
        <ele>93.0</ele>
        <time>2019-07-05T13:50:30Z</time>
      </trkpt>
      <trkpt lat="41.420136666666664" lon="-8.748521666666667">
        <ele>93.0</ele>
        <time>2019-07-05T13:50:32Z</time>
      </trkpt>
      <trkpt lat="41.42003666666667" lon="-8.748535">
        <ele>93.0</ele>
        <time>2019-07-05T13:50:34Z</time>
      </trkpt>
      <trkpt lat="41.419935" lon="-8.748545">
        <ele>92.0</ele>
        <time>2019-07-05T13:50:36Z</time>
      </trkpt>
      <trkpt lat="41.419835" lon="-8.74854">
        <ele>93.0</ele>
        <time>2019-07-05T13:50:38Z</time>
      </trkpt>
      <trkpt lat="41.419735" lon="-8.748523333333333">
        <ele>93.0</ele>
        <time>2019-07-05T13:50:40Z</time>
      </trkpt>
      <trkpt lat="41.41964" lon="-8.748505">
        <ele>93.0</ele>
        <time>2019-07-05T13:50:42Z</time>
      </trkpt>
      <trkpt lat="41.419538333333335" lon="-8.748496666666666">
        <ele>93.0</ele>
        <time>2019-07-05T13:50:44Z</time>
      </trkpt>
      <trkpt lat="41.41944" lon="-8.74848">
        <ele>93.0</ele>
        <time>2019-07-05T13:50:46Z</time>
      </trkpt>
      <trkpt lat="41.41934" lon="-8.74844">
        <ele>93.0</ele>
        <time>2019-07-05T13:50:48Z</time>
      </trkpt>
      <trkpt lat="41.419255" lon="-8.74838">
        <ele>94.0</ele>
        <time>2019-07-05T13:50:50Z</time>
      </trkpt>
      <trkpt lat="41.41917" lon="-8.748315">
        <ele>94.0</ele>
        <time>2019-07-05T13:50:52Z</time>
      </trkpt>
      <trkpt lat="41.4191" lon="-8.74826">
        <ele>94.0</ele>
        <time>2019-07-05T13:50:54Z</time>
      </trkpt>
      <trkpt lat="41.419035" lon="-8.748205">
        <ele>94.0</ele>
        <time>2019-07-05T13:50:56Z</time>
      </trkpt>
      <trkpt lat="41.418955" lon="-8.748146666666667">
        <ele>94.0</ele>
        <time>2019-07-05T13:50:58Z</time>
      </trkpt>
      <trkpt lat="41.418866666666666" lon="-8.74808">
        <ele>94.0</ele>
        <time>2019-07-05T13:51:01Z</time>
      </trkpt>
      <trkpt lat="41.418805" lon="-8.74801">
        <ele>96.0</ele>
        <time>2019-07-05T13:51:04Z</time>
      </trkpt>
      <trkpt lat="41.418715" lon="-8.747945">
        <ele>97.0</ele>
        <time>2019-07-05T13:51:07Z</time>
      </trkpt>
      <trkpt lat="41.418645" lon="-8.747885">
        <ele>97.0</ele>
        <time>2019-07-05T13:51:09Z</time>
      </trkpt>
      <trkpt lat="41.41854" lon="-8.74782">
        <ele>97.0</ele>
        <time>2019-07-05T13:51:11Z</time>
      </trkpt>
      <trkpt lat="41.41846666666667" lon="-8.747781666666667">
        <ele>96.0</ele>
        <time>2019-07-05T13:51:13Z</time>
      </trkpt>
      <trkpt lat="41.418355" lon="-8.74774">
        <ele>95.0</ele>
        <time>2019-07-05T13:51:15Z</time>
      </trkpt>
      <trkpt lat="41.41825166666667" lon="-8.747695">
        <ele>96.0</ele>
        <time>2019-07-05T13:51:17Z</time>
      </trkpt>
      <trkpt lat="41.418155" lon="-8.74766">
        <ele>95.0</ele>
        <time>2019-07-05T13:51:19Z</time>
      </trkpt>
      <trkpt lat="41.41806166666667" lon="-8.74764">
        <ele>94.0</ele>
        <time>2019-07-05T13:51:21Z</time>
      </trkpt>
      <trkpt lat="41.41797" lon="-8.747626666666667">
        <ele>95.0</ele>
        <time>2019-07-05T13:51:23Z</time>
      </trkpt>
      <trkpt lat="41.417878333333334" lon="-8.74761">
        <ele>95.0</ele>
        <time>2019-07-05T13:51:25Z</time>
      </trkpt>
      <trkpt lat="41.417786666666665" lon="-8.747595">
        <ele>96.0</ele>
        <time>2019-07-05T13:51:27Z</time>
      </trkpt>
      <trkpt lat="41.417705" lon="-8.74757">
        <ele>96.0</ele>
        <time>2019-07-05T13:51:29Z</time>
      </trkpt>
      <trkpt lat="41.417611666666666" lon="-8.747555">
        <ele>96.0</ele>
        <time>2019-07-05T13:51:31Z</time>
      </trkpt>
      <trkpt lat="41.417515" lon="-8.747536666666667">
        <ele>96.0</ele>
        <time>2019-07-05T13:51:33Z</time>
      </trkpt>
      <trkpt lat="41.41742" lon="-8.74752">
        <ele>96.0</ele>
        <time>2019-07-05T13:51:35Z</time>
      </trkpt>
      <trkpt lat="41.41733166666667" lon="-8.74749">
        <ele>97.0</ele>
        <time>2019-07-05T13:51:37Z</time>
      </trkpt>
      <trkpt lat="41.417255" lon="-8.74746">
        <ele>97.0</ele>
        <time>2019-07-05T13:51:39Z</time>
      </trkpt>
      <trkpt lat="41.417165" lon="-8.747441666666667">
        <ele>97.0</ele>
        <time>2019-07-05T13:51:41Z</time>
      </trkpt>
      <trkpt lat="41.41707666666667" lon="-8.747425">
        <ele>98.0</ele>
        <time>2019-07-05T13:51:43Z</time>
      </trkpt>
      <trkpt lat="41.416985" lon="-8.74741">
        <ele>97.0</ele>
        <time>2019-07-05T13:51:45Z</time>
      </trkpt>
      <trkpt lat="41.416893333333334" lon="-8.747385">
        <ele>97.0</ele>
        <time>2019-07-05T13:51:47Z</time>
      </trkpt>
      <trkpt lat="41.416801666666665" lon="-8.74736">
        <ele>97.0</ele>
        <time>2019-07-05T13:51:49Z</time>
      </trkpt>
      <trkpt lat="41.41672" lon="-8.74734">
        <ele>97.0</ele>
        <time>2019-07-05T13:51:51Z</time>
      </trkpt>
      <trkpt lat="41.416635" lon="-8.747315">
        <ele>96.0</ele>
        <time>2019-07-05T13:51:53Z</time>
      </trkpt>
      <trkpt lat="41.41655" lon="-8.747291666666667">
        <ele>96.0</ele>
        <time>2019-07-05T13:51:55Z</time>
      </trkpt>
      <trkpt lat="41.416465" lon="-8.74726">
        <ele>96.0</ele>
        <time>2019-07-05T13:51:57Z</time>
      </trkpt>
      <trkpt lat="41.416375" lon="-8.747221666666666">
        <ele>96.0</ele>
        <time>2019-07-05T13:51:59Z</time>
      </trkpt>
      <trkpt lat="41.416286666666664" lon="-8.74718">
        <ele>96.0</ele>
        <time>2019-07-05T13:52:01Z</time>
      </trkpt>
      <trkpt lat="41.41620666666667" lon="-8.747135">
        <ele>96.0</ele>
        <time>2019-07-05T13:52:03Z</time>
      </trkpt>
      <trkpt lat="41.416125" lon="-8.747096666666666">
        <ele>96.0</ele>
        <time>2019-07-05T13:52:05Z</time>
      </trkpt>
      <trkpt lat="41.41604666666667" lon="-8.747045">
        <ele>96.0</ele>
        <time>2019-07-05T13:52:07Z</time>
      </trkpt>
      <trkpt lat="41.415971666666664" lon="-8.747005">
        <ele>96.0</ele>
        <time>2019-07-05T13:52:09Z</time>
      </trkpt>
      <trkpt lat="41.415895" lon="-8.74696">
        <ele>96.0</ele>
        <time>2019-07-05T13:52:11Z</time>
      </trkpt>
      <trkpt lat="41.415805" lon="-8.74692">
        <ele>96.0</ele>
        <time>2019-07-05T13:52:13Z</time>
      </trkpt>
      <trkpt lat="41.415725" lon="-8.746876666666667">
        <ele>96.0</ele>
        <time>2019-07-05T13:52:15Z</time>
      </trkpt>
      <trkpt lat="41.41564666666667" lon="-8.74685">
        <ele>96.0</ele>
        <time>2019-07-05T13:52:17Z</time>
      </trkpt>
      <trkpt lat="41.415565" lon="-8.746805">
        <ele>95.0</ele>
        <time>2019-07-05T13:52:19Z</time>
      </trkpt>
      <trkpt lat="41.41548" lon="-8.74676">
        <ele>95.0</ele>
        <time>2019-07-05T13:52:21Z</time>
      </trkpt>
      <trkpt lat="41.41539" lon="-8.74671">
        <ele>95.0</ele>
        <time>2019-07-05T13:52:23Z</time>
      </trkpt>
      <trkpt lat="41.415301666666664" lon="-8.746653333333333">
        <ele>95.0</ele>
        <time>2019-07-05T13:52:25Z</time>
      </trkpt>
      <trkpt lat="41.415215" lon="-8.746601666666667">
        <ele>96.0</ele>
        <time>2019-07-05T13:52:27Z</time>
      </trkpt>
      <trkpt lat="41.41513" lon="-8.74654">
        <ele>95.0</ele>
        <time>2019-07-05T13:52:29Z</time>
      </trkpt>
      <trkpt lat="41.415045" lon="-8.746486666666666">
        <ele>95.0</ele>
        <time>2019-07-05T13:52:31Z</time>
      </trkpt>
      <trkpt lat="41.414965" lon="-8.74644">
        <ele>95.0</ele>
        <time>2019-07-05T13:52:33Z</time>
      </trkpt>
      <trkpt lat="41.414885" lon="-8.746395">
        <ele>95.0</ele>
        <time>2019-07-05T13:52:35Z</time>
      </trkpt>
      <trkpt lat="41.414795" lon="-8.746355">
        <ele>96.0</ele>
        <time>2019-07-05T13:52:37Z</time>
      </trkpt>
      <trkpt lat="41.414715" lon="-8.74632">
        <ele>96.0</ele>
        <time>2019-07-05T13:52:39Z</time>
      </trkpt>
      <trkpt lat="41.41462666666666" lon="-8.74629">
        <ele>96.0</ele>
        <time>2019-07-05T13:52:41Z</time>
      </trkpt>
      <trkpt lat="41.414543333333334" lon="-8.746261666666667">
        <ele>96.0</ele>
        <time>2019-07-05T13:52:43Z</time>
      </trkpt>
      <trkpt lat="41.414465" lon="-8.74623">
        <ele>96.0</ele>
        <time>2019-07-05T13:52:45Z</time>
      </trkpt>
      <trkpt lat="41.41438" lon="-8.746176666666667">
        <ele>96.0</ele>
        <time>2019-07-05T13:52:47Z</time>
      </trkpt>
      <trkpt lat="41.414295" lon="-8.74613">
        <ele>96.0</ele>
        <time>2019-07-05T13:52:49Z</time>
      </trkpt>
      <trkpt lat="41.414225" lon="-8.74608">
        <ele>96.0</ele>
        <time>2019-07-05T13:52:51Z</time>
      </trkpt>
      <trkpt lat="41.414155" lon="-8.746041666666667">
        <ele>96.0</ele>
        <time>2019-07-05T13:52:53Z</time>
      </trkpt>
      <trkpt lat="41.41409" lon="-8.746001666666666">
        <ele>96.0</ele>
        <time>2019-07-05T13:52:55Z</time>
      </trkpt>
      <trkpt lat="41.414015" lon="-8.74596">
        <ele>97.0</ele>
        <time>2019-07-05T13:52:57Z</time>
      </trkpt>
      <trkpt lat="41.413945" lon="-8.745915">
        <ele>97.0</ele>
        <time>2019-07-05T13:52:59Z</time>
      </trkpt>
      <trkpt lat="41.413845" lon="-8.745853333333333">
        <ele>97.0</ele>
        <time>2019-07-05T13:53:02Z</time>
      </trkpt>
      <trkpt lat="41.413775" lon="-8.745805">
        <ele>98.0</ele>
        <time>2019-07-05T13:53:04Z</time>
      </trkpt>
      <trkpt lat="41.4137" lon="-8.745758333333333">
        <ele>98.0</ele>
        <time>2019-07-05T13:53:06Z</time>
      </trkpt>
      <trkpt lat="41.413626666666666" lon="-8.745715">
        <ele>98.0</ele>
        <time>2019-07-05T13:53:08Z</time>
      </trkpt>
      <trkpt lat="41.41355" lon="-8.745675">
        <ele>99.0</ele>
        <time>2019-07-05T13:53:10Z</time>
      </trkpt>
      <trkpt lat="41.41347" lon="-8.74564">
        <ele>99.0</ele>
        <time>2019-07-05T13:53:12Z</time>
      </trkpt>
      <trkpt lat="41.413395" lon="-8.745595">
        <ele>99.0</ele>
        <time>2019-07-05T13:53:14Z</time>
      </trkpt>
      <trkpt lat="41.413295" lon="-8.74557">
        <ele>99.0</ele>
        <time>2019-07-05T13:53:17Z</time>
      </trkpt>
      <trkpt lat="41.41319" lon="-8.745615">
        <ele>100.0</ele>
        <time>2019-07-05T13:53:20Z</time>
      </trkpt>
      <trkpt lat="41.41312" lon="-8.745675">
        <ele>100.0</ele>
        <time>2019-07-05T13:53:22Z</time>
      </trkpt>
      <trkpt lat="41.413045" lon="-8.745731666666666">
        <ele>100.0</ele>
        <time>2019-07-05T13:53:24Z</time>
      </trkpt>
      <trkpt lat="41.412965" lon="-8.745775">
        <ele>101.0</ele>
        <time>2019-07-05T13:53:26Z</time>
      </trkpt>
      <trkpt lat="41.41288" lon="-8.74583">
        <ele>100.0</ele>
        <time>2019-07-05T13:53:28Z</time>
      </trkpt>
      <trkpt lat="41.412796666666665" lon="-8.745891666666667">
        <ele>100.0</ele>
        <time>2019-07-05T13:53:30Z</time>
      </trkpt>
      <trkpt lat="41.41272" lon="-8.74596">
        <ele>101.0</ele>
        <time>2019-07-05T13:53:32Z</time>
      </trkpt>
      <trkpt lat="41.41263" lon="-8.745995">
        <ele>101.0</ele>
        <time>2019-07-05T13:53:34Z</time>
      </trkpt>
      <trkpt lat="41.41254" lon="-8.745946666666667">
        <ele>100.0</ele>
        <time>2019-07-05T13:53:36Z</time>
      </trkpt>
      <trkpt lat="41.412455" lon="-8.74587">
        <ele>100.0</ele>
        <time>2019-07-05T13:53:38Z</time>
      </trkpt>
      <trkpt lat="41.41236" lon="-8.74578">
        <ele>99.0</ele>
        <time>2019-07-05T13:53:40Z</time>
      </trkpt>
      <trkpt lat="41.412261666666666" lon="-8.745695">
        <ele>99.0</ele>
        <time>2019-07-05T13:53:42Z</time>
      </trkpt>
      <trkpt lat="41.412155" lon="-8.745605">
        <ele>99.0</ele>
        <time>2019-07-05T13:53:44Z</time>
      </trkpt>
      <trkpt lat="41.41205" lon="-8.745505">
        <ele>99.0</ele>
        <time>2019-07-05T13:53:46Z</time>
      </trkpt>
      <trkpt lat="41.411945" lon="-8.745406666666666">
        <ele>98.0</ele>
        <time>2019-07-05T13:53:48Z</time>
      </trkpt>
      <trkpt lat="41.41184" lon="-8.745311666666666">
        <ele>98.0</ele>
        <time>2019-07-05T13:53:50Z</time>
      </trkpt>
      <trkpt lat="41.411745" lon="-8.74519">
        <ele>97.0</ele>
        <time>2019-07-05T13:53:52Z</time>
      </trkpt>
      <trkpt lat="41.41166666666667" lon="-8.74505">
        <ele>97.0</ele>
        <time>2019-07-05T13:53:54Z</time>
      </trkpt>
      <trkpt lat="41.41161" lon="-8.744885">
        <ele>96.0</ele>
        <time>2019-07-05T13:53:56Z</time>
      </trkpt>
      <trkpt lat="41.411545" lon="-8.744725">
        <ele>95.0</ele>
        <time>2019-07-05T13:53:58Z</time>
      </trkpt>
      <trkpt lat="41.411503333333336" lon="-8.74464">
        <ele>95.0</ele>
        <time>2019-07-05T13:53:59Z</time>
      </trkpt>
      <trkpt lat="41.411465" lon="-8.744555">
        <ele>94.0</ele>
        <time>2019-07-05T13:54:00Z</time>
      </trkpt>
      <trkpt lat="41.41142" lon="-8.74447">
        <ele>94.0</ele>
        <time>2019-07-05T13:54:01Z</time>
      </trkpt>
      <trkpt lat="41.41138" lon="-8.74439">
        <ele>94.0</ele>
        <time>2019-07-05T13:54:02Z</time>
      </trkpt>
      <trkpt lat="41.41133" lon="-8.74431">
        <ele>93.0</ele>
        <time>2019-07-05T13:54:03Z</time>
      </trkpt>
      <trkpt lat="41.411285" lon="-8.744235">
        <ele>93.0</ele>
        <time>2019-07-05T13:54:04Z</time>
      </trkpt>
      <trkpt lat="41.411235" lon="-8.744155">
        <ele>93.0</ele>
        <time>2019-07-05T13:54:05Z</time>
      </trkpt>
      <trkpt lat="41.41119" lon="-8.744075">
        <ele>93.0</ele>
        <time>2019-07-05T13:54:06Z</time>
      </trkpt>
      <trkpt lat="41.411145" lon="-8.744">
        <ele>93.0</ele>
        <time>2019-07-05T13:54:07Z</time>
      </trkpt>
      <trkpt lat="41.411095" lon="-8.743921666666667">
        <ele>93.0</ele>
        <time>2019-07-05T13:54:08Z</time>
      </trkpt>
      <trkpt lat="41.411005" lon="-8.743775">
        <ele>92.0</ele>
        <time>2019-07-05T13:54:10Z</time>
      </trkpt>
      <trkpt lat="41.410916666666665" lon="-8.743625">
        <ele>92.0</ele>
        <time>2019-07-05T13:54:12Z</time>
      </trkpt>
      <trkpt lat="41.410826666666665" lon="-8.743485">
        <ele>91.0</ele>
        <time>2019-07-05T13:54:14Z</time>
      </trkpt>
      <trkpt lat="41.41074" lon="-8.743346666666667">
        <ele>92.0</ele>
        <time>2019-07-05T13:54:16Z</time>
      </trkpt>
      <trkpt lat="41.410655" lon="-8.743211666666667">
        <ele>91.0</ele>
        <time>2019-07-05T13:54:18Z</time>
      </trkpt>
      <trkpt lat="41.410575" lon="-8.74308">
        <ele>92.0</ele>
        <time>2019-07-05T13:54:20Z</time>
      </trkpt>
      <trkpt lat="41.410495" lon="-8.74297">
        <ele>92.0</ele>
        <time>2019-07-05T13:54:22Z</time>
      </trkpt>
      <trkpt lat="41.410415" lon="-8.742855">
        <ele>92.0</ele>
        <time>2019-07-05T13:54:24Z</time>
      </trkpt>
      <trkpt lat="41.410325" lon="-8.742745">
        <ele>92.0</ele>
        <time>2019-07-05T13:54:26Z</time>
      </trkpt>
      <trkpt lat="41.41023" lon="-8.742645">
        <ele>92.0</ele>
        <time>2019-07-05T13:54:28Z</time>
      </trkpt>
      <trkpt lat="41.41013" lon="-8.74254">
        <ele>92.0</ele>
        <time>2019-07-05T13:54:30Z</time>
      </trkpt>
      <trkpt lat="41.410035" lon="-8.742436666666666">
        <ele>92.0</ele>
        <time>2019-07-05T13:54:32Z</time>
      </trkpt>
      <trkpt lat="41.40994" lon="-8.742341666666666">
        <ele>92.0</ele>
        <time>2019-07-05T13:54:34Z</time>
      </trkpt>
      <trkpt lat="41.409865" lon="-8.742225">
        <ele>92.0</ele>
        <time>2019-07-05T13:54:36Z</time>
      </trkpt>
      <trkpt lat="41.409805" lon="-8.742083333333333">
        <ele>92.0</ele>
        <time>2019-07-05T13:54:38Z</time>
      </trkpt>
      <trkpt lat="41.409751666666665" lon="-8.741945">
        <ele>92.0</ele>
        <time>2019-07-05T13:54:40Z</time>
      </trkpt>
      <trkpt lat="41.409705" lon="-8.741798333333334">
        <ele>92.0</ele>
        <time>2019-07-05T13:54:42Z</time>
      </trkpt>
      <trkpt lat="41.40966" lon="-8.741665">
        <ele>92.0</ele>
        <time>2019-07-05T13:54:44Z</time>
      </trkpt>
      <trkpt lat="41.40960666666667" lon="-8.741536666666667">
        <ele>92.0</ele>
        <time>2019-07-05T13:54:46Z</time>
      </trkpt>
      <trkpt lat="41.409545" lon="-8.741435">
        <ele>92.0</ele>
        <time>2019-07-05T13:54:48Z</time>
      </trkpt>
      <trkpt lat="41.40947166666667" lon="-8.741346666666667">
        <ele>93.0</ele>
        <time>2019-07-05T13:54:50Z</time>
      </trkpt>
      <trkpt lat="41.40940166666667" lon="-8.74126">
        <ele>94.0</ele>
        <time>2019-07-05T13:54:52Z</time>
      </trkpt>
      <trkpt lat="41.40933166666667" lon="-8.74117">
        <ele>94.0</ele>
        <time>2019-07-05T13:54:54Z</time>
      </trkpt>
      <trkpt lat="41.40926" lon="-8.74108">
        <ele>94.0</ele>
        <time>2019-07-05T13:54:56Z</time>
      </trkpt>
      <trkpt lat="41.409195" lon="-8.74098">
        <ele>94.0</ele>
        <time>2019-07-05T13:54:58Z</time>
      </trkpt>
      <trkpt lat="41.40915" lon="-8.740885">
        <ele>95.0</ele>
        <time>2019-07-05T13:55:00Z</time>
      </trkpt>
      <trkpt lat="41.40911" lon="-8.740791666666667">
        <ele>95.0</ele>
        <time>2019-07-05T13:55:02Z</time>
      </trkpt>
      <trkpt lat="41.409045" lon="-8.74069">
        <ele>95.0</ele>
        <time>2019-07-05T13:55:05Z</time>
      </trkpt>
      <trkpt lat="41.408975" lon="-8.740671666666668">
        <ele>96.0</ele>
        <time>2019-07-05T13:55:08Z</time>
      </trkpt>
      <trkpt lat="41.40889" lon="-8.740736666666667">
        <ele>96.0</ele>
        <time>2019-07-05T13:55:11Z</time>
      </trkpt>
      <trkpt lat="41.40882" lon="-8.740778333333333">
        <ele>96.0</ele>
        <time>2019-07-05T13:55:13Z</time>
      </trkpt>
      <trkpt lat="41.408725" lon="-8.74083">
        <ele>96.0</ele>
        <time>2019-07-05T13:55:16Z</time>
      </trkpt>
      <trkpt lat="41.40865" lon="-8.74086">
        <ele>96.0</ele>
        <time>2019-07-05T13:55:18Z</time>
      </trkpt>
      <trkpt lat="41.40856333333333" lon="-8.740856666666666">
        <ele>96.0</ele>
        <time>2019-07-05T13:55:20Z</time>
      </trkpt>
      <trkpt lat="41.40849" lon="-8.74078">
        <ele>96.0</ele>
        <time>2019-07-05T13:55:22Z</time>
      </trkpt>
      <trkpt lat="41.408425" lon="-8.74069">
        <ele>96.0</ele>
        <time>2019-07-05T13:55:24Z</time>
      </trkpt>
      <trkpt lat="41.40837" lon="-8.740586666666667">
        <ele>96.0</ele>
        <time>2019-07-05T13:55:26Z</time>
      </trkpt>
      <trkpt lat="41.40831" lon="-8.74049">
        <ele>97.0</ele>
        <time>2019-07-05T13:55:28Z</time>
      </trkpt>
      <trkpt lat="41.40826" lon="-8.74039">
        <ele>98.0</ele>
        <time>2019-07-05T13:55:30Z</time>
      </trkpt>
      <trkpt lat="41.4082" lon="-8.74029">
        <ele>98.0</ele>
        <time>2019-07-05T13:55:32Z</time>
      </trkpt>
      <trkpt lat="41.40814" lon="-8.7402">
        <ele>98.0</ele>
        <time>2019-07-05T13:55:34Z</time>
      </trkpt>
      <trkpt lat="41.408085" lon="-8.740106666666666">
        <ele>99.0</ele>
        <time>2019-07-05T13:55:36Z</time>
      </trkpt>
      <trkpt lat="41.40802333333333" lon="-8.740015">
        <ele>98.0</ele>
        <time>2019-07-05T13:55:38Z</time>
      </trkpt>
      <trkpt lat="41.407965" lon="-8.73992">
        <ele>98.0</ele>
        <time>2019-07-05T13:55:40Z</time>
      </trkpt>
      <trkpt lat="41.407905" lon="-8.739826666666668">
        <ele>98.0</ele>
        <time>2019-07-05T13:55:42Z</time>
      </trkpt>
      <trkpt lat="41.407845" lon="-8.73974">
        <ele>98.0</ele>
        <time>2019-07-05T13:55:44Z</time>
      </trkpt>
      <trkpt lat="41.40779" lon="-8.739645">
        <ele>99.0</ele>
        <time>2019-07-05T13:55:46Z</time>
      </trkpt>
      <trkpt lat="41.40773166666666" lon="-8.73955">
        <ele>99.0</ele>
        <time>2019-07-05T13:55:48Z</time>
      </trkpt>
      <trkpt lat="41.40767" lon="-8.739461666666667">
        <ele>99.0</ele>
        <time>2019-07-05T13:55:50Z</time>
      </trkpt>
      <trkpt lat="41.40761166666667" lon="-8.739361666666667">
        <ele>100.0</ele>
        <time>2019-07-05T13:55:52Z</time>
      </trkpt>
      <trkpt lat="41.40756" lon="-8.739265">
        <ele>100.0</ele>
        <time>2019-07-05T13:55:54Z</time>
      </trkpt>
      <trkpt lat="41.40750166666667" lon="-8.73917">
        <ele>100.0</ele>
        <time>2019-07-05T13:55:56Z</time>
      </trkpt>
      <trkpt lat="41.407441666666664" lon="-8.739075">
        <ele>100.0</ele>
        <time>2019-07-05T13:55:58Z</time>
      </trkpt>
      <trkpt lat="41.407385" lon="-8.738986666666667">
        <ele>100.0</ele>
        <time>2019-07-05T13:56:00Z</time>
      </trkpt>
      <trkpt lat="41.407325" lon="-8.73889">
        <ele>100.0</ele>
        <time>2019-07-05T13:56:02Z</time>
      </trkpt>
      <trkpt lat="41.40726166666666" lon="-8.738795">
        <ele>100.0</ele>
        <time>2019-07-05T13:56:04Z</time>
      </trkpt>
      <trkpt lat="41.40719833333333" lon="-8.738695">
        <ele>100.0</ele>
        <time>2019-07-05T13:56:06Z</time>
      </trkpt>
      <trkpt lat="41.407135" lon="-8.73859">
        <ele>101.0</ele>
        <time>2019-07-05T13:56:08Z</time>
      </trkpt>
      <trkpt lat="41.407061666666664" lon="-8.73848">
        <ele>100.0</ele>
        <time>2019-07-05T13:56:10Z</time>
      </trkpt>
      <trkpt lat="41.406995" lon="-8.73837">
        <ele>101.0</ele>
        <time>2019-07-05T13:56:12Z</time>
      </trkpt>
      <trkpt lat="41.406925" lon="-8.738256666666667">
        <ele>101.0</ele>
        <time>2019-07-05T13:56:14Z</time>
      </trkpt>
      <trkpt lat="41.406855" lon="-8.738146666666667">
        <ele>100.0</ele>
        <time>2019-07-05T13:56:16Z</time>
      </trkpt>
      <trkpt lat="41.406785" lon="-8.738031666666666">
        <ele>101.0</ele>
        <time>2019-07-05T13:56:18Z</time>
      </trkpt>
      <trkpt lat="41.406725" lon="-8.737916666666667">
        <ele>100.0</ele>
        <time>2019-07-05T13:56:20Z</time>
      </trkpt>
      <trkpt lat="41.40665" lon="-8.737805">
        <ele>100.0</ele>
        <time>2019-07-05T13:56:22Z</time>
      </trkpt>
      <trkpt lat="41.40657" lon="-8.73769">
        <ele>99.0</ele>
        <time>2019-07-05T13:56:24Z</time>
      </trkpt>
      <trkpt lat="41.40649" lon="-8.737593333333333">
        <ele>99.0</ele>
        <time>2019-07-05T13:56:26Z</time>
      </trkpt>
      <trkpt lat="41.406405" lon="-8.73752">
        <ele>99.0</ele>
        <time>2019-07-05T13:56:28Z</time>
      </trkpt>
      <trkpt lat="41.4063" lon="-8.73745">
        <ele>99.0</ele>
        <time>2019-07-05T13:56:30Z</time>
      </trkpt>
      <trkpt lat="41.406198333333336" lon="-8.73738">
        <ele>99.0</ele>
        <time>2019-07-05T13:56:32Z</time>
      </trkpt>
      <trkpt lat="41.4061" lon="-8.737315">
        <ele>99.0</ele>
        <time>2019-07-05T13:56:34Z</time>
      </trkpt>
      <trkpt lat="41.406" lon="-8.737245">
        <ele>100.0</ele>
        <time>2019-07-05T13:56:36Z</time>
      </trkpt>
      <trkpt lat="41.405901666666665" lon="-8.73718">
        <ele>100.0</ele>
        <time>2019-07-05T13:56:38Z</time>
      </trkpt>
      <trkpt lat="41.405811666666665" lon="-8.737115">
        <ele>100.0</ele>
        <time>2019-07-05T13:56:40Z</time>
      </trkpt>
      <trkpt lat="41.405725" lon="-8.73705">
        <ele>100.0</ele>
        <time>2019-07-05T13:56:42Z</time>
      </trkpt>
      <trkpt lat="41.405635" lon="-8.736986666666667">
        <ele>100.0</ele>
        <time>2019-07-05T13:56:44Z</time>
      </trkpt>
      <trkpt lat="41.405545" lon="-8.73692">
        <ele>100.0</ele>
        <time>2019-07-05T13:56:46Z</time>
      </trkpt>
      <trkpt lat="41.405451666666664" lon="-8.73685">
        <ele>100.0</ele>
        <time>2019-07-05T13:56:48Z</time>
      </trkpt>
      <trkpt lat="41.405361666666664" lon="-8.736791666666667">
        <ele>100.0</ele>
        <time>2019-07-05T13:56:50Z</time>
      </trkpt>
      <trkpt lat="41.40526666666667" lon="-8.73673">
        <ele>100.0</ele>
        <time>2019-07-05T13:56:52Z</time>
      </trkpt>
      <trkpt lat="41.405175" lon="-8.73667">
        <ele>99.0</ele>
        <time>2019-07-05T13:56:54Z</time>
      </trkpt>
      <trkpt lat="41.405095" lon="-8.73662">
        <ele>99.0</ele>
        <time>2019-07-05T13:56:56Z</time>
      </trkpt>
      <trkpt lat="41.40503" lon="-8.73657">
        <ele>99.0</ele>
        <time>2019-07-05T13:56:59Z</time>
      </trkpt>
      <trkpt lat="41.405015" lon="-8.736575">
        <ele>100.0</ele>
        <time>2019-07-05T13:57:06Z</time>
      </trkpt>
      <trkpt lat="41.405015" lon="-8.73658">
        <ele>99.0</ele>
        <time>2019-07-05T13:57:10Z</time>
      </trkpt>
      <trkpt lat="41.40501" lon="-8.73659">
        <ele>98.0</ele>
        <time>2019-07-05T13:57:59Z</time>
      </trkpt>
      <trkpt lat="41.40501" lon="-8.736585">
        <ele>98.0</ele>
        <time>2019-07-05T13:58:00Z</time>
      </trkpt>
      <trkpt lat="41.40497" lon="-8.73654">
        <ele>97.0</ele>
        <time>2019-07-05T14:02:18Z</time>
      </trkpt>
      <trkpt lat="41.404945" lon="-8.73653">
        <ele>98.0</ele>
        <time>2019-07-05T14:02:25Z</time>
      </trkpt>
      <trkpt lat="41.40487" lon="-8.736485">
        <ele>98.0</ele>
        <time>2019-07-05T14:02:30Z</time>
      </trkpt>
      <trkpt lat="41.404775" lon="-8.736415">
        <ele>98.0</ele>
        <time>2019-07-05T14:02:33Z</time>
      </trkpt>
      <trkpt lat="41.40468666666666" lon="-8.73636">
        <ele>98.0</ele>
        <time>2019-07-05T14:02:35Z</time>
      </trkpt>
      <trkpt lat="41.40459666666667" lon="-8.7363">
        <ele>98.0</ele>
        <time>2019-07-05T14:02:37Z</time>
      </trkpt>
      <trkpt lat="41.40450166666667" lon="-8.73624">
        <ele>97.0</ele>
        <time>2019-07-05T14:02:39Z</time>
      </trkpt>
      <trkpt lat="41.404405" lon="-8.73617">
        <ele>98.0</ele>
        <time>2019-07-05T14:02:41Z</time>
      </trkpt>
      <trkpt lat="41.404305" lon="-8.7361">
        <ele>98.0</ele>
        <time>2019-07-05T14:02:43Z</time>
      </trkpt>
      <trkpt lat="41.404205" lon="-8.73603">
        <ele>98.0</ele>
        <time>2019-07-05T14:02:45Z</time>
      </trkpt>
      <trkpt lat="41.404105" lon="-8.735961666666666">
        <ele>98.0</ele>
        <time>2019-07-05T14:02:47Z</time>
      </trkpt>
      <trkpt lat="41.404001666666666" lon="-8.735905">
        <ele>99.0</ele>
        <time>2019-07-05T14:02:49Z</time>
      </trkpt>
      <trkpt lat="41.4039" lon="-8.735841666666667">
        <ele>99.0</ele>
        <time>2019-07-05T14:02:51Z</time>
      </trkpt>
      <trkpt lat="41.403805" lon="-8.735775">
        <ele>100.0</ele>
        <time>2019-07-05T14:02:53Z</time>
      </trkpt>
      <trkpt lat="41.40371666666667" lon="-8.73571">
        <ele>101.0</ele>
        <time>2019-07-05T14:02:55Z</time>
      </trkpt>
      <trkpt lat="41.403635" lon="-8.735656666666667">
        <ele>101.0</ele>
        <time>2019-07-05T14:02:57Z</time>
      </trkpt>
      <trkpt lat="41.40354833333333" lon="-8.735596666666666">
        <ele>101.0</ele>
        <time>2019-07-05T14:02:59Z</time>
      </trkpt>
      <trkpt lat="41.40346" lon="-8.73554">
        <ele>102.0</ele>
        <time>2019-07-05T14:03:01Z</time>
      </trkpt>
      <trkpt lat="41.40338" lon="-8.73548">
        <ele>102.0</ele>
        <time>2019-07-05T14:03:03Z</time>
      </trkpt>
      <trkpt lat="41.403295" lon="-8.735425">
        <ele>103.0</ele>
        <time>2019-07-05T14:03:05Z</time>
      </trkpt>
      <trkpt lat="41.403215" lon="-8.735365">
        <ele>103.0</ele>
        <time>2019-07-05T14:03:07Z</time>
      </trkpt>
      <trkpt lat="41.40315666666667" lon="-8.735275">
        <ele>104.0</ele>
        <time>2019-07-05T14:03:09Z</time>
      </trkpt>
      <trkpt lat="41.40312" lon="-8.73517">
        <ele>104.0</ele>
        <time>2019-07-05T14:03:11Z</time>
      </trkpt>
      <trkpt lat="41.40307" lon="-8.73507">
        <ele>104.0</ele>
        <time>2019-07-05T14:03:13Z</time>
      </trkpt>
      <trkpt lat="41.40299" lon="-8.735015">
        <ele>104.0</ele>
        <time>2019-07-05T14:03:15Z</time>
      </trkpt>
      <trkpt lat="41.402901666666665" lon="-8.73501">
        <ele>104.0</ele>
        <time>2019-07-05T14:03:17Z</time>
      </trkpt>
      <trkpt lat="41.402825" lon="-8.735005">
        <ele>103.0</ele>
        <time>2019-07-05T14:03:19Z</time>
      </trkpt>
      <trkpt lat="41.402721666666665" lon="-8.73499">
        <ele>102.0</ele>
        <time>2019-07-05T14:03:22Z</time>
      </trkpt>
      <trkpt lat="41.402651666666664" lon="-8.735005">
        <ele>101.0</ele>
        <time>2019-07-05T14:03:24Z</time>
      </trkpt>
      <trkpt lat="41.402566666666665" lon="-8.734996666666667">
        <ele>102.0</ele>
        <time>2019-07-05T14:03:26Z</time>
      </trkpt>
      <trkpt lat="41.40248" lon="-8.73499">
        <ele>102.0</ele>
        <time>2019-07-05T14:03:28Z</time>
      </trkpt>
      <trkpt lat="41.402385" lon="-8.734985">
        <ele>102.0</ele>
        <time>2019-07-05T14:03:30Z</time>
      </trkpt>
      <trkpt lat="41.402295" lon="-8.735016666666667">
        <ele>102.0</ele>
        <time>2019-07-05T14:03:32Z</time>
      </trkpt>
      <trkpt lat="41.40221" lon="-8.73505">
        <ele>103.0</ele>
        <time>2019-07-05T14:03:34Z</time>
      </trkpt>
      <trkpt lat="41.40214" lon="-8.73509">
        <ele>102.0</ele>
        <time>2019-07-05T14:03:36Z</time>
      </trkpt>
      <trkpt lat="41.402065" lon="-8.73514">
        <ele>102.0</ele>
        <time>2019-07-05T14:03:38Z</time>
      </trkpt>
      <trkpt lat="41.401975" lon="-8.735165">
        <ele>102.0</ele>
        <time>2019-07-05T14:03:41Z</time>
      </trkpt>
      <trkpt lat="41.401905" lon="-8.735121666666666">
        <ele>102.0</ele>
        <time>2019-07-05T14:03:45Z</time>
      </trkpt>
      <trkpt lat="41.401865" lon="-8.73501">
        <ele>102.0</ele>
        <time>2019-07-05T14:03:48Z</time>
      </trkpt>
      <trkpt lat="41.401845" lon="-8.734916666666667">
        <ele>102.0</ele>
        <time>2019-07-05T14:03:50Z</time>
      </trkpt>
      <trkpt lat="41.40182333333333" lon="-8.734808333333334">
        <ele>103.0</ele>
        <time>2019-07-05T14:03:52Z</time>
      </trkpt>
      <trkpt lat="41.401801666666664" lon="-8.73469">
        <ele>103.0</ele>
        <time>2019-07-05T14:03:54Z</time>
      </trkpt>
      <trkpt lat="41.40178" lon="-8.734575">
        <ele>103.0</ele>
        <time>2019-07-05T14:03:56Z</time>
      </trkpt>
      <trkpt lat="41.401756666666664" lon="-8.734451666666667">
        <ele>104.0</ele>
        <time>2019-07-05T14:03:58Z</time>
      </trkpt>
      <trkpt lat="41.40171" lon="-8.73434">
        <ele>104.0</ele>
        <time>2019-07-05T14:04:00Z</time>
      </trkpt>
      <trkpt lat="41.40163" lon="-8.734263333333333">
        <ele>104.0</ele>
        <time>2019-07-05T14:04:02Z</time>
      </trkpt>
      <trkpt lat="41.40154166666667" lon="-8.734235">
        <ele>103.0</ele>
        <time>2019-07-05T14:04:04Z</time>
      </trkpt>
      <trkpt lat="41.401435" lon="-8.73419">
        <ele>104.0</ele>
        <time>2019-07-05T14:04:06Z</time>
      </trkpt>
      <trkpt lat="41.40135" lon="-8.73409">
        <ele>104.0</ele>
        <time>2019-07-05T14:04:08Z</time>
      </trkpt>
      <trkpt lat="41.401285" lon="-8.733966666666667">
        <ele>105.0</ele>
        <time>2019-07-05T14:04:10Z</time>
      </trkpt>
      <trkpt lat="41.401235" lon="-8.733836666666667">
        <ele>106.0</ele>
        <time>2019-07-05T14:04:12Z</time>
      </trkpt>
      <trkpt lat="41.40118" lon="-8.733693333333333">
        <ele>106.0</ele>
        <time>2019-07-05T14:04:14Z</time>
      </trkpt>
      <trkpt lat="41.40112833333333" lon="-8.733565">
        <ele>106.0</ele>
        <time>2019-07-05T14:04:16Z</time>
      </trkpt>
      <trkpt lat="41.401085" lon="-8.733431666666666">
        <ele>106.0</ele>
        <time>2019-07-05T14:04:18Z</time>
      </trkpt>
      <trkpt lat="41.401045" lon="-8.733295">
        <ele>106.0</ele>
        <time>2019-07-05T14:04:20Z</time>
      </trkpt>
      <trkpt lat="41.40102" lon="-8.733155">
        <ele>107.0</ele>
        <time>2019-07-05T14:04:22Z</time>
      </trkpt>
      <trkpt lat="41.401025" lon="-8.733005">
        <ele>107.0</ele>
        <time>2019-07-05T14:04:24Z</time>
      </trkpt>
      <trkpt lat="41.401035" lon="-8.732865">
        <ele>107.0</ele>
        <time>2019-07-05T14:04:26Z</time>
      </trkpt>
      <trkpt lat="41.40106166666666" lon="-8.732735">
        <ele>106.0</ele>
        <time>2019-07-05T14:04:28Z</time>
      </trkpt>
      <trkpt lat="41.401085" lon="-8.7326">
        <ele>106.0</ele>
        <time>2019-07-05T14:04:30Z</time>
      </trkpt>
      <trkpt lat="41.40109666666667" lon="-8.732465">
        <ele>106.0</ele>
        <time>2019-07-05T14:04:32Z</time>
      </trkpt>
      <trkpt lat="41.40109" lon="-8.732335">
        <ele>106.0</ele>
        <time>2019-07-05T14:04:34Z</time>
      </trkpt>
      <trkpt lat="41.401045" lon="-8.732215">
        <ele>107.0</ele>
        <time>2019-07-05T14:04:36Z</time>
      </trkpt>
      <trkpt lat="41.400976666666665" lon="-8.732125">
        <ele>107.0</ele>
        <time>2019-07-05T14:04:38Z</time>
      </trkpt>
      <trkpt lat="41.4009" lon="-8.732041666666667">
        <ele>107.0</ele>
        <time>2019-07-05T14:04:40Z</time>
      </trkpt>
      <trkpt lat="41.400805" lon="-8.731985">
        <ele>107.0</ele>
        <time>2019-07-05T14:04:42Z</time>
      </trkpt>
      <trkpt lat="41.40071" lon="-8.731935">
        <ele>107.0</ele>
        <time>2019-07-05T14:04:44Z</time>
      </trkpt>
      <trkpt lat="41.40061" lon="-8.731885">
        <ele>107.0</ele>
        <time>2019-07-05T14:04:46Z</time>
      </trkpt>
      <trkpt lat="41.40052" lon="-8.731816666666667">
        <ele>107.0</ele>
        <time>2019-07-05T14:04:48Z</time>
      </trkpt>
      <trkpt lat="41.400436666666664" lon="-8.731735">
        <ele>106.0</ele>
        <time>2019-07-05T14:04:50Z</time>
      </trkpt>
      <trkpt lat="41.400355" lon="-8.731636666666667">
        <ele>106.0</ele>
        <time>2019-07-05T14:04:52Z</time>
      </trkpt>
      <trkpt lat="41.40027" lon="-8.731533333333333">
        <ele>106.0</ele>
        <time>2019-07-05T14:04:54Z</time>
      </trkpt>
      <trkpt lat="41.400185" lon="-8.731435">
        <ele>106.0</ele>
        <time>2019-07-05T14:04:56Z</time>
      </trkpt>
      <trkpt lat="41.400105" lon="-8.731325">
        <ele>106.0</ele>
        <time>2019-07-05T14:04:58Z</time>
      </trkpt>
      <trkpt lat="41.40002" lon="-8.731225">
        <ele>106.0</ele>
        <time>2019-07-05T14:05:00Z</time>
      </trkpt>
      <trkpt lat="41.399935" lon="-8.73113">
        <ele>106.0</ele>
        <time>2019-07-05T14:05:02Z</time>
      </trkpt>
      <trkpt lat="41.39985333333333" lon="-8.731035">
        <ele>106.0</ele>
        <time>2019-07-05T14:05:04Z</time>
      </trkpt>
      <trkpt lat="41.39978" lon="-8.730925">
        <ele>107.0</ele>
        <time>2019-07-05T14:05:06Z</time>
      </trkpt>
      <trkpt lat="41.39971666666667" lon="-8.730815">
        <ele>106.0</ele>
        <time>2019-07-05T14:05:08Z</time>
      </trkpt>
      <trkpt lat="41.39969" lon="-8.730681666666667">
        <ele>107.0</ele>
        <time>2019-07-05T14:05:10Z</time>
      </trkpt>
      <trkpt lat="41.399715" lon="-8.730548333333333">
        <ele>107.0</ele>
        <time>2019-07-05T14:05:12Z</time>
      </trkpt>
      <trkpt lat="41.39975" lon="-8.730416666666667">
        <ele>108.0</ele>
        <time>2019-07-05T14:05:14Z</time>
      </trkpt>
      <trkpt lat="41.399766666666665" lon="-8.730275">
        <ele>108.0</ele>
        <time>2019-07-05T14:05:16Z</time>
      </trkpt>
      <trkpt lat="41.399765" lon="-8.730125">
        <ele>108.0</ele>
        <time>2019-07-05T14:05:18Z</time>
      </trkpt>
      <trkpt lat="41.399755" lon="-8.729976666666667">
        <ele>108.0</ele>
        <time>2019-07-05T14:05:20Z</time>
      </trkpt>
      <trkpt lat="41.399735" lon="-8.729831666666668">
        <ele>108.0</ele>
        <time>2019-07-05T14:05:22Z</time>
      </trkpt>
      <trkpt lat="41.399725" lon="-8.729685">
        <ele>109.0</ele>
        <time>2019-07-05T14:05:24Z</time>
      </trkpt>
      <trkpt lat="41.39971" lon="-8.729541666666666">
        <ele>109.0</ele>
        <time>2019-07-05T14:05:26Z</time>
      </trkpt>
      <trkpt lat="41.39969833333333" lon="-8.7294">
        <ele>109.0</ele>
        <time>2019-07-05T14:05:28Z</time>
      </trkpt>
      <trkpt lat="41.399695" lon="-8.729266666666666">
        <ele>109.0</ele>
        <time>2019-07-05T14:05:30Z</time>
      </trkpt>
      <trkpt lat="41.399675" lon="-8.729145">
        <ele>110.0</ele>
        <time>2019-07-05T14:05:32Z</time>
      </trkpt>
      <trkpt lat="41.399635" lon="-8.729025">
        <ele>110.0</ele>
        <time>2019-07-05T14:05:34Z</time>
      </trkpt>
      <trkpt lat="41.399606666666664" lon="-8.728898333333333">
        <ele>110.0</ele>
        <time>2019-07-05T14:05:36Z</time>
      </trkpt>
      <trkpt lat="41.399565" lon="-8.728768333333333">
        <ele>111.0</ele>
        <time>2019-07-05T14:05:38Z</time>
      </trkpt>
      <trkpt lat="41.39952" lon="-8.728645">
        <ele>111.0</ele>
        <time>2019-07-05T14:05:40Z</time>
      </trkpt>
      <trkpt lat="41.399465" lon="-8.728526666666667">
        <ele>112.0</ele>
        <time>2019-07-05T14:05:42Z</time>
      </trkpt>
      <trkpt lat="41.399415" lon="-8.728405">
        <ele>112.0</ele>
        <time>2019-07-05T14:05:44Z</time>
      </trkpt>
      <trkpt lat="41.39936" lon="-8.728286666666667">
        <ele>112.0</ele>
        <time>2019-07-05T14:05:46Z</time>
      </trkpt>
      <trkpt lat="41.39931" lon="-8.72817">
        <ele>112.0</ele>
        <time>2019-07-05T14:05:48Z</time>
      </trkpt>
      <trkpt lat="41.399255" lon="-8.728051666666667">
        <ele>113.0</ele>
        <time>2019-07-05T14:05:50Z</time>
      </trkpt>
      <trkpt lat="41.39921" lon="-8.72795">
        <ele>113.0</ele>
        <time>2019-07-05T14:05:52Z</time>
      </trkpt>
      <trkpt lat="41.39915833333333" lon="-8.727835">
        <ele>114.0</ele>
        <time>2019-07-05T14:05:54Z</time>
      </trkpt>
      <trkpt lat="41.399105" lon="-8.72772">
        <ele>115.0</ele>
        <time>2019-07-05T14:05:56Z</time>
      </trkpt>
      <trkpt lat="41.39904666666666" lon="-8.72761">
        <ele>114.0</ele>
        <time>2019-07-05T14:05:58Z</time>
      </trkpt>
      <trkpt lat="41.39899" lon="-8.727498333333333">
        <ele>114.0</ele>
        <time>2019-07-05T14:06:00Z</time>
      </trkpt>
      <trkpt lat="41.398945" lon="-8.727375">
        <ele>114.0</ele>
        <time>2019-07-05T14:06:02Z</time>
      </trkpt>
      <trkpt lat="41.398895" lon="-8.727231666666666">
        <ele>114.0</ele>
        <time>2019-07-05T14:06:04Z</time>
      </trkpt>
      <trkpt lat="41.398846666666664" lon="-8.727101666666666">
        <ele>114.0</ele>
        <time>2019-07-05T14:06:06Z</time>
      </trkpt>
      <trkpt lat="41.398795" lon="-8.726965">
        <ele>114.0</ele>
        <time>2019-07-05T14:06:08Z</time>
      </trkpt>
      <trkpt lat="41.398745" lon="-8.72683">
        <ele>114.0</ele>
        <time>2019-07-05T14:06:10Z</time>
      </trkpt>
      <trkpt lat="41.39869" lon="-8.72669">
        <ele>114.0</ele>
        <time>2019-07-05T14:06:12Z</time>
      </trkpt>
      <trkpt lat="41.398635" lon="-8.726545">
        <ele>114.0</ele>
        <time>2019-07-05T14:06:14Z</time>
      </trkpt>
      <trkpt lat="41.39857666666666" lon="-8.72641">
        <ele>113.0</ele>
        <time>2019-07-05T14:06:16Z</time>
      </trkpt>
      <trkpt lat="41.39852166666667" lon="-8.72627">
        <ele>113.0</ele>
        <time>2019-07-05T14:06:18Z</time>
      </trkpt>
      <trkpt lat="41.398473333333335" lon="-8.72613">
        <ele>113.0</ele>
        <time>2019-07-05T14:06:20Z</time>
      </trkpt>
      <trkpt lat="41.39843" lon="-8.72598">
        <ele>113.0</ele>
        <time>2019-07-05T14:06:22Z</time>
      </trkpt>
      <trkpt lat="41.39838" lon="-8.725835">
        <ele>113.0</ele>
        <time>2019-07-05T14:06:24Z</time>
      </trkpt>
      <trkpt lat="41.39833" lon="-8.725695">
        <ele>113.0</ele>
        <time>2019-07-05T14:06:26Z</time>
      </trkpt>
      <trkpt lat="41.398275" lon="-8.72554">
        <ele>113.0</ele>
        <time>2019-07-05T14:06:28Z</time>
      </trkpt>
      <trkpt lat="41.39823" lon="-8.725391666666667">
        <ele>113.0</ele>
        <time>2019-07-05T14:06:30Z</time>
      </trkpt>
      <trkpt lat="41.398176666666664" lon="-8.72524">
        <ele>113.0</ele>
        <time>2019-07-05T14:06:32Z</time>
      </trkpt>
      <trkpt lat="41.39814" lon="-8.725085">
        <ele>113.0</ele>
        <time>2019-07-05T14:06:34Z</time>
      </trkpt>
      <trkpt lat="41.39810833333333" lon="-8.724935">
        <ele>113.0</ele>
        <time>2019-07-05T14:06:36Z</time>
      </trkpt>
      <trkpt lat="41.398065" lon="-8.724795">
        <ele>113.0</ele>
        <time>2019-07-05T14:06:38Z</time>
      </trkpt>
      <trkpt lat="41.398015" lon="-8.72466">
        <ele>112.0</ele>
        <time>2019-07-05T14:06:40Z</time>
      </trkpt>
      <trkpt lat="41.397956666666666" lon="-8.72452">
        <ele>113.0</ele>
        <time>2019-07-05T14:06:42Z</time>
      </trkpt>
      <trkpt lat="41.39789" lon="-8.72438">
        <ele>112.0</ele>
        <time>2019-07-05T14:06:44Z</time>
      </trkpt>
      <trkpt lat="41.397815" lon="-8.724241666666666">
        <ele>112.0</ele>
        <time>2019-07-05T14:06:46Z</time>
      </trkpt>
      <trkpt lat="41.397735" lon="-8.724106666666666">
        <ele>112.0</ele>
        <time>2019-07-05T14:06:48Z</time>
      </trkpt>
      <trkpt lat="41.397665" lon="-8.72395">
        <ele>111.0</ele>
        <time>2019-07-05T14:06:50Z</time>
      </trkpt>
      <trkpt lat="41.39759" lon="-8.7238">
        <ele>111.0</ele>
        <time>2019-07-05T14:06:52Z</time>
      </trkpt>
      <trkpt lat="41.39749666666667" lon="-8.723655">
        <ele>111.0</ele>
        <time>2019-07-05T14:06:54Z</time>
      </trkpt>
      <trkpt lat="41.397415" lon="-8.723501666666667">
        <ele>110.0</ele>
        <time>2019-07-05T14:06:56Z</time>
      </trkpt>
      <trkpt lat="41.397371666666665" lon="-8.723421666666667">
        <ele>110.0</ele>
        <time>2019-07-05T14:06:57Z</time>
      </trkpt>
      <trkpt lat="41.39729" lon="-8.723265">
        <ele>110.0</ele>
        <time>2019-07-05T14:06:59Z</time>
      </trkpt>
      <trkpt lat="41.39721" lon="-8.723111666666666">
        <ele>111.0</ele>
        <time>2019-07-05T14:07:01Z</time>
      </trkpt>
      <trkpt lat="41.39713166666667" lon="-8.722971666666666">
        <ele>111.0</ele>
        <time>2019-07-05T14:07:03Z</time>
      </trkpt>
      <trkpt lat="41.397045" lon="-8.722855">
        <ele>111.0</ele>
        <time>2019-07-05T14:07:05Z</time>
      </trkpt>
      <trkpt lat="41.39698666666666" lon="-8.722785">
        <ele>112.0</ele>
        <time>2019-07-05T14:07:11Z</time>
      </trkpt>
      <trkpt lat="41.396925" lon="-8.722715">
        <ele>112.0</ele>
        <time>2019-07-05T14:07:14Z</time>
      </trkpt>
      <trkpt lat="41.39686" lon="-8.722626666666667">
        <ele>113.0</ele>
        <time>2019-07-05T14:07:16Z</time>
      </trkpt>
      <trkpt lat="41.39679" lon="-8.72254">
        <ele>113.0</ele>
        <time>2019-07-05T14:07:18Z</time>
      </trkpt>
      <trkpt lat="41.39671166666667" lon="-8.72245">
        <ele>112.0</ele>
        <time>2019-07-05T14:07:20Z</time>
      </trkpt>
      <trkpt lat="41.39663" lon="-8.722345">
        <ele>112.0</ele>
        <time>2019-07-05T14:07:22Z</time>
      </trkpt>
      <trkpt lat="41.396555" lon="-8.722235">
        <ele>112.0</ele>
        <time>2019-07-05T14:07:24Z</time>
      </trkpt>
      <trkpt lat="41.396475" lon="-8.722125">
        <ele>111.0</ele>
        <time>2019-07-05T14:07:26Z</time>
      </trkpt>
      <trkpt lat="41.396405" lon="-8.721995">
        <ele>112.0</ele>
        <time>2019-07-05T14:07:28Z</time>
      </trkpt>
      <trkpt lat="41.396345" lon="-8.721865">
        <ele>112.0</ele>
        <time>2019-07-05T14:07:30Z</time>
      </trkpt>
      <trkpt lat="41.396295" lon="-8.721735">
        <ele>112.0</ele>
        <time>2019-07-05T14:07:32Z</time>
      </trkpt>
      <trkpt lat="41.39625" lon="-8.721596666666667">
        <ele>112.0</ele>
        <time>2019-07-05T14:07:34Z</time>
      </trkpt>
      <trkpt lat="41.396205" lon="-8.72147">
        <ele>113.0</ele>
        <time>2019-07-05T14:07:36Z</time>
      </trkpt>
      <trkpt lat="41.39617" lon="-8.721345">
        <ele>114.0</ele>
        <time>2019-07-05T14:07:38Z</time>
      </trkpt>
      <trkpt lat="41.396145" lon="-8.721225">
        <ele>114.0</ele>
        <time>2019-07-05T14:07:40Z</time>
      </trkpt>
      <trkpt lat="41.396115" lon="-8.721101666666666">
        <ele>115.0</ele>
        <time>2019-07-05T14:07:42Z</time>
      </trkpt>
      <trkpt lat="41.39609" lon="-8.720976666666667">
        <ele>115.0</ele>
        <time>2019-07-05T14:07:44Z</time>
      </trkpt>
      <trkpt lat="41.396075" lon="-8.72085">
        <ele>115.0</ele>
        <time>2019-07-05T14:07:46Z</time>
      </trkpt>
      <trkpt lat="41.39606" lon="-8.72073">
        <ele>115.0</ele>
        <time>2019-07-05T14:07:48Z</time>
      </trkpt>
      <trkpt lat="41.39604666666666" lon="-8.720626666666666">
        <ele>116.0</ele>
        <time>2019-07-05T14:07:50Z</time>
      </trkpt>
      <trkpt lat="41.396035" lon="-8.72053">
        <ele>116.0</ele>
        <time>2019-07-05T14:07:52Z</time>
      </trkpt>
      <trkpt lat="41.39602166666667" lon="-8.720425">
        <ele>116.0</ele>
        <time>2019-07-05T14:07:54Z</time>
      </trkpt>
      <trkpt lat="41.39600166666666" lon="-8.720325">
        <ele>117.0</ele>
        <time>2019-07-05T14:07:56Z</time>
      </trkpt>
      <trkpt lat="41.395955" lon="-8.720215">
        <ele>117.0</ele>
        <time>2019-07-05T14:07:59Z</time>
      </trkpt>
      <trkpt lat="41.39587" lon="-8.720135">
        <ele>117.0</ele>
        <time>2019-07-05T14:08:02Z</time>
      </trkpt>
      <trkpt lat="41.395781666666664" lon="-8.72011">
        <ele>116.0</ele>
        <time>2019-07-05T14:08:04Z</time>
      </trkpt>
      <trkpt lat="41.395685" lon="-8.72011">
        <ele>114.0</ele>
        <time>2019-07-05T14:08:06Z</time>
      </trkpt>
      <trkpt lat="41.395595" lon="-8.72012">
        <ele>112.0</ele>
        <time>2019-07-05T14:08:08Z</time>
      </trkpt>
      <trkpt lat="41.395516666666666" lon="-8.720145">
        <ele>112.0</ele>
        <time>2019-07-05T14:08:10Z</time>
      </trkpt>
      <trkpt lat="41.39544166666667" lon="-8.720155">
        <ele>110.0</ele>
        <time>2019-07-05T14:08:13Z</time>
      </trkpt>
      <trkpt lat="41.395355" lon="-8.720185">
        <ele>108.0</ele>
        <time>2019-07-05T14:08:19Z</time>
      </trkpt>
      <trkpt lat="41.39527" lon="-8.720205">
        <ele>105.0</ele>
        <time>2019-07-05T14:08:23Z</time>
      </trkpt>
      <trkpt lat="41.395215" lon="-8.720085">
        <ele>105.0</ele>
        <time>2019-07-05T14:08:26Z</time>
      </trkpt>
      <trkpt lat="41.39517" lon="-8.71999">
        <ele>105.0</ele>
        <time>2019-07-05T14:08:28Z</time>
      </trkpt>
      <trkpt lat="41.395115" lon="-8.7199">
        <ele>105.0</ele>
        <time>2019-07-05T14:08:30Z</time>
      </trkpt>
      <trkpt lat="41.39505" lon="-8.7198">
        <ele>105.0</ele>
        <time>2019-07-05T14:08:32Z</time>
      </trkpt>
      <trkpt lat="41.39498666666667" lon="-8.719685">
        <ele>105.0</ele>
        <time>2019-07-05T14:08:34Z</time>
      </trkpt>
      <trkpt lat="41.39492" lon="-8.719555">
        <ele>104.0</ele>
        <time>2019-07-05T14:08:36Z</time>
      </trkpt>
      <trkpt lat="41.394861666666664" lon="-8.719405">
        <ele>104.0</ele>
        <time>2019-07-05T14:08:38Z</time>
      </trkpt>
      <trkpt lat="41.3948" lon="-8.71926">
        <ele>104.0</ele>
        <time>2019-07-05T14:08:40Z</time>
      </trkpt>
      <trkpt lat="41.39473" lon="-8.719115">
        <ele>103.0</ele>
        <time>2019-07-05T14:08:42Z</time>
      </trkpt>
      <trkpt lat="41.39464666666667" lon="-8.71897">
        <ele>103.0</ele>
        <time>2019-07-05T14:08:44Z</time>
      </trkpt>
      <trkpt lat="41.394575" lon="-8.718815">
        <ele>103.0</ele>
        <time>2019-07-05T14:08:46Z</time>
      </trkpt>
      <trkpt lat="41.39451" lon="-8.718675">
        <ele>103.0</ele>
        <time>2019-07-05T14:08:48Z</time>
      </trkpt>
      <trkpt lat="41.394435" lon="-8.718535">
        <ele>103.0</ele>
        <time>2019-07-05T14:08:50Z</time>
      </trkpt>
      <trkpt lat="41.39437" lon="-8.7184">
        <ele>104.0</ele>
        <time>2019-07-05T14:08:52Z</time>
      </trkpt>
      <trkpt lat="41.394306666666665" lon="-8.718261666666667">
        <ele>104.0</ele>
        <time>2019-07-05T14:08:54Z</time>
      </trkpt>
      <trkpt lat="41.394265" lon="-8.718135">
        <ele>103.0</ele>
        <time>2019-07-05T14:08:56Z</time>
      </trkpt>
      <trkpt lat="41.39424" lon="-8.71802">
        <ele>103.0</ele>
        <time>2019-07-05T14:08:58Z</time>
      </trkpt>
      <trkpt lat="41.39424" lon="-8.71791">
        <ele>104.0</ele>
        <time>2019-07-05T14:09:00Z</time>
      </trkpt>
      <trkpt lat="41.39425" lon="-8.71779">
        <ele>103.0</ele>
        <time>2019-07-05T14:09:02Z</time>
      </trkpt>
      <trkpt lat="41.39425" lon="-8.717683333333333">
        <ele>103.0</ele>
        <time>2019-07-05T14:09:04Z</time>
      </trkpt>
      <trkpt lat="41.39423" lon="-8.71755">
        <ele>104.0</ele>
        <time>2019-07-05T14:09:07Z</time>
      </trkpt>
      <trkpt lat="41.394191666666664" lon="-8.717455">
        <ele>104.0</ele>
        <time>2019-07-05T14:09:09Z</time>
      </trkpt>
      <trkpt lat="41.39413666666667" lon="-8.717361666666667">
        <ele>104.0</ele>
        <time>2019-07-05T14:09:11Z</time>
      </trkpt>
      <trkpt lat="41.39407666666666" lon="-8.71728">
        <ele>104.0</ele>
        <time>2019-07-05T14:09:13Z</time>
      </trkpt>
      <trkpt lat="41.39400666666667" lon="-8.717186666666667">
        <ele>104.0</ele>
        <time>2019-07-05T14:09:15Z</time>
      </trkpt>
      <trkpt lat="41.39394" lon="-8.717085">
        <ele>104.0</ele>
        <time>2019-07-05T14:09:17Z</time>
      </trkpt>
      <trkpt lat="41.39388" lon="-8.716981666666667">
        <ele>104.0</ele>
        <time>2019-07-05T14:09:19Z</time>
      </trkpt>
      <trkpt lat="41.393815000000004" lon="-8.716885">
        <ele>104.0</ele>
        <time>2019-07-05T14:09:21Z</time>
      </trkpt>
      <trkpt lat="41.39374" lon="-8.716793333333333">
        <ele>104.0</ele>
        <time>2019-07-05T14:09:23Z</time>
      </trkpt>
      <trkpt lat="41.39365" lon="-8.716735">
        <ele>105.0</ele>
        <time>2019-07-05T14:09:25Z</time>
      </trkpt>
      <trkpt lat="41.39355166666667" lon="-8.716726666666666">
        <ele>104.0</ele>
        <time>2019-07-05T14:09:27Z</time>
      </trkpt>
      <trkpt lat="41.393456666666665" lon="-8.716715">
        <ele>104.0</ele>
        <time>2019-07-05T14:09:29Z</time>
      </trkpt>
      <trkpt lat="41.393385" lon="-8.71671">
        <ele>103.0</ele>
        <time>2019-07-05T14:09:31Z</time>
      </trkpt>
      <trkpt lat="41.39331833333333" lon="-8.716625">
        <ele>104.0</ele>
        <time>2019-07-05T14:09:36Z</time>
      </trkpt>
      <trkpt lat="41.393225" lon="-8.716566666666667">
        <ele>104.0</ele>
        <time>2019-07-05T14:09:39Z</time>
      </trkpt>
      <trkpt lat="41.393155" lon="-8.716485">
        <ele>104.0</ele>
        <time>2019-07-05T14:09:42Z</time>
      </trkpt>
      <trkpt lat="41.393096666666665" lon="-8.71642">
        <ele>104.0</ele>
        <time>2019-07-05T14:09:44Z</time>
      </trkpt>
      <trkpt lat="41.39304" lon="-8.71635">
        <ele>104.0</ele>
        <time>2019-07-05T14:09:46Z</time>
      </trkpt>
      <trkpt lat="41.392995" lon="-8.71628">
        <ele>104.0</ele>
        <time>2019-07-05T14:09:48Z</time>
      </trkpt>
      <trkpt lat="41.392941666666665" lon="-8.716206666666666">
        <ele>104.0</ele>
        <time>2019-07-05T14:09:50Z</time>
      </trkpt>
      <trkpt lat="41.392895" lon="-8.716135">
        <ele>104.0</ele>
        <time>2019-07-05T14:09:52Z</time>
      </trkpt>
      <trkpt lat="41.39285" lon="-8.716055">
        <ele>104.0</ele>
        <time>2019-07-05T14:09:54Z</time>
      </trkpt>
      <trkpt lat="41.39278" lon="-8.715945">
        <ele>104.0</ele>
        <time>2019-07-05T14:09:57Z</time>
      </trkpt>
      <trkpt lat="41.392716666666665" lon="-8.715836666666666">
        <ele>104.0</ele>
        <time>2019-07-05T14:10:00Z</time>
      </trkpt>
      <trkpt lat="41.392651666666666" lon="-8.715725">
        <ele>104.0</ele>
        <time>2019-07-05T14:10:03Z</time>
      </trkpt>
      <trkpt lat="41.392585" lon="-8.715616666666667">
        <ele>105.0</ele>
        <time>2019-07-05T14:10:06Z</time>
      </trkpt>
      <trkpt lat="41.392535" lon="-8.715531666666667">
        <ele>105.0</ele>
        <time>2019-07-05T14:10:08Z</time>
      </trkpt>
      <trkpt lat="41.3925" lon="-8.71544">
        <ele>104.0</ele>
        <time>2019-07-05T14:10:10Z</time>
      </trkpt>
      <trkpt lat="41.39246" lon="-8.715351666666667">
        <ele>105.0</ele>
        <time>2019-07-05T14:10:12Z</time>
      </trkpt>
      <trkpt lat="41.392408333333336" lon="-8.715255">
        <ele>104.0</ele>
        <time>2019-07-05T14:10:15Z</time>
      </trkpt>
      <trkpt lat="41.392365" lon="-8.715166666666667">
        <ele>106.0</ele>
        <time>2019-07-05T14:10:18Z</time>
      </trkpt>
      <trkpt lat="41.39231" lon="-8.71505">
        <ele>107.0</ele>
        <time>2019-07-05T14:10:21Z</time>
      </trkpt>
      <trkpt lat="41.392275" lon="-8.71496">
        <ele>107.0</ele>
        <time>2019-07-05T14:10:23Z</time>
      </trkpt>
      <trkpt lat="41.392225" lon="-8.71483">
        <ele>109.0</ele>
        <time>2019-07-05T14:10:26Z</time>
      </trkpt>
      <trkpt lat="41.39219" lon="-8.714728333333333">
        <ele>110.0</ele>
        <time>2019-07-05T14:10:28Z</time>
      </trkpt>
      <trkpt lat="41.39216166666667" lon="-8.714636666666667">
        <ele>109.0</ele>
        <time>2019-07-05T14:10:30Z</time>
      </trkpt>
      <trkpt lat="41.392125" lon="-8.714555">
        <ele>108.0</ele>
        <time>2019-07-05T14:10:32Z</time>
      </trkpt>
      <trkpt lat="41.392091666666666" lon="-8.714443333333334">
        <ele>108.0</ele>
        <time>2019-07-05T14:10:34Z</time>
      </trkpt>
      <trkpt lat="41.392045" lon="-8.714345">
        <ele>107.0</ele>
        <time>2019-07-05T14:10:36Z</time>
      </trkpt>
      <trkpt lat="41.392001666666665" lon="-8.71426">
        <ele>109.0</ele>
        <time>2019-07-05T14:10:38Z</time>
      </trkpt>
      <trkpt lat="41.391945" lon="-8.71414">
        <ele>109.0</ele>
        <time>2019-07-05T14:10:40Z</time>
      </trkpt>
      <trkpt lat="41.39192" lon="-8.714005">
        <ele>110.0</ele>
        <time>2019-07-05T14:10:42Z</time>
      </trkpt>
      <trkpt lat="41.391905" lon="-8.713855">
        <ele>110.0</ele>
        <time>2019-07-05T14:10:44Z</time>
      </trkpt>
      <trkpt lat="41.39186" lon="-8.713725">
        <ele>108.0</ele>
        <time>2019-07-05T14:10:46Z</time>
      </trkpt>
      <trkpt lat="41.39181" lon="-8.71357">
        <ele>108.0</ele>
        <time>2019-07-05T14:10:48Z</time>
      </trkpt>
      <trkpt lat="41.391755" lon="-8.713421666666667">
        <ele>108.0</ele>
        <time>2019-07-05T14:10:50Z</time>
      </trkpt>
      <trkpt lat="41.391705" lon="-8.713285">
        <ele>108.0</ele>
        <time>2019-07-05T14:10:52Z</time>
      </trkpt>
      <trkpt lat="41.39166" lon="-8.713155">
        <ele>107.0</ele>
        <time>2019-07-05T14:10:54Z</time>
      </trkpt>
      <trkpt lat="41.391615" lon="-8.713015">
        <ele>106.0</ele>
        <time>2019-07-05T14:10:56Z</time>
      </trkpt>
      <trkpt lat="41.391565" lon="-8.712885">
        <ele>106.0</ele>
        <time>2019-07-05T14:10:58Z</time>
      </trkpt>
      <trkpt lat="41.3915" lon="-8.712755">
        <ele>107.0</ele>
        <time>2019-07-05T14:11:00Z</time>
      </trkpt>
      <trkpt lat="41.391445" lon="-8.71262">
        <ele>106.0</ele>
        <time>2019-07-05T14:11:02Z</time>
      </trkpt>
      <trkpt lat="41.39138" lon="-8.712496666666667">
        <ele>105.0</ele>
        <time>2019-07-05T14:11:04Z</time>
      </trkpt>
      <trkpt lat="41.391305" lon="-8.712386666666667">
        <ele>105.0</ele>
        <time>2019-07-05T14:11:06Z</time>
      </trkpt>
      <trkpt lat="41.39121" lon="-8.71231">
        <ele>104.0</ele>
        <time>2019-07-05T14:11:08Z</time>
      </trkpt>
      <trkpt lat="41.39111" lon="-8.71223">
        <ele>104.0</ele>
        <time>2019-07-05T14:11:10Z</time>
      </trkpt>
      <trkpt lat="41.391015" lon="-8.71215">
        <ele>104.0</ele>
        <time>2019-07-05T14:11:12Z</time>
      </trkpt>
      <trkpt lat="41.39091" lon="-8.712071666666667">
        <ele>104.0</ele>
        <time>2019-07-05T14:11:14Z</time>
      </trkpt>
      <trkpt lat="41.39081" lon="-8.711985">
        <ele>104.0</ele>
        <time>2019-07-05T14:11:16Z</time>
      </trkpt>
      <trkpt lat="41.39072" lon="-8.71189">
        <ele>104.0</ele>
        <time>2019-07-05T14:11:18Z</time>
      </trkpt>
      <trkpt lat="41.39064166666667" lon="-8.711771666666667">
        <ele>103.0</ele>
        <time>2019-07-05T14:11:20Z</time>
      </trkpt>
      <trkpt lat="41.390565" lon="-8.71165">
        <ele>103.0</ele>
        <time>2019-07-05T14:11:22Z</time>
      </trkpt>
      <trkpt lat="41.39048666666667" lon="-8.711515">
        <ele>103.0</ele>
        <time>2019-07-05T14:11:24Z</time>
      </trkpt>
      <trkpt lat="41.39041666666667" lon="-8.711385">
        <ele>103.0</ele>
        <time>2019-07-05T14:11:26Z</time>
      </trkpt>
      <trkpt lat="41.390355" lon="-8.711251666666668">
        <ele>103.0</ele>
        <time>2019-07-05T14:11:28Z</time>
      </trkpt>
      <trkpt lat="41.39029166666667" lon="-8.71112">
        <ele>103.0</ele>
        <time>2019-07-05T14:11:30Z</time>
      </trkpt>
      <trkpt lat="41.39022666666666" lon="-8.710991666666667">
        <ele>104.0</ele>
        <time>2019-07-05T14:11:32Z</time>
      </trkpt>
      <trkpt lat="41.39017" lon="-8.710865">
        <ele>104.0</ele>
        <time>2019-07-05T14:11:34Z</time>
      </trkpt>
      <trkpt lat="41.39011166666667" lon="-8.710741666666667">
        <ele>103.0</ele>
        <time>2019-07-05T14:11:36Z</time>
      </trkpt>
      <trkpt lat="41.390045" lon="-8.710615">
        <ele>103.0</ele>
        <time>2019-07-05T14:11:38Z</time>
      </trkpt>
      <trkpt lat="41.389975" lon="-8.7105">
        <ele>103.0</ele>
        <time>2019-07-05T14:11:40Z</time>
      </trkpt>
      <trkpt lat="41.389885" lon="-8.710395">
        <ele>102.0</ele>
        <time>2019-07-05T14:11:42Z</time>
      </trkpt>
      <trkpt lat="41.38979" lon="-8.710305">
        <ele>102.0</ele>
        <time>2019-07-05T14:11:44Z</time>
      </trkpt>
      <trkpt lat="41.3897" lon="-8.710215">
        <ele>102.0</ele>
        <time>2019-07-05T14:11:46Z</time>
      </trkpt>
      <trkpt lat="41.3896" lon="-8.710111666666666">
        <ele>102.0</ele>
        <time>2019-07-05T14:11:48Z</time>
      </trkpt>
      <trkpt lat="41.389505" lon="-8.710005">
        <ele>102.0</ele>
        <time>2019-07-05T14:11:50Z</time>
      </trkpt>
      <trkpt lat="41.38941" lon="-8.70989">
        <ele>101.0</ele>
        <time>2019-07-05T14:11:52Z</time>
      </trkpt>
      <trkpt lat="41.389325" lon="-8.709775">
        <ele>101.0</ele>
        <time>2019-07-05T14:11:54Z</time>
      </trkpt>
      <trkpt lat="41.38924166666666" lon="-8.70967">
        <ele>101.0</ele>
        <time>2019-07-05T14:11:56Z</time>
      </trkpt>
      <trkpt lat="41.38917" lon="-8.709538333333333">
        <ele>101.0</ele>
        <time>2019-07-05T14:11:58Z</time>
      </trkpt>
      <trkpt lat="41.389095" lon="-8.709415">
        <ele>101.0</ele>
        <time>2019-07-05T14:12:00Z</time>
      </trkpt>
      <trkpt lat="41.389025" lon="-8.70928">
        <ele>100.0</ele>
        <time>2019-07-05T14:12:02Z</time>
      </trkpt>
      <trkpt lat="41.388955" lon="-8.70914">
        <ele>100.0</ele>
        <time>2019-07-05T14:12:04Z</time>
      </trkpt>
      <trkpt lat="41.38888166666667" lon="-8.709016666666667">
        <ele>100.0</ele>
        <time>2019-07-05T14:12:06Z</time>
      </trkpt>
      <trkpt lat="41.38882" lon="-8.708885">
        <ele>100.0</ele>
        <time>2019-07-05T14:12:08Z</time>
      </trkpt>
      <trkpt lat="41.38874666666667" lon="-8.708755">
        <ele>100.0</ele>
        <time>2019-07-05T14:12:10Z</time>
      </trkpt>
      <trkpt lat="41.388665" lon="-8.708655">
        <ele>101.0</ele>
        <time>2019-07-05T14:12:12Z</time>
      </trkpt>
      <trkpt lat="41.38856" lon="-8.708585">
        <ele>101.0</ele>
        <time>2019-07-05T14:12:14Z</time>
      </trkpt>
      <trkpt lat="41.38846" lon="-8.708515">
        <ele>102.0</ele>
        <time>2019-07-05T14:12:16Z</time>
      </trkpt>
      <trkpt lat="41.388355" lon="-8.708438333333334">
        <ele>102.0</ele>
        <time>2019-07-05T14:12:18Z</time>
      </trkpt>
      <trkpt lat="41.388265" lon="-8.708343333333334">
        <ele>102.0</ele>
        <time>2019-07-05T14:12:20Z</time>
      </trkpt>
      <trkpt lat="41.38818" lon="-8.708245">
        <ele>102.0</ele>
        <time>2019-07-05T14:12:22Z</time>
      </trkpt>
      <trkpt lat="41.388088333333336" lon="-8.70814">
        <ele>102.0</ele>
        <time>2019-07-05T14:12:24Z</time>
      </trkpt>
      <trkpt lat="41.388005" lon="-8.70803">
        <ele>102.0</ele>
        <time>2019-07-05T14:12:26Z</time>
      </trkpt>
      <trkpt lat="41.38792" lon="-8.707926666666667">
        <ele>102.0</ele>
        <time>2019-07-05T14:12:28Z</time>
      </trkpt>
      <trkpt lat="41.387835" lon="-8.70782">
        <ele>102.0</ele>
        <time>2019-07-05T14:12:30Z</time>
      </trkpt>
      <trkpt lat="41.38776166666667" lon="-8.70771">
        <ele>102.0</ele>
        <time>2019-07-05T14:12:32Z</time>
      </trkpt>
      <trkpt lat="41.3877" lon="-8.707601666666667">
        <ele>102.0</ele>
        <time>2019-07-05T14:12:34Z</time>
      </trkpt>
      <trkpt lat="41.38763" lon="-8.70749">
        <ele>102.0</ele>
        <time>2019-07-05T14:12:36Z</time>
      </trkpt>
      <trkpt lat="41.387568333333334" lon="-8.707395">
        <ele>102.0</ele>
        <time>2019-07-05T14:12:38Z</time>
      </trkpt>
      <trkpt lat="41.387505" lon="-8.707315">
        <ele>103.0</ele>
        <time>2019-07-05T14:12:41Z</time>
      </trkpt>
      <trkpt lat="41.387465" lon="-8.70728">
        <ele>103.0</ele>
        <time>2019-07-05T14:12:48Z</time>
      </trkpt>
      <trkpt lat="41.38746666666667" lon="-8.70728">
        <ele>103.0</ele>
        <time>2019-07-05T14:12:51Z</time>
      </trkpt>
      <trkpt lat="41.387445" lon="-8.707188333333333">
        <ele>103.0</ele>
        <time>2019-07-05T14:13:03Z</time>
      </trkpt>
      <trkpt lat="41.387495" lon="-8.707105">
        <ele>103.0</ele>
        <time>2019-07-05T14:13:05Z</time>
      </trkpt>
      <trkpt lat="41.387545" lon="-8.707001666666667">
        <ele>103.0</ele>
        <time>2019-07-05T14:13:07Z</time>
      </trkpt>
      <trkpt lat="41.38759666666667" lon="-8.7069">
        <ele>103.0</ele>
        <time>2019-07-05T14:13:09Z</time>
      </trkpt>
      <trkpt lat="41.38762166666667" lon="-8.706811666666667">
        <ele>103.0</ele>
        <time>2019-07-05T14:13:11Z</time>
      </trkpt>
      <trkpt lat="41.387555" lon="-8.706735">
        <ele>102.0</ele>
        <time>2019-07-05T14:13:14Z</time>
      </trkpt>
      <trkpt lat="41.38749" lon="-8.706656666666667">
        <ele>101.0</ele>
        <time>2019-07-05T14:13:16Z</time>
      </trkpt>
      <trkpt lat="41.387411666666665" lon="-8.70658">
        <ele>102.0</ele>
        <time>2019-07-05T14:13:18Z</time>
      </trkpt>
      <trkpt lat="41.387325" lon="-8.706495">
        <ele>102.0</ele>
        <time>2019-07-05T14:13:20Z</time>
      </trkpt>
      <trkpt lat="41.38724" lon="-8.706396666666667">
        <ele>102.0</ele>
        <time>2019-07-05T14:13:22Z</time>
      </trkpt>
      <trkpt lat="41.387146666666666" lon="-8.7063">
        <ele>102.0</ele>
        <time>2019-07-05T14:13:24Z</time>
      </trkpt>
      <trkpt lat="41.387055" lon="-8.706205">
        <ele>102.0</ele>
        <time>2019-07-05T14:13:26Z</time>
      </trkpt>
      <trkpt lat="41.386955" lon="-8.706105">
        <ele>102.0</ele>
        <time>2019-07-05T14:13:28Z</time>
      </trkpt>
      <trkpt lat="41.38686" lon="-8.706005">
        <ele>102.0</ele>
        <time>2019-07-05T14:13:30Z</time>
      </trkpt>
      <trkpt lat="41.38676" lon="-8.7059">
        <ele>102.0</ele>
        <time>2019-07-05T14:13:32Z</time>
      </trkpt>
      <trkpt lat="41.386653333333335" lon="-8.705805">
        <ele>102.0</ele>
        <time>2019-07-05T14:13:34Z</time>
      </trkpt>
      <trkpt lat="41.38655" lon="-8.70572">
        <ele>103.0</ele>
        <time>2019-07-05T14:13:36Z</time>
      </trkpt>
      <trkpt lat="41.38645" lon="-8.705635">
        <ele>103.0</ele>
        <time>2019-07-05T14:13:38Z</time>
      </trkpt>
      <trkpt lat="41.38634166666667" lon="-8.705595">
        <ele>103.0</ele>
        <time>2019-07-05T14:13:40Z</time>
      </trkpt>
      <trkpt lat="41.386225" lon="-8.70557">
        <ele>103.0</ele>
        <time>2019-07-05T14:13:42Z</time>
      </trkpt>
      <trkpt lat="41.3861" lon="-8.70555">
        <ele>103.0</ele>
        <time>2019-07-05T14:13:44Z</time>
      </trkpt>
      <trkpt lat="41.385981666666666" lon="-8.705521666666666">
        <ele>104.0</ele>
        <time>2019-07-05T14:13:46Z</time>
      </trkpt>
      <trkpt lat="41.38585666666667" lon="-8.70552">
        <ele>104.0</ele>
        <time>2019-07-05T14:13:48Z</time>
      </trkpt>
      <trkpt lat="41.38573" lon="-8.705505">
        <ele>104.0</ele>
        <time>2019-07-05T14:13:50Z</time>
      </trkpt>
      <trkpt lat="41.38561" lon="-8.705465">
        <ele>104.0</ele>
        <time>2019-07-05T14:13:52Z</time>
      </trkpt>
      <trkpt lat="41.38549" lon="-8.705425">
        <ele>104.0</ele>
        <time>2019-07-05T14:13:54Z</time>
      </trkpt>
      <trkpt lat="41.38536666666667" lon="-8.705375">
        <ele>104.0</ele>
        <time>2019-07-05T14:13:56Z</time>
      </trkpt>
      <trkpt lat="41.38525" lon="-8.70533">
        <ele>104.0</ele>
        <time>2019-07-05T14:13:58Z</time>
      </trkpt>
      <trkpt lat="41.385131666666666" lon="-8.70528">
        <ele>104.0</ele>
        <time>2019-07-05T14:14:00Z</time>
      </trkpt>
      <trkpt lat="41.385015" lon="-8.70523">
        <ele>104.0</ele>
        <time>2019-07-05T14:14:02Z</time>
      </trkpt>
      <trkpt lat="41.3849" lon="-8.705155">
        <ele>104.0</ele>
        <time>2019-07-05T14:14:04Z</time>
      </trkpt>
      <trkpt lat="41.384815" lon="-8.70503">
        <ele>104.0</ele>
        <time>2019-07-05T14:14:06Z</time>
      </trkpt>
      <trkpt lat="41.38476" lon="-8.704885">
        <ele>104.0</ele>
        <time>2019-07-05T14:14:08Z</time>
      </trkpt>
      <trkpt lat="41.38474" lon="-8.70472">
        <ele>104.0</ele>
        <time>2019-07-05T14:14:10Z</time>
      </trkpt>
      <trkpt lat="41.38474" lon="-8.704555">
        <ele>104.0</ele>
        <time>2019-07-05T14:14:12Z</time>
      </trkpt>
      <trkpt lat="41.384725" lon="-8.7044">
        <ele>103.0</ele>
        <time>2019-07-05T14:14:14Z</time>
      </trkpt>
      <trkpt lat="41.384695" lon="-8.704255">
        <ele>103.0</ele>
        <time>2019-07-05T14:14:16Z</time>
      </trkpt>
      <trkpt lat="41.38465" lon="-8.704106666666666">
        <ele>102.0</ele>
        <time>2019-07-05T14:14:18Z</time>
      </trkpt>
      <trkpt lat="41.384585" lon="-8.703955">
        <ele>102.0</ele>
        <time>2019-07-05T14:14:20Z</time>
      </trkpt>
      <trkpt lat="41.384505" lon="-8.70381">
        <ele>101.0</ele>
        <time>2019-07-05T14:14:22Z</time>
      </trkpt>
      <trkpt lat="41.384458333333335" lon="-8.703735">
        <ele>101.0</ele>
        <time>2019-07-05T14:14:23Z</time>
      </trkpt>
      <trkpt lat="41.38441" lon="-8.703665">
        <ele>101.0</ele>
        <time>2019-07-05T14:14:24Z</time>
      </trkpt>
      <trkpt lat="41.38435" lon="-8.703605">
        <ele>101.0</ele>
        <time>2019-07-05T14:14:25Z</time>
      </trkpt>
      <trkpt lat="41.384281666666666" lon="-8.70356">
        <ele>101.0</ele>
        <time>2019-07-05T14:14:26Z</time>
      </trkpt>
      <trkpt lat="41.38421" lon="-8.703535">
        <ele>101.0</ele>
        <time>2019-07-05T14:14:27Z</time>
      </trkpt>
      <trkpt lat="41.384135" lon="-8.703505">
        <ele>101.0</ele>
        <time>2019-07-05T14:14:28Z</time>
      </trkpt>
      <trkpt lat="41.38406" lon="-8.703495">
        <ele>101.0</ele>
        <time>2019-07-05T14:14:29Z</time>
      </trkpt>
      <trkpt lat="41.383985" lon="-8.70348">
        <ele>101.0</ele>
        <time>2019-07-05T14:14:30Z</time>
      </trkpt>
      <trkpt lat="41.383915" lon="-8.70347">
        <ele>101.0</ele>
        <time>2019-07-05T14:14:31Z</time>
      </trkpt>
      <trkpt lat="41.383775" lon="-8.703446666666666">
        <ele>102.0</ele>
        <time>2019-07-05T14:14:33Z</time>
      </trkpt>
      <trkpt lat="41.38365" lon="-8.703431666666667">
        <ele>102.0</ele>
        <time>2019-07-05T14:14:35Z</time>
      </trkpt>
      <trkpt lat="41.383541666666666" lon="-8.703418333333333">
        <ele>102.0</ele>
        <time>2019-07-05T14:14:37Z</time>
      </trkpt>
      <trkpt lat="41.38346" lon="-8.703405">
        <ele>102.0</ele>
        <time>2019-07-05T14:14:39Z</time>
      </trkpt>
      <trkpt lat="41.38336" lon="-8.703405">
        <ele>103.0</ele>
        <time>2019-07-05T14:14:41Z</time>
      </trkpt>
      <trkpt lat="41.38326" lon="-8.703405">
        <ele>103.0</ele>
        <time>2019-07-05T14:14:43Z</time>
      </trkpt>
      <trkpt lat="41.38316" lon="-8.7034">
        <ele>103.0</ele>
        <time>2019-07-05T14:14:45Z</time>
      </trkpt>
      <trkpt lat="41.38305166666667" lon="-8.70339">
        <ele>104.0</ele>
        <time>2019-07-05T14:14:47Z</time>
      </trkpt>
      <trkpt lat="41.38295333333333" lon="-8.70338">
        <ele>104.0</ele>
        <time>2019-07-05T14:14:49Z</time>
      </trkpt>
      <trkpt lat="41.382855" lon="-8.703395">
        <ele>104.0</ele>
        <time>2019-07-05T14:14:51Z</time>
      </trkpt>
      <trkpt lat="41.382755" lon="-8.703391666666667">
        <ele>104.0</ele>
        <time>2019-07-05T14:14:53Z</time>
      </trkpt>
      <trkpt lat="41.382655" lon="-8.703425">
        <ele>103.0</ele>
        <time>2019-07-05T14:14:55Z</time>
      </trkpt>
      <trkpt lat="41.382554999999996" lon="-8.70345">
        <ele>103.0</ele>
        <time>2019-07-05T14:14:57Z</time>
      </trkpt>
      <trkpt lat="41.382455" lon="-8.703465">
        <ele>103.0</ele>
        <time>2019-07-05T14:14:59Z</time>
      </trkpt>
      <trkpt lat="41.38234833333333" lon="-8.703476666666667">
        <ele>103.0</ele>
        <time>2019-07-05T14:15:01Z</time>
      </trkpt>
      <trkpt lat="41.382245" lon="-8.703476666666667">
        <ele>103.0</ele>
        <time>2019-07-05T14:15:03Z</time>
      </trkpt>
      <trkpt lat="41.38214" lon="-8.703465">
        <ele>103.0</ele>
        <time>2019-07-05T14:15:05Z</time>
      </trkpt>
      <trkpt lat="41.382038333333334" lon="-8.70345">
        <ele>104.0</ele>
        <time>2019-07-05T14:15:07Z</time>
      </trkpt>
      <trkpt lat="41.381935" lon="-8.703425">
        <ele>105.0</ele>
        <time>2019-07-05T14:15:09Z</time>
      </trkpt>
      <trkpt lat="41.38183" lon="-8.7034">
        <ele>105.0</ele>
        <time>2019-07-05T14:15:11Z</time>
      </trkpt>
      <trkpt lat="41.381725" lon="-8.703365">
        <ele>105.0</ele>
        <time>2019-07-05T14:15:13Z</time>
      </trkpt>
      <trkpt lat="41.38162" lon="-8.703335">
        <ele>105.0</ele>
        <time>2019-07-05T14:15:15Z</time>
      </trkpt>
      <trkpt lat="41.381515" lon="-8.7033">
        <ele>105.0</ele>
        <time>2019-07-05T14:15:17Z</time>
      </trkpt>
      <trkpt lat="41.3814" lon="-8.703248333333333">
        <ele>105.0</ele>
        <time>2019-07-05T14:15:19Z</time>
      </trkpt>
      <trkpt lat="41.381278333333334" lon="-8.703201666666667">
        <ele>104.0</ele>
        <time>2019-07-05T14:15:21Z</time>
      </trkpt>
      <trkpt lat="41.381165" lon="-8.703145">
        <ele>104.0</ele>
        <time>2019-07-05T14:15:23Z</time>
      </trkpt>
      <trkpt lat="41.38104" lon="-8.70308">
        <ele>103.0</ele>
        <time>2019-07-05T14:15:25Z</time>
      </trkpt>
      <trkpt lat="41.380925" lon="-8.703025">
        <ele>102.0</ele>
        <time>2019-07-05T14:15:27Z</time>
      </trkpt>
      <trkpt lat="41.3808" lon="-8.70296">
        <ele>101.0</ele>
        <time>2019-07-05T14:15:29Z</time>
      </trkpt>
      <trkpt lat="41.380676666666666" lon="-8.702935">
        <ele>101.0</ele>
        <time>2019-07-05T14:15:31Z</time>
      </trkpt>
      <trkpt lat="41.38056" lon="-8.70293">
        <ele>101.0</ele>
        <time>2019-07-05T14:15:33Z</time>
      </trkpt>
      <trkpt lat="41.38044166666667" lon="-8.702945">
        <ele>101.0</ele>
        <time>2019-07-05T14:15:35Z</time>
      </trkpt>
      <trkpt lat="41.380325" lon="-8.702946666666667">
        <ele>101.0</ele>
        <time>2019-07-05T14:15:37Z</time>
      </trkpt>
      <trkpt lat="41.380205" lon="-8.702955">
        <ele>101.0</ele>
        <time>2019-07-05T14:15:39Z</time>
      </trkpt>
      <trkpt lat="41.380086666666664" lon="-8.70299">
        <ele>101.0</ele>
        <time>2019-07-05T14:15:41Z</time>
      </trkpt>
      <trkpt lat="41.37997" lon="-8.70304">
        <ele>101.0</ele>
        <time>2019-07-05T14:15:43Z</time>
      </trkpt>
      <trkpt lat="41.379845" lon="-8.70304">
        <ele>100.0</ele>
        <time>2019-07-05T14:15:45Z</time>
      </trkpt>
      <trkpt lat="41.379715" lon="-8.70304">
        <ele>101.0</ele>
        <time>2019-07-05T14:15:47Z</time>
      </trkpt>
      <trkpt lat="41.37958" lon="-8.703035">
        <ele>101.0</ele>
        <time>2019-07-05T14:15:49Z</time>
      </trkpt>
      <trkpt lat="41.379448333333336" lon="-8.703045">
        <ele>101.0</ele>
        <time>2019-07-05T14:15:51Z</time>
      </trkpt>
      <trkpt lat="41.37932" lon="-8.703051666666667">
        <ele>101.0</ele>
        <time>2019-07-05T14:15:53Z</time>
      </trkpt>
      <trkpt lat="41.379195" lon="-8.703058333333333">
        <ele>101.0</ele>
        <time>2019-07-05T14:15:55Z</time>
      </trkpt>
      <trkpt lat="41.379065" lon="-8.703056666666667">
        <ele>101.0</ele>
        <time>2019-07-05T14:15:57Z</time>
      </trkpt>
      <trkpt lat="41.37894" lon="-8.70308">
        <ele>101.0</ele>
        <time>2019-07-05T14:15:59Z</time>
      </trkpt>
      <trkpt lat="41.37881" lon="-8.703085">
        <ele>100.0</ele>
        <time>2019-07-05T14:16:01Z</time>
      </trkpt>
      <trkpt lat="41.37868666666667" lon="-8.703095">
        <ele>100.0</ele>
        <time>2019-07-05T14:16:03Z</time>
      </trkpt>
      <trkpt lat="41.37856" lon="-8.70311">
        <ele>100.0</ele>
        <time>2019-07-05T14:16:05Z</time>
      </trkpt>
      <trkpt lat="41.37844" lon="-8.70311">
        <ele>100.0</ele>
        <time>2019-07-05T14:16:07Z</time>
      </trkpt>
      <trkpt lat="41.37831166666667" lon="-8.703105">
        <ele>100.0</ele>
        <time>2019-07-05T14:16:09Z</time>
      </trkpt>
      <trkpt lat="41.378190000000004" lon="-8.703115">
        <ele>99.0</ele>
        <time>2019-07-05T14:16:11Z</time>
      </trkpt>
      <trkpt lat="41.378065" lon="-8.70312">
        <ele>99.0</ele>
        <time>2019-07-05T14:16:13Z</time>
      </trkpt>
      <trkpt lat="41.37793" lon="-8.70311">
        <ele>98.0</ele>
        <time>2019-07-05T14:16:15Z</time>
      </trkpt>
      <trkpt lat="41.377856666666666" lon="-8.703115">
        <ele>98.0</ele>
        <time>2019-07-05T14:16:16Z</time>
      </trkpt>
      <trkpt lat="41.377785" lon="-8.70312">
        <ele>97.0</ele>
        <time>2019-07-05T14:16:17Z</time>
      </trkpt>
      <trkpt lat="41.37771" lon="-8.703126666666666">
        <ele>96.0</ele>
        <time>2019-07-05T14:16:18Z</time>
      </trkpt>
      <trkpt lat="41.37763" lon="-8.703125">
        <ele>96.0</ele>
        <time>2019-07-05T14:16:19Z</time>
      </trkpt>
      <trkpt lat="41.37755" lon="-8.70312">
        <ele>95.0</ele>
        <time>2019-07-05T14:16:20Z</time>
      </trkpt>
      <trkpt lat="41.37747" lon="-8.703111666666667">
        <ele>94.0</ele>
        <time>2019-07-05T14:16:21Z</time>
      </trkpt>
      <trkpt lat="41.377385" lon="-8.70311">
        <ele>93.0</ele>
        <time>2019-07-05T14:16:22Z</time>
      </trkpt>
      <trkpt lat="41.3773" lon="-8.70311">
        <ele>92.0</ele>
        <time>2019-07-05T14:16:23Z</time>
      </trkpt>
      <trkpt lat="41.37721" lon="-8.703098333333333">
        <ele>92.0</ele>
        <time>2019-07-05T14:16:24Z</time>
      </trkpt>
      <trkpt lat="41.377125" lon="-8.703085">
        <ele>91.0</ele>
        <time>2019-07-05T14:16:25Z</time>
      </trkpt>
      <trkpt lat="41.37704166666666" lon="-8.703061666666667">
        <ele>91.0</ele>
        <time>2019-07-05T14:16:26Z</time>
      </trkpt>
      <trkpt lat="41.37695333333333" lon="-8.703041666666667">
        <ele>90.0</ele>
        <time>2019-07-05T14:16:27Z</time>
      </trkpt>
      <trkpt lat="41.376865" lon="-8.703025">
        <ele>90.0</ele>
        <time>2019-07-05T14:16:28Z</time>
      </trkpt>
      <trkpt lat="41.376775" lon="-8.702995">
        <ele>90.0</ele>
        <time>2019-07-05T14:16:29Z</time>
      </trkpt>
      <trkpt lat="41.376691666666666" lon="-8.70297">
        <ele>90.0</ele>
        <time>2019-07-05T14:16:30Z</time>
      </trkpt>
      <trkpt lat="41.3766" lon="-8.70294">
        <ele>90.0</ele>
        <time>2019-07-05T14:16:31Z</time>
      </trkpt>
      <trkpt lat="41.376515" lon="-8.702906666666667">
        <ele>90.0</ele>
        <time>2019-07-05T14:16:32Z</time>
      </trkpt>
      <trkpt lat="41.37643" lon="-8.702885">
        <ele>89.0</ele>
        <time>2019-07-05T14:16:33Z</time>
      </trkpt>
      <trkpt lat="41.37634166666667" lon="-8.702856666666667">
        <ele>89.0</ele>
        <time>2019-07-05T14:16:34Z</time>
      </trkpt>
      <trkpt lat="41.376255" lon="-8.70283">
        <ele>88.0</ele>
        <time>2019-07-05T14:16:35Z</time>
      </trkpt>
      <trkpt lat="41.37617" lon="-8.7028">
        <ele>88.0</ele>
        <time>2019-07-05T14:16:36Z</time>
      </trkpt>
      <trkpt lat="41.376085" lon="-8.70276">
        <ele>88.0</ele>
        <time>2019-07-05T14:16:37Z</time>
      </trkpt>
      <trkpt lat="41.376" lon="-8.702715">
        <ele>87.0</ele>
        <time>2019-07-05T14:16:38Z</time>
      </trkpt>
      <trkpt lat="41.375915" lon="-8.702675">
        <ele>86.0</ele>
        <time>2019-07-05T14:16:39Z</time>
      </trkpt>
      <trkpt lat="41.37584" lon="-8.702645">
        <ele>85.0</ele>
        <time>2019-07-05T14:16:40Z</time>
      </trkpt>
      <trkpt lat="41.375766666666664" lon="-8.702615">
        <ele>84.0</ele>
        <time>2019-07-05T14:16:41Z</time>
      </trkpt>
      <trkpt lat="41.375695" lon="-8.702595">
        <ele>83.0</ele>
        <time>2019-07-05T14:16:42Z</time>
      </trkpt>
      <trkpt lat="41.375571666666666" lon="-8.702515">
        <ele>82.0</ele>
        <time>2019-07-05T14:16:44Z</time>
      </trkpt>
      <trkpt lat="41.37547166666667" lon="-8.702433333333333">
        <ele>80.0</ele>
        <time>2019-07-05T14:16:46Z</time>
      </trkpt>
      <trkpt lat="41.375375" lon="-8.702415">
        <ele>80.0</ele>
        <time>2019-07-05T14:16:48Z</time>
      </trkpt>
      <trkpt lat="41.375281666666666" lon="-8.7025">
        <ele>78.0</ele>
        <time>2019-07-05T14:16:50Z</time>
      </trkpt>
      <trkpt lat="41.375195" lon="-8.70264">
        <ele>76.0</ele>
        <time>2019-07-05T14:16:52Z</time>
      </trkpt>
      <trkpt lat="41.375075" lon="-8.70274">
        <ele>76.0</ele>
        <time>2019-07-05T14:16:54Z</time>
      </trkpt>
      <trkpt lat="41.37501" lon="-8.702776666666667">
        <ele>75.0</ele>
        <time>2019-07-05T14:16:55Z</time>
      </trkpt>
      <trkpt lat="41.37494" lon="-8.702801666666666">
        <ele>74.0</ele>
        <time>2019-07-05T14:16:56Z</time>
      </trkpt>
      <trkpt lat="41.374795" lon="-8.702835">
        <ele>72.0</ele>
        <time>2019-07-05T14:16:58Z</time>
      </trkpt>
      <trkpt lat="41.374715" lon="-8.70285">
        <ele>71.0</ele>
        <time>2019-07-05T14:16:59Z</time>
      </trkpt>
      <trkpt lat="41.374635" lon="-8.702865">
        <ele>71.0</ele>
        <time>2019-07-05T14:17:00Z</time>
      </trkpt>
      <trkpt lat="41.37455666666666" lon="-8.702865">
        <ele>70.0</ele>
        <time>2019-07-05T14:17:01Z</time>
      </trkpt>
      <trkpt lat="41.374485" lon="-8.70284">
        <ele>69.0</ele>
        <time>2019-07-05T14:17:02Z</time>
      </trkpt>
      <trkpt lat="41.374415" lon="-8.702801666666666">
        <ele>68.0</ele>
        <time>2019-07-05T14:17:03Z</time>
      </trkpt>
      <trkpt lat="41.374345" lon="-8.702765">
        <ele>68.0</ele>
        <time>2019-07-05T14:17:04Z</time>
      </trkpt>
      <trkpt lat="41.374271666666665" lon="-8.702725">
        <ele>68.0</ele>
        <time>2019-07-05T14:17:05Z</time>
      </trkpt>
      <trkpt lat="41.374205" lon="-8.702683333333333">
        <ele>67.0</ele>
        <time>2019-07-05T14:17:06Z</time>
      </trkpt>
      <trkpt lat="41.37407666666667" lon="-8.702635">
        <ele>67.0</ele>
        <time>2019-07-05T14:17:08Z</time>
      </trkpt>
      <trkpt lat="41.37397166666667" lon="-8.70263">
        <ele>67.0</ele>
        <time>2019-07-05T14:17:10Z</time>
      </trkpt>
      <trkpt lat="41.3739" lon="-8.702635">
        <ele>66.0</ele>
        <time>2019-07-05T14:17:12Z</time>
      </trkpt>
      <trkpt lat="41.373815" lon="-8.702641666666667">
        <ele>65.0</ele>
        <time>2019-07-05T14:17:16Z</time>
      </trkpt>
      <trkpt lat="41.373745" lon="-8.702621666666667">
        <ele>66.0</ele>
        <time>2019-07-05T14:17:18Z</time>
      </trkpt>
      <trkpt lat="41.373665" lon="-8.70259">
        <ele>66.0</ele>
        <time>2019-07-05T14:17:20Z</time>
      </trkpt>
      <trkpt lat="41.373565" lon="-8.702571666666667">
        <ele>65.0</ele>
        <time>2019-07-05T14:17:22Z</time>
      </trkpt>
      <trkpt lat="41.373465" lon="-8.702545">
        <ele>65.0</ele>
        <time>2019-07-05T14:17:24Z</time>
      </trkpt>
      <trkpt lat="41.373365" lon="-8.702525">
        <ele>65.0</ele>
        <time>2019-07-05T14:17:26Z</time>
      </trkpt>
      <trkpt lat="41.37325833333333" lon="-8.702506666666666">
        <ele>65.0</ele>
        <time>2019-07-05T14:17:28Z</time>
      </trkpt>
      <trkpt lat="41.37315" lon="-8.702485">
        <ele>65.0</ele>
        <time>2019-07-05T14:17:30Z</time>
      </trkpt>
      <trkpt lat="41.373041666666666" lon="-8.70247">
        <ele>65.0</ele>
        <time>2019-07-05T14:17:32Z</time>
      </trkpt>
      <trkpt lat="41.372933333333336" lon="-8.70246">
        <ele>65.0</ele>
        <time>2019-07-05T14:17:34Z</time>
      </trkpt>
      <trkpt lat="41.37283" lon="-8.702445">
        <ele>64.0</ele>
        <time>2019-07-05T14:17:36Z</time>
      </trkpt>
      <trkpt lat="41.37272" lon="-8.702425">
        <ele>64.0</ele>
        <time>2019-07-05T14:17:38Z</time>
      </trkpt>
      <trkpt lat="41.37262" lon="-8.70237">
        <ele>64.0</ele>
        <time>2019-07-05T14:17:40Z</time>
      </trkpt>
      <trkpt lat="41.37252" lon="-8.702336666666667">
        <ele>65.0</ele>
        <time>2019-07-05T14:17:42Z</time>
      </trkpt>
      <trkpt lat="41.372411666666665" lon="-8.702285">
        <ele>66.0</ele>
        <time>2019-07-05T14:17:44Z</time>
      </trkpt>
      <trkpt lat="41.37231666666667" lon="-8.70223">
        <ele>66.0</ele>
        <time>2019-07-05T14:17:46Z</time>
      </trkpt>
      <trkpt lat="41.37223" lon="-8.702195">
        <ele>67.0</ele>
        <time>2019-07-05T14:17:48Z</time>
      </trkpt>
      <trkpt lat="41.372146666666666" lon="-8.702175">
        <ele>68.0</ele>
        <time>2019-07-05T14:17:50Z</time>
      </trkpt>
      <trkpt lat="41.372065" lon="-8.70214">
        <ele>69.0</ele>
        <time>2019-07-05T14:17:52Z</time>
      </trkpt>
      <trkpt lat="41.37199" lon="-8.7021">
        <ele>69.0</ele>
        <time>2019-07-05T14:17:54Z</time>
      </trkpt>
      <trkpt lat="41.37189166666667" lon="-8.702055">
        <ele>70.0</ele>
        <time>2019-07-05T14:17:57Z</time>
      </trkpt>
      <trkpt lat="41.3718" lon="-8.702006666666666">
        <ele>70.0</ele>
        <time>2019-07-05T14:18:00Z</time>
      </trkpt>
      <trkpt lat="41.37170666666667" lon="-8.701971666666667">
        <ele>70.0</ele>
        <time>2019-07-05T14:18:03Z</time>
      </trkpt>
      <trkpt lat="41.37164" lon="-8.70193">
        <ele>70.0</ele>
        <time>2019-07-05T14:18:05Z</time>
      </trkpt>
      <trkpt lat="41.371545" lon="-8.701885">
        <ele>72.0</ele>
        <time>2019-07-05T14:18:08Z</time>
      </trkpt>
      <trkpt lat="41.371455" lon="-8.701836666666667">
        <ele>74.0</ele>
        <time>2019-07-05T14:18:11Z</time>
      </trkpt>
      <trkpt lat="41.3714" lon="-8.701733333333333">
        <ele>74.0</ele>
        <time>2019-07-05T14:18:14Z</time>
      </trkpt>
      <trkpt lat="41.3714" lon="-8.70162">
        <ele>75.0</ele>
        <time>2019-07-05T14:18:17Z</time>
      </trkpt>
      <trkpt lat="41.3714" lon="-8.701495">
        <ele>75.0</ele>
        <time>2019-07-05T14:18:20Z</time>
      </trkpt>
      <trkpt lat="41.37141" lon="-8.701371666666667">
        <ele>76.0</ele>
        <time>2019-07-05T14:18:23Z</time>
      </trkpt>
      <trkpt lat="41.37142166666667" lon="-8.701256666666668">
        <ele>76.0</ele>
        <time>2019-07-05T14:18:26Z</time>
      </trkpt>
      <trkpt lat="41.371435" lon="-8.701125">
        <ele>77.0</ele>
        <time>2019-07-05T14:18:29Z</time>
      </trkpt>
      <trkpt lat="41.371446666666664" lon="-8.701006666666666">
        <ele>78.0</ele>
        <time>2019-07-05T14:18:32Z</time>
      </trkpt>
      <trkpt lat="41.371455" lon="-8.700885">
        <ele>79.0</ele>
        <time>2019-07-05T14:18:35Z</time>
      </trkpt>
      <trkpt lat="41.371465" lon="-8.700755">
        <ele>81.0</ele>
        <time>2019-07-05T14:18:38Z</time>
      </trkpt>
      <trkpt lat="41.371465" lon="-8.700626666666667">
        <ele>81.0</ele>
        <time>2019-07-05T14:18:41Z</time>
      </trkpt>
      <trkpt lat="41.37146" lon="-8.7005">
        <ele>82.0</ele>
        <time>2019-07-05T14:18:44Z</time>
      </trkpt>
      <trkpt lat="41.371455" lon="-8.700385">
        <ele>83.0</ele>
        <time>2019-07-05T14:18:47Z</time>
      </trkpt>
      <trkpt lat="41.371445" lon="-8.700265">
        <ele>83.0</ele>
        <time>2019-07-05T14:18:50Z</time>
      </trkpt>
      <trkpt lat="41.371435" lon="-8.700143333333333">
        <ele>83.0</ele>
        <time>2019-07-05T14:18:53Z</time>
      </trkpt>
      <trkpt lat="41.371426666666665" lon="-8.70002">
        <ele>83.0</ele>
        <time>2019-07-05T14:18:56Z</time>
      </trkpt>
      <trkpt lat="41.37142166666667" lon="-8.699886666666666">
        <ele>84.0</ele>
        <time>2019-07-05T14:18:59Z</time>
      </trkpt>
      <trkpt lat="41.37141" lon="-8.699755">
        <ele>84.0</ele>
        <time>2019-07-05T14:19:02Z</time>
      </trkpt>
      <trkpt lat="41.37141" lon="-8.69962">
        <ele>85.0</ele>
        <time>2019-07-05T14:19:05Z</time>
      </trkpt>
      <trkpt lat="41.37139666666667" lon="-8.699485">
        <ele>85.0</ele>
        <time>2019-07-05T14:19:08Z</time>
      </trkpt>
      <trkpt lat="41.371395" lon="-8.699355">
        <ele>86.0</ele>
        <time>2019-07-05T14:19:11Z</time>
      </trkpt>
      <trkpt lat="41.371385" lon="-8.69922">
        <ele>87.0</ele>
        <time>2019-07-05T14:19:14Z</time>
      </trkpt>
      <trkpt lat="41.371385" lon="-8.69909">
        <ele>88.0</ele>
        <time>2019-07-05T14:19:17Z</time>
      </trkpt>
      <trkpt lat="41.37138" lon="-8.69895">
        <ele>88.0</ele>
        <time>2019-07-05T14:19:20Z</time>
      </trkpt>
      <trkpt lat="41.371355" lon="-8.698815">
        <ele>88.0</ele>
        <time>2019-07-05T14:19:23Z</time>
      </trkpt>
      <trkpt lat="41.371340000000004" lon="-8.69868">
        <ele>89.0</ele>
        <time>2019-07-05T14:19:26Z</time>
      </trkpt>
      <trkpt lat="41.37132" lon="-8.698585">
        <ele>90.0</ele>
        <time>2019-07-05T14:19:28Z</time>
      </trkpt>
      <trkpt lat="41.3713" lon="-8.698491666666667">
        <ele>90.0</ele>
        <time>2019-07-05T14:19:30Z</time>
      </trkpt>
      <trkpt lat="41.371285" lon="-8.698391666666666">
        <ele>91.0</ele>
        <time>2019-07-05T14:19:32Z</time>
      </trkpt>
      <trkpt lat="41.37127" lon="-8.69829">
        <ele>91.0</ele>
        <time>2019-07-05T14:19:34Z</time>
      </trkpt>
      <trkpt lat="41.37125666666667" lon="-8.698185">
        <ele>92.0</ele>
        <time>2019-07-05T14:19:36Z</time>
      </trkpt>
      <trkpt lat="41.37124166666667" lon="-8.698071666666667">
        <ele>92.0</ele>
        <time>2019-07-05T14:19:38Z</time>
      </trkpt>
      <trkpt lat="41.371225" lon="-8.697955">
        <ele>92.0</ele>
        <time>2019-07-05T14:19:40Z</time>
      </trkpt>
      <trkpt lat="41.371201666666664" lon="-8.697835">
        <ele>92.0</ele>
        <time>2019-07-05T14:19:42Z</time>
      </trkpt>
      <trkpt lat="41.371175" lon="-8.69771">
        <ele>92.0</ele>
        <time>2019-07-05T14:19:44Z</time>
      </trkpt>
      <trkpt lat="41.371156666666664" lon="-8.69757">
        <ele>91.0</ele>
        <time>2019-07-05T14:19:46Z</time>
      </trkpt>
      <trkpt lat="41.371135" lon="-8.697435">
        <ele>91.0</ele>
        <time>2019-07-05T14:19:48Z</time>
      </trkpt>
      <trkpt lat="41.371118333333335" lon="-8.697295">
        <ele>91.0</ele>
        <time>2019-07-05T14:19:50Z</time>
      </trkpt>
      <trkpt lat="41.371111666666664" lon="-8.697155">
        <ele>91.0</ele>
        <time>2019-07-05T14:19:52Z</time>
      </trkpt>
      <trkpt lat="41.37111" lon="-8.697015">
        <ele>91.0</ele>
        <time>2019-07-05T14:19:54Z</time>
      </trkpt>
      <trkpt lat="41.37111" lon="-8.69688">
        <ele>91.0</ele>
        <time>2019-07-05T14:19:56Z</time>
      </trkpt>
      <trkpt lat="41.371105" lon="-8.69674">
        <ele>90.0</ele>
        <time>2019-07-05T14:19:58Z</time>
      </trkpt>
      <trkpt lat="41.37111" lon="-8.6966">
        <ele>90.0</ele>
        <time>2019-07-05T14:20:00Z</time>
      </trkpt>
      <trkpt lat="41.371115" lon="-8.69647">
        <ele>90.0</ele>
        <time>2019-07-05T14:20:02Z</time>
      </trkpt>
      <trkpt lat="41.371116666666666" lon="-8.696331666666667">
        <ele>90.0</ele>
        <time>2019-07-05T14:20:04Z</time>
      </trkpt>
      <trkpt lat="41.37113" lon="-8.6962">
        <ele>90.0</ele>
        <time>2019-07-05T14:20:06Z</time>
      </trkpt>
      <trkpt lat="41.371136666666665" lon="-8.696071666666667">
        <ele>91.0</ele>
        <time>2019-07-05T14:20:08Z</time>
      </trkpt>
      <trkpt lat="41.371145" lon="-8.695946666666666">
        <ele>91.0</ele>
        <time>2019-07-05T14:20:10Z</time>
      </trkpt>
      <trkpt lat="41.371155" lon="-8.69584">
        <ele>92.0</ele>
        <time>2019-07-05T14:20:12Z</time>
      </trkpt>
      <trkpt lat="41.371165" lon="-8.695725">
        <ele>92.0</ele>
        <time>2019-07-05T14:20:14Z</time>
      </trkpt>
      <trkpt lat="41.37117" lon="-8.695605">
        <ele>92.0</ele>
        <time>2019-07-05T14:20:16Z</time>
      </trkpt>
      <trkpt lat="41.371185" lon="-8.69549">
        <ele>93.0</ele>
        <time>2019-07-05T14:20:18Z</time>
      </trkpt>
      <trkpt lat="41.37119166666667" lon="-8.69537">
        <ele>93.0</ele>
        <time>2019-07-05T14:20:20Z</time>
      </trkpt>
      <trkpt lat="41.371185" lon="-8.69526">
        <ele>93.0</ele>
        <time>2019-07-05T14:20:22Z</time>
      </trkpt>
      <trkpt lat="41.371165" lon="-8.695158333333334">
        <ele>93.0</ele>
        <time>2019-07-05T14:20:24Z</time>
      </trkpt>
      <trkpt lat="41.37114" lon="-8.69507">
        <ele>94.0</ele>
        <time>2019-07-05T14:20:26Z</time>
      </trkpt>
      <trkpt lat="41.3711" lon="-8.694955">
        <ele>94.0</ele>
        <time>2019-07-05T14:20:29Z</time>
      </trkpt>
      <trkpt lat="41.371051666666666" lon="-8.694851666666667">
        <ele>95.0</ele>
        <time>2019-07-05T14:20:32Z</time>
      </trkpt>
      <trkpt lat="41.371006666666666" lon="-8.69476">
        <ele>95.0</ele>
        <time>2019-07-05T14:20:35Z</time>
      </trkpt>
      <trkpt lat="41.37096" lon="-8.69466">
        <ele>96.0</ele>
        <time>2019-07-05T14:20:38Z</time>
      </trkpt>
      <trkpt lat="41.370905" lon="-8.694553333333333">
        <ele>98.0</ele>
        <time>2019-07-05T14:20:41Z</time>
      </trkpt>
      <trkpt lat="41.37085166666667" lon="-8.694455">
        <ele>98.0</ele>
        <time>2019-07-05T14:20:44Z</time>
      </trkpt>
      <trkpt lat="41.37079" lon="-8.69437">
        <ele>99.0</ele>
        <time>2019-07-05T14:20:47Z</time>
      </trkpt>
      <trkpt lat="41.370725" lon="-8.694295">
        <ele>99.0</ele>
        <time>2019-07-05T14:20:50Z</time>
      </trkpt>
      <trkpt lat="41.37066" lon="-8.69422">
        <ele>99.0</ele>
        <time>2019-07-05T14:20:53Z</time>
      </trkpt>
      <trkpt lat="41.370583333333336" lon="-8.694165">
        <ele>100.0</ele>
        <time>2019-07-05T14:20:56Z</time>
      </trkpt>
      <trkpt lat="41.37050166666667" lon="-8.694135">
        <ele>100.0</ele>
        <time>2019-07-05T14:20:59Z</time>
      </trkpt>
      <trkpt lat="41.370421666666665" lon="-8.69409">
        <ele>100.0</ele>
        <time>2019-07-05T14:21:02Z</time>
      </trkpt>
      <trkpt lat="41.37034" lon="-8.69407">
        <ele>100.0</ele>
        <time>2019-07-05T14:21:05Z</time>
      </trkpt>
      <trkpt lat="41.37026" lon="-8.694041666666667">
        <ele>100.0</ele>
        <time>2019-07-05T14:21:08Z</time>
      </trkpt>
      <trkpt lat="41.37018" lon="-8.694015">
        <ele>101.0</ele>
        <time>2019-07-05T14:21:11Z</time>
      </trkpt>
      <trkpt lat="41.37009666666667" lon="-8.69397">
        <ele>101.0</ele>
        <time>2019-07-05T14:21:14Z</time>
      </trkpt>
      <trkpt lat="41.370015" lon="-8.69394">
        <ele>102.0</ele>
        <time>2019-07-05T14:21:17Z</time>
      </trkpt>
      <trkpt lat="41.369935" lon="-8.693905">
        <ele>103.0</ele>
        <time>2019-07-05T14:21:20Z</time>
      </trkpt>
      <trkpt lat="41.36986" lon="-8.693845">
        <ele>103.0</ele>
        <time>2019-07-05T14:21:23Z</time>
      </trkpt>
      <trkpt lat="41.369785" lon="-8.693785">
        <ele>103.0</ele>
        <time>2019-07-05T14:21:26Z</time>
      </trkpt>
      <trkpt lat="41.36972" lon="-8.69371">
        <ele>104.0</ele>
        <time>2019-07-05T14:21:29Z</time>
      </trkpt>
      <trkpt lat="41.36965" lon="-8.693645">
        <ele>104.0</ele>
        <time>2019-07-05T14:21:32Z</time>
      </trkpt>
      <trkpt lat="41.36958" lon="-8.693565">
        <ele>105.0</ele>
        <time>2019-07-05T14:21:35Z</time>
      </trkpt>
      <trkpt lat="41.369521666666664" lon="-8.69347">
        <ele>106.0</ele>
        <time>2019-07-05T14:21:38Z</time>
      </trkpt>
      <trkpt lat="41.369455" lon="-8.693385">
        <ele>106.0</ele>
        <time>2019-07-05T14:21:41Z</time>
      </trkpt>
      <trkpt lat="41.369395" lon="-8.693295">
        <ele>106.0</ele>
        <time>2019-07-05T14:21:44Z</time>
      </trkpt>
      <trkpt lat="41.36934" lon="-8.69318">
        <ele>106.0</ele>
        <time>2019-07-05T14:21:47Z</time>
      </trkpt>
      <trkpt lat="41.36929666666666" lon="-8.69309">
        <ele>106.0</ele>
        <time>2019-07-05T14:21:49Z</time>
      </trkpt>
      <trkpt lat="41.369265" lon="-8.693005">
        <ele>106.0</ele>
        <time>2019-07-05T14:21:51Z</time>
      </trkpt>
      <trkpt lat="41.36921" lon="-8.692866666666667">
        <ele>106.0</ele>
        <time>2019-07-05T14:21:54Z</time>
      </trkpt>
      <trkpt lat="41.369175" lon="-8.69278">
        <ele>107.0</ele>
        <time>2019-07-05T14:21:56Z</time>
      </trkpt>
      <trkpt lat="41.36914" lon="-8.692685">
        <ele>107.0</ele>
        <time>2019-07-05T14:21:58Z</time>
      </trkpt>
      <trkpt lat="41.36911" lon="-8.692583333333333">
        <ele>107.0</ele>
        <time>2019-07-05T14:22:00Z</time>
      </trkpt>
      <trkpt lat="41.369078333333334" lon="-8.692475">
        <ele>107.0</ele>
        <time>2019-07-05T14:22:02Z</time>
      </trkpt>
      <trkpt lat="41.369056666666665" lon="-8.692356666666667">
        <ele>107.0</ele>
        <time>2019-07-05T14:22:04Z</time>
      </trkpt>
      <trkpt lat="41.36904" lon="-8.69222">
        <ele>106.0</ele>
        <time>2019-07-05T14:22:06Z</time>
      </trkpt>
      <trkpt lat="41.36903" lon="-8.69208">
        <ele>106.0</ele>
        <time>2019-07-05T14:22:08Z</time>
      </trkpt>
      <trkpt lat="41.369025" lon="-8.691926666666667">
        <ele>105.0</ele>
        <time>2019-07-05T14:22:10Z</time>
      </trkpt>
      <trkpt lat="41.36902" lon="-8.69177">
        <ele>104.0</ele>
        <time>2019-07-05T14:22:12Z</time>
      </trkpt>
      <trkpt lat="41.369006666666664" lon="-8.69162">
        <ele>105.0</ele>
        <time>2019-07-05T14:22:14Z</time>
      </trkpt>
      <trkpt lat="41.368985" lon="-8.691465">
        <ele>105.0</ele>
        <time>2019-07-05T14:22:16Z</time>
      </trkpt>
      <trkpt lat="41.368935" lon="-8.691313333333333">
        <ele>105.0</ele>
        <time>2019-07-05T14:22:18Z</time>
      </trkpt>
      <trkpt lat="41.368856666666666" lon="-8.691191666666667">
        <ele>105.0</ele>
        <time>2019-07-05T14:22:20Z</time>
      </trkpt>
      <trkpt lat="41.368765" lon="-8.69108">
        <ele>105.0</ele>
        <time>2019-07-05T14:22:22Z</time>
      </trkpt>
      <trkpt lat="41.36868" lon="-8.69096">
        <ele>105.0</ele>
        <time>2019-07-05T14:22:24Z</time>
      </trkpt>
      <trkpt lat="41.36859" lon="-8.690845">
        <ele>105.0</ele>
        <time>2019-07-05T14:22:26Z</time>
      </trkpt>
      <trkpt lat="41.368505" lon="-8.690731666666666">
        <ele>105.0</ele>
        <time>2019-07-05T14:22:28Z</time>
      </trkpt>
      <trkpt lat="41.368415" lon="-8.69062">
        <ele>106.0</ele>
        <time>2019-07-05T14:22:30Z</time>
      </trkpt>
      <trkpt lat="41.36832666666667" lon="-8.69051">
        <ele>107.0</ele>
        <time>2019-07-05T14:22:32Z</time>
      </trkpt>
      <trkpt lat="41.36825" lon="-8.690405">
        <ele>108.0</ele>
        <time>2019-07-05T14:22:34Z</time>
      </trkpt>
      <trkpt lat="41.3682" lon="-8.6903">
        <ele>108.0</ele>
        <time>2019-07-05T14:22:36Z</time>
      </trkpt>
      <trkpt lat="41.368156666666664" lon="-8.69019">
        <ele>108.0</ele>
        <time>2019-07-05T14:22:38Z</time>
      </trkpt>
      <trkpt lat="41.368125" lon="-8.690075">
        <ele>108.0</ele>
        <time>2019-07-05T14:22:40Z</time>
      </trkpt>
      <trkpt lat="41.368085" lon="-8.68996">
        <ele>108.0</ele>
        <time>2019-07-05T14:22:42Z</time>
      </trkpt>
      <trkpt lat="41.368035" lon="-8.689835">
        <ele>108.0</ele>
        <time>2019-07-05T14:22:44Z</time>
      </trkpt>
      <trkpt lat="41.36798666666667" lon="-8.68971">
        <ele>108.0</ele>
        <time>2019-07-05T14:22:46Z</time>
      </trkpt>
      <trkpt lat="41.36792" lon="-8.68958">
        <ele>108.0</ele>
        <time>2019-07-05T14:22:48Z</time>
      </trkpt>
      <trkpt lat="41.36786" lon="-8.689446666666667">
        <ele>107.0</ele>
        <time>2019-07-05T14:22:50Z</time>
      </trkpt>
      <trkpt lat="41.36779" lon="-8.689321666666666">
        <ele>108.0</ele>
        <time>2019-07-05T14:22:52Z</time>
      </trkpt>
      <trkpt lat="41.367713333333334" lon="-8.689185">
        <ele>107.0</ele>
        <time>2019-07-05T14:22:54Z</time>
      </trkpt>
      <trkpt lat="41.367635" lon="-8.68904">
        <ele>107.0</ele>
        <time>2019-07-05T14:22:56Z</time>
      </trkpt>
      <trkpt lat="41.36756166666667" lon="-8.688901666666666">
        <ele>107.0</ele>
        <time>2019-07-05T14:22:58Z</time>
      </trkpt>
      <trkpt lat="41.36748" lon="-8.688756666666666">
        <ele>107.0</ele>
        <time>2019-07-05T14:23:00Z</time>
      </trkpt>
      <trkpt lat="41.367401666666666" lon="-8.68862">
        <ele>107.0</ele>
        <time>2019-07-05T14:23:02Z</time>
      </trkpt>
      <trkpt lat="41.367355" lon="-8.688545">
        <ele>107.0</ele>
        <time>2019-07-05T14:23:03Z</time>
      </trkpt>
      <trkpt lat="41.367311666666666" lon="-8.688465">
        <ele>106.0</ele>
        <time>2019-07-05T14:23:04Z</time>
      </trkpt>
      <trkpt lat="41.367261666666664" lon="-8.688381666666666">
        <ele>106.0</ele>
        <time>2019-07-05T14:23:05Z</time>
      </trkpt>
      <trkpt lat="41.36721166666667" lon="-8.6883">
        <ele>106.0</ele>
        <time>2019-07-05T14:23:06Z</time>
      </trkpt>
      <trkpt lat="41.367165" lon="-8.688211666666668">
        <ele>105.0</ele>
        <time>2019-07-05T14:23:07Z</time>
      </trkpt>
      <trkpt lat="41.36711666666667" lon="-8.688126666666667">
        <ele>104.0</ele>
        <time>2019-07-05T14:23:08Z</time>
      </trkpt>
      <trkpt lat="41.36707" lon="-8.688035">
        <ele>103.0</ele>
        <time>2019-07-05T14:23:09Z</time>
      </trkpt>
      <trkpt lat="41.367021666666666" lon="-8.687941666666667">
        <ele>102.0</ele>
        <time>2019-07-05T14:23:10Z</time>
      </trkpt>
      <trkpt lat="41.366976666666666" lon="-8.687851666666667">
        <ele>101.0</ele>
        <time>2019-07-05T14:23:11Z</time>
      </trkpt>
      <trkpt lat="41.366925" lon="-8.68776">
        <ele>101.0</ele>
        <time>2019-07-05T14:23:12Z</time>
      </trkpt>
      <trkpt lat="41.36687833333333" lon="-8.68767">
        <ele>100.0</ele>
        <time>2019-07-05T14:23:13Z</time>
      </trkpt>
      <trkpt lat="41.366835" lon="-8.687576666666667">
        <ele>100.0</ele>
        <time>2019-07-05T14:23:14Z</time>
      </trkpt>
      <trkpt lat="41.366785" lon="-8.687481666666667">
        <ele>99.0</ele>
        <time>2019-07-05T14:23:15Z</time>
      </trkpt>
      <trkpt lat="41.366745" lon="-8.687385">
        <ele>98.0</ele>
        <time>2019-07-05T14:23:16Z</time>
      </trkpt>
      <trkpt lat="41.366705" lon="-8.687281666666667">
        <ele>98.0</ele>
        <time>2019-07-05T14:23:17Z</time>
      </trkpt>
      <trkpt lat="41.366675" lon="-8.687175">
        <ele>97.0</ele>
        <time>2019-07-05T14:23:18Z</time>
      </trkpt>
      <trkpt lat="41.36664666666667" lon="-8.687065">
        <ele>97.0</ele>
        <time>2019-07-05T14:23:19Z</time>
      </trkpt>
      <trkpt lat="41.366625" lon="-8.68695">
        <ele>96.0</ele>
        <time>2019-07-05T14:23:20Z</time>
      </trkpt>
      <trkpt lat="41.366615" lon="-8.68683">
        <ele>96.0</ele>
        <time>2019-07-05T14:23:21Z</time>
      </trkpt>
      <trkpt lat="41.36660666666667" lon="-8.686715">
        <ele>95.0</ele>
        <time>2019-07-05T14:23:22Z</time>
      </trkpt>
      <trkpt lat="41.36661" lon="-8.686591666666667">
        <ele>95.0</ele>
        <time>2019-07-05T14:23:23Z</time>
      </trkpt>
      <trkpt lat="41.366615" lon="-8.686475">
        <ele>94.0</ele>
        <time>2019-07-05T14:23:24Z</time>
      </trkpt>
      <trkpt lat="41.366615" lon="-8.686351666666667">
        <ele>94.0</ele>
        <time>2019-07-05T14:23:25Z</time>
      </trkpt>
      <trkpt lat="41.366615" lon="-8.686235">
        <ele>94.0</ele>
        <time>2019-07-05T14:23:26Z</time>
      </trkpt>
      <trkpt lat="41.366615" lon="-8.686115">
        <ele>93.0</ele>
        <time>2019-07-05T14:23:27Z</time>
      </trkpt>
      <trkpt lat="41.36662" lon="-8.685996666666666">
        <ele>93.0</ele>
        <time>2019-07-05T14:23:28Z</time>
      </trkpt>
      <trkpt lat="41.366616666666665" lon="-8.685885">
        <ele>93.0</ele>
        <time>2019-07-05T14:23:29Z</time>
      </trkpt>
      <trkpt lat="41.36661" lon="-8.68577">
        <ele>93.0</ele>
        <time>2019-07-05T14:23:30Z</time>
      </trkpt>
      <trkpt lat="41.366605" lon="-8.68566">
        <ele>93.0</ele>
        <time>2019-07-05T14:23:31Z</time>
      </trkpt>
      <trkpt lat="41.3666" lon="-8.685555">
        <ele>93.0</ele>
        <time>2019-07-05T14:23:32Z</time>
      </trkpt>
      <trkpt lat="41.3666" lon="-8.68545">
        <ele>93.0</ele>
        <time>2019-07-05T14:23:33Z</time>
      </trkpt>
      <trkpt lat="41.3666" lon="-8.685346666666666">
        <ele>93.0</ele>
        <time>2019-07-05T14:23:34Z</time>
      </trkpt>
      <trkpt lat="41.366571666666665" lon="-8.68516">
        <ele>94.0</ele>
        <time>2019-07-05T14:23:36Z</time>
      </trkpt>
      <trkpt lat="41.36653166666667" lon="-8.685005">
        <ele>95.0</ele>
        <time>2019-07-05T14:23:38Z</time>
      </trkpt>
      <trkpt lat="41.36648" lon="-8.68488">
        <ele>96.0</ele>
        <time>2019-07-05T14:23:40Z</time>
      </trkpt>
      <trkpt lat="41.366435" lon="-8.684775">
        <ele>96.0</ele>
        <time>2019-07-05T14:23:42Z</time>
      </trkpt>
      <trkpt lat="41.36639" lon="-8.684681666666666">
        <ele>96.0</ele>
        <time>2019-07-05T14:23:44Z</time>
      </trkpt>
      <trkpt lat="41.36633" lon="-8.684595">
        <ele>95.0</ele>
        <time>2019-07-05T14:23:46Z</time>
      </trkpt>
      <trkpt lat="41.366305" lon="-8.684501666666666">
        <ele>98.0</ele>
        <time>2019-07-05T14:23:48Z</time>
      </trkpt>
      <trkpt lat="41.366255" lon="-8.684416666666667">
        <ele>98.0</ele>
        <time>2019-07-05T14:23:50Z</time>
      </trkpt>
      <trkpt lat="41.36621" lon="-8.68434">
        <ele>100.0</ele>
        <time>2019-07-05T14:23:52Z</time>
      </trkpt>
      <trkpt lat="41.366155" lon="-8.684245">
        <ele>101.0</ele>
        <time>2019-07-05T14:23:54Z</time>
      </trkpt>
      <trkpt lat="41.366115" lon="-8.68414">
        <ele>101.0</ele>
        <time>2019-07-05T14:23:56Z</time>
      </trkpt>
      <trkpt lat="41.36607166666667" lon="-8.684031666666666">
        <ele>101.0</ele>
        <time>2019-07-05T14:23:58Z</time>
      </trkpt>
      <trkpt lat="41.366036666666666" lon="-8.683926666666666">
        <ele>101.0</ele>
        <time>2019-07-05T14:24:00Z</time>
      </trkpt>
      <trkpt lat="41.36601" lon="-8.683825">
        <ele>102.0</ele>
        <time>2019-07-05T14:24:02Z</time>
      </trkpt>
      <trkpt lat="41.365966666666665" lon="-8.683696666666666">
        <ele>102.0</ele>
        <time>2019-07-05T14:24:05Z</time>
      </trkpt>
      <trkpt lat="41.36589333333333" lon="-8.68366">
        <ele>103.0</ele>
        <time>2019-07-05T14:24:10Z</time>
      </trkpt>
      <trkpt lat="41.36582166666667" lon="-8.683735">
        <ele>103.0</ele>
        <time>2019-07-05T14:24:13Z</time>
      </trkpt>
      <trkpt lat="41.36575" lon="-8.68375">
        <ele>104.0</ele>
        <time>2019-07-05T14:24:15Z</time>
      </trkpt>
      <trkpt lat="41.365656666666666" lon="-8.6837">
        <ele>105.0</ele>
        <time>2019-07-05T14:24:18Z</time>
      </trkpt>
      <trkpt lat="41.365565" lon="-8.683646666666666">
        <ele>106.0</ele>
        <time>2019-07-05T14:24:21Z</time>
      </trkpt>
      <trkpt lat="41.365495" lon="-8.683575">
        <ele>107.0</ele>
        <time>2019-07-05T14:24:24Z</time>
      </trkpt>
      <trkpt lat="41.36541" lon="-8.68351">
        <ele>107.0</ele>
        <time>2019-07-05T14:24:27Z</time>
      </trkpt>
      <trkpt lat="41.365325" lon="-8.683455">
        <ele>107.0</ele>
        <time>2019-07-05T14:24:30Z</time>
      </trkpt>
      <trkpt lat="41.365245" lon="-8.683395">
        <ele>107.0</ele>
        <time>2019-07-05T14:24:33Z</time>
      </trkpt>
      <trkpt lat="41.365156666666664" lon="-8.683325">
        <ele>108.0</ele>
        <time>2019-07-05T14:24:36Z</time>
      </trkpt>
      <trkpt lat="41.36508" lon="-8.683246666666667">
        <ele>109.0</ele>
        <time>2019-07-05T14:24:39Z</time>
      </trkpt>
      <trkpt lat="41.364995" lon="-8.68318">
        <ele>109.0</ele>
        <time>2019-07-05T14:24:42Z</time>
      </trkpt>
      <trkpt lat="41.36490833333333" lon="-8.683121666666667">
        <ele>108.0</ele>
        <time>2019-07-05T14:24:45Z</time>
      </trkpt>
      <trkpt lat="41.364828333333335" lon="-8.68305">
        <ele>109.0</ele>
        <time>2019-07-05T14:24:48Z</time>
      </trkpt>
      <trkpt lat="41.364745" lon="-8.682986666666666">
        <ele>109.0</ele>
        <time>2019-07-05T14:24:51Z</time>
      </trkpt>
      <trkpt lat="41.36466" lon="-8.682915">
        <ele>109.0</ele>
        <time>2019-07-05T14:24:54Z</time>
      </trkpt>
      <trkpt lat="41.36457" lon="-8.68284">
        <ele>110.0</ele>
        <time>2019-07-05T14:24:57Z</time>
      </trkpt>
      <trkpt lat="41.364485" lon="-8.682765">
        <ele>110.0</ele>
        <time>2019-07-05T14:25:00Z</time>
      </trkpt>
      <trkpt lat="41.3644" lon="-8.682686666666667">
        <ele>111.0</ele>
        <time>2019-07-05T14:25:03Z</time>
      </trkpt>
      <trkpt lat="41.364325" lon="-8.682625">
        <ele>111.0</ele>
        <time>2019-07-05T14:25:06Z</time>
      </trkpt>
      <trkpt lat="41.364245" lon="-8.68256">
        <ele>112.0</ele>
        <time>2019-07-05T14:25:09Z</time>
      </trkpt>
      <trkpt lat="41.364165" lon="-8.682495">
        <ele>112.0</ele>
        <time>2019-07-05T14:25:12Z</time>
      </trkpt>
      <trkpt lat="41.36409" lon="-8.682436666666666">
        <ele>113.0</ele>
        <time>2019-07-05T14:25:15Z</time>
      </trkpt>
      <trkpt lat="41.36401166666667" lon="-8.68238">
        <ele>113.0</ele>
        <time>2019-07-05T14:25:18Z</time>
      </trkpt>
      <trkpt lat="41.363935" lon="-8.68233">
        <ele>113.0</ele>
        <time>2019-07-05T14:25:21Z</time>
      </trkpt>
      <trkpt lat="41.363855" lon="-8.68228">
        <ele>113.0</ele>
        <time>2019-07-05T14:25:24Z</time>
      </trkpt>
      <trkpt lat="41.363773333333334" lon="-8.68223">
        <ele>114.0</ele>
        <time>2019-07-05T14:25:27Z</time>
      </trkpt>
      <trkpt lat="41.3637" lon="-8.682185">
        <ele>116.0</ele>
        <time>2019-07-05T14:25:30Z</time>
      </trkpt>
      <trkpt lat="41.36363333333333" lon="-8.68213">
        <ele>116.0</ele>
        <time>2019-07-05T14:25:33Z</time>
      </trkpt>
      <trkpt lat="41.36358" lon="-8.682066666666667">
        <ele>118.0</ele>
        <time>2019-07-05T14:25:37Z</time>
      </trkpt>
      <trkpt lat="41.36355666666667" lon="-8.681965">
        <ele>118.0</ele>
        <time>2019-07-05T14:25:40Z</time>
      </trkpt>
      <trkpt lat="41.36354166666667" lon="-8.681855">
        <ele>118.0</ele>
        <time>2019-07-05T14:25:43Z</time>
      </trkpt>
      <trkpt lat="41.36353" lon="-8.68172">
        <ele>119.0</ele>
        <time>2019-07-05T14:25:46Z</time>
      </trkpt>
      <trkpt lat="41.36352" lon="-8.68162">
        <ele>118.0</ele>
        <time>2019-07-05T14:25:48Z</time>
      </trkpt>
      <trkpt lat="41.363515" lon="-8.681515">
        <ele>118.0</ele>
        <time>2019-07-05T14:25:50Z</time>
      </trkpt>
      <trkpt lat="41.36352" lon="-8.681406666666666">
        <ele>118.0</ele>
        <time>2019-07-05T14:25:52Z</time>
      </trkpt>
      <trkpt lat="41.363525" lon="-8.68129">
        <ele>118.0</ele>
        <time>2019-07-05T14:25:54Z</time>
      </trkpt>
      <trkpt lat="41.363535" lon="-8.68117">
        <ele>118.0</ele>
        <time>2019-07-05T14:25:56Z</time>
      </trkpt>
      <trkpt lat="41.36353666666667" lon="-8.681045">
        <ele>118.0</ele>
        <time>2019-07-05T14:25:58Z</time>
      </trkpt>
      <trkpt lat="41.36354" lon="-8.68092">
        <ele>117.0</ele>
        <time>2019-07-05T14:26:00Z</time>
      </trkpt>
      <trkpt lat="41.36354" lon="-8.680795">
        <ele>117.0</ele>
        <time>2019-07-05T14:26:02Z</time>
      </trkpt>
      <trkpt lat="41.363535" lon="-8.680668333333333">
        <ele>117.0</ele>
        <time>2019-07-05T14:26:04Z</time>
      </trkpt>
      <trkpt lat="41.36353" lon="-8.68055">
        <ele>117.0</ele>
        <time>2019-07-05T14:26:06Z</time>
      </trkpt>
      <trkpt lat="41.363535" lon="-8.680425">
        <ele>118.0</ele>
        <time>2019-07-05T14:26:08Z</time>
      </trkpt>
      <trkpt lat="41.36354" lon="-8.680305">
        <ele>118.0</ele>
        <time>2019-07-05T14:26:10Z</time>
      </trkpt>
      <trkpt lat="41.363548333333334" lon="-8.680185">
        <ele>118.0</ele>
        <time>2019-07-05T14:26:12Z</time>
      </trkpt>
      <trkpt lat="41.363565" lon="-8.680055">
        <ele>119.0</ele>
        <time>2019-07-05T14:26:14Z</time>
      </trkpt>
      <trkpt lat="41.36358166666667" lon="-8.679935">
        <ele>119.0</ele>
        <time>2019-07-05T14:26:16Z</time>
      </trkpt>
      <trkpt lat="41.36359" lon="-8.679825">
        <ele>119.0</ele>
        <time>2019-07-05T14:26:18Z</time>
      </trkpt>
      <trkpt lat="41.36357" lon="-8.679721666666667">
        <ele>119.0</ele>
        <time>2019-07-05T14:26:20Z</time>
      </trkpt>
      <trkpt lat="41.36351" lon="-8.679646666666667">
        <ele>120.0</ele>
        <time>2019-07-05T14:26:22Z</time>
      </trkpt>
      <trkpt lat="41.36344" lon="-8.679586666666667">
        <ele>120.0</ele>
        <time>2019-07-05T14:26:24Z</time>
      </trkpt>
      <trkpt lat="41.363365" lon="-8.67955">
        <ele>120.0</ele>
        <time>2019-07-05T14:26:26Z</time>
      </trkpt>
      <trkpt lat="41.363281666666666" lon="-8.67951">
        <ele>116.0</ele>
        <time>2019-07-05T14:26:28Z</time>
      </trkpt>
      <trkpt lat="41.36319666666667" lon="-8.67946">
        <ele>118.0</ele>
        <time>2019-07-05T14:26:30Z</time>
      </trkpt>
      <trkpt lat="41.363115" lon="-8.679405">
        <ele>119.0</ele>
        <time>2019-07-05T14:26:32Z</time>
      </trkpt>
      <trkpt lat="41.36302666666667" lon="-8.67937">
        <ele>119.0</ele>
        <time>2019-07-05T14:26:34Z</time>
      </trkpt>
      <trkpt lat="41.362935" lon="-8.67933">
        <ele>120.0</ele>
        <time>2019-07-05T14:26:36Z</time>
      </trkpt>
      <trkpt lat="41.362845" lon="-8.679295">
        <ele>119.0</ele>
        <time>2019-07-05T14:26:38Z</time>
      </trkpt>
      <trkpt lat="41.362746666666666" lon="-8.67928">
        <ele>119.0</ele>
        <time>2019-07-05T14:26:40Z</time>
      </trkpt>
      <trkpt lat="41.36265" lon="-8.679281666666666">
        <ele>120.0</ele>
        <time>2019-07-05T14:26:42Z</time>
      </trkpt>
      <trkpt lat="41.36255666666667" lon="-8.679275">
        <ele>120.0</ele>
        <time>2019-07-05T14:26:44Z</time>
      </trkpt>
      <trkpt lat="41.362465" lon="-8.679276666666667">
        <ele>120.0</ele>
        <time>2019-07-05T14:26:46Z</time>
      </trkpt>
      <trkpt lat="41.36237166666667" lon="-8.67927">
        <ele>120.0</ele>
        <time>2019-07-05T14:26:48Z</time>
      </trkpt>
      <trkpt lat="41.36228" lon="-8.679265">
        <ele>121.0</ele>
        <time>2019-07-05T14:26:50Z</time>
      </trkpt>
      <trkpt lat="41.362181666666665" lon="-8.67926">
        <ele>121.0</ele>
        <time>2019-07-05T14:26:52Z</time>
      </trkpt>
      <trkpt lat="41.362085" lon="-8.679255">
        <ele>120.0</ele>
        <time>2019-07-05T14:26:54Z</time>
      </trkpt>
      <trkpt lat="41.361985" lon="-8.67925">
        <ele>120.0</ele>
        <time>2019-07-05T14:26:56Z</time>
      </trkpt>
      <trkpt lat="41.361885" lon="-8.679245">
        <ele>120.0</ele>
        <time>2019-07-05T14:26:58Z</time>
      </trkpt>
      <trkpt lat="41.36178" lon="-8.679245">
        <ele>120.0</ele>
        <time>2019-07-05T14:27:00Z</time>
      </trkpt>
      <trkpt lat="41.361675" lon="-8.679236666666666">
        <ele>119.0</ele>
        <time>2019-07-05T14:27:02Z</time>
      </trkpt>
      <trkpt lat="41.36157" lon="-8.679225">
        <ele>119.0</ele>
        <time>2019-07-05T14:27:04Z</time>
      </trkpt>
      <trkpt lat="41.36146" lon="-8.679208333333333">
        <ele>119.0</ele>
        <time>2019-07-05T14:27:06Z</time>
      </trkpt>
      <trkpt lat="41.361355" lon="-8.679195">
        <ele>119.0</ele>
        <time>2019-07-05T14:27:08Z</time>
      </trkpt>
      <trkpt lat="41.361245" lon="-8.67918">
        <ele>119.0</ele>
        <time>2019-07-05T14:27:10Z</time>
      </trkpt>
      <trkpt lat="41.361135" lon="-8.679175">
        <ele>119.0</ele>
        <time>2019-07-05T14:27:12Z</time>
      </trkpt>
      <trkpt lat="41.361025" lon="-8.679173333333333">
        <ele>119.0</ele>
        <time>2019-07-05T14:27:14Z</time>
      </trkpt>
      <trkpt lat="41.360915" lon="-8.67916">
        <ele>119.0</ele>
        <time>2019-07-05T14:27:16Z</time>
      </trkpt>
      <trkpt lat="41.3608" lon="-8.679135">
        <ele>119.0</ele>
        <time>2019-07-05T14:27:18Z</time>
      </trkpt>
      <trkpt lat="41.36069" lon="-8.679105">
        <ele>118.0</ele>
        <time>2019-07-05T14:27:20Z</time>
      </trkpt>
      <trkpt lat="41.360585" lon="-8.679065">
        <ele>119.0</ele>
        <time>2019-07-05T14:27:22Z</time>
      </trkpt>
      <trkpt lat="41.36048" lon="-8.679018333333334">
        <ele>119.0</ele>
        <time>2019-07-05T14:27:24Z</time>
      </trkpt>
      <trkpt lat="41.36038" lon="-8.67897">
        <ele>119.0</ele>
        <time>2019-07-05T14:27:26Z</time>
      </trkpt>
      <trkpt lat="41.36029666666666" lon="-8.678886666666667">
        <ele>119.0</ele>
        <time>2019-07-05T14:27:28Z</time>
      </trkpt>
      <trkpt lat="41.36024" lon="-8.678765">
        <ele>119.0</ele>
        <time>2019-07-05T14:27:30Z</time>
      </trkpt>
      <trkpt lat="41.36019" lon="-8.67865">
        <ele>120.0</ele>
        <time>2019-07-05T14:27:32Z</time>
      </trkpt>
      <trkpt lat="41.360126666666666" lon="-8.67855">
        <ele>120.0</ele>
        <time>2019-07-05T14:27:34Z</time>
      </trkpt>
      <trkpt lat="41.36004" lon="-8.678473333333333">
        <ele>120.0</ele>
        <time>2019-07-05T14:27:36Z</time>
      </trkpt>
      <trkpt lat="41.35995666666667" lon="-8.678395">
        <ele>120.0</ele>
        <time>2019-07-05T14:27:38Z</time>
      </trkpt>
      <trkpt lat="41.359875" lon="-8.67831">
        <ele>121.0</ele>
        <time>2019-07-05T14:27:40Z</time>
      </trkpt>
      <trkpt lat="41.359795" lon="-8.678236666666667">
        <ele>121.0</ele>
        <time>2019-07-05T14:27:42Z</time>
      </trkpt>
      <trkpt lat="41.359715" lon="-8.67816">
        <ele>121.0</ele>
        <time>2019-07-05T14:27:44Z</time>
      </trkpt>
      <trkpt lat="41.359635" lon="-8.678085">
        <ele>122.0</ele>
        <time>2019-07-05T14:27:46Z</time>
      </trkpt>
      <trkpt lat="41.35956" lon="-8.678016666666666">
        <ele>121.0</ele>
        <time>2019-07-05T14:27:48Z</time>
      </trkpt>
      <trkpt lat="41.359485" lon="-8.677955">
        <ele>122.0</ele>
        <time>2019-07-05T14:27:50Z</time>
      </trkpt>
      <trkpt lat="41.359425" lon="-8.6779">
        <ele>122.0</ele>
        <time>2019-07-05T14:27:52Z</time>
      </trkpt>
      <trkpt lat="41.35933" lon="-8.677843333333334">
        <ele>123.0</ele>
        <time>2019-07-05T14:27:55Z</time>
      </trkpt>
      <trkpt lat="41.359255" lon="-8.67791">
        <ele>123.0</ele>
        <time>2019-07-05T14:27:59Z</time>
      </trkpt>
      <trkpt lat="41.35918" lon="-8.677995">
        <ele>123.0</ele>
        <time>2019-07-05T14:28:02Z</time>
      </trkpt>
      <trkpt lat="41.359115" lon="-8.678076666666668">
        <ele>122.0</ele>
        <time>2019-07-05T14:28:04Z</time>
      </trkpt>
      <trkpt lat="41.359045" lon="-8.678185">
        <ele>122.0</ele>
        <time>2019-07-05T14:28:06Z</time>
      </trkpt>
      <trkpt lat="41.358961666666666" lon="-8.678305">
        <ele>121.0</ele>
        <time>2019-07-05T14:28:08Z</time>
      </trkpt>
      <trkpt lat="41.35887" lon="-8.67843">
        <ele>120.0</ele>
        <time>2019-07-05T14:28:10Z</time>
      </trkpt>
      <trkpt lat="41.35876" lon="-8.67854">
        <ele>119.0</ele>
        <time>2019-07-05T14:28:12Z</time>
      </trkpt>
      <trkpt lat="41.358645" lon="-8.678555">
        <ele>118.0</ele>
        <time>2019-07-05T14:28:14Z</time>
      </trkpt>
      <trkpt lat="41.358538333333335" lon="-8.67852">
        <ele>117.0</ele>
        <time>2019-07-05T14:28:16Z</time>
      </trkpt>
      <trkpt lat="41.35843" lon="-8.67848">
        <ele>116.0</ele>
        <time>2019-07-05T14:28:18Z</time>
      </trkpt>
      <trkpt lat="41.358305" lon="-8.678426666666667">
        <ele>116.0</ele>
        <time>2019-07-05T14:28:20Z</time>
      </trkpt>
      <trkpt lat="41.358185" lon="-8.678385">
        <ele>116.0</ele>
        <time>2019-07-05T14:28:22Z</time>
      </trkpt>
      <trkpt lat="41.35805666666667" lon="-8.67834">
        <ele>115.0</ele>
        <time>2019-07-05T14:28:24Z</time>
      </trkpt>
      <trkpt lat="41.357925" lon="-8.678306666666666">
        <ele>114.0</ele>
        <time>2019-07-05T14:28:26Z</time>
      </trkpt>
      <trkpt lat="41.357791666666664" lon="-8.678285">
        <ele>114.0</ele>
        <time>2019-07-05T14:28:28Z</time>
      </trkpt>
      <trkpt lat="41.35772" lon="-8.678295">
        <ele>113.0</ele>
        <time>2019-07-05T14:28:29Z</time>
      </trkpt>
      <trkpt lat="41.35758" lon="-8.67833">
        <ele>112.0</ele>
        <time>2019-07-05T14:28:31Z</time>
      </trkpt>
      <trkpt lat="41.357506666666666" lon="-8.678365">
        <ele>112.0</ele>
        <time>2019-07-05T14:28:32Z</time>
      </trkpt>
      <trkpt lat="41.357436666666665" lon="-8.678405">
        <ele>112.0</ele>
        <time>2019-07-05T14:28:33Z</time>
      </trkpt>
      <trkpt lat="41.357365" lon="-8.67845">
        <ele>112.0</ele>
        <time>2019-07-05T14:28:34Z</time>
      </trkpt>
      <trkpt lat="41.35729666666667" lon="-8.67849">
        <ele>111.0</ele>
        <time>2019-07-05T14:28:35Z</time>
      </trkpt>
      <trkpt lat="41.357169999999996" lon="-8.678551666666667">
        <ele>111.0</ele>
        <time>2019-07-05T14:28:37Z</time>
      </trkpt>
      <trkpt lat="41.357081666666666" lon="-8.67858">
        <ele>110.0</ele>
        <time>2019-07-05T14:28:38Z</time>
      </trkpt>
      <trkpt lat="41.35700166666667" lon="-8.678601666666667">
        <ele>110.0</ele>
        <time>2019-07-05T14:28:39Z</time>
      </trkpt>
      <trkpt lat="41.35692" lon="-8.678631666666666">
        <ele>110.0</ele>
        <time>2019-07-05T14:28:40Z</time>
      </trkpt>
      <trkpt lat="41.35684" lon="-8.67865">
        <ele>110.0</ele>
        <time>2019-07-05T14:28:41Z</time>
      </trkpt>
      <trkpt lat="41.35676" lon="-8.67866">
        <ele>110.0</ele>
        <time>2019-07-05T14:28:42Z</time>
      </trkpt>
      <trkpt lat="41.356685" lon="-8.678686666666668">
        <ele>111.0</ele>
        <time>2019-07-05T14:28:43Z</time>
      </trkpt>
      <trkpt lat="41.3566" lon="-8.67871">
        <ele>111.0</ele>
        <time>2019-07-05T14:28:44Z</time>
      </trkpt>
      <trkpt lat="41.356525" lon="-8.67873">
        <ele>111.0</ele>
        <time>2019-07-05T14:28:45Z</time>
      </trkpt>
      <trkpt lat="41.356385" lon="-8.678771666666666">
        <ele>109.0</ele>
        <time>2019-07-05T14:28:47Z</time>
      </trkpt>
      <trkpt lat="41.35631166666667" lon="-8.6788">
        <ele>108.0</ele>
        <time>2019-07-05T14:28:48Z</time>
      </trkpt>
      <trkpt lat="41.35624" lon="-8.678821666666666">
        <ele>108.0</ele>
        <time>2019-07-05T14:28:49Z</time>
      </trkpt>
      <trkpt lat="41.35617" lon="-8.67884">
        <ele>108.0</ele>
        <time>2019-07-05T14:28:50Z</time>
      </trkpt>
      <trkpt lat="41.356035" lon="-8.678876666666667">
        <ele>109.0</ele>
        <time>2019-07-05T14:28:52Z</time>
      </trkpt>
      <trkpt lat="41.355905" lon="-8.678923333333334">
        <ele>108.0</ele>
        <time>2019-07-05T14:28:54Z</time>
      </trkpt>
      <trkpt lat="41.355835" lon="-8.67896">
        <ele>108.0</ele>
        <time>2019-07-05T14:28:55Z</time>
      </trkpt>
      <trkpt lat="41.355765" lon="-8.67899">
        <ele>107.0</ele>
        <time>2019-07-05T14:28:56Z</time>
      </trkpt>
      <trkpt lat="41.355625" lon="-8.679041666666667">
        <ele>107.0</ele>
        <time>2019-07-05T14:28:58Z</time>
      </trkpt>
      <trkpt lat="41.355485" lon="-8.679076666666667">
        <ele>106.0</ele>
        <time>2019-07-05T14:29:00Z</time>
      </trkpt>
      <trkpt lat="41.35541166666667" lon="-8.67909">
        <ele>106.0</ele>
        <time>2019-07-05T14:29:01Z</time>
      </trkpt>
      <trkpt lat="41.35527" lon="-8.679126666666667">
        <ele>106.0</ele>
        <time>2019-07-05T14:29:03Z</time>
      </trkpt>
      <trkpt lat="41.3552" lon="-8.679145">
        <ele>105.0</ele>
        <time>2019-07-05T14:29:04Z</time>
      </trkpt>
      <trkpt lat="41.35512666666666" lon="-8.67916">
        <ele>105.0</ele>
        <time>2019-07-05T14:29:05Z</time>
      </trkpt>
      <trkpt lat="41.35499" lon="-8.67919">
        <ele>104.0</ele>
        <time>2019-07-05T14:29:07Z</time>
      </trkpt>
      <trkpt lat="41.354855" lon="-8.67923">
        <ele>103.0</ele>
        <time>2019-07-05T14:29:09Z</time>
      </trkpt>
      <trkpt lat="41.35478" lon="-8.679255">
        <ele>102.0</ele>
        <time>2019-07-05T14:29:10Z</time>
      </trkpt>
      <trkpt lat="41.35471" lon="-8.67927">
        <ele>101.0</ele>
        <time>2019-07-05T14:29:11Z</time>
      </trkpt>
      <trkpt lat="41.354575" lon="-8.67932">
        <ele>100.0</ele>
        <time>2019-07-05T14:29:13Z</time>
      </trkpt>
      <trkpt lat="41.354441666666666" lon="-8.67937">
        <ele>98.0</ele>
        <time>2019-07-05T14:29:15Z</time>
      </trkpt>
      <trkpt lat="41.354315" lon="-8.67944">
        <ele>96.0</ele>
        <time>2019-07-05T14:29:17Z</time>
      </trkpt>
      <trkpt lat="41.354185" lon="-8.679505">
        <ele>94.0</ele>
        <time>2019-07-05T14:29:19Z</time>
      </trkpt>
      <trkpt lat="41.354055" lon="-8.67956">
        <ele>91.0</ele>
        <time>2019-07-05T14:29:21Z</time>
      </trkpt>
      <trkpt lat="41.35393" lon="-8.67962">
        <ele>88.0</ele>
        <time>2019-07-05T14:29:23Z</time>
      </trkpt>
      <trkpt lat="41.353815" lon="-8.67967">
        <ele>87.0</ele>
        <time>2019-07-05T14:29:25Z</time>
      </trkpt>
      <trkpt lat="41.353735" lon="-8.67971">
        <ele>87.0</ele>
        <time>2019-07-05T14:29:27Z</time>
      </trkpt>
      <trkpt lat="41.353655" lon="-8.679765">
        <ele>87.0</ele>
        <time>2019-07-05T14:29:30Z</time>
      </trkpt>
      <trkpt lat="41.353543333333334" lon="-8.67981">
        <ele>85.0</ele>
        <time>2019-07-05T14:29:33Z</time>
      </trkpt>
      <trkpt lat="41.353435" lon="-8.67986">
        <ele>84.0</ele>
        <time>2019-07-05T14:29:35Z</time>
      </trkpt>
      <trkpt lat="41.353365" lon="-8.679886666666667">
        <ele>83.0</ele>
        <time>2019-07-05T14:29:36Z</time>
      </trkpt>
      <trkpt lat="41.353285" lon="-8.679906666666668">
        <ele>81.0</ele>
        <time>2019-07-05T14:29:37Z</time>
      </trkpt>
      <trkpt lat="41.353195" lon="-8.679935">
        <ele>80.0</ele>
        <time>2019-07-05T14:29:38Z</time>
      </trkpt>
      <trkpt lat="41.353105" lon="-8.67995">
        <ele>78.0</ele>
        <time>2019-07-05T14:29:39Z</time>
      </trkpt>
      <trkpt lat="41.353" lon="-8.67997">
        <ele>76.0</ele>
        <time>2019-07-05T14:29:40Z</time>
      </trkpt>
      <trkpt lat="41.352895" lon="-8.679996666666666">
        <ele>76.0</ele>
        <time>2019-07-05T14:29:41Z</time>
      </trkpt>
      <trkpt lat="41.352801666666664" lon="-8.680021666666667">
        <ele>75.0</ele>
        <time>2019-07-05T14:29:42Z</time>
      </trkpt>
      <trkpt lat="41.352716666666666" lon="-8.680046666666666">
        <ele>74.0</ele>
        <time>2019-07-05T14:29:43Z</time>
      </trkpt>
      <trkpt lat="41.352635" lon="-8.680065">
        <ele>72.0</ele>
        <time>2019-07-05T14:29:44Z</time>
      </trkpt>
      <trkpt lat="41.352545" lon="-8.680086666666666">
        <ele>71.0</ele>
        <time>2019-07-05T14:29:45Z</time>
      </trkpt>
      <trkpt lat="41.352466666666665" lon="-8.680105">
        <ele>69.0</ele>
        <time>2019-07-05T14:29:46Z</time>
      </trkpt>
      <trkpt lat="41.35239" lon="-8.680125">
        <ele>69.0</ele>
        <time>2019-07-05T14:29:47Z</time>
      </trkpt>
      <trkpt lat="41.35227" lon="-8.68017">
        <ele>68.0</ele>
        <time>2019-07-05T14:29:49Z</time>
      </trkpt>
      <trkpt lat="41.35215" lon="-8.680201666666667">
        <ele>68.0</ele>
        <time>2019-07-05T14:29:51Z</time>
      </trkpt>
      <trkpt lat="41.352035" lon="-8.680255">
        <ele>69.0</ele>
        <time>2019-07-05T14:29:53Z</time>
      </trkpt>
      <trkpt lat="41.351931666666665" lon="-8.68034">
        <ele>69.0</ele>
        <time>2019-07-05T14:29:55Z</time>
      </trkpt>
      <trkpt lat="41.35183166666667" lon="-8.68043">
        <ele>68.0</ele>
        <time>2019-07-05T14:29:57Z</time>
      </trkpt>
      <trkpt lat="41.351745" lon="-8.6805">
        <ele>69.0</ele>
        <time>2019-07-05T14:29:59Z</time>
      </trkpt>
      <trkpt lat="41.351685" lon="-8.68059">
        <ele>69.0</ele>
        <time>2019-07-05T14:30:01Z</time>
      </trkpt>
      <trkpt lat="41.35164" lon="-8.680675">
        <ele>68.0</ele>
        <time>2019-07-05T14:30:03Z</time>
      </trkpt>
      <trkpt lat="41.35158" lon="-8.680776666666667">
        <ele>69.0</ele>
        <time>2019-07-05T14:30:06Z</time>
      </trkpt>
      <trkpt lat="41.351515" lon="-8.680886666666666">
        <ele>69.0</ele>
        <time>2019-07-05T14:30:09Z</time>
      </trkpt>
      <trkpt lat="41.351465" lon="-8.680965">
        <ele>69.0</ele>
        <time>2019-07-05T14:30:11Z</time>
      </trkpt>
      <trkpt lat="41.351405" lon="-8.68106">
        <ele>69.0</ele>
        <time>2019-07-05T14:30:14Z</time>
      </trkpt>
      <trkpt lat="41.35136" lon="-8.681135">
        <ele>69.0</ele>
        <time>2019-07-05T14:30:16Z</time>
      </trkpt>
      <trkpt lat="41.35131" lon="-8.681255">
        <ele>69.0</ele>
        <time>2019-07-05T14:30:19Z</time>
      </trkpt>
      <trkpt lat="41.35124" lon="-8.681355">
        <ele>69.0</ele>
        <time>2019-07-05T14:30:22Z</time>
      </trkpt>
      <trkpt lat="41.35117" lon="-8.681435">
        <ele>69.0</ele>
        <time>2019-07-05T14:30:25Z</time>
      </trkpt>
      <trkpt lat="41.35110666666667" lon="-8.681515">
        <ele>69.0</ele>
        <time>2019-07-05T14:30:28Z</time>
      </trkpt>
      <trkpt lat="41.351035" lon="-8.68161">
        <ele>69.0</ele>
        <time>2019-07-05T14:30:31Z</time>
      </trkpt>
      <trkpt lat="41.350985" lon="-8.681685">
        <ele>68.0</ele>
        <time>2019-07-05T14:30:33Z</time>
      </trkpt>
      <trkpt lat="41.35091666666667" lon="-8.68174">
        <ele>68.0</ele>
        <time>2019-07-05T14:30:35Z</time>
      </trkpt>
      <trkpt lat="41.35084" lon="-8.681766666666666">
        <ele>68.0</ele>
        <time>2019-07-05T14:30:37Z</time>
      </trkpt>
      <trkpt lat="41.35077" lon="-8.681731666666666">
        <ele>69.0</ele>
        <time>2019-07-05T14:30:39Z</time>
      </trkpt>
      <trkpt lat="41.35071" lon="-8.68168">
        <ele>70.0</ele>
        <time>2019-07-05T14:30:41Z</time>
      </trkpt>
      <trkpt lat="41.35064" lon="-8.681625">
        <ele>70.0</ele>
        <time>2019-07-05T14:30:43Z</time>
      </trkpt>
      <trkpt lat="41.35058166666666" lon="-8.68155">
        <ele>70.0</ele>
        <time>2019-07-05T14:30:45Z</time>
      </trkpt>
      <trkpt lat="41.350515" lon="-8.681475">
        <ele>71.0</ele>
        <time>2019-07-05T14:30:48Z</time>
      </trkpt>
      <trkpt lat="41.35046" lon="-8.681385">
        <ele>71.0</ele>
        <time>2019-07-05T14:30:51Z</time>
      </trkpt>
      <trkpt lat="41.3504" lon="-8.6813">
        <ele>71.0</ele>
        <time>2019-07-05T14:30:54Z</time>
      </trkpt>
      <trkpt lat="41.35033" lon="-8.68122">
        <ele>72.0</ele>
        <time>2019-07-05T14:30:57Z</time>
      </trkpt>
      <trkpt lat="41.350255" lon="-8.68116">
        <ele>72.0</ele>
        <time>2019-07-05T14:31:00Z</time>
      </trkpt>
      <trkpt lat="41.35019" lon="-8.681075">
        <ele>73.0</ele>
        <time>2019-07-05T14:31:03Z</time>
      </trkpt>
      <trkpt lat="41.350115" lon="-8.681005">
        <ele>74.0</ele>
        <time>2019-07-05T14:31:06Z</time>
      </trkpt>
      <trkpt lat="41.350035" lon="-8.680935">
        <ele>74.0</ele>
        <time>2019-07-05T14:31:09Z</time>
      </trkpt>
      <trkpt lat="41.349975" lon="-8.68085">
        <ele>74.0</ele>
        <time>2019-07-05T14:31:12Z</time>
      </trkpt>
      <trkpt lat="41.34990666666667" lon="-8.68078">
        <ele>75.0</ele>
        <time>2019-07-05T14:31:15Z</time>
      </trkpt>
      <trkpt lat="41.34984333333333" lon="-8.68071">
        <ele>76.0</ele>
        <time>2019-07-05T14:31:18Z</time>
      </trkpt>
      <trkpt lat="41.34978666666667" lon="-8.680625">
        <ele>76.0</ele>
        <time>2019-07-05T14:31:21Z</time>
      </trkpt>
      <trkpt lat="41.349745" lon="-8.680545">
        <ele>75.0</ele>
        <time>2019-07-05T14:31:24Z</time>
      </trkpt>
      <trkpt lat="41.349705" lon="-8.68044">
        <ele>76.0</ele>
        <time>2019-07-05T14:31:27Z</time>
      </trkpt>
      <trkpt lat="41.349695" lon="-8.68033">
        <ele>76.0</ele>
        <time>2019-07-05T14:31:30Z</time>
      </trkpt>
      <trkpt lat="41.349695" lon="-8.680191666666667">
        <ele>78.0</ele>
        <time>2019-07-05T14:31:33Z</time>
      </trkpt>
      <trkpt lat="41.349685" lon="-8.680061666666667">
        <ele>80.0</ele>
        <time>2019-07-05T14:31:36Z</time>
      </trkpt>
      <trkpt lat="41.349685" lon="-8.67994">
        <ele>81.0</ele>
        <time>2019-07-05T14:31:39Z</time>
      </trkpt>
      <trkpt lat="41.349685" lon="-8.679825">
        <ele>81.0</ele>
        <time>2019-07-05T14:31:42Z</time>
      </trkpt>
      <trkpt lat="41.349685" lon="-8.679725">
        <ele>81.0</ele>
        <time>2019-07-05T14:31:45Z</time>
      </trkpt>
      <trkpt lat="41.349685" lon="-8.679615">
        <ele>82.0</ele>
        <time>2019-07-05T14:31:48Z</time>
      </trkpt>
      <trkpt lat="41.34968666666666" lon="-8.679515">
        <ele>81.0</ele>
        <time>2019-07-05T14:31:51Z</time>
      </trkpt>
      <trkpt lat="41.34968666666666" lon="-8.679406666666667">
        <ele>82.0</ele>
        <time>2019-07-05T14:31:54Z</time>
      </trkpt>
      <trkpt lat="41.34968" lon="-8.6793">
        <ele>82.0</ele>
        <time>2019-07-05T14:31:57Z</time>
      </trkpt>
      <trkpt lat="41.34968" lon="-8.679186666666666">
        <ele>83.0</ele>
        <time>2019-07-05T14:32:00Z</time>
      </trkpt>
      <trkpt lat="41.34966" lon="-8.679076666666667">
        <ele>83.0</ele>
        <time>2019-07-05T14:32:03Z</time>
      </trkpt>
      <trkpt lat="41.34964" lon="-8.678965">
        <ele>85.0</ele>
        <time>2019-07-05T14:32:06Z</time>
      </trkpt>
      <trkpt lat="41.34962" lon="-8.678846666666667">
        <ele>85.0</ele>
        <time>2019-07-05T14:32:09Z</time>
      </trkpt>
      <trkpt lat="41.349601666666665" lon="-8.678745">
        <ele>86.0</ele>
        <time>2019-07-05T14:32:12Z</time>
      </trkpt>
      <trkpt lat="41.349585" lon="-8.678635">
        <ele>87.0</ele>
        <time>2019-07-05T14:32:15Z</time>
      </trkpt>
      <trkpt lat="41.349565" lon="-8.678535">
        <ele>87.0</ele>
        <time>2019-07-05T14:32:18Z</time>
      </trkpt>
      <trkpt lat="41.34953" lon="-8.67844">
        <ele>88.0</ele>
        <time>2019-07-05T14:32:21Z</time>
      </trkpt>
      <trkpt lat="41.349486666666664" lon="-8.67833">
        <ele>89.0</ele>
        <time>2019-07-05T14:32:25Z</time>
      </trkpt>
      <trkpt lat="41.349425" lon="-8.67824">
        <ele>90.0</ele>
        <time>2019-07-05T14:32:29Z</time>
      </trkpt>
      <trkpt lat="41.34935" lon="-8.67821">
        <ele>90.0</ele>
        <time>2019-07-05T14:32:33Z</time>
      </trkpt>
      <trkpt lat="41.34928" lon="-8.67816">
        <ele>91.0</ele>
        <time>2019-07-05T14:32:37Z</time>
      </trkpt>
      <trkpt lat="41.349195" lon="-8.67816">
        <ele>91.0</ele>
        <time>2019-07-05T14:32:41Z</time>
      </trkpt>
      <trkpt lat="41.34912" lon="-8.678165">
        <ele>91.0</ele>
        <time>2019-07-05T14:32:45Z</time>
      </trkpt>
      <trkpt lat="41.34903166666667" lon="-8.678186666666667">
        <ele>92.0</ele>
        <time>2019-07-05T14:32:49Z</time>
      </trkpt>
      <trkpt lat="41.348945" lon="-8.6782">
        <ele>92.0</ele>
        <time>2019-07-05T14:32:53Z</time>
      </trkpt>
      <trkpt lat="41.348855" lon="-8.678226666666667">
        <ele>93.0</ele>
        <time>2019-07-05T14:32:57Z</time>
      </trkpt>
      <trkpt lat="41.348776666666666" lon="-8.67827">
        <ele>94.0</ele>
        <time>2019-07-05T14:33:01Z</time>
      </trkpt>
      <trkpt lat="41.3487" lon="-8.678325">
        <ele>94.0</ele>
        <time>2019-07-05T14:33:05Z</time>
      </trkpt>
      <trkpt lat="41.34865" lon="-8.678411666666667">
        <ele>94.0</ele>
        <time>2019-07-05T14:33:09Z</time>
      </trkpt>
      <trkpt lat="41.34860666666667" lon="-8.678506666666667">
        <ele>98.0</ele>
        <time>2019-07-05T14:33:12Z</time>
      </trkpt>
      <trkpt lat="41.348595" lon="-8.67862">
        <ele>100.0</ele>
        <time>2019-07-05T14:33:16Z</time>
      </trkpt>
      <trkpt lat="41.34854166666667" lon="-8.67871">
        <ele>99.0</ele>
        <time>2019-07-05T14:33:20Z</time>
      </trkpt>
      <trkpt lat="41.34845" lon="-8.67872">
        <ele>99.0</ele>
        <time>2019-07-05T14:33:23Z</time>
      </trkpt>
      <trkpt lat="41.348365" lon="-8.678675">
        <ele>99.0</ele>
        <time>2019-07-05T14:33:26Z</time>
      </trkpt>
      <trkpt lat="41.348265" lon="-8.678645">
        <ele>99.0</ele>
        <time>2019-07-05T14:33:29Z</time>
      </trkpt>
      <trkpt lat="41.348165" lon="-8.67863">
        <ele>99.0</ele>
        <time>2019-07-05T14:33:32Z</time>
      </trkpt>
      <trkpt lat="41.34806" lon="-8.678626666666666">
        <ele>99.0</ele>
        <time>2019-07-05T14:33:35Z</time>
      </trkpt>
      <trkpt lat="41.34798166666667" lon="-8.678635">
        <ele>99.0</ele>
        <time>2019-07-05T14:33:37Z</time>
      </trkpt>
      <trkpt lat="41.34791" lon="-8.678646666666667">
        <ele>99.0</ele>
        <time>2019-07-05T14:33:39Z</time>
      </trkpt>
      <trkpt lat="41.34783" lon="-8.678658333333333">
        <ele>100.0</ele>
        <time>2019-07-05T14:33:41Z</time>
      </trkpt>
      <trkpt lat="41.34775" lon="-8.67868">
        <ele>100.0</ele>
        <time>2019-07-05T14:33:43Z</time>
      </trkpt>
      <trkpt lat="41.34767" lon="-8.678705">
        <ele>100.0</ele>
        <time>2019-07-05T14:33:45Z</time>
      </trkpt>
      <trkpt lat="41.347585" lon="-8.678736666666667">
        <ele>100.0</ele>
        <time>2019-07-05T14:33:47Z</time>
      </trkpt>
      <trkpt lat="41.3475" lon="-8.678765">
        <ele>100.0</ele>
        <time>2019-07-05T14:33:49Z</time>
      </trkpt>
      <trkpt lat="41.347415" lon="-8.678793333333333">
        <ele>100.0</ele>
        <time>2019-07-05T14:33:51Z</time>
      </trkpt>
      <trkpt lat="41.34733" lon="-8.678825">
        <ele>100.0</ele>
        <time>2019-07-05T14:33:53Z</time>
      </trkpt>
      <trkpt lat="41.347251666666665" lon="-8.678855">
        <ele>101.0</ele>
        <time>2019-07-05T14:33:55Z</time>
      </trkpt>
      <trkpt lat="41.347168333333336" lon="-8.678886666666667">
        <ele>101.0</ele>
        <time>2019-07-05T14:33:57Z</time>
      </trkpt>
      <trkpt lat="41.347085" lon="-8.67892">
        <ele>101.0</ele>
        <time>2019-07-05T14:33:59Z</time>
      </trkpt>
      <trkpt lat="41.347" lon="-8.678955">
        <ele>101.0</ele>
        <time>2019-07-05T14:34:01Z</time>
      </trkpt>
      <trkpt lat="41.346915" lon="-8.678985">
        <ele>101.0</ele>
        <time>2019-07-05T14:34:03Z</time>
      </trkpt>
      <trkpt lat="41.34683" lon="-8.679016666666667">
        <ele>102.0</ele>
        <time>2019-07-05T14:34:05Z</time>
      </trkpt>
      <trkpt lat="41.34675" lon="-8.67905">
        <ele>102.0</ele>
        <time>2019-07-05T14:34:07Z</time>
      </trkpt>
      <trkpt lat="41.346665" lon="-8.67908">
        <ele>102.0</ele>
        <time>2019-07-05T14:34:09Z</time>
      </trkpt>
      <trkpt lat="41.34658" lon="-8.67912">
        <ele>103.0</ele>
        <time>2019-07-05T14:34:11Z</time>
      </trkpt>
      <trkpt lat="41.3465" lon="-8.679145">
        <ele>103.0</ele>
        <time>2019-07-05T14:34:13Z</time>
      </trkpt>
      <trkpt lat="41.34641833333333" lon="-8.679175">
        <ele>104.0</ele>
        <time>2019-07-05T14:34:15Z</time>
      </trkpt>
      <trkpt lat="41.346335" lon="-8.679208333333333">
        <ele>104.0</ele>
        <time>2019-07-05T14:34:17Z</time>
      </trkpt>
      <trkpt lat="41.34625" lon="-8.679236666666666">
        <ele>104.0</ele>
        <time>2019-07-05T14:34:19Z</time>
      </trkpt>
      <trkpt lat="41.34617" lon="-8.679275">
        <ele>105.0</ele>
        <time>2019-07-05T14:34:21Z</time>
      </trkpt>
      <trkpt lat="41.346085" lon="-8.679306666666667">
        <ele>105.0</ele>
        <time>2019-07-05T14:34:23Z</time>
      </trkpt>
      <trkpt lat="41.346001666666666" lon="-8.67934">
        <ele>106.0</ele>
        <time>2019-07-05T14:34:25Z</time>
      </trkpt>
      <trkpt lat="41.34592" lon="-8.679375">
        <ele>106.0</ele>
        <time>2019-07-05T14:34:27Z</time>
      </trkpt>
      <trkpt lat="41.345841666666665" lon="-8.679398333333333">
        <ele>106.0</ele>
        <time>2019-07-05T14:34:29Z</time>
      </trkpt>
      <trkpt lat="41.34576" lon="-8.67943">
        <ele>107.0</ele>
        <time>2019-07-05T14:34:31Z</time>
      </trkpt>
      <trkpt lat="41.34568" lon="-8.679456666666667">
        <ele>107.0</ele>
        <time>2019-07-05T14:34:33Z</time>
      </trkpt>
      <trkpt lat="41.345596666666665" lon="-8.67949">
        <ele>106.0</ele>
        <time>2019-07-05T14:34:35Z</time>
      </trkpt>
      <trkpt lat="41.345515" lon="-8.67952">
        <ele>106.0</ele>
        <time>2019-07-05T14:34:37Z</time>
      </trkpt>
      <trkpt lat="41.34543166666667" lon="-8.679551666666667">
        <ele>106.0</ele>
        <time>2019-07-05T14:34:39Z</time>
      </trkpt>
      <trkpt lat="41.345351666666666" lon="-8.67958">
        <ele>107.0</ele>
        <time>2019-07-05T14:34:41Z</time>
      </trkpt>
      <trkpt lat="41.34527666666666" lon="-8.679605">
        <ele>107.0</ele>
        <time>2019-07-05T14:34:43Z</time>
      </trkpt>
      <trkpt lat="41.345205" lon="-8.679596666666667">
        <ele>107.0</ele>
        <time>2019-07-05T14:34:45Z</time>
      </trkpt>
      <trkpt lat="41.345125" lon="-8.679493333333333">
        <ele>106.0</ele>
        <time>2019-07-05T14:34:48Z</time>
      </trkpt>
      <trkpt lat="41.34511166666667" lon="-8.679391666666668">
        <ele>106.0</ele>
        <time>2019-07-05T14:34:50Z</time>
      </trkpt>
      <trkpt lat="41.3451" lon="-8.679275">
        <ele>105.0</ele>
        <time>2019-07-05T14:34:52Z</time>
      </trkpt>
      <trkpt lat="41.3451" lon="-8.679145">
        <ele>105.0</ele>
        <time>2019-07-05T14:34:54Z</time>
      </trkpt>
      <trkpt lat="41.345095" lon="-8.679018333333334">
        <ele>105.0</ele>
        <time>2019-07-05T14:34:56Z</time>
      </trkpt>
      <trkpt lat="41.345105" lon="-8.678885">
        <ele>104.0</ele>
        <time>2019-07-05T14:34:58Z</time>
      </trkpt>
      <trkpt lat="41.345121666666664" lon="-8.67874">
        <ele>104.0</ele>
        <time>2019-07-05T14:35:00Z</time>
      </trkpt>
      <trkpt lat="41.345135" lon="-8.67858">
        <ele>104.0</ele>
        <time>2019-07-05T14:35:02Z</time>
      </trkpt>
      <trkpt lat="41.34513166666667" lon="-8.67841">
        <ele>103.0</ele>
        <time>2019-07-05T14:35:04Z</time>
      </trkpt>
      <trkpt lat="41.345065" lon="-8.678265">
        <ele>102.0</ele>
        <time>2019-07-05T14:35:06Z</time>
      </trkpt>
      <trkpt lat="41.34496166666667" lon="-8.678166666666666">
        <ele>102.0</ele>
        <time>2019-07-05T14:35:08Z</time>
      </trkpt>
      <trkpt lat="41.34485" lon="-8.67808">
        <ele>101.0</ele>
        <time>2019-07-05T14:35:10Z</time>
      </trkpt>
      <trkpt lat="41.34473" lon="-8.678005">
        <ele>101.0</ele>
        <time>2019-07-05T14:35:12Z</time>
      </trkpt>
      <trkpt lat="41.344615" lon="-8.67792">
        <ele>101.0</ele>
        <time>2019-07-05T14:35:14Z</time>
      </trkpt>
      <trkpt lat="41.344495" lon="-8.677835">
        <ele>101.0</ele>
        <time>2019-07-05T14:35:16Z</time>
      </trkpt>
      <trkpt lat="41.34437166666667" lon="-8.677745">
        <ele>101.0</ele>
        <time>2019-07-05T14:35:18Z</time>
      </trkpt>
      <trkpt lat="41.34424666666666" lon="-8.67766">
        <ele>101.0</ele>
        <time>2019-07-05T14:35:20Z</time>
      </trkpt>
      <trkpt lat="41.344125" lon="-8.677565">
        <ele>101.0</ele>
        <time>2019-07-05T14:35:22Z</time>
      </trkpt>
      <trkpt lat="41.344005" lon="-8.67748">
        <ele>100.0</ele>
        <time>2019-07-05T14:35:24Z</time>
      </trkpt>
      <trkpt lat="41.34388666666667" lon="-8.677385">
        <ele>100.0</ele>
        <time>2019-07-05T14:35:26Z</time>
      </trkpt>
      <trkpt lat="41.343763333333335" lon="-8.677295">
        <ele>101.0</ele>
        <time>2019-07-05T14:35:28Z</time>
      </trkpt>
      <trkpt lat="41.343651666666666" lon="-8.677221666666666">
        <ele>101.0</ele>
        <time>2019-07-05T14:35:30Z</time>
      </trkpt>
      <trkpt lat="41.343538333333335" lon="-8.67714">
        <ele>101.0</ele>
        <time>2019-07-05T14:35:32Z</time>
      </trkpt>
      <trkpt lat="41.343426666666666" lon="-8.67706">
        <ele>101.0</ele>
        <time>2019-07-05T14:35:34Z</time>
      </trkpt>
      <trkpt lat="41.343311666666665" lon="-8.676985">
        <ele>101.0</ele>
        <time>2019-07-05T14:35:36Z</time>
      </trkpt>
      <trkpt lat="41.343201666666666" lon="-8.676925">
        <ele>102.0</ele>
        <time>2019-07-05T14:35:38Z</time>
      </trkpt>
      <trkpt lat="41.343095" lon="-8.676876666666667">
        <ele>102.0</ele>
        <time>2019-07-05T14:35:40Z</time>
      </trkpt>
      <trkpt lat="41.34299" lon="-8.676835">
        <ele>103.0</ele>
        <time>2019-07-05T14:35:42Z</time>
      </trkpt>
      <trkpt lat="41.342895" lon="-8.67679">
        <ele>103.0</ele>
        <time>2019-07-05T14:35:44Z</time>
      </trkpt>
      <trkpt lat="41.34279166666666" lon="-8.676751666666666">
        <ele>103.0</ele>
        <time>2019-07-05T14:35:46Z</time>
      </trkpt>
      <trkpt lat="41.342695" lon="-8.67672">
        <ele>103.0</ele>
        <time>2019-07-05T14:35:48Z</time>
      </trkpt>
      <trkpt lat="41.3426" lon="-8.676686666666667">
        <ele>103.0</ele>
        <time>2019-07-05T14:35:50Z</time>
      </trkpt>
      <trkpt lat="41.3425" lon="-8.676665">
        <ele>104.0</ele>
        <time>2019-07-05T14:35:52Z</time>
      </trkpt>
      <trkpt lat="41.34240666666667" lon="-8.676655">
        <ele>104.0</ele>
        <time>2019-07-05T14:35:54Z</time>
      </trkpt>
      <trkpt lat="41.342315" lon="-8.67664">
        <ele>104.0</ele>
        <time>2019-07-05T14:35:56Z</time>
      </trkpt>
      <trkpt lat="41.342225" lon="-8.676625">
        <ele>104.0</ele>
        <time>2019-07-05T14:35:58Z</time>
      </trkpt>
      <trkpt lat="41.34214" lon="-8.676596666666667">
        <ele>104.0</ele>
        <time>2019-07-05T14:36:00Z</time>
      </trkpt>
      <trkpt lat="41.34206" lon="-8.676576666666667">
        <ele>104.0</ele>
        <time>2019-07-05T14:36:02Z</time>
      </trkpt>
      <trkpt lat="41.341975" lon="-8.67657">
        <ele>105.0</ele>
        <time>2019-07-05T14:36:04Z</time>
      </trkpt>
      <trkpt lat="41.341895" lon="-8.676561666666666">
        <ele>105.0</ele>
        <time>2019-07-05T14:36:06Z</time>
      </trkpt>
      <trkpt lat="41.341805" lon="-8.67655">
        <ele>105.0</ele>
        <time>2019-07-05T14:36:08Z</time>
      </trkpt>
      <trkpt lat="41.341715" lon="-8.676541666666667">
        <ele>105.0</ele>
        <time>2019-07-05T14:36:10Z</time>
      </trkpt>
      <trkpt lat="41.34162" lon="-8.67653">
        <ele>106.0</ele>
        <time>2019-07-05T14:36:12Z</time>
      </trkpt>
      <trkpt lat="41.34153666666667" lon="-8.676525">
        <ele>106.0</ele>
        <time>2019-07-05T14:36:14Z</time>
      </trkpt>
      <trkpt lat="41.34145" lon="-8.676521666666666">
        <ele>106.0</ele>
        <time>2019-07-05T14:36:16Z</time>
      </trkpt>
      <trkpt lat="41.341365" lon="-8.676515">
        <ele>106.0</ele>
        <time>2019-07-05T14:36:18Z</time>
      </trkpt>
      <trkpt lat="41.34128" lon="-8.676495">
        <ele>106.0</ele>
        <time>2019-07-05T14:36:20Z</time>
      </trkpt>
      <trkpt lat="41.341195" lon="-8.676475">
        <ele>106.0</ele>
        <time>2019-07-05T14:36:22Z</time>
      </trkpt>
      <trkpt lat="41.34111" lon="-8.676455">
        <ele>106.0</ele>
        <time>2019-07-05T14:36:24Z</time>
      </trkpt>
      <trkpt lat="41.341026666666664" lon="-8.676441666666667">
        <ele>107.0</ele>
        <time>2019-07-05T14:36:26Z</time>
      </trkpt>
      <trkpt lat="41.340945" lon="-8.67642">
        <ele>107.0</ele>
        <time>2019-07-05T14:36:28Z</time>
      </trkpt>
      <trkpt lat="41.340865" lon="-8.67638">
        <ele>107.0</ele>
        <time>2019-07-05T14:36:30Z</time>
      </trkpt>
      <trkpt lat="41.340785" lon="-8.676355">
        <ele>108.0</ele>
        <time>2019-07-05T14:36:32Z</time>
      </trkpt>
      <trkpt lat="41.34070166666667" lon="-8.67633">
        <ele>108.0</ele>
        <time>2019-07-05T14:36:34Z</time>
      </trkpt>
      <trkpt lat="41.34063" lon="-8.676331666666666">
        <ele>107.0</ele>
        <time>2019-07-05T14:36:36Z</time>
      </trkpt>
      <trkpt lat="41.340555" lon="-8.67632">
        <ele>108.0</ele>
        <time>2019-07-05T14:36:38Z</time>
      </trkpt>
      <trkpt lat="41.34048" lon="-8.676325">
        <ele>109.0</ele>
        <time>2019-07-05T14:36:40Z</time>
      </trkpt>
      <trkpt lat="41.340385" lon="-8.676345">
        <ele>108.0</ele>
        <time>2019-07-05T14:36:43Z</time>
      </trkpt>
      <trkpt lat="41.34031" lon="-8.67637">
        <ele>109.0</ele>
        <time>2019-07-05T14:36:46Z</time>
      </trkpt>
      <trkpt lat="41.34023" lon="-8.676395">
        <ele>109.0</ele>
        <time>2019-07-05T14:36:49Z</time>
      </trkpt>
      <trkpt lat="41.34015" lon="-8.67641">
        <ele>109.0</ele>
        <time>2019-07-05T14:36:52Z</time>
      </trkpt>
      <trkpt lat="41.34007" lon="-8.67644">
        <ele>109.0</ele>
        <time>2019-07-05T14:36:55Z</time>
      </trkpt>
      <trkpt lat="41.339996666666664" lon="-8.6765">
        <ele>110.0</ele>
        <time>2019-07-05T14:36:58Z</time>
      </trkpt>
      <trkpt lat="41.339906666666664" lon="-8.67655">
        <ele>112.0</ele>
        <time>2019-07-05T14:37:01Z</time>
      </trkpt>
      <trkpt lat="41.339841666666665" lon="-8.676611666666666">
        <ele>112.0</ele>
        <time>2019-07-05T14:37:04Z</time>
      </trkpt>
      <trkpt lat="41.339775" lon="-8.676665">
        <ele>114.0</ele>
        <time>2019-07-05T14:37:07Z</time>
      </trkpt>
      <trkpt lat="41.339705" lon="-8.67672">
        <ele>115.0</ele>
        <time>2019-07-05T14:37:10Z</time>
      </trkpt>
      <trkpt lat="41.339625" lon="-8.676775">
        <ele>115.0</ele>
        <time>2019-07-05T14:37:14Z</time>
      </trkpt>
      <trkpt lat="41.33956166666667" lon="-8.676831666666667">
        <ele>115.0</ele>
        <time>2019-07-05T14:37:18Z</time>
      </trkpt>
      <trkpt lat="41.33949" lon="-8.6769">
        <ele>114.0</ele>
        <time>2019-07-05T14:37:22Z</time>
      </trkpt>
      <trkpt lat="41.339435" lon="-8.676975">
        <ele>115.0</ele>
        <time>2019-07-05T14:37:25Z</time>
      </trkpt>
      <trkpt lat="41.3394" lon="-8.67706">
        <ele>115.0</ele>
        <time>2019-07-05T14:37:28Z</time>
      </trkpt>
      <trkpt lat="41.33935" lon="-8.677141666666667">
        <ele>116.0</ele>
        <time>2019-07-05T14:37:31Z</time>
      </trkpt>
      <trkpt lat="41.3393" lon="-8.677221666666666">
        <ele>117.0</ele>
        <time>2019-07-05T14:37:34Z</time>
      </trkpt>
      <trkpt lat="41.33923" lon="-8.677275">
        <ele>117.0</ele>
        <time>2019-07-05T14:37:38Z</time>
      </trkpt>
      <trkpt lat="41.33916" lon="-8.677305">
        <ele>117.0</ele>
        <time>2019-07-05T14:37:42Z</time>
      </trkpt>
      <trkpt lat="41.33909" lon="-8.677238333333333">
        <ele>116.0</ele>
        <time>2019-07-05T14:37:48Z</time>
      </trkpt>
      <trkpt lat="41.33907" lon="-8.67711">
        <ele>115.0</ele>
        <time>2019-07-05T14:37:50Z</time>
      </trkpt>
      <trkpt lat="41.33904166666667" lon="-8.67699">
        <ele>114.0</ele>
        <time>2019-07-05T14:37:52Z</time>
      </trkpt>
      <trkpt lat="41.33903" lon="-8.676895">
        <ele>112.0</ele>
        <time>2019-07-05T14:37:54Z</time>
      </trkpt>
      <trkpt lat="41.339" lon="-8.676763333333334">
        <ele>111.0</ele>
        <time>2019-07-05T14:37:58Z</time>
      </trkpt>
      <trkpt lat="41.338908333333336" lon="-8.676701666666666">
        <ele>110.0</ele>
        <time>2019-07-05T14:38:01Z</time>
      </trkpt>
      <trkpt lat="41.33882" lon="-8.67668">
        <ele>109.0</ele>
        <time>2019-07-05T14:38:03Z</time>
      </trkpt>
      <trkpt lat="41.338735" lon="-8.676616666666666">
        <ele>109.0</ele>
        <time>2019-07-05T14:38:05Z</time>
      </trkpt>
      <trkpt lat="41.338645" lon="-8.67655">
        <ele>109.0</ele>
        <time>2019-07-05T14:38:07Z</time>
      </trkpt>
      <trkpt lat="41.338555" lon="-8.676461666666667">
        <ele>108.0</ele>
        <time>2019-07-05T14:38:09Z</time>
      </trkpt>
      <trkpt lat="41.338458333333335" lon="-8.676365">
        <ele>107.0</ele>
        <time>2019-07-05T14:38:11Z</time>
      </trkpt>
      <trkpt lat="41.338355" lon="-8.67627">
        <ele>108.0</ele>
        <time>2019-07-05T14:38:13Z</time>
      </trkpt>
      <trkpt lat="41.33827" lon="-8.676181666666666">
        <ele>107.0</ele>
        <time>2019-07-05T14:38:15Z</time>
      </trkpt>
      <trkpt lat="41.33821" lon="-8.676091666666666">
        <ele>107.0</ele>
        <time>2019-07-05T14:38:17Z</time>
      </trkpt>
      <trkpt lat="41.338195" lon="-8.675965">
        <ele>107.0</ele>
        <time>2019-07-05T14:38:19Z</time>
      </trkpt>
      <trkpt lat="41.338195" lon="-8.67583">
        <ele>107.0</ele>
        <time>2019-07-05T14:38:21Z</time>
      </trkpt>
      <trkpt lat="41.338205" lon="-8.675701666666667">
        <ele>106.0</ele>
        <time>2019-07-05T14:38:23Z</time>
      </trkpt>
      <trkpt lat="41.338205" lon="-8.675575">
        <ele>106.0</ele>
        <time>2019-07-05T14:38:25Z</time>
      </trkpt>
      <trkpt lat="41.338231666666665" lon="-8.67544">
        <ele>106.0</ele>
        <time>2019-07-05T14:38:27Z</time>
      </trkpt>
      <trkpt lat="41.338255" lon="-8.67531">
        <ele>105.0</ele>
        <time>2019-07-05T14:38:29Z</time>
      </trkpt>
      <trkpt lat="41.33828166666667" lon="-8.675171666666667">
        <ele>104.0</ele>
        <time>2019-07-05T14:38:31Z</time>
      </trkpt>
      <trkpt lat="41.33831" lon="-8.675035">
        <ele>104.0</ele>
        <time>2019-07-05T14:38:33Z</time>
      </trkpt>
      <trkpt lat="41.338335" lon="-8.674891666666667">
        <ele>105.0</ele>
        <time>2019-07-05T14:38:35Z</time>
      </trkpt>
      <trkpt lat="41.338355" lon="-8.674756666666667">
        <ele>105.0</ele>
        <time>2019-07-05T14:38:37Z</time>
      </trkpt>
      <trkpt lat="41.33838166666666" lon="-8.67462">
        <ele>105.0</ele>
        <time>2019-07-05T14:38:39Z</time>
      </trkpt>
      <trkpt lat="41.338375" lon="-8.67449">
        <ele>105.0</ele>
        <time>2019-07-05T14:38:41Z</time>
      </trkpt>
      <trkpt lat="41.338365" lon="-8.674386666666667">
        <ele>105.0</ele>
        <time>2019-07-05T14:38:43Z</time>
      </trkpt>
      <trkpt lat="41.33830666666667" lon="-8.67428">
        <ele>103.0</ele>
        <time>2019-07-05T14:38:46Z</time>
      </trkpt>
      <trkpt lat="41.33824166666667" lon="-8.674186666666667">
        <ele>102.0</ele>
        <time>2019-07-05T14:38:48Z</time>
      </trkpt>
      <trkpt lat="41.33817" lon="-8.67412">
        <ele>102.0</ele>
        <time>2019-07-05T14:38:50Z</time>
      </trkpt>
      <trkpt lat="41.33811" lon="-8.67405">
        <ele>102.0</ele>
        <time>2019-07-05T14:38:52Z</time>
      </trkpt>
      <trkpt lat="41.338065" lon="-8.673945">
        <ele>101.0</ele>
        <time>2019-07-05T14:38:54Z</time>
      </trkpt>
      <trkpt lat="41.33801666666667" lon="-8.67384">
        <ele>100.0</ele>
        <time>2019-07-05T14:38:56Z</time>
      </trkpt>
      <trkpt lat="41.337965" lon="-8.673745">
        <ele>99.0</ele>
        <time>2019-07-05T14:38:58Z</time>
      </trkpt>
      <trkpt lat="41.33790166666667" lon="-8.67367">
        <ele>98.0</ele>
        <time>2019-07-05T14:39:00Z</time>
      </trkpt>
      <trkpt lat="41.337805" lon="-8.67363">
        <ele>99.0</ele>
        <time>2019-07-05T14:39:02Z</time>
      </trkpt>
      <trkpt lat="41.337698333333336" lon="-8.673615">
        <ele>99.0</ele>
        <time>2019-07-05T14:39:04Z</time>
      </trkpt>
      <trkpt lat="41.337606666666666" lon="-8.673635">
        <ele>99.0</ele>
        <time>2019-07-05T14:39:06Z</time>
      </trkpt>
      <trkpt lat="41.337515" lon="-8.67366">
        <ele>99.0</ele>
        <time>2019-07-05T14:39:08Z</time>
      </trkpt>
      <trkpt lat="41.33741666666667" lon="-8.673675">
        <ele>99.0</ele>
        <time>2019-07-05T14:39:10Z</time>
      </trkpt>
      <trkpt lat="41.337315" lon="-8.673655">
        <ele>99.0</ele>
        <time>2019-07-05T14:39:12Z</time>
      </trkpt>
      <trkpt lat="41.337201666666665" lon="-8.673615">
        <ele>99.0</ele>
        <time>2019-07-05T14:39:14Z</time>
      </trkpt>
      <trkpt lat="41.33709" lon="-8.673575">
        <ele>99.0</ele>
        <time>2019-07-05T14:39:16Z</time>
      </trkpt>
      <trkpt lat="41.336975" lon="-8.673525">
        <ele>99.0</ele>
        <time>2019-07-05T14:39:18Z</time>
      </trkpt>
      <trkpt lat="41.33686" lon="-8.673475">
        <ele>99.0</ele>
        <time>2019-07-05T14:39:20Z</time>
      </trkpt>
      <trkpt lat="41.336745" lon="-8.673411666666667">
        <ele>98.0</ele>
        <time>2019-07-05T14:39:22Z</time>
      </trkpt>
      <trkpt lat="41.33663166666667" lon="-8.673351666666667">
        <ele>98.0</ele>
        <time>2019-07-05T14:39:24Z</time>
      </trkpt>
      <trkpt lat="41.336525" lon="-8.673291666666668">
        <ele>98.0</ele>
        <time>2019-07-05T14:39:26Z</time>
      </trkpt>
      <trkpt lat="41.336416666666665" lon="-8.673235">
        <ele>99.0</ele>
        <time>2019-07-05T14:39:28Z</time>
      </trkpt>
      <trkpt lat="41.336325" lon="-8.673195">
        <ele>99.0</ele>
        <time>2019-07-05T14:39:30Z</time>
      </trkpt>
      <trkpt lat="41.336245" lon="-8.67316">
        <ele>100.0</ele>
        <time>2019-07-05T14:39:32Z</time>
      </trkpt>
      <trkpt lat="41.33617666666667" lon="-8.673135">
        <ele>101.0</ele>
        <time>2019-07-05T14:39:34Z</time>
      </trkpt>
      <trkpt lat="41.336075" lon="-8.673111666666667">
        <ele>102.0</ele>
        <time>2019-07-05T14:39:37Z</time>
      </trkpt>
      <trkpt lat="41.33597" lon="-8.673145">
        <ele>102.0</ele>
        <time>2019-07-05T14:39:40Z</time>
      </trkpt>
      <trkpt lat="41.33587" lon="-8.67319">
        <ele>103.0</ele>
        <time>2019-07-05T14:39:43Z</time>
      </trkpt>
      <trkpt lat="41.33577" lon="-8.673235">
        <ele>103.0</ele>
        <time>2019-07-05T14:39:46Z</time>
      </trkpt>
      <trkpt lat="41.33567" lon="-8.67327">
        <ele>105.0</ele>
        <time>2019-07-05T14:39:49Z</time>
      </trkpt>
      <trkpt lat="41.335575" lon="-8.67331">
        <ele>105.0</ele>
        <time>2019-07-05T14:39:52Z</time>
      </trkpt>
      <trkpt lat="41.33547166666666" lon="-8.673351666666667">
        <ele>105.0</ele>
        <time>2019-07-05T14:39:55Z</time>
      </trkpt>
      <trkpt lat="41.335395" lon="-8.673405">
        <ele>105.0</ele>
        <time>2019-07-05T14:39:58Z</time>
      </trkpt>
      <trkpt lat="41.335315" lon="-8.67339">
        <ele>105.0</ele>
        <time>2019-07-05T14:40:04Z</time>
      </trkpt>
      <trkpt lat="41.335276666666665" lon="-8.673298333333333">
        <ele>105.0</ele>
        <time>2019-07-05T14:40:07Z</time>
      </trkpt>
      <trkpt lat="41.33525" lon="-8.67321">
        <ele>105.0</ele>
        <time>2019-07-05T14:40:09Z</time>
      </trkpt>
      <trkpt lat="41.33521666666667" lon="-8.673106666666667">
        <ele>105.0</ele>
        <time>2019-07-05T14:40:11Z</time>
      </trkpt>
      <trkpt lat="41.33519" lon="-8.673">
        <ele>105.0</ele>
        <time>2019-07-05T14:40:13Z</time>
      </trkpt>
      <trkpt lat="41.33516" lon="-8.672883333333333">
        <ele>104.0</ele>
        <time>2019-07-05T14:40:15Z</time>
      </trkpt>
      <trkpt lat="41.33513" lon="-8.67276">
        <ele>104.0</ele>
        <time>2019-07-05T14:40:17Z</time>
      </trkpt>
      <trkpt lat="41.33509" lon="-8.672625">
        <ele>104.0</ele>
        <time>2019-07-05T14:40:19Z</time>
      </trkpt>
      <trkpt lat="41.335051666666665" lon="-8.672475">
        <ele>103.0</ele>
        <time>2019-07-05T14:40:21Z</time>
      </trkpt>
      <trkpt lat="41.335015" lon="-8.67232">
        <ele>103.0</ele>
        <time>2019-07-05T14:40:23Z</time>
      </trkpt>
      <trkpt lat="41.334968333333336" lon="-8.672155">
        <ele>103.0</ele>
        <time>2019-07-05T14:40:25Z</time>
      </trkpt>
      <trkpt lat="41.334915" lon="-8.67198">
        <ele>102.0</ele>
        <time>2019-07-05T14:40:27Z</time>
      </trkpt>
      <trkpt lat="41.33487" lon="-8.671801666666667">
        <ele>102.0</ele>
        <time>2019-07-05T14:40:29Z</time>
      </trkpt>
      <trkpt lat="41.33485" lon="-8.671708333333333">
        <ele>102.0</ele>
        <time>2019-07-05T14:40:30Z</time>
      </trkpt>
      <trkpt lat="41.334826666666665" lon="-8.671616666666667">
        <ele>102.0</ele>
        <time>2019-07-05T14:40:31Z</time>
      </trkpt>
      <trkpt lat="41.334805" lon="-8.671521666666667">
        <ele>102.0</ele>
        <time>2019-07-05T14:40:32Z</time>
      </trkpt>
      <trkpt lat="41.33478" lon="-8.671421666666667">
        <ele>102.0</ele>
        <time>2019-07-05T14:40:33Z</time>
      </trkpt>
      <trkpt lat="41.334755" lon="-8.671325">
        <ele>102.0</ele>
        <time>2019-07-05T14:40:34Z</time>
      </trkpt>
      <trkpt lat="41.33473" lon="-8.671225">
        <ele>101.0</ele>
        <time>2019-07-05T14:40:35Z</time>
      </trkpt>
      <trkpt lat="41.3347" lon="-8.671125">
        <ele>101.0</ele>
        <time>2019-07-05T14:40:36Z</time>
      </trkpt>
      <trkpt lat="41.334671666666665" lon="-8.671025">
        <ele>101.0</ele>
        <time>2019-07-05T14:40:37Z</time>
      </trkpt>
      <trkpt lat="41.334645" lon="-8.67092">
        <ele>101.0</ele>
        <time>2019-07-05T14:40:38Z</time>
      </trkpt>
      <trkpt lat="41.334615" lon="-8.670815">
        <ele>101.0</ele>
        <time>2019-07-05T14:40:39Z</time>
      </trkpt>
      <trkpt lat="41.33459" lon="-8.67071">
        <ele>101.0</ele>
        <time>2019-07-05T14:40:40Z</time>
      </trkpt>
      <trkpt lat="41.33456" lon="-8.670605">
        <ele>100.0</ele>
        <time>2019-07-05T14:40:41Z</time>
      </trkpt>
      <trkpt lat="41.33453" lon="-8.670498333333333">
        <ele>100.0</ele>
        <time>2019-07-05T14:40:42Z</time>
      </trkpt>
      <trkpt lat="41.3345" lon="-8.670395">
        <ele>100.0</ele>
        <time>2019-07-05T14:40:43Z</time>
      </trkpt>
      <trkpt lat="41.33447" lon="-8.670295">
        <ele>100.0</ele>
        <time>2019-07-05T14:40:44Z</time>
      </trkpt>
      <trkpt lat="41.33444" lon="-8.670195">
        <ele>100.0</ele>
        <time>2019-07-05T14:40:45Z</time>
      </trkpt>
      <trkpt lat="41.334405" lon="-8.670095">
        <ele>100.0</ele>
        <time>2019-07-05T14:40:46Z</time>
      </trkpt>
      <trkpt lat="41.334376666666664" lon="-8.669995">
        <ele>100.0</ele>
        <time>2019-07-05T14:40:47Z</time>
      </trkpt>
      <trkpt lat="41.33434666666667" lon="-8.669895">
        <ele>100.0</ele>
        <time>2019-07-05T14:40:48Z</time>
      </trkpt>
      <trkpt lat="41.33432" lon="-8.669801666666666">
        <ele>100.0</ele>
        <time>2019-07-05T14:40:49Z</time>
      </trkpt>
      <trkpt lat="41.33429" lon="-8.669705">
        <ele>100.0</ele>
        <time>2019-07-05T14:40:50Z</time>
      </trkpt>
      <trkpt lat="41.33426166666667" lon="-8.66961">
        <ele>100.0</ele>
        <time>2019-07-05T14:40:51Z</time>
      </trkpt>
      <trkpt lat="41.334235" lon="-8.669515">
        <ele>100.0</ele>
        <time>2019-07-05T14:40:52Z</time>
      </trkpt>
      <trkpt lat="41.33421" lon="-8.66942">
        <ele>100.0</ele>
        <time>2019-07-05T14:40:53Z</time>
      </trkpt>
      <trkpt lat="41.33419" lon="-8.669325">
        <ele>100.0</ele>
        <time>2019-07-05T14:40:54Z</time>
      </trkpt>
      <trkpt lat="41.33416166666667" lon="-8.669235">
        <ele>100.0</ele>
        <time>2019-07-05T14:40:55Z</time>
      </trkpt>
      <trkpt lat="41.334135" lon="-8.66914">
        <ele>100.0</ele>
        <time>2019-07-05T14:40:56Z</time>
      </trkpt>
      <trkpt lat="41.33411" lon="-8.66905">
        <ele>100.0</ele>
        <time>2019-07-05T14:40:57Z</time>
      </trkpt>
      <trkpt lat="41.33408" lon="-8.668956666666666">
        <ele>100.0</ele>
        <time>2019-07-05T14:40:58Z</time>
      </trkpt>
      <trkpt lat="41.33405" lon="-8.66887">
        <ele>100.0</ele>
        <time>2019-07-05T14:40:59Z</time>
      </trkpt>
      <trkpt lat="41.33402" lon="-8.66878">
        <ele>100.0</ele>
        <time>2019-07-05T14:41:00Z</time>
      </trkpt>
      <trkpt lat="41.33399" lon="-8.668685">
        <ele>100.0</ele>
        <time>2019-07-05T14:41:01Z</time>
      </trkpt>
      <trkpt lat="41.33396" lon="-8.668595">
        <ele>100.0</ele>
        <time>2019-07-05T14:41:02Z</time>
      </trkpt>
      <trkpt lat="41.333935" lon="-8.668505">
        <ele>100.0</ele>
        <time>2019-07-05T14:41:03Z</time>
      </trkpt>
      <trkpt lat="41.333885" lon="-8.66833">
        <ele>100.0</ele>
        <time>2019-07-05T14:41:05Z</time>
      </trkpt>
      <trkpt lat="41.333835" lon="-8.668175">
        <ele>100.0</ele>
        <time>2019-07-05T14:41:07Z</time>
      </trkpt>
      <trkpt lat="41.33379" lon="-8.66803">
        <ele>101.0</ele>
        <time>2019-07-05T14:41:09Z</time>
      </trkpt>
      <trkpt lat="41.33375" lon="-8.667891666666666">
        <ele>102.0</ele>
        <time>2019-07-05T14:41:11Z</time>
      </trkpt>
      <trkpt lat="41.33371" lon="-8.667765">
        <ele>102.0</ele>
        <time>2019-07-05T14:41:13Z</time>
      </trkpt>
      <trkpt lat="41.33367" lon="-8.667645">
        <ele>102.0</ele>
        <time>2019-07-05T14:41:15Z</time>
      </trkpt>
      <trkpt lat="41.33363666666666" lon="-8.66751">
        <ele>103.0</ele>
        <time>2019-07-05T14:41:17Z</time>
      </trkpt>
      <trkpt lat="41.333616666666664" lon="-8.667385">
        <ele>103.0</ele>
        <time>2019-07-05T14:41:19Z</time>
      </trkpt>
      <trkpt lat="41.333605" lon="-8.667255">
        <ele>104.0</ele>
        <time>2019-07-05T14:41:21Z</time>
      </trkpt>
      <trkpt lat="41.33361166666667" lon="-8.667125">
        <ele>104.0</ele>
        <time>2019-07-05T14:41:23Z</time>
      </trkpt>
      <trkpt lat="41.33362666666667" lon="-8.66699">
        <ele>104.0</ele>
        <time>2019-07-05T14:41:25Z</time>
      </trkpt>
      <trkpt lat="41.333635" lon="-8.666865">
        <ele>104.0</ele>
        <time>2019-07-05T14:41:27Z</time>
      </trkpt>
      <trkpt lat="41.33363" lon="-8.666731666666667">
        <ele>104.0</ele>
        <time>2019-07-05T14:41:29Z</time>
      </trkpt>
      <trkpt lat="41.333605" lon="-8.666605">
        <ele>104.0</ele>
        <time>2019-07-05T14:41:31Z</time>
      </trkpt>
      <trkpt lat="41.33357" lon="-8.666471666666666">
        <ele>104.0</ele>
        <time>2019-07-05T14:41:33Z</time>
      </trkpt>
      <trkpt lat="41.33354" lon="-8.666335">
        <ele>104.0</ele>
        <time>2019-07-05T14:41:35Z</time>
      </trkpt>
      <trkpt lat="41.33351" lon="-8.6662">
        <ele>104.0</ele>
        <time>2019-07-05T14:41:37Z</time>
      </trkpt>
      <trkpt lat="41.333475" lon="-8.666065">
        <ele>104.0</ele>
        <time>2019-07-05T14:41:39Z</time>
      </trkpt>
      <trkpt lat="41.33344" lon="-8.665931666666667">
        <ele>104.0</ele>
        <time>2019-07-05T14:41:41Z</time>
      </trkpt>
      <trkpt lat="41.333405" lon="-8.665805">
        <ele>104.0</ele>
        <time>2019-07-05T14:41:43Z</time>
      </trkpt>
      <trkpt lat="41.333371666666665" lon="-8.665675">
        <ele>104.0</ele>
        <time>2019-07-05T14:41:45Z</time>
      </trkpt>
      <trkpt lat="41.33334" lon="-8.66554">
        <ele>105.0</ele>
        <time>2019-07-05T14:41:47Z</time>
      </trkpt>
      <trkpt lat="41.33329666666667" lon="-8.66541">
        <ele>105.0</ele>
        <time>2019-07-05T14:41:49Z</time>
      </trkpt>
      <trkpt lat="41.33325" lon="-8.66529">
        <ele>105.0</ele>
        <time>2019-07-05T14:41:51Z</time>
      </trkpt>
      <trkpt lat="41.333196666666666" lon="-8.665175">
        <ele>106.0</ele>
        <time>2019-07-05T14:41:53Z</time>
      </trkpt>
      <trkpt lat="41.333135" lon="-8.665065">
        <ele>107.0</ele>
        <time>2019-07-05T14:41:55Z</time>
      </trkpt>
      <trkpt lat="41.333075" lon="-8.66494">
        <ele>107.0</ele>
        <time>2019-07-05T14:41:57Z</time>
      </trkpt>
      <trkpt lat="41.33301" lon="-8.66483">
        <ele>107.0</ele>
        <time>2019-07-05T14:41:59Z</time>
      </trkpt>
      <trkpt lat="41.332935" lon="-8.664715">
        <ele>107.0</ele>
        <time>2019-07-05T14:42:01Z</time>
      </trkpt>
      <trkpt lat="41.33286666666667" lon="-8.664595">
        <ele>106.0</ele>
        <time>2019-07-05T14:42:03Z</time>
      </trkpt>
      <trkpt lat="41.332805" lon="-8.664475">
        <ele>106.0</ele>
        <time>2019-07-05T14:42:05Z</time>
      </trkpt>
      <trkpt lat="41.332745" lon="-8.664365">
        <ele>106.0</ele>
        <time>2019-07-05T14:42:07Z</time>
      </trkpt>
      <trkpt lat="41.33268" lon="-8.664251666666667">
        <ele>107.0</ele>
        <time>2019-07-05T14:42:09Z</time>
      </trkpt>
      <trkpt lat="41.33261" lon="-8.664151666666667">
        <ele>107.0</ele>
        <time>2019-07-05T14:42:11Z</time>
      </trkpt>
      <trkpt lat="41.332535" lon="-8.664065">
        <ele>108.0</ele>
        <time>2019-07-05T14:42:13Z</time>
      </trkpt>
      <trkpt lat="41.332455" lon="-8.66399">
        <ele>109.0</ele>
        <time>2019-07-05T14:42:15Z</time>
      </trkpt>
      <trkpt lat="41.33238" lon="-8.663906666666668">
        <ele>109.0</ele>
        <time>2019-07-05T14:42:17Z</time>
      </trkpt>
      <trkpt lat="41.332305" lon="-8.663835">
        <ele>109.0</ele>
        <time>2019-07-05T14:42:19Z</time>
      </trkpt>
      <trkpt lat="41.332235" lon="-8.663765">
        <ele>110.0</ele>
        <time>2019-07-05T14:42:21Z</time>
      </trkpt>
      <trkpt lat="41.332165" lon="-8.66369">
        <ele>110.0</ele>
        <time>2019-07-05T14:42:23Z</time>
      </trkpt>
      <trkpt lat="41.332095" lon="-8.663615">
        <ele>110.0</ele>
        <time>2019-07-05T14:42:25Z</time>
      </trkpt>
      <trkpt lat="41.332025" lon="-8.663536666666667">
        <ele>111.0</ele>
        <time>2019-07-05T14:42:27Z</time>
      </trkpt>
      <trkpt lat="41.33194666666667" lon="-8.66346">
        <ele>112.0</ele>
        <time>2019-07-05T14:42:29Z</time>
      </trkpt>
      <trkpt lat="41.331873333333334" lon="-8.663385">
        <ele>112.0</ele>
        <time>2019-07-05T14:42:31Z</time>
      </trkpt>
      <trkpt lat="41.33181" lon="-8.66331">
        <ele>113.0</ele>
        <time>2019-07-05T14:42:33Z</time>
      </trkpt>
      <trkpt lat="41.331745" lon="-8.66323">
        <ele>114.0</ele>
        <time>2019-07-05T14:42:35Z</time>
      </trkpt>
      <trkpt lat="41.33168" lon="-8.663155">
        <ele>115.0</ele>
        <time>2019-07-05T14:42:37Z</time>
      </trkpt>
      <trkpt lat="41.331615" lon="-8.663065">
        <ele>115.0</ele>
        <time>2019-07-05T14:42:39Z</time>
      </trkpt>
      <trkpt lat="41.331545" lon="-8.662995">
        <ele>115.0</ele>
        <time>2019-07-05T14:42:41Z</time>
      </trkpt>
      <trkpt lat="41.331465" lon="-8.662936666666667">
        <ele>115.0</ele>
        <time>2019-07-05T14:42:43Z</time>
      </trkpt>
      <trkpt lat="41.33138666666667" lon="-8.662861666666666">
        <ele>116.0</ele>
        <time>2019-07-05T14:42:45Z</time>
      </trkpt>
      <trkpt lat="41.33131" lon="-8.662783333333334">
        <ele>116.0</ele>
        <time>2019-07-05T14:42:47Z</time>
      </trkpt>
      <trkpt lat="41.33124" lon="-8.662706666666667">
        <ele>116.0</ele>
        <time>2019-07-05T14:42:49Z</time>
      </trkpt>
      <trkpt lat="41.33117" lon="-8.662635">
        <ele>116.0</ele>
        <time>2019-07-05T14:42:51Z</time>
      </trkpt>
      <trkpt lat="41.331095" lon="-8.662555">
        <ele>117.0</ele>
        <time>2019-07-05T14:42:53Z</time>
      </trkpt>
      <trkpt lat="41.331015" lon="-8.66248">
        <ele>117.0</ele>
        <time>2019-07-05T14:42:55Z</time>
      </trkpt>
      <trkpt lat="41.33094" lon="-8.6624">
        <ele>117.0</ele>
        <time>2019-07-05T14:42:57Z</time>
      </trkpt>
      <trkpt lat="41.33087166666667" lon="-8.66232">
        <ele>117.0</ele>
        <time>2019-07-05T14:42:59Z</time>
      </trkpt>
      <trkpt lat="41.330796666666664" lon="-8.66225">
        <ele>118.0</ele>
        <time>2019-07-05T14:43:01Z</time>
      </trkpt>
      <trkpt lat="41.33072166666667" lon="-8.662176666666667">
        <ele>117.0</ele>
        <time>2019-07-05T14:43:03Z</time>
      </trkpt>
      <trkpt lat="41.330645" lon="-8.662101666666667">
        <ele>117.0</ele>
        <time>2019-07-05T14:43:05Z</time>
      </trkpt>
      <trkpt lat="41.33057" lon="-8.66202">
        <ele>117.0</ele>
        <time>2019-07-05T14:43:07Z</time>
      </trkpt>
      <trkpt lat="41.330495" lon="-8.661945">
        <ele>117.0</ele>
        <time>2019-07-05T14:43:09Z</time>
      </trkpt>
      <trkpt lat="41.330415" lon="-8.661855">
        <ele>117.0</ele>
        <time>2019-07-05T14:43:11Z</time>
      </trkpt>
      <trkpt lat="41.330335" lon="-8.661775">
        <ele>117.0</ele>
        <time>2019-07-05T14:43:13Z</time>
      </trkpt>
      <trkpt lat="41.33026" lon="-8.6617">
        <ele>116.0</ele>
        <time>2019-07-05T14:43:15Z</time>
      </trkpt>
      <trkpt lat="41.330185" lon="-8.661615">
        <ele>116.0</ele>
        <time>2019-07-05T14:43:17Z</time>
      </trkpt>
      <trkpt lat="41.330105" lon="-8.661525">
        <ele>116.0</ele>
        <time>2019-07-05T14:43:19Z</time>
      </trkpt>
      <trkpt lat="41.33003" lon="-8.661425">
        <ele>115.0</ele>
        <time>2019-07-05T14:43:21Z</time>
      </trkpt>
      <trkpt lat="41.329945" lon="-8.66131">
        <ele>115.0</ele>
        <time>2019-07-05T14:43:23Z</time>
      </trkpt>
      <trkpt lat="41.329865" lon="-8.661191666666667">
        <ele>115.0</ele>
        <time>2019-07-05T14:43:25Z</time>
      </trkpt>
      <trkpt lat="41.32979" lon="-8.661075">
        <ele>115.0</ele>
        <time>2019-07-05T14:43:27Z</time>
      </trkpt>
      <trkpt lat="41.32972" lon="-8.660956666666667">
        <ele>115.0</ele>
        <time>2019-07-05T14:43:29Z</time>
      </trkpt>
      <trkpt lat="41.32965" lon="-8.660841666666666">
        <ele>115.0</ele>
        <time>2019-07-05T14:43:31Z</time>
      </trkpt>
      <trkpt lat="41.329575" lon="-8.660735">
        <ele>115.0</ele>
        <time>2019-07-05T14:43:33Z</time>
      </trkpt>
      <trkpt lat="41.32951166666667" lon="-8.66063">
        <ele>115.0</ele>
        <time>2019-07-05T14:43:35Z</time>
      </trkpt>
      <trkpt lat="41.329456666666665" lon="-8.660535">
        <ele>116.0</ele>
        <time>2019-07-05T14:43:37Z</time>
      </trkpt>
      <trkpt lat="41.329405" lon="-8.66045">
        <ele>116.0</ele>
        <time>2019-07-05T14:43:39Z</time>
      </trkpt>
      <trkpt lat="41.32935166666667" lon="-8.660371666666666">
        <ele>117.0</ele>
        <time>2019-07-05T14:43:41Z</time>
      </trkpt>
      <trkpt lat="41.329298333333334" lon="-8.660295">
        <ele>117.0</ele>
        <time>2019-07-05T14:43:43Z</time>
      </trkpt>
      <trkpt lat="41.329245" lon="-8.660211666666667">
        <ele>118.0</ele>
        <time>2019-07-05T14:43:45Z</time>
      </trkpt>
      <trkpt lat="41.32919" lon="-8.660125">
        <ele>118.0</ele>
        <time>2019-07-05T14:43:47Z</time>
      </trkpt>
      <trkpt lat="41.329135" lon="-8.66004">
        <ele>118.0</ele>
        <time>2019-07-05T14:43:49Z</time>
      </trkpt>
      <trkpt lat="41.32908" lon="-8.65996">
        <ele>119.0</ele>
        <time>2019-07-05T14:43:51Z</time>
      </trkpt>
      <trkpt lat="41.329025" lon="-8.65988">
        <ele>120.0</ele>
        <time>2019-07-05T14:43:53Z</time>
      </trkpt>
      <trkpt lat="41.32897" lon="-8.6598">
        <ele>120.0</ele>
        <time>2019-07-05T14:43:55Z</time>
      </trkpt>
      <trkpt lat="41.328916666666665" lon="-8.659716666666666">
        <ele>120.0</ele>
        <time>2019-07-05T14:43:57Z</time>
      </trkpt>
      <trkpt lat="41.32886" lon="-8.659635">
        <ele>121.0</ele>
        <time>2019-07-05T14:43:59Z</time>
      </trkpt>
      <trkpt lat="41.328805" lon="-8.65955">
        <ele>121.0</ele>
        <time>2019-07-05T14:44:01Z</time>
      </trkpt>
      <trkpt lat="41.32875" lon="-8.65946">
        <ele>121.0</ele>
        <time>2019-07-05T14:44:03Z</time>
      </trkpt>
      <trkpt lat="41.328696666666666" lon="-8.659366666666667">
        <ele>121.0</ele>
        <time>2019-07-05T14:44:05Z</time>
      </trkpt>
      <trkpt lat="41.32864" lon="-8.65928">
        <ele>121.0</ele>
        <time>2019-07-05T14:44:07Z</time>
      </trkpt>
      <trkpt lat="41.32858" lon="-8.65919">
        <ele>121.0</ele>
        <time>2019-07-05T14:44:09Z</time>
      </trkpt>
      <trkpt lat="41.32851" lon="-8.659095">
        <ele>121.0</ele>
        <time>2019-07-05T14:44:11Z</time>
      </trkpt>
      <trkpt lat="41.328445" lon="-8.65899">
        <ele>121.0</ele>
        <time>2019-07-05T14:44:13Z</time>
      </trkpt>
      <trkpt lat="41.328375" lon="-8.658875">
        <ele>120.0</ele>
        <time>2019-07-05T14:44:15Z</time>
      </trkpt>
      <trkpt lat="41.32829" lon="-8.65876">
        <ele>120.0</ele>
        <time>2019-07-05T14:44:17Z</time>
      </trkpt>
      <trkpt lat="41.32820666666667" lon="-8.658645">
        <ele>120.0</ele>
        <time>2019-07-05T14:44:19Z</time>
      </trkpt>
      <trkpt lat="41.328135" lon="-8.65852">
        <ele>120.0</ele>
        <time>2019-07-05T14:44:21Z</time>
      </trkpt>
      <trkpt lat="41.32805" lon="-8.658393333333333">
        <ele>120.0</ele>
        <time>2019-07-05T14:44:23Z</time>
      </trkpt>
      <trkpt lat="41.32797" lon="-8.658275">
        <ele>120.0</ele>
        <time>2019-07-05T14:44:25Z</time>
      </trkpt>
      <trkpt lat="41.32789" lon="-8.658151666666667">
        <ele>120.0</ele>
        <time>2019-07-05T14:44:27Z</time>
      </trkpt>
      <trkpt lat="41.32781166666667" lon="-8.658036666666666">
        <ele>120.0</ele>
        <time>2019-07-05T14:44:29Z</time>
      </trkpt>
      <trkpt lat="41.327735" lon="-8.657918333333333">
        <ele>120.0</ele>
        <time>2019-07-05T14:44:31Z</time>
      </trkpt>
      <trkpt lat="41.32766" lon="-8.657806666666668">
        <ele>121.0</ele>
        <time>2019-07-05T14:44:33Z</time>
      </trkpt>
      <trkpt lat="41.32758666666667" lon="-8.657695">
        <ele>121.0</ele>
        <time>2019-07-05T14:44:35Z</time>
      </trkpt>
      <trkpt lat="41.32752" lon="-8.65759">
        <ele>121.0</ele>
        <time>2019-07-05T14:44:37Z</time>
      </trkpt>
      <trkpt lat="41.327455" lon="-8.657485">
        <ele>122.0</ele>
        <time>2019-07-05T14:44:39Z</time>
      </trkpt>
      <trkpt lat="41.32738666666667" lon="-8.657376666666666">
        <ele>122.0</ele>
        <time>2019-07-05T14:44:41Z</time>
      </trkpt>
      <trkpt lat="41.32732" lon="-8.657275">
        <ele>122.0</ele>
        <time>2019-07-05T14:44:43Z</time>
      </trkpt>
      <trkpt lat="41.327255" lon="-8.657175">
        <ele>122.0</ele>
        <time>2019-07-05T14:44:45Z</time>
      </trkpt>
      <trkpt lat="41.327191666666664" lon="-8.657075">
        <ele>122.0</ele>
        <time>2019-07-05T14:44:47Z</time>
      </trkpt>
      <trkpt lat="41.327125" lon="-8.65699">
        <ele>122.0</ele>
        <time>2019-07-05T14:44:49Z</time>
      </trkpt>
      <trkpt lat="41.32706" lon="-8.65689">
        <ele>123.0</ele>
        <time>2019-07-05T14:44:51Z</time>
      </trkpt>
      <trkpt lat="41.327" lon="-8.65679">
        <ele>123.0</ele>
        <time>2019-07-05T14:44:53Z</time>
      </trkpt>
      <trkpt lat="41.32694" lon="-8.6567">
        <ele>123.0</ele>
        <time>2019-07-05T14:44:55Z</time>
      </trkpt>
      <trkpt lat="41.326875" lon="-8.656606666666667">
        <ele>124.0</ele>
        <time>2019-07-05T14:44:57Z</time>
      </trkpt>
      <trkpt lat="41.326815" lon="-8.656515">
        <ele>123.0</ele>
        <time>2019-07-05T14:44:59Z</time>
      </trkpt>
      <trkpt lat="41.326755" lon="-8.65642">
        <ele>124.0</ele>
        <time>2019-07-05T14:45:01Z</time>
      </trkpt>
      <trkpt lat="41.326695" lon="-8.656325">
        <ele>124.0</ele>
        <time>2019-07-05T14:45:03Z</time>
      </trkpt>
      <trkpt lat="41.326633333333334" lon="-8.65624">
        <ele>124.0</ele>
        <time>2019-07-05T14:45:05Z</time>
      </trkpt>
      <trkpt lat="41.326571666666666" lon="-8.65613">
        <ele>125.0</ele>
        <time>2019-07-05T14:45:07Z</time>
      </trkpt>
      <trkpt lat="41.32650666666667" lon="-8.656035">
        <ele>125.0</ele>
        <time>2019-07-05T14:45:09Z</time>
      </trkpt>
      <trkpt lat="41.326445" lon="-8.655931666666667">
        <ele>125.0</ele>
        <time>2019-07-05T14:45:11Z</time>
      </trkpt>
      <trkpt lat="41.32637666666667" lon="-8.655831666666666">
        <ele>126.0</ele>
        <time>2019-07-05T14:45:13Z</time>
      </trkpt>
      <trkpt lat="41.326315" lon="-8.65573">
        <ele>126.0</ele>
        <time>2019-07-05T14:45:15Z</time>
      </trkpt>
      <trkpt lat="41.326256666666666" lon="-8.655621666666667">
        <ele>126.0</ele>
        <time>2019-07-05T14:45:17Z</time>
      </trkpt>
      <trkpt lat="41.32621" lon="-8.65552">
        <ele>126.0</ele>
        <time>2019-07-05T14:45:18Z</time>
      </trkpt>
      <trkpt lat="41.32617" lon="-8.655416666666667">
        <ele>126.0</ele>
        <time>2019-07-05T14:45:20Z</time>
      </trkpt>
      <trkpt lat="41.32613666666666" lon="-8.65531">
        <ele>127.0</ele>
        <time>2019-07-05T14:45:22Z</time>
      </trkpt>
      <trkpt lat="41.326101666666666" lon="-8.655201666666667">
        <ele>127.0</ele>
        <time>2019-07-05T14:45:24Z</time>
      </trkpt>
      <trkpt lat="41.326075" lon="-8.655093333333333">
        <ele>128.0</ele>
        <time>2019-07-05T14:45:26Z</time>
      </trkpt>
      <trkpt lat="41.32604666666667" lon="-8.65499">
        <ele>128.0</ele>
        <time>2019-07-05T14:45:28Z</time>
      </trkpt>
      <trkpt lat="41.326025" lon="-8.654895">
        <ele>128.0</ele>
        <time>2019-07-05T14:45:30Z</time>
      </trkpt>
      <trkpt lat="41.326" lon="-8.654796666666666">
        <ele>129.0</ele>
        <time>2019-07-05T14:45:32Z</time>
      </trkpt>
      <trkpt lat="41.32598" lon="-8.6547">
        <ele>129.0</ele>
        <time>2019-07-05T14:45:34Z</time>
      </trkpt>
      <trkpt lat="41.325955" lon="-8.654605">
        <ele>130.0</ele>
        <time>2019-07-05T14:45:36Z</time>
      </trkpt>
      <trkpt lat="41.325935" lon="-8.654505">
        <ele>130.0</ele>
        <time>2019-07-05T14:45:39Z</time>
      </trkpt>
      <trkpt lat="41.325895" lon="-8.654371666666666">
        <ele>130.0</ele>
        <time>2019-07-05T14:45:42Z</time>
      </trkpt>
      <trkpt lat="41.32586" lon="-8.654245">
        <ele>131.0</ele>
        <time>2019-07-05T14:45:45Z</time>
      </trkpt>
      <trkpt lat="41.32583" lon="-8.654125">
        <ele>132.0</ele>
        <time>2019-07-05T14:45:48Z</time>
      </trkpt>
      <trkpt lat="41.3258" lon="-8.654">
        <ele>132.0</ele>
        <time>2019-07-05T14:45:51Z</time>
      </trkpt>
      <trkpt lat="41.32577" lon="-8.65387">
        <ele>133.0</ele>
        <time>2019-07-05T14:45:54Z</time>
      </trkpt>
      <trkpt lat="41.325736666666664" lon="-8.653745">
        <ele>133.0</ele>
        <time>2019-07-05T14:45:57Z</time>
      </trkpt>
      <trkpt lat="41.32571" lon="-8.653615">
        <ele>134.0</ele>
        <time>2019-07-05T14:46:00Z</time>
      </trkpt>
      <trkpt lat="41.32568" lon="-8.653495">
        <ele>134.0</ele>
        <time>2019-07-05T14:46:03Z</time>
      </trkpt>
      <trkpt lat="41.32565666666667" lon="-8.653385">
        <ele>134.0</ele>
        <time>2019-07-05T14:46:06Z</time>
      </trkpt>
      <trkpt lat="41.325631666666666" lon="-8.65327">
        <ele>135.0</ele>
        <time>2019-07-05T14:46:09Z</time>
      </trkpt>
      <trkpt lat="41.325615" lon="-8.653155">
        <ele>136.0</ele>
        <time>2019-07-05T14:46:12Z</time>
      </trkpt>
      <trkpt lat="41.32559" lon="-8.65304">
        <ele>136.0</ele>
        <time>2019-07-05T14:46:15Z</time>
      </trkpt>
      <trkpt lat="41.32557" lon="-8.652925">
        <ele>137.0</ele>
        <time>2019-07-05T14:46:18Z</time>
      </trkpt>
      <trkpt lat="41.325535" lon="-8.652816666666666">
        <ele>138.0</ele>
        <time>2019-07-05T14:46:21Z</time>
      </trkpt>
      <trkpt lat="41.325515" lon="-8.652696666666667">
        <ele>139.0</ele>
        <time>2019-07-05T14:46:24Z</time>
      </trkpt>
      <trkpt lat="41.325485" lon="-8.652585">
        <ele>139.0</ele>
        <time>2019-07-05T14:46:27Z</time>
      </trkpt>
      <trkpt lat="41.325455" lon="-8.652466666666667">
        <ele>139.0</ele>
        <time>2019-07-05T14:46:30Z</time>
      </trkpt>
      <trkpt lat="41.325428333333335" lon="-8.652355">
        <ele>140.0</ele>
        <time>2019-07-05T14:46:33Z</time>
      </trkpt>
      <trkpt lat="41.325415" lon="-8.652233333333333">
        <ele>141.0</ele>
        <time>2019-07-05T14:46:36Z</time>
      </trkpt>
      <trkpt lat="41.325415" lon="-8.65212">
        <ele>141.0</ele>
        <time>2019-07-05T14:46:39Z</time>
      </trkpt>
      <trkpt lat="41.32544" lon="-8.652005">
        <ele>141.0</ele>
        <time>2019-07-05T14:46:42Z</time>
      </trkpt>
      <trkpt lat="41.325475" lon="-8.6519">
        <ele>142.0</ele>
        <time>2019-07-05T14:46:45Z</time>
      </trkpt>
      <trkpt lat="41.32552" lon="-8.651795">
        <ele>142.0</ele>
        <time>2019-07-05T14:46:48Z</time>
      </trkpt>
      <trkpt lat="41.325565" lon="-8.651686666666667">
        <ele>143.0</ele>
        <time>2019-07-05T14:46:50Z</time>
      </trkpt>
      <trkpt lat="41.32561" lon="-8.65158">
        <ele>143.0</ele>
        <time>2019-07-05T14:46:54Z</time>
      </trkpt>
      <trkpt lat="41.325651666666666" lon="-8.651465">
        <ele>143.0</ele>
        <time>2019-07-05T14:46:57Z</time>
      </trkpt>
      <trkpt lat="41.3257" lon="-8.651343333333333">
        <ele>144.0</ele>
        <time>2019-07-05T14:46:59Z</time>
      </trkpt>
      <trkpt lat="41.32575" lon="-8.65123">
        <ele>145.0</ele>
        <time>2019-07-05T14:47:02Z</time>
      </trkpt>
      <trkpt lat="41.325795" lon="-8.651116666666667">
        <ele>145.0</ele>
        <time>2019-07-05T14:47:05Z</time>
      </trkpt>
      <trkpt lat="41.325835" lon="-8.65101">
        <ele>146.0</ele>
        <time>2019-07-05T14:47:09Z</time>
      </trkpt>
      <trkpt lat="41.325876666666666" lon="-8.65091">
        <ele>146.0</ele>
        <time>2019-07-05T14:47:12Z</time>
      </trkpt>
      <trkpt lat="41.325915" lon="-8.650805">
        <ele>147.0</ele>
        <time>2019-07-05T14:47:15Z</time>
      </trkpt>
      <trkpt lat="41.32595166666667" lon="-8.650698333333333">
        <ele>148.0</ele>
        <time>2019-07-05T14:47:18Z</time>
      </trkpt>
      <trkpt lat="41.325986666666665" lon="-8.6506">
        <ele>148.0</ele>
        <time>2019-07-05T14:47:21Z</time>
      </trkpt>
      <trkpt lat="41.326025" lon="-8.6505">
        <ele>148.0</ele>
        <time>2019-07-05T14:47:24Z</time>
      </trkpt>
      <trkpt lat="41.32606" lon="-8.650396666666667">
        <ele>149.0</ele>
        <time>2019-07-05T14:47:27Z</time>
      </trkpt>
      <trkpt lat="41.32608666666667" lon="-8.650285">
        <ele>149.0</ele>
        <time>2019-07-05T14:47:30Z</time>
      </trkpt>
      <trkpt lat="41.3261" lon="-8.650165">
        <ele>149.0</ele>
        <time>2019-07-05T14:47:33Z</time>
      </trkpt>
      <trkpt lat="41.32608166666667" lon="-8.650045">
        <ele>149.0</ele>
        <time>2019-07-05T14:47:36Z</time>
      </trkpt>
      <trkpt lat="41.32604" lon="-8.64994">
        <ele>148.0</ele>
        <time>2019-07-05T14:47:39Z</time>
      </trkpt>
      <trkpt lat="41.325975" lon="-8.649846666666667">
        <ele>148.0</ele>
        <time>2019-07-05T14:47:42Z</time>
      </trkpt>
      <trkpt lat="41.325915" lon="-8.64975">
        <ele>148.0</ele>
        <time>2019-07-05T14:47:45Z</time>
      </trkpt>
      <trkpt lat="41.32586" lon="-8.649665">
        <ele>148.0</ele>
        <time>2019-07-05T14:47:48Z</time>
      </trkpt>
      <trkpt lat="41.3258" lon="-8.64958">
        <ele>148.0</ele>
        <time>2019-07-05T14:47:51Z</time>
      </trkpt>
      <trkpt lat="41.325745" lon="-8.649475">
        <ele>150.0</ele>
        <time>2019-07-05T14:47:54Z</time>
      </trkpt>
      <trkpt lat="41.325685" lon="-8.649371666666667">
        <ele>150.0</ele>
        <time>2019-07-05T14:47:57Z</time>
      </trkpt>
      <trkpt lat="41.32562166666666" lon="-8.649265">
        <ele>151.0</ele>
        <time>2019-07-05T14:48:00Z</time>
      </trkpt>
      <trkpt lat="41.32557666666667" lon="-8.64919">
        <ele>152.0</ele>
        <time>2019-07-05T14:48:02Z</time>
      </trkpt>
      <trkpt lat="41.325515" lon="-8.649085">
        <ele>152.0</ele>
        <time>2019-07-05T14:48:05Z</time>
      </trkpt>
      <trkpt lat="41.325450000000004" lon="-8.648985">
        <ele>152.0</ele>
        <time>2019-07-05T14:48:08Z</time>
      </trkpt>
      <trkpt lat="41.32539" lon="-8.648881666666666">
        <ele>152.0</ele>
        <time>2019-07-05T14:48:11Z</time>
      </trkpt>
      <trkpt lat="41.325325" lon="-8.648781666666666">
        <ele>152.0</ele>
        <time>2019-07-05T14:48:14Z</time>
      </trkpt>
      <trkpt lat="41.325265" lon="-8.648685">
        <ele>153.0</ele>
        <time>2019-07-05T14:48:17Z</time>
      </trkpt>
      <trkpt lat="41.325201666666665" lon="-8.648595">
        <ele>152.0</ele>
        <time>2019-07-05T14:48:20Z</time>
      </trkpt>
      <trkpt lat="41.325145" lon="-8.64851">
        <ele>153.0</ele>
        <time>2019-07-05T14:48:23Z</time>
      </trkpt>
      <trkpt lat="41.325095" lon="-8.648415">
        <ele>153.0</ele>
        <time>2019-07-05T14:48:26Z</time>
      </trkpt>
      <trkpt lat="41.325046666666665" lon="-8.648315">
        <ele>153.0</ele>
        <time>2019-07-05T14:48:29Z</time>
      </trkpt>
      <trkpt lat="41.32501166666667" lon="-8.64821">
        <ele>153.0</ele>
        <time>2019-07-05T14:48:32Z</time>
      </trkpt>
      <trkpt lat="41.324976666666664" lon="-8.648103333333333">
        <ele>153.0</ele>
        <time>2019-07-05T14:48:35Z</time>
      </trkpt>
      <trkpt lat="41.32495" lon="-8.647995">
        <ele>153.0</ele>
        <time>2019-07-05T14:48:38Z</time>
      </trkpt>
      <trkpt lat="41.32492" lon="-8.647885">
        <ele>154.0</ele>
        <time>2019-07-05T14:48:41Z</time>
      </trkpt>
      <trkpt lat="41.32489" lon="-8.647775">
        <ele>154.0</ele>
        <time>2019-07-05T14:48:44Z</time>
      </trkpt>
      <trkpt lat="41.32486" lon="-8.647663333333334">
        <ele>154.0</ele>
        <time>2019-07-05T14:48:47Z</time>
      </trkpt>
      <trkpt lat="41.324821666666665" lon="-8.647565">
        <ele>155.0</ele>
        <time>2019-07-05T14:48:50Z</time>
      </trkpt>
      <trkpt lat="41.324785" lon="-8.647456666666667">
        <ele>156.0</ele>
        <time>2019-07-05T14:48:53Z</time>
      </trkpt>
      <trkpt lat="41.324735" lon="-8.64737">
        <ele>157.0</ele>
        <time>2019-07-05T14:48:56Z</time>
      </trkpt>
      <trkpt lat="41.324685" lon="-8.64728">
        <ele>159.0</ele>
        <time>2019-07-05T14:48:59Z</time>
      </trkpt>
      <trkpt lat="41.32462666666667" lon="-8.647205">
        <ele>159.0</ele>
        <time>2019-07-05T14:49:02Z</time>
      </trkpt>
      <trkpt lat="41.324556666666666" lon="-8.647116666666667">
        <ele>159.0</ele>
        <time>2019-07-05T14:49:05Z</time>
      </trkpt>
      <trkpt lat="41.324495" lon="-8.64703">
        <ele>160.0</ele>
        <time>2019-07-05T14:49:08Z</time>
      </trkpt>
      <trkpt lat="41.324435" lon="-8.64695">
        <ele>160.0</ele>
        <time>2019-07-05T14:49:11Z</time>
      </trkpt>
      <trkpt lat="41.324365" lon="-8.646865">
        <ele>161.0</ele>
        <time>2019-07-05T14:49:14Z</time>
      </trkpt>
      <trkpt lat="41.32430333333333" lon="-8.64678">
        <ele>163.0</ele>
        <time>2019-07-05T14:49:17Z</time>
      </trkpt>
      <trkpt lat="41.32424" lon="-8.646691666666667">
        <ele>163.0</ele>
        <time>2019-07-05T14:49:20Z</time>
      </trkpt>
      <trkpt lat="41.324175" lon="-8.646603333333333">
        <ele>164.0</ele>
        <time>2019-07-05T14:49:23Z</time>
      </trkpt>
      <trkpt lat="41.324115" lon="-8.64652">
        <ele>163.0</ele>
        <time>2019-07-05T14:49:26Z</time>
      </trkpt>
      <trkpt lat="41.324045" lon="-8.646435">
        <ele>162.0</ele>
        <time>2019-07-05T14:49:29Z</time>
      </trkpt>
      <trkpt lat="41.32401" lon="-8.64634">
        <ele>161.0</ele>
        <time>2019-07-05T14:49:32Z</time>
      </trkpt>
      <trkpt lat="41.32401" lon="-8.646215">
        <ele>161.0</ele>
        <time>2019-07-05T14:49:35Z</time>
      </trkpt>
      <trkpt lat="41.32401" lon="-8.646073333333334">
        <ele>163.0</ele>
        <time>2019-07-05T14:49:38Z</time>
      </trkpt>
      <trkpt lat="41.32401" lon="-8.645941666666667">
        <ele>163.0</ele>
        <time>2019-07-05T14:49:41Z</time>
      </trkpt>
      <trkpt lat="41.324025" lon="-8.645805">
        <ele>164.0</ele>
        <time>2019-07-05T14:49:44Z</time>
      </trkpt>
      <trkpt lat="41.32403" lon="-8.64571">
        <ele>165.0</ele>
        <time>2019-07-05T14:49:46Z</time>
      </trkpt>
      <trkpt lat="41.324035" lon="-8.645575">
        <ele>166.0</ele>
        <time>2019-07-05T14:49:49Z</time>
      </trkpt>
      <trkpt lat="41.32403166666667" lon="-8.645445">
        <ele>167.0</ele>
        <time>2019-07-05T14:49:52Z</time>
      </trkpt>
      <trkpt lat="41.324025" lon="-8.645316666666666">
        <ele>168.0</ele>
        <time>2019-07-05T14:49:55Z</time>
      </trkpt>
      <trkpt lat="41.32401" lon="-8.64519">
        <ele>168.0</ele>
        <time>2019-07-05T14:49:58Z</time>
      </trkpt>
      <trkpt lat="41.32396166666667" lon="-8.645075">
        <ele>168.0</ele>
        <time>2019-07-05T14:50:01Z</time>
      </trkpt>
      <trkpt lat="41.32391166666667" lon="-8.644965">
        <ele>168.0</ele>
        <time>2019-07-05T14:50:04Z</time>
      </trkpt>
      <trkpt lat="41.32385" lon="-8.64488">
        <ele>169.0</ele>
        <time>2019-07-05T14:50:07Z</time>
      </trkpt>
      <trkpt lat="41.323775" lon="-8.64482">
        <ele>168.0</ele>
        <time>2019-07-05T14:50:10Z</time>
      </trkpt>
      <trkpt lat="41.3237" lon="-8.64481">
        <ele>168.0</ele>
        <time>2019-07-05T14:50:13Z</time>
      </trkpt>
      <trkpt lat="41.32362" lon="-8.64481">
        <ele>167.0</ele>
        <time>2019-07-05T14:50:16Z</time>
      </trkpt>
      <trkpt lat="41.323526666666666" lon="-8.644803333333334">
        <ele>167.0</ele>
        <time>2019-07-05T14:50:20Z</time>
      </trkpt>
      <trkpt lat="41.32345" lon="-8.64478">
        <ele>167.0</ele>
        <time>2019-07-05T14:50:23Z</time>
      </trkpt>
      <trkpt lat="41.323375" lon="-8.64474">
        <ele>167.0</ele>
        <time>2019-07-05T14:50:26Z</time>
      </trkpt>
      <trkpt lat="41.32329166666667" lon="-8.6447">
        <ele>167.0</ele>
        <time>2019-07-05T14:50:30Z</time>
      </trkpt>
      <trkpt lat="41.32322666666666" lon="-8.644633333333333">
        <ele>168.0</ele>
        <time>2019-07-05T14:50:33Z</time>
      </trkpt>
      <trkpt lat="41.323165" lon="-8.644578333333333">
        <ele>167.0</ele>
        <time>2019-07-05T14:50:36Z</time>
      </trkpt>
      <trkpt lat="41.323095" lon="-8.644545">
        <ele>167.0</ele>
        <time>2019-07-05T14:50:39Z</time>
      </trkpt>
      <trkpt lat="41.323015" lon="-8.64447">
        <ele>167.0</ele>
        <time>2019-07-05T14:50:43Z</time>
      </trkpt>
      <trkpt lat="41.322945" lon="-8.644435">
        <ele>166.0</ele>
        <time>2019-07-05T14:50:46Z</time>
      </trkpt>
      <trkpt lat="41.322885" lon="-8.644353333333333">
        <ele>168.0</ele>
        <time>2019-07-05T14:50:50Z</time>
      </trkpt>
      <trkpt lat="41.32281" lon="-8.644285">
        <ele>167.0</ele>
        <time>2019-07-05T14:50:54Z</time>
      </trkpt>
      <trkpt lat="41.32274" lon="-8.64423">
        <ele>168.0</ele>
        <time>2019-07-05T14:50:58Z</time>
      </trkpt>
      <trkpt lat="41.32267" lon="-8.644155">
        <ele>171.0</ele>
        <time>2019-07-05T14:51:01Z</time>
      </trkpt>
      <trkpt lat="41.322595" lon="-8.644066666666667">
        <ele>172.0</ele>
        <time>2019-07-05T14:51:05Z</time>
      </trkpt>
      <trkpt lat="41.322543333333336" lon="-8.643971666666667">
        <ele>172.0</ele>
        <time>2019-07-05T14:51:08Z</time>
      </trkpt>
      <trkpt lat="41.32252166666667" lon="-8.643853333333333">
        <ele>174.0</ele>
        <time>2019-07-05T14:51:11Z</time>
      </trkpt>
      <trkpt lat="41.32250666666667" lon="-8.643746666666667">
        <ele>177.0</ele>
        <time>2019-07-05T14:51:14Z</time>
      </trkpt>
      <trkpt lat="41.322505" lon="-8.64362">
        <ele>177.0</ele>
        <time>2019-07-05T14:51:18Z</time>
      </trkpt>
      <trkpt lat="41.322511666666664" lon="-8.64352">
        <ele>179.0</ele>
        <time>2019-07-05T14:51:21Z</time>
      </trkpt>
      <trkpt lat="41.322525" lon="-8.643425">
        <ele>179.0</ele>
        <time>2019-07-05T14:51:24Z</time>
      </trkpt>
      <trkpt lat="41.32253" lon="-8.643303333333334">
        <ele>180.0</ele>
        <time>2019-07-05T14:51:28Z</time>
      </trkpt>
      <trkpt lat="41.322543333333336" lon="-8.643205">
        <ele>180.0</ele>
        <time>2019-07-05T14:51:31Z</time>
      </trkpt>
      <trkpt lat="41.322525" lon="-8.643081666666667">
        <ele>180.0</ele>
        <time>2019-07-05T14:51:34Z</time>
      </trkpt>
      <trkpt lat="41.32248833333333" lon="-8.64297">
        <ele>180.0</ele>
        <time>2019-07-05T14:51:37Z</time>
      </trkpt>
      <trkpt lat="41.322451666666666" lon="-8.642868333333332">
        <ele>179.0</ele>
        <time>2019-07-05T14:51:40Z</time>
      </trkpt>
      <trkpt lat="41.322415" lon="-8.64278">
        <ele>179.0</ele>
        <time>2019-07-05T14:51:43Z</time>
      </trkpt>
      <trkpt lat="41.32238" lon="-8.642691666666666">
        <ele>180.0</ele>
        <time>2019-07-05T14:51:46Z</time>
      </trkpt>
      <trkpt lat="41.32234" lon="-8.64258">
        <ele>180.0</ele>
        <time>2019-07-05T14:51:50Z</time>
      </trkpt>
      <trkpt lat="41.322295" lon="-8.642473333333333">
        <ele>180.0</ele>
        <time>2019-07-05T14:51:54Z</time>
      </trkpt>
      <trkpt lat="41.322255" lon="-8.642378333333333">
        <ele>182.0</ele>
        <time>2019-07-05T14:51:57Z</time>
      </trkpt>
      <trkpt lat="41.3222" lon="-8.64228">
        <ele>182.0</ele>
        <time>2019-07-05T14:52:01Z</time>
      </trkpt>
      <trkpt lat="41.322155" lon="-8.642185">
        <ele>184.0</ele>
        <time>2019-07-05T14:52:04Z</time>
      </trkpt>
      <trkpt lat="41.322105" lon="-8.642115">
        <ele>183.0</ele>
        <time>2019-07-05T14:52:07Z</time>
      </trkpt>
      <trkpt lat="41.32205" lon="-8.64203">
        <ele>183.0</ele>
        <time>2019-07-05T14:52:10Z</time>
      </trkpt>
      <trkpt lat="41.321995" lon="-8.64193">
        <ele>184.0</ele>
        <time>2019-07-05T14:52:13Z</time>
      </trkpt>
      <trkpt lat="41.321935" lon="-8.64184">
        <ele>183.0</ele>
        <time>2019-07-05T14:52:17Z</time>
      </trkpt>
      <trkpt lat="41.32188" lon="-8.64177">
        <ele>183.0</ele>
        <time>2019-07-05T14:52:20Z</time>
      </trkpt>
      <trkpt lat="41.32184" lon="-8.641678333333333">
        <ele>185.0</ele>
        <time>2019-07-05T14:52:23Z</time>
      </trkpt>
      <trkpt lat="41.321783333333336" lon="-8.641601666666666">
        <ele>185.0</ele>
        <time>2019-07-05T14:52:26Z</time>
      </trkpt>
      <trkpt lat="41.321735" lon="-8.641523333333334">
        <ele>185.0</ele>
        <time>2019-07-05T14:52:29Z</time>
      </trkpt>
      <trkpt lat="41.321685" lon="-8.641445">
        <ele>186.0</ele>
        <time>2019-07-05T14:52:32Z</time>
      </trkpt>
      <trkpt lat="41.321625" lon="-8.64137">
        <ele>186.0</ele>
        <time>2019-07-05T14:52:35Z</time>
      </trkpt>
      <trkpt lat="41.32156166666667" lon="-8.641298333333333">
        <ele>187.0</ele>
        <time>2019-07-05T14:52:38Z</time>
      </trkpt>
      <trkpt lat="41.3215" lon="-8.641235">
        <ele>188.0</ele>
        <time>2019-07-05T14:52:41Z</time>
      </trkpt>
      <trkpt lat="41.32143" lon="-8.641183333333334">
        <ele>189.0</ele>
        <time>2019-07-05T14:52:44Z</time>
      </trkpt>
      <trkpt lat="41.321365" lon="-8.64112">
        <ele>190.0</ele>
        <time>2019-07-05T14:52:47Z</time>
      </trkpt>
      <trkpt lat="41.3213" lon="-8.641045">
        <ele>191.0</ele>
        <time>2019-07-05T14:52:50Z</time>
      </trkpt>
      <trkpt lat="41.32125" lon="-8.640946666666666">
        <ele>192.0</ele>
        <time>2019-07-05T14:52:53Z</time>
      </trkpt>
      <trkpt lat="41.32122" lon="-8.64084">
        <ele>193.0</ele>
        <time>2019-07-05T14:52:56Z</time>
      </trkpt>
      <trkpt lat="41.32119" lon="-8.640726666666668">
        <ele>194.0</ele>
        <time>2019-07-05T14:52:59Z</time>
      </trkpt>
      <trkpt lat="41.32117" lon="-8.640625">
        <ele>194.0</ele>
        <time>2019-07-05T14:53:02Z</time>
      </trkpt>
      <trkpt lat="41.321151666666665" lon="-8.64052">
        <ele>195.0</ele>
        <time>2019-07-05T14:53:05Z</time>
      </trkpt>
      <trkpt lat="41.321115" lon="-8.640425">
        <ele>196.0</ele>
        <time>2019-07-05T14:53:08Z</time>
      </trkpt>
      <trkpt lat="41.321056666666664" lon="-8.640345">
        <ele>196.0</ele>
        <time>2019-07-05T14:53:11Z</time>
      </trkpt>
      <trkpt lat="41.321015" lon="-8.64027">
        <ele>195.0</ele>
        <time>2019-07-05T14:53:14Z</time>
      </trkpt>
      <trkpt lat="41.32095" lon="-8.64019">
        <ele>196.0</ele>
        <time>2019-07-05T14:53:18Z</time>
      </trkpt>
      <trkpt lat="41.32089" lon="-8.640128333333333">
        <ele>197.0</ele>
        <time>2019-07-05T14:53:22Z</time>
      </trkpt>
      <trkpt lat="41.32082" lon="-8.640075">
        <ele>197.0</ele>
        <time>2019-07-05T14:53:25Z</time>
      </trkpt>
      <trkpt lat="41.320735" lon="-8.64002">
        <ele>195.0</ele>
        <time>2019-07-05T14:53:29Z</time>
      </trkpt>
      <trkpt lat="41.320656666666665" lon="-8.63995">
        <ele>195.0</ele>
        <time>2019-07-05T14:53:33Z</time>
      </trkpt>
      <trkpt lat="41.32064" lon="-8.639855">
        <ele>195.0</ele>
        <time>2019-07-05T14:53:36Z</time>
      </trkpt>
      <trkpt lat="41.3206" lon="-8.63974">
        <ele>195.0</ele>
        <time>2019-07-05T14:53:40Z</time>
      </trkpt>
      <trkpt lat="41.320565" lon="-8.639645">
        <ele>194.0</ele>
        <time>2019-07-05T14:53:43Z</time>
      </trkpt>
      <trkpt lat="41.32054" lon="-8.63954">
        <ele>196.0</ele>
        <time>2019-07-05T14:53:46Z</time>
      </trkpt>
      <trkpt lat="41.32051" lon="-8.639445">
        <ele>196.0</ele>
        <time>2019-07-05T14:53:49Z</time>
      </trkpt>
      <trkpt lat="41.3205" lon="-8.63934">
        <ele>196.0</ele>
        <time>2019-07-05T14:53:52Z</time>
      </trkpt>
      <trkpt lat="41.32049" lon="-8.63923">
        <ele>197.0</ele>
        <time>2019-07-05T14:53:55Z</time>
      </trkpt>
      <trkpt lat="41.320465" lon="-8.63913">
        <ele>199.0</ele>
        <time>2019-07-05T14:53:58Z</time>
      </trkpt>
      <trkpt lat="41.320445" lon="-8.63902">
        <ele>200.0</ele>
        <time>2019-07-05T14:54:01Z</time>
      </trkpt>
      <trkpt lat="41.32043" lon="-8.638915">
        <ele>202.0</ele>
        <time>2019-07-05T14:54:04Z</time>
      </trkpt>
      <trkpt lat="41.320405" lon="-8.63879">
        <ele>202.0</ele>
        <time>2019-07-05T14:54:08Z</time>
      </trkpt>
      <trkpt lat="41.32039" lon="-8.638695">
        <ele>203.0</ele>
        <time>2019-07-05T14:54:11Z</time>
      </trkpt>
      <trkpt lat="41.320366666666665" lon="-8.638595">
        <ele>204.0</ele>
        <time>2019-07-05T14:54:14Z</time>
      </trkpt>
      <trkpt lat="41.32035166666667" lon="-8.638498333333333">
        <ele>205.0</ele>
        <time>2019-07-05T14:54:17Z</time>
      </trkpt>
      <trkpt lat="41.32033" lon="-8.638401666666667">
        <ele>205.0</ele>
        <time>2019-07-05T14:54:20Z</time>
      </trkpt>
      <trkpt lat="41.32030666666667" lon="-8.638301666666667">
        <ele>205.0</ele>
        <time>2019-07-05T14:54:23Z</time>
      </trkpt>
      <trkpt lat="41.320276666666665" lon="-8.638205">
        <ele>206.0</ele>
        <time>2019-07-05T14:54:26Z</time>
      </trkpt>
      <trkpt lat="41.320256666666666" lon="-8.638105">
        <ele>208.0</ele>
        <time>2019-07-05T14:54:29Z</time>
      </trkpt>
      <trkpt lat="41.320225" lon="-8.638016666666667">
        <ele>208.0</ele>
        <time>2019-07-05T14:54:32Z</time>
      </trkpt>
      <trkpt lat="41.32019" lon="-8.637896666666666">
        <ele>209.0</ele>
        <time>2019-07-05T14:54:36Z</time>
      </trkpt>
      <trkpt lat="41.32013666666667" lon="-8.63779">
        <ele>210.0</ele>
        <time>2019-07-05T14:54:40Z</time>
      </trkpt>
      <trkpt lat="41.320085" lon="-8.637675">
        <ele>211.0</ele>
        <time>2019-07-05T14:54:44Z</time>
      </trkpt>
      <trkpt lat="41.32004166666667" lon="-8.637595">
        <ele>211.0</ele>
        <time>2019-07-05T14:54:47Z</time>
      </trkpt>
      <trkpt lat="41.32" lon="-8.637515">
        <ele>212.0</ele>
        <time>2019-07-05T14:54:50Z</time>
      </trkpt>
      <trkpt lat="41.319955" lon="-8.637433333333334">
        <ele>212.0</ele>
        <time>2019-07-05T14:54:53Z</time>
      </trkpt>
      <trkpt lat="41.31991" lon="-8.637355">
        <ele>213.0</ele>
        <time>2019-07-05T14:54:56Z</time>
      </trkpt>
      <trkpt lat="41.319845" lon="-8.637261666666667">
        <ele>214.0</ele>
        <time>2019-07-05T14:55:00Z</time>
      </trkpt>
      <trkpt lat="41.319786666666666" lon="-8.63719">
        <ele>215.0</ele>
        <time>2019-07-05T14:55:03Z</time>
      </trkpt>
      <trkpt lat="41.31973833333333" lon="-8.637113333333334">
        <ele>215.0</ele>
        <time>2019-07-05T14:55:06Z</time>
      </trkpt>
      <trkpt lat="41.31969" lon="-8.63704">
        <ele>217.0</ele>
        <time>2019-07-05T14:55:09Z</time>
      </trkpt>
      <trkpt lat="41.31964" lon="-8.636935">
        <ele>218.0</ele>
        <time>2019-07-05T14:55:13Z</time>
      </trkpt>
      <trkpt lat="41.3196" lon="-8.63685">
        <ele>218.0</ele>
        <time>2019-07-05T14:55:16Z</time>
      </trkpt>
      <trkpt lat="41.319541666666666" lon="-8.63675">
        <ele>220.0</ele>
        <time>2019-07-05T14:55:20Z</time>
      </trkpt>
      <trkpt lat="41.3195" lon="-8.63667">
        <ele>220.0</ele>
        <time>2019-07-05T14:55:23Z</time>
      </trkpt>
      <trkpt lat="41.319455" lon="-8.63659">
        <ele>220.0</ele>
        <time>2019-07-05T14:55:26Z</time>
      </trkpt>
      <trkpt lat="41.3194" lon="-8.636526666666667">
        <ele>221.0</ele>
        <time>2019-07-05T14:55:29Z</time>
      </trkpt>
      <trkpt lat="41.319358333333334" lon="-8.636431666666667">
        <ele>222.0</ele>
        <time>2019-07-05T14:55:32Z</time>
      </trkpt>
      <trkpt lat="41.31930666666667" lon="-8.636335">
        <ele>221.0</ele>
        <time>2019-07-05T14:55:36Z</time>
      </trkpt>
      <trkpt lat="41.31925666666667" lon="-8.636266666666666">
        <ele>221.0</ele>
        <time>2019-07-05T14:55:39Z</time>
      </trkpt>
      <trkpt lat="41.319225" lon="-8.63618">
        <ele>220.0</ele>
        <time>2019-07-05T14:55:42Z</time>
      </trkpt>
      <trkpt lat="41.31918" lon="-8.636093333333333">
        <ele>220.0</ele>
        <time>2019-07-05T14:55:45Z</time>
      </trkpt>
      <trkpt lat="41.319145" lon="-8.636011666666667">
        <ele>219.0</ele>
        <time>2019-07-05T14:55:48Z</time>
      </trkpt>
      <trkpt lat="41.3191" lon="-8.63593">
        <ele>220.0</ele>
        <time>2019-07-05T14:55:51Z</time>
      </trkpt>
      <trkpt lat="41.319045" lon="-8.63584">
        <ele>221.0</ele>
        <time>2019-07-05T14:55:55Z</time>
      </trkpt>
      <trkpt lat="41.31901" lon="-8.635748333333334">
        <ele>222.0</ele>
        <time>2019-07-05T14:55:58Z</time>
      </trkpt>
      <trkpt lat="41.318976666666664" lon="-8.635665">
        <ele>222.0</ele>
        <time>2019-07-05T14:56:01Z</time>
      </trkpt>
      <trkpt lat="41.31893" lon="-8.635578333333333">
        <ele>224.0</ele>
        <time>2019-07-05T14:56:04Z</time>
      </trkpt>
      <trkpt lat="41.31888" lon="-8.635501666666666">
        <ele>224.0</ele>
        <time>2019-07-05T14:56:07Z</time>
      </trkpt>
      <trkpt lat="41.318835" lon="-8.635423333333334">
        <ele>224.0</ele>
        <time>2019-07-05T14:56:10Z</time>
      </trkpt>
      <trkpt lat="41.31879" lon="-8.635333333333334">
        <ele>224.0</ele>
        <time>2019-07-05T14:56:13Z</time>
      </trkpt>
      <trkpt lat="41.318725" lon="-8.63523">
        <ele>225.0</ele>
        <time>2019-07-05T14:56:16Z</time>
      </trkpt>
      <trkpt lat="41.31865" lon="-8.63515">
        <ele>224.0</ele>
        <time>2019-07-05T14:56:19Z</time>
      </trkpt>
      <trkpt lat="41.31859" lon="-8.63507">
        <ele>225.0</ele>
        <time>2019-07-05T14:56:22Z</time>
      </trkpt>
      <trkpt lat="41.31852" lon="-8.635011666666667">
        <ele>224.0</ele>
        <time>2019-07-05T14:56:25Z</time>
      </trkpt>
      <trkpt lat="41.318435" lon="-8.634945">
        <ele>224.0</ele>
        <time>2019-07-05T14:56:28Z</time>
      </trkpt>
      <trkpt lat="41.31834" lon="-8.634916666666667">
        <ele>224.0</ele>
        <time>2019-07-05T14:56:31Z</time>
      </trkpt>
      <trkpt lat="41.318235" lon="-8.6349">
        <ele>225.0</ele>
        <time>2019-07-05T14:56:34Z</time>
      </trkpt>
      <trkpt lat="41.31813" lon="-8.634893333333334">
        <ele>225.0</ele>
        <time>2019-07-05T14:56:37Z</time>
      </trkpt>
      <trkpt lat="41.318055" lon="-8.6349">
        <ele>226.0</ele>
        <time>2019-07-05T14:56:39Z</time>
      </trkpt>
      <trkpt lat="41.31798166666667" lon="-8.634893333333334">
        <ele>226.0</ele>
        <time>2019-07-05T14:56:41Z</time>
      </trkpt>
      <trkpt lat="41.317905" lon="-8.634905">
        <ele>227.0</ele>
        <time>2019-07-05T14:56:43Z</time>
      </trkpt>
      <trkpt lat="41.317825" lon="-8.6349">
        <ele>227.0</ele>
        <time>2019-07-05T14:56:45Z</time>
      </trkpt>
      <trkpt lat="41.317755" lon="-8.634905">
        <ele>227.0</ele>
        <time>2019-07-05T14:56:47Z</time>
      </trkpt>
      <trkpt lat="41.31768" lon="-8.63491">
        <ele>227.0</ele>
        <time>2019-07-05T14:56:49Z</time>
      </trkpt>
      <trkpt lat="41.317605" lon="-8.634913333333333">
        <ele>227.0</ele>
        <time>2019-07-05T14:56:51Z</time>
      </trkpt>
      <trkpt lat="41.31753" lon="-8.634913333333333">
        <ele>227.0</ele>
        <time>2019-07-05T14:56:53Z</time>
      </trkpt>
      <trkpt lat="41.317455" lon="-8.634925">
        <ele>227.0</ele>
        <time>2019-07-05T14:56:55Z</time>
      </trkpt>
      <trkpt lat="41.31738" lon="-8.634935">
        <ele>227.0</ele>
        <time>2019-07-05T14:56:57Z</time>
      </trkpt>
      <trkpt lat="41.317275" lon="-8.63494">
        <ele>227.0</ele>
        <time>2019-07-05T14:57:00Z</time>
      </trkpt>
      <trkpt lat="41.3172" lon="-8.63495">
        <ele>227.0</ele>
        <time>2019-07-05T14:57:02Z</time>
      </trkpt>
      <trkpt lat="41.317125" lon="-8.63495">
        <ele>227.0</ele>
        <time>2019-07-05T14:57:04Z</time>
      </trkpt>
      <trkpt lat="41.31704666666667" lon="-8.63496">
        <ele>227.0</ele>
        <time>2019-07-05T14:57:06Z</time>
      </trkpt>
      <trkpt lat="41.31697" lon="-8.634965">
        <ele>228.0</ele>
        <time>2019-07-05T14:57:08Z</time>
      </trkpt>
      <trkpt lat="41.316865" lon="-8.63496">
        <ele>228.0</ele>
        <time>2019-07-05T14:57:11Z</time>
      </trkpt>
      <trkpt lat="41.316786666666665" lon="-8.634966666666667">
        <ele>229.0</ele>
        <time>2019-07-05T14:57:13Z</time>
      </trkpt>
      <trkpt lat="41.31668" lon="-8.63498">
        <ele>230.0</ele>
        <time>2019-07-05T14:57:16Z</time>
      </trkpt>
      <trkpt lat="41.316605" lon="-8.634985">
        <ele>230.0</ele>
        <time>2019-07-05T14:57:18Z</time>
      </trkpt>
      <trkpt lat="41.31652666666667" lon="-8.634996666666666">
        <ele>230.0</ele>
        <time>2019-07-05T14:57:20Z</time>
      </trkpt>
      <trkpt lat="41.31645" lon="-8.635005">
        <ele>231.0</ele>
        <time>2019-07-05T14:57:22Z</time>
      </trkpt>
      <trkpt lat="41.316375" lon="-8.635008333333333">
        <ele>231.0</ele>
        <time>2019-07-05T14:57:24Z</time>
      </trkpt>
      <trkpt lat="41.3163" lon="-8.635011666666667">
        <ele>231.0</ele>
        <time>2019-07-05T14:57:26Z</time>
      </trkpt>
      <trkpt lat="41.316225" lon="-8.635013333333333">
        <ele>232.0</ele>
        <time>2019-07-05T14:57:28Z</time>
      </trkpt>
      <trkpt lat="41.31615" lon="-8.635011666666667">
        <ele>232.0</ele>
        <time>2019-07-05T14:57:30Z</time>
      </trkpt>
      <trkpt lat="41.316075" lon="-8.635005">
        <ele>232.0</ele>
        <time>2019-07-05T14:57:32Z</time>
      </trkpt>
      <trkpt lat="41.316" lon="-8.634996666666666">
        <ele>232.0</ele>
        <time>2019-07-05T14:57:34Z</time>
      </trkpt>
      <trkpt lat="41.31592" lon="-8.634976666666667">
        <ele>232.0</ele>
        <time>2019-07-05T14:57:36Z</time>
      </trkpt>
      <trkpt lat="41.315845" lon="-8.63495">
        <ele>233.0</ele>
        <time>2019-07-05T14:57:38Z</time>
      </trkpt>
      <trkpt lat="41.315775" lon="-8.634925">
        <ele>233.0</ele>
        <time>2019-07-05T14:57:40Z</time>
      </trkpt>
      <trkpt lat="41.3157" lon="-8.63489">
        <ele>234.0</ele>
        <time>2019-07-05T14:57:42Z</time>
      </trkpt>
      <trkpt lat="41.315625" lon="-8.634855">
        <ele>234.0</ele>
        <time>2019-07-05T14:57:44Z</time>
      </trkpt>
      <trkpt lat="41.315556666666666" lon="-8.634816666666667">
        <ele>234.0</ele>
        <time>2019-07-05T14:57:46Z</time>
      </trkpt>
      <trkpt lat="41.31549" lon="-8.634775">
        <ele>234.0</ele>
        <time>2019-07-05T14:57:48Z</time>
      </trkpt>
      <trkpt lat="41.315421666666666" lon="-8.634728333333333">
        <ele>235.0</ele>
        <time>2019-07-05T14:57:50Z</time>
      </trkpt>
      <trkpt lat="41.31536" lon="-8.634685">
        <ele>235.0</ele>
        <time>2019-07-05T14:57:52Z</time>
      </trkpt>
      <trkpt lat="41.315275" lon="-8.634628333333334">
        <ele>235.0</ele>
        <time>2019-07-05T14:57:55Z</time>
      </trkpt>
      <trkpt lat="41.31519333333333" lon="-8.63457">
        <ele>236.0</ele>
        <time>2019-07-05T14:57:58Z</time>
      </trkpt>
      <trkpt lat="41.315126666666664" lon="-8.634525">
        <ele>236.0</ele>
        <time>2019-07-05T14:58:00Z</time>
      </trkpt>
      <trkpt lat="41.315043333333335" lon="-8.634465">
        <ele>237.0</ele>
        <time>2019-07-05T14:58:03Z</time>
      </trkpt>
      <trkpt lat="41.314951666666666" lon="-8.634401666666667">
        <ele>237.0</ele>
        <time>2019-07-05T14:58:06Z</time>
      </trkpt>
      <trkpt lat="41.314856666666664" lon="-8.634346666666668">
        <ele>237.0</ele>
        <time>2019-07-05T14:58:09Z</time>
      </trkpt>
      <trkpt lat="41.314765" lon="-8.634285">
        <ele>237.0</ele>
        <time>2019-07-05T14:58:12Z</time>
      </trkpt>
      <trkpt lat="41.31469" lon="-8.634245">
        <ele>236.0</ele>
        <time>2019-07-05T14:58:14Z</time>
      </trkpt>
      <trkpt lat="41.314615" lon="-8.63421">
        <ele>236.0</ele>
        <time>2019-07-05T14:58:16Z</time>
      </trkpt>
      <trkpt lat="41.314535" lon="-8.634175">
        <ele>236.0</ele>
        <time>2019-07-05T14:58:18Z</time>
      </trkpt>
      <trkpt lat="41.31445166666666" lon="-8.634146666666666">
        <ele>236.0</ele>
        <time>2019-07-05T14:58:20Z</time>
      </trkpt>
      <trkpt lat="41.314365" lon="-8.63413">
        <ele>236.0</ele>
        <time>2019-07-05T14:58:22Z</time>
      </trkpt>
      <trkpt lat="41.31428" lon="-8.634105">
        <ele>235.0</ele>
        <time>2019-07-05T14:58:24Z</time>
      </trkpt>
      <trkpt lat="41.314185" lon="-8.634098333333334">
        <ele>235.0</ele>
        <time>2019-07-05T14:58:26Z</time>
      </trkpt>
      <trkpt lat="41.314095" lon="-8.634095">
        <ele>235.0</ele>
        <time>2019-07-05T14:58:28Z</time>
      </trkpt>
      <trkpt lat="41.314" lon="-8.634095">
        <ele>236.0</ele>
        <time>2019-07-05T14:58:30Z</time>
      </trkpt>
      <trkpt lat="41.313901666666666" lon="-8.634095">
        <ele>236.0</ele>
        <time>2019-07-05T14:58:32Z</time>
      </trkpt>
      <trkpt lat="41.313805" lon="-8.634098333333334">
        <ele>236.0</ele>
        <time>2019-07-05T14:58:34Z</time>
      </trkpt>
      <trkpt lat="41.313705" lon="-8.634105">
        <ele>236.0</ele>
        <time>2019-07-05T14:58:36Z</time>
      </trkpt>
      <trkpt lat="41.313605" lon="-8.634105">
        <ele>236.0</ele>
        <time>2019-07-05T14:58:38Z</time>
      </trkpt>
      <trkpt lat="41.313505" lon="-8.63411">
        <ele>236.0</ele>
        <time>2019-07-05T14:58:40Z</time>
      </trkpt>
      <trkpt lat="41.313405" lon="-8.634106666666666">
        <ele>236.0</ele>
        <time>2019-07-05T14:58:42Z</time>
      </trkpt>
      <trkpt lat="41.313305" lon="-8.63411">
        <ele>235.0</ele>
        <time>2019-07-05T14:58:44Z</time>
      </trkpt>
      <trkpt lat="41.313206666666666" lon="-8.63411">
        <ele>236.0</ele>
        <time>2019-07-05T14:58:46Z</time>
      </trkpt>
      <trkpt lat="41.3131" lon="-8.634115">
        <ele>235.0</ele>
        <time>2019-07-05T14:58:48Z</time>
      </trkpt>
      <trkpt lat="41.312985" lon="-8.63411">
        <ele>235.0</ele>
        <time>2019-07-05T14:58:50Z</time>
      </trkpt>
      <trkpt lat="41.312875" lon="-8.634115">
        <ele>235.0</ele>
        <time>2019-07-05T14:58:52Z</time>
      </trkpt>
      <trkpt lat="41.31276166666667" lon="-8.634118333333333">
        <ele>234.0</ele>
        <time>2019-07-05T14:58:54Z</time>
      </trkpt>
      <trkpt lat="41.31263833333333" lon="-8.634116666666667">
        <ele>234.0</ele>
        <time>2019-07-05T14:58:56Z</time>
      </trkpt>
      <trkpt lat="41.31251" lon="-8.634118333333333">
        <ele>234.0</ele>
        <time>2019-07-05T14:58:58Z</time>
      </trkpt>
      <trkpt lat="41.312375" lon="-8.634118333333333">
        <ele>234.0</ele>
        <time>2019-07-05T14:59:00Z</time>
      </trkpt>
      <trkpt lat="41.31224" lon="-8.634116666666667">
        <ele>234.0</ele>
        <time>2019-07-05T14:59:02Z</time>
      </trkpt>
      <trkpt lat="41.31211" lon="-8.634118333333333">
        <ele>233.0</ele>
        <time>2019-07-05T14:59:04Z</time>
      </trkpt>
      <trkpt lat="41.31198" lon="-8.634115">
        <ele>233.0</ele>
        <time>2019-07-05T14:59:06Z</time>
      </trkpt>
      <trkpt lat="41.31185" lon="-8.634098333333334">
        <ele>233.0</ele>
        <time>2019-07-05T14:59:08Z</time>
      </trkpt>
      <trkpt lat="41.311735" lon="-8.634071666666667">
        <ele>233.0</ele>
        <time>2019-07-05T14:59:10Z</time>
      </trkpt>
      <trkpt lat="41.31161" lon="-8.634026666666667">
        <ele>233.0</ele>
        <time>2019-07-05T14:59:12Z</time>
      </trkpt>
      <trkpt lat="41.3115" lon="-8.633981666666667">
        <ele>232.0</ele>
        <time>2019-07-05T14:59:14Z</time>
      </trkpt>
      <trkpt lat="41.311385" lon="-8.633933333333333">
        <ele>232.0</ele>
        <time>2019-07-05T14:59:16Z</time>
      </trkpt>
      <trkpt lat="41.31127166666667" lon="-8.633888333333333">
        <ele>232.0</ele>
        <time>2019-07-05T14:59:18Z</time>
      </trkpt>
      <trkpt lat="41.31117" lon="-8.633845">
        <ele>233.0</ele>
        <time>2019-07-05T14:59:20Z</time>
      </trkpt>
      <trkpt lat="41.311075" lon="-8.633805">
        <ele>233.0</ele>
        <time>2019-07-05T14:59:22Z</time>
      </trkpt>
      <trkpt lat="41.31099" lon="-8.633775">
        <ele>233.0</ele>
        <time>2019-07-05T14:59:24Z</time>
      </trkpt>
      <trkpt lat="41.310905" lon="-8.633743333333333">
        <ele>233.0</ele>
        <time>2019-07-05T14:59:26Z</time>
      </trkpt>
      <trkpt lat="41.31082" lon="-8.633703333333333">
        <ele>234.0</ele>
        <time>2019-07-05T14:59:28Z</time>
      </trkpt>
      <trkpt lat="41.310735" lon="-8.633663333333333">
        <ele>235.0</ele>
        <time>2019-07-05T14:59:30Z</time>
      </trkpt>
      <trkpt lat="41.31066" lon="-8.633636666666666">
        <ele>236.0</ele>
        <time>2019-07-05T14:59:32Z</time>
      </trkpt>
      <trkpt lat="41.310585" lon="-8.633608333333333">
        <ele>236.0</ele>
        <time>2019-07-05T14:59:34Z</time>
      </trkpt>
      <trkpt lat="41.310516666666665" lon="-8.63358">
        <ele>236.0</ele>
        <time>2019-07-05T14:59:36Z</time>
      </trkpt>
      <trkpt lat="41.31044" lon="-8.633545">
        <ele>237.0</ele>
        <time>2019-07-05T14:59:38Z</time>
      </trkpt>
      <trkpt lat="41.310356666666664" lon="-8.633516666666667">
        <ele>237.0</ele>
        <time>2019-07-05T14:59:40Z</time>
      </trkpt>
      <trkpt lat="41.310285" lon="-8.63349">
        <ele>238.0</ele>
        <time>2019-07-05T14:59:42Z</time>
      </trkpt>
      <trkpt lat="41.310185" lon="-8.63345">
        <ele>238.0</ele>
        <time>2019-07-05T14:59:45Z</time>
      </trkpt>
      <trkpt lat="41.310111666666664" lon="-8.633418333333333">
        <ele>239.0</ele>
        <time>2019-07-05T14:59:47Z</time>
      </trkpt>
      <trkpt lat="41.31004166666666" lon="-8.633395">
        <ele>240.0</ele>
        <time>2019-07-05T14:59:49Z</time>
      </trkpt>
      <trkpt lat="41.30994166666667" lon="-8.633355">
        <ele>241.0</ele>
        <time>2019-07-05T14:59:52Z</time>
      </trkpt>
      <trkpt lat="41.309845" lon="-8.633315">
        <ele>242.0</ele>
        <time>2019-07-05T14:59:55Z</time>
      </trkpt>
      <trkpt lat="41.309745" lon="-8.63328">
        <ele>242.0</ele>
        <time>2019-07-05T14:59:58Z</time>
      </trkpt>
      <trkpt lat="41.309675" lon="-8.633246666666667">
        <ele>242.0</ele>
        <time>2019-07-05T15:00:00Z</time>
      </trkpt>
      <trkpt lat="41.309605" lon="-8.633205">
        <ele>242.0</ele>
        <time>2019-07-05T15:00:02Z</time>
      </trkpt>
      <trkpt lat="41.30954" lon="-8.633155">
        <ele>242.0</ele>
        <time>2019-07-05T15:00:04Z</time>
      </trkpt>
      <trkpt lat="41.30947" lon="-8.633096666666667">
        <ele>243.0</ele>
        <time>2019-07-05T15:00:06Z</time>
      </trkpt>
      <trkpt lat="41.309405" lon="-8.63303">
        <ele>243.0</ele>
        <time>2019-07-05T15:00:08Z</time>
      </trkpt>
      <trkpt lat="41.30935" lon="-8.632955">
        <ele>242.0</ele>
        <time>2019-07-05T15:00:10Z</time>
      </trkpt>
      <trkpt lat="41.309295" lon="-8.63287">
        <ele>243.0</ele>
        <time>2019-07-05T15:00:12Z</time>
      </trkpt>
      <trkpt lat="41.30924666666667" lon="-8.632771666666667">
        <ele>243.0</ele>
        <time>2019-07-05T15:00:14Z</time>
      </trkpt>
      <trkpt lat="41.309196666666665" lon="-8.632675">
        <ele>243.0</ele>
        <time>2019-07-05T15:00:16Z</time>
      </trkpt>
      <trkpt lat="41.309151666666665" lon="-8.632575">
        <ele>243.0</ele>
        <time>2019-07-05T15:00:18Z</time>
      </trkpt>
      <trkpt lat="41.309115" lon="-8.632465">
        <ele>243.0</ele>
        <time>2019-07-05T15:00:20Z</time>
      </trkpt>
      <trkpt lat="41.309081666666664" lon="-8.632365">
        <ele>243.0</ele>
        <time>2019-07-05T15:00:22Z</time>
      </trkpt>
      <trkpt lat="41.30905" lon="-8.632265">
        <ele>244.0</ele>
        <time>2019-07-05T15:00:24Z</time>
      </trkpt>
      <trkpt lat="41.309021666666666" lon="-8.632175">
        <ele>245.0</ele>
        <time>2019-07-05T15:00:26Z</time>
      </trkpt>
      <trkpt lat="41.308975" lon="-8.632045">
        <ele>244.0</ele>
        <time>2019-07-05T15:00:29Z</time>
      </trkpt>
      <trkpt lat="41.308935" lon="-8.631956666666667">
        <ele>245.0</ele>
        <time>2019-07-05T15:00:31Z</time>
      </trkpt>
      <trkpt lat="41.308906666666665" lon="-8.631866666666667">
        <ele>246.0</ele>
        <time>2019-07-05T15:00:33Z</time>
      </trkpt>
      <trkpt lat="41.30887" lon="-8.631735">
        <ele>246.0</ele>
        <time>2019-07-05T15:00:36Z</time>
      </trkpt>
      <trkpt lat="41.308825" lon="-8.631605">
        <ele>246.0</ele>
        <time>2019-07-05T15:00:39Z</time>
      </trkpt>
      <trkpt lat="41.30878" lon="-8.63147">
        <ele>246.0</ele>
        <time>2019-07-05T15:00:42Z</time>
      </trkpt>
      <trkpt lat="41.30875" lon="-8.63138">
        <ele>247.0</ele>
        <time>2019-07-05T15:00:44Z</time>
      </trkpt>
      <trkpt lat="41.30872166666666" lon="-8.63129">
        <ele>247.0</ele>
        <time>2019-07-05T15:00:46Z</time>
      </trkpt>
      <trkpt lat="41.30868" lon="-8.631161666666667">
        <ele>247.0</ele>
        <time>2019-07-05T15:00:49Z</time>
      </trkpt>
      <trkpt lat="41.30864" lon="-8.631035">
        <ele>248.0</ele>
        <time>2019-07-05T15:00:52Z</time>
      </trkpt>
      <trkpt lat="41.308595" lon="-8.630906666666666">
        <ele>249.0</ele>
        <time>2019-07-05T15:00:55Z</time>
      </trkpt>
      <trkpt lat="41.308551666666666" lon="-8.63078">
        <ele>249.0</ele>
        <time>2019-07-05T15:00:58Z</time>
      </trkpt>
      <trkpt lat="41.3085" lon="-8.630655">
        <ele>249.0</ele>
        <time>2019-07-05T15:01:01Z</time>
      </trkpt>
      <trkpt lat="41.30844666666667" lon="-8.630535">
        <ele>250.0</ele>
        <time>2019-07-05T15:01:04Z</time>
      </trkpt>
      <trkpt lat="41.308386666666664" lon="-8.63042">
        <ele>251.0</ele>
        <time>2019-07-05T15:01:07Z</time>
      </trkpt>
      <trkpt lat="41.30834" lon="-8.630345">
        <ele>251.0</ele>
        <time>2019-07-05T15:01:09Z</time>
      </trkpt>
      <trkpt lat="41.308295" lon="-8.63026">
        <ele>252.0</ele>
        <time>2019-07-05T15:01:11Z</time>
      </trkpt>
      <trkpt lat="41.30823" lon="-8.630145">
        <ele>253.0</ele>
        <time>2019-07-05T15:01:14Z</time>
      </trkpt>
      <trkpt lat="41.30819" lon="-8.63006">
        <ele>254.0</ele>
        <time>2019-07-05T15:01:16Z</time>
      </trkpt>
      <trkpt lat="41.308146666666666" lon="-8.629985">
        <ele>254.0</ele>
        <time>2019-07-05T15:01:18Z</time>
      </trkpt>
      <trkpt lat="41.308105" lon="-8.629905">
        <ele>253.0</ele>
        <time>2019-07-05T15:01:20Z</time>
      </trkpt>
      <trkpt lat="41.30806" lon="-8.62981">
        <ele>253.0</ele>
        <time>2019-07-05T15:01:22Z</time>
      </trkpt>
      <trkpt lat="41.30801" lon="-8.62973">
        <ele>252.0</ele>
        <time>2019-07-05T15:01:24Z</time>
      </trkpt>
      <trkpt lat="41.30796" lon="-8.62962">
        <ele>253.0</ele>
        <time>2019-07-05T15:01:26Z</time>
      </trkpt>
      <trkpt lat="41.30790666666667" lon="-8.629505">
        <ele>254.0</ele>
        <time>2019-07-05T15:01:28Z</time>
      </trkpt>
      <trkpt lat="41.307845" lon="-8.629383333333333">
        <ele>254.0</ele>
        <time>2019-07-05T15:01:30Z</time>
      </trkpt>
      <trkpt lat="41.30778166666666" lon="-8.629285">
        <ele>253.0</ele>
        <time>2019-07-05T15:01:32Z</time>
      </trkpt>
      <trkpt lat="41.307725" lon="-8.62918">
        <ele>253.0</ele>
        <time>2019-07-05T15:01:34Z</time>
      </trkpt>
      <trkpt lat="41.30767" lon="-8.629065">
        <ele>253.0</ele>
        <time>2019-07-05T15:01:36Z</time>
      </trkpt>
      <trkpt lat="41.307625" lon="-8.62896">
        <ele>252.0</ele>
        <time>2019-07-05T15:01:38Z</time>
      </trkpt>
      <trkpt lat="41.307555" lon="-8.62885">
        <ele>252.0</ele>
        <time>2019-07-05T15:01:40Z</time>
      </trkpt>
      <trkpt lat="41.3075" lon="-8.628735">
        <ele>251.0</ele>
        <time>2019-07-05T15:01:42Z</time>
      </trkpt>
      <trkpt lat="41.30743" lon="-8.62861">
        <ele>251.0</ele>
        <time>2019-07-05T15:01:44Z</time>
      </trkpt>
      <trkpt lat="41.307365" lon="-8.628485">
        <ele>250.0</ele>
        <time>2019-07-05T15:01:46Z</time>
      </trkpt>
      <trkpt lat="41.307296666666666" lon="-8.628361666666667">
        <ele>250.0</ele>
        <time>2019-07-05T15:01:48Z</time>
      </trkpt>
      <trkpt lat="41.30723" lon="-8.62824">
        <ele>249.0</ele>
        <time>2019-07-05T15:01:50Z</time>
      </trkpt>
      <trkpt lat="41.30714" lon="-8.62814">
        <ele>249.0</ele>
        <time>2019-07-05T15:01:52Z</time>
      </trkpt>
      <trkpt lat="41.307035" lon="-8.628058333333334">
        <ele>249.0</ele>
        <time>2019-07-05T15:01:54Z</time>
      </trkpt>
      <trkpt lat="41.30692" lon="-8.62801">
        <ele>248.0</ele>
        <time>2019-07-05T15:01:56Z</time>
      </trkpt>
      <trkpt lat="41.30681" lon="-8.62796">
        <ele>249.0</ele>
        <time>2019-07-05T15:01:58Z</time>
      </trkpt>
      <trkpt lat="41.30670833333333" lon="-8.62791">
        <ele>249.0</ele>
        <time>2019-07-05T15:02:00Z</time>
      </trkpt>
      <trkpt lat="41.306601666666666" lon="-8.627865">
        <ele>250.0</ele>
        <time>2019-07-05T15:02:02Z</time>
      </trkpt>
      <trkpt lat="41.30649666666667" lon="-8.62782">
        <ele>250.0</ele>
        <time>2019-07-05T15:02:04Z</time>
      </trkpt>
      <trkpt lat="41.30639" lon="-8.62778">
        <ele>250.0</ele>
        <time>2019-07-05T15:02:06Z</time>
      </trkpt>
      <trkpt lat="41.306285" lon="-8.627736666666667">
        <ele>250.0</ele>
        <time>2019-07-05T15:02:08Z</time>
      </trkpt>
      <trkpt lat="41.30618666666667" lon="-8.627695">
        <ele>249.0</ele>
        <time>2019-07-05T15:02:10Z</time>
      </trkpt>
      <trkpt lat="41.30609" lon="-8.627658333333333">
        <ele>249.0</ele>
        <time>2019-07-05T15:02:12Z</time>
      </trkpt>
      <trkpt lat="41.305991666666664" lon="-8.627615">
        <ele>250.0</ele>
        <time>2019-07-05T15:02:14Z</time>
      </trkpt>
      <trkpt lat="41.305901666666664" lon="-8.627565">
        <ele>250.0</ele>
        <time>2019-07-05T15:02:16Z</time>
      </trkpt>
      <trkpt lat="41.30581166666666" lon="-8.62752">
        <ele>250.0</ele>
        <time>2019-07-05T15:02:18Z</time>
      </trkpt>
      <trkpt lat="41.30573666666667" lon="-8.62747">
        <ele>250.0</ele>
        <time>2019-07-05T15:02:20Z</time>
      </trkpt>
      <trkpt lat="41.305661666666666" lon="-8.627425">
        <ele>251.0</ele>
        <time>2019-07-05T15:02:22Z</time>
      </trkpt>
      <trkpt lat="41.305585" lon="-8.62737">
        <ele>252.0</ele>
        <time>2019-07-05T15:02:24Z</time>
      </trkpt>
      <trkpt lat="41.305515" lon="-8.627315">
        <ele>252.0</ele>
        <time>2019-07-05T15:02:26Z</time>
      </trkpt>
      <trkpt lat="41.305425" lon="-8.62724">
        <ele>252.0</ele>
        <time>2019-07-05T15:02:29Z</time>
      </trkpt>
      <trkpt lat="41.305335" lon="-8.627175">
        <ele>253.0</ele>
        <time>2019-07-05T15:02:32Z</time>
      </trkpt>
      <trkpt lat="41.305245" lon="-8.627105">
        <ele>253.0</ele>
        <time>2019-07-05T15:02:35Z</time>
      </trkpt>
      <trkpt lat="41.30518166666667" lon="-8.62706">
        <ele>254.0</ele>
        <time>2019-07-05T15:02:37Z</time>
      </trkpt>
      <trkpt lat="41.30511666666666" lon="-8.62701">
        <ele>254.0</ele>
        <time>2019-07-05T15:02:39Z</time>
      </trkpt>
      <trkpt lat="41.305055" lon="-8.62696">
        <ele>254.0</ele>
        <time>2019-07-05T15:02:41Z</time>
      </trkpt>
      <trkpt lat="41.304965" lon="-8.626895">
        <ele>255.0</ele>
        <time>2019-07-05T15:02:44Z</time>
      </trkpt>
      <trkpt lat="41.304898333333334" lon="-8.626846666666667">
        <ele>255.0</ele>
        <time>2019-07-05T15:02:46Z</time>
      </trkpt>
      <trkpt lat="41.304805" lon="-8.626776666666666">
        <ele>254.0</ele>
        <time>2019-07-05T15:02:49Z</time>
      </trkpt>
      <trkpt lat="41.304715" lon="-8.626706666666667">
        <ele>255.0</ele>
        <time>2019-07-05T15:02:52Z</time>
      </trkpt>
      <trkpt lat="41.30465" lon="-8.626665">
        <ele>255.0</ele>
        <time>2019-07-05T15:02:54Z</time>
      </trkpt>
      <trkpt lat="41.304585" lon="-8.626616666666667">
        <ele>256.0</ele>
        <time>2019-07-05T15:02:56Z</time>
      </trkpt>
      <trkpt lat="41.304516666666665" lon="-8.626576666666667">
        <ele>256.0</ele>
        <time>2019-07-05T15:02:58Z</time>
      </trkpt>
      <trkpt lat="41.304446666666664" lon="-8.62655">
        <ele>256.0</ele>
        <time>2019-07-05T15:03:00Z</time>
      </trkpt>
      <trkpt lat="41.30437166666667" lon="-8.626525">
        <ele>256.0</ele>
        <time>2019-07-05T15:03:02Z</time>
      </trkpt>
      <trkpt lat="41.304296666666666" lon="-8.62651">
        <ele>256.0</ele>
        <time>2019-07-05T15:03:04Z</time>
      </trkpt>
      <trkpt lat="41.30422166666666" lon="-8.6265">
        <ele>256.0</ele>
        <time>2019-07-05T15:03:06Z</time>
      </trkpt>
      <trkpt lat="41.304145" lon="-8.626495">
        <ele>256.0</ele>
        <time>2019-07-05T15:03:08Z</time>
      </trkpt>
      <trkpt lat="41.304065" lon="-8.626495">
        <ele>256.0</ele>
        <time>2019-07-05T15:03:10Z</time>
      </trkpt>
      <trkpt lat="41.303975" lon="-8.62649">
        <ele>256.0</ele>
        <time>2019-07-05T15:03:12Z</time>
      </trkpt>
      <trkpt lat="41.303885" lon="-8.626495">
        <ele>255.0</ele>
        <time>2019-07-05T15:03:14Z</time>
      </trkpt>
      <trkpt lat="41.303795" lon="-8.6265">
        <ele>255.0</ele>
        <time>2019-07-05T15:03:16Z</time>
      </trkpt>
      <trkpt lat="41.3037" lon="-8.6265">
        <ele>255.0</ele>
        <time>2019-07-05T15:03:18Z</time>
      </trkpt>
      <trkpt lat="41.3036" lon="-8.626495">
        <ele>255.0</ele>
        <time>2019-07-05T15:03:20Z</time>
      </trkpt>
      <trkpt lat="41.303505" lon="-8.626495">
        <ele>255.0</ele>
        <time>2019-07-05T15:03:22Z</time>
      </trkpt>
      <trkpt lat="41.30341" lon="-8.626495">
        <ele>255.0</ele>
        <time>2019-07-05T15:03:24Z</time>
      </trkpt>
      <trkpt lat="41.30331666666667" lon="-8.62649">
        <ele>256.0</ele>
        <time>2019-07-05T15:03:26Z</time>
      </trkpt>
      <trkpt lat="41.303223333333335" lon="-8.62649">
        <ele>256.0</ele>
        <time>2019-07-05T15:03:28Z</time>
      </trkpt>
      <trkpt lat="41.30313666666667" lon="-8.626485">
        <ele>256.0</ele>
        <time>2019-07-05T15:03:30Z</time>
      </trkpt>
      <trkpt lat="41.303045" lon="-8.626463333333334">
        <ele>256.0</ele>
        <time>2019-07-05T15:03:32Z</time>
      </trkpt>
      <trkpt lat="41.30295" lon="-8.626435">
        <ele>257.0</ele>
        <time>2019-07-05T15:03:34Z</time>
      </trkpt>
      <trkpt lat="41.30285833333333" lon="-8.626395">
        <ele>257.0</ele>
        <time>2019-07-05T15:03:36Z</time>
      </trkpt>
      <trkpt lat="41.302771666666665" lon="-8.62634">
        <ele>258.0</ele>
        <time>2019-07-05T15:03:38Z</time>
      </trkpt>
      <trkpt lat="41.302688333333336" lon="-8.626273333333334">
        <ele>257.0</ele>
        <time>2019-07-05T15:03:40Z</time>
      </trkpt>
      <trkpt lat="41.302595" lon="-8.6262">
        <ele>258.0</ele>
        <time>2019-07-05T15:03:42Z</time>
      </trkpt>
      <trkpt lat="41.3025" lon="-8.626123333333334">
        <ele>258.0</ele>
        <time>2019-07-05T15:03:44Z</time>
      </trkpt>
      <trkpt lat="41.302393333333335" lon="-8.626035">
        <ele>257.0</ele>
        <time>2019-07-05T15:03:46Z</time>
      </trkpt>
      <trkpt lat="41.30229" lon="-8.62595">
        <ele>257.0</ele>
        <time>2019-07-05T15:03:48Z</time>
      </trkpt>
      <trkpt lat="41.302171666666666" lon="-8.62585">
        <ele>256.0</ele>
        <time>2019-07-05T15:03:50Z</time>
      </trkpt>
      <trkpt lat="41.30211" lon="-8.6258">
        <ele>256.0</ele>
        <time>2019-07-05T15:03:51Z</time>
      </trkpt>
      <trkpt lat="41.30205" lon="-8.625743333333334">
        <ele>256.0</ele>
        <time>2019-07-05T15:03:52Z</time>
      </trkpt>
      <trkpt lat="41.301985" lon="-8.625695">
        <ele>255.0</ele>
        <time>2019-07-05T15:03:53Z</time>
      </trkpt>
      <trkpt lat="41.30192" lon="-8.62564">
        <ele>255.0</ele>
        <time>2019-07-05T15:03:54Z</time>
      </trkpt>
      <trkpt lat="41.301856666666666" lon="-8.625585">
        <ele>255.0</ele>
        <time>2019-07-05T15:03:55Z</time>
      </trkpt>
      <trkpt lat="41.301795" lon="-8.625535">
        <ele>255.0</ele>
        <time>2019-07-05T15:03:56Z</time>
      </trkpt>
      <trkpt lat="41.30173" lon="-8.62549">
        <ele>255.0</ele>
        <time>2019-07-05T15:03:57Z</time>
      </trkpt>
      <trkpt lat="41.30160166666667" lon="-8.62541">
        <ele>255.0</ele>
        <time>2019-07-05T15:03:59Z</time>
      </trkpt>
      <trkpt lat="41.301535" lon="-8.625371666666666">
        <ele>255.0</ele>
        <time>2019-07-05T15:04:00Z</time>
      </trkpt>
      <trkpt lat="41.301465" lon="-8.62534">
        <ele>255.0</ele>
        <time>2019-07-05T15:04:01Z</time>
      </trkpt>
      <trkpt lat="41.301395" lon="-8.625301666666667">
        <ele>255.0</ele>
        <time>2019-07-05T15:04:02Z</time>
      </trkpt>
      <trkpt lat="41.301323333333336" lon="-8.625265">
        <ele>255.0</ele>
        <time>2019-07-05T15:04:03Z</time>
      </trkpt>
      <trkpt lat="41.30119" lon="-8.625213333333333">
        <ele>255.0</ele>
        <time>2019-07-05T15:04:05Z</time>
      </trkpt>
      <trkpt lat="41.30112" lon="-8.625185">
        <ele>255.0</ele>
        <time>2019-07-05T15:04:06Z</time>
      </trkpt>
      <trkpt lat="41.300985" lon="-8.62513">
        <ele>254.0</ele>
        <time>2019-07-05T15:04:08Z</time>
      </trkpt>
      <trkpt lat="41.300915" lon="-8.625103333333334">
        <ele>254.0</ele>
        <time>2019-07-05T15:04:09Z</time>
      </trkpt>
      <trkpt lat="41.30078" lon="-8.62505">
        <ele>254.0</ele>
        <time>2019-07-05T15:04:11Z</time>
      </trkpt>
      <trkpt lat="41.30064333333333" lon="-8.625">
        <ele>254.0</ele>
        <time>2019-07-05T15:04:13Z</time>
      </trkpt>
      <trkpt lat="41.300515" lon="-8.624948333333334">
        <ele>254.0</ele>
        <time>2019-07-05T15:04:15Z</time>
      </trkpt>
      <trkpt lat="41.30038" lon="-8.624905">
        <ele>254.0</ele>
        <time>2019-07-05T15:04:17Z</time>
      </trkpt>
      <trkpt lat="41.30025" lon="-8.62485">
        <ele>254.0</ele>
        <time>2019-07-05T15:04:19Z</time>
      </trkpt>
      <trkpt lat="41.30012" lon="-8.6248">
        <ele>254.0</ele>
        <time>2019-07-05T15:04:21Z</time>
      </trkpt>
      <trkpt lat="41.29999166666666" lon="-8.624755">
        <ele>255.0</ele>
        <time>2019-07-05T15:04:23Z</time>
      </trkpt>
      <trkpt lat="41.29986" lon="-8.624705">
        <ele>255.0</ele>
        <time>2019-07-05T15:04:25Z</time>
      </trkpt>
      <trkpt lat="41.299731666666666" lon="-8.62466">
        <ele>255.0</ele>
        <time>2019-07-05T15:04:27Z</time>
      </trkpt>
      <trkpt lat="41.2996" lon="-8.624605">
        <ele>255.0</ele>
        <time>2019-07-05T15:04:29Z</time>
      </trkpt>
      <trkpt lat="41.29947166666667" lon="-8.624555">
        <ele>254.0</ele>
        <time>2019-07-05T15:04:31Z</time>
      </trkpt>
      <trkpt lat="41.29934" lon="-8.624498333333333">
        <ele>254.0</ele>
        <time>2019-07-05T15:04:33Z</time>
      </trkpt>
      <trkpt lat="41.299213333333334" lon="-8.624435">
        <ele>254.0</ele>
        <time>2019-07-05T15:04:35Z</time>
      </trkpt>
      <trkpt lat="41.29909" lon="-8.624363333333333">
        <ele>255.0</ele>
        <time>2019-07-05T15:04:37Z</time>
      </trkpt>
      <trkpt lat="41.298975" lon="-8.624285">
        <ele>255.0</ele>
        <time>2019-07-05T15:04:39Z</time>
      </trkpt>
      <trkpt lat="41.29886" lon="-8.6242">
        <ele>255.0</ele>
        <time>2019-07-05T15:04:41Z</time>
      </trkpt>
      <trkpt lat="41.298755" lon="-8.6241">
        <ele>254.0</ele>
        <time>2019-07-05T15:04:43Z</time>
      </trkpt>
      <trkpt lat="41.298655" lon="-8.623995">
        <ele>254.0</ele>
        <time>2019-07-05T15:04:45Z</time>
      </trkpt>
      <trkpt lat="41.298561666666664" lon="-8.623905">
        <ele>254.0</ele>
        <time>2019-07-05T15:04:47Z</time>
      </trkpt>
      <trkpt lat="41.29847" lon="-8.623805">
        <ele>255.0</ele>
        <time>2019-07-05T15:04:49Z</time>
      </trkpt>
      <trkpt lat="41.29837166666667" lon="-8.623703333333333">
        <ele>255.0</ele>
        <time>2019-07-05T15:04:51Z</time>
      </trkpt>
      <trkpt lat="41.298275" lon="-8.623606666666667">
        <ele>255.0</ele>
        <time>2019-07-05T15:04:53Z</time>
      </trkpt>
      <trkpt lat="41.298175" lon="-8.623505">
        <ele>255.0</ele>
        <time>2019-07-05T15:04:55Z</time>
      </trkpt>
      <trkpt lat="41.298071666666665" lon="-8.623405">
        <ele>255.0</ele>
        <time>2019-07-05T15:04:57Z</time>
      </trkpt>
      <trkpt lat="41.29797" lon="-8.623305">
        <ele>255.0</ele>
        <time>2019-07-05T15:04:59Z</time>
      </trkpt>
      <trkpt lat="41.29787" lon="-8.623188333333333">
        <ele>255.0</ele>
        <time>2019-07-05T15:05:01Z</time>
      </trkpt>
      <trkpt lat="41.297763333333336" lon="-8.62308">
        <ele>255.0</ele>
        <time>2019-07-05T15:05:03Z</time>
      </trkpt>
      <trkpt lat="41.29765166666667" lon="-8.62297">
        <ele>255.0</ele>
        <time>2019-07-05T15:05:05Z</time>
      </trkpt>
      <trkpt lat="41.297545" lon="-8.622855">
        <ele>254.0</ele>
        <time>2019-07-05T15:05:07Z</time>
      </trkpt>
      <trkpt lat="41.29743" lon="-8.62275">
        <ele>254.0</ele>
        <time>2019-07-05T15:05:09Z</time>
      </trkpt>
      <trkpt lat="41.29737" lon="-8.62269">
        <ele>254.0</ele>
        <time>2019-07-05T15:05:10Z</time>
      </trkpt>
      <trkpt lat="41.297311666666666" lon="-8.62263">
        <ele>254.0</ele>
        <time>2019-07-05T15:05:11Z</time>
      </trkpt>
      <trkpt lat="41.2972" lon="-8.62252">
        <ele>254.0</ele>
        <time>2019-07-05T15:05:13Z</time>
      </trkpt>
      <trkpt lat="41.297088333333335" lon="-8.622405">
        <ele>254.0</ele>
        <time>2019-07-05T15:05:15Z</time>
      </trkpt>
      <trkpt lat="41.29698" lon="-8.62229">
        <ele>253.0</ele>
        <time>2019-07-05T15:05:17Z</time>
      </trkpt>
      <trkpt lat="41.29687" lon="-8.62218">
        <ele>253.0</ele>
        <time>2019-07-05T15:05:19Z</time>
      </trkpt>
      <trkpt lat="41.29676" lon="-8.622065">
        <ele>253.0</ele>
        <time>2019-07-05T15:05:21Z</time>
      </trkpt>
      <trkpt lat="41.296641666666666" lon="-8.621946666666666">
        <ele>252.0</ele>
        <time>2019-07-05T15:05:23Z</time>
      </trkpt>
      <trkpt lat="41.29658" lon="-8.621885">
        <ele>251.0</ele>
        <time>2019-07-05T15:05:24Z</time>
      </trkpt>
      <trkpt lat="41.29651666666667" lon="-8.621823333333333">
        <ele>250.0</ele>
        <time>2019-07-05T15:05:25Z</time>
      </trkpt>
      <trkpt lat="41.296455" lon="-8.621765">
        <ele>250.0</ele>
        <time>2019-07-05T15:05:26Z</time>
      </trkpt>
      <trkpt lat="41.296385" lon="-8.6217">
        <ele>250.0</ele>
        <time>2019-07-05T15:05:27Z</time>
      </trkpt>
      <trkpt lat="41.296321666666664" lon="-8.621633333333333">
        <ele>249.0</ele>
        <time>2019-07-05T15:05:28Z</time>
      </trkpt>
      <trkpt lat="41.296255" lon="-8.621565">
        <ele>249.0</ele>
        <time>2019-07-05T15:05:29Z</time>
      </trkpt>
      <trkpt lat="41.29618833333333" lon="-8.621495">
        <ele>249.0</ele>
        <time>2019-07-05T15:05:30Z</time>
      </trkpt>
      <trkpt lat="41.296125" lon="-8.621435">
        <ele>249.0</ele>
        <time>2019-07-05T15:05:31Z</time>
      </trkpt>
      <trkpt lat="41.29606" lon="-8.62137">
        <ele>249.0</ele>
        <time>2019-07-05T15:05:32Z</time>
      </trkpt>
      <trkpt lat="41.296005" lon="-8.621305">
        <ele>249.0</ele>
        <time>2019-07-05T15:05:33Z</time>
      </trkpt>
      <trkpt lat="41.29594" lon="-8.621245">
        <ele>249.0</ele>
        <time>2019-07-05T15:05:34Z</time>
      </trkpt>
      <trkpt lat="41.295878333333334" lon="-8.621175">
        <ele>249.0</ele>
        <time>2019-07-05T15:05:35Z</time>
      </trkpt>
      <trkpt lat="41.295815" lon="-8.621111666666666">
        <ele>248.0</ele>
        <time>2019-07-05T15:05:36Z</time>
      </trkpt>
      <trkpt lat="41.29575" lon="-8.62105">
        <ele>248.0</ele>
        <time>2019-07-05T15:05:37Z</time>
      </trkpt>
      <trkpt lat="41.29569" lon="-8.620985">
        <ele>248.0</ele>
        <time>2019-07-05T15:05:38Z</time>
      </trkpt>
      <trkpt lat="41.295625" lon="-8.620916666666666">
        <ele>248.0</ele>
        <time>2019-07-05T15:05:39Z</time>
      </trkpt>
      <trkpt lat="41.29556" lon="-8.62085">
        <ele>248.0</ele>
        <time>2019-07-05T15:05:40Z</time>
      </trkpt>
      <trkpt lat="41.295496666666665" lon="-8.62078">
        <ele>248.0</ele>
        <time>2019-07-05T15:05:41Z</time>
      </trkpt>
      <trkpt lat="41.29544" lon="-8.62072">
        <ele>248.0</ele>
        <time>2019-07-05T15:05:42Z</time>
      </trkpt>
      <trkpt lat="41.295375" lon="-8.620665">
        <ele>248.0</ele>
        <time>2019-07-05T15:05:43Z</time>
      </trkpt>
      <trkpt lat="41.295315" lon="-8.620605">
        <ele>248.0</ele>
        <time>2019-07-05T15:05:44Z</time>
      </trkpt>
      <trkpt lat="41.2952" lon="-8.620495">
        <ele>248.0</ele>
        <time>2019-07-05T15:05:46Z</time>
      </trkpt>
      <trkpt lat="41.29514" lon="-8.620435">
        <ele>248.0</ele>
        <time>2019-07-05T15:05:47Z</time>
      </trkpt>
      <trkpt lat="41.295085" lon="-8.620366666666667">
        <ele>247.0</ele>
        <time>2019-07-05T15:05:48Z</time>
      </trkpt>
      <trkpt lat="41.295026666666665" lon="-8.6203">
        <ele>247.0</ele>
        <time>2019-07-05T15:05:49Z</time>
      </trkpt>
      <trkpt lat="41.29492166666667" lon="-8.620195">
        <ele>248.0</ele>
        <time>2019-07-05T15:05:51Z</time>
      </trkpt>
      <trkpt lat="41.29481166666667" lon="-8.620101666666667">
        <ele>248.0</ele>
        <time>2019-07-05T15:05:53Z</time>
      </trkpt>
      <trkpt lat="41.29472" lon="-8.620005">
        <ele>248.0</ele>
        <time>2019-07-05T15:05:55Z</time>
      </trkpt>
      <trkpt lat="41.29462" lon="-8.619905">
        <ele>248.0</ele>
        <time>2019-07-05T15:05:57Z</time>
      </trkpt>
      <trkpt lat="41.29453" lon="-8.619805">
        <ele>247.0</ele>
        <time>2019-07-05T15:05:59Z</time>
      </trkpt>
      <trkpt lat="41.294455" lon="-8.619675">
        <ele>247.0</ele>
        <time>2019-07-05T15:06:01Z</time>
      </trkpt>
      <trkpt lat="41.294401666666666" lon="-8.619525">
        <ele>246.0</ele>
        <time>2019-07-05T15:06:03Z</time>
      </trkpt>
      <trkpt lat="41.294358333333335" lon="-8.619365">
        <ele>245.0</ele>
        <time>2019-07-05T15:06:05Z</time>
      </trkpt>
      <trkpt lat="41.29432166666667" lon="-8.6192">
        <ele>245.0</ele>
        <time>2019-07-05T15:06:07Z</time>
      </trkpt>
      <trkpt lat="41.294288333333334" lon="-8.619015">
        <ele>244.0</ele>
        <time>2019-07-05T15:06:09Z</time>
      </trkpt>
      <trkpt lat="41.29426" lon="-8.61883">
        <ele>244.0</ele>
        <time>2019-07-05T15:06:11Z</time>
      </trkpt>
      <trkpt lat="41.29424" lon="-8.618731666666667">
        <ele>244.0</ele>
        <time>2019-07-05T15:06:12Z</time>
      </trkpt>
      <trkpt lat="41.294216666666664" lon="-8.618638333333333">
        <ele>243.0</ele>
        <time>2019-07-05T15:06:13Z</time>
      </trkpt>
      <trkpt lat="41.294200000000004" lon="-8.618545">
        <ele>243.0</ele>
        <time>2019-07-05T15:06:14Z</time>
      </trkpt>
      <trkpt lat="41.294185" lon="-8.61845">
        <ele>242.0</ele>
        <time>2019-07-05T15:06:15Z</time>
      </trkpt>
      <trkpt lat="41.29416" lon="-8.618351666666667">
        <ele>242.0</ele>
        <time>2019-07-05T15:06:16Z</time>
      </trkpt>
      <trkpt lat="41.29414" lon="-8.61825">
        <ele>242.0</ele>
        <time>2019-07-05T15:06:17Z</time>
      </trkpt>
      <trkpt lat="41.29412" lon="-8.618145">
        <ele>241.0</ele>
        <time>2019-07-05T15:06:18Z</time>
      </trkpt>
      <trkpt lat="41.294095" lon="-8.618036666666667">
        <ele>241.0</ele>
        <time>2019-07-05T15:06:19Z</time>
      </trkpt>
      <trkpt lat="41.29408" lon="-8.61793">
        <ele>241.0</ele>
        <time>2019-07-05T15:06:20Z</time>
      </trkpt>
      <trkpt lat="41.294055" lon="-8.61782">
        <ele>240.0</ele>
        <time>2019-07-05T15:06:21Z</time>
      </trkpt>
      <trkpt lat="41.29403" lon="-8.617705">
        <ele>240.0</ele>
        <time>2019-07-05T15:06:22Z</time>
      </trkpt>
      <trkpt lat="41.294005" lon="-8.617585">
        <ele>239.0</ele>
        <time>2019-07-05T15:06:23Z</time>
      </trkpt>
      <trkpt lat="41.293976666666666" lon="-8.61746">
        <ele>239.0</ele>
        <time>2019-07-05T15:06:24Z</time>
      </trkpt>
      <trkpt lat="41.29395" lon="-8.617336666666667">
        <ele>238.0</ele>
        <time>2019-07-05T15:06:25Z</time>
      </trkpt>
      <trkpt lat="41.293925" lon="-8.617205">
        <ele>237.0</ele>
        <time>2019-07-05T15:06:26Z</time>
      </trkpt>
      <trkpt lat="41.2939" lon="-8.617075">
        <ele>237.0</ele>
        <time>2019-07-05T15:06:27Z</time>
      </trkpt>
      <trkpt lat="41.293875" lon="-8.616938333333334">
        <ele>236.0</ele>
        <time>2019-07-05T15:06:28Z</time>
      </trkpt>
      <trkpt lat="41.293845" lon="-8.616801666666667">
        <ele>235.0</ele>
        <time>2019-07-05T15:06:29Z</time>
      </trkpt>
      <trkpt lat="41.293815" lon="-8.616668333333333">
        <ele>234.0</ele>
        <time>2019-07-05T15:06:30Z</time>
      </trkpt>
      <trkpt lat="41.29378" lon="-8.616535">
        <ele>234.0</ele>
        <time>2019-07-05T15:06:31Z</time>
      </trkpt>
      <trkpt lat="41.293745" lon="-8.6164">
        <ele>233.0</ele>
        <time>2019-07-05T15:06:32Z</time>
      </trkpt>
      <trkpt lat="41.2937" lon="-8.61627">
        <ele>233.0</ele>
        <time>2019-07-05T15:06:33Z</time>
      </trkpt>
      <trkpt lat="41.29364666666667" lon="-8.616141666666667">
        <ele>232.0</ele>
        <time>2019-07-05T15:06:34Z</time>
      </trkpt>
      <trkpt lat="41.293585" lon="-8.616015">
        <ele>231.0</ele>
        <time>2019-07-05T15:06:35Z</time>
      </trkpt>
      <trkpt lat="41.29352" lon="-8.61589">
        <ele>231.0</ele>
        <time>2019-07-05T15:06:36Z</time>
      </trkpt>
      <trkpt lat="41.293455" lon="-8.615775">
        <ele>230.0</ele>
        <time>2019-07-05T15:06:37Z</time>
      </trkpt>
      <trkpt lat="41.293385" lon="-8.61565">
        <ele>230.0</ele>
        <time>2019-07-05T15:06:38Z</time>
      </trkpt>
      <trkpt lat="41.293315" lon="-8.61553">
        <ele>229.0</ele>
        <time>2019-07-05T15:06:39Z</time>
      </trkpt>
      <trkpt lat="41.293245" lon="-8.6154">
        <ele>228.0</ele>
        <time>2019-07-05T15:06:40Z</time>
      </trkpt>
      <trkpt lat="41.293175" lon="-8.615275">
        <ele>227.0</ele>
        <time>2019-07-05T15:06:41Z</time>
      </trkpt>
      <trkpt lat="41.29310666666667" lon="-8.615145">
        <ele>226.0</ele>
        <time>2019-07-05T15:06:42Z</time>
      </trkpt>
      <trkpt lat="41.29304" lon="-8.61502">
        <ele>225.0</ele>
        <time>2019-07-05T15:06:43Z</time>
      </trkpt>
      <trkpt lat="41.29297" lon="-8.614891666666667">
        <ele>224.0</ele>
        <time>2019-07-05T15:06:44Z</time>
      </trkpt>
      <trkpt lat="41.292895" lon="-8.614765">
        <ele>223.0</ele>
        <time>2019-07-05T15:06:45Z</time>
      </trkpt>
      <trkpt lat="41.292825" lon="-8.614635">
        <ele>222.0</ele>
        <time>2019-07-05T15:06:46Z</time>
      </trkpt>
      <trkpt lat="41.292755" lon="-8.6145">
        <ele>222.0</ele>
        <time>2019-07-05T15:06:47Z</time>
      </trkpt>
      <trkpt lat="41.292685" lon="-8.614375">
        <ele>221.0</ele>
        <time>2019-07-05T15:06:48Z</time>
      </trkpt>
      <trkpt lat="41.292611666666666" lon="-8.61424">
        <ele>220.0</ele>
        <time>2019-07-05T15:06:49Z</time>
      </trkpt>
      <trkpt lat="41.292541666666665" lon="-8.614113333333334">
        <ele>220.0</ele>
        <time>2019-07-05T15:06:50Z</time>
      </trkpt>
      <trkpt lat="41.292475" lon="-8.61399">
        <ele>220.0</ele>
        <time>2019-07-05T15:06:51Z</time>
      </trkpt>
      <trkpt lat="41.29241" lon="-8.61386">
        <ele>220.0</ele>
        <time>2019-07-05T15:06:52Z</time>
      </trkpt>
      <trkpt lat="41.292345" lon="-8.613745">
        <ele>219.0</ele>
        <time>2019-07-05T15:06:53Z</time>
      </trkpt>
      <trkpt lat="41.29228166666667" lon="-8.613635">
        <ele>219.0</ele>
        <time>2019-07-05T15:06:54Z</time>
      </trkpt>
      <trkpt lat="41.29223" lon="-8.61355">
        <ele>219.0</ele>
        <time>2019-07-05T15:06:55Z</time>
      </trkpt>
      <trkpt lat="41.292155" lon="-8.613413333333334">
        <ele>218.0</ele>
        <time>2019-07-05T15:06:57Z</time>
      </trkpt>
      <trkpt lat="41.292105" lon="-8.613315">
        <ele>218.0</ele>
        <time>2019-07-05T15:06:59Z</time>
      </trkpt>
      <trkpt lat="41.29206" lon="-8.613223333333334">
        <ele>218.0</ele>
        <time>2019-07-05T15:07:01Z</time>
      </trkpt>
      <trkpt lat="41.29201666666667" lon="-8.613145">
        <ele>218.0</ele>
        <time>2019-07-05T15:07:03Z</time>
      </trkpt>
      <trkpt lat="41.29196666666667" lon="-8.61303">
        <ele>218.0</ele>
        <time>2019-07-05T15:07:06Z</time>
      </trkpt>
      <trkpt lat="41.292045" lon="-8.613115">
        <ele>217.0</ele>
        <time>2019-07-05T15:07:12Z</time>
      </trkpt>
      <trkpt lat="41.292093333333334" lon="-8.6132">
        <ele>217.0</ele>
        <time>2019-07-05T15:07:14Z</time>
      </trkpt>
      <trkpt lat="41.29214" lon="-8.613296666666667">
        <ele>217.0</ele>
        <time>2019-07-05T15:07:16Z</time>
      </trkpt>
      <trkpt lat="41.29219" lon="-8.6134">
        <ele>217.0</ele>
        <time>2019-07-05T15:07:18Z</time>
      </trkpt>
      <trkpt lat="41.29225" lon="-8.613505">
        <ele>217.0</ele>
        <time>2019-07-05T15:07:20Z</time>
      </trkpt>
      <trkpt lat="41.29231" lon="-8.613616666666667">
        <ele>217.0</ele>
        <time>2019-07-05T15:07:22Z</time>
      </trkpt>
      <trkpt lat="41.29236" lon="-8.61372">
        <ele>218.0</ele>
        <time>2019-07-05T15:07:24Z</time>
      </trkpt>
      <trkpt lat="41.292415" lon="-8.613811666666667">
        <ele>219.0</ele>
        <time>2019-07-05T15:07:26Z</time>
      </trkpt>
      <trkpt lat="41.292456666666666" lon="-8.613885">
        <ele>219.0</ele>
        <time>2019-07-05T15:07:28Z</time>
      </trkpt>
      <trkpt lat="41.292475" lon="-8.613983333333334">
        <ele>220.0</ele>
        <time>2019-07-05T15:07:31Z</time>
      </trkpt>
      <trkpt lat="41.29238" lon="-8.61405">
        <ele>219.0</ele>
        <time>2019-07-05T15:07:34Z</time>
      </trkpt>
      <trkpt lat="41.29228" lon="-8.614095">
        <ele>219.0</ele>
        <time>2019-07-05T15:07:36Z</time>
      </trkpt>
      <trkpt lat="41.29219" lon="-8.614145">
        <ele>218.0</ele>
        <time>2019-07-05T15:07:38Z</time>
      </trkpt>
      <trkpt lat="41.2921" lon="-8.614205">
        <ele>219.0</ele>
        <time>2019-07-05T15:07:40Z</time>
      </trkpt>
      <trkpt lat="41.292" lon="-8.614281666666667">
        <ele>219.0</ele>
        <time>2019-07-05T15:07:42Z</time>
      </trkpt>
      <trkpt lat="41.291885" lon="-8.614338333333333">
        <ele>219.0</ele>
        <time>2019-07-05T15:07:44Z</time>
      </trkpt>
      <trkpt lat="41.291776666666664" lon="-8.61441">
        <ele>218.0</ele>
        <time>2019-07-05T15:07:46Z</time>
      </trkpt>
      <trkpt lat="41.29166" lon="-8.614465">
        <ele>218.0</ele>
        <time>2019-07-05T15:07:48Z</time>
      </trkpt>
      <trkpt lat="41.291545" lon="-8.61449">
        <ele>218.0</ele>
        <time>2019-07-05T15:07:50Z</time>
      </trkpt>
      <trkpt lat="41.291435" lon="-8.614485">
        <ele>218.0</ele>
        <time>2019-07-05T15:07:52Z</time>
      </trkpt>
      <trkpt lat="41.29132666666667" lon="-8.614485">
        <ele>218.0</ele>
        <time>2019-07-05T15:07:54Z</time>
      </trkpt>
      <trkpt lat="41.29123" lon="-8.614476666666667">
        <ele>218.0</ele>
        <time>2019-07-05T15:07:56Z</time>
      </trkpt>
      <trkpt lat="41.29112" lon="-8.614458333333333">
        <ele>219.0</ele>
        <time>2019-07-05T15:07:58Z</time>
      </trkpt>
      <trkpt lat="41.29101" lon="-8.614445">
        <ele>220.0</ele>
        <time>2019-07-05T15:08:00Z</time>
      </trkpt>
      <trkpt lat="41.29091666666667" lon="-8.61445">
        <ele>220.0</ele>
        <time>2019-07-05T15:08:02Z</time>
      </trkpt>
      <trkpt lat="41.290836666666664" lon="-8.61445">
        <ele>221.0</ele>
        <time>2019-07-05T15:08:04Z</time>
      </trkpt>
      <trkpt lat="41.290746666666664" lon="-8.61444">
        <ele>222.0</ele>
        <time>2019-07-05T15:08:06Z</time>
      </trkpt>
      <trkpt lat="41.290665" lon="-8.614436666666666">
        <ele>222.0</ele>
        <time>2019-07-05T15:08:08Z</time>
      </trkpt>
      <trkpt lat="41.29058" lon="-8.614445">
        <ele>222.0</ele>
        <time>2019-07-05T15:08:10Z</time>
      </trkpt>
      <trkpt lat="41.29048" lon="-8.614445">
        <ele>221.0</ele>
        <time>2019-07-05T15:08:12Z</time>
      </trkpt>
      <trkpt lat="41.29037" lon="-8.614453333333334">
        <ele>221.0</ele>
        <time>2019-07-05T15:08:14Z</time>
      </trkpt>
      <trkpt lat="41.290245" lon="-8.614451666666668">
        <ele>220.0</ele>
        <time>2019-07-05T15:08:16Z</time>
      </trkpt>
      <trkpt lat="41.290115" lon="-8.614458333333333">
        <ele>219.0</ele>
        <time>2019-07-05T15:08:18Z</time>
      </trkpt>
      <trkpt lat="41.289975" lon="-8.61447">
        <ele>219.0</ele>
        <time>2019-07-05T15:08:20Z</time>
      </trkpt>
      <trkpt lat="41.28989833333333" lon="-8.614473333333333">
        <ele>218.0</ele>
        <time>2019-07-05T15:08:21Z</time>
      </trkpt>
      <trkpt lat="41.289825" lon="-8.614471666666667">
        <ele>218.0</ele>
        <time>2019-07-05T15:08:22Z</time>
      </trkpt>
      <trkpt lat="41.28975" lon="-8.61447">
        <ele>218.0</ele>
        <time>2019-07-05T15:08:23Z</time>
      </trkpt>
      <trkpt lat="41.28967" lon="-8.61447">
        <ele>217.0</ele>
        <time>2019-07-05T15:08:24Z</time>
      </trkpt>
      <trkpt lat="41.28959166666667" lon="-8.614465">
        <ele>217.0</ele>
        <time>2019-07-05T15:08:25Z</time>
      </trkpt>
      <trkpt lat="41.28951" lon="-8.614456666666667">
        <ele>217.0</ele>
        <time>2019-07-05T15:08:26Z</time>
      </trkpt>
      <trkpt lat="41.28943" lon="-8.614451666666668">
        <ele>216.0</ele>
        <time>2019-07-05T15:08:27Z</time>
      </trkpt>
      <trkpt lat="41.28934666666667" lon="-8.61444">
        <ele>216.0</ele>
        <time>2019-07-05T15:08:28Z</time>
      </trkpt>
      <trkpt lat="41.28926166666667" lon="-8.614425">
        <ele>215.0</ele>
        <time>2019-07-05T15:08:29Z</time>
      </trkpt>
      <trkpt lat="41.289185" lon="-8.614425">
        <ele>214.0</ele>
        <time>2019-07-05T15:08:30Z</time>
      </trkpt>
      <trkpt lat="41.28909" lon="-8.614425">
        <ele>214.0</ele>
        <time>2019-07-05T15:08:31Z</time>
      </trkpt>
      <trkpt lat="41.289001666666664" lon="-8.614445">
        <ele>213.0</ele>
        <time>2019-07-05T15:08:32Z</time>
      </trkpt>
      <trkpt lat="41.28891" lon="-8.61447">
        <ele>212.0</ele>
        <time>2019-07-05T15:08:33Z</time>
      </trkpt>
      <trkpt lat="41.28882" lon="-8.614506666666667">
        <ele>211.0</ele>
        <time>2019-07-05T15:08:34Z</time>
      </trkpt>
      <trkpt lat="41.288725" lon="-8.614546666666667">
        <ele>210.0</ele>
        <time>2019-07-05T15:08:35Z</time>
      </trkpt>
      <trkpt lat="41.28863" lon="-8.614585">
        <ele>209.0</ele>
        <time>2019-07-05T15:08:36Z</time>
      </trkpt>
      <trkpt lat="41.288531666666664" lon="-8.614623333333334">
        <ele>208.0</ele>
        <time>2019-07-05T15:08:37Z</time>
      </trkpt>
      <trkpt lat="41.288435" lon="-8.614665">
        <ele>208.0</ele>
        <time>2019-07-05T15:08:38Z</time>
      </trkpt>
      <trkpt lat="41.28834" lon="-8.614698333333333">
        <ele>208.0</ele>
        <time>2019-07-05T15:08:39Z</time>
      </trkpt>
      <trkpt lat="41.28824" lon="-8.614736666666667">
        <ele>207.0</ele>
        <time>2019-07-05T15:08:40Z</time>
      </trkpt>
      <trkpt lat="41.288145" lon="-8.614778333333334">
        <ele>206.0</ele>
        <time>2019-07-05T15:08:41Z</time>
      </trkpt>
      <trkpt lat="41.288045" lon="-8.61482">
        <ele>206.0</ele>
        <time>2019-07-05T15:08:42Z</time>
      </trkpt>
      <trkpt lat="41.28795" lon="-8.614873333333334">
        <ele>205.0</ele>
        <time>2019-07-05T15:08:43Z</time>
      </trkpt>
      <trkpt lat="41.287855" lon="-8.614951666666666">
        <ele>204.0</ele>
        <time>2019-07-05T15:08:44Z</time>
      </trkpt>
      <trkpt lat="41.287765" lon="-8.615035">
        <ele>202.0</ele>
        <time>2019-07-05T15:08:45Z</time>
      </trkpt>
      <trkpt lat="41.28768" lon="-8.61513">
        <ele>201.0</ele>
        <time>2019-07-05T15:08:46Z</time>
      </trkpt>
      <trkpt lat="41.287605" lon="-8.615211666666667">
        <ele>200.0</ele>
        <time>2019-07-05T15:08:47Z</time>
      </trkpt>
      <trkpt lat="41.28754" lon="-8.615285">
        <ele>199.0</ele>
        <time>2019-07-05T15:08:48Z</time>
      </trkpt>
      <trkpt lat="41.287485" lon="-8.615365">
        <ele>198.0</ele>
        <time>2019-07-05T15:08:49Z</time>
      </trkpt>
      <trkpt lat="41.28743" lon="-8.615441666666667">
        <ele>197.0</ele>
        <time>2019-07-05T15:08:50Z</time>
      </trkpt>
      <trkpt lat="41.28737" lon="-8.6155">
        <ele>197.0</ele>
        <time>2019-07-05T15:08:51Z</time>
      </trkpt>
      <trkpt lat="41.287301666666664" lon="-8.61555">
        <ele>196.0</ele>
        <time>2019-07-05T15:08:52Z</time>
      </trkpt>
      <trkpt lat="41.28723333333333" lon="-8.615588333333333">
        <ele>195.0</ele>
        <time>2019-07-05T15:08:53Z</time>
      </trkpt>
      <trkpt lat="41.28716" lon="-8.615625">
        <ele>194.0</ele>
        <time>2019-07-05T15:08:54Z</time>
      </trkpt>
      <trkpt lat="41.28707166666667" lon="-8.615633333333333">
        <ele>193.0</ele>
        <time>2019-07-05T15:08:55Z</time>
      </trkpt>
      <trkpt lat="41.286985" lon="-8.615625">
        <ele>192.0</ele>
        <time>2019-07-05T15:08:56Z</time>
      </trkpt>
      <trkpt lat="41.286905" lon="-8.615605">
        <ele>192.0</ele>
        <time>2019-07-05T15:08:57Z</time>
      </trkpt>
      <trkpt lat="41.28682" lon="-8.615565">
        <ele>191.0</ele>
        <time>2019-07-05T15:08:58Z</time>
      </trkpt>
      <trkpt lat="41.286735" lon="-8.61553">
        <ele>190.0</ele>
        <time>2019-07-05T15:08:59Z</time>
      </trkpt>
      <trkpt lat="41.28665" lon="-8.615495">
        <ele>190.0</ele>
        <time>2019-07-05T15:09:00Z</time>
      </trkpt>
      <trkpt lat="41.286565" lon="-8.615455">
        <ele>189.0</ele>
        <time>2019-07-05T15:09:01Z</time>
      </trkpt>
      <trkpt lat="41.28648166666667" lon="-8.615415">
        <ele>189.0</ele>
        <time>2019-07-05T15:09:02Z</time>
      </trkpt>
      <trkpt lat="41.286395" lon="-8.61538">
        <ele>188.0</ele>
        <time>2019-07-05T15:09:03Z</time>
      </trkpt>
      <trkpt lat="41.286315" lon="-8.61534">
        <ele>188.0</ele>
        <time>2019-07-05T15:09:04Z</time>
      </trkpt>
      <trkpt lat="41.28623" lon="-8.615296666666667">
        <ele>187.0</ele>
        <time>2019-07-05T15:09:05Z</time>
      </trkpt>
      <trkpt lat="41.28614666666667" lon="-8.615253333333333">
        <ele>187.0</ele>
        <time>2019-07-05T15:09:06Z</time>
      </trkpt>
      <trkpt lat="41.286065" lon="-8.615213333333333">
        <ele>187.0</ele>
        <time>2019-07-05T15:09:07Z</time>
      </trkpt>
      <trkpt lat="41.28598" lon="-8.61518">
        <ele>186.0</ele>
        <time>2019-07-05T15:09:08Z</time>
      </trkpt>
      <trkpt lat="41.285895" lon="-8.615145">
        <ele>186.0</ele>
        <time>2019-07-05T15:09:09Z</time>
      </trkpt>
      <trkpt lat="41.285815" lon="-8.615095">
        <ele>185.0</ele>
        <time>2019-07-05T15:09:10Z</time>
      </trkpt>
      <trkpt lat="41.28573166666666" lon="-8.615055">
        <ele>185.0</ele>
        <time>2019-07-05T15:09:11Z</time>
      </trkpt>
      <trkpt lat="41.285646666666665" lon="-8.615015">
        <ele>184.0</ele>
        <time>2019-07-05T15:09:12Z</time>
      </trkpt>
      <trkpt lat="41.285561666666666" lon="-8.614975">
        <ele>184.0</ele>
        <time>2019-07-05T15:09:13Z</time>
      </trkpt>
      <trkpt lat="41.28548166666667" lon="-8.614921666666667">
        <ele>183.0</ele>
        <time>2019-07-05T15:09:14Z</time>
      </trkpt>
      <trkpt lat="41.285401666666665" lon="-8.614865">
        <ele>183.0</ele>
        <time>2019-07-05T15:09:15Z</time>
      </trkpt>
      <trkpt lat="41.28533" lon="-8.6148">
        <ele>182.0</ele>
        <time>2019-07-05T15:09:16Z</time>
      </trkpt>
      <trkpt lat="41.28526" lon="-8.614735">
        <ele>182.0</ele>
        <time>2019-07-05T15:09:17Z</time>
      </trkpt>
      <trkpt lat="41.28519" lon="-8.614665">
        <ele>182.0</ele>
        <time>2019-07-05T15:09:18Z</time>
      </trkpt>
      <trkpt lat="41.285113333333335" lon="-8.614601666666667">
        <ele>181.0</ele>
        <time>2019-07-05T15:09:19Z</time>
      </trkpt>
      <trkpt lat="41.285035" lon="-8.614545">
        <ele>180.0</ele>
        <time>2019-07-05T15:09:20Z</time>
      </trkpt>
      <trkpt lat="41.284951666666664" lon="-8.61449">
        <ele>179.0</ele>
        <time>2019-07-05T15:09:21Z</time>
      </trkpt>
      <trkpt lat="41.284865" lon="-8.61445">
        <ele>179.0</ele>
        <time>2019-07-05T15:09:22Z</time>
      </trkpt>
      <trkpt lat="41.28478" lon="-8.614415">
        <ele>178.0</ele>
        <time>2019-07-05T15:09:23Z</time>
      </trkpt>
      <trkpt lat="41.28469" lon="-8.614381666666667">
        <ele>178.0</ele>
        <time>2019-07-05T15:09:24Z</time>
      </trkpt>
      <trkpt lat="41.2846" lon="-8.614355">
        <ele>177.0</ele>
        <time>2019-07-05T15:09:25Z</time>
      </trkpt>
      <trkpt lat="41.28451166666667" lon="-8.614321666666667">
        <ele>176.0</ele>
        <time>2019-07-05T15:09:26Z</time>
      </trkpt>
      <trkpt lat="41.284425" lon="-8.61429">
        <ele>175.0</ele>
        <time>2019-07-05T15:09:27Z</time>
      </trkpt>
      <trkpt lat="41.28434" lon="-8.614255">
        <ele>175.0</ele>
        <time>2019-07-05T15:09:28Z</time>
      </trkpt>
      <trkpt lat="41.28425" lon="-8.614215">
        <ele>174.0</ele>
        <time>2019-07-05T15:09:29Z</time>
      </trkpt>
      <trkpt lat="41.284165" lon="-8.61418">
        <ele>174.0</ele>
        <time>2019-07-05T15:09:30Z</time>
      </trkpt>
      <trkpt lat="41.28408" lon="-8.61415">
        <ele>174.0</ele>
        <time>2019-07-05T15:09:31Z</time>
      </trkpt>
      <trkpt lat="41.283991666666665" lon="-8.61411">
        <ele>174.0</ele>
        <time>2019-07-05T15:09:32Z</time>
      </trkpt>
      <trkpt lat="41.283903333333335" lon="-8.614076666666667">
        <ele>174.0</ele>
        <time>2019-07-05T15:09:33Z</time>
      </trkpt>
      <trkpt lat="41.28382" lon="-8.614041666666667">
        <ele>174.0</ele>
        <time>2019-07-05T15:09:34Z</time>
      </trkpt>
      <trkpt lat="41.28373666666667" lon="-8.61401">
        <ele>174.0</ele>
        <time>2019-07-05T15:09:35Z</time>
      </trkpt>
      <trkpt lat="41.283655" lon="-8.613981666666668">
        <ele>173.0</ele>
        <time>2019-07-05T15:09:36Z</time>
      </trkpt>
      <trkpt lat="41.283575" lon="-8.613943333333333">
        <ele>173.0</ele>
        <time>2019-07-05T15:09:37Z</time>
      </trkpt>
      <trkpt lat="41.2835" lon="-8.613908333333333">
        <ele>172.0</ele>
        <time>2019-07-05T15:09:38Z</time>
      </trkpt>
      <trkpt lat="41.28342166666667" lon="-8.61388">
        <ele>172.0</ele>
        <time>2019-07-05T15:09:39Z</time>
      </trkpt>
      <trkpt lat="41.283345" lon="-8.613853333333333">
        <ele>172.0</ele>
        <time>2019-07-05T15:09:40Z</time>
      </trkpt>
      <trkpt lat="41.28327" lon="-8.61382">
        <ele>171.0</ele>
        <time>2019-07-05T15:09:41Z</time>
      </trkpt>
      <trkpt lat="41.28321" lon="-8.613771666666667">
        <ele>171.0</ele>
        <time>2019-07-05T15:09:42Z</time>
      </trkpt>
      <trkpt lat="41.283105" lon="-8.613695">
        <ele>170.0</ele>
        <time>2019-07-05T15:09:44Z</time>
      </trkpt>
      <trkpt lat="41.283015" lon="-8.613625">
        <ele>170.0</ele>
        <time>2019-07-05T15:09:46Z</time>
      </trkpt>
      <trkpt lat="41.28294" lon="-8.613561666666667">
        <ele>169.0</ele>
        <time>2019-07-05T15:09:48Z</time>
      </trkpt>
      <trkpt lat="41.28288" lon="-8.613495">
        <ele>169.0</ele>
        <time>2019-07-05T15:09:50Z</time>
      </trkpt>
      <trkpt lat="41.28277666666666" lon="-8.613471666666667">
        <ele>169.0</ele>
        <time>2019-07-05T15:09:53Z</time>
      </trkpt>
      <trkpt lat="41.282693333333334" lon="-8.61352">
        <ele>169.0</ele>
        <time>2019-07-05T15:09:55Z</time>
      </trkpt>
      <trkpt lat="41.28262" lon="-8.613561666666667">
        <ele>168.0</ele>
        <time>2019-07-05T15:09:57Z</time>
      </trkpt>
      <trkpt lat="41.282536666666665" lon="-8.613615">
        <ele>167.0</ele>
        <time>2019-07-05T15:09:59Z</time>
      </trkpt>
      <trkpt lat="41.282465" lon="-8.61369">
        <ele>167.0</ele>
        <time>2019-07-05T15:10:01Z</time>
      </trkpt>
      <trkpt lat="41.282395" lon="-8.613775">
        <ele>166.0</ele>
        <time>2019-07-05T15:10:03Z</time>
      </trkpt>
      <trkpt lat="41.28233" lon="-8.613875">
        <ele>167.0</ele>
        <time>2019-07-05T15:10:05Z</time>
      </trkpt>
      <trkpt lat="41.282275" lon="-8.613981666666668">
        <ele>168.0</ele>
        <time>2019-07-05T15:10:07Z</time>
      </trkpt>
      <trkpt lat="41.282215" lon="-8.614085">
        <ele>167.0</ele>
        <time>2019-07-05T15:10:09Z</time>
      </trkpt>
      <trkpt lat="41.28216166666667" lon="-8.61419">
        <ele>167.0</ele>
        <time>2019-07-05T15:10:11Z</time>
      </trkpt>
      <trkpt lat="41.2821" lon="-8.614281666666667">
        <ele>167.0</ele>
        <time>2019-07-05T15:10:13Z</time>
      </trkpt>
      <trkpt lat="41.282035" lon="-8.614351666666666">
        <ele>167.0</ele>
        <time>2019-07-05T15:10:15Z</time>
      </trkpt>
      <trkpt lat="41.281945" lon="-8.61441">
        <ele>166.0</ele>
        <time>2019-07-05T15:10:17Z</time>
      </trkpt>
      <trkpt lat="41.28184" lon="-8.61443">
        <ele>166.0</ele>
        <time>2019-07-05T15:10:19Z</time>
      </trkpt>
      <trkpt lat="41.281715" lon="-8.61442">
        <ele>165.0</ele>
        <time>2019-07-05T15:10:21Z</time>
      </trkpt>
      <trkpt lat="41.28158666666667" lon="-8.614386666666666">
        <ele>165.0</ele>
        <time>2019-07-05T15:10:23Z</time>
      </trkpt>
      <trkpt lat="41.281455" lon="-8.614356666666668">
        <ele>165.0</ele>
        <time>2019-07-05T15:10:25Z</time>
      </trkpt>
      <trkpt lat="41.281315" lon="-8.614335">
        <ele>164.0</ele>
        <time>2019-07-05T15:10:27Z</time>
      </trkpt>
      <trkpt lat="41.281241666666666" lon="-8.614323333333333">
        <ele>163.0</ele>
        <time>2019-07-05T15:10:28Z</time>
      </trkpt>
      <trkpt lat="41.28116833333333" lon="-8.614315">
        <ele>163.0</ele>
        <time>2019-07-05T15:10:29Z</time>
      </trkpt>
      <trkpt lat="41.281095" lon="-8.614316666666667">
        <ele>162.0</ele>
        <time>2019-07-05T15:10:30Z</time>
      </trkpt>
      <trkpt lat="41.281016666666666" lon="-8.614315">
        <ele>162.0</ele>
        <time>2019-07-05T15:10:31Z</time>
      </trkpt>
      <trkpt lat="41.28094166666666" lon="-8.614315">
        <ele>162.0</ele>
        <time>2019-07-05T15:10:32Z</time>
      </trkpt>
      <trkpt lat="41.28087" lon="-8.614311666666667">
        <ele>162.0</ele>
        <time>2019-07-05T15:10:33Z</time>
      </trkpt>
      <trkpt lat="41.280791666666666" lon="-8.614311666666667">
        <ele>161.0</ele>
        <time>2019-07-05T15:10:34Z</time>
      </trkpt>
      <trkpt lat="41.28071666666666" lon="-8.61431">
        <ele>162.0</ele>
        <time>2019-07-05T15:10:35Z</time>
      </trkpt>
      <trkpt lat="41.28058" lon="-8.614311666666667">
        <ele>161.0</ele>
        <time>2019-07-05T15:10:37Z</time>
      </trkpt>
      <trkpt lat="41.28045" lon="-8.614315">
        <ele>161.0</ele>
        <time>2019-07-05T15:10:39Z</time>
      </trkpt>
      <trkpt lat="41.280325" lon="-8.614303333333334">
        <ele>161.0</ele>
        <time>2019-07-05T15:10:41Z</time>
      </trkpt>
      <trkpt lat="41.2802" lon="-8.61429">
        <ele>162.0</ele>
        <time>2019-07-05T15:10:43Z</time>
      </trkpt>
      <trkpt lat="41.28008" lon="-8.61428">
        <ele>162.0</ele>
        <time>2019-07-05T15:10:45Z</time>
      </trkpt>
      <trkpt lat="41.27996" lon="-8.6143">
        <ele>162.0</ele>
        <time>2019-07-05T15:10:47Z</time>
      </trkpt>
      <trkpt lat="41.27986" lon="-8.614358333333334">
        <ele>163.0</ele>
        <time>2019-07-05T15:10:49Z</time>
      </trkpt>
      <trkpt lat="41.27977" lon="-8.61444">
        <ele>163.0</ele>
        <time>2019-07-05T15:10:51Z</time>
      </trkpt>
      <trkpt lat="41.279685" lon="-8.61452">
        <ele>162.0</ele>
        <time>2019-07-05T15:10:53Z</time>
      </trkpt>
      <trkpt lat="41.2796" lon="-8.614588333333334">
        <ele>162.0</ele>
        <time>2019-07-05T15:10:55Z</time>
      </trkpt>
      <trkpt lat="41.279505" lon="-8.61466">
        <ele>161.0</ele>
        <time>2019-07-05T15:10:57Z</time>
      </trkpt>
      <trkpt lat="41.279385" lon="-8.614695">
        <ele>161.0</ele>
        <time>2019-07-05T15:10:59Z</time>
      </trkpt>
      <trkpt lat="41.279265" lon="-8.614698333333333">
        <ele>160.0</ele>
        <time>2019-07-05T15:11:01Z</time>
      </trkpt>
      <trkpt lat="41.279155" lon="-8.614655">
        <ele>159.0</ele>
        <time>2019-07-05T15:11:03Z</time>
      </trkpt>
      <trkpt lat="41.279055" lon="-8.61456">
        <ele>159.0</ele>
        <time>2019-07-05T15:11:05Z</time>
      </trkpt>
      <trkpt lat="41.278976666666665" lon="-8.614395">
        <ele>159.0</ele>
        <time>2019-07-05T15:11:07Z</time>
      </trkpt>
      <trkpt lat="41.27890333333333" lon="-8.61424">
        <ele>158.0</ele>
        <time>2019-07-05T15:11:09Z</time>
      </trkpt>
      <trkpt lat="41.27883" lon="-8.614085">
        <ele>158.0</ele>
        <time>2019-07-05T15:11:11Z</time>
      </trkpt>
      <trkpt lat="41.278751666666665" lon="-8.61394">
        <ele>157.0</ele>
        <time>2019-07-05T15:11:13Z</time>
      </trkpt>
      <trkpt lat="41.27868" lon="-8.613805">
        <ele>158.0</ele>
        <time>2019-07-05T15:11:15Z</time>
      </trkpt>
      <trkpt lat="41.278596666666665" lon="-8.613685">
        <ele>157.0</ele>
        <time>2019-07-05T15:11:17Z</time>
      </trkpt>
      <trkpt lat="41.278495" lon="-8.6136">
        <ele>156.0</ele>
        <time>2019-07-05T15:11:19Z</time>
      </trkpt>
      <trkpt lat="41.27838" lon="-8.613555">
        <ele>155.0</ele>
        <time>2019-07-05T15:11:21Z</time>
      </trkpt>
      <trkpt lat="41.278261666666666" lon="-8.61352">
        <ele>155.0</ele>
        <time>2019-07-05T15:11:23Z</time>
      </trkpt>
      <trkpt lat="41.278146666666665" lon="-8.6135">
        <ele>155.0</ele>
        <time>2019-07-05T15:11:25Z</time>
      </trkpt>
      <trkpt lat="41.278035" lon="-8.6135">
        <ele>155.0</ele>
        <time>2019-07-05T15:11:27Z</time>
      </trkpt>
      <trkpt lat="41.277923333333334" lon="-8.613508333333334">
        <ele>154.0</ele>
        <time>2019-07-05T15:11:29Z</time>
      </trkpt>
      <trkpt lat="41.277816666666666" lon="-8.61353">
        <ele>154.0</ele>
        <time>2019-07-05T15:11:31Z</time>
      </trkpt>
      <trkpt lat="41.27771" lon="-8.613521666666667">
        <ele>154.0</ele>
        <time>2019-07-05T15:11:33Z</time>
      </trkpt>
      <trkpt lat="41.277635" lon="-8.61353">
        <ele>154.0</ele>
        <time>2019-07-05T15:11:35Z</time>
      </trkpt>
      <trkpt lat="41.277565" lon="-8.6135">
        <ele>153.0</ele>
        <time>2019-07-05T15:11:38Z</time>
      </trkpt>
      <trkpt lat="41.27753166666667" lon="-8.61339">
        <ele>153.0</ele>
        <time>2019-07-05T15:11:41Z</time>
      </trkpt>
      <trkpt lat="41.277535" lon="-8.613281666666667">
        <ele>153.0</ele>
        <time>2019-07-05T15:11:43Z</time>
      </trkpt>
      <trkpt lat="41.27753833333333" lon="-8.613163333333333">
        <ele>153.0</ele>
        <time>2019-07-05T15:11:45Z</time>
      </trkpt>
      <trkpt lat="41.277541666666664" lon="-8.613051666666667">
        <ele>153.0</ele>
        <time>2019-07-05T15:11:47Z</time>
      </trkpt>
      <trkpt lat="41.27753" lon="-8.612951666666667">
        <ele>153.0</ele>
        <time>2019-07-05T15:11:49Z</time>
      </trkpt>
      <trkpt lat="41.2775" lon="-8.612863333333333">
        <ele>153.0</ele>
        <time>2019-07-05T15:11:51Z</time>
      </trkpt>
      <trkpt lat="41.27742" lon="-8.612771666666667">
        <ele>152.0</ele>
        <time>2019-07-05T15:11:54Z</time>
      </trkpt>
      <trkpt lat="41.27734" lon="-8.612713333333334">
        <ele>151.0</ele>
        <time>2019-07-05T15:11:56Z</time>
      </trkpt>
      <trkpt lat="41.277275" lon="-8.61264">
        <ele>152.0</ele>
        <time>2019-07-05T15:11:58Z</time>
      </trkpt>
      <trkpt lat="41.27721" lon="-8.612555">
        <ele>152.0</ele>
        <time>2019-07-05T15:12:00Z</time>
      </trkpt>
      <trkpt lat="41.27715666666667" lon="-8.612446666666667">
        <ele>153.0</ele>
        <time>2019-07-05T15:12:02Z</time>
      </trkpt>
      <trkpt lat="41.277105" lon="-8.612325">
        <ele>153.0</ele>
        <time>2019-07-05T15:12:04Z</time>
      </trkpt>
      <trkpt lat="41.277076666666666" lon="-8.612198333333334">
        <ele>153.0</ele>
        <time>2019-07-05T15:12:06Z</time>
      </trkpt>
      <trkpt lat="41.27703" lon="-8.612071666666667">
        <ele>154.0</ele>
        <time>2019-07-05T15:12:08Z</time>
      </trkpt>
      <trkpt lat="41.27698" lon="-8.61195">
        <ele>155.0</ele>
        <time>2019-07-05T15:12:10Z</time>
      </trkpt>
      <trkpt lat="41.27692" lon="-8.61185">
        <ele>155.0</ele>
        <time>2019-07-05T15:12:12Z</time>
      </trkpt>
      <trkpt lat="41.27685" lon="-8.611775">
        <ele>155.0</ele>
        <time>2019-07-05T15:12:14Z</time>
      </trkpt>
      <trkpt lat="41.276775" lon="-8.611705">
        <ele>155.0</ele>
        <time>2019-07-05T15:12:16Z</time>
      </trkpt>
      <trkpt lat="41.27669" lon="-8.611655">
        <ele>155.0</ele>
        <time>2019-07-05T15:12:18Z</time>
      </trkpt>
      <trkpt lat="41.2766" lon="-8.611605">
        <ele>155.0</ele>
        <time>2019-07-05T15:12:20Z</time>
      </trkpt>
      <trkpt lat="41.276515" lon="-8.611558333333333">
        <ele>155.0</ele>
        <time>2019-07-05T15:12:22Z</time>
      </trkpt>
      <trkpt lat="41.276425" lon="-8.611516666666667">
        <ele>155.0</ele>
        <time>2019-07-05T15:12:24Z</time>
      </trkpt>
      <trkpt lat="41.27634166666667" lon="-8.61147">
        <ele>155.0</ele>
        <time>2019-07-05T15:12:26Z</time>
      </trkpt>
      <trkpt lat="41.27626" lon="-8.61142">
        <ele>156.0</ele>
        <time>2019-07-05T15:12:28Z</time>
      </trkpt>
      <trkpt lat="41.276185" lon="-8.61136">
        <ele>156.0</ele>
        <time>2019-07-05T15:12:30Z</time>
      </trkpt>
      <trkpt lat="41.276131666666664" lon="-8.611273333333333">
        <ele>156.0</ele>
        <time>2019-07-05T15:12:32Z</time>
      </trkpt>
      <trkpt lat="41.276065" lon="-8.6112">
        <ele>156.0</ele>
        <time>2019-07-05T15:12:34Z</time>
      </trkpt>
      <trkpt lat="41.276" lon="-8.61111">
        <ele>156.0</ele>
        <time>2019-07-05T15:12:36Z</time>
      </trkpt>
      <trkpt lat="41.275938333333336" lon="-8.611035">
        <ele>156.0</ele>
        <time>2019-07-05T15:12:38Z</time>
      </trkpt>
      <trkpt lat="41.275866666666666" lon="-8.610975">
        <ele>156.0</ele>
        <time>2019-07-05T15:12:40Z</time>
      </trkpt>
      <trkpt lat="41.275798333333334" lon="-8.610905">
        <ele>156.0</ele>
        <time>2019-07-05T15:12:42Z</time>
      </trkpt>
      <trkpt lat="41.275726666666664" lon="-8.610825">
        <ele>157.0</ele>
        <time>2019-07-05T15:12:44Z</time>
      </trkpt>
      <trkpt lat="41.27565666666667" lon="-8.61074">
        <ele>157.0</ele>
        <time>2019-07-05T15:12:46Z</time>
      </trkpt>
      <trkpt lat="41.275585" lon="-8.610655">
        <ele>157.0</ele>
        <time>2019-07-05T15:12:48Z</time>
      </trkpt>
      <trkpt lat="41.275515" lon="-8.610568333333333">
        <ele>157.0</ele>
        <time>2019-07-05T15:12:50Z</time>
      </trkpt>
      <trkpt lat="41.275445" lon="-8.61048">
        <ele>157.0</ele>
        <time>2019-07-05T15:12:52Z</time>
      </trkpt>
      <trkpt lat="41.275375" lon="-8.610395">
        <ele>158.0</ele>
        <time>2019-07-05T15:12:54Z</time>
      </trkpt>
      <trkpt lat="41.275301666666664" lon="-8.61031">
        <ele>159.0</ele>
        <time>2019-07-05T15:12:56Z</time>
      </trkpt>
      <trkpt lat="41.275225" lon="-8.610228333333334">
        <ele>159.0</ele>
        <time>2019-07-05T15:12:58Z</time>
      </trkpt>
      <trkpt lat="41.27514166666667" lon="-8.610155">
        <ele>159.0</ele>
        <time>2019-07-05T15:13:00Z</time>
      </trkpt>
      <trkpt lat="41.27506" lon="-8.610085">
        <ele>159.0</ele>
        <time>2019-07-05T15:13:02Z</time>
      </trkpt>
      <trkpt lat="41.274975" lon="-8.61003">
        <ele>159.0</ele>
        <time>2019-07-05T15:13:04Z</time>
      </trkpt>
      <trkpt lat="41.274883333333335" lon="-8.60997">
        <ele>159.0</ele>
        <time>2019-07-05T15:13:06Z</time>
      </trkpt>
      <trkpt lat="41.27479666666667" lon="-8.609908333333333">
        <ele>159.0</ele>
        <time>2019-07-05T15:13:08Z</time>
      </trkpt>
      <trkpt lat="41.27471666666667" lon="-8.609845">
        <ele>158.0</ele>
        <time>2019-07-05T15:13:10Z</time>
      </trkpt>
      <trkpt lat="41.27463" lon="-8.609785">
        <ele>158.0</ele>
        <time>2019-07-05T15:13:12Z</time>
      </trkpt>
      <trkpt lat="41.274545" lon="-8.60973">
        <ele>160.0</ele>
        <time>2019-07-05T15:13:14Z</time>
      </trkpt>
      <trkpt lat="41.27446" lon="-8.60967">
        <ele>160.0</ele>
        <time>2019-07-05T15:13:16Z</time>
      </trkpt>
      <trkpt lat="41.27437" lon="-8.609603333333334">
        <ele>160.0</ele>
        <time>2019-07-05T15:13:18Z</time>
      </trkpt>
      <trkpt lat="41.27428166666667" lon="-8.60955">
        <ele>160.0</ele>
        <time>2019-07-05T15:13:20Z</time>
      </trkpt>
      <trkpt lat="41.27419666666667" lon="-8.609495">
        <ele>160.0</ele>
        <time>2019-07-05T15:13:22Z</time>
      </trkpt>
      <trkpt lat="41.27411" lon="-8.609431666666667">
        <ele>159.0</ele>
        <time>2019-07-05T15:13:24Z</time>
      </trkpt>
      <trkpt lat="41.274025" lon="-8.609375">
        <ele>159.0</ele>
        <time>2019-07-05T15:13:26Z</time>
      </trkpt>
      <trkpt lat="41.273935" lon="-8.609318333333333">
        <ele>158.0</ele>
        <time>2019-07-05T15:13:28Z</time>
      </trkpt>
      <trkpt lat="41.27385" lon="-8.609261666666667">
        <ele>158.0</ele>
        <time>2019-07-05T15:13:30Z</time>
      </trkpt>
      <trkpt lat="41.27378" lon="-8.609185">
        <ele>158.0</ele>
        <time>2019-07-05T15:13:32Z</time>
      </trkpt>
      <trkpt lat="41.27372" lon="-8.6091">
        <ele>158.0</ele>
        <time>2019-07-05T15:13:34Z</time>
      </trkpt>
      <trkpt lat="41.27366" lon="-8.609025">
        <ele>159.0</ele>
        <time>2019-07-05T15:13:36Z</time>
      </trkpt>
      <trkpt lat="41.27356" lon="-8.60899">
        <ele>158.0</ele>
        <time>2019-07-05T15:13:39Z</time>
      </trkpt>
      <trkpt lat="41.273475" lon="-8.609018333333333">
        <ele>158.0</ele>
        <time>2019-07-05T15:13:41Z</time>
      </trkpt>
      <trkpt lat="41.273395" lon="-8.609056666666667">
        <ele>158.0</ele>
        <time>2019-07-05T15:13:43Z</time>
      </trkpt>
      <trkpt lat="41.2733" lon="-8.60909">
        <ele>157.0</ele>
        <time>2019-07-05T15:13:45Z</time>
      </trkpt>
      <trkpt lat="41.27320666666667" lon="-8.60912">
        <ele>157.0</ele>
        <time>2019-07-05T15:13:47Z</time>
      </trkpt>
      <trkpt lat="41.273115" lon="-8.609145">
        <ele>156.0</ele>
        <time>2019-07-05T15:13:49Z</time>
      </trkpt>
      <trkpt lat="41.27303166666667" lon="-8.60918">
        <ele>156.0</ele>
        <time>2019-07-05T15:13:51Z</time>
      </trkpt>
      <trkpt lat="41.272965" lon="-8.609215">
        <ele>155.0</ele>
        <time>2019-07-05T15:13:53Z</time>
      </trkpt>
      <trkpt lat="41.27287" lon="-8.609255">
        <ele>156.0</ele>
        <time>2019-07-05T15:13:56Z</time>
      </trkpt>
      <trkpt lat="41.272795" lon="-8.60927">
        <ele>157.0</ele>
        <time>2019-07-05T15:14:00Z</time>
      </trkpt>
      <trkpt lat="41.272710000000004" lon="-8.60928">
        <ele>156.0</ele>
        <time>2019-07-05T15:14:05Z</time>
      </trkpt>
      <trkpt lat="41.27264" lon="-8.60924">
        <ele>156.0</ele>
        <time>2019-07-05T15:14:09Z</time>
      </trkpt>
      <trkpt lat="41.27259" lon="-8.609125">
        <ele>155.0</ele>
        <time>2019-07-05T15:14:12Z</time>
      </trkpt>
      <trkpt lat="41.272495" lon="-8.60908">
        <ele>155.0</ele>
        <time>2019-07-05T15:14:14Z</time>
      </trkpt>
      <trkpt lat="41.27239" lon="-8.609036666666666">
        <ele>155.0</ele>
        <time>2019-07-05T15:14:16Z</time>
      </trkpt>
      <trkpt lat="41.27228" lon="-8.60899">
        <ele>155.0</ele>
        <time>2019-07-05T15:14:18Z</time>
      </trkpt>
      <trkpt lat="41.27216" lon="-8.608935">
        <ele>155.0</ele>
        <time>2019-07-05T15:14:20Z</time>
      </trkpt>
      <trkpt lat="41.272035" lon="-8.608876666666667">
        <ele>154.0</ele>
        <time>2019-07-05T15:14:22Z</time>
      </trkpt>
      <trkpt lat="41.271905" lon="-8.608811666666666">
        <ele>153.0</ele>
        <time>2019-07-05T15:14:24Z</time>
      </trkpt>
      <trkpt lat="41.27184" lon="-8.60877">
        <ele>154.0</ele>
        <time>2019-07-05T15:14:25Z</time>
      </trkpt>
      <trkpt lat="41.27177" lon="-8.608745">
        <ele>153.0</ele>
        <time>2019-07-05T15:14:26Z</time>
      </trkpt>
      <trkpt lat="41.271701666666665" lon="-8.60871">
        <ele>154.0</ele>
        <time>2019-07-05T15:14:27Z</time>
      </trkpt>
      <trkpt lat="41.27162666666667" lon="-8.608675">
        <ele>154.0</ele>
        <time>2019-07-05T15:14:28Z</time>
      </trkpt>
      <trkpt lat="41.271548333333335" lon="-8.608643333333333">
        <ele>153.0</ele>
        <time>2019-07-05T15:14:29Z</time>
      </trkpt>
      <trkpt lat="41.271475" lon="-8.608605">
        <ele>152.0</ele>
        <time>2019-07-05T15:14:30Z</time>
      </trkpt>
      <trkpt lat="41.2714" lon="-8.60857">
        <ele>152.0</ele>
        <time>2019-07-05T15:14:31Z</time>
      </trkpt>
      <trkpt lat="41.27131833333333" lon="-8.60853">
        <ele>151.0</ele>
        <time>2019-07-05T15:14:32Z</time>
      </trkpt>
      <trkpt lat="41.27124" lon="-8.608476666666666">
        <ele>151.0</ele>
        <time>2019-07-05T15:14:33Z</time>
      </trkpt>
      <trkpt lat="41.27116" lon="-8.608425">
        <ele>151.0</ele>
        <time>2019-07-05T15:14:34Z</time>
      </trkpt>
      <trkpt lat="41.271085" lon="-8.60838">
        <ele>150.0</ele>
        <time>2019-07-05T15:14:35Z</time>
      </trkpt>
      <trkpt lat="41.271" lon="-8.60833">
        <ele>150.0</ele>
        <time>2019-07-05T15:14:36Z</time>
      </trkpt>
      <trkpt lat="41.270921666666666" lon="-8.608278333333333">
        <ele>149.0</ele>
        <time>2019-07-05T15:14:37Z</time>
      </trkpt>
      <trkpt lat="41.27084166666667" lon="-8.608235">
        <ele>149.0</ele>
        <time>2019-07-05T15:14:38Z</time>
      </trkpt>
      <trkpt lat="41.270755" lon="-8.60818">
        <ele>149.0</ele>
        <time>2019-07-05T15:14:39Z</time>
      </trkpt>
      <trkpt lat="41.27067" lon="-8.608128333333333">
        <ele>149.0</ele>
        <time>2019-07-05T15:14:40Z</time>
      </trkpt>
      <trkpt lat="41.270585" lon="-8.608085">
        <ele>148.0</ele>
        <time>2019-07-05T15:14:41Z</time>
      </trkpt>
      <trkpt lat="41.270493333333334" lon="-8.608031666666667">
        <ele>148.0</ele>
        <time>2019-07-05T15:14:42Z</time>
      </trkpt>
      <trkpt lat="41.270406666666666" lon="-8.607985">
        <ele>148.0</ele>
        <time>2019-07-05T15:14:43Z</time>
      </trkpt>
      <trkpt lat="41.270325" lon="-8.607938333333333">
        <ele>147.0</ele>
        <time>2019-07-05T15:14:44Z</time>
      </trkpt>
      <trkpt lat="41.270245" lon="-8.607883333333334">
        <ele>147.0</ele>
        <time>2019-07-05T15:14:45Z</time>
      </trkpt>
      <trkpt lat="41.27016" lon="-8.607835">
        <ele>147.0</ele>
        <time>2019-07-05T15:14:46Z</time>
      </trkpt>
      <trkpt lat="41.27008" lon="-8.607788333333334">
        <ele>147.0</ele>
        <time>2019-07-05T15:14:47Z</time>
      </trkpt>
      <trkpt lat="41.270005" lon="-8.607746666666667">
        <ele>146.0</ele>
        <time>2019-07-05T15:14:48Z</time>
      </trkpt>
      <trkpt lat="41.26992" lon="-8.6077">
        <ele>146.0</ele>
        <time>2019-07-05T15:14:49Z</time>
      </trkpt>
      <trkpt lat="41.26984" lon="-8.607645">
        <ele>146.0</ele>
        <time>2019-07-05T15:14:50Z</time>
      </trkpt>
      <trkpt lat="41.269765" lon="-8.607595">
        <ele>146.0</ele>
        <time>2019-07-05T15:14:51Z</time>
      </trkpt>
      <trkpt lat="41.26969166666667" lon="-8.60755">
        <ele>146.0</ele>
        <time>2019-07-05T15:14:52Z</time>
      </trkpt>
      <trkpt lat="41.269615" lon="-8.6075">
        <ele>147.0</ele>
        <time>2019-07-05T15:14:53Z</time>
      </trkpt>
      <trkpt lat="41.269545" lon="-8.60746">
        <ele>147.0</ele>
        <time>2019-07-05T15:14:54Z</time>
      </trkpt>
      <trkpt lat="41.26947" lon="-8.607408333333334">
        <ele>147.0</ele>
        <time>2019-07-05T15:14:55Z</time>
      </trkpt>
      <trkpt lat="41.269395" lon="-8.607366666666667">
        <ele>146.0</ele>
        <time>2019-07-05T15:14:56Z</time>
      </trkpt>
      <trkpt lat="41.26932" lon="-8.607326666666667">
        <ele>146.0</ele>
        <time>2019-07-05T15:14:57Z</time>
      </trkpt>
      <trkpt lat="41.26924666666667" lon="-8.607278333333333">
        <ele>146.0</ele>
        <time>2019-07-05T15:14:58Z</time>
      </trkpt>
      <trkpt lat="41.269175" lon="-8.607238333333333">
        <ele>146.0</ele>
        <time>2019-07-05T15:14:59Z</time>
      </trkpt>
      <trkpt lat="41.269105" lon="-8.60721">
        <ele>146.0</ele>
        <time>2019-07-05T15:15:00Z</time>
      </trkpt>
      <trkpt lat="41.26903" lon="-8.607175">
        <ele>145.0</ele>
        <time>2019-07-05T15:15:01Z</time>
      </trkpt>
      <trkpt lat="41.268955" lon="-8.607136666666667">
        <ele>145.0</ele>
        <time>2019-07-05T15:15:02Z</time>
      </trkpt>
      <trkpt lat="41.268885" lon="-8.6071">
        <ele>145.0</ele>
        <time>2019-07-05T15:15:03Z</time>
      </trkpt>
      <trkpt lat="41.26881" lon="-8.60706">
        <ele>145.0</ele>
        <time>2019-07-05T15:15:04Z</time>
      </trkpt>
      <trkpt lat="41.268735" lon="-8.60702">
        <ele>144.0</ele>
        <time>2019-07-05T15:15:05Z</time>
      </trkpt>
      <trkpt lat="41.26866" lon="-8.606991666666667">
        <ele>144.0</ele>
        <time>2019-07-05T15:15:06Z</time>
      </trkpt>
      <trkpt lat="41.268586666666664" lon="-8.606951666666667">
        <ele>144.0</ele>
        <time>2019-07-05T15:15:07Z</time>
      </trkpt>
      <trkpt lat="41.268515" lon="-8.606913333333333">
        <ele>144.0</ele>
        <time>2019-07-05T15:15:08Z</time>
      </trkpt>
      <trkpt lat="41.268445" lon="-8.606875">
        <ele>144.0</ele>
        <time>2019-07-05T15:15:09Z</time>
      </trkpt>
      <trkpt lat="41.268375" lon="-8.606838333333334">
        <ele>144.0</ele>
        <time>2019-07-05T15:15:10Z</time>
      </trkpt>
      <trkpt lat="41.268305" lon="-8.606803333333334">
        <ele>143.0</ele>
        <time>2019-07-05T15:15:11Z</time>
      </trkpt>
      <trkpt lat="41.268235" lon="-8.606768333333333">
        <ele>143.0</ele>
        <time>2019-07-05T15:15:12Z</time>
      </trkpt>
      <trkpt lat="41.268165" lon="-8.606735">
        <ele>143.0</ele>
        <time>2019-07-05T15:15:13Z</time>
      </trkpt>
      <trkpt lat="41.268096666666665" lon="-8.606705">
        <ele>143.0</ele>
        <time>2019-07-05T15:15:14Z</time>
      </trkpt>
      <trkpt lat="41.267965" lon="-8.606636666666667">
        <ele>143.0</ele>
        <time>2019-07-05T15:15:16Z</time>
      </trkpt>
      <trkpt lat="41.267831666666666" lon="-8.606573333333333">
        <ele>143.0</ele>
        <time>2019-07-05T15:15:18Z</time>
      </trkpt>
      <trkpt lat="41.267705" lon="-8.606515">
        <ele>143.0</ele>
        <time>2019-07-05T15:15:20Z</time>
      </trkpt>
      <trkpt lat="41.26758" lon="-8.606455">
        <ele>143.0</ele>
        <time>2019-07-05T15:15:22Z</time>
      </trkpt>
      <trkpt lat="41.26746" lon="-8.6064">
        <ele>143.0</ele>
        <time>2019-07-05T15:15:24Z</time>
      </trkpt>
      <trkpt lat="41.26736" lon="-8.606348333333333">
        <ele>144.0</ele>
        <time>2019-07-05T15:15:26Z</time>
      </trkpt>
      <trkpt lat="41.26729" lon="-8.60625">
        <ele>143.0</ele>
        <time>2019-07-05T15:15:28Z</time>
      </trkpt>
      <trkpt lat="41.26726" lon="-8.606125">
        <ele>143.0</ele>
        <time>2019-07-05T15:15:30Z</time>
      </trkpt>
      <trkpt lat="41.26724" lon="-8.605991666666666">
        <ele>143.0</ele>
        <time>2019-07-05T15:15:32Z</time>
      </trkpt>
      <trkpt lat="41.26723666666667" lon="-8.60585">
        <ele>143.0</ele>
        <time>2019-07-05T15:15:34Z</time>
      </trkpt>
      <trkpt lat="41.267235" lon="-8.605701666666667">
        <ele>142.0</ele>
        <time>2019-07-05T15:15:36Z</time>
      </trkpt>
      <trkpt lat="41.26725" lon="-8.605551666666667">
        <ele>141.0</ele>
        <time>2019-07-05T15:15:38Z</time>
      </trkpt>
      <trkpt lat="41.267265" lon="-8.605395">
        <ele>140.0</ele>
        <time>2019-07-05T15:15:40Z</time>
      </trkpt>
      <trkpt lat="41.26729" lon="-8.605235">
        <ele>139.0</ele>
        <time>2019-07-05T15:15:42Z</time>
      </trkpt>
      <trkpt lat="41.267305" lon="-8.605055">
        <ele>138.0</ele>
        <time>2019-07-05T15:15:44Z</time>
      </trkpt>
      <trkpt lat="41.26732166666667" lon="-8.604888333333333">
        <ele>138.0</ele>
        <time>2019-07-05T15:15:46Z</time>
      </trkpt>
      <trkpt lat="41.26734166666667" lon="-8.604726666666666">
        <ele>138.0</ele>
        <time>2019-07-05T15:15:48Z</time>
      </trkpt>
      <trkpt lat="41.26736666666667" lon="-8.604583333333334">
        <ele>137.0</ele>
        <time>2019-07-05T15:15:50Z</time>
      </trkpt>
      <trkpt lat="41.26738" lon="-8.604485">
        <ele>137.0</ele>
        <time>2019-07-05T15:15:53Z</time>
      </trkpt>
      <trkpt lat="41.267405" lon="-8.604385">
        <ele>138.0</ele>
        <time>2019-07-05T15:15:56Z</time>
      </trkpt>
      <trkpt lat="41.267453333333336" lon="-8.604283333333333">
        <ele>139.0</ele>
        <time>2019-07-05T15:15:59Z</time>
      </trkpt>
      <trkpt lat="41.267425" lon="-8.604188333333333">
        <ele>139.0</ele>
        <time>2019-07-05T15:16:02Z</time>
      </trkpt>
      <trkpt lat="41.26735" lon="-8.604116666666666">
        <ele>138.0</ele>
        <time>2019-07-05T15:16:05Z</time>
      </trkpt>
      <trkpt lat="41.267265" lon="-8.60408">
        <ele>138.0</ele>
        <time>2019-07-05T15:16:08Z</time>
      </trkpt>
      <trkpt lat="41.26719166666667" lon="-8.604025">
        <ele>137.0</ele>
        <time>2019-07-05T15:16:13Z</time>
      </trkpt>
      <trkpt lat="41.26719" lon="-8.603901666666667">
        <ele>136.0</ele>
        <time>2019-07-05T15:16:16Z</time>
      </trkpt>
      <trkpt lat="41.26722" lon="-8.6038">
        <ele>137.0</ele>
        <time>2019-07-05T15:16:18Z</time>
      </trkpt>
      <trkpt lat="41.26726" lon="-8.6037">
        <ele>137.0</ele>
        <time>2019-07-05T15:16:20Z</time>
      </trkpt>
      <trkpt lat="41.26731" lon="-8.603585">
        <ele>137.0</ele>
        <time>2019-07-05T15:16:22Z</time>
      </trkpt>
      <trkpt lat="41.267345" lon="-8.603468333333334">
        <ele>137.0</ele>
        <time>2019-07-05T15:16:24Z</time>
      </trkpt>
      <trkpt lat="41.267365" lon="-8.60335">
        <ele>138.0</ele>
        <time>2019-07-05T15:16:26Z</time>
      </trkpt>
      <trkpt lat="41.26739" lon="-8.603225">
        <ele>138.0</ele>
        <time>2019-07-05T15:16:28Z</time>
      </trkpt>
      <trkpt lat="41.26741" lon="-8.603106666666667">
        <ele>139.0</ele>
        <time>2019-07-05T15:16:30Z</time>
      </trkpt>
      <trkpt lat="41.26744" lon="-8.60299">
        <ele>140.0</ele>
        <time>2019-07-05T15:16:32Z</time>
      </trkpt>
      <trkpt lat="41.267471666666665" lon="-8.602881666666667">
        <ele>140.0</ele>
        <time>2019-07-05T15:16:34Z</time>
      </trkpt>
      <trkpt lat="41.267495" lon="-8.60278">
        <ele>140.0</ele>
        <time>2019-07-05T15:16:36Z</time>
      </trkpt>
      <trkpt lat="41.26751" lon="-8.60268">
        <ele>141.0</ele>
        <time>2019-07-05T15:16:38Z</time>
      </trkpt>
      <trkpt lat="41.2675" lon="-8.602575">
        <ele>141.0</ele>
        <time>2019-07-05T15:16:40Z</time>
      </trkpt>
      <trkpt lat="41.2675" lon="-8.602465">
        <ele>141.0</ele>
        <time>2019-07-05T15:16:42Z</time>
      </trkpt>
      <trkpt lat="41.267505" lon="-8.60236">
        <ele>140.0</ele>
        <time>2019-07-05T15:16:44Z</time>
      </trkpt>
      <trkpt lat="41.267516666666666" lon="-8.602251666666668">
        <ele>140.0</ele>
        <time>2019-07-05T15:16:46Z</time>
      </trkpt>
      <trkpt lat="41.267541666666666" lon="-8.60212">
        <ele>140.0</ele>
        <time>2019-07-05T15:16:49Z</time>
      </trkpt>
      <trkpt lat="41.26756" lon="-8.602">
        <ele>141.0</ele>
        <time>2019-07-05T15:16:52Z</time>
      </trkpt>
      <trkpt lat="41.26756666666667" lon="-8.601885">
        <ele>141.0</ele>
        <time>2019-07-05T15:16:55Z</time>
      </trkpt>
      <trkpt lat="41.26751" lon="-8.601825">
        <ele>142.0</ele>
        <time>2019-07-05T15:16:58Z</time>
      </trkpt>
      <trkpt lat="41.267435" lon="-8.601825">
        <ele>141.0</ele>
        <time>2019-07-05T15:17:00Z</time>
      </trkpt>
      <trkpt lat="41.26734" lon="-8.601855">
        <ele>141.0</ele>
        <time>2019-07-05T15:17:02Z</time>
      </trkpt>
      <trkpt lat="41.26724" lon="-8.601895">
        <ele>140.0</ele>
        <time>2019-07-05T15:17:04Z</time>
      </trkpt>
      <trkpt lat="41.267135" lon="-8.60195">
        <ele>140.0</ele>
        <time>2019-07-05T15:17:06Z</time>
      </trkpt>
      <trkpt lat="41.267025" lon="-8.601995">
        <ele>140.0</ele>
        <time>2019-07-05T15:17:08Z</time>
      </trkpt>
      <trkpt lat="41.266905" lon="-8.602028333333333">
        <ele>140.0</ele>
        <time>2019-07-05T15:17:10Z</time>
      </trkpt>
      <trkpt lat="41.26679" lon="-8.60205">
        <ele>140.0</ele>
        <time>2019-07-05T15:17:12Z</time>
      </trkpt>
      <trkpt lat="41.26667" lon="-8.602043333333333">
        <ele>140.0</ele>
        <time>2019-07-05T15:17:14Z</time>
      </trkpt>
      <trkpt lat="41.26656" lon="-8.60204">
        <ele>140.0</ele>
        <time>2019-07-05T15:17:16Z</time>
      </trkpt>
      <trkpt lat="41.26645" lon="-8.602025">
        <ele>139.0</ele>
        <time>2019-07-05T15:17:18Z</time>
      </trkpt>
      <trkpt lat="41.26635" lon="-8.601981666666667">
        <ele>139.0</ele>
        <time>2019-07-05T15:17:20Z</time>
      </trkpt>
      <trkpt lat="41.26627666666667" lon="-8.601885">
        <ele>139.0</ele>
        <time>2019-07-05T15:17:22Z</time>
      </trkpt>
      <trkpt lat="41.266225" lon="-8.601765">
        <ele>140.0</ele>
        <time>2019-07-05T15:17:24Z</time>
      </trkpt>
      <trkpt lat="41.266195" lon="-8.601625">
        <ele>141.0</ele>
        <time>2019-07-05T15:17:26Z</time>
      </trkpt>
      <trkpt lat="41.266165" lon="-8.601505">
        <ele>141.0</ele>
        <time>2019-07-05T15:17:28Z</time>
      </trkpt>
      <trkpt lat="41.26613" lon="-8.60139">
        <ele>142.0</ele>
        <time>2019-07-05T15:17:30Z</time>
      </trkpt>
      <trkpt lat="41.26607" lon="-8.6013">
        <ele>142.0</ele>
        <time>2019-07-05T15:17:32Z</time>
      </trkpt>
      <trkpt lat="41.26599" lon="-8.601245">
        <ele>143.0</ele>
        <time>2019-07-05T15:17:34Z</time>
      </trkpt>
      <trkpt lat="41.26591" lon="-8.601213333333334">
        <ele>143.0</ele>
        <time>2019-07-05T15:17:36Z</time>
      </trkpt>
      <trkpt lat="41.26583" lon="-8.601205">
        <ele>144.0</ele>
        <time>2019-07-05T15:17:38Z</time>
      </trkpt>
      <trkpt lat="41.265735" lon="-8.6012">
        <ele>144.0</ele>
        <time>2019-07-05T15:17:40Z</time>
      </trkpt>
      <trkpt lat="41.26565" lon="-8.60119">
        <ele>145.0</ele>
        <time>2019-07-05T15:17:42Z</time>
      </trkpt>
      <trkpt lat="41.26556" lon="-8.601176666666667">
        <ele>145.0</ele>
        <time>2019-07-05T15:17:44Z</time>
      </trkpt>
      <trkpt lat="41.265465" lon="-8.60117">
        <ele>144.0</ele>
        <time>2019-07-05T15:17:46Z</time>
      </trkpt>
      <trkpt lat="41.265365" lon="-8.60116">
        <ele>144.0</ele>
        <time>2019-07-05T15:17:48Z</time>
      </trkpt>
      <trkpt lat="41.265265" lon="-8.60115">
        <ele>144.0</ele>
        <time>2019-07-05T15:17:50Z</time>
      </trkpt>
      <trkpt lat="41.26516" lon="-8.601141666666667">
        <ele>144.0</ele>
        <time>2019-07-05T15:17:52Z</time>
      </trkpt>
      <trkpt lat="41.265065" lon="-8.601115">
        <ele>144.0</ele>
        <time>2019-07-05T15:17:54Z</time>
      </trkpt>
      <trkpt lat="41.264975" lon="-8.601035">
        <ele>144.0</ele>
        <time>2019-07-05T15:17:56Z</time>
      </trkpt>
      <trkpt lat="41.26489" lon="-8.600966666666666">
        <ele>143.0</ele>
        <time>2019-07-05T15:17:58Z</time>
      </trkpt>
      <trkpt lat="41.26479" lon="-8.60092">
        <ele>143.0</ele>
        <time>2019-07-05T15:18:00Z</time>
      </trkpt>
      <trkpt lat="41.26469" lon="-8.600875">
        <ele>143.0</ele>
        <time>2019-07-05T15:18:02Z</time>
      </trkpt>
      <trkpt lat="41.264586666666666" lon="-8.60084">
        <ele>143.0</ele>
        <time>2019-07-05T15:18:04Z</time>
      </trkpt>
      <trkpt lat="41.26448" lon="-8.60083">
        <ele>143.0</ele>
        <time>2019-07-05T15:18:06Z</time>
      </trkpt>
      <trkpt lat="41.26438" lon="-8.600811666666667">
        <ele>142.0</ele>
        <time>2019-07-05T15:18:08Z</time>
      </trkpt>
      <trkpt lat="41.26428" lon="-8.60079">
        <ele>143.0</ele>
        <time>2019-07-05T15:18:10Z</time>
      </trkpt>
      <trkpt lat="41.264175" lon="-8.600775">
        <ele>143.0</ele>
        <time>2019-07-05T15:18:12Z</time>
      </trkpt>
      <trkpt lat="41.26408" lon="-8.600755">
        <ele>143.0</ele>
        <time>2019-07-05T15:18:14Z</time>
      </trkpt>
      <trkpt lat="41.263985" lon="-8.600735">
        <ele>143.0</ele>
        <time>2019-07-05T15:18:16Z</time>
      </trkpt>
      <trkpt lat="41.26389" lon="-8.60073">
        <ele>144.0</ele>
        <time>2019-07-05T15:18:18Z</time>
      </trkpt>
      <trkpt lat="41.263815" lon="-8.600723333333333">
        <ele>144.0</ele>
        <time>2019-07-05T15:18:20Z</time>
      </trkpt>
      <trkpt lat="41.26374" lon="-8.600716666666667">
        <ele>145.0</ele>
        <time>2019-07-05T15:18:22Z</time>
      </trkpt>
      <trkpt lat="41.263666666666666" lon="-8.600698333333334">
        <ele>144.0</ele>
        <time>2019-07-05T15:18:24Z</time>
      </trkpt>
      <trkpt lat="41.263595" lon="-8.6007">
        <ele>145.0</ele>
        <time>2019-07-05T15:18:26Z</time>
      </trkpt>
      <trkpt lat="41.263513333333336" lon="-8.60069">
        <ele>145.0</ele>
        <time>2019-07-05T15:18:28Z</time>
      </trkpt>
      <trkpt lat="41.26343" lon="-8.600685">
        <ele>145.0</ele>
        <time>2019-07-05T15:18:30Z</time>
      </trkpt>
      <trkpt lat="41.263355" lon="-8.600663333333333">
        <ele>146.0</ele>
        <time>2019-07-05T15:18:32Z</time>
      </trkpt>
      <trkpt lat="41.26325" lon="-8.60064">
        <ele>146.0</ele>
        <time>2019-07-05T15:18:35Z</time>
      </trkpt>
      <trkpt lat="41.263145" lon="-8.600621666666667">
        <ele>147.0</ele>
        <time>2019-07-05T15:18:38Z</time>
      </trkpt>
      <trkpt lat="41.26305166666667" lon="-8.6006">
        <ele>147.0</ele>
        <time>2019-07-05T15:18:41Z</time>
      </trkpt>
      <trkpt lat="41.26295" lon="-8.600573333333333">
        <ele>147.0</ele>
        <time>2019-07-05T15:18:44Z</time>
      </trkpt>
      <trkpt lat="41.26288" lon="-8.600545">
        <ele>147.0</ele>
        <time>2019-07-05T15:18:46Z</time>
      </trkpt>
      <trkpt lat="41.262805" lon="-8.60052">
        <ele>147.0</ele>
        <time>2019-07-05T15:18:48Z</time>
      </trkpt>
      <trkpt lat="41.262735" lon="-8.600505">
        <ele>147.0</ele>
        <time>2019-07-05T15:18:50Z</time>
      </trkpt>
      <trkpt lat="41.262661666666666" lon="-8.600495">
        <ele>147.0</ele>
        <time>2019-07-05T15:18:52Z</time>
      </trkpt>
      <trkpt lat="41.262565" lon="-8.600495">
        <ele>147.0</ele>
        <time>2019-07-05T15:18:55Z</time>
      </trkpt>
      <trkpt lat="41.26250666666667" lon="-8.600561666666668">
        <ele>146.0</ele>
        <time>2019-07-05T15:18:58Z</time>
      </trkpt>
      <trkpt lat="41.262475" lon="-8.600695">
        <ele>147.0</ele>
        <time>2019-07-05T15:19:01Z</time>
      </trkpt>
      <trkpt lat="41.262451666666664" lon="-8.600793333333334">
        <ele>148.0</ele>
        <time>2019-07-05T15:19:03Z</time>
      </trkpt>
      <trkpt lat="41.26243" lon="-8.600905">
        <ele>148.0</ele>
        <time>2019-07-05T15:19:05Z</time>
      </trkpt>
      <trkpt lat="41.262405" lon="-8.60102">
        <ele>148.0</ele>
        <time>2019-07-05T15:19:07Z</time>
      </trkpt>
      <trkpt lat="41.26238166666667" lon="-8.601138333333333">
        <ele>148.0</ele>
        <time>2019-07-05T15:19:09Z</time>
      </trkpt>
      <trkpt lat="41.262335" lon="-8.601231666666667">
        <ele>147.0</ele>
        <time>2019-07-05T15:19:11Z</time>
      </trkpt>
      <trkpt lat="41.26228166666667" lon="-8.601305">
        <ele>147.0</ele>
        <time>2019-07-05T15:19:13Z</time>
      </trkpt>
      <trkpt lat="41.262225" lon="-8.601366666666667">
        <ele>147.0</ele>
        <time>2019-07-05T15:19:15Z</time>
      </trkpt>
      <trkpt lat="41.262125" lon="-8.60133">
        <ele>147.0</ele>
        <time>2019-07-05T15:19:18Z</time>
      </trkpt>
      <trkpt lat="41.262085" lon="-8.601196666666667">
        <ele>147.0</ele>
        <time>2019-07-05T15:19:21Z</time>
      </trkpt>
      <trkpt lat="41.26207" lon="-8.601081666666667">
        <ele>147.0</ele>
        <time>2019-07-05T15:19:23Z</time>
      </trkpt>
      <trkpt lat="41.262055" lon="-8.600965">
        <ele>147.0</ele>
        <time>2019-07-05T15:19:25Z</time>
      </trkpt>
      <trkpt lat="41.26203" lon="-8.60085">
        <ele>148.0</ele>
        <time>2019-07-05T15:19:27Z</time>
      </trkpt>
      <trkpt lat="41.262008333333334" lon="-8.60072">
        <ele>147.0</ele>
        <time>2019-07-05T15:19:29Z</time>
      </trkpt>
      <trkpt lat="41.26198" lon="-8.60058">
        <ele>148.0</ele>
        <time>2019-07-05T15:19:31Z</time>
      </trkpt>
      <trkpt lat="41.261966666666666" lon="-8.60045">
        <ele>148.0</ele>
        <time>2019-07-05T15:19:33Z</time>
      </trkpt>
      <trkpt lat="41.261945" lon="-8.600335">
        <ele>148.0</ele>
        <time>2019-07-05T15:19:35Z</time>
      </trkpt>
      <trkpt lat="41.261921666666666" lon="-8.60022">
        <ele>149.0</ele>
        <time>2019-07-05T15:19:37Z</time>
      </trkpt>
      <trkpt lat="41.261915" lon="-8.600093333333334">
        <ele>150.0</ele>
        <time>2019-07-05T15:19:39Z</time>
      </trkpt>
      <trkpt lat="41.26190166666667" lon="-8.599975">
        <ele>150.0</ele>
        <time>2019-07-05T15:19:41Z</time>
      </trkpt>
      <trkpt lat="41.26188666666667" lon="-8.599865">
        <ele>150.0</ele>
        <time>2019-07-05T15:19:43Z</time>
      </trkpt>
      <trkpt lat="41.261885" lon="-8.59975">
        <ele>150.0</ele>
        <time>2019-07-05T15:19:45Z</time>
      </trkpt>
      <trkpt lat="41.26188" lon="-8.599641666666667">
        <ele>150.0</ele>
        <time>2019-07-05T15:19:47Z</time>
      </trkpt>
      <trkpt lat="41.26185" lon="-8.599535">
        <ele>151.0</ele>
        <time>2019-07-05T15:19:49Z</time>
      </trkpt>
      <trkpt lat="41.261795" lon="-8.599445">
        <ele>151.0</ele>
        <time>2019-07-05T15:19:51Z</time>
      </trkpt>
      <trkpt lat="41.261725" lon="-8.599405">
        <ele>152.0</ele>
        <time>2019-07-05T15:19:53Z</time>
      </trkpt>
      <trkpt lat="41.261635" lon="-8.59939">
        <ele>151.0</ele>
        <time>2019-07-05T15:19:55Z</time>
      </trkpt>
      <trkpt lat="41.26154" lon="-8.599373333333334">
        <ele>152.0</ele>
        <time>2019-07-05T15:19:57Z</time>
      </trkpt>
      <trkpt lat="41.261445" lon="-8.59936">
        <ele>152.0</ele>
        <time>2019-07-05T15:19:59Z</time>
      </trkpt>
      <trkpt lat="41.26135166666667" lon="-8.599335">
        <ele>152.0</ele>
        <time>2019-07-05T15:20:01Z</time>
      </trkpt>
      <trkpt lat="41.26126" lon="-8.599303333333333">
        <ele>152.0</ele>
        <time>2019-07-05T15:20:03Z</time>
      </trkpt>
      <trkpt lat="41.26117" lon="-8.599296666666667">
        <ele>152.0</ele>
        <time>2019-07-05T15:20:05Z</time>
      </trkpt>
      <trkpt lat="41.26108" lon="-8.599286666666666">
        <ele>152.0</ele>
        <time>2019-07-05T15:20:07Z</time>
      </trkpt>
      <trkpt lat="41.26099" lon="-8.599286666666666">
        <ele>151.0</ele>
        <time>2019-07-05T15:20:09Z</time>
      </trkpt>
      <trkpt lat="41.26089" lon="-8.59931">
        <ele>150.0</ele>
        <time>2019-07-05T15:20:11Z</time>
      </trkpt>
      <trkpt lat="41.26078166666667" lon="-8.599345">
        <ele>149.0</ele>
        <time>2019-07-05T15:20:13Z</time>
      </trkpt>
      <trkpt lat="41.260665" lon="-8.599396666666667">
        <ele>148.0</ele>
        <time>2019-07-05T15:20:15Z</time>
      </trkpt>
      <trkpt lat="41.260535" lon="-8.599485">
        <ele>148.0</ele>
        <time>2019-07-05T15:20:17Z</time>
      </trkpt>
      <trkpt lat="41.26047" lon="-8.599525">
        <ele>147.0</ele>
        <time>2019-07-05T15:20:18Z</time>
      </trkpt>
      <trkpt lat="41.2604" lon="-8.59957">
        <ele>147.0</ele>
        <time>2019-07-05T15:20:19Z</time>
      </trkpt>
      <trkpt lat="41.26033" lon="-8.59961">
        <ele>146.0</ele>
        <time>2019-07-05T15:20:20Z</time>
      </trkpt>
      <trkpt lat="41.260255" lon="-8.599655">
        <ele>146.0</ele>
        <time>2019-07-05T15:20:21Z</time>
      </trkpt>
      <trkpt lat="41.260185" lon="-8.59969">
        <ele>145.0</ele>
        <time>2019-07-05T15:20:22Z</time>
      </trkpt>
      <trkpt lat="41.260101666666664" lon="-8.59973">
        <ele>144.0</ele>
        <time>2019-07-05T15:20:23Z</time>
      </trkpt>
      <trkpt lat="41.260025" lon="-8.599771666666667">
        <ele>143.0</ele>
        <time>2019-07-05T15:20:24Z</time>
      </trkpt>
      <trkpt lat="41.25994" lon="-8.5998">
        <ele>143.0</ele>
        <time>2019-07-05T15:20:25Z</time>
      </trkpt>
      <trkpt lat="41.25985" lon="-8.599825">
        <ele>141.0</ele>
        <time>2019-07-05T15:20:26Z</time>
      </trkpt>
      <trkpt lat="41.25976" lon="-8.599851666666666">
        <ele>141.0</ele>
        <time>2019-07-05T15:20:27Z</time>
      </trkpt>
      <trkpt lat="41.25967166666667" lon="-8.599865">
        <ele>140.0</ele>
        <time>2019-07-05T15:20:28Z</time>
      </trkpt>
      <trkpt lat="41.25959" lon="-8.599868333333333">
        <ele>139.0</ele>
        <time>2019-07-05T15:20:29Z</time>
      </trkpt>
      <trkpt lat="41.259515" lon="-8.599865">
        <ele>139.0</ele>
        <time>2019-07-05T15:20:30Z</time>
      </trkpt>
      <trkpt lat="41.259436666666666" lon="-8.59986">
        <ele>138.0</ele>
        <time>2019-07-05T15:20:31Z</time>
      </trkpt>
      <trkpt lat="41.25931" lon="-8.599875">
        <ele>137.0</ele>
        <time>2019-07-05T15:20:33Z</time>
      </trkpt>
      <trkpt lat="41.25920166666667" lon="-8.599943333333334">
        <ele>137.0</ele>
        <time>2019-07-05T15:20:35Z</time>
      </trkpt>
      <trkpt lat="41.25909" lon="-8.60002">
        <ele>137.0</ele>
        <time>2019-07-05T15:20:37Z</time>
      </trkpt>
      <trkpt lat="41.258968333333335" lon="-8.600035">
        <ele>137.0</ele>
        <time>2019-07-05T15:20:39Z</time>
      </trkpt>
      <trkpt lat="41.258865" lon="-8.599951666666668">
        <ele>136.0</ele>
        <time>2019-07-05T15:20:41Z</time>
      </trkpt>
      <trkpt lat="41.25882" lon="-8.599785">
        <ele>137.0</ele>
        <time>2019-07-05T15:20:43Z</time>
      </trkpt>
      <trkpt lat="41.258835" lon="-8.59961">
        <ele>137.0</ele>
        <time>2019-07-05T15:20:45Z</time>
      </trkpt>
      <trkpt lat="41.258811666666666" lon="-8.599445">
        <ele>137.0</ele>
        <time>2019-07-05T15:20:47Z</time>
      </trkpt>
      <trkpt lat="41.25875666666666" lon="-8.599295">
        <ele>137.0</ele>
        <time>2019-07-05T15:20:49Z</time>
      </trkpt>
      <trkpt lat="41.25869" lon="-8.599145">
        <ele>137.0</ele>
        <time>2019-07-05T15:20:51Z</time>
      </trkpt>
      <trkpt lat="41.258615" lon="-8.59899">
        <ele>138.0</ele>
        <time>2019-07-05T15:20:53Z</time>
      </trkpt>
      <trkpt lat="41.258536666666664" lon="-8.59884">
        <ele>138.0</ele>
        <time>2019-07-05T15:20:55Z</time>
      </trkpt>
      <trkpt lat="41.258455" lon="-8.59869">
        <ele>138.0</ele>
        <time>2019-07-05T15:20:57Z</time>
      </trkpt>
      <trkpt lat="41.25837" lon="-8.598543333333334">
        <ele>138.0</ele>
        <time>2019-07-05T15:20:59Z</time>
      </trkpt>
      <trkpt lat="41.258275" lon="-8.598405">
        <ele>138.0</ele>
        <time>2019-07-05T15:21:01Z</time>
      </trkpt>
      <trkpt lat="41.258175" lon="-8.59827">
        <ele>137.0</ele>
        <time>2019-07-05T15:21:03Z</time>
      </trkpt>
      <trkpt lat="41.25812" lon="-8.598198333333332">
        <ele>137.0</ele>
        <time>2019-07-05T15:21:04Z</time>
      </trkpt>
      <trkpt lat="41.258015" lon="-8.598075">
        <ele>137.0</ele>
        <time>2019-07-05T15:21:06Z</time>
      </trkpt>
      <trkpt lat="41.25790833333333" lon="-8.597965">
        <ele>138.0</ele>
        <time>2019-07-05T15:21:08Z</time>
      </trkpt>
      <trkpt lat="41.257805" lon="-8.597851666666667">
        <ele>138.0</ele>
        <time>2019-07-05T15:21:10Z</time>
      </trkpt>
      <trkpt lat="41.257705" lon="-8.597743333333334">
        <ele>139.0</ele>
        <time>2019-07-05T15:21:12Z</time>
      </trkpt>
      <trkpt lat="41.25761" lon="-8.59764">
        <ele>140.0</ele>
        <time>2019-07-05T15:21:14Z</time>
      </trkpt>
      <trkpt lat="41.257525" lon="-8.59754">
        <ele>140.0</ele>
        <time>2019-07-05T15:21:16Z</time>
      </trkpt>
      <trkpt lat="41.25745" lon="-8.597455">
        <ele>140.0</ele>
        <time>2019-07-05T15:21:18Z</time>
      </trkpt>
      <trkpt lat="41.257375" lon="-8.597375">
        <ele>140.0</ele>
        <time>2019-07-05T15:21:20Z</time>
      </trkpt>
      <trkpt lat="41.2573" lon="-8.597295">
        <ele>141.0</ele>
        <time>2019-07-05T15:21:22Z</time>
      </trkpt>
      <trkpt lat="41.25723" lon="-8.59721">
        <ele>142.0</ele>
        <time>2019-07-05T15:21:24Z</time>
      </trkpt>
      <trkpt lat="41.257151666666665" lon="-8.597136666666668">
        <ele>142.0</ele>
        <time>2019-07-05T15:21:26Z</time>
      </trkpt>
      <trkpt lat="41.257081666666664" lon="-8.597055">
        <ele>142.0</ele>
        <time>2019-07-05T15:21:28Z</time>
      </trkpt>
      <trkpt lat="41.257015" lon="-8.59697">
        <ele>143.0</ele>
        <time>2019-07-05T15:21:30Z</time>
      </trkpt>
      <trkpt lat="41.25694" lon="-8.59689">
        <ele>143.0</ele>
        <time>2019-07-05T15:21:32Z</time>
      </trkpt>
      <trkpt lat="41.256861666666666" lon="-8.596798333333334">
        <ele>144.0</ele>
        <time>2019-07-05T15:21:34Z</time>
      </trkpt>
      <trkpt lat="41.25678" lon="-8.59672">
        <ele>144.0</ele>
        <time>2019-07-05T15:21:36Z</time>
      </trkpt>
      <trkpt lat="41.256703333333334" lon="-8.596633333333333">
        <ele>145.0</ele>
        <time>2019-07-05T15:21:38Z</time>
      </trkpt>
      <trkpt lat="41.25664" lon="-8.596565">
        <ele>145.0</ele>
        <time>2019-07-05T15:21:40Z</time>
      </trkpt>
      <trkpt lat="41.256575" lon="-8.59649">
        <ele>146.0</ele>
        <time>2019-07-05T15:21:42Z</time>
      </trkpt>
      <trkpt lat="41.25651" lon="-8.59641">
        <ele>146.0</ele>
        <time>2019-07-05T15:21:44Z</time>
      </trkpt>
      <trkpt lat="41.256445" lon="-8.59634">
        <ele>146.0</ele>
        <time>2019-07-05T15:21:46Z</time>
      </trkpt>
      <trkpt lat="41.25638" lon="-8.596268333333333">
        <ele>147.0</ele>
        <time>2019-07-05T15:21:48Z</time>
      </trkpt>
      <trkpt lat="41.25631833333333" lon="-8.596201666666667">
        <ele>147.0</ele>
        <time>2019-07-05T15:21:50Z</time>
      </trkpt>
      <trkpt lat="41.25625333333333" lon="-8.59613">
        <ele>147.0</ele>
        <time>2019-07-05T15:21:52Z</time>
      </trkpt>
      <trkpt lat="41.25619" lon="-8.596058333333334">
        <ele>147.0</ele>
        <time>2019-07-05T15:21:54Z</time>
      </trkpt>
      <trkpt lat="41.256121666666665" lon="-8.595975">
        <ele>147.0</ele>
        <time>2019-07-05T15:21:56Z</time>
      </trkpt>
      <trkpt lat="41.256045" lon="-8.595888333333333">
        <ele>146.0</ele>
        <time>2019-07-05T15:21:58Z</time>
      </trkpt>
      <trkpt lat="41.255965" lon="-8.5958">
        <ele>146.0</ele>
        <time>2019-07-05T15:22:00Z</time>
      </trkpt>
      <trkpt lat="41.25588166666667" lon="-8.595696666666667">
        <ele>146.0</ele>
        <time>2019-07-05T15:22:02Z</time>
      </trkpt>
      <trkpt lat="41.255785" lon="-8.595595">
        <ele>145.0</ele>
        <time>2019-07-05T15:22:04Z</time>
      </trkpt>
      <trkpt lat="41.25569" lon="-8.595475">
        <ele>145.0</ele>
        <time>2019-07-05T15:22:06Z</time>
      </trkpt>
      <trkpt lat="41.25559" lon="-8.595355">
        <ele>144.0</ele>
        <time>2019-07-05T15:22:08Z</time>
      </trkpt>
      <trkpt lat="41.25548166666667" lon="-8.595228333333333">
        <ele>144.0</ele>
        <time>2019-07-05T15:22:10Z</time>
      </trkpt>
      <trkpt lat="41.25543" lon="-8.595151666666666">
        <ele>144.0</ele>
        <time>2019-07-05T15:22:11Z</time>
      </trkpt>
      <trkpt lat="41.255325" lon="-8.595015">
        <ele>144.0</ele>
        <time>2019-07-05T15:22:13Z</time>
      </trkpt>
      <trkpt lat="41.255265" lon="-8.594943333333333">
        <ele>144.0</ele>
        <time>2019-07-05T15:22:14Z</time>
      </trkpt>
      <trkpt lat="41.255205" lon="-8.594871666666666">
        <ele>144.0</ele>
        <time>2019-07-05T15:22:15Z</time>
      </trkpt>
      <trkpt lat="41.255145" lon="-8.594806666666667">
        <ele>143.0</ele>
        <time>2019-07-05T15:22:16Z</time>
      </trkpt>
      <trkpt lat="41.255085" lon="-8.59473">
        <ele>143.0</ele>
        <time>2019-07-05T15:22:17Z</time>
      </trkpt>
      <trkpt lat="41.25502" lon="-8.594658333333333">
        <ele>143.0</ele>
        <time>2019-07-05T15:22:18Z</time>
      </trkpt>
      <trkpt lat="41.254956666666665" lon="-8.594585">
        <ele>143.0</ele>
        <time>2019-07-05T15:22:19Z</time>
      </trkpt>
      <trkpt lat="41.254895" lon="-8.594505">
        <ele>142.0</ele>
        <time>2019-07-05T15:22:20Z</time>
      </trkpt>
      <trkpt lat="41.25483" lon="-8.594435">
        <ele>141.0</ele>
        <time>2019-07-05T15:22:21Z</time>
      </trkpt>
      <trkpt lat="41.254765" lon="-8.59437">
        <ele>141.0</ele>
        <time>2019-07-05T15:22:22Z</time>
      </trkpt>
      <trkpt lat="41.254705" lon="-8.59429">
        <ele>140.0</ele>
        <time>2019-07-05T15:22:23Z</time>
      </trkpt>
      <trkpt lat="41.254635" lon="-8.59422">
        <ele>140.0</ele>
        <time>2019-07-05T15:22:24Z</time>
      </trkpt>
      <trkpt lat="41.25457" lon="-8.594145">
        <ele>140.0</ele>
        <time>2019-07-05T15:22:25Z</time>
      </trkpt>
      <trkpt lat="41.254505" lon="-8.594065">
        <ele>139.0</ele>
        <time>2019-07-05T15:22:26Z</time>
      </trkpt>
      <trkpt lat="41.254445" lon="-8.593986666666666">
        <ele>139.0</ele>
        <time>2019-07-05T15:22:27Z</time>
      </trkpt>
      <trkpt lat="41.25438" lon="-8.59391">
        <ele>139.0</ele>
        <time>2019-07-05T15:22:28Z</time>
      </trkpt>
      <trkpt lat="41.254315" lon="-8.59383">
        <ele>138.0</ele>
        <time>2019-07-05T15:22:29Z</time>
      </trkpt>
      <trkpt lat="41.25425" lon="-8.593755">
        <ele>138.0</ele>
        <time>2019-07-05T15:22:30Z</time>
      </trkpt>
      <trkpt lat="41.254185" lon="-8.59368">
        <ele>137.0</ele>
        <time>2019-07-05T15:22:31Z</time>
      </trkpt>
      <trkpt lat="41.25412333333333" lon="-8.593606666666666">
        <ele>138.0</ele>
        <time>2019-07-05T15:22:32Z</time>
      </trkpt>
      <trkpt lat="41.254061666666665" lon="-8.593535">
        <ele>137.0</ele>
        <time>2019-07-05T15:22:33Z</time>
      </trkpt>
      <trkpt lat="41.254" lon="-8.59346">
        <ele>137.0</ele>
        <time>2019-07-05T15:22:34Z</time>
      </trkpt>
      <trkpt lat="41.25394" lon="-8.593391666666667">
        <ele>137.0</ele>
        <time>2019-07-05T15:22:35Z</time>
      </trkpt>
      <trkpt lat="41.253881666666665" lon="-8.59332">
        <ele>137.0</ele>
        <time>2019-07-05T15:22:36Z</time>
      </trkpt>
      <trkpt lat="41.25383" lon="-8.593245">
        <ele>137.0</ele>
        <time>2019-07-05T15:22:37Z</time>
      </trkpt>
      <trkpt lat="41.25377" lon="-8.593178333333332">
        <ele>137.0</ele>
        <time>2019-07-05T15:22:38Z</time>
      </trkpt>
      <trkpt lat="41.25371666666667" lon="-8.593115">
        <ele>137.0</ele>
        <time>2019-07-05T15:22:39Z</time>
      </trkpt>
      <trkpt lat="41.253661666666666" lon="-8.593048333333334">
        <ele>138.0</ele>
        <time>2019-07-05T15:22:40Z</time>
      </trkpt>
      <trkpt lat="41.25355666666667" lon="-8.59293">
        <ele>138.0</ele>
        <time>2019-07-05T15:22:42Z</time>
      </trkpt>
      <trkpt lat="41.253456666666665" lon="-8.592815">
        <ele>138.0</ele>
        <time>2019-07-05T15:22:44Z</time>
      </trkpt>
      <trkpt lat="41.25336" lon="-8.592706666666666">
        <ele>137.0</ele>
        <time>2019-07-05T15:22:46Z</time>
      </trkpt>
      <trkpt lat="41.25327" lon="-8.592598333333333">
        <ele>137.0</ele>
        <time>2019-07-05T15:22:48Z</time>
      </trkpt>
      <trkpt lat="41.253185" lon="-8.592491666666668">
        <ele>137.0</ele>
        <time>2019-07-05T15:22:50Z</time>
      </trkpt>
      <trkpt lat="41.253105" lon="-8.592395">
        <ele>137.0</ele>
        <time>2019-07-05T15:22:52Z</time>
      </trkpt>
      <trkpt lat="41.25301" lon="-8.592345">
        <ele>137.0</ele>
        <time>2019-07-05T15:22:54Z</time>
      </trkpt>
      <trkpt lat="41.252901666666666" lon="-8.59236">
        <ele>136.0</ele>
        <time>2019-07-05T15:22:56Z</time>
      </trkpt>
      <trkpt lat="41.252805" lon="-8.59242">
        <ele>136.0</ele>
        <time>2019-07-05T15:22:58Z</time>
      </trkpt>
      <trkpt lat="41.252705" lon="-8.592485">
        <ele>135.0</ele>
        <time>2019-07-05T15:23:00Z</time>
      </trkpt>
      <trkpt lat="41.25259" lon="-8.592521666666666">
        <ele>135.0</ele>
        <time>2019-07-05T15:23:02Z</time>
      </trkpt>
      <trkpt lat="41.252471666666665" lon="-8.592498333333333">
        <ele>135.0</ele>
        <time>2019-07-05T15:23:04Z</time>
      </trkpt>
      <trkpt lat="41.252365" lon="-8.59247">
        <ele>135.0</ele>
        <time>2019-07-05T15:23:06Z</time>
      </trkpt>
      <trkpt lat="41.252255" lon="-8.59244">
        <ele>135.0</ele>
        <time>2019-07-05T15:23:08Z</time>
      </trkpt>
      <trkpt lat="41.252145" lon="-8.5924">
        <ele>135.0</ele>
        <time>2019-07-05T15:23:10Z</time>
      </trkpt>
      <trkpt lat="41.25204166666666" lon="-8.59236">
        <ele>134.0</ele>
        <time>2019-07-05T15:23:12Z</time>
      </trkpt>
      <trkpt lat="41.251936666666666" lon="-8.59232">
        <ele>134.0</ele>
        <time>2019-07-05T15:23:14Z</time>
      </trkpt>
      <trkpt lat="41.25183" lon="-8.592285">
        <ele>134.0</ele>
        <time>2019-07-05T15:23:16Z</time>
      </trkpt>
      <trkpt lat="41.25172" lon="-8.592231666666667">
        <ele>133.0</ele>
        <time>2019-07-05T15:23:18Z</time>
      </trkpt>
      <trkpt lat="41.2516" lon="-8.592193333333332">
        <ele>133.0</ele>
        <time>2019-07-05T15:23:20Z</time>
      </trkpt>
      <trkpt lat="41.25148333333333" lon="-8.59215">
        <ele>133.0</ele>
        <time>2019-07-05T15:23:22Z</time>
      </trkpt>
      <trkpt lat="41.251376666666665" lon="-8.592111666666666">
        <ele>132.0</ele>
        <time>2019-07-05T15:23:24Z</time>
      </trkpt>
      <trkpt lat="41.251265" lon="-8.592075">
        <ele>132.0</ele>
        <time>2019-07-05T15:23:26Z</time>
      </trkpt>
      <trkpt lat="41.25115666666667" lon="-8.592055">
        <ele>131.0</ele>
        <time>2019-07-05T15:23:28Z</time>
      </trkpt>
      <trkpt lat="41.251045" lon="-8.592043333333333">
        <ele>130.0</ele>
        <time>2019-07-05T15:23:30Z</time>
      </trkpt>
      <trkpt lat="41.250925" lon="-8.59205">
        <ele>130.0</ele>
        <time>2019-07-05T15:23:32Z</time>
      </trkpt>
      <trkpt lat="41.250805" lon="-8.59208">
        <ele>129.0</ele>
        <time>2019-07-05T15:23:34Z</time>
      </trkpt>
      <trkpt lat="41.25067" lon="-8.592095">
        <ele>128.0</ele>
        <time>2019-07-05T15:23:36Z</time>
      </trkpt>
      <trkpt lat="41.250595" lon="-8.59209">
        <ele>128.0</ele>
        <time>2019-07-05T15:23:37Z</time>
      </trkpt>
      <trkpt lat="41.250455" lon="-8.592098333333333">
        <ele>127.0</ele>
        <time>2019-07-05T15:23:39Z</time>
      </trkpt>
      <trkpt lat="41.25037666666667" lon="-8.592098333333333">
        <ele>126.0</ele>
        <time>2019-07-05T15:23:40Z</time>
      </trkpt>
      <trkpt lat="41.2503" lon="-8.592101666666666">
        <ele>126.0</ele>
        <time>2019-07-05T15:23:41Z</time>
      </trkpt>
      <trkpt lat="41.250225" lon="-8.592098333333333">
        <ele>125.0</ele>
        <time>2019-07-05T15:23:42Z</time>
      </trkpt>
      <trkpt lat="41.250145" lon="-8.592098333333333">
        <ele>125.0</ele>
        <time>2019-07-05T15:23:43Z</time>
      </trkpt>
      <trkpt lat="41.25007" lon="-8.59209">
        <ele>124.0</ele>
        <time>2019-07-05T15:23:44Z</time>
      </trkpt>
      <trkpt lat="41.249995" lon="-8.592083333333333">
        <ele>124.0</ele>
        <time>2019-07-05T15:23:45Z</time>
      </trkpt>
      <trkpt lat="41.24992" lon="-8.592081666666667">
        <ele>123.0</ele>
        <time>2019-07-05T15:23:46Z</time>
      </trkpt>
      <trkpt lat="41.24985" lon="-8.592076666666667">
        <ele>123.0</ele>
        <time>2019-07-05T15:23:47Z</time>
      </trkpt>
      <trkpt lat="41.249775" lon="-8.59207">
        <ele>123.0</ele>
        <time>2019-07-05T15:23:48Z</time>
      </trkpt>
      <trkpt lat="41.2497" lon="-8.59206">
        <ele>123.0</ele>
        <time>2019-07-05T15:23:49Z</time>
      </trkpt>
      <trkpt lat="41.24956" lon="-8.592041666666667">
        <ele>123.0</ele>
        <time>2019-07-05T15:23:51Z</time>
      </trkpt>
      <trkpt lat="41.249425" lon="-8.59202">
        <ele>123.0</ele>
        <time>2019-07-05T15:23:53Z</time>
      </trkpt>
      <trkpt lat="41.2493" lon="-8.591985">
        <ele>123.0</ele>
        <time>2019-07-05T15:23:55Z</time>
      </trkpt>
      <trkpt lat="41.24917" lon="-8.591945">
        <ele>122.0</ele>
        <time>2019-07-05T15:23:57Z</time>
      </trkpt>
      <trkpt lat="41.249046666666665" lon="-8.59192">
        <ele>122.0</ele>
        <time>2019-07-05T15:23:59Z</time>
      </trkpt>
      <trkpt lat="41.24892" lon="-8.59194">
        <ele>122.0</ele>
        <time>2019-07-05T15:24:01Z</time>
      </trkpt>
      <trkpt lat="41.248795" lon="-8.591965">
        <ele>122.0</ele>
        <time>2019-07-05T15:24:03Z</time>
      </trkpt>
      <trkpt lat="41.24867166666667" lon="-8.591968333333334">
        <ele>122.0</ele>
        <time>2019-07-05T15:24:05Z</time>
      </trkpt>
      <trkpt lat="41.24857" lon="-8.59192">
        <ele>122.0</ele>
        <time>2019-07-05T15:24:07Z</time>
      </trkpt>
      <trkpt lat="41.248466666666666" lon="-8.591885">
        <ele>121.0</ele>
        <time>2019-07-05T15:24:09Z</time>
      </trkpt>
      <trkpt lat="41.24837" lon="-8.591886666666667">
        <ele>121.0</ele>
        <time>2019-07-05T15:24:11Z</time>
      </trkpt>
      <trkpt lat="41.24826" lon="-8.591905">
        <ele>120.0</ele>
        <time>2019-07-05T15:24:13Z</time>
      </trkpt>
      <trkpt lat="41.248151666666665" lon="-8.591925">
        <ele>120.0</ele>
        <time>2019-07-05T15:24:15Z</time>
      </trkpt>
      <trkpt lat="41.24805666666666" lon="-8.591946666666667">
        <ele>120.0</ele>
        <time>2019-07-05T15:24:17Z</time>
      </trkpt>
      <trkpt lat="41.247965" lon="-8.59196">
        <ele>120.0</ele>
        <time>2019-07-05T15:24:19Z</time>
      </trkpt>
      <trkpt lat="41.247895" lon="-8.591908333333333">
        <ele>120.0</ele>
        <time>2019-07-05T15:24:22Z</time>
      </trkpt>
      <trkpt lat="41.247905" lon="-8.591775">
        <ele>120.0</ele>
        <time>2019-07-05T15:24:25Z</time>
      </trkpt>
      <trkpt lat="41.24792" lon="-8.59166">
        <ele>120.0</ele>
        <time>2019-07-05T15:24:27Z</time>
      </trkpt>
      <trkpt lat="41.247935" lon="-8.591525">
        <ele>120.0</ele>
        <time>2019-07-05T15:24:29Z</time>
      </trkpt>
      <trkpt lat="41.247945" lon="-8.591378333333333">
        <ele>120.0</ele>
        <time>2019-07-05T15:24:31Z</time>
      </trkpt>
      <trkpt lat="41.247951666666665" lon="-8.591233333333333">
        <ele>121.0</ele>
        <time>2019-07-05T15:24:33Z</time>
      </trkpt>
      <trkpt lat="41.247955" lon="-8.591095">
        <ele>121.0</ele>
        <time>2019-07-05T15:24:35Z</time>
      </trkpt>
      <trkpt lat="41.247946666666664" lon="-8.59097">
        <ele>120.0</ele>
        <time>2019-07-05T15:24:37Z</time>
      </trkpt>
      <trkpt lat="41.247926666666665" lon="-8.59084">
        <ele>121.0</ele>
        <time>2019-07-05T15:24:39Z</time>
      </trkpt>
      <trkpt lat="41.247908333333335" lon="-8.590716666666667">
        <ele>121.0</ele>
        <time>2019-07-05T15:24:41Z</time>
      </trkpt>
      <trkpt lat="41.24789" lon="-8.590595">
        <ele>121.0</ele>
        <time>2019-07-05T15:24:43Z</time>
      </trkpt>
      <trkpt lat="41.247875" lon="-8.590473333333334">
        <ele>121.0</ele>
        <time>2019-07-05T15:24:45Z</time>
      </trkpt>
      <trkpt lat="41.247855" lon="-8.59037">
        <ele>122.0</ele>
        <time>2019-07-05T15:24:47Z</time>
      </trkpt>
      <trkpt lat="41.247836666666664" lon="-8.59024">
        <ele>122.0</ele>
        <time>2019-07-05T15:24:50Z</time>
      </trkpt>
      <trkpt lat="41.247815" lon="-8.590125">
        <ele>122.0</ele>
        <time>2019-07-05T15:24:53Z</time>
      </trkpt>
      <trkpt lat="41.24778" lon="-8.59003">
        <ele>123.0</ele>
        <time>2019-07-05T15:24:56Z</time>
      </trkpt>
      <trkpt lat="41.24769" lon="-8.589985">
        <ele>123.0</ele>
        <time>2019-07-05T15:25:00Z</time>
      </trkpt>
      <trkpt lat="41.24759" lon="-8.589938333333333">
        <ele>123.0</ele>
        <time>2019-07-05T15:25:03Z</time>
      </trkpt>
      <trkpt lat="41.24752" lon="-8.5899">
        <ele>123.0</ele>
        <time>2019-07-05T15:25:05Z</time>
      </trkpt>
      <trkpt lat="41.24745333333333" lon="-8.589855">
        <ele>123.0</ele>
        <time>2019-07-05T15:25:07Z</time>
      </trkpt>
      <trkpt lat="41.247385" lon="-8.5898">
        <ele>123.0</ele>
        <time>2019-07-05T15:25:09Z</time>
      </trkpt>
      <trkpt lat="41.24730666666667" lon="-8.589756666666666">
        <ele>123.0</ele>
        <time>2019-07-05T15:25:11Z</time>
      </trkpt>
      <trkpt lat="41.24722" lon="-8.58973">
        <ele>123.0</ele>
        <time>2019-07-05T15:25:13Z</time>
      </trkpt>
      <trkpt lat="41.247135" lon="-8.589705">
        <ele>123.0</ele>
        <time>2019-07-05T15:25:15Z</time>
      </trkpt>
      <trkpt lat="41.24704" lon="-8.589705">
        <ele>123.0</ele>
        <time>2019-07-05T15:25:17Z</time>
      </trkpt>
      <trkpt lat="41.246945" lon="-8.589726666666667">
        <ele>123.0</ele>
        <time>2019-07-05T15:25:19Z</time>
      </trkpt>
      <trkpt lat="41.24684833333333" lon="-8.589733333333333">
        <ele>123.0</ele>
        <time>2019-07-05T15:25:21Z</time>
      </trkpt>
      <trkpt lat="41.246755" lon="-8.58974">
        <ele>122.0</ele>
        <time>2019-07-05T15:25:23Z</time>
      </trkpt>
      <trkpt lat="41.246675" lon="-8.58975">
        <ele>122.0</ele>
        <time>2019-07-05T15:25:25Z</time>
      </trkpt>
      <trkpt lat="41.2466" lon="-8.58976">
        <ele>122.0</ele>
        <time>2019-07-05T15:25:27Z</time>
      </trkpt>
      <trkpt lat="41.24650666666667" lon="-8.589765">
        <ele>121.0</ele>
        <time>2019-07-05T15:25:30Z</time>
      </trkpt>
      <trkpt lat="41.246471666666665" lon="-8.589665">
        <ele>122.0</ele>
        <time>2019-07-05T15:25:35Z</time>
      </trkpt>
      <trkpt lat="41.246485" lon="-8.58957">
        <ele>122.0</ele>
        <time>2019-07-05T15:25:37Z</time>
      </trkpt>
      <trkpt lat="41.24648" lon="-8.589466666666667">
        <ele>123.0</ele>
        <time>2019-07-05T15:25:39Z</time>
      </trkpt>
      <trkpt lat="41.246473333333334" lon="-8.589356666666667">
        <ele>124.0</ele>
        <time>2019-07-05T15:25:41Z</time>
      </trkpt>
      <trkpt lat="41.246471666666665" lon="-8.589245">
        <ele>124.0</ele>
        <time>2019-07-05T15:25:43Z</time>
      </trkpt>
      <trkpt lat="41.246465" lon="-8.589126666666667">
        <ele>124.0</ele>
        <time>2019-07-05T15:25:45Z</time>
      </trkpt>
      <trkpt lat="41.246445" lon="-8.58901">
        <ele>124.0</ele>
        <time>2019-07-05T15:25:47Z</time>
      </trkpt>
      <trkpt lat="41.246435" lon="-8.588878333333334">
        <ele>124.0</ele>
        <time>2019-07-05T15:25:49Z</time>
      </trkpt>
      <trkpt lat="41.246425" lon="-8.588748333333333">
        <ele>124.0</ele>
        <time>2019-07-05T15:25:51Z</time>
      </trkpt>
      <trkpt lat="41.24641" lon="-8.588611666666667">
        <ele>124.0</ele>
        <time>2019-07-05T15:25:53Z</time>
      </trkpt>
      <trkpt lat="41.246386666666666" lon="-8.588475">
        <ele>124.0</ele>
        <time>2019-07-05T15:25:55Z</time>
      </trkpt>
      <trkpt lat="41.24636666666667" lon="-8.588326666666667">
        <ele>123.0</ele>
        <time>2019-07-05T15:25:57Z</time>
      </trkpt>
      <trkpt lat="41.24635" lon="-8.588181666666667">
        <ele>123.0</ele>
        <time>2019-07-05T15:25:59Z</time>
      </trkpt>
      <trkpt lat="41.246335" lon="-8.588035">
        <ele>123.0</ele>
        <time>2019-07-05T15:26:01Z</time>
      </trkpt>
      <trkpt lat="41.246315" lon="-8.58789">
        <ele>123.0</ele>
        <time>2019-07-05T15:26:03Z</time>
      </trkpt>
      <trkpt lat="41.246295" lon="-8.58775">
        <ele>123.0</ele>
        <time>2019-07-05T15:26:05Z</time>
      </trkpt>
      <trkpt lat="41.246275" lon="-8.587625">
        <ele>123.0</ele>
        <time>2019-07-05T15:26:07Z</time>
      </trkpt>
      <trkpt lat="41.24625" lon="-8.587505">
        <ele>124.0</ele>
        <time>2019-07-05T15:26:09Z</time>
      </trkpt>
      <trkpt lat="41.246235" lon="-8.587405">
        <ele>125.0</ele>
        <time>2019-07-05T15:26:11Z</time>
      </trkpt>
      <trkpt lat="41.24622" lon="-8.5873">
        <ele>125.0</ele>
        <time>2019-07-05T15:26:14Z</time>
      </trkpt>
      <trkpt lat="41.246206666666666" lon="-8.587205">
        <ele>126.0</ele>
        <time>2019-07-05T15:26:16Z</time>
      </trkpt>
      <trkpt lat="41.24618666666667" lon="-8.58711">
        <ele>126.0</ele>
        <time>2019-07-05T15:26:18Z</time>
      </trkpt>
      <trkpt lat="41.24617" lon="-8.587008333333333">
        <ele>127.0</ele>
        <time>2019-07-05T15:26:20Z</time>
      </trkpt>
      <trkpt lat="41.246155" lon="-8.586908333333334">
        <ele>128.0</ele>
        <time>2019-07-05T15:26:22Z</time>
      </trkpt>
      <trkpt lat="41.24612666666667" lon="-8.586778333333333">
        <ele>128.0</ele>
        <time>2019-07-05T15:26:25Z</time>
      </trkpt>
      <trkpt lat="41.246085" lon="-8.586663333333334">
        <ele>129.0</ele>
        <time>2019-07-05T15:26:28Z</time>
      </trkpt>
      <trkpt lat="41.246051666666666" lon="-8.58654">
        <ele>129.0</ele>
        <time>2019-07-05T15:26:31Z</time>
      </trkpt>
      <trkpt lat="41.24602" lon="-8.58641">
        <ele>130.0</ele>
        <time>2019-07-05T15:26:34Z</time>
      </trkpt>
      <trkpt lat="41.245965" lon="-8.586295">
        <ele>130.0</ele>
        <time>2019-07-05T15:26:37Z</time>
      </trkpt>
      <trkpt lat="41.24593" lon="-8.586175">
        <ele>130.0</ele>
        <time>2019-07-05T15:26:40Z</time>
      </trkpt>
      <trkpt lat="41.24590666666667" lon="-8.58605">
        <ele>130.0</ele>
        <time>2019-07-05T15:26:43Z</time>
      </trkpt>
      <trkpt lat="41.24586" lon="-8.585946666666667">
        <ele>131.0</ele>
        <time>2019-07-05T15:26:46Z</time>
      </trkpt>
      <trkpt lat="41.245755" lon="-8.585943333333333">
        <ele>131.0</ele>
        <time>2019-07-05T15:26:49Z</time>
      </trkpt>
      <trkpt lat="41.24565" lon="-8.58596">
        <ele>130.0</ele>
        <time>2019-07-05T15:26:52Z</time>
      </trkpt>
      <trkpt lat="41.24555" lon="-8.58598">
        <ele>130.0</ele>
        <time>2019-07-05T15:26:55Z</time>
      </trkpt>
      <trkpt lat="41.245475" lon="-8.585985">
        <ele>131.0</ele>
        <time>2019-07-05T15:26:57Z</time>
      </trkpt>
      <trkpt lat="41.245401666666666" lon="-8.585981666666667">
        <ele>131.0</ele>
        <time>2019-07-05T15:26:59Z</time>
      </trkpt>
      <trkpt lat="41.245333333333335" lon="-8.58595">
        <ele>131.0</ele>
        <time>2019-07-05T15:27:01Z</time>
      </trkpt>
      <trkpt lat="41.24525" lon="-8.585885">
        <ele>132.0</ele>
        <time>2019-07-05T15:27:04Z</time>
      </trkpt>
      <trkpt lat="41.245185" lon="-8.58579">
        <ele>133.0</ele>
        <time>2019-07-05T15:27:07Z</time>
      </trkpt>
      <trkpt lat="41.245135" lon="-8.58569">
        <ele>133.0</ele>
        <time>2019-07-05T15:27:10Z</time>
      </trkpt>
      <trkpt lat="41.245085" lon="-8.585595">
        <ele>134.0</ele>
        <time>2019-07-05T15:27:13Z</time>
      </trkpt>
      <trkpt lat="41.24502" lon="-8.585505">
        <ele>134.0</ele>
        <time>2019-07-05T15:27:16Z</time>
      </trkpt>
      <trkpt lat="41.24496" lon="-8.58541">
        <ele>135.0</ele>
        <time>2019-07-05T15:27:19Z</time>
      </trkpt>
      <trkpt lat="41.244905" lon="-8.58531">
        <ele>135.0</ele>
        <time>2019-07-05T15:27:22Z</time>
      </trkpt>
      <trkpt lat="41.244841666666666" lon="-8.58522">
        <ele>136.0</ele>
        <time>2019-07-05T15:27:25Z</time>
      </trkpt>
      <trkpt lat="41.24478" lon="-8.585131666666667">
        <ele>136.0</ele>
        <time>2019-07-05T15:27:28Z</time>
      </trkpt>
      <trkpt lat="41.24472" lon="-8.585031666666668">
        <ele>137.0</ele>
        <time>2019-07-05T15:27:31Z</time>
      </trkpt>
      <trkpt lat="41.24466" lon="-8.584935">
        <ele>137.0</ele>
        <time>2019-07-05T15:27:34Z</time>
      </trkpt>
      <trkpt lat="41.244625" lon="-8.584815">
        <ele>137.0</ele>
        <time>2019-07-05T15:27:37Z</time>
      </trkpt>
      <trkpt lat="41.244595" lon="-8.58469">
        <ele>137.0</ele>
        <time>2019-07-05T15:27:40Z</time>
      </trkpt>
      <trkpt lat="41.24458" lon="-8.584555">
        <ele>138.0</ele>
        <time>2019-07-05T15:27:43Z</time>
      </trkpt>
      <trkpt lat="41.24456" lon="-8.584425">
        <ele>138.0</ele>
        <time>2019-07-05T15:27:46Z</time>
      </trkpt>
      <trkpt lat="41.24453666666667" lon="-8.584298333333333">
        <ele>138.0</ele>
        <time>2019-07-05T15:27:49Z</time>
      </trkpt>
      <trkpt lat="41.24449" lon="-8.584175">
        <ele>138.0</ele>
        <time>2019-07-05T15:27:52Z</time>
      </trkpt>
      <trkpt lat="41.244425" lon="-8.58408">
        <ele>139.0</ele>
        <time>2019-07-05T15:27:55Z</time>
      </trkpt>
      <trkpt lat="41.244346666666665" lon="-8.58398">
        <ele>139.0</ele>
        <time>2019-07-05T15:27:58Z</time>
      </trkpt>
      <trkpt lat="41.24429666666666" lon="-8.58391">
        <ele>140.0</ele>
        <time>2019-07-05T15:28:00Z</time>
      </trkpt>
      <trkpt lat="41.24421666666667" lon="-8.58382">
        <ele>140.0</ele>
        <time>2019-07-05T15:28:03Z</time>
      </trkpt>
      <trkpt lat="41.244141666666664" lon="-8.583728333333333">
        <ele>141.0</ele>
        <time>2019-07-05T15:28:06Z</time>
      </trkpt>
      <trkpt lat="41.244065" lon="-8.583645">
        <ele>141.0</ele>
        <time>2019-07-05T15:28:09Z</time>
      </trkpt>
      <trkpt lat="41.24399" lon="-8.583573333333334">
        <ele>141.0</ele>
        <time>2019-07-05T15:28:12Z</time>
      </trkpt>
      <trkpt lat="41.24393" lon="-8.58349">
        <ele>142.0</ele>
        <time>2019-07-05T15:28:15Z</time>
      </trkpt>
      <trkpt lat="41.24386" lon="-8.58342">
        <ele>141.0</ele>
        <time>2019-07-05T15:28:18Z</time>
      </trkpt>
      <trkpt lat="41.243785" lon="-8.583346666666667">
        <ele>142.0</ele>
        <time>2019-07-05T15:28:21Z</time>
      </trkpt>
      <trkpt lat="41.24372" lon="-8.583271666666667">
        <ele>143.0</ele>
        <time>2019-07-05T15:28:24Z</time>
      </trkpt>
      <trkpt lat="41.243651666666665" lon="-8.58321">
        <ele>143.0</ele>
        <time>2019-07-05T15:28:27Z</time>
      </trkpt>
      <trkpt lat="41.24358" lon="-8.583161666666667">
        <ele>143.0</ele>
        <time>2019-07-05T15:28:30Z</time>
      </trkpt>
      <trkpt lat="41.2435" lon="-8.58311">
        <ele>144.0</ele>
        <time>2019-07-05T15:28:33Z</time>
      </trkpt>
      <trkpt lat="41.24343" lon="-8.583035">
        <ele>144.0</ele>
        <time>2019-07-05T15:28:36Z</time>
      </trkpt>
      <trkpt lat="41.243361666666665" lon="-8.582971666666667">
        <ele>144.0</ele>
        <time>2019-07-05T15:28:39Z</time>
      </trkpt>
      <trkpt lat="41.24328666666667" lon="-8.58291">
        <ele>146.0</ele>
        <time>2019-07-05T15:28:42Z</time>
      </trkpt>
      <trkpt lat="41.24322333333333" lon="-8.582836666666667">
        <ele>146.0</ele>
        <time>2019-07-05T15:28:45Z</time>
      </trkpt>
      <trkpt lat="41.243155" lon="-8.582781666666667">
        <ele>147.0</ele>
        <time>2019-07-05T15:28:48Z</time>
      </trkpt>
      <trkpt lat="41.24309" lon="-8.582715">
        <ele>147.0</ele>
        <time>2019-07-05T15:28:51Z</time>
      </trkpt>
      <trkpt lat="41.243021666666664" lon="-8.58267">
        <ele>149.0</ele>
        <time>2019-07-05T15:28:54Z</time>
      </trkpt>
      <trkpt lat="41.24296" lon="-8.582625">
        <ele>150.0</ele>
        <time>2019-07-05T15:28:57Z</time>
      </trkpt>
      <trkpt lat="41.24289" lon="-8.582605">
        <ele>149.0</ele>
        <time>2019-07-05T15:29:01Z</time>
      </trkpt>
      <trkpt lat="41.24283166666667" lon="-8.58268">
        <ele>149.0</ele>
        <time>2019-07-05T15:29:05Z</time>
      </trkpt>
      <trkpt lat="41.242755" lon="-8.582705">
        <ele>149.0</ele>
        <time>2019-07-05T15:29:09Z</time>
      </trkpt>
      <trkpt lat="41.24268" lon="-8.582715">
        <ele>149.0</ele>
        <time>2019-07-05T15:29:12Z</time>
      </trkpt>
      <trkpt lat="41.24258" lon="-8.58274">
        <ele>149.0</ele>
        <time>2019-07-05T15:29:15Z</time>
      </trkpt>
      <trkpt lat="41.242485" lon="-8.58275">
        <ele>149.0</ele>
        <time>2019-07-05T15:29:18Z</time>
      </trkpt>
      <trkpt lat="41.242405" lon="-8.582755">
        <ele>150.0</ele>
        <time>2019-07-05T15:29:21Z</time>
      </trkpt>
      <trkpt lat="41.24233" lon="-8.58275">
        <ele>150.0</ele>
        <time>2019-07-05T15:29:24Z</time>
      </trkpt>
      <trkpt lat="41.24225666666667" lon="-8.582723333333334">
        <ele>150.0</ele>
        <time>2019-07-05T15:29:27Z</time>
      </trkpt>
      <trkpt lat="41.24217" lon="-8.582736666666667">
        <ele>150.0</ele>
        <time>2019-07-05T15:29:30Z</time>
      </trkpt>
      <trkpt lat="41.242065" lon="-8.582743333333333">
        <ele>150.0</ele>
        <time>2019-07-05T15:29:33Z</time>
      </trkpt>
      <trkpt lat="41.24199" lon="-8.58275">
        <ele>149.0</ele>
        <time>2019-07-05T15:29:35Z</time>
      </trkpt>
      <trkpt lat="41.241906666666665" lon="-8.582755">
        <ele>149.0</ele>
        <time>2019-07-05T15:29:37Z</time>
      </trkpt>
      <trkpt lat="41.241815" lon="-8.58275">
        <ele>149.0</ele>
        <time>2019-07-05T15:29:39Z</time>
      </trkpt>
      <trkpt lat="41.241726666666665" lon="-8.582755">
        <ele>149.0</ele>
        <time>2019-07-05T15:29:41Z</time>
      </trkpt>
      <trkpt lat="41.241636666666665" lon="-8.582755">
        <ele>149.0</ele>
        <time>2019-07-05T15:29:43Z</time>
      </trkpt>
      <trkpt lat="41.241545" lon="-8.582755">
        <ele>149.0</ele>
        <time>2019-07-05T15:29:45Z</time>
      </trkpt>
      <trkpt lat="41.24145166666667" lon="-8.582755">
        <ele>148.0</ele>
        <time>2019-07-05T15:29:47Z</time>
      </trkpt>
      <trkpt lat="41.241355" lon="-8.58277">
        <ele>148.0</ele>
        <time>2019-07-05T15:29:49Z</time>
      </trkpt>
      <trkpt lat="41.24126" lon="-8.582781666666667">
        <ele>149.0</ele>
        <time>2019-07-05T15:29:51Z</time>
      </trkpt>
      <trkpt lat="41.24116166666666" lon="-8.58279">
        <ele>148.0</ele>
        <time>2019-07-05T15:29:53Z</time>
      </trkpt>
      <trkpt lat="41.241065" lon="-8.58279">
        <ele>148.0</ele>
        <time>2019-07-05T15:29:55Z</time>
      </trkpt>
      <trkpt lat="41.240965" lon="-8.582795">
        <ele>148.0</ele>
        <time>2019-07-05T15:29:57Z</time>
      </trkpt>
      <trkpt lat="41.24087" lon="-8.582805">
        <ele>148.0</ele>
        <time>2019-07-05T15:29:59Z</time>
      </trkpt>
      <trkpt lat="41.24078" lon="-8.582805">
        <ele>148.0</ele>
        <time>2019-07-05T15:30:01Z</time>
      </trkpt>
      <trkpt lat="41.24069" lon="-8.582775">
        <ele>149.0</ele>
        <time>2019-07-05T15:30:03Z</time>
      </trkpt>
      <trkpt lat="41.240631666666665" lon="-8.582706666666667">
        <ele>150.0</ele>
        <time>2019-07-05T15:30:05Z</time>
      </trkpt>
      <trkpt lat="41.24062" lon="-8.582593333333334">
        <ele>150.0</ele>
        <time>2019-07-05T15:30:08Z</time>
      </trkpt>
      <trkpt lat="41.24061" lon="-8.58245">
        <ele>150.0</ele>
        <time>2019-07-05T15:30:11Z</time>
      </trkpt>
      <trkpt lat="41.24061" lon="-8.58234">
        <ele>151.0</ele>
        <time>2019-07-05T15:30:13Z</time>
      </trkpt>
      <trkpt lat="41.240615" lon="-8.58224">
        <ele>151.0</ele>
        <time>2019-07-05T15:30:15Z</time>
      </trkpt>
      <trkpt lat="41.240615" lon="-8.582115">
        <ele>152.0</ele>
        <time>2019-07-05T15:30:18Z</time>
      </trkpt>
      <trkpt lat="41.24060166666667" lon="-8.582015">
        <ele>153.0</ele>
        <time>2019-07-05T15:30:21Z</time>
      </trkpt>
      <trkpt lat="41.240575" lon="-8.581915">
        <ele>153.0</ele>
        <time>2019-07-05T15:30:24Z</time>
      </trkpt>
      <trkpt lat="41.240505" lon="-8.58183">
        <ele>153.0</ele>
        <time>2019-07-05T15:30:27Z</time>
      </trkpt>
      <trkpt lat="41.240435" lon="-8.581735">
        <ele>154.0</ele>
        <time>2019-07-05T15:30:30Z</time>
      </trkpt>
      <trkpt lat="41.240361666666665" lon="-8.58173">
        <ele>154.0</ele>
        <time>2019-07-05T15:30:32Z</time>
      </trkpt>
      <trkpt lat="41.24028666666667" lon="-8.58173">
        <ele>154.0</ele>
        <time>2019-07-05T15:30:34Z</time>
      </trkpt>
      <trkpt lat="41.240205" lon="-8.58175">
        <ele>154.0</ele>
        <time>2019-07-05T15:30:36Z</time>
      </trkpt>
      <trkpt lat="41.24012" lon="-8.581755">
        <ele>154.0</ele>
        <time>2019-07-05T15:30:38Z</time>
      </trkpt>
      <trkpt lat="41.240035" lon="-8.581758333333333">
        <ele>155.0</ele>
        <time>2019-07-05T15:30:40Z</time>
      </trkpt>
      <trkpt lat="41.23995333333333" lon="-8.58177">
        <ele>156.0</ele>
        <time>2019-07-05T15:30:42Z</time>
      </trkpt>
      <trkpt lat="41.23987" lon="-8.581765">
        <ele>156.0</ele>
        <time>2019-07-05T15:30:44Z</time>
      </trkpt>
      <trkpt lat="41.239795" lon="-8.581758333333333">
        <ele>156.0</ele>
        <time>2019-07-05T15:30:46Z</time>
      </trkpt>
      <trkpt lat="41.239716666666666" lon="-8.581751666666667">
        <ele>156.0</ele>
        <time>2019-07-05T15:30:49Z</time>
      </trkpt>
      <trkpt lat="41.23966" lon="-8.581675">
        <ele>156.0</ele>
        <time>2019-07-05T15:30:53Z</time>
      </trkpt>
      <trkpt lat="41.23967" lon="-8.581565">
        <ele>156.0</ele>
        <time>2019-07-05T15:30:56Z</time>
      </trkpt>
      <trkpt lat="41.239666666666665" lon="-8.581438333333333">
        <ele>156.0</ele>
        <time>2019-07-05T15:30:59Z</time>
      </trkpt>
      <trkpt lat="41.239655" lon="-8.58131">
        <ele>156.0</ele>
        <time>2019-07-05T15:31:02Z</time>
      </trkpt>
      <trkpt lat="41.239646666666665" lon="-8.58118">
        <ele>157.0</ele>
        <time>2019-07-05T15:31:05Z</time>
      </trkpt>
      <trkpt lat="41.239655" lon="-8.581058333333333">
        <ele>157.0</ele>
        <time>2019-07-05T15:31:08Z</time>
      </trkpt>
      <trkpt lat="41.239635" lon="-8.580955">
        <ele>157.0</ele>
        <time>2019-07-05T15:31:11Z</time>
      </trkpt>
      <trkpt lat="41.23961666666667" lon="-8.580848333333334">
        <ele>157.0</ele>
        <time>2019-07-05T15:31:14Z</time>
      </trkpt>
      <trkpt lat="41.239578333333334" lon="-8.58075">
        <ele>158.0</ele>
        <time>2019-07-05T15:31:17Z</time>
      </trkpt>
      <trkpt lat="41.239535" lon="-8.580658333333334">
        <ele>159.0</ele>
        <time>2019-07-05T15:31:20Z</time>
      </trkpt>
      <trkpt lat="41.239475" lon="-8.580583333333333">
        <ele>160.0</ele>
        <time>2019-07-05T15:31:23Z</time>
      </trkpt>
      <trkpt lat="41.23939" lon="-8.580516666666666">
        <ele>158.0</ele>
        <time>2019-07-05T15:31:28Z</time>
      </trkpt>
      <trkpt lat="41.239305" lon="-8.58048">
        <ele>158.0</ele>
        <time>2019-07-05T15:31:31Z</time>
      </trkpt>
      <trkpt lat="41.23923166666667" lon="-8.580451666666667">
        <ele>157.0</ele>
        <time>2019-07-05T15:31:33Z</time>
      </trkpt>
      <trkpt lat="41.239135" lon="-8.58042">
        <ele>157.0</ele>
        <time>2019-07-05T15:31:35Z</time>
      </trkpt>
      <trkpt lat="41.23918666666667" lon="-8.580515">
        <ele>157.0</ele>
        <time>2019-07-05T15:31:36Z</time>
      </trkpt>
      <trkpt lat="41.23911" lon="-8.580546666666667">
        <ele>157.0</ele>
        <time>2019-07-05T15:31:37Z</time>
      </trkpt>
      <trkpt lat="41.239015" lon="-8.580546666666667">
        <ele>159.0</ele>
        <time>2019-07-05T15:31:39Z</time>
      </trkpt>
      <trkpt lat="41.238925" lon="-8.58056">
        <ele>160.0</ele>
        <time>2019-07-05T15:31:41Z</time>
      </trkpt>
      <trkpt lat="41.238835" lon="-8.580576666666667">
        <ele>159.0</ele>
        <time>2019-07-05T15:31:43Z</time>
      </trkpt>
      <trkpt lat="41.238748333333334" lon="-8.580595">
        <ele>161.0</ele>
        <time>2019-07-05T15:31:45Z</time>
      </trkpt>
      <trkpt lat="41.238663333333335" lon="-8.580615">
        <ele>160.0</ele>
        <time>2019-07-05T15:31:47Z</time>
      </trkpt>
      <trkpt lat="41.238575" lon="-8.580623333333333">
        <ele>160.0</ele>
        <time>2019-07-05T15:31:49Z</time>
      </trkpt>
      <trkpt lat="41.23849166666667" lon="-8.580606666666666">
        <ele>160.0</ele>
        <time>2019-07-05T15:31:51Z</time>
      </trkpt>
      <trkpt lat="41.23842" lon="-8.58057">
        <ele>160.0</ele>
        <time>2019-07-05T15:31:53Z</time>
      </trkpt>
      <trkpt lat="41.238355" lon="-8.58052">
        <ele>160.0</ele>
        <time>2019-07-05T15:31:55Z</time>
      </trkpt>
      <trkpt lat="41.23829" lon="-8.58046">
        <ele>160.0</ele>
        <time>2019-07-05T15:31:57Z</time>
      </trkpt>
      <trkpt lat="41.238225" lon="-8.580405">
        <ele>161.0</ele>
        <time>2019-07-05T15:31:59Z</time>
      </trkpt>
      <trkpt lat="41.23814" lon="-8.58037">
        <ele>162.0</ele>
        <time>2019-07-05T15:32:02Z</time>
      </trkpt>
      <trkpt lat="41.23806166666667" lon="-8.58035">
        <ele>162.0</ele>
        <time>2019-07-05T15:32:05Z</time>
      </trkpt>
      <trkpt lat="41.23797666666667" lon="-8.580325">
        <ele>163.0</ele>
        <time>2019-07-05T15:32:09Z</time>
      </trkpt>
      <trkpt lat="41.237915" lon="-8.580235">
        <ele>165.0</ele>
        <time>2019-07-05T15:32:13Z</time>
      </trkpt>
      <trkpt lat="41.23786" lon="-8.58017">
        <ele>165.0</ele>
        <time>2019-07-05T15:32:16Z</time>
      </trkpt>
      <trkpt lat="41.23781" lon="-8.5801">
        <ele>166.0</ele>
        <time>2019-07-05T15:32:19Z</time>
      </trkpt>
      <trkpt lat="41.237755" lon="-8.58003">
        <ele>166.0</ele>
        <time>2019-07-05T15:32:23Z</time>
      </trkpt>
      <trkpt lat="41.2377" lon="-8.579965">
        <ele>166.0</ele>
        <time>2019-07-05T15:32:27Z</time>
      </trkpt>
      <trkpt lat="41.23762" lon="-8.579936666666667">
        <ele>167.0</ele>
        <time>2019-07-05T15:32:31Z</time>
      </trkpt>
      <trkpt lat="41.237545" lon="-8.57991">
        <ele>168.0</ele>
        <time>2019-07-05T15:32:35Z</time>
      </trkpt>
      <trkpt lat="41.23746" lon="-8.579885">
        <ele>170.0</ele>
        <time>2019-07-05T15:32:40Z</time>
      </trkpt>
      <trkpt lat="41.237383333333334" lon="-8.57987">
        <ele>170.0</ele>
        <time>2019-07-05T15:32:44Z</time>
      </trkpt>
      <trkpt lat="41.23731" lon="-8.579835">
        <ele>171.0</ele>
        <time>2019-07-05T15:32:48Z</time>
      </trkpt>
      <trkpt lat="41.237235" lon="-8.579785">
        <ele>171.0</ele>
        <time>2019-07-05T15:32:52Z</time>
      </trkpt>
      <trkpt lat="41.237165" lon="-8.579721666666666">
        <ele>172.0</ele>
        <time>2019-07-05T15:32:56Z</time>
      </trkpt>
      <trkpt lat="41.23708" lon="-8.57967">
        <ele>173.0</ele>
        <time>2019-07-05T15:33:00Z</time>
      </trkpt>
      <trkpt lat="41.237001666666664" lon="-8.579625">
        <ele>173.0</ele>
        <time>2019-07-05T15:33:04Z</time>
      </trkpt>
      <trkpt lat="41.23693" lon="-8.579578333333334">
        <ele>172.0</ele>
        <time>2019-07-05T15:33:07Z</time>
      </trkpt>
      <trkpt lat="41.236848333333334" lon="-8.579535">
        <ele>172.0</ele>
        <time>2019-07-05T15:33:10Z</time>
      </trkpt>
      <trkpt lat="41.236775" lon="-8.579501666666667">
        <ele>172.0</ele>
        <time>2019-07-05T15:33:13Z</time>
      </trkpt>
      <trkpt lat="41.236715" lon="-8.57942">
        <ele>172.0</ele>
        <time>2019-07-05T15:33:16Z</time>
      </trkpt>
      <trkpt lat="41.236635" lon="-8.57935">
        <ele>171.0</ele>
        <time>2019-07-05T15:33:19Z</time>
      </trkpt>
      <trkpt lat="41.23656" lon="-8.579331666666667">
        <ele>171.0</ele>
        <time>2019-07-05T15:33:21Z</time>
      </trkpt>
      <trkpt lat="41.236466666666665" lon="-8.579311666666667">
        <ele>170.0</ele>
        <time>2019-07-05T15:33:23Z</time>
      </trkpt>
      <trkpt lat="41.236365" lon="-8.579296666666666">
        <ele>169.0</ele>
        <time>2019-07-05T15:33:25Z</time>
      </trkpt>
      <trkpt lat="41.23625" lon="-8.57929">
        <ele>168.0</ele>
        <time>2019-07-05T15:33:27Z</time>
      </trkpt>
      <trkpt lat="41.23613" lon="-8.57929">
        <ele>167.0</ele>
        <time>2019-07-05T15:33:29Z</time>
      </trkpt>
      <trkpt lat="41.23602" lon="-8.57929">
        <ele>167.0</ele>
        <time>2019-07-05T15:33:31Z</time>
      </trkpt>
      <trkpt lat="41.235945" lon="-8.579285">
        <ele>167.0</ele>
        <time>2019-07-05T15:33:33Z</time>
      </trkpt>
      <trkpt lat="41.23587" lon="-8.579266666666667">
        <ele>167.0</ele>
        <time>2019-07-05T15:33:36Z</time>
      </trkpt>
      <trkpt lat="41.23581" lon="-8.579185">
        <ele>168.0</ele>
        <time>2019-07-05T15:33:40Z</time>
      </trkpt>
      <trkpt lat="41.23580166666667" lon="-8.57908">
        <ele>168.0</ele>
        <time>2019-07-05T15:33:43Z</time>
      </trkpt>
      <trkpt lat="41.235785" lon="-8.578965">
        <ele>169.0</ele>
        <time>2019-07-05T15:33:46Z</time>
      </trkpt>
      <trkpt lat="41.235775" lon="-8.578831666666666">
        <ele>170.0</ele>
        <time>2019-07-05T15:33:49Z</time>
      </trkpt>
      <trkpt lat="41.235771666666665" lon="-8.578705">
        <ele>171.0</ele>
        <time>2019-07-05T15:33:52Z</time>
      </trkpt>
      <trkpt lat="41.23577" lon="-8.578585">
        <ele>171.0</ele>
        <time>2019-07-05T15:33:55Z</time>
      </trkpt>
      <trkpt lat="41.235765" lon="-8.578458333333334">
        <ele>172.0</ele>
        <time>2019-07-05T15:33:58Z</time>
      </trkpt>
      <trkpt lat="41.235755" lon="-8.578333333333333">
        <ele>173.0</ele>
        <time>2019-07-05T15:34:01Z</time>
      </trkpt>
      <trkpt lat="41.23574" lon="-8.57821">
        <ele>174.0</ele>
        <time>2019-07-05T15:34:04Z</time>
      </trkpt>
      <trkpt lat="41.235706666666665" lon="-8.578096666666667">
        <ele>174.0</ele>
        <time>2019-07-05T15:34:07Z</time>
      </trkpt>
      <trkpt lat="41.23568" lon="-8.57798">
        <ele>174.0</ele>
        <time>2019-07-05T15:34:10Z</time>
      </trkpt>
      <trkpt lat="41.23567" lon="-8.577856666666667">
        <ele>174.0</ele>
        <time>2019-07-05T15:34:13Z</time>
      </trkpt>
      <trkpt lat="41.235675" lon="-8.577726666666667">
        <ele>175.0</ele>
        <time>2019-07-05T15:34:16Z</time>
      </trkpt>
      <trkpt lat="41.235675" lon="-8.5776">
        <ele>176.0</ele>
        <time>2019-07-05T15:34:19Z</time>
      </trkpt>
      <trkpt lat="41.235675" lon="-8.577485">
        <ele>176.0</ele>
        <time>2019-07-05T15:34:22Z</time>
      </trkpt>
      <trkpt lat="41.23567666666667" lon="-8.577355">
        <ele>177.0</ele>
        <time>2019-07-05T15:34:25Z</time>
      </trkpt>
      <trkpt lat="41.23568" lon="-8.577231666666666">
        <ele>177.0</ele>
        <time>2019-07-05T15:34:28Z</time>
      </trkpt>
      <trkpt lat="41.235685" lon="-8.577106666666667">
        <ele>177.0</ele>
        <time>2019-07-05T15:34:31Z</time>
      </trkpt>
      <trkpt lat="41.23569" lon="-8.577">
        <ele>178.0</ele>
        <time>2019-07-05T15:34:34Z</time>
      </trkpt>
      <trkpt lat="41.235695" lon="-8.5769">
        <ele>178.0</ele>
        <time>2019-07-05T15:34:37Z</time>
      </trkpt>
      <trkpt lat="41.2357" lon="-8.576791666666667">
        <ele>179.0</ele>
        <time>2019-07-05T15:34:41Z</time>
      </trkpt>
      <trkpt lat="41.23560166666667" lon="-8.576773333333334">
        <ele>179.0</ele>
        <time>2019-07-05T15:34:46Z</time>
      </trkpt>
      <trkpt lat="41.23552" lon="-8.576765">
        <ele>180.0</ele>
        <time>2019-07-05T15:34:49Z</time>
      </trkpt>
      <trkpt lat="41.23544" lon="-8.576725">
        <ele>180.0</ele>
        <time>2019-07-05T15:34:52Z</time>
      </trkpt>
      <trkpt lat="41.23537" lon="-8.576655">
        <ele>180.0</ele>
        <time>2019-07-05T15:34:55Z</time>
      </trkpt>
      <trkpt lat="41.2353" lon="-8.576565">
        <ele>181.0</ele>
        <time>2019-07-05T15:34:58Z</time>
      </trkpt>
      <trkpt lat="41.235235" lon="-8.576488333333334">
        <ele>180.0</ele>
        <time>2019-07-05T15:35:01Z</time>
      </trkpt>
      <trkpt lat="41.235165" lon="-8.576418333333333">
        <ele>181.0</ele>
        <time>2019-07-05T15:35:04Z</time>
      </trkpt>
      <trkpt lat="41.23509" lon="-8.576355">
        <ele>181.0</ele>
        <time>2019-07-05T15:35:07Z</time>
      </trkpt>
      <trkpt lat="41.23502166666667" lon="-8.57629">
        <ele>180.0</ele>
        <time>2019-07-05T15:35:10Z</time>
      </trkpt>
      <trkpt lat="41.23496" lon="-8.576221666666667">
        <ele>179.0</ele>
        <time>2019-07-05T15:35:13Z</time>
      </trkpt>
      <trkpt lat="41.234885" lon="-8.576145">
        <ele>180.0</ele>
        <time>2019-07-05T15:35:17Z</time>
      </trkpt>
      <trkpt lat="41.234835" lon="-8.576085">
        <ele>180.0</ele>
        <time>2019-07-05T15:35:20Z</time>
      </trkpt>
      <trkpt lat="41.234766666666665" lon="-8.576005">
        <ele>182.0</ele>
        <time>2019-07-05T15:35:23Z</time>
      </trkpt>
      <trkpt lat="41.23470666666667" lon="-8.57592">
        <ele>184.0</ele>
        <time>2019-07-05T15:35:27Z</time>
      </trkpt>
      <trkpt lat="41.234625" lon="-8.575915">
        <ele>184.0</ele>
        <time>2019-07-05T15:35:31Z</time>
      </trkpt>
      <trkpt lat="41.234545" lon="-8.575923333333334">
        <ele>184.0</ele>
        <time>2019-07-05T15:35:34Z</time>
      </trkpt>
      <trkpt lat="41.23445" lon="-8.575955">
        <ele>184.0</ele>
        <time>2019-07-05T15:35:37Z</time>
      </trkpt>
      <trkpt lat="41.23438" lon="-8.575983333333333">
        <ele>184.0</ele>
        <time>2019-07-05T15:35:39Z</time>
      </trkpt>
      <trkpt lat="41.234305" lon="-8.576005">
        <ele>184.0</ele>
        <time>2019-07-05T15:35:41Z</time>
      </trkpt>
      <trkpt lat="41.234225" lon="-8.576015">
        <ele>184.0</ele>
        <time>2019-07-05T15:35:43Z</time>
      </trkpt>
      <trkpt lat="41.23415" lon="-8.576026666666667">
        <ele>184.0</ele>
        <time>2019-07-05T15:35:45Z</time>
      </trkpt>
      <trkpt lat="41.23407" lon="-8.57605">
        <ele>184.0</ele>
        <time>2019-07-05T15:35:47Z</time>
      </trkpt>
      <trkpt lat="41.233995" lon="-8.57607">
        <ele>183.0</ele>
        <time>2019-07-05T15:35:49Z</time>
      </trkpt>
      <trkpt lat="41.233905" lon="-8.576085">
        <ele>183.0</ele>
        <time>2019-07-05T15:35:51Z</time>
      </trkpt>
      <trkpt lat="41.23382" lon="-8.576095">
        <ele>183.0</ele>
        <time>2019-07-05T15:35:53Z</time>
      </trkpt>
      <trkpt lat="41.233725" lon="-8.57611">
        <ele>183.0</ele>
        <time>2019-07-05T15:35:55Z</time>
      </trkpt>
      <trkpt lat="41.23363" lon="-8.576145">
        <ele>182.0</ele>
        <time>2019-07-05T15:35:57Z</time>
      </trkpt>
      <trkpt lat="41.233536666666666" lon="-8.576168333333333">
        <ele>182.0</ele>
        <time>2019-07-05T15:35:59Z</time>
      </trkpt>
      <trkpt lat="41.233443333333334" lon="-8.57619">
        <ele>183.0</ele>
        <time>2019-07-05T15:36:01Z</time>
      </trkpt>
      <trkpt lat="41.23335" lon="-8.576208333333334">
        <ele>182.0</ele>
        <time>2019-07-05T15:36:03Z</time>
      </trkpt>
      <trkpt lat="41.23326" lon="-8.57624">
        <ele>182.0</ele>
        <time>2019-07-05T15:36:05Z</time>
      </trkpt>
      <trkpt lat="41.233165" lon="-8.576256666666668">
        <ele>183.0</ele>
        <time>2019-07-05T15:36:07Z</time>
      </trkpt>
      <trkpt lat="41.23307" lon="-8.576268333333333">
        <ele>183.0</ele>
        <time>2019-07-05T15:36:09Z</time>
      </trkpt>
      <trkpt lat="41.232978333333335" lon="-8.576295">
        <ele>183.0</ele>
        <time>2019-07-05T15:36:11Z</time>
      </trkpt>
      <trkpt lat="41.2329" lon="-8.576315">
        <ele>182.0</ele>
        <time>2019-07-05T15:36:13Z</time>
      </trkpt>
      <trkpt lat="41.23281" lon="-8.57631">
        <ele>183.0</ele>
        <time>2019-07-05T15:36:15Z</time>
      </trkpt>
      <trkpt lat="41.23273" lon="-8.576268333333333">
        <ele>183.0</ele>
        <time>2019-07-05T15:36:17Z</time>
      </trkpt>
      <trkpt lat="41.232675" lon="-8.576165">
        <ele>184.0</ele>
        <time>2019-07-05T15:36:19Z</time>
      </trkpt>
      <trkpt lat="41.232635" lon="-8.57605">
        <ele>184.0</ele>
        <time>2019-07-05T15:36:21Z</time>
      </trkpt>
      <trkpt lat="41.232596666666666" lon="-8.575931666666667">
        <ele>184.0</ele>
        <time>2019-07-05T15:36:23Z</time>
      </trkpt>
      <trkpt lat="41.23255" lon="-8.575825">
        <ele>184.0</ele>
        <time>2019-07-05T15:36:25Z</time>
      </trkpt>
      <trkpt lat="41.232505" lon="-8.575725">
        <ele>184.0</ele>
        <time>2019-07-05T15:36:27Z</time>
      </trkpt>
      <trkpt lat="41.232455" lon="-8.57562">
        <ele>185.0</ele>
        <time>2019-07-05T15:36:29Z</time>
      </trkpt>
      <trkpt lat="41.23241" lon="-8.575515">
        <ele>185.0</ele>
        <time>2019-07-05T15:36:31Z</time>
      </trkpt>
      <trkpt lat="41.232365" lon="-8.575408333333334">
        <ele>185.0</ele>
        <time>2019-07-05T15:36:33Z</time>
      </trkpt>
      <trkpt lat="41.23231" lon="-8.575313333333334">
        <ele>185.0</ele>
        <time>2019-07-05T15:36:35Z</time>
      </trkpt>
      <trkpt lat="41.23226" lon="-8.575205">
        <ele>185.0</ele>
        <time>2019-07-05T15:36:37Z</time>
      </trkpt>
      <trkpt lat="41.232205" lon="-8.5751">
        <ele>185.0</ele>
        <time>2019-07-05T15:36:39Z</time>
      </trkpt>
      <trkpt lat="41.232145" lon="-8.574991666666667">
        <ele>185.0</ele>
        <time>2019-07-05T15:36:41Z</time>
      </trkpt>
      <trkpt lat="41.23209" lon="-8.574875">
        <ele>185.0</ele>
        <time>2019-07-05T15:36:43Z</time>
      </trkpt>
      <trkpt lat="41.23204" lon="-8.574748333333334">
        <ele>185.0</ele>
        <time>2019-07-05T15:36:45Z</time>
      </trkpt>
      <trkpt lat="41.231993333333335" lon="-8.574625">
        <ele>185.0</ele>
        <time>2019-07-05T15:36:47Z</time>
      </trkpt>
      <trkpt lat="41.23197166666667" lon="-8.574495">
        <ele>184.0</ele>
        <time>2019-07-05T15:36:49Z</time>
      </trkpt>
      <trkpt lat="41.231965" lon="-8.57436">
        <ele>184.0</ele>
        <time>2019-07-05T15:36:51Z</time>
      </trkpt>
      <trkpt lat="41.231945" lon="-8.57422">
        <ele>184.0</ele>
        <time>2019-07-05T15:36:53Z</time>
      </trkpt>
      <trkpt lat="41.23193166666667" lon="-8.574075">
        <ele>184.0</ele>
        <time>2019-07-05T15:36:55Z</time>
      </trkpt>
      <trkpt lat="41.23192" lon="-8.57394">
        <ele>183.0</ele>
        <time>2019-07-05T15:36:57Z</time>
      </trkpt>
      <trkpt lat="41.231905" lon="-8.573795">
        <ele>183.0</ele>
        <time>2019-07-05T15:36:59Z</time>
      </trkpt>
      <trkpt lat="41.231885" lon="-8.57365">
        <ele>183.0</ele>
        <time>2019-07-05T15:37:01Z</time>
      </trkpt>
      <trkpt lat="41.231875" lon="-8.573498333333333">
        <ele>182.0</ele>
        <time>2019-07-05T15:37:03Z</time>
      </trkpt>
      <trkpt lat="41.231855" lon="-8.57336">
        <ele>182.0</ele>
        <time>2019-07-05T15:37:05Z</time>
      </trkpt>
      <trkpt lat="41.23183" lon="-8.573235">
        <ele>182.0</ele>
        <time>2019-07-05T15:37:07Z</time>
      </trkpt>
      <trkpt lat="41.231765" lon="-8.573146666666666">
        <ele>181.0</ele>
        <time>2019-07-05T15:37:09Z</time>
      </trkpt>
      <trkpt lat="41.23167" lon="-8.57315">
        <ele>180.0</ele>
        <time>2019-07-05T15:37:11Z</time>
      </trkpt>
      <trkpt lat="41.231566666666666" lon="-8.573173333333333">
        <ele>180.0</ele>
        <time>2019-07-05T15:37:13Z</time>
      </trkpt>
      <trkpt lat="41.23147" lon="-8.57323">
        <ele>179.0</ele>
        <time>2019-07-05T15:37:15Z</time>
      </trkpt>
      <trkpt lat="41.23137166666667" lon="-8.573295">
        <ele>179.0</ele>
        <time>2019-07-05T15:37:17Z</time>
      </trkpt>
      <trkpt lat="41.23130666666667" lon="-8.57334">
        <ele>178.0</ele>
        <time>2019-07-05T15:37:19Z</time>
      </trkpt>
      <trkpt lat="41.23122166666667" lon="-8.573348333333334">
        <ele>178.0</ele>
        <time>2019-07-05T15:37:23Z</time>
      </trkpt>
      <trkpt lat="41.231175" lon="-8.573275">
        <ele>178.0</ele>
        <time>2019-07-05T15:37:25Z</time>
      </trkpt>
      <trkpt lat="41.231125" lon="-8.573176666666667">
        <ele>177.0</ele>
        <time>2019-07-05T15:37:27Z</time>
      </trkpt>
      <trkpt lat="41.23107" lon="-8.573095">
        <ele>176.0</ele>
        <time>2019-07-05T15:37:29Z</time>
      </trkpt>
      <trkpt lat="41.231006666666666" lon="-8.57305">
        <ele>176.0</ele>
        <time>2019-07-05T15:37:31Z</time>
      </trkpt>
      <trkpt lat="41.23099" lon="-8.573">
        <ele>175.0</ele>
        <time>2019-07-05T15:37:38Z</time>
      </trkpt>
      <trkpt lat="41.23099" lon="-8.572995">
        <ele>175.0</ele>
        <time>2019-07-05T15:37:41Z</time>
      </trkpt>
      <trkpt lat="41.23099" lon="-8.573">
        <ele>175.0</ele>
        <time>2019-07-05T15:38:09Z</time>
      </trkpt>
      <trkpt lat="41.23099" lon="-8.573">
        <ele>175.0</ele>
        <time>2019-07-05T15:38:10Z</time>
      </trkpt>
      <trkpt lat="41.230936666666665" lon="-8.572891666666667">
        <ele>173.0</ele>
        <time>2019-07-05T15:38:49Z</time>
      </trkpt>
      <trkpt lat="41.23088666666666" lon="-8.5728">
        <ele>172.0</ele>
        <time>2019-07-05T15:38:51Z</time>
      </trkpt>
      <trkpt lat="41.23082" lon="-8.57268">
        <ele>171.0</ele>
        <time>2019-07-05T15:38:53Z</time>
      </trkpt>
      <trkpt lat="41.23073" lon="-8.572545">
        <ele>170.0</ele>
        <time>2019-07-05T15:38:55Z</time>
      </trkpt>
      <trkpt lat="41.23068" lon="-8.57247">
        <ele>169.0</ele>
        <time>2019-07-05T15:38:56Z</time>
      </trkpt>
      <trkpt lat="41.230625" lon="-8.572383333333333">
        <ele>169.0</ele>
        <time>2019-07-05T15:38:57Z</time>
      </trkpt>
      <trkpt lat="41.23057" lon="-8.5723">
        <ele>168.0</ele>
        <time>2019-07-05T15:38:58Z</time>
      </trkpt>
      <trkpt lat="41.23050666666666" lon="-8.572215">
        <ele>167.0</ele>
        <time>2019-07-05T15:38:59Z</time>
      </trkpt>
      <trkpt lat="41.230446666666666" lon="-8.57212">
        <ele>167.0</ele>
        <time>2019-07-05T15:39:00Z</time>
      </trkpt>
      <trkpt lat="41.230385" lon="-8.572025">
        <ele>166.0</ele>
        <time>2019-07-05T15:39:01Z</time>
      </trkpt>
      <trkpt lat="41.230325" lon="-8.57192">
        <ele>166.0</ele>
        <time>2019-07-05T15:39:02Z</time>
      </trkpt>
      <trkpt lat="41.23026" lon="-8.57182">
        <ele>166.0</ele>
        <time>2019-07-05T15:39:03Z</time>
      </trkpt>
      <trkpt lat="41.23019166666667" lon="-8.571716666666667">
        <ele>165.0</ele>
        <time>2019-07-05T15:39:04Z</time>
      </trkpt>
      <trkpt lat="41.23012666666666" lon="-8.571611666666668">
        <ele>165.0</ele>
        <time>2019-07-05T15:39:05Z</time>
      </trkpt>
      <trkpt lat="41.230065" lon="-8.571505">
        <ele>165.0</ele>
        <time>2019-07-05T15:39:06Z</time>
      </trkpt>
      <trkpt lat="41.229995" lon="-8.571395">
        <ele>164.0</ele>
        <time>2019-07-05T15:39:07Z</time>
      </trkpt>
      <trkpt lat="41.22993" lon="-8.57129">
        <ele>164.0</ele>
        <time>2019-07-05T15:39:08Z</time>
      </trkpt>
      <trkpt lat="41.229865" lon="-8.571185">
        <ele>163.0</ele>
        <time>2019-07-05T15:39:09Z</time>
      </trkpt>
      <trkpt lat="41.229796666666665" lon="-8.571075">
        <ele>163.0</ele>
        <time>2019-07-05T15:39:10Z</time>
      </trkpt>
      <trkpt lat="41.22973" lon="-8.57097">
        <ele>163.0</ele>
        <time>2019-07-05T15:39:11Z</time>
      </trkpt>
      <trkpt lat="41.229665" lon="-8.570866666666667">
        <ele>162.0</ele>
        <time>2019-07-05T15:39:12Z</time>
      </trkpt>
      <trkpt lat="41.2296" lon="-8.570765">
        <ele>162.0</ele>
        <time>2019-07-05T15:39:13Z</time>
      </trkpt>
      <trkpt lat="41.22953" lon="-8.570665">
        <ele>162.0</ele>
        <time>2019-07-05T15:39:14Z</time>
      </trkpt>
      <trkpt lat="41.229465" lon="-8.57057">
        <ele>162.0</ele>
        <time>2019-07-05T15:39:15Z</time>
      </trkpt>
      <trkpt lat="41.22940166666667" lon="-8.57047">
        <ele>162.0</ele>
        <time>2019-07-05T15:39:16Z</time>
      </trkpt>
      <trkpt lat="41.22933666666667" lon="-8.57037">
        <ele>161.0</ele>
        <time>2019-07-05T15:39:17Z</time>
      </trkpt>
      <trkpt lat="41.229275" lon="-8.57027">
        <ele>161.0</ele>
        <time>2019-07-05T15:39:18Z</time>
      </trkpt>
      <trkpt lat="41.229211666666664" lon="-8.570168333333333">
        <ele>161.0</ele>
        <time>2019-07-05T15:39:19Z</time>
      </trkpt>
      <trkpt lat="41.229146666666665" lon="-8.570066666666667">
        <ele>160.0</ele>
        <time>2019-07-05T15:39:20Z</time>
      </trkpt>
      <trkpt lat="41.229085" lon="-8.569965">
        <ele>160.0</ele>
        <time>2019-07-05T15:39:21Z</time>
      </trkpt>
      <trkpt lat="41.229025" lon="-8.569865">
        <ele>160.0</ele>
        <time>2019-07-05T15:39:22Z</time>
      </trkpt>
      <trkpt lat="41.228965" lon="-8.56976">
        <ele>159.0</ele>
        <time>2019-07-05T15:39:23Z</time>
      </trkpt>
      <trkpt lat="41.228905" lon="-8.569665">
        <ele>159.0</ele>
        <time>2019-07-05T15:39:24Z</time>
      </trkpt>
      <trkpt lat="41.22884" lon="-8.56957">
        <ele>159.0</ele>
        <time>2019-07-05T15:39:25Z</time>
      </trkpt>
      <trkpt lat="41.228785" lon="-8.569463333333333">
        <ele>159.0</ele>
        <time>2019-07-05T15:39:26Z</time>
      </trkpt>
      <trkpt lat="41.228725" lon="-8.569366666666667">
        <ele>159.0</ele>
        <time>2019-07-05T15:39:27Z</time>
      </trkpt>
      <trkpt lat="41.228665" lon="-8.56927">
        <ele>159.0</ele>
        <time>2019-07-05T15:39:28Z</time>
      </trkpt>
      <trkpt lat="41.22859666666667" lon="-8.56917">
        <ele>159.0</ele>
        <time>2019-07-05T15:39:29Z</time>
      </trkpt>
      <trkpt lat="41.228535" lon="-8.56907">
        <ele>158.0</ele>
        <time>2019-07-05T15:39:30Z</time>
      </trkpt>
      <trkpt lat="41.22847" lon="-8.568968333333334">
        <ele>158.0</ele>
        <time>2019-07-05T15:39:31Z</time>
      </trkpt>
      <trkpt lat="41.22841" lon="-8.56887">
        <ele>158.0</ele>
        <time>2019-07-05T15:39:32Z</time>
      </trkpt>
      <trkpt lat="41.228345" lon="-8.56877">
        <ele>157.0</ele>
        <time>2019-07-05T15:39:33Z</time>
      </trkpt>
      <trkpt lat="41.228285" lon="-8.568666666666667">
        <ele>157.0</ele>
        <time>2019-07-05T15:39:34Z</time>
      </trkpt>
      <trkpt lat="41.22822166666667" lon="-8.568571666666667">
        <ele>157.0</ele>
        <time>2019-07-05T15:39:35Z</time>
      </trkpt>
      <trkpt lat="41.22816" lon="-8.568476666666667">
        <ele>156.0</ele>
        <time>2019-07-05T15:39:36Z</time>
      </trkpt>
      <trkpt lat="41.228096666666666" lon="-8.56838">
        <ele>156.0</ele>
        <time>2019-07-05T15:39:37Z</time>
      </trkpt>
      <trkpt lat="41.228035" lon="-8.56828">
        <ele>156.0</ele>
        <time>2019-07-05T15:39:38Z</time>
      </trkpt>
      <trkpt lat="41.227975" lon="-8.56818">
        <ele>156.0</ele>
        <time>2019-07-05T15:39:39Z</time>
      </trkpt>
      <trkpt lat="41.22791" lon="-8.568085">
        <ele>156.0</ele>
        <time>2019-07-05T15:39:40Z</time>
      </trkpt>
      <trkpt lat="41.227846666666665" lon="-8.56799">
        <ele>156.0</ele>
        <time>2019-07-05T15:39:41Z</time>
      </trkpt>
      <trkpt lat="41.22779" lon="-8.567888333333334">
        <ele>155.0</ele>
        <time>2019-07-05T15:39:42Z</time>
      </trkpt>
      <trkpt lat="41.22773" lon="-8.567793333333332">
        <ele>155.0</ele>
        <time>2019-07-05T15:39:43Z</time>
      </trkpt>
      <trkpt lat="41.22767" lon="-8.567695">
        <ele>155.0</ele>
        <time>2019-07-05T15:39:44Z</time>
      </trkpt>
      <trkpt lat="41.22761166666667" lon="-8.567603333333333">
        <ele>154.0</ele>
        <time>2019-07-05T15:39:45Z</time>
      </trkpt>
      <trkpt lat="41.22755166666666" lon="-8.567508333333333">
        <ele>154.0</ele>
        <time>2019-07-05T15:39:46Z</time>
      </trkpt>
      <trkpt lat="41.227491666666666" lon="-8.567416666666666">
        <ele>154.0</ele>
        <time>2019-07-05T15:39:47Z</time>
      </trkpt>
      <trkpt lat="41.227435" lon="-8.56732">
        <ele>154.0</ele>
        <time>2019-07-05T15:39:48Z</time>
      </trkpt>
      <trkpt lat="41.227376666666665" lon="-8.567226666666667">
        <ele>154.0</ele>
        <time>2019-07-05T15:39:49Z</time>
      </trkpt>
      <trkpt lat="41.22732" lon="-8.567136666666666">
        <ele>153.0</ele>
        <time>2019-07-05T15:39:50Z</time>
      </trkpt>
      <trkpt lat="41.22725666666667" lon="-8.56704">
        <ele>153.0</ele>
        <time>2019-07-05T15:39:51Z</time>
      </trkpt>
      <trkpt lat="41.227195" lon="-8.56694">
        <ele>152.0</ele>
        <time>2019-07-05T15:39:52Z</time>
      </trkpt>
      <trkpt lat="41.227135" lon="-8.56684">
        <ele>152.0</ele>
        <time>2019-07-05T15:39:53Z</time>
      </trkpt>
      <trkpt lat="41.22708" lon="-8.566738333333333">
        <ele>152.0</ele>
        <time>2019-07-05T15:39:54Z</time>
      </trkpt>
      <trkpt lat="41.22702" lon="-8.566638333333334">
        <ele>151.0</ele>
        <time>2019-07-05T15:39:55Z</time>
      </trkpt>
      <trkpt lat="41.22696" lon="-8.566536666666666">
        <ele>151.0</ele>
        <time>2019-07-05T15:39:56Z</time>
      </trkpt>
      <trkpt lat="41.2269" lon="-8.566425">
        <ele>150.0</ele>
        <time>2019-07-05T15:39:57Z</time>
      </trkpt>
      <trkpt lat="41.226836666666664" lon="-8.566316666666667">
        <ele>150.0</ele>
        <time>2019-07-05T15:39:58Z</time>
      </trkpt>
      <trkpt lat="41.22678" lon="-8.566206666666666">
        <ele>149.0</ele>
        <time>2019-07-05T15:39:59Z</time>
      </trkpt>
      <trkpt lat="41.22672" lon="-8.566095">
        <ele>149.0</ele>
        <time>2019-07-05T15:40:00Z</time>
      </trkpt>
      <trkpt lat="41.22665666666666" lon="-8.56599">
        <ele>149.0</ele>
        <time>2019-07-05T15:40:01Z</time>
      </trkpt>
      <trkpt lat="41.226596666666666" lon="-8.565875">
        <ele>148.0</ele>
        <time>2019-07-05T15:40:02Z</time>
      </trkpt>
      <trkpt lat="41.22654" lon="-8.56576">
        <ele>147.0</ele>
        <time>2019-07-05T15:40:03Z</time>
      </trkpt>
      <trkpt lat="41.226475" lon="-8.56565">
        <ele>147.0</ele>
        <time>2019-07-05T15:40:04Z</time>
      </trkpt>
      <trkpt lat="41.22640166666667" lon="-8.565541666666666">
        <ele>146.0</ele>
        <time>2019-07-05T15:40:05Z</time>
      </trkpt>
      <trkpt lat="41.226325" lon="-8.56544">
        <ele>146.0</ele>
        <time>2019-07-05T15:40:06Z</time>
      </trkpt>
      <trkpt lat="41.226238333333335" lon="-8.56536">
        <ele>146.0</ele>
        <time>2019-07-05T15:40:07Z</time>
      </trkpt>
      <trkpt lat="41.22615" lon="-8.565291666666667">
        <ele>145.0</ele>
        <time>2019-07-05T15:40:08Z</time>
      </trkpt>
      <trkpt lat="41.22605" lon="-8.565245">
        <ele>145.0</ele>
        <time>2019-07-05T15:40:09Z</time>
      </trkpt>
      <trkpt lat="41.22595" lon="-8.56521">
        <ele>144.0</ele>
        <time>2019-07-05T15:40:10Z</time>
      </trkpt>
      <trkpt lat="41.22585" lon="-8.565175">
        <ele>144.0</ele>
        <time>2019-07-05T15:40:11Z</time>
      </trkpt>
      <trkpt lat="41.22575" lon="-8.565143333333333">
        <ele>143.0</ele>
        <time>2019-07-05T15:40:12Z</time>
      </trkpt>
      <trkpt lat="41.22565" lon="-8.56512">
        <ele>143.0</ele>
        <time>2019-07-05T15:40:13Z</time>
      </trkpt>
      <trkpt lat="41.22555166666667" lon="-8.565088333333334">
        <ele>143.0</ele>
        <time>2019-07-05T15:40:14Z</time>
      </trkpt>
      <trkpt lat="41.22545" lon="-8.565065">
        <ele>143.0</ele>
        <time>2019-07-05T15:40:15Z</time>
      </trkpt>
      <trkpt lat="41.225355" lon="-8.565035">
        <ele>143.0</ele>
        <time>2019-07-05T15:40:16Z</time>
      </trkpt>
      <trkpt lat="41.22526" lon="-8.565008333333333">
        <ele>142.0</ele>
        <time>2019-07-05T15:40:17Z</time>
      </trkpt>
      <trkpt lat="41.225165" lon="-8.564981666666666">
        <ele>142.0</ele>
        <time>2019-07-05T15:40:18Z</time>
      </trkpt>
      <trkpt lat="41.22507" lon="-8.564951666666667">
        <ele>142.0</ele>
        <time>2019-07-05T15:40:19Z</time>
      </trkpt>
      <trkpt lat="41.224975" lon="-8.564921666666667">
        <ele>142.0</ele>
        <time>2019-07-05T15:40:20Z</time>
      </trkpt>
      <trkpt lat="41.22488" lon="-8.564895">
        <ele>141.0</ele>
        <time>2019-07-05T15:40:21Z</time>
      </trkpt>
      <trkpt lat="41.22479" lon="-8.56487">
        <ele>141.0</ele>
        <time>2019-07-05T15:40:22Z</time>
      </trkpt>
      <trkpt lat="41.22470166666667" lon="-8.564841666666666">
        <ele>141.0</ele>
        <time>2019-07-05T15:40:23Z</time>
      </trkpt>
      <trkpt lat="41.22461" lon="-8.564816666666667">
        <ele>141.0</ele>
        <time>2019-07-05T15:40:24Z</time>
      </trkpt>
      <trkpt lat="41.22452" lon="-8.564795">
        <ele>140.0</ele>
        <time>2019-07-05T15:40:25Z</time>
      </trkpt>
      <trkpt lat="41.22443166666667" lon="-8.564775">
        <ele>140.0</ele>
        <time>2019-07-05T15:40:26Z</time>
      </trkpt>
      <trkpt lat="41.22434166666667" lon="-8.56475">
        <ele>140.0</ele>
        <time>2019-07-05T15:40:27Z</time>
      </trkpt>
      <trkpt lat="41.224255" lon="-8.564721666666667">
        <ele>140.0</ele>
        <time>2019-07-05T15:40:28Z</time>
      </trkpt>
      <trkpt lat="41.22416666666667" lon="-8.564695">
        <ele>140.0</ele>
        <time>2019-07-05T15:40:29Z</time>
      </trkpt>
      <trkpt lat="41.22407666666667" lon="-8.564666666666668">
        <ele>139.0</ele>
        <time>2019-07-05T15:40:30Z</time>
      </trkpt>
      <trkpt lat="41.22399" lon="-8.56464">
        <ele>139.0</ele>
        <time>2019-07-05T15:40:31Z</time>
      </trkpt>
      <trkpt lat="41.2239" lon="-8.564613333333334">
        <ele>139.0</ele>
        <time>2019-07-05T15:40:32Z</time>
      </trkpt>
      <trkpt lat="41.22381333333333" lon="-8.56459">
        <ele>139.0</ele>
        <time>2019-07-05T15:40:33Z</time>
      </trkpt>
      <trkpt lat="41.223725" lon="-8.564565">
        <ele>139.0</ele>
        <time>2019-07-05T15:40:34Z</time>
      </trkpt>
      <trkpt lat="41.223635" lon="-8.564535">
        <ele>138.0</ele>
        <time>2019-07-05T15:40:35Z</time>
      </trkpt>
      <trkpt lat="41.22355" lon="-8.564515">
        <ele>138.0</ele>
        <time>2019-07-05T15:40:36Z</time>
      </trkpt>
      <trkpt lat="41.223465" lon="-8.56449">
        <ele>138.0</ele>
        <time>2019-07-05T15:40:37Z</time>
      </trkpt>
      <trkpt lat="41.223375" lon="-8.564466666666666">
        <ele>138.0</ele>
        <time>2019-07-05T15:40:38Z</time>
      </trkpt>
      <trkpt lat="41.22329" lon="-8.564441666666667">
        <ele>138.0</ele>
        <time>2019-07-05T15:40:39Z</time>
      </trkpt>
      <trkpt lat="41.223205" lon="-8.56442">
        <ele>138.0</ele>
        <time>2019-07-05T15:40:40Z</time>
      </trkpt>
      <trkpt lat="41.22312" lon="-8.564395">
        <ele>137.0</ele>
        <time>2019-07-05T15:40:41Z</time>
      </trkpt>
      <trkpt lat="41.22304" lon="-8.56437">
        <ele>137.0</ele>
        <time>2019-07-05T15:40:42Z</time>
      </trkpt>
      <trkpt lat="41.22295666666667" lon="-8.564341666666667">
        <ele>137.0</ele>
        <time>2019-07-05T15:40:43Z</time>
      </trkpt>
      <trkpt lat="41.22287166666667" lon="-8.56432">
        <ele>137.0</ele>
        <time>2019-07-05T15:40:44Z</time>
      </trkpt>
      <trkpt lat="41.22279" lon="-8.564293333333334">
        <ele>137.0</ele>
        <time>2019-07-05T15:40:45Z</time>
      </trkpt>
      <trkpt lat="41.22271" lon="-8.564271666666667">
        <ele>137.0</ele>
        <time>2019-07-05T15:40:46Z</time>
      </trkpt>
      <trkpt lat="41.22263" lon="-8.564245">
        <ele>137.0</ele>
        <time>2019-07-05T15:40:47Z</time>
      </trkpt>
      <trkpt lat="41.222545" lon="-8.56422">
        <ele>137.0</ele>
        <time>2019-07-05T15:40:48Z</time>
      </trkpt>
      <trkpt lat="41.222465" lon="-8.56419">
        <ele>137.0</ele>
        <time>2019-07-05T15:40:49Z</time>
      </trkpt>
      <trkpt lat="41.222381666666664" lon="-8.564161666666667">
        <ele>136.0</ele>
        <time>2019-07-05T15:40:50Z</time>
      </trkpt>
      <trkpt lat="41.222305" lon="-8.564123333333333">
        <ele>136.0</ele>
        <time>2019-07-05T15:40:51Z</time>
      </trkpt>
      <trkpt lat="41.22223" lon="-8.564081666666667">
        <ele>136.0</ele>
        <time>2019-07-05T15:40:52Z</time>
      </trkpt>
      <trkpt lat="41.222155" lon="-8.56404">
        <ele>136.0</ele>
        <time>2019-07-05T15:40:53Z</time>
      </trkpt>
      <trkpt lat="41.222085" lon="-8.56399">
        <ele>136.0</ele>
        <time>2019-07-05T15:40:54Z</time>
      </trkpt>
      <trkpt lat="41.222015" lon="-8.563936666666667">
        <ele>136.0</ele>
        <time>2019-07-05T15:40:55Z</time>
      </trkpt>
      <trkpt lat="41.22195" lon="-8.563885">
        <ele>136.0</ele>
        <time>2019-07-05T15:40:56Z</time>
      </trkpt>
      <trkpt lat="41.221885" lon="-8.56383">
        <ele>136.0</ele>
        <time>2019-07-05T15:40:57Z</time>
      </trkpt>
      <trkpt lat="41.221825" lon="-8.56377">
        <ele>136.0</ele>
        <time>2019-07-05T15:40:58Z</time>
      </trkpt>
      <trkpt lat="41.221761666666666" lon="-8.56371">
        <ele>136.0</ele>
        <time>2019-07-05T15:40:59Z</time>
      </trkpt>
      <trkpt lat="41.221705" lon="-8.563645">
        <ele>136.0</ele>
        <time>2019-07-05T15:41:00Z</time>
      </trkpt>
      <trkpt lat="41.221651666666666" lon="-8.56358">
        <ele>136.0</ele>
        <time>2019-07-05T15:41:01Z</time>
      </trkpt>
      <trkpt lat="41.221555" lon="-8.56345">
        <ele>136.0</ele>
        <time>2019-07-05T15:41:03Z</time>
      </trkpt>
      <trkpt lat="41.221455" lon="-8.56334">
        <ele>136.0</ele>
        <time>2019-07-05T15:41:05Z</time>
      </trkpt>
      <trkpt lat="41.221345" lon="-8.563255">
        <ele>136.0</ele>
        <time>2019-07-05T15:41:07Z</time>
      </trkpt>
      <trkpt lat="41.22127" lon="-8.563118333333334">
        <ele>136.0</ele>
        <time>2019-07-05T15:41:09Z</time>
      </trkpt>
      <trkpt lat="41.221228333333336" lon="-8.56297">
        <ele>137.0</ele>
        <time>2019-07-05T15:41:11Z</time>
      </trkpt>
      <trkpt lat="41.22121" lon="-8.562815">
        <ele>138.0</ele>
        <time>2019-07-05T15:41:13Z</time>
      </trkpt>
      <trkpt lat="41.22117" lon="-8.562665">
        <ele>138.0</ele>
        <time>2019-07-05T15:41:15Z</time>
      </trkpt>
      <trkpt lat="41.221125" lon="-8.562525">
        <ele>138.0</ele>
        <time>2019-07-05T15:41:17Z</time>
      </trkpt>
      <trkpt lat="41.221085" lon="-8.562378333333333">
        <ele>139.0</ele>
        <time>2019-07-05T15:41:19Z</time>
      </trkpt>
      <trkpt lat="41.221041666666665" lon="-8.56224">
        <ele>139.0</ele>
        <time>2019-07-05T15:41:21Z</time>
      </trkpt>
      <trkpt lat="41.221" lon="-8.562093333333333">
        <ele>139.0</ele>
        <time>2019-07-05T15:41:23Z</time>
      </trkpt>
      <trkpt lat="41.220955000000004" lon="-8.56195">
        <ele>139.0</ele>
        <time>2019-07-05T15:41:25Z</time>
      </trkpt>
      <trkpt lat="41.220905" lon="-8.561813333333333">
        <ele>139.0</ele>
        <time>2019-07-05T15:41:27Z</time>
      </trkpt>
      <trkpt lat="41.220863333333334" lon="-8.561681666666667">
        <ele>140.0</ele>
        <time>2019-07-05T15:41:29Z</time>
      </trkpt>
      <trkpt lat="41.22083" lon="-8.561555">
        <ele>140.0</ele>
        <time>2019-07-05T15:41:31Z</time>
      </trkpt>
      <trkpt lat="41.22079" lon="-8.561425">
        <ele>140.0</ele>
        <time>2019-07-05T15:41:33Z</time>
      </trkpt>
      <trkpt lat="41.220755" lon="-8.561298333333333">
        <ele>140.0</ele>
        <time>2019-07-05T15:41:35Z</time>
      </trkpt>
      <trkpt lat="41.220725" lon="-8.561175">
        <ele>141.0</ele>
        <time>2019-07-05T15:41:37Z</time>
      </trkpt>
      <trkpt lat="41.22069" lon="-8.561045">
        <ele>141.0</ele>
        <time>2019-07-05T15:41:39Z</time>
      </trkpt>
      <trkpt lat="41.22065" lon="-8.560918333333333">
        <ele>141.0</ele>
        <time>2019-07-05T15:41:41Z</time>
      </trkpt>
      <trkpt lat="41.220615" lon="-8.560791666666667">
        <ele>141.0</ele>
        <time>2019-07-05T15:41:43Z</time>
      </trkpt>
      <trkpt lat="41.22058" lon="-8.56067">
        <ele>141.0</ele>
        <time>2019-07-05T15:41:45Z</time>
      </trkpt>
      <trkpt lat="41.220545" lon="-8.56055">
        <ele>141.0</ele>
        <time>2019-07-05T15:41:47Z</time>
      </trkpt>
      <trkpt lat="41.22051" lon="-8.560426666666666">
        <ele>141.0</ele>
        <time>2019-07-05T15:41:49Z</time>
      </trkpt>
      <trkpt lat="41.22047" lon="-8.560305">
        <ele>141.0</ele>
        <time>2019-07-05T15:41:51Z</time>
      </trkpt>
      <trkpt lat="41.22043" lon="-8.56018">
        <ele>141.0</ele>
        <time>2019-07-05T15:41:53Z</time>
      </trkpt>
      <trkpt lat="41.220395" lon="-8.56006">
        <ele>142.0</ele>
        <time>2019-07-05T15:41:55Z</time>
      </trkpt>
      <trkpt lat="41.220355" lon="-8.55995">
        <ele>142.0</ele>
        <time>2019-07-05T15:41:57Z</time>
      </trkpt>
      <trkpt lat="41.220325" lon="-8.55983">
        <ele>141.0</ele>
        <time>2019-07-05T15:41:59Z</time>
      </trkpt>
      <trkpt lat="41.220295" lon="-8.55972">
        <ele>141.0</ele>
        <time>2019-07-05T15:42:01Z</time>
      </trkpt>
      <trkpt lat="41.22026" lon="-8.55959">
        <ele>140.0</ele>
        <time>2019-07-05T15:42:03Z</time>
      </trkpt>
      <trkpt lat="41.220225" lon="-8.559435">
        <ele>140.0</ele>
        <time>2019-07-05T15:42:05Z</time>
      </trkpt>
      <trkpt lat="41.22018166666667" lon="-8.559265">
        <ele>138.0</ele>
        <time>2019-07-05T15:42:07Z</time>
      </trkpt>
      <trkpt lat="41.220151666666666" lon="-8.55909">
        <ele>137.0</ele>
        <time>2019-07-05T15:42:09Z</time>
      </trkpt>
      <trkpt lat="41.22014166666666" lon="-8.558935">
        <ele>137.0</ele>
        <time>2019-07-05T15:42:11Z</time>
      </trkpt>
      <trkpt lat="41.220095" lon="-8.55881">
        <ele>137.0</ele>
        <time>2019-07-05T15:42:13Z</time>
      </trkpt>
      <trkpt lat="41.220015" lon="-8.558756666666667">
        <ele>137.0</ele>
        <time>2019-07-05T15:42:15Z</time>
      </trkpt>
      <trkpt lat="41.21993" lon="-8.558755">
        <ele>138.0</ele>
        <time>2019-07-05T15:42:17Z</time>
      </trkpt>
      <trkpt lat="41.21984666666667" lon="-8.55875">
        <ele>138.0</ele>
        <time>2019-07-05T15:42:18Z</time>
      </trkpt>
      <trkpt lat="41.21977" lon="-8.558755">
        <ele>139.0</ele>
        <time>2019-07-05T15:42:22Z</time>
      </trkpt>
      <trkpt lat="41.219695" lon="-8.558715">
        <ele>140.0</ele>
        <time>2019-07-05T15:42:25Z</time>
      </trkpt>
      <trkpt lat="41.21969" lon="-8.558568333333334">
        <ele>139.0</ele>
        <time>2019-07-05T15:42:28Z</time>
      </trkpt>
      <trkpt lat="41.21971" lon="-8.558436666666667">
        <ele>139.0</ele>
        <time>2019-07-05T15:42:30Z</time>
      </trkpt>
      <trkpt lat="41.21972" lon="-8.5583">
        <ele>141.0</ele>
        <time>2019-07-05T15:42:32Z</time>
      </trkpt>
      <trkpt lat="41.219723333333334" lon="-8.558165">
        <ele>142.0</ele>
        <time>2019-07-05T15:42:34Z</time>
      </trkpt>
      <trkpt lat="41.219735" lon="-8.558038333333334">
        <ele>141.0</ele>
        <time>2019-07-05T15:42:36Z</time>
      </trkpt>
      <trkpt lat="41.21973666666667" lon="-8.557905">
        <ele>142.0</ele>
        <time>2019-07-05T15:42:38Z</time>
      </trkpt>
      <trkpt lat="41.219745" lon="-8.55777">
        <ele>141.0</ele>
        <time>2019-07-05T15:42:40Z</time>
      </trkpt>
      <trkpt lat="41.21977" lon="-8.55762">
        <ele>141.0</ele>
        <time>2019-07-05T15:42:42Z</time>
      </trkpt>
      <trkpt lat="41.219788333333334" lon="-8.557488333333334">
        <ele>141.0</ele>
        <time>2019-07-05T15:42:44Z</time>
      </trkpt>
      <trkpt lat="41.219793333333335" lon="-8.55735">
        <ele>141.0</ele>
        <time>2019-07-05T15:42:46Z</time>
      </trkpt>
      <trkpt lat="41.219805" lon="-8.557223333333333">
        <ele>142.0</ele>
        <time>2019-07-05T15:42:48Z</time>
      </trkpt>
      <trkpt lat="41.21981666666667" lon="-8.557101666666666">
        <ele>142.0</ele>
        <time>2019-07-05T15:42:50Z</time>
      </trkpt>
      <trkpt lat="41.21983" lon="-8.557005">
        <ele>143.0</ele>
        <time>2019-07-05T15:42:52Z</time>
      </trkpt>
      <trkpt lat="41.219845" lon="-8.556875">
        <ele>143.0</ele>
        <time>2019-07-05T15:42:55Z</time>
      </trkpt>
      <trkpt lat="41.21987" lon="-8.556765">
        <ele>144.0</ele>
        <time>2019-07-05T15:42:58Z</time>
      </trkpt>
      <trkpt lat="41.21989" lon="-8.556655">
        <ele>143.0</ele>
        <time>2019-07-05T15:43:01Z</time>
      </trkpt>
      <trkpt lat="41.21991" lon="-8.556551666666667">
        <ele>143.0</ele>
        <time>2019-07-05T15:43:04Z</time>
      </trkpt>
      <trkpt lat="41.21994" lon="-8.556445">
        <ele>144.0</ele>
        <time>2019-07-05T15:43:07Z</time>
      </trkpt>
      <trkpt lat="41.219971666666666" lon="-8.55634">
        <ele>144.0</ele>
        <time>2019-07-05T15:43:10Z</time>
      </trkpt>
      <trkpt lat="41.21999" lon="-8.55623">
        <ele>144.0</ele>
        <time>2019-07-05T15:43:13Z</time>
      </trkpt>
      <trkpt lat="41.220015" lon="-8.55612">
        <ele>145.0</ele>
        <time>2019-07-05T15:43:16Z</time>
      </trkpt>
      <trkpt lat="41.219995" lon="-8.556011666666667">
        <ele>145.0</ele>
        <time>2019-07-05T15:43:19Z</time>
      </trkpt>
      <trkpt lat="41.219915" lon="-8.555956666666667">
        <ele>145.0</ele>
        <time>2019-07-05T15:43:22Z</time>
      </trkpt>
      <trkpt lat="41.21982" lon="-8.555925">
        <ele>145.0</ele>
        <time>2019-07-05T15:43:25Z</time>
      </trkpt>
      <trkpt lat="41.21971" lon="-8.555896666666667">
        <ele>146.0</ele>
        <time>2019-07-05T15:43:28Z</time>
      </trkpt>
      <trkpt lat="41.21963" lon="-8.555875">
        <ele>147.0</ele>
        <time>2019-07-05T15:43:30Z</time>
      </trkpt>
      <trkpt lat="41.219546666666666" lon="-8.555855">
        <ele>147.0</ele>
        <time>2019-07-05T15:43:32Z</time>
      </trkpt>
      <trkpt lat="41.21946" lon="-8.55584">
        <ele>146.0</ele>
        <time>2019-07-05T15:43:34Z</time>
      </trkpt>
      <trkpt lat="41.219366666666666" lon="-8.555808333333333">
        <ele>146.0</ele>
        <time>2019-07-05T15:43:36Z</time>
      </trkpt>
      <trkpt lat="41.21928" lon="-8.555795">
        <ele>146.0</ele>
        <time>2019-07-05T15:43:38Z</time>
      </trkpt>
      <trkpt lat="41.2192" lon="-8.555786666666666">
        <ele>146.0</ele>
        <time>2019-07-05T15:43:40Z</time>
      </trkpt>
      <trkpt lat="41.219125" lon="-8.55576">
        <ele>147.0</ele>
        <time>2019-07-05T15:43:43Z</time>
      </trkpt>
      <trkpt lat="41.219005" lon="-8.55573">
        <ele>148.0</ele>
        <time>2019-07-05T15:43:46Z</time>
      </trkpt>
      <trkpt lat="41.21891" lon="-8.555711666666667">
        <ele>148.0</ele>
        <time>2019-07-05T15:43:48Z</time>
      </trkpt>
      <trkpt lat="41.218815" lon="-8.555695">
        <ele>148.0</ele>
        <time>2019-07-05T15:43:50Z</time>
      </trkpt>
      <trkpt lat="41.218725" lon="-8.555675">
        <ele>148.0</ele>
        <time>2019-07-05T15:43:52Z</time>
      </trkpt>
      <trkpt lat="41.21863" lon="-8.55565">
        <ele>148.0</ele>
        <time>2019-07-05T15:43:54Z</time>
      </trkpt>
      <trkpt lat="41.21853" lon="-8.555625">
        <ele>149.0</ele>
        <time>2019-07-05T15:43:56Z</time>
      </trkpt>
      <trkpt lat="41.218435" lon="-8.555605">
        <ele>148.0</ele>
        <time>2019-07-05T15:43:58Z</time>
      </trkpt>
      <trkpt lat="41.218345" lon="-8.555575">
        <ele>149.0</ele>
        <time>2019-07-05T15:44:00Z</time>
      </trkpt>
      <trkpt lat="41.21825" lon="-8.55554">
        <ele>150.0</ele>
        <time>2019-07-05T15:44:02Z</time>
      </trkpt>
      <trkpt lat="41.21814" lon="-8.555523333333333">
        <ele>150.0</ele>
        <time>2019-07-05T15:44:04Z</time>
      </trkpt>
      <trkpt lat="41.218045" lon="-8.555498333333333">
        <ele>151.0</ele>
        <time>2019-07-05T15:44:06Z</time>
      </trkpt>
      <trkpt lat="41.217945" lon="-8.555481666666667">
        <ele>151.0</ele>
        <time>2019-07-05T15:44:08Z</time>
      </trkpt>
      <trkpt lat="41.217845" lon="-8.55547">
        <ele>151.0</ele>
        <time>2019-07-05T15:44:10Z</time>
      </trkpt>
      <trkpt lat="41.21774" lon="-8.555455">
        <ele>151.0</ele>
        <time>2019-07-05T15:44:12Z</time>
      </trkpt>
      <trkpt lat="41.21763166666667" lon="-8.555435">
        <ele>153.0</ele>
        <time>2019-07-05T15:44:14Z</time>
      </trkpt>
      <trkpt lat="41.215765" lon="-8.555855">
        <ele>171.0</ele>
        <time>2019-07-05T15:44:50Z</time>
      </trkpt>
      <trkpt lat="41.2156" lon="-8.555956666666667">
        <ele>165.0</ele>
        <time>2019-07-05T15:44:51Z</time>
      </trkpt>
      <trkpt lat="41.21549" lon="-8.55601">
        <ele>163.0</ele>
        <time>2019-07-05T15:44:54Z</time>
      </trkpt>
      <trkpt lat="41.215375" lon="-8.556065">
        <ele>163.0</ele>
        <time>2019-07-05T15:44:56Z</time>
      </trkpt>
      <trkpt lat="41.21527" lon="-8.556123333333334">
        <ele>161.0</ele>
        <time>2019-07-05T15:44:58Z</time>
      </trkpt>
      <trkpt lat="41.215175" lon="-8.55616">
        <ele>160.0</ele>
        <time>2019-07-05T15:45:00Z</time>
      </trkpt>
      <trkpt lat="41.21507" lon="-8.556215">
        <ele>158.0</ele>
        <time>2019-07-05T15:45:02Z</time>
      </trkpt>
      <trkpt lat="41.21497" lon="-8.556275">
        <ele>156.0</ele>
        <time>2019-07-05T15:45:04Z</time>
      </trkpt>
      <trkpt lat="41.21487166666667" lon="-8.55631">
        <ele>157.0</ele>
        <time>2019-07-05T15:45:06Z</time>
      </trkpt>
      <trkpt lat="41.21477" lon="-8.55637">
        <ele>157.0</ele>
        <time>2019-07-05T15:45:08Z</time>
      </trkpt>
      <trkpt lat="41.21469" lon="-8.55643">
        <ele>156.0</ele>
        <time>2019-07-05T15:45:10Z</time>
      </trkpt>
      <trkpt lat="41.2146" lon="-8.55648">
        <ele>157.0</ele>
        <time>2019-07-05T15:45:13Z</time>
      </trkpt>
      <trkpt lat="41.213475" lon="-8.555403333333333">
        <ele>166.0</ele>
        <time>2019-07-05T15:45:48Z</time>
      </trkpt>
      <trkpt lat="41.213565" lon="-8.55549">
        <ele>153.0</ele>
        <time>2019-07-05T15:45:50Z</time>
      </trkpt>
      <trkpt lat="41.21344666666667" lon="-8.555495">
        <ele>153.0</ele>
        <time>2019-07-05T15:45:52Z</time>
      </trkpt>
      <trkpt lat="41.213355" lon="-8.555565">
        <ele>153.0</ele>
        <time>2019-07-05T15:45:55Z</time>
      </trkpt>
      <trkpt lat="41.213276666666665" lon="-8.555635">
        <ele>156.0</ele>
        <time>2019-07-05T15:45:58Z</time>
      </trkpt>
      <trkpt lat="41.2132" lon="-8.55572">
        <ele>158.0</ele>
        <time>2019-07-05T15:46:01Z</time>
      </trkpt>
      <trkpt lat="41.21313" lon="-8.555808333333333">
        <ele>159.0</ele>
        <time>2019-07-05T15:46:03Z</time>
      </trkpt>
      <trkpt lat="41.21306166666667" lon="-8.555898333333333">
        <ele>160.0</ele>
        <time>2019-07-05T15:46:06Z</time>
      </trkpt>
      <trkpt lat="41.213" lon="-8.555996666666667">
        <ele>159.0</ele>
        <time>2019-07-05T15:46:09Z</time>
      </trkpt>
      <trkpt lat="41.21293166666667" lon="-8.556086666666667">
        <ele>158.0</ele>
        <time>2019-07-05T15:46:12Z</time>
      </trkpt>
      <trkpt lat="41.21289" lon="-8.556181666666667">
        <ele>158.0</ele>
        <time>2019-07-05T15:46:15Z</time>
      </trkpt>
      <trkpt lat="41.212805" lon="-8.55621">
        <ele>159.0</ele>
        <time>2019-07-05T15:46:18Z</time>
      </trkpt>
      <trkpt lat="41.21271" lon="-8.556215">
        <ele>160.0</ele>
        <time>2019-07-05T15:46:21Z</time>
      </trkpt>
      <trkpt lat="41.21261" lon="-8.556223333333334">
        <ele>160.0</ele>
        <time>2019-07-05T15:46:24Z</time>
      </trkpt>
      <trkpt lat="41.21252166666667" lon="-8.556241666666667">
        <ele>161.0</ele>
        <time>2019-07-05T15:46:27Z</time>
      </trkpt>
      <trkpt lat="41.21243166666667" lon="-8.55625">
        <ele>161.0</ele>
        <time>2019-07-05T15:46:30Z</time>
      </trkpt>
      <trkpt lat="41.21188" lon="-8.556365">
        <ele>156.0</ele>
        <time>2019-07-05T16:47:50Z</time>
      </trkpt>
      <trkpt lat="41.211895" lon="-8.55633">
        <ele>157.0</ele>
        <time>2019-07-05T16:47:57Z</time>
      </trkpt>
      <trkpt lat="41.211875" lon="-8.556285">
        <ele>157.0</ele>
        <time>2019-07-05T16:48:04Z</time>
      </trkpt>
      <trkpt lat="41.211866666666666" lon="-8.55627">
        <ele>158.0</ele>
        <time>2019-07-05T16:48:11Z</time>
      </trkpt>
      <trkpt lat="41.211935" lon="-8.556235">
        <ele>158.0</ele>
        <time>2019-07-05T16:48:16Z</time>
      </trkpt>
      <trkpt lat="41.21204" lon="-8.556235">
        <ele>157.0</ele>
        <time>2019-07-05T16:48:19Z</time>
      </trkpt>
      <trkpt lat="41.21211" lon="-8.556223333333334">
        <ele>157.0</ele>
        <time>2019-07-05T16:48:21Z</time>
      </trkpt>
      <trkpt lat="41.21221" lon="-8.556215">
        <ele>157.0</ele>
        <time>2019-07-05T16:48:24Z</time>
      </trkpt>
      <trkpt lat="41.212316666666666" lon="-8.556215">
        <ele>157.0</ele>
        <time>2019-07-05T16:48:26Z</time>
      </trkpt>
      <trkpt lat="41.212415" lon="-8.556206666666666">
        <ele>156.0</ele>
        <time>2019-07-05T16:48:28Z</time>
      </trkpt>
      <trkpt lat="41.212525" lon="-8.556205">
        <ele>156.0</ele>
        <time>2019-07-05T16:48:30Z</time>
      </trkpt>
      <trkpt lat="41.21263" lon="-8.5562">
        <ele>156.0</ele>
        <time>2019-07-05T16:48:32Z</time>
      </trkpt>
      <trkpt lat="41.212735" lon="-8.556195">
        <ele>155.0</ele>
        <time>2019-07-05T16:48:34Z</time>
      </trkpt>
      <trkpt lat="41.21283666666667" lon="-8.55619">
        <ele>155.0</ele>
        <time>2019-07-05T16:48:36Z</time>
      </trkpt>
      <trkpt lat="41.21292" lon="-8.55612">
        <ele>155.0</ele>
        <time>2019-07-05T16:48:38Z</time>
      </trkpt>
      <trkpt lat="41.212975" lon="-8.555996666666667">
        <ele>154.0</ele>
        <time>2019-07-05T16:48:40Z</time>
      </trkpt>
      <trkpt lat="41.21304666666666" lon="-8.555886666666666">
        <ele>154.0</ele>
        <time>2019-07-05T16:48:42Z</time>
      </trkpt>
      <trkpt lat="41.213121666666666" lon="-8.555775">
        <ele>154.0</ele>
        <time>2019-07-05T16:48:44Z</time>
      </trkpt>
      <trkpt lat="41.2132" lon="-8.555665">
        <ele>154.0</ele>
        <time>2019-07-05T16:48:46Z</time>
      </trkpt>
      <trkpt lat="41.213285" lon="-8.555565">
        <ele>154.0</ele>
        <time>2019-07-05T16:48:48Z</time>
      </trkpt>
      <trkpt lat="41.21337" lon="-8.555483333333333">
        <ele>155.0</ele>
        <time>2019-07-05T16:48:50Z</time>
      </trkpt>
      <trkpt lat="41.21346666666667" lon="-8.555498333333333">
        <ele>155.0</ele>
        <time>2019-07-05T16:48:52Z</time>
      </trkpt>
      <trkpt lat="41.213565" lon="-8.55557">
        <ele>155.0</ele>
        <time>2019-07-05T16:48:54Z</time>
      </trkpt>
      <trkpt lat="41.21365" lon="-8.55565">
        <ele>154.0</ele>
        <time>2019-07-05T16:48:56Z</time>
      </trkpt>
      <trkpt lat="41.21373166666667" lon="-8.555745">
        <ele>153.0</ele>
        <time>2019-07-05T16:48:58Z</time>
      </trkpt>
      <trkpt lat="41.21384" lon="-8.555835">
        <ele>153.0</ele>
        <time>2019-07-05T16:49:00Z</time>
      </trkpt>
      <trkpt lat="41.21395" lon="-8.555945">
        <ele>152.0</ele>
        <time>2019-07-05T16:49:02Z</time>
      </trkpt>
      <trkpt lat="41.21401" lon="-8.55601">
        <ele>152.0</ele>
        <time>2019-07-05T16:49:03Z</time>
      </trkpt>
      <trkpt lat="41.21407" lon="-8.55608">
        <ele>151.0</ele>
        <time>2019-07-05T16:49:04Z</time>
      </trkpt>
      <trkpt lat="41.214135" lon="-8.556145">
        <ele>151.0</ele>
        <time>2019-07-05T16:49:05Z</time>
      </trkpt>
      <trkpt lat="41.21421" lon="-8.556215">
        <ele>150.0</ele>
        <time>2019-07-05T16:49:06Z</time>
      </trkpt>
      <trkpt lat="41.21428" lon="-8.556295">
        <ele>150.0</ele>
        <time>2019-07-05T16:49:07Z</time>
      </trkpt>
      <trkpt lat="41.21436" lon="-8.55635">
        <ele>150.0</ele>
        <time>2019-07-05T16:49:08Z</time>
      </trkpt>
      <trkpt lat="41.21443166666667" lon="-8.556408333333334">
        <ele>150.0</ele>
        <time>2019-07-05T16:49:09Z</time>
      </trkpt>
      <trkpt lat="41.21450333333333" lon="-8.55648">
        <ele>150.0</ele>
        <time>2019-07-05T16:49:10Z</time>
      </trkpt>
      <trkpt lat="41.214575" lon="-8.55654">
        <ele>150.0</ele>
        <time>2019-07-05T16:49:11Z</time>
      </trkpt>
      <trkpt lat="41.21465" lon="-8.556595">
        <ele>150.0</ele>
        <time>2019-07-05T16:49:12Z</time>
      </trkpt>
      <trkpt lat="41.214711666666666" lon="-8.556655">
        <ele>150.0</ele>
        <time>2019-07-05T16:49:13Z</time>
      </trkpt>
      <trkpt lat="41.214775" lon="-8.556705">
        <ele>150.0</ele>
        <time>2019-07-05T16:49:14Z</time>
      </trkpt>
      <trkpt lat="41.21483666666666" lon="-8.556765">
        <ele>151.0</ele>
        <time>2019-07-05T16:49:15Z</time>
      </trkpt>
      <trkpt lat="41.21496" lon="-8.55685">
        <ele>151.0</ele>
        <time>2019-07-05T16:49:17Z</time>
      </trkpt>
      <trkpt lat="41.215055" lon="-8.55695">
        <ele>153.0</ele>
        <time>2019-07-05T16:49:19Z</time>
      </trkpt>
      <trkpt lat="41.21515" lon="-8.557031666666667">
        <ele>153.0</ele>
        <time>2019-07-05T16:49:21Z</time>
      </trkpt>
      <trkpt lat="41.21524" lon="-8.55711">
        <ele>154.0</ele>
        <time>2019-07-05T16:49:23Z</time>
      </trkpt>
      <trkpt lat="41.215335" lon="-8.55718">
        <ele>154.0</ele>
        <time>2019-07-05T16:49:25Z</time>
      </trkpt>
      <trkpt lat="41.21543" lon="-8.557263333333333">
        <ele>154.0</ele>
        <time>2019-07-05T16:49:27Z</time>
      </trkpt>
      <trkpt lat="41.215525" lon="-8.557335">
        <ele>154.0</ele>
        <time>2019-07-05T16:49:29Z</time>
      </trkpt>
      <trkpt lat="41.215605" lon="-8.557405">
        <ele>155.0</ele>
        <time>2019-07-05T16:49:31Z</time>
      </trkpt>
      <trkpt lat="41.215695" lon="-8.557465">
        <ele>156.0</ele>
        <time>2019-07-05T16:49:33Z</time>
      </trkpt>
      <trkpt lat="41.215775" lon="-8.557491666666667">
        <ele>155.0</ele>
        <time>2019-07-05T16:49:35Z</time>
      </trkpt>
      <trkpt lat="41.21583666666667" lon="-8.55756">
        <ele>157.0</ele>
        <time>2019-07-05T16:49:37Z</time>
      </trkpt>
      <trkpt lat="41.215905" lon="-8.55763">
        <ele>157.0</ele>
        <time>2019-07-05T16:49:39Z</time>
      </trkpt>
      <trkpt lat="41.21598" lon="-8.557683333333333">
        <ele>158.0</ele>
        <time>2019-07-05T16:49:41Z</time>
      </trkpt>
      <trkpt lat="41.21606" lon="-8.557745">
        <ele>158.0</ele>
        <time>2019-07-05T16:49:43Z</time>
      </trkpt>
      <trkpt lat="41.21614" lon="-8.557825">
        <ele>157.0</ele>
        <time>2019-07-05T16:49:45Z</time>
      </trkpt>
      <trkpt lat="41.216205" lon="-8.55789">
        <ele>158.0</ele>
        <time>2019-07-05T16:49:47Z</time>
      </trkpt>
      <trkpt lat="41.21626" lon="-8.557956666666668">
        <ele>160.0</ele>
        <time>2019-07-05T16:49:49Z</time>
      </trkpt>
      <trkpt lat="41.216335" lon="-8.558063333333333">
        <ele>160.0</ele>
        <time>2019-07-05T16:49:52Z</time>
      </trkpt>
      <trkpt lat="41.216405" lon="-8.558175">
        <ele>161.0</ele>
        <time>2019-07-05T16:49:55Z</time>
      </trkpt>
      <trkpt lat="41.216456666666666" lon="-8.558286666666667">
        <ele>162.0</ele>
        <time>2019-07-05T16:49:58Z</time>
      </trkpt>
      <trkpt lat="41.21653" lon="-8.558395">
        <ele>161.0</ele>
        <time>2019-07-05T16:50:01Z</time>
      </trkpt>
      <trkpt lat="41.2166" lon="-8.558485">
        <ele>161.0</ele>
        <time>2019-07-05T16:50:04Z</time>
      </trkpt>
      <trkpt lat="41.216656666666665" lon="-8.558555">
        <ele>161.0</ele>
        <time>2019-07-05T16:50:07Z</time>
      </trkpt>
      <trkpt lat="41.21669833333333" lon="-8.55864">
        <ele>161.0</ele>
        <time>2019-07-05T16:50:10Z</time>
      </trkpt>
      <trkpt lat="41.21669" lon="-8.558738333333332">
        <ele>160.0</ele>
        <time>2019-07-05T16:50:15Z</time>
      </trkpt>
      <trkpt lat="41.216695" lon="-8.55875">
        <ele>159.0</ele>
        <time>2019-07-05T16:50:22Z</time>
      </trkpt>
      <trkpt lat="41.216695" lon="-8.558755">
        <ele>159.0</ele>
        <time>2019-07-05T16:50:23Z</time>
      </trkpt>
      <trkpt lat="41.21665" lon="-8.55884">
        <ele>159.0</ele>
        <time>2019-07-05T16:50:27Z</time>
      </trkpt>
      <trkpt lat="41.21656" lon="-8.558875">
        <ele>159.0</ele>
        <time>2019-07-05T16:50:30Z</time>
      </trkpt>
      <trkpt lat="41.21647" lon="-8.558915">
        <ele>159.0</ele>
        <time>2019-07-05T16:50:33Z</time>
      </trkpt>
      <trkpt lat="41.21644666666667" lon="-8.559015">
        <ele>159.0</ele>
        <time>2019-07-05T16:50:37Z</time>
      </trkpt>
      <trkpt lat="41.216521666666665" lon="-8.55901">
        <ele>159.0</ele>
        <time>2019-07-05T16:50:40Z</time>
      </trkpt>
      <trkpt lat="41.216625" lon="-8.558965">
        <ele>160.0</ele>
        <time>2019-07-05T16:50:43Z</time>
      </trkpt>
      <trkpt lat="41.216701666666665" lon="-8.558975">
        <ele>159.0</ele>
        <time>2019-07-05T16:50:45Z</time>
      </trkpt>
      <trkpt lat="41.216766666666665" lon="-8.559015">
        <ele>160.0</ele>
        <time>2019-07-05T16:50:47Z</time>
      </trkpt>
      <trkpt lat="41.216836666666666" lon="-8.559075">
        <ele>161.0</ele>
        <time>2019-07-05T16:50:49Z</time>
      </trkpt>
      <trkpt lat="41.216935" lon="-8.559138333333333">
        <ele>161.0</ele>
        <time>2019-07-05T16:50:51Z</time>
      </trkpt>
      <trkpt lat="41.217045" lon="-8.559195">
        <ele>160.0</ele>
        <time>2019-07-05T16:50:53Z</time>
      </trkpt>
      <trkpt lat="41.21714166666667" lon="-8.55926">
        <ele>162.0</ele>
        <time>2019-07-05T16:50:55Z</time>
      </trkpt>
      <trkpt lat="41.21724" lon="-8.559315">
        <ele>163.0</ele>
        <time>2019-07-05T16:50:57Z</time>
      </trkpt>
      <trkpt lat="41.217326666666665" lon="-8.559366666666667">
        <ele>162.0</ele>
        <time>2019-07-05T16:50:59Z</time>
      </trkpt>
      <trkpt lat="41.217385" lon="-8.559446666666666">
        <ele>160.0</ele>
        <time>2019-07-05T16:51:01Z</time>
      </trkpt>
      <trkpt lat="41.217396666666666" lon="-8.559556666666667">
        <ele>160.0</ele>
        <time>2019-07-05T16:51:03Z</time>
      </trkpt>
      <trkpt lat="41.21738" lon="-8.559688333333334">
        <ele>159.0</ele>
        <time>2019-07-05T16:51:05Z</time>
      </trkpt>
      <trkpt lat="41.21736666666666" lon="-8.55985">
        <ele>159.0</ele>
        <time>2019-07-05T16:51:07Z</time>
      </trkpt>
      <trkpt lat="41.21734" lon="-8.559985">
        <ele>158.0</ele>
        <time>2019-07-05T16:51:09Z</time>
      </trkpt>
      <trkpt lat="41.21733" lon="-8.560135">
        <ele>158.0</ele>
        <time>2019-07-05T16:51:11Z</time>
      </trkpt>
      <trkpt lat="41.217345" lon="-8.560276666666667">
        <ele>158.0</ele>
        <time>2019-07-05T16:51:13Z</time>
      </trkpt>
      <trkpt lat="41.21738" lon="-8.56042">
        <ele>158.0</ele>
        <time>2019-07-05T16:51:15Z</time>
      </trkpt>
      <trkpt lat="41.217415" lon="-8.56057">
        <ele>156.0</ele>
        <time>2019-07-05T16:51:17Z</time>
      </trkpt>
      <trkpt lat="41.217455" lon="-8.560725">
        <ele>156.0</ele>
        <time>2019-07-05T16:51:19Z</time>
      </trkpt>
      <trkpt lat="41.21748" lon="-8.560875">
        <ele>155.0</ele>
        <time>2019-07-05T16:51:21Z</time>
      </trkpt>
      <trkpt lat="41.21751" lon="-8.561016666666667">
        <ele>155.0</ele>
        <time>2019-07-05T16:51:23Z</time>
      </trkpt>
      <trkpt lat="41.21752" lon="-8.561175">
        <ele>154.0</ele>
        <time>2019-07-05T16:51:25Z</time>
      </trkpt>
      <trkpt lat="41.217525" lon="-8.56132">
        <ele>154.0</ele>
        <time>2019-07-05T16:51:27Z</time>
      </trkpt>
      <trkpt lat="41.217526666666664" lon="-8.561468333333334">
        <ele>154.0</ele>
        <time>2019-07-05T16:51:29Z</time>
      </trkpt>
      <trkpt lat="41.217528333333334" lon="-8.561618333333334">
        <ele>153.0</ele>
        <time>2019-07-05T16:51:31Z</time>
      </trkpt>
      <trkpt lat="41.21752" lon="-8.56175">
        <ele>153.0</ele>
        <time>2019-07-05T16:51:33Z</time>
      </trkpt>
      <trkpt lat="41.217535" lon="-8.561861666666667">
        <ele>153.0</ele>
        <time>2019-07-05T16:51:36Z</time>
      </trkpt>
      <trkpt lat="41.217621666666666" lon="-8.561871666666667">
        <ele>152.0</ele>
        <time>2019-07-05T16:51:39Z</time>
      </trkpt>
      <trkpt lat="41.217705" lon="-8.561845">
        <ele>151.0</ele>
        <time>2019-07-05T16:51:41Z</time>
      </trkpt>
      <trkpt lat="41.217785" lon="-8.561826666666667">
        <ele>151.0</ele>
        <time>2019-07-05T16:51:43Z</time>
      </trkpt>
      <trkpt lat="41.217865" lon="-8.56184">
        <ele>150.0</ele>
        <time>2019-07-05T16:51:45Z</time>
      </trkpt>
      <trkpt lat="41.21796" lon="-8.561863333333333">
        <ele>150.0</ele>
        <time>2019-07-05T16:51:47Z</time>
      </trkpt>
      <trkpt lat="41.21806" lon="-8.56189">
        <ele>149.0</ele>
        <time>2019-07-05T16:51:49Z</time>
      </trkpt>
      <trkpt lat="41.218156666666665" lon="-8.56192">
        <ele>149.0</ele>
        <time>2019-07-05T16:51:51Z</time>
      </trkpt>
      <trkpt lat="41.218246666666666" lon="-8.561975">
        <ele>149.0</ele>
        <time>2019-07-05T16:51:53Z</time>
      </trkpt>
      <trkpt lat="41.21835166666666" lon="-8.562015">
        <ele>148.0</ele>
        <time>2019-07-05T16:51:55Z</time>
      </trkpt>
      <trkpt lat="41.218475" lon="-8.562045">
        <ele>148.0</ele>
        <time>2019-07-05T16:51:57Z</time>
      </trkpt>
      <trkpt lat="41.21859" lon="-8.56212">
        <ele>148.0</ele>
        <time>2019-07-05T16:51:59Z</time>
      </trkpt>
      <trkpt lat="41.2187" lon="-8.562188333333333">
        <ele>148.0</ele>
        <time>2019-07-05T16:52:01Z</time>
      </trkpt>
      <trkpt lat="41.218805" lon="-8.56225">
        <ele>148.0</ele>
        <time>2019-07-05T16:52:03Z</time>
      </trkpt>
      <trkpt lat="41.2189" lon="-8.562336666666667">
        <ele>147.0</ele>
        <time>2019-07-05T16:52:05Z</time>
      </trkpt>
      <trkpt lat="41.219" lon="-8.56244">
        <ele>146.0</ele>
        <time>2019-07-05T16:52:07Z</time>
      </trkpt>
      <trkpt lat="41.219085" lon="-8.562566666666667">
        <ele>146.0</ele>
        <time>2019-07-05T16:52:09Z</time>
      </trkpt>
      <trkpt lat="41.219186666666666" lon="-8.562666666666667">
        <ele>146.0</ele>
        <time>2019-07-05T16:52:11Z</time>
      </trkpt>
      <trkpt lat="41.219285" lon="-8.56278">
        <ele>145.0</ele>
        <time>2019-07-05T16:52:13Z</time>
      </trkpt>
      <trkpt lat="41.21937" lon="-8.562888333333333">
        <ele>145.0</ele>
        <time>2019-07-05T16:52:15Z</time>
      </trkpt>
      <trkpt lat="41.21946" lon="-8.563001666666667">
        <ele>145.0</ele>
        <time>2019-07-05T16:52:17Z</time>
      </trkpt>
      <trkpt lat="41.21954" lon="-8.563113333333334">
        <ele>145.0</ele>
        <time>2019-07-05T16:52:19Z</time>
      </trkpt>
      <trkpt lat="41.219625" lon="-8.56324">
        <ele>144.0</ele>
        <time>2019-07-05T16:52:21Z</time>
      </trkpt>
      <trkpt lat="41.219715" lon="-8.563361666666667">
        <ele>143.0</ele>
        <time>2019-07-05T16:52:23Z</time>
      </trkpt>
      <trkpt lat="41.21980666666666" lon="-8.56351">
        <ele>142.0</ele>
        <time>2019-07-05T16:52:25Z</time>
      </trkpt>
      <trkpt lat="41.219901666666665" lon="-8.56365">
        <ele>141.0</ele>
        <time>2019-07-05T16:52:27Z</time>
      </trkpt>
      <trkpt lat="41.219985" lon="-8.563775">
        <ele>140.0</ele>
        <time>2019-07-05T16:52:29Z</time>
      </trkpt>
      <trkpt lat="41.220055" lon="-8.563871666666667">
        <ele>140.0</ele>
        <time>2019-07-05T16:52:31Z</time>
      </trkpt>
      <trkpt lat="41.220165" lon="-8.563905">
        <ele>139.0</ele>
        <time>2019-07-05T16:52:33Z</time>
      </trkpt>
      <trkpt lat="41.22028" lon="-8.563856666666666">
        <ele>138.0</ele>
        <time>2019-07-05T16:52:35Z</time>
      </trkpt>
      <trkpt lat="41.22039" lon="-8.563775">
        <ele>138.0</ele>
        <time>2019-07-05T16:52:37Z</time>
      </trkpt>
      <trkpt lat="41.2205" lon="-8.56367">
        <ele>138.0</ele>
        <time>2019-07-05T16:52:39Z</time>
      </trkpt>
      <trkpt lat="41.220615" lon="-8.563565">
        <ele>137.0</ele>
        <time>2019-07-05T16:52:41Z</time>
      </trkpt>
      <trkpt lat="41.220685" lon="-8.56352">
        <ele>137.0</ele>
        <time>2019-07-05T16:52:42Z</time>
      </trkpt>
      <trkpt lat="41.22075" lon="-8.563485">
        <ele>136.0</ele>
        <time>2019-07-05T16:52:43Z</time>
      </trkpt>
      <trkpt lat="41.22087166666667" lon="-8.56342">
        <ele>135.0</ele>
        <time>2019-07-05T16:52:45Z</time>
      </trkpt>
      <trkpt lat="41.22099" lon="-8.56335">
        <ele>134.0</ele>
        <time>2019-07-05T16:52:47Z</time>
      </trkpt>
      <trkpt lat="41.221088333333334" lon="-8.563275">
        <ele>135.0</ele>
        <time>2019-07-05T16:52:49Z</time>
      </trkpt>
      <trkpt lat="41.221165" lon="-8.563205">
        <ele>136.0</ele>
        <time>2019-07-05T16:52:51Z</time>
      </trkpt>
      <trkpt lat="41.221225" lon="-8.563113333333334">
        <ele>137.0</ele>
        <time>2019-07-05T16:52:53Z</time>
      </trkpt>
      <trkpt lat="41.22128" lon="-8.56302">
        <ele>137.0</ele>
        <time>2019-07-05T16:52:55Z</time>
      </trkpt>
      <trkpt lat="41.221355" lon="-8.56296">
        <ele>138.0</ele>
        <time>2019-07-05T16:52:57Z</time>
      </trkpt>
      <trkpt lat="41.22144" lon="-8.56297">
        <ele>138.0</ele>
        <time>2019-07-05T16:52:59Z</time>
      </trkpt>
      <trkpt lat="41.221495" lon="-8.563065">
        <ele>138.0</ele>
        <time>2019-07-05T16:53:01Z</time>
      </trkpt>
      <trkpt lat="41.22152" lon="-8.563191666666667">
        <ele>137.0</ele>
        <time>2019-07-05T16:53:03Z</time>
      </trkpt>
      <trkpt lat="41.221555" lon="-8.563326666666667">
        <ele>136.0</ele>
        <time>2019-07-05T16:53:05Z</time>
      </trkpt>
      <trkpt lat="41.221635" lon="-8.563446666666668">
        <ele>135.0</ele>
        <time>2019-07-05T16:53:07Z</time>
      </trkpt>
      <trkpt lat="41.221725" lon="-8.563565">
        <ele>135.0</ele>
        <time>2019-07-05T16:53:09Z</time>
      </trkpt>
      <trkpt lat="41.221825" lon="-8.56368">
        <ele>134.0</ele>
        <time>2019-07-05T16:53:11Z</time>
      </trkpt>
      <trkpt lat="41.221936666666664" lon="-8.563781666666667">
        <ele>134.0</ele>
        <time>2019-07-05T16:53:13Z</time>
      </trkpt>
      <trkpt lat="41.222055" lon="-8.56387">
        <ele>134.0</ele>
        <time>2019-07-05T16:53:15Z</time>
      </trkpt>
      <trkpt lat="41.22217" lon="-8.563945">
        <ele>133.0</ele>
        <time>2019-07-05T16:53:17Z</time>
      </trkpt>
      <trkpt lat="41.222285" lon="-8.56402">
        <ele>134.0</ele>
        <time>2019-07-05T16:53:19Z</time>
      </trkpt>
      <trkpt lat="41.222405" lon="-8.564085">
        <ele>134.0</ele>
        <time>2019-07-05T16:53:21Z</time>
      </trkpt>
      <trkpt lat="41.222515" lon="-8.564135">
        <ele>134.0</ele>
        <time>2019-07-05T16:53:23Z</time>
      </trkpt>
      <trkpt lat="41.22263" lon="-8.564175">
        <ele>134.0</ele>
        <time>2019-07-05T16:53:25Z</time>
      </trkpt>
      <trkpt lat="41.222735" lon="-8.564206666666667">
        <ele>134.0</ele>
        <time>2019-07-05T16:53:27Z</time>
      </trkpt>
      <trkpt lat="41.22282666666667" lon="-8.564233333333334">
        <ele>134.0</ele>
        <time>2019-07-05T16:53:29Z</time>
      </trkpt>
      <trkpt lat="41.22291666666667" lon="-8.564265">
        <ele>135.0</ele>
        <time>2019-07-05T16:53:31Z</time>
      </trkpt>
      <trkpt lat="41.223015" lon="-8.564285">
        <ele>135.0</ele>
        <time>2019-07-05T16:53:33Z</time>
      </trkpt>
      <trkpt lat="41.22311" lon="-8.564306666666667">
        <ele>134.0</ele>
        <time>2019-07-05T16:53:35Z</time>
      </trkpt>
      <trkpt lat="41.223205" lon="-8.564335">
        <ele>135.0</ele>
        <time>2019-07-05T16:53:37Z</time>
      </trkpt>
      <trkpt lat="41.2233" lon="-8.56436">
        <ele>135.0</ele>
        <time>2019-07-05T16:53:39Z</time>
      </trkpt>
      <trkpt lat="41.223395" lon="-8.564386666666667">
        <ele>135.0</ele>
        <time>2019-07-05T16:53:41Z</time>
      </trkpt>
      <trkpt lat="41.223485" lon="-8.564415">
        <ele>136.0</ele>
        <time>2019-07-05T16:53:43Z</time>
      </trkpt>
      <trkpt lat="41.223576666666666" lon="-8.564435">
        <ele>136.0</ele>
        <time>2019-07-05T16:53:45Z</time>
      </trkpt>
      <trkpt lat="41.22367" lon="-8.564475">
        <ele>136.0</ele>
        <time>2019-07-05T16:53:47Z</time>
      </trkpt>
      <trkpt lat="41.22376" lon="-8.564505">
        <ele>136.0</ele>
        <time>2019-07-05T16:53:49Z</time>
      </trkpt>
      <trkpt lat="41.22385" lon="-8.564536666666667">
        <ele>136.0</ele>
        <time>2019-07-05T16:53:51Z</time>
      </trkpt>
      <trkpt lat="41.22394" lon="-8.56457">
        <ele>137.0</ele>
        <time>2019-07-05T16:53:53Z</time>
      </trkpt>
      <trkpt lat="41.22403166666667" lon="-8.564605">
        <ele>137.0</ele>
        <time>2019-07-05T16:53:55Z</time>
      </trkpt>
      <trkpt lat="41.22413" lon="-8.56462">
        <ele>137.0</ele>
        <time>2019-07-05T16:53:57Z</time>
      </trkpt>
      <trkpt lat="41.224225" lon="-8.564635">
        <ele>136.0</ele>
        <time>2019-07-05T16:53:59Z</time>
      </trkpt>
      <trkpt lat="41.224315" lon="-8.564668333333334">
        <ele>137.0</ele>
        <time>2019-07-05T16:54:01Z</time>
      </trkpt>
      <trkpt lat="41.22441" lon="-8.564695">
        <ele>137.0</ele>
        <time>2019-07-05T16:54:03Z</time>
      </trkpt>
      <trkpt lat="41.2245" lon="-8.564721666666667">
        <ele>137.0</ele>
        <time>2019-07-05T16:54:05Z</time>
      </trkpt>
      <trkpt lat="41.224595" lon="-8.56475">
        <ele>138.0</ele>
        <time>2019-07-05T16:54:07Z</time>
      </trkpt>
      <trkpt lat="41.22469" lon="-8.56478">
        <ele>138.0</ele>
        <time>2019-07-05T16:54:09Z</time>
      </trkpt>
      <trkpt lat="41.22479" lon="-8.5648">
        <ele>138.0</ele>
        <time>2019-07-05T16:54:11Z</time>
      </trkpt>
      <trkpt lat="41.22488" lon="-8.564835">
        <ele>138.0</ele>
        <time>2019-07-05T16:54:13Z</time>
      </trkpt>
      <trkpt lat="41.224975" lon="-8.564863333333333">
        <ele>139.0</ele>
        <time>2019-07-05T16:54:15Z</time>
      </trkpt>
      <trkpt lat="41.225075" lon="-8.564895">
        <ele>139.0</ele>
        <time>2019-07-05T16:54:17Z</time>
      </trkpt>
      <trkpt lat="41.22517" lon="-8.564916666666667">
        <ele>139.0</ele>
        <time>2019-07-05T16:54:19Z</time>
      </trkpt>
      <trkpt lat="41.225265" lon="-8.564945">
        <ele>139.0</ele>
        <time>2019-07-05T16:54:21Z</time>
      </trkpt>
      <trkpt lat="41.225355" lon="-8.56497">
        <ele>139.0</ele>
        <time>2019-07-05T16:54:23Z</time>
      </trkpt>
      <trkpt lat="41.22544666666667" lon="-8.564993333333334">
        <ele>139.0</ele>
        <time>2019-07-05T16:54:25Z</time>
      </trkpt>
      <trkpt lat="41.22554" lon="-8.56502">
        <ele>139.0</ele>
        <time>2019-07-05T16:54:27Z</time>
      </trkpt>
      <trkpt lat="41.225631666666665" lon="-8.565051666666667">
        <ele>139.0</ele>
        <time>2019-07-05T16:54:29Z</time>
      </trkpt>
      <trkpt lat="41.225725" lon="-8.56508">
        <ele>140.0</ele>
        <time>2019-07-05T16:54:31Z</time>
      </trkpt>
      <trkpt lat="41.22581" lon="-8.565101666666667">
        <ele>140.0</ele>
        <time>2019-07-05T16:54:33Z</time>
      </trkpt>
      <trkpt lat="41.22589" lon="-8.56513">
        <ele>140.0</ele>
        <time>2019-07-05T16:54:35Z</time>
      </trkpt>
      <trkpt lat="41.225971666666666" lon="-8.56516">
        <ele>141.0</ele>
        <time>2019-07-05T16:54:37Z</time>
      </trkpt>
      <trkpt lat="41.22605" lon="-8.56519">
        <ele>141.0</ele>
        <time>2019-07-05T16:54:39Z</time>
      </trkpt>
      <trkpt lat="41.226126666666666" lon="-8.56523">
        <ele>141.0</ele>
        <time>2019-07-05T16:54:41Z</time>
      </trkpt>
      <trkpt lat="41.2262" lon="-8.56527">
        <ele>142.0</ele>
        <time>2019-07-05T16:54:43Z</time>
      </trkpt>
      <trkpt lat="41.22627" lon="-8.56531">
        <ele>142.0</ele>
        <time>2019-07-05T16:54:45Z</time>
      </trkpt>
      <trkpt lat="41.22633" lon="-8.565373333333334">
        <ele>143.0</ele>
        <time>2019-07-05T16:54:47Z</time>
      </trkpt>
      <trkpt lat="41.22640166666667" lon="-8.565428333333333">
        <ele>144.0</ele>
        <time>2019-07-05T16:54:49Z</time>
      </trkpt>
      <trkpt lat="41.226475" lon="-8.565485">
        <ele>144.0</ele>
        <time>2019-07-05T16:54:51Z</time>
      </trkpt>
      <trkpt lat="41.226548333333334" lon="-8.56553">
        <ele>145.0</ele>
        <time>2019-07-05T16:54:53Z</time>
      </trkpt>
      <trkpt lat="41.22663" lon="-8.565585">
        <ele>145.0</ele>
        <time>2019-07-05T16:54:55Z</time>
      </trkpt>
      <trkpt lat="41.226688333333335" lon="-8.565671666666667">
        <ele>145.0</ele>
        <time>2019-07-05T16:54:57Z</time>
      </trkpt>
      <trkpt lat="41.22673" lon="-8.56577">
        <ele>145.0</ele>
        <time>2019-07-05T16:54:59Z</time>
      </trkpt>
      <trkpt lat="41.226735" lon="-8.565875">
        <ele>145.0</ele>
        <time>2019-07-05T16:55:01Z</time>
      </trkpt>
      <trkpt lat="41.226745" lon="-8.566">
        <ele>146.0</ele>
        <time>2019-07-05T16:55:04Z</time>
      </trkpt>
      <trkpt lat="41.2268" lon="-8.566105">
        <ele>146.0</ele>
        <time>2019-07-05T16:55:07Z</time>
      </trkpt>
      <trkpt lat="41.22685" lon="-8.566215">
        <ele>148.0</ele>
        <time>2019-07-05T16:55:10Z</time>
      </trkpt>
      <trkpt lat="41.22690166666667" lon="-8.566318333333333">
        <ele>148.0</ele>
        <time>2019-07-05T16:55:13Z</time>
      </trkpt>
      <trkpt lat="41.226951666666665" lon="-8.56643">
        <ele>148.0</ele>
        <time>2019-07-05T16:55:16Z</time>
      </trkpt>
      <trkpt lat="41.227001666666666" lon="-8.566546666666667">
        <ele>149.0</ele>
        <time>2019-07-05T16:55:19Z</time>
      </trkpt>
      <trkpt lat="41.22706" lon="-8.566655">
        <ele>150.0</ele>
        <time>2019-07-05T16:55:22Z</time>
      </trkpt>
      <trkpt lat="41.22712" lon="-8.566765">
        <ele>150.0</ele>
        <time>2019-07-05T16:55:25Z</time>
      </trkpt>
      <trkpt lat="41.22718166666667" lon="-8.566868333333334">
        <ele>150.0</ele>
        <time>2019-07-05T16:55:28Z</time>
      </trkpt>
      <trkpt lat="41.227245" lon="-8.566978333333333">
        <ele>151.0</ele>
        <time>2019-07-05T16:55:31Z</time>
      </trkpt>
      <trkpt lat="41.227315" lon="-8.56708">
        <ele>151.0</ele>
        <time>2019-07-05T16:55:34Z</time>
      </trkpt>
      <trkpt lat="41.227375" lon="-8.56718">
        <ele>152.0</ele>
        <time>2019-07-05T16:55:37Z</time>
      </trkpt>
      <trkpt lat="41.22744" lon="-8.567286666666666">
        <ele>153.0</ele>
        <time>2019-07-05T16:55:40Z</time>
      </trkpt>
      <trkpt lat="41.227505" lon="-8.567396666666667">
        <ele>153.0</ele>
        <time>2019-07-05T16:55:43Z</time>
      </trkpt>
      <trkpt lat="41.227555" lon="-8.56747">
        <ele>154.0</ele>
        <time>2019-07-05T16:55:45Z</time>
      </trkpt>
      <trkpt lat="41.227601666666665" lon="-8.56754">
        <ele>154.0</ele>
        <time>2019-07-05T16:55:47Z</time>
      </trkpt>
      <trkpt lat="41.22765" lon="-8.56762">
        <ele>155.0</ele>
        <time>2019-07-05T16:55:49Z</time>
      </trkpt>
      <trkpt lat="41.227715" lon="-8.567723333333333">
        <ele>155.0</ele>
        <time>2019-07-05T16:55:52Z</time>
      </trkpt>
      <trkpt lat="41.22776" lon="-8.567805">
        <ele>155.0</ele>
        <time>2019-07-05T16:55:54Z</time>
      </trkpt>
      <trkpt lat="41.227805" lon="-8.567885">
        <ele>156.0</ele>
        <time>2019-07-05T16:55:56Z</time>
      </trkpt>
      <trkpt lat="41.227851666666666" lon="-8.567961666666667">
        <ele>156.0</ele>
        <time>2019-07-05T16:55:58Z</time>
      </trkpt>
      <trkpt lat="41.227905" lon="-8.56804">
        <ele>156.0</ele>
        <time>2019-07-05T16:56:00Z</time>
      </trkpt>
      <trkpt lat="41.227955" lon="-8.568125">
        <ele>156.0</ele>
        <time>2019-07-05T16:56:02Z</time>
      </trkpt>
      <trkpt lat="41.228005" lon="-8.568205">
        <ele>157.0</ele>
        <time>2019-07-05T16:56:04Z</time>
      </trkpt>
      <trkpt lat="41.228053333333335" lon="-8.568286666666667">
        <ele>157.0</ele>
        <time>2019-07-05T16:56:06Z</time>
      </trkpt>
      <trkpt lat="41.22810666666667" lon="-8.56836">
        <ele>157.0</ele>
        <time>2019-07-05T16:56:08Z</time>
      </trkpt>
      <trkpt lat="41.22816" lon="-8.568441666666667">
        <ele>157.0</ele>
        <time>2019-07-05T16:56:10Z</time>
      </trkpt>
      <trkpt lat="41.228206666666665" lon="-8.568513333333334">
        <ele>157.0</ele>
        <time>2019-07-05T16:56:12Z</time>
      </trkpt>
      <trkpt lat="41.228265" lon="-8.568595">
        <ele>158.0</ele>
        <time>2019-07-05T16:56:14Z</time>
      </trkpt>
      <trkpt lat="41.228316666666665" lon="-8.568675">
        <ele>158.0</ele>
        <time>2019-07-05T16:56:16Z</time>
      </trkpt>
      <trkpt lat="41.228375" lon="-8.568756666666667">
        <ele>158.0</ele>
        <time>2019-07-05T16:56:18Z</time>
      </trkpt>
      <trkpt lat="41.228426666666664" lon="-8.568835">
        <ele>158.0</ele>
        <time>2019-07-05T16:56:20Z</time>
      </trkpt>
      <trkpt lat="41.22848" lon="-8.568911666666667">
        <ele>157.0</ele>
        <time>2019-07-05T16:56:22Z</time>
      </trkpt>
      <trkpt lat="41.22853" lon="-8.568986666666667">
        <ele>158.0</ele>
        <time>2019-07-05T16:56:24Z</time>
      </trkpt>
      <trkpt lat="41.22858" lon="-8.569063333333334">
        <ele>158.0</ele>
        <time>2019-07-05T16:56:26Z</time>
      </trkpt>
      <trkpt lat="41.22862666666666" lon="-8.569145">
        <ele>158.0</ele>
        <time>2019-07-05T16:56:28Z</time>
      </trkpt>
      <trkpt lat="41.22868" lon="-8.56923">
        <ele>158.0</ele>
        <time>2019-07-05T16:56:30Z</time>
      </trkpt>
      <trkpt lat="41.22873" lon="-8.569308333333334">
        <ele>159.0</ele>
        <time>2019-07-05T16:56:32Z</time>
      </trkpt>
      <trkpt lat="41.22878" lon="-8.56939">
        <ele>159.0</ele>
        <time>2019-07-05T16:56:34Z</time>
      </trkpt>
      <trkpt lat="41.228831666666665" lon="-8.569463333333333">
        <ele>159.0</ele>
        <time>2019-07-05T16:56:36Z</time>
      </trkpt>
      <trkpt lat="41.22888" lon="-8.569546666666668">
        <ele>159.0</ele>
        <time>2019-07-05T16:56:38Z</time>
      </trkpt>
      <trkpt lat="41.22893" lon="-8.56963">
        <ele>159.0</ele>
        <time>2019-07-05T16:56:40Z</time>
      </trkpt>
      <trkpt lat="41.228986666666664" lon="-8.569708333333333">
        <ele>159.0</ele>
        <time>2019-07-05T16:56:42Z</time>
      </trkpt>
      <trkpt lat="41.229036666666666" lon="-8.569788333333333">
        <ele>159.0</ele>
        <time>2019-07-05T16:56:44Z</time>
      </trkpt>
      <trkpt lat="41.22909" lon="-8.56987">
        <ele>160.0</ele>
        <time>2019-07-05T16:56:46Z</time>
      </trkpt>
      <trkpt lat="41.22914" lon="-8.56995">
        <ele>159.0</ele>
        <time>2019-07-05T16:56:48Z</time>
      </trkpt>
      <trkpt lat="41.229193333333335" lon="-8.570026666666667">
        <ele>159.0</ele>
        <time>2019-07-05T16:56:50Z</time>
      </trkpt>
      <trkpt lat="41.22924666666667" lon="-8.570105">
        <ele>160.0</ele>
        <time>2019-07-05T16:56:52Z</time>
      </trkpt>
      <trkpt lat="41.229295" lon="-8.570191666666666">
        <ele>160.0</ele>
        <time>2019-07-05T16:56:54Z</time>
      </trkpt>
      <trkpt lat="41.22934333333333" lon="-8.570263333333333">
        <ele>160.0</ele>
        <time>2019-07-05T16:56:56Z</time>
      </trkpt>
      <trkpt lat="41.22939" lon="-8.570341666666666">
        <ele>160.0</ele>
        <time>2019-07-05T16:56:58Z</time>
      </trkpt>
      <trkpt lat="41.22946" lon="-8.570446666666667">
        <ele>161.0</ele>
        <time>2019-07-05T16:57:01Z</time>
      </trkpt>
      <trkpt lat="41.229525" lon="-8.570555">
        <ele>161.0</ele>
        <time>2019-07-05T16:57:04Z</time>
      </trkpt>
      <trkpt lat="41.22959" lon="-8.57067">
        <ele>161.0</ele>
        <time>2019-07-05T16:57:07Z</time>
      </trkpt>
      <trkpt lat="41.22964" lon="-8.57074">
        <ele>161.0</ele>
        <time>2019-07-05T16:57:09Z</time>
      </trkpt>
      <trkpt lat="41.229685" lon="-8.57082">
        <ele>162.0</ele>
        <time>2019-07-05T16:57:11Z</time>
      </trkpt>
      <trkpt lat="41.229735" lon="-8.5709">
        <ele>162.0</ele>
        <time>2019-07-05T16:57:13Z</time>
      </trkpt>
      <trkpt lat="41.22978166666667" lon="-8.57098">
        <ele>162.0</ele>
        <time>2019-07-05T16:57:15Z</time>
      </trkpt>
      <trkpt lat="41.22983166666667" lon="-8.571053333333333">
        <ele>162.0</ele>
        <time>2019-07-05T16:57:17Z</time>
      </trkpt>
      <trkpt lat="41.22988" lon="-8.571131666666666">
        <ele>163.0</ele>
        <time>2019-07-05T16:57:19Z</time>
      </trkpt>
      <trkpt lat="41.229925" lon="-8.571206666666667">
        <ele>163.0</ele>
        <time>2019-07-05T16:57:21Z</time>
      </trkpt>
      <trkpt lat="41.229995" lon="-8.57131">
        <ele>163.0</ele>
        <time>2019-07-05T16:57:24Z</time>
      </trkpt>
      <trkpt lat="41.230055" lon="-8.57141">
        <ele>164.0</ele>
        <time>2019-07-05T16:57:27Z</time>
      </trkpt>
      <trkpt lat="41.230115" lon="-8.571508333333334">
        <ele>165.0</ele>
        <time>2019-07-05T16:57:30Z</time>
      </trkpt>
      <trkpt lat="41.230175" lon="-8.571603333333334">
        <ele>166.0</ele>
        <time>2019-07-05T16:57:33Z</time>
      </trkpt>
      <trkpt lat="41.230235" lon="-8.571705">
        <ele>166.0</ele>
        <time>2019-07-05T16:57:36Z</time>
      </trkpt>
      <trkpt lat="41.230295" lon="-8.5718">
        <ele>167.0</ele>
        <time>2019-07-05T16:57:39Z</time>
      </trkpt>
      <trkpt lat="41.230355" lon="-8.5719">
        <ele>168.0</ele>
        <time>2019-07-05T16:57:42Z</time>
      </trkpt>
      <trkpt lat="41.230403333333335" lon="-8.57198">
        <ele>168.0</ele>
        <time>2019-07-05T16:57:45Z</time>
      </trkpt>
      <trkpt lat="41.23046" lon="-8.572065">
        <ele>169.0</ele>
        <time>2019-07-05T16:57:48Z</time>
      </trkpt>
      <trkpt lat="41.23051" lon="-8.57215">
        <ele>169.0</ele>
        <time>2019-07-05T16:57:51Z</time>
      </trkpt>
      <trkpt lat="41.230558333333335" lon="-8.572226666666667">
        <ele>171.0</ele>
        <time>2019-07-05T16:57:54Z</time>
      </trkpt>
      <trkpt lat="41.23061" lon="-8.5723">
        <ele>172.0</ele>
        <time>2019-07-05T16:57:57Z</time>
      </trkpt>
      <trkpt lat="41.230655" lon="-8.572385">
        <ele>173.0</ele>
        <time>2019-07-05T16:58:00Z</time>
      </trkpt>
      <trkpt lat="41.23070666666667" lon="-8.572466666666667">
        <ele>174.0</ele>
        <time>2019-07-05T16:58:03Z</time>
      </trkpt>
      <trkpt lat="41.230755" lon="-8.572545">
        <ele>175.0</ele>
        <time>2019-07-05T16:58:06Z</time>
      </trkpt>
      <trkpt lat="41.2308" lon="-8.57262">
        <ele>175.0</ele>
        <time>2019-07-05T16:58:09Z</time>
      </trkpt>
      <trkpt lat="41.23085666666667" lon="-8.572718333333333">
        <ele>177.0</ele>
        <time>2019-07-05T16:58:13Z</time>
      </trkpt>
      <trkpt lat="41.230916666666666" lon="-8.57281">
        <ele>178.0</ele>
        <time>2019-07-05T16:58:17Z</time>
      </trkpt>
      <trkpt lat="41.23098" lon="-8.572905">
        <ele>178.0</ele>
        <time>2019-07-05T16:58:21Z</time>
      </trkpt>
      <trkpt lat="41.231045" lon="-8.573">
        <ele>179.0</ele>
        <time>2019-07-05T16:58:25Z</time>
      </trkpt>
      <trkpt lat="41.231105" lon="-8.57309">
        <ele>179.0</ele>
        <time>2019-07-05T16:58:29Z</time>
      </trkpt>
      <trkpt lat="41.23117" lon="-8.57318">
        <ele>179.0</ele>
        <time>2019-07-05T16:58:33Z</time>
      </trkpt>
      <trkpt lat="41.231225" lon="-8.57327">
        <ele>179.0</ele>
        <time>2019-07-05T16:58:37Z</time>
      </trkpt>
      <trkpt lat="41.231255" lon="-8.57336">
        <ele>179.0</ele>
        <time>2019-07-05T16:58:40Z</time>
      </trkpt>
      <trkpt lat="41.231305" lon="-8.573441666666668">
        <ele>179.0</ele>
        <time>2019-07-05T16:58:43Z</time>
      </trkpt>
      <trkpt lat="41.231345" lon="-8.573546666666667">
        <ele>180.0</ele>
        <time>2019-07-05T16:58:47Z</time>
      </trkpt>
      <trkpt lat="41.23137666666667" lon="-8.573633333333333">
        <ele>181.0</ele>
        <time>2019-07-05T16:58:50Z</time>
      </trkpt>
      <trkpt lat="41.231405" lon="-8.57372">
        <ele>181.0</ele>
        <time>2019-07-05T16:58:53Z</time>
      </trkpt>
      <trkpt lat="41.23145" lon="-8.573835">
        <ele>181.0</ele>
        <time>2019-07-05T16:58:57Z</time>
      </trkpt>
      <trkpt lat="41.23148166666667" lon="-8.573925">
        <ele>181.0</ele>
        <time>2019-07-05T16:59:00Z</time>
      </trkpt>
      <trkpt lat="41.231521666666666" lon="-8.57404">
        <ele>182.0</ele>
        <time>2019-07-05T16:59:04Z</time>
      </trkpt>
      <trkpt lat="41.231555" lon="-8.574161666666667">
        <ele>183.0</ele>
        <time>2019-07-05T16:59:08Z</time>
      </trkpt>
      <trkpt lat="41.231565" lon="-8.574265">
        <ele>184.0</ele>
        <time>2019-07-05T16:59:11Z</time>
      </trkpt>
      <trkpt lat="41.23157" lon="-8.574395">
        <ele>184.0</ele>
        <time>2019-07-05T16:59:15Z</time>
      </trkpt>
      <trkpt lat="41.23156" lon="-8.574506666666666">
        <ele>183.0</ele>
        <time>2019-07-05T16:59:18Z</time>
      </trkpt>
      <trkpt lat="41.231535" lon="-8.574625">
        <ele>183.0</ele>
        <time>2019-07-05T16:59:21Z</time>
      </trkpt>
      <trkpt lat="41.231495" lon="-8.57474">
        <ele>183.0</ele>
        <time>2019-07-05T16:59:24Z</time>
      </trkpt>
      <trkpt lat="41.23143" lon="-8.57484">
        <ele>183.0</ele>
        <time>2019-07-05T16:59:27Z</time>
      </trkpt>
      <trkpt lat="41.23135166666667" lon="-8.574935">
        <ele>183.0</ele>
        <time>2019-07-05T16:59:30Z</time>
      </trkpt>
      <trkpt lat="41.231296666666665" lon="-8.574993333333333">
        <ele>183.0</ele>
        <time>2019-07-05T16:59:32Z</time>
      </trkpt>
      <trkpt lat="41.23124" lon="-8.575056666666667">
        <ele>183.0</ele>
        <time>2019-07-05T16:59:34Z</time>
      </trkpt>
      <trkpt lat="41.231175" lon="-8.575125">
        <ele>183.0</ele>
        <time>2019-07-05T16:59:36Z</time>
      </trkpt>
      <trkpt lat="41.23111" lon="-8.575195">
        <ele>183.0</ele>
        <time>2019-07-05T16:59:38Z</time>
      </trkpt>
      <trkpt lat="41.231046666666664" lon="-8.575255">
        <ele>183.0</ele>
        <time>2019-07-05T16:59:40Z</time>
      </trkpt>
      <trkpt lat="41.23098" lon="-8.575335">
        <ele>182.0</ele>
        <time>2019-07-05T16:59:42Z</time>
      </trkpt>
      <trkpt lat="41.23092" lon="-8.575411666666668">
        <ele>183.0</ele>
        <time>2019-07-05T16:59:44Z</time>
      </trkpt>
      <trkpt lat="41.230845" lon="-8.57546">
        <ele>182.0</ele>
        <time>2019-07-05T16:59:47Z</time>
      </trkpt>
      <trkpt lat="41.230783333333335" lon="-8.575521666666667">
        <ele>183.0</ele>
        <time>2019-07-05T16:59:50Z</time>
      </trkpt>
      <trkpt lat="41.230725" lon="-8.57559">
        <ele>183.0</ele>
        <time>2019-07-05T16:59:52Z</time>
      </trkpt>
      <trkpt lat="41.23064166666666" lon="-8.57565">
        <ele>183.0</ele>
        <time>2019-07-05T16:59:54Z</time>
      </trkpt>
      <trkpt lat="41.23057" lon="-8.575715">
        <ele>183.0</ele>
        <time>2019-07-05T16:59:56Z</time>
      </trkpt>
      <trkpt lat="41.230495" lon="-8.575791666666667">
        <ele>184.0</ele>
        <time>2019-07-05T16:59:58Z</time>
      </trkpt>
      <trkpt lat="41.23041666666666" lon="-8.575876666666666">
        <ele>184.0</ele>
        <time>2019-07-05T17:00:00Z</time>
      </trkpt>
      <trkpt lat="41.23032666666667" lon="-8.57597">
        <ele>183.0</ele>
        <time>2019-07-05T17:00:02Z</time>
      </trkpt>
      <trkpt lat="41.230235" lon="-8.576056666666666">
        <ele>182.0</ele>
        <time>2019-07-05T17:00:04Z</time>
      </trkpt>
      <trkpt lat="41.23014166666667" lon="-8.576155">
        <ele>182.0</ele>
        <time>2019-07-05T17:00:06Z</time>
      </trkpt>
      <trkpt lat="41.230055" lon="-8.576263333333333">
        <ele>181.0</ele>
        <time>2019-07-05T17:00:08Z</time>
      </trkpt>
      <trkpt lat="41.22997" lon="-8.57639">
        <ele>181.0</ele>
        <time>2019-07-05T17:00:10Z</time>
      </trkpt>
      <trkpt lat="41.229895" lon="-8.576528333333334">
        <ele>180.0</ele>
        <time>2019-07-05T17:00:12Z</time>
      </trkpt>
      <trkpt lat="41.22981166666667" lon="-8.576675">
        <ele>180.0</ele>
        <time>2019-07-05T17:00:14Z</time>
      </trkpt>
      <trkpt lat="41.229735" lon="-8.576831666666667">
        <ele>179.0</ele>
        <time>2019-07-05T17:00:16Z</time>
      </trkpt>
      <trkpt lat="41.229695" lon="-8.576915">
        <ele>179.0</ele>
        <time>2019-07-05T17:00:17Z</time>
      </trkpt>
      <trkpt lat="41.229615" lon="-8.57707">
        <ele>178.0</ele>
        <time>2019-07-05T17:00:19Z</time>
      </trkpt>
      <trkpt lat="41.22953166666667" lon="-8.577225">
        <ele>178.0</ele>
        <time>2019-07-05T17:00:21Z</time>
      </trkpt>
      <trkpt lat="41.229486666666666" lon="-8.577301666666667">
        <ele>178.0</ele>
        <time>2019-07-05T17:00:22Z</time>
      </trkpt>
      <trkpt lat="41.22945" lon="-8.57738">
        <ele>177.0</ele>
        <time>2019-07-05T17:00:23Z</time>
      </trkpt>
      <trkpt lat="41.229405" lon="-8.57747">
        <ele>177.0</ele>
        <time>2019-07-05T17:00:24Z</time>
      </trkpt>
      <trkpt lat="41.229366666666664" lon="-8.57756">
        <ele>177.0</ele>
        <time>2019-07-05T17:00:25Z</time>
      </trkpt>
      <trkpt lat="41.22932" lon="-8.577645">
        <ele>177.0</ele>
        <time>2019-07-05T17:00:26Z</time>
      </trkpt>
      <trkpt lat="41.22928" lon="-8.57773">
        <ele>177.0</ele>
        <time>2019-07-05T17:00:27Z</time>
      </trkpt>
      <trkpt lat="41.22924166666667" lon="-8.577818333333333">
        <ele>176.0</ele>
        <time>2019-07-05T17:00:28Z</time>
      </trkpt>
      <trkpt lat="41.229205" lon="-8.577915">
        <ele>176.0</ele>
        <time>2019-07-05T17:00:29Z</time>
      </trkpt>
      <trkpt lat="41.229165" lon="-8.578003333333333">
        <ele>176.0</ele>
        <time>2019-07-05T17:00:30Z</time>
      </trkpt>
      <trkpt lat="41.229135" lon="-8.578101666666667">
        <ele>176.0</ele>
        <time>2019-07-05T17:00:31Z</time>
      </trkpt>
      <trkpt lat="41.22911" lon="-8.57821">
        <ele>175.0</ele>
        <time>2019-07-05T17:00:32Z</time>
      </trkpt>
      <trkpt lat="41.229081666666666" lon="-8.578305">
        <ele>175.0</ele>
        <time>2019-07-05T17:00:33Z</time>
      </trkpt>
      <trkpt lat="41.22905333333333" lon="-8.578415">
        <ele>175.0</ele>
        <time>2019-07-05T17:00:34Z</time>
      </trkpt>
      <trkpt lat="41.22903" lon="-8.578518333333333">
        <ele>174.0</ele>
        <time>2019-07-05T17:00:35Z</time>
      </trkpt>
      <trkpt lat="41.229005" lon="-8.57862">
        <ele>174.0</ele>
        <time>2019-07-05T17:00:36Z</time>
      </trkpt>
      <trkpt lat="41.228975" lon="-8.57873">
        <ele>174.0</ele>
        <time>2019-07-05T17:00:37Z</time>
      </trkpt>
      <trkpt lat="41.22895" lon="-8.578835">
        <ele>174.0</ele>
        <time>2019-07-05T17:00:38Z</time>
      </trkpt>
      <trkpt lat="41.22892" lon="-8.578938333333333">
        <ele>173.0</ele>
        <time>2019-07-05T17:00:39Z</time>
      </trkpt>
      <trkpt lat="41.228895" lon="-8.57905">
        <ele>173.0</ele>
        <time>2019-07-05T17:00:40Z</time>
      </trkpt>
      <trkpt lat="41.22887" lon="-8.579163333333334">
        <ele>173.0</ele>
        <time>2019-07-05T17:00:41Z</time>
      </trkpt>
      <trkpt lat="41.22884" lon="-8.57927">
        <ele>172.0</ele>
        <time>2019-07-05T17:00:42Z</time>
      </trkpt>
      <trkpt lat="41.228813333333335" lon="-8.57938">
        <ele>172.0</ele>
        <time>2019-07-05T17:00:43Z</time>
      </trkpt>
      <trkpt lat="41.228785" lon="-8.57949">
        <ele>171.0</ele>
        <time>2019-07-05T17:00:44Z</time>
      </trkpt>
      <trkpt lat="41.228755" lon="-8.579596666666667">
        <ele>171.0</ele>
        <time>2019-07-05T17:00:45Z</time>
      </trkpt>
      <trkpt lat="41.22873" lon="-8.579708333333333">
        <ele>171.0</ele>
        <time>2019-07-05T17:00:46Z</time>
      </trkpt>
      <trkpt lat="41.228701666666666" lon="-8.57982">
        <ele>170.0</ele>
        <time>2019-07-05T17:00:47Z</time>
      </trkpt>
      <trkpt lat="41.22867333333333" lon="-8.57993">
        <ele>170.0</ele>
        <time>2019-07-05T17:00:48Z</time>
      </trkpt>
      <trkpt lat="41.22864666666667" lon="-8.580025">
        <ele>170.0</ele>
        <time>2019-07-05T17:00:49Z</time>
      </trkpt>
      <trkpt lat="41.22862" lon="-8.58012">
        <ele>170.0</ele>
        <time>2019-07-05T17:00:50Z</time>
      </trkpt>
      <trkpt lat="41.228588333333335" lon="-8.580206666666667">
        <ele>169.0</ele>
        <time>2019-07-05T17:00:51Z</time>
      </trkpt>
      <trkpt lat="41.22856" lon="-8.580373333333334">
        <ele>169.0</ele>
        <time>2019-07-05T17:00:53Z</time>
      </trkpt>
      <trkpt lat="41.228588333333335" lon="-8.580541666666667">
        <ele>169.0</ele>
        <time>2019-07-05T17:00:55Z</time>
      </trkpt>
      <trkpt lat="41.228605" lon="-8.58071">
        <ele>168.0</ele>
        <time>2019-07-05T17:00:57Z</time>
      </trkpt>
      <trkpt lat="41.22855" lon="-8.58088">
        <ele>168.0</ele>
        <time>2019-07-05T17:00:59Z</time>
      </trkpt>
      <trkpt lat="41.22844666666666" lon="-8.581025">
        <ele>167.0</ele>
        <time>2019-07-05T17:01:01Z</time>
      </trkpt>
      <trkpt lat="41.22842" lon="-8.581125">
        <ele>167.0</ele>
        <time>2019-07-05T17:01:02Z</time>
      </trkpt>
      <trkpt lat="41.2284" lon="-8.581228333333334">
        <ele>166.0</ele>
        <time>2019-07-05T17:01:03Z</time>
      </trkpt>
      <trkpt lat="41.22838" lon="-8.581331666666667">
        <ele>166.0</ele>
        <time>2019-07-05T17:01:04Z</time>
      </trkpt>
      <trkpt lat="41.228366666666666" lon="-8.58144">
        <ele>166.0</ele>
        <time>2019-07-05T17:01:05Z</time>
      </trkpt>
      <trkpt lat="41.228355" lon="-8.581545">
        <ele>165.0</ele>
        <time>2019-07-05T17:01:06Z</time>
      </trkpt>
      <trkpt lat="41.22834" lon="-8.581663333333333">
        <ele>165.0</ele>
        <time>2019-07-05T17:01:07Z</time>
      </trkpt>
      <trkpt lat="41.22833166666667" lon="-8.581785">
        <ele>164.0</ele>
        <time>2019-07-05T17:01:08Z</time>
      </trkpt>
      <trkpt lat="41.22832" lon="-8.5819">
        <ele>163.0</ele>
        <time>2019-07-05T17:01:09Z</time>
      </trkpt>
      <trkpt lat="41.228305" lon="-8.582015">
        <ele>163.0</ele>
        <time>2019-07-05T17:01:10Z</time>
      </trkpt>
      <trkpt lat="41.22829" lon="-8.582136666666667">
        <ele>162.0</ele>
        <time>2019-07-05T17:01:11Z</time>
      </trkpt>
      <trkpt lat="41.228278333333336" lon="-8.58226">
        <ele>161.0</ele>
        <time>2019-07-05T17:01:12Z</time>
      </trkpt>
      <trkpt lat="41.228265" lon="-8.582395">
        <ele>161.0</ele>
        <time>2019-07-05T17:01:13Z</time>
      </trkpt>
      <trkpt lat="41.228245" lon="-8.58253">
        <ele>160.0</ele>
        <time>2019-07-05T17:01:14Z</time>
      </trkpt>
      <trkpt lat="41.22823" lon="-8.582665">
        <ele>160.0</ele>
        <time>2019-07-05T17:01:15Z</time>
      </trkpt>
      <trkpt lat="41.228208333333335" lon="-8.5828">
        <ele>159.0</ele>
        <time>2019-07-05T17:01:16Z</time>
      </trkpt>
      <trkpt lat="41.228195" lon="-8.582935">
        <ele>158.0</ele>
        <time>2019-07-05T17:01:17Z</time>
      </trkpt>
      <trkpt lat="41.22818" lon="-8.583083333333333">
        <ele>157.0</ele>
        <time>2019-07-05T17:01:18Z</time>
      </trkpt>
      <trkpt lat="41.228165" lon="-8.583225">
        <ele>156.0</ele>
        <time>2019-07-05T17:01:19Z</time>
      </trkpt>
      <trkpt lat="41.22815" lon="-8.58337">
        <ele>155.0</ele>
        <time>2019-07-05T17:01:20Z</time>
      </trkpt>
      <trkpt lat="41.22813166666667" lon="-8.583515">
        <ele>155.0</ele>
        <time>2019-07-05T17:01:21Z</time>
      </trkpt>
      <trkpt lat="41.228115" lon="-8.583665">
        <ele>154.0</ele>
        <time>2019-07-05T17:01:22Z</time>
      </trkpt>
      <trkpt lat="41.2281" lon="-8.58381">
        <ele>153.0</ele>
        <time>2019-07-05T17:01:23Z</time>
      </trkpt>
      <trkpt lat="41.228085" lon="-8.583958333333333">
        <ele>152.0</ele>
        <time>2019-07-05T17:01:24Z</time>
      </trkpt>
      <trkpt lat="41.22806666666666" lon="-8.58411">
        <ele>151.0</ele>
        <time>2019-07-05T17:01:25Z</time>
      </trkpt>
      <trkpt lat="41.228048333333334" lon="-8.584255">
        <ele>150.0</ele>
        <time>2019-07-05T17:01:26Z</time>
      </trkpt>
      <trkpt lat="41.228035" lon="-8.584405">
        <ele>149.0</ele>
        <time>2019-07-05T17:01:27Z</time>
      </trkpt>
      <trkpt lat="41.22802" lon="-8.584555">
        <ele>148.0</ele>
        <time>2019-07-05T17:01:28Z</time>
      </trkpt>
      <trkpt lat="41.22801" lon="-8.584705">
        <ele>147.0</ele>
        <time>2019-07-05T17:01:29Z</time>
      </trkpt>
      <trkpt lat="41.22802" lon="-8.584848333333333">
        <ele>146.0</ele>
        <time>2019-07-05T17:01:30Z</time>
      </trkpt>
      <trkpt lat="41.22804" lon="-8.584998333333333">
        <ele>145.0</ele>
        <time>2019-07-05T17:01:31Z</time>
      </trkpt>
      <trkpt lat="41.228071666666665" lon="-8.585145">
        <ele>144.0</ele>
        <time>2019-07-05T17:01:32Z</time>
      </trkpt>
      <trkpt lat="41.228115" lon="-8.585295">
        <ele>143.0</ele>
        <time>2019-07-05T17:01:33Z</time>
      </trkpt>
      <trkpt lat="41.22817" lon="-8.58544">
        <ele>142.0</ele>
        <time>2019-07-05T17:01:34Z</time>
      </trkpt>
      <trkpt lat="41.228231666666666" lon="-8.58556">
        <ele>141.0</ele>
        <time>2019-07-05T17:01:35Z</time>
      </trkpt>
      <trkpt lat="41.228305" lon="-8.585675">
        <ele>141.0</ele>
        <time>2019-07-05T17:01:36Z</time>
      </trkpt>
      <trkpt lat="41.228375" lon="-8.58579">
        <ele>140.0</ele>
        <time>2019-07-05T17:01:37Z</time>
      </trkpt>
      <trkpt lat="41.22844666666666" lon="-8.585895">
        <ele>140.0</ele>
        <time>2019-07-05T17:01:38Z</time>
      </trkpt>
      <trkpt lat="41.22851" lon="-8.586005">
        <ele>140.0</ele>
        <time>2019-07-05T17:01:39Z</time>
      </trkpt>
      <trkpt lat="41.228575" lon="-8.586116666666667">
        <ele>140.0</ele>
        <time>2019-07-05T17:01:40Z</time>
      </trkpt>
      <trkpt lat="41.228635" lon="-8.58623">
        <ele>139.0</ele>
        <time>2019-07-05T17:01:41Z</time>
      </trkpt>
      <trkpt lat="41.228695" lon="-8.586335">
        <ele>138.0</ele>
        <time>2019-07-05T17:01:42Z</time>
      </trkpt>
      <trkpt lat="41.22876" lon="-8.586435">
        <ele>138.0</ele>
        <time>2019-07-05T17:01:43Z</time>
      </trkpt>
      <trkpt lat="41.228825" lon="-8.58653">
        <ele>138.0</ele>
        <time>2019-07-05T17:01:44Z</time>
      </trkpt>
      <trkpt lat="41.228883333333336" lon="-8.586626666666668">
        <ele>137.0</ele>
        <time>2019-07-05T17:01:45Z</time>
      </trkpt>
      <trkpt lat="41.228946666666666" lon="-8.58673">
        <ele>137.0</ele>
        <time>2019-07-05T17:01:46Z</time>
      </trkpt>
      <trkpt lat="41.229016666666666" lon="-8.58683">
        <ele>136.0</ele>
        <time>2019-07-05T17:01:47Z</time>
      </trkpt>
      <trkpt lat="41.229085" lon="-8.58692">
        <ele>136.0</ele>
        <time>2019-07-05T17:01:48Z</time>
      </trkpt>
      <trkpt lat="41.22915" lon="-8.587008333333333">
        <ele>135.0</ele>
        <time>2019-07-05T17:01:49Z</time>
      </trkpt>
      <trkpt lat="41.229205" lon="-8.587103333333333">
        <ele>135.0</ele>
        <time>2019-07-05T17:01:50Z</time>
      </trkpt>
      <trkpt lat="41.229261666666666" lon="-8.587191666666667">
        <ele>135.0</ele>
        <time>2019-07-05T17:01:51Z</time>
      </trkpt>
      <trkpt lat="41.229315" lon="-8.587275">
        <ele>134.0</ele>
        <time>2019-07-05T17:01:52Z</time>
      </trkpt>
      <trkpt lat="41.229395" lon="-8.587415">
        <ele>134.0</ele>
        <time>2019-07-05T17:01:54Z</time>
      </trkpt>
      <trkpt lat="41.229445" lon="-8.5875">
        <ele>134.0</ele>
        <time>2019-07-05T17:01:56Z</time>
      </trkpt>
      <trkpt lat="41.229495" lon="-8.587571666666667">
        <ele>135.0</ele>
        <time>2019-07-05T17:01:59Z</time>
      </trkpt>
      <trkpt lat="41.229555" lon="-8.587665">
        <ele>135.0</ele>
        <time>2019-07-05T17:02:03Z</time>
      </trkpt>
      <trkpt lat="41.229605" lon="-8.58773">
        <ele>133.0</ele>
        <time>2019-07-05T17:02:06Z</time>
      </trkpt>
      <trkpt lat="41.22968" lon="-8.587845">
        <ele>132.0</ele>
        <time>2019-07-05T17:02:09Z</time>
      </trkpt>
      <trkpt lat="41.229755" lon="-8.587945">
        <ele>132.0</ele>
        <time>2019-07-05T17:02:11Z</time>
      </trkpt>
      <trkpt lat="41.229835" lon="-8.588075">
        <ele>131.0</ele>
        <time>2019-07-05T17:02:13Z</time>
      </trkpt>
      <trkpt lat="41.22988" lon="-8.588146666666667">
        <ele>131.0</ele>
        <time>2019-07-05T17:02:14Z</time>
      </trkpt>
      <trkpt lat="41.22993" lon="-8.588225">
        <ele>130.0</ele>
        <time>2019-07-05T17:02:15Z</time>
      </trkpt>
      <trkpt lat="41.229976666666666" lon="-8.5883">
        <ele>130.0</ele>
        <time>2019-07-05T17:02:16Z</time>
      </trkpt>
      <trkpt lat="41.23003" lon="-8.588373333333333">
        <ele>130.0</ele>
        <time>2019-07-05T17:02:17Z</time>
      </trkpt>
      <trkpt lat="41.230085" lon="-8.588463333333333">
        <ele>130.0</ele>
        <time>2019-07-05T17:02:18Z</time>
      </trkpt>
      <trkpt lat="41.23014" lon="-8.588555">
        <ele>130.0</ele>
        <time>2019-07-05T17:02:19Z</time>
      </trkpt>
      <trkpt lat="41.2302" lon="-8.588651666666667">
        <ele>129.0</ele>
        <time>2019-07-05T17:02:20Z</time>
      </trkpt>
      <trkpt lat="41.230255" lon="-8.588745">
        <ele>130.0</ele>
        <time>2019-07-05T17:02:21Z</time>
      </trkpt>
      <trkpt lat="41.230315" lon="-8.588843333333333">
        <ele>130.0</ele>
        <time>2019-07-05T17:02:22Z</time>
      </trkpt>
      <trkpt lat="41.230375" lon="-8.588945">
        <ele>130.0</ele>
        <time>2019-07-05T17:02:23Z</time>
      </trkpt>
      <trkpt lat="41.230435" lon="-8.58904">
        <ele>129.0</ele>
        <time>2019-07-05T17:02:24Z</time>
      </trkpt>
      <trkpt lat="41.2305" lon="-8.58914">
        <ele>129.0</ele>
        <time>2019-07-05T17:02:25Z</time>
      </trkpt>
      <trkpt lat="41.23057" lon="-8.589238333333334">
        <ele>128.0</ele>
        <time>2019-07-05T17:02:26Z</time>
      </trkpt>
      <trkpt lat="41.23063666666667" lon="-8.58935">
        <ele>127.0</ele>
        <time>2019-07-05T17:02:27Z</time>
      </trkpt>
      <trkpt lat="41.230711666666664" lon="-8.589446666666667">
        <ele>126.0</ele>
        <time>2019-07-05T17:02:28Z</time>
      </trkpt>
      <trkpt lat="41.230781666666665" lon="-8.589555">
        <ele>125.0</ele>
        <time>2019-07-05T17:02:29Z</time>
      </trkpt>
      <trkpt lat="41.230851666666666" lon="-8.58966">
        <ele>125.0</ele>
        <time>2019-07-05T17:02:30Z</time>
      </trkpt>
      <trkpt lat="41.23092" lon="-8.589765">
        <ele>125.0</ele>
        <time>2019-07-05T17:02:31Z</time>
      </trkpt>
      <trkpt lat="41.23099666666667" lon="-8.589875">
        <ele>124.0</ele>
        <time>2019-07-05T17:02:32Z</time>
      </trkpt>
      <trkpt lat="41.231065" lon="-8.589985">
        <ele>124.0</ele>
        <time>2019-07-05T17:02:33Z</time>
      </trkpt>
      <trkpt lat="41.23114666666667" lon="-8.590085">
        <ele>122.0</ele>
        <time>2019-07-05T17:02:34Z</time>
      </trkpt>
      <trkpt lat="41.23122166666667" lon="-8.590185">
        <ele>121.0</ele>
        <time>2019-07-05T17:02:35Z</time>
      </trkpt>
      <trkpt lat="41.231295" lon="-8.590295">
        <ele>121.0</ele>
        <time>2019-07-05T17:02:36Z</time>
      </trkpt>
      <trkpt lat="41.23136" lon="-8.590391666666667">
        <ele>120.0</ele>
        <time>2019-07-05T17:02:37Z</time>
      </trkpt>
      <trkpt lat="41.231425" lon="-8.590486666666667">
        <ele>120.0</ele>
        <time>2019-07-05T17:02:38Z</time>
      </trkpt>
      <trkpt lat="41.23149" lon="-8.590585">
        <ele>120.0</ele>
        <time>2019-07-05T17:02:39Z</time>
      </trkpt>
      <trkpt lat="41.23155" lon="-8.590675">
        <ele>120.0</ele>
        <time>2019-07-05T17:02:40Z</time>
      </trkpt>
      <trkpt lat="41.231606666666664" lon="-8.590758333333333">
        <ele>120.0</ele>
        <time>2019-07-05T17:02:41Z</time>
      </trkpt>
      <trkpt lat="41.231665" lon="-8.590845">
        <ele>120.0</ele>
        <time>2019-07-05T17:02:42Z</time>
      </trkpt>
      <trkpt lat="41.23172" lon="-8.59094">
        <ele>120.0</ele>
        <time>2019-07-05T17:02:43Z</time>
      </trkpt>
      <trkpt lat="41.231775" lon="-8.591018333333333">
        <ele>120.0</ele>
        <time>2019-07-05T17:02:44Z</time>
      </trkpt>
      <trkpt lat="41.23182166666667" lon="-8.591105">
        <ele>120.0</ele>
        <time>2019-07-05T17:02:45Z</time>
      </trkpt>
      <trkpt lat="41.231875" lon="-8.591186666666667">
        <ele>120.0</ele>
        <time>2019-07-05T17:02:46Z</time>
      </trkpt>
      <trkpt lat="41.23193" lon="-8.59126">
        <ele>121.0</ele>
        <time>2019-07-05T17:02:47Z</time>
      </trkpt>
      <trkpt lat="41.231975" lon="-8.591335">
        <ele>120.0</ele>
        <time>2019-07-05T17:02:48Z</time>
      </trkpt>
      <trkpt lat="41.23207166666667" lon="-8.591475">
        <ele>121.0</ele>
        <time>2019-07-05T17:02:50Z</time>
      </trkpt>
      <trkpt lat="41.232171666666666" lon="-8.591608333333333">
        <ele>120.0</ele>
        <time>2019-07-05T17:02:52Z</time>
      </trkpt>
      <trkpt lat="41.232265" lon="-8.591756666666667">
        <ele>121.0</ele>
        <time>2019-07-05T17:02:54Z</time>
      </trkpt>
      <trkpt lat="41.232355" lon="-8.591893333333333">
        <ele>122.0</ele>
        <time>2019-07-05T17:02:56Z</time>
      </trkpt>
      <trkpt lat="41.232441666666666" lon="-8.592035">
        <ele>122.0</ele>
        <time>2019-07-05T17:02:58Z</time>
      </trkpt>
      <trkpt lat="41.232526666666665" lon="-8.592165">
        <ele>121.0</ele>
        <time>2019-07-05T17:03:00Z</time>
      </trkpt>
      <trkpt lat="41.232625" lon="-8.592295">
        <ele>119.0</ele>
        <time>2019-07-05T17:03:02Z</time>
      </trkpt>
      <trkpt lat="41.232706666666665" lon="-8.59243">
        <ele>119.0</ele>
        <time>2019-07-05T17:03:04Z</time>
      </trkpt>
      <trkpt lat="41.232795" lon="-8.592555">
        <ele>118.0</ele>
        <time>2019-07-05T17:03:06Z</time>
      </trkpt>
      <trkpt lat="41.23287" lon="-8.592686666666667">
        <ele>119.0</ele>
        <time>2019-07-05T17:03:08Z</time>
      </trkpt>
      <trkpt lat="41.23295" lon="-8.59281">
        <ele>120.0</ele>
        <time>2019-07-05T17:03:10Z</time>
      </trkpt>
      <trkpt lat="41.233035" lon="-8.592931666666667">
        <ele>121.0</ele>
        <time>2019-07-05T17:03:12Z</time>
      </trkpt>
      <trkpt lat="41.233105" lon="-8.59306">
        <ele>121.0</ele>
        <time>2019-07-05T17:03:14Z</time>
      </trkpt>
      <trkpt lat="41.23318" lon="-8.593178333333332">
        <ele>122.0</ele>
        <time>2019-07-05T17:03:16Z</time>
      </trkpt>
      <trkpt lat="41.23326" lon="-8.59329">
        <ele>122.0</ele>
        <time>2019-07-05T17:03:18Z</time>
      </trkpt>
      <trkpt lat="41.233336666666666" lon="-8.593405">
        <ele>122.0</ele>
        <time>2019-07-05T17:03:20Z</time>
      </trkpt>
      <trkpt lat="41.23341" lon="-8.593535">
        <ele>121.0</ele>
        <time>2019-07-05T17:03:22Z</time>
      </trkpt>
      <trkpt lat="41.23348" lon="-8.59366">
        <ele>122.0</ele>
        <time>2019-07-05T17:03:24Z</time>
      </trkpt>
      <trkpt lat="41.23356166666667" lon="-8.59379">
        <ele>121.0</ele>
        <time>2019-07-05T17:03:26Z</time>
      </trkpt>
      <trkpt lat="41.233645" lon="-8.593915">
        <ele>121.0</ele>
        <time>2019-07-05T17:03:28Z</time>
      </trkpt>
      <trkpt lat="41.233725" lon="-8.59405">
        <ele>121.0</ele>
        <time>2019-07-05T17:03:30Z</time>
      </trkpt>
      <trkpt lat="41.233808333333336" lon="-8.594181666666667">
        <ele>121.0</ele>
        <time>2019-07-05T17:03:32Z</time>
      </trkpt>
      <trkpt lat="41.233885" lon="-8.594318333333334">
        <ele>121.0</ele>
        <time>2019-07-05T17:03:34Z</time>
      </trkpt>
      <trkpt lat="41.23396" lon="-8.594456666666666">
        <ele>121.0</ele>
        <time>2019-07-05T17:03:36Z</time>
      </trkpt>
      <trkpt lat="41.234035" lon="-8.594585">
        <ele>120.0</ele>
        <time>2019-07-05T17:03:38Z</time>
      </trkpt>
      <trkpt lat="41.234105" lon="-8.594705">
        <ele>119.0</ele>
        <time>2019-07-05T17:03:40Z</time>
      </trkpt>
      <trkpt lat="41.234155" lon="-8.5948">
        <ele>119.0</ele>
        <time>2019-07-05T17:03:42Z</time>
      </trkpt>
      <trkpt lat="41.234195" lon="-8.5949">
        <ele>120.0</ele>
        <time>2019-07-05T17:03:45Z</time>
      </trkpt>
      <trkpt lat="41.23423" lon="-8.594983333333333">
        <ele>120.0</ele>
        <time>2019-07-05T17:03:48Z</time>
      </trkpt>
      <trkpt lat="41.23428" lon="-8.595005">
        <ele>119.0</ele>
        <time>2019-07-05T17:03:55Z</time>
      </trkpt>
      <trkpt lat="41.234273333333334" lon="-8.59501">
        <ele>118.0</ele>
        <time>2019-07-05T17:03:59Z</time>
      </trkpt>
      <trkpt lat="41.234335" lon="-8.59511">
        <ele>118.0</ele>
        <time>2019-07-05T17:04:31Z</time>
      </trkpt>
      <trkpt lat="41.234385" lon="-8.595205">
        <ele>119.0</ele>
        <time>2019-07-05T17:04:33Z</time>
      </trkpt>
      <trkpt lat="41.234451666666665" lon="-8.59533">
        <ele>118.0</ele>
        <time>2019-07-05T17:04:35Z</time>
      </trkpt>
      <trkpt lat="41.234525" lon="-8.595475">
        <ele>117.0</ele>
        <time>2019-07-05T17:04:37Z</time>
      </trkpt>
      <trkpt lat="41.234565" lon="-8.595553333333333">
        <ele>117.0</ele>
        <time>2019-07-05T17:04:38Z</time>
      </trkpt>
      <trkpt lat="41.23464666666667" lon="-8.595701666666667">
        <ele>116.0</ele>
        <time>2019-07-05T17:04:40Z</time>
      </trkpt>
      <trkpt lat="41.234721666666665" lon="-8.595865">
        <ele>117.0</ele>
        <time>2019-07-05T17:04:42Z</time>
      </trkpt>
      <trkpt lat="41.23477" lon="-8.595943333333333">
        <ele>117.0</ele>
        <time>2019-07-05T17:04:43Z</time>
      </trkpt>
      <trkpt lat="41.234815" lon="-8.596023333333333">
        <ele>117.0</ele>
        <time>2019-07-05T17:04:44Z</time>
      </trkpt>
      <trkpt lat="41.23486" lon="-8.59611">
        <ele>116.0</ele>
        <time>2019-07-05T17:04:45Z</time>
      </trkpt>
      <trkpt lat="41.234901666666666" lon="-8.59619">
        <ele>116.0</ele>
        <time>2019-07-05T17:04:46Z</time>
      </trkpt>
      <trkpt lat="41.234946666666666" lon="-8.59628">
        <ele>116.0</ele>
        <time>2019-07-05T17:04:47Z</time>
      </trkpt>
      <trkpt lat="41.234995" lon="-8.59637">
        <ele>116.0</ele>
        <time>2019-07-05T17:04:48Z</time>
      </trkpt>
      <trkpt lat="41.23504" lon="-8.59645">
        <ele>116.0</ele>
        <time>2019-07-05T17:04:49Z</time>
      </trkpt>
      <trkpt lat="41.23509" lon="-8.596531666666667">
        <ele>115.0</ele>
        <time>2019-07-05T17:04:50Z</time>
      </trkpt>
      <trkpt lat="41.235135" lon="-8.596621666666667">
        <ele>115.0</ele>
        <time>2019-07-05T17:04:51Z</time>
      </trkpt>
      <trkpt lat="41.23518" lon="-8.59671">
        <ele>115.0</ele>
        <time>2019-07-05T17:04:52Z</time>
      </trkpt>
      <trkpt lat="41.235225" lon="-8.596795">
        <ele>114.0</ele>
        <time>2019-07-05T17:04:53Z</time>
      </trkpt>
      <trkpt lat="41.23527" lon="-8.596876666666667">
        <ele>114.0</ele>
        <time>2019-07-05T17:04:54Z</time>
      </trkpt>
      <trkpt lat="41.235315" lon="-8.59696">
        <ele>114.0</ele>
        <time>2019-07-05T17:04:55Z</time>
      </trkpt>
      <trkpt lat="41.23537" lon="-8.597075">
        <ele>115.0</ele>
        <time>2019-07-05T17:04:57Z</time>
      </trkpt>
      <trkpt lat="41.23542" lon="-8.597165">
        <ele>115.0</ele>
        <time>2019-07-05T17:05:00Z</time>
      </trkpt>
      <trkpt lat="41.23547" lon="-8.597245">
        <ele>115.0</ele>
        <time>2019-07-05T17:05:02Z</time>
      </trkpt>
      <trkpt lat="41.23552" lon="-8.597346666666667">
        <ele>115.0</ele>
        <time>2019-07-05T17:05:04Z</time>
      </trkpt>
      <trkpt lat="41.235575" lon="-8.59746">
        <ele>116.0</ele>
        <time>2019-07-05T17:05:06Z</time>
      </trkpt>
      <trkpt lat="41.235635" lon="-8.59758">
        <ele>116.0</ele>
        <time>2019-07-05T17:05:08Z</time>
      </trkpt>
      <trkpt lat="41.235706666666665" lon="-8.5977">
        <ele>116.0</ele>
        <time>2019-07-05T17:05:10Z</time>
      </trkpt>
      <trkpt lat="41.235785" lon="-8.59782">
        <ele>115.0</ele>
        <time>2019-07-05T17:05:12Z</time>
      </trkpt>
      <trkpt lat="41.23586" lon="-8.597933333333334">
        <ele>114.0</ele>
        <time>2019-07-05T17:05:14Z</time>
      </trkpt>
      <trkpt lat="41.235931666666666" lon="-8.598055">
        <ele>114.0</ele>
        <time>2019-07-05T17:05:16Z</time>
      </trkpt>
      <trkpt lat="41.236" lon="-8.598176666666667">
        <ele>113.0</ele>
        <time>2019-07-05T17:05:18Z</time>
      </trkpt>
      <trkpt lat="41.236066666666666" lon="-8.598293333333332">
        <ele>114.0</ele>
        <time>2019-07-05T17:05:20Z</time>
      </trkpt>
      <trkpt lat="41.236135" lon="-8.598411666666667">
        <ele>113.0</ele>
        <time>2019-07-05T17:05:22Z</time>
      </trkpt>
      <trkpt lat="41.2362" lon="-8.59853">
        <ele>113.0</ele>
        <time>2019-07-05T17:05:24Z</time>
      </trkpt>
      <trkpt lat="41.236265" lon="-8.598645">
        <ele>113.0</ele>
        <time>2019-07-05T17:05:26Z</time>
      </trkpt>
      <trkpt lat="41.236325" lon="-8.59876">
        <ele>113.0</ele>
        <time>2019-07-05T17:05:28Z</time>
      </trkpt>
      <trkpt lat="41.236376666666665" lon="-8.59886">
        <ele>113.0</ele>
        <time>2019-07-05T17:05:30Z</time>
      </trkpt>
      <trkpt lat="41.236421666666665" lon="-8.598955">
        <ele>115.0</ele>
        <time>2019-07-05T17:05:32Z</time>
      </trkpt>
      <trkpt lat="41.236495" lon="-8.59903">
        <ele>115.0</ele>
        <time>2019-07-05T17:05:36Z</time>
      </trkpt>
      <trkpt lat="41.236595" lon="-8.59904">
        <ele>114.0</ele>
        <time>2019-07-05T17:05:39Z</time>
      </trkpt>
      <trkpt lat="41.236685" lon="-8.599016666666667">
        <ele>114.0</ele>
        <time>2019-07-05T17:05:41Z</time>
      </trkpt>
      <trkpt lat="41.23679" lon="-8.598975">
        <ele>114.0</ele>
        <time>2019-07-05T17:05:43Z</time>
      </trkpt>
      <trkpt lat="41.236895" lon="-8.598921666666667">
        <ele>113.0</ele>
        <time>2019-07-05T17:05:45Z</time>
      </trkpt>
      <trkpt lat="41.23701" lon="-8.598905">
        <ele>113.0</ele>
        <time>2019-07-05T17:05:47Z</time>
      </trkpt>
      <trkpt lat="41.23711" lon="-8.598955">
        <ele>113.0</ele>
        <time>2019-07-05T17:05:49Z</time>
      </trkpt>
      <trkpt lat="41.23719" lon="-8.599053333333334">
        <ele>114.0</ele>
        <time>2019-07-05T17:05:51Z</time>
      </trkpt>
      <trkpt lat="41.237228333333334" lon="-8.59919">
        <ele>114.0</ele>
        <time>2019-07-05T17:05:53Z</time>
      </trkpt>
      <trkpt lat="41.237226666666665" lon="-8.59933">
        <ele>114.0</ele>
        <time>2019-07-05T17:05:55Z</time>
      </trkpt>
      <trkpt lat="41.237185" lon="-8.599465">
        <ele>114.0</ele>
        <time>2019-07-05T17:05:57Z</time>
      </trkpt>
      <trkpt lat="41.23711" lon="-8.59956">
        <ele>114.0</ele>
        <time>2019-07-05T17:05:59Z</time>
      </trkpt>
      <trkpt lat="41.23702" lon="-8.59962">
        <ele>114.0</ele>
        <time>2019-07-05T17:06:01Z</time>
      </trkpt>
      <trkpt lat="41.23693" lon="-8.59967">
        <ele>115.0</ele>
        <time>2019-07-05T17:06:03Z</time>
      </trkpt>
      <trkpt lat="41.23688666666666" lon="-8.599785">
        <ele>115.0</ele>
        <time>2019-07-05T17:06:05Z</time>
      </trkpt>
      <trkpt lat="41.2369" lon="-8.599885">
        <ele>115.0</ele>
        <time>2019-07-05T17:06:07Z</time>
      </trkpt>
      <trkpt lat="41.23694" lon="-8.59997">
        <ele>116.0</ele>
        <time>2019-07-05T17:06:09Z</time>
      </trkpt>
      <trkpt lat="41.236985" lon="-8.600055">
        <ele>116.0</ele>
        <time>2019-07-05T17:06:11Z</time>
      </trkpt>
      <trkpt lat="41.23703" lon="-8.600145">
        <ele>116.0</ele>
        <time>2019-07-05T17:06:13Z</time>
      </trkpt>
      <trkpt lat="41.237071666666665" lon="-8.600225">
        <ele>117.0</ele>
        <time>2019-07-05T17:06:15Z</time>
      </trkpt>
      <trkpt lat="41.23713166666667" lon="-8.600336666666667">
        <ele>117.0</ele>
        <time>2019-07-05T17:06:18Z</time>
      </trkpt>
      <trkpt lat="41.23719" lon="-8.600441666666667">
        <ele>119.0</ele>
        <time>2019-07-05T17:06:21Z</time>
      </trkpt>
      <trkpt lat="41.23724166666667" lon="-8.600545">
        <ele>120.0</ele>
        <time>2019-07-05T17:06:24Z</time>
      </trkpt>
      <trkpt lat="41.23729" lon="-8.600655">
        <ele>120.0</ele>
        <time>2019-07-05T17:06:27Z</time>
      </trkpt>
      <trkpt lat="41.237335" lon="-8.600775">
        <ele>121.0</ele>
        <time>2019-07-05T17:06:30Z</time>
      </trkpt>
      <trkpt lat="41.23736666666667" lon="-8.600893333333334">
        <ele>121.0</ele>
        <time>2019-07-05T17:06:33Z</time>
      </trkpt>
      <trkpt lat="41.23739" lon="-8.601015">
        <ele>121.0</ele>
        <time>2019-07-05T17:06:36Z</time>
      </trkpt>
      <trkpt lat="41.2374" lon="-8.60115">
        <ele>122.0</ele>
        <time>2019-07-05T17:06:39Z</time>
      </trkpt>
      <trkpt lat="41.237395" lon="-8.601268333333334">
        <ele>124.0</ele>
        <time>2019-07-05T17:06:42Z</time>
      </trkpt>
      <trkpt lat="41.23737666666667" lon="-8.601395">
        <ele>125.0</ele>
        <time>2019-07-05T17:06:45Z</time>
      </trkpt>
      <trkpt lat="41.23736666666667" lon="-8.601498333333334">
        <ele>125.0</ele>
        <time>2019-07-05T17:06:48Z</time>
      </trkpt>
      <trkpt lat="41.237365" lon="-8.601628333333334">
        <ele>126.0</ele>
        <time>2019-07-05T17:06:51Z</time>
      </trkpt>
      <trkpt lat="41.237345" lon="-8.601765">
        <ele>127.0</ele>
        <time>2019-07-05T17:06:54Z</time>
      </trkpt>
      <trkpt lat="41.237345" lon="-8.601896666666667">
        <ele>127.0</ele>
        <time>2019-07-05T17:06:57Z</time>
      </trkpt>
      <trkpt lat="41.23733" lon="-8.602025">
        <ele>128.0</ele>
        <time>2019-07-05T17:07:00Z</time>
      </trkpt>
      <trkpt lat="41.237325" lon="-8.602135">
        <ele>127.0</ele>
        <time>2019-07-05T17:07:03Z</time>
      </trkpt>
      <trkpt lat="41.23732" lon="-8.60225">
        <ele>127.0</ele>
        <time>2019-07-05T17:07:06Z</time>
      </trkpt>
      <trkpt lat="41.23731333333333" lon="-8.602365">
        <ele>127.0</ele>
        <time>2019-07-05T17:07:09Z</time>
      </trkpt>
      <trkpt lat="41.237305" lon="-8.602483333333334">
        <ele>127.0</ele>
        <time>2019-07-05T17:07:12Z</time>
      </trkpt>
      <trkpt lat="41.23729" lon="-8.60259">
        <ele>129.0</ele>
        <time>2019-07-05T17:07:15Z</time>
      </trkpt>
      <trkpt lat="41.237285" lon="-8.602705">
        <ele>129.0</ele>
        <time>2019-07-05T17:07:18Z</time>
      </trkpt>
      <trkpt lat="41.237275" lon="-8.60282">
        <ele>129.0</ele>
        <time>2019-07-05T17:07:21Z</time>
      </trkpt>
      <trkpt lat="41.23727" lon="-8.602925">
        <ele>130.0</ele>
        <time>2019-07-05T17:07:24Z</time>
      </trkpt>
      <trkpt lat="41.237265" lon="-8.603045">
        <ele>131.0</ele>
        <time>2019-07-05T17:07:27Z</time>
      </trkpt>
      <trkpt lat="41.23726" lon="-8.603161666666667">
        <ele>132.0</ele>
        <time>2019-07-05T17:07:30Z</time>
      </trkpt>
      <trkpt lat="41.23725" lon="-8.603278333333334">
        <ele>133.0</ele>
        <time>2019-07-05T17:07:33Z</time>
      </trkpt>
      <trkpt lat="41.237235" lon="-8.603393333333333">
        <ele>133.0</ele>
        <time>2019-07-05T17:07:36Z</time>
      </trkpt>
      <trkpt lat="41.23722" lon="-8.60351">
        <ele>135.0</ele>
        <time>2019-07-05T17:07:39Z</time>
      </trkpt>
      <trkpt lat="41.23721" lon="-8.603616666666667">
        <ele>135.0</ele>
        <time>2019-07-05T17:07:42Z</time>
      </trkpt>
      <trkpt lat="41.2372" lon="-8.603735">
        <ele>136.0</ele>
        <time>2019-07-05T17:07:45Z</time>
      </trkpt>
      <trkpt lat="41.23719" lon="-8.603855">
        <ele>137.0</ele>
        <time>2019-07-05T17:07:48Z</time>
      </trkpt>
      <trkpt lat="41.23717666666667" lon="-8.603975">
        <ele>137.0</ele>
        <time>2019-07-05T17:07:51Z</time>
      </trkpt>
      <trkpt lat="41.23717" lon="-8.604091666666667">
        <ele>137.0</ele>
        <time>2019-07-05T17:07:54Z</time>
      </trkpt>
      <trkpt lat="41.23716" lon="-8.60422">
        <ele>137.0</ele>
        <time>2019-07-05T17:07:57Z</time>
      </trkpt>
      <trkpt lat="41.237156666666664" lon="-8.60434">
        <ele>137.0</ele>
        <time>2019-07-05T17:08:00Z</time>
      </trkpt>
      <trkpt lat="41.23715" lon="-8.60446">
        <ele>137.0</ele>
        <time>2019-07-05T17:08:03Z</time>
      </trkpt>
      <trkpt lat="41.23712" lon="-8.604563333333333">
        <ele>137.0</ele>
        <time>2019-07-05T17:08:06Z</time>
      </trkpt>
      <trkpt lat="41.237105" lon="-8.60469">
        <ele>137.0</ele>
        <time>2019-07-05T17:08:09Z</time>
      </trkpt>
      <trkpt lat="41.237115" lon="-8.604793333333333">
        <ele>137.0</ele>
        <time>2019-07-05T17:08:11Z</time>
      </trkpt>
      <trkpt lat="41.23712" lon="-8.60492">
        <ele>137.0</ele>
        <time>2019-07-05T17:08:13Z</time>
      </trkpt>
      <trkpt lat="41.23711" lon="-8.605045">
        <ele>138.0</ele>
        <time>2019-07-05T17:08:15Z</time>
      </trkpt>
      <trkpt lat="41.2371" lon="-8.60515">
        <ele>139.0</ele>
        <time>2019-07-05T17:08:17Z</time>
      </trkpt>
      <trkpt lat="41.23709" lon="-8.605255">
        <ele>140.0</ele>
        <time>2019-07-05T17:08:19Z</time>
      </trkpt>
      <trkpt lat="41.23708666666667" lon="-8.605366666666667">
        <ele>141.0</ele>
        <time>2019-07-05T17:08:21Z</time>
      </trkpt>
      <trkpt lat="41.237105" lon="-8.605491666666667">
        <ele>141.0</ele>
        <time>2019-07-05T17:08:23Z</time>
      </trkpt>
      <trkpt lat="41.237105" lon="-8.60561">
        <ele>140.0</ele>
        <time>2019-07-05T17:08:25Z</time>
      </trkpt>
      <trkpt lat="41.2371" lon="-8.605735">
        <ele>140.0</ele>
        <time>2019-07-05T17:08:27Z</time>
      </trkpt>
      <trkpt lat="41.23709" lon="-8.605856666666666">
        <ele>140.0</ele>
        <time>2019-07-05T17:08:29Z</time>
      </trkpt>
      <trkpt lat="41.23708" lon="-8.605975">
        <ele>139.0</ele>
        <time>2019-07-05T17:08:31Z</time>
      </trkpt>
      <trkpt lat="41.23707" lon="-8.606095">
        <ele>139.0</ele>
        <time>2019-07-05T17:08:33Z</time>
      </trkpt>
      <trkpt lat="41.237065" lon="-8.606211666666667">
        <ele>139.0</ele>
        <time>2019-07-05T17:08:35Z</time>
      </trkpt>
      <trkpt lat="41.237055" lon="-8.606325">
        <ele>139.0</ele>
        <time>2019-07-05T17:08:37Z</time>
      </trkpt>
      <trkpt lat="41.23705" lon="-8.606438333333333">
        <ele>140.0</ele>
        <time>2019-07-05T17:08:39Z</time>
      </trkpt>
      <trkpt lat="41.23704" lon="-8.60655">
        <ele>140.0</ele>
        <time>2019-07-05T17:08:41Z</time>
      </trkpt>
      <trkpt lat="41.23703" lon="-8.60666">
        <ele>140.0</ele>
        <time>2019-07-05T17:08:43Z</time>
      </trkpt>
      <trkpt lat="41.23702" lon="-8.60678">
        <ele>140.0</ele>
        <time>2019-07-05T17:08:45Z</time>
      </trkpt>
      <trkpt lat="41.23701" lon="-8.606905">
        <ele>140.0</ele>
        <time>2019-07-05T17:08:47Z</time>
      </trkpt>
      <trkpt lat="41.237001666666664" lon="-8.607015">
        <ele>140.0</ele>
        <time>2019-07-05T17:08:49Z</time>
      </trkpt>
      <trkpt lat="41.23699666666667" lon="-8.607123333333334">
        <ele>140.0</ele>
        <time>2019-07-05T17:08:52Z</time>
      </trkpt>
      <trkpt lat="41.236985" lon="-8.607238333333333">
        <ele>139.0</ele>
        <time>2019-07-05T17:08:55Z</time>
      </trkpt>
      <trkpt lat="41.236975" lon="-8.607348333333332">
        <ele>139.0</ele>
        <time>2019-07-05T17:08:57Z</time>
      </trkpt>
      <trkpt lat="41.236961666666666" lon="-8.607475">
        <ele>138.0</ele>
        <time>2019-07-05T17:08:59Z</time>
      </trkpt>
      <trkpt lat="41.236955" lon="-8.60761">
        <ele>138.0</ele>
        <time>2019-07-05T17:09:01Z</time>
      </trkpt>
      <trkpt lat="41.23694" lon="-8.607745">
        <ele>138.0</ele>
        <time>2019-07-05T17:09:03Z</time>
      </trkpt>
      <trkpt lat="41.236925" lon="-8.607895">
        <ele>138.0</ele>
        <time>2019-07-05T17:09:05Z</time>
      </trkpt>
      <trkpt lat="41.236911666666664" lon="-8.608045">
        <ele>137.0</ele>
        <time>2019-07-05T17:09:07Z</time>
      </trkpt>
      <trkpt lat="41.236895" lon="-8.608203333333334">
        <ele>137.0</ele>
        <time>2019-07-05T17:09:09Z</time>
      </trkpt>
      <trkpt lat="41.23688" lon="-8.608365">
        <ele>137.0</ele>
        <time>2019-07-05T17:09:11Z</time>
      </trkpt>
      <trkpt lat="41.236865" lon="-8.608515">
        <ele>137.0</ele>
        <time>2019-07-05T17:09:13Z</time>
      </trkpt>
      <trkpt lat="41.23683666666667" lon="-8.608665">
        <ele>137.0</ele>
        <time>2019-07-05T17:09:15Z</time>
      </trkpt>
      <trkpt lat="41.236825" lon="-8.608788333333333">
        <ele>136.0</ele>
        <time>2019-07-05T17:09:17Z</time>
      </trkpt>
      <trkpt lat="41.23684166666666" lon="-8.608881666666667">
        <ele>135.0</ele>
        <time>2019-07-05T17:09:19Z</time>
      </trkpt>
      <trkpt lat="41.23684166666666" lon="-8.608978333333333">
        <ele>135.0</ele>
        <time>2019-07-05T17:09:22Z</time>
      </trkpt>
      <trkpt lat="41.23684166666666" lon="-8.609065">
        <ele>135.0</ele>
        <time>2019-07-05T17:09:29Z</time>
      </trkpt>
      <trkpt lat="41.236848333333334" lon="-8.609075">
        <ele>135.0</ele>
        <time>2019-07-05T17:09:36Z</time>
      </trkpt>
      <trkpt lat="41.236848333333334" lon="-8.609076666666667">
        <ele>135.0</ele>
        <time>2019-07-05T17:09:40Z</time>
      </trkpt>
      <trkpt lat="41.23684" lon="-8.609185">
        <ele>135.0</ele>
        <time>2019-07-05T17:10:15Z</time>
      </trkpt>
      <trkpt lat="41.23683166666667" lon="-8.609283333333334">
        <ele>135.0</ele>
        <time>2019-07-05T17:10:17Z</time>
      </trkpt>
      <trkpt lat="41.23682" lon="-8.60941">
        <ele>135.0</ele>
        <time>2019-07-05T17:10:19Z</time>
      </trkpt>
      <trkpt lat="41.23681" lon="-8.609545">
        <ele>135.0</ele>
        <time>2019-07-05T17:10:21Z</time>
      </trkpt>
      <trkpt lat="41.236795" lon="-8.609681666666667">
        <ele>135.0</ele>
        <time>2019-07-05T17:10:23Z</time>
      </trkpt>
      <trkpt lat="41.23678" lon="-8.609805">
        <ele>136.0</ele>
        <time>2019-07-05T17:10:25Z</time>
      </trkpt>
      <trkpt lat="41.236775" lon="-8.60993">
        <ele>136.0</ele>
        <time>2019-07-05T17:10:27Z</time>
      </trkpt>
      <trkpt lat="41.236756666666665" lon="-8.610041666666667">
        <ele>138.0</ele>
        <time>2019-07-05T17:10:29Z</time>
      </trkpt>
      <trkpt lat="41.23674666666667" lon="-8.610165">
        <ele>138.0</ele>
        <time>2019-07-05T17:10:31Z</time>
      </trkpt>
      <trkpt lat="41.23674" lon="-8.61026">
        <ele>139.0</ele>
        <time>2019-07-05T17:10:33Z</time>
      </trkpt>
      <trkpt lat="41.23673" lon="-8.610401666666666">
        <ele>139.0</ele>
        <time>2019-07-05T17:10:36Z</time>
      </trkpt>
      <trkpt lat="41.23672" lon="-8.61054">
        <ele>140.0</ele>
        <time>2019-07-05T17:10:39Z</time>
      </trkpt>
      <trkpt lat="41.23671" lon="-8.61064">
        <ele>140.0</ele>
        <time>2019-07-05T17:10:41Z</time>
      </trkpt>
      <trkpt lat="41.23670166666667" lon="-8.610735">
        <ele>141.0</ele>
        <time>2019-07-05T17:10:43Z</time>
      </trkpt>
      <trkpt lat="41.236693333333335" lon="-8.610838333333334">
        <ele>141.0</ele>
        <time>2019-07-05T17:10:45Z</time>
      </trkpt>
      <trkpt lat="41.23668166666667" lon="-8.61094">
        <ele>141.0</ele>
        <time>2019-07-05T17:10:47Z</time>
      </trkpt>
      <trkpt lat="41.23668" lon="-8.61106">
        <ele>142.0</ele>
        <time>2019-07-05T17:10:50Z</time>
      </trkpt>
      <trkpt lat="41.236665" lon="-8.611193333333333">
        <ele>143.0</ele>
        <time>2019-07-05T17:10:53Z</time>
      </trkpt>
      <trkpt lat="41.23666" lon="-8.61133">
        <ele>144.0</ele>
        <time>2019-07-05T17:10:56Z</time>
      </trkpt>
      <trkpt lat="41.23664" lon="-8.611465">
        <ele>145.0</ele>
        <time>2019-07-05T17:10:59Z</time>
      </trkpt>
      <trkpt lat="41.23663" lon="-8.611605">
        <ele>145.0</ele>
        <time>2019-07-05T17:11:02Z</time>
      </trkpt>
      <trkpt lat="41.236623333333334" lon="-8.611728333333334">
        <ele>146.0</ele>
        <time>2019-07-05T17:11:05Z</time>
      </trkpt>
      <trkpt lat="41.236621666666665" lon="-8.611855">
        <ele>147.0</ele>
        <time>2019-07-05T17:11:08Z</time>
      </trkpt>
      <trkpt lat="41.236615" lon="-8.61197">
        <ele>148.0</ele>
        <time>2019-07-05T17:11:11Z</time>
      </trkpt>
      <trkpt lat="41.236605" lon="-8.612066666666667">
        <ele>149.0</ele>
        <time>2019-07-05T17:11:14Z</time>
      </trkpt>
      <trkpt lat="41.236595" lon="-8.61217">
        <ele>150.0</ele>
        <time>2019-07-05T17:11:18Z</time>
      </trkpt>
      <trkpt lat="41.236615" lon="-8.612265">
        <ele>149.0</ele>
        <time>2019-07-05T17:11:20Z</time>
      </trkpt>
      <trkpt lat="41.23661" lon="-8.61238">
        <ele>150.0</ele>
        <time>2019-07-05T17:11:23Z</time>
      </trkpt>
      <trkpt lat="41.236595" lon="-8.612495">
        <ele>150.0</ele>
        <time>2019-07-05T17:11:26Z</time>
      </trkpt>
      <trkpt lat="41.236580000000004" lon="-8.612605">
        <ele>151.0</ele>
        <time>2019-07-05T17:11:29Z</time>
      </trkpt>
      <trkpt lat="41.236580000000004" lon="-8.612745">
        <ele>152.0</ele>
        <time>2019-07-05T17:11:33Z</time>
      </trkpt>
      <trkpt lat="41.236555" lon="-8.612868333333333">
        <ele>151.0</ele>
        <time>2019-07-05T17:11:36Z</time>
      </trkpt>
      <trkpt lat="41.236545" lon="-8.612965">
        <ele>150.0</ele>
        <time>2019-07-05T17:11:38Z</time>
      </trkpt>
      <trkpt lat="41.236535" lon="-8.613076666666666">
        <ele>149.0</ele>
        <time>2019-07-05T17:11:40Z</time>
      </trkpt>
      <trkpt lat="41.23652" lon="-8.613188333333333">
        <ele>149.0</ele>
        <time>2019-07-05T17:11:42Z</time>
      </trkpt>
      <trkpt lat="41.236505" lon="-8.61331">
        <ele>148.0</ele>
        <time>2019-07-05T17:11:44Z</time>
      </trkpt>
      <trkpt lat="41.236495" lon="-8.613431666666667">
        <ele>148.0</ele>
        <time>2019-07-05T17:11:46Z</time>
      </trkpt>
      <trkpt lat="41.23648333333333" lon="-8.613561666666667">
        <ele>147.0</ele>
        <time>2019-07-05T17:11:48Z</time>
      </trkpt>
      <trkpt lat="41.23648" lon="-8.61369">
        <ele>147.0</ele>
        <time>2019-07-05T17:11:50Z</time>
      </trkpt>
      <trkpt lat="41.23647666666667" lon="-8.613831666666666">
        <ele>148.0</ele>
        <time>2019-07-05T17:11:52Z</time>
      </trkpt>
      <trkpt lat="41.23647166666667" lon="-8.613975">
        <ele>148.0</ele>
        <time>2019-07-05T17:11:54Z</time>
      </trkpt>
      <trkpt lat="41.236466666666665" lon="-8.614125">
        <ele>148.0</ele>
        <time>2019-07-05T17:11:56Z</time>
      </trkpt>
      <trkpt lat="41.236455" lon="-8.61426">
        <ele>147.0</ele>
        <time>2019-07-05T17:11:58Z</time>
      </trkpt>
      <trkpt lat="41.236445" lon="-8.61439">
        <ele>148.0</ele>
        <time>2019-07-05T17:12:00Z</time>
      </trkpt>
      <trkpt lat="41.23645" lon="-8.614515">
        <ele>149.0</ele>
        <time>2019-07-05T17:12:02Z</time>
      </trkpt>
      <trkpt lat="41.2365" lon="-8.614646666666667">
        <ele>149.0</ele>
        <time>2019-07-05T17:12:04Z</time>
      </trkpt>
      <trkpt lat="41.236575" lon="-8.614755">
        <ele>148.0</ele>
        <time>2019-07-05T17:12:06Z</time>
      </trkpt>
      <trkpt lat="41.236605" lon="-8.61487">
        <ele>148.0</ele>
        <time>2019-07-05T17:12:08Z</time>
      </trkpt>
      <trkpt lat="41.236615" lon="-8.614995">
        <ele>148.0</ele>
        <time>2019-07-05T17:12:10Z</time>
      </trkpt>
      <trkpt lat="41.236645" lon="-8.615106666666666">
        <ele>148.0</ele>
        <time>2019-07-05T17:12:12Z</time>
      </trkpt>
      <trkpt lat="41.236693333333335" lon="-8.615211666666667">
        <ele>148.0</ele>
        <time>2019-07-05T17:12:14Z</time>
      </trkpt>
      <trkpt lat="41.23674" lon="-8.61533">
        <ele>149.0</ele>
        <time>2019-07-05T17:12:16Z</time>
      </trkpt>
      <trkpt lat="41.23679" lon="-8.615458333333333">
        <ele>150.0</ele>
        <time>2019-07-05T17:12:18Z</time>
      </trkpt>
      <trkpt lat="41.236846666666665" lon="-8.615581666666667">
        <ele>150.0</ele>
        <time>2019-07-05T17:12:20Z</time>
      </trkpt>
      <trkpt lat="41.23690166666667" lon="-8.6157">
        <ele>151.0</ele>
        <time>2019-07-05T17:12:22Z</time>
      </trkpt>
      <trkpt lat="41.23696" lon="-8.615795">
        <ele>151.0</ele>
        <time>2019-07-05T17:12:24Z</time>
      </trkpt>
      <trkpt lat="41.237025" lon="-8.615885">
        <ele>150.0</ele>
        <time>2019-07-05T17:12:26Z</time>
      </trkpt>
      <trkpt lat="41.2371" lon="-8.61598">
        <ele>150.0</ele>
        <time>2019-07-05T17:12:28Z</time>
      </trkpt>
      <trkpt lat="41.23715" lon="-8.616095">
        <ele>150.0</ele>
        <time>2019-07-05T17:12:30Z</time>
      </trkpt>
      <trkpt lat="41.237205" lon="-8.616198333333333">
        <ele>151.0</ele>
        <time>2019-07-05T17:12:32Z</time>
      </trkpt>
      <trkpt lat="41.237265" lon="-8.616311666666666">
        <ele>150.0</ele>
        <time>2019-07-05T17:12:34Z</time>
      </trkpt>
      <trkpt lat="41.237321666666666" lon="-8.616415">
        <ele>150.0</ele>
        <time>2019-07-05T17:12:36Z</time>
      </trkpt>
      <trkpt lat="41.237375" lon="-8.61653">
        <ele>151.0</ele>
        <time>2019-07-05T17:12:38Z</time>
      </trkpt>
      <trkpt lat="41.23743" lon="-8.616631666666667">
        <ele>151.0</ele>
        <time>2019-07-05T17:12:40Z</time>
      </trkpt>
      <trkpt lat="41.23750666666667" lon="-8.616725">
        <ele>150.0</ele>
        <time>2019-07-05T17:12:42Z</time>
      </trkpt>
      <trkpt lat="41.237565" lon="-8.61683">
        <ele>150.0</ele>
        <time>2019-07-05T17:12:44Z</time>
      </trkpt>
      <trkpt lat="41.23762" lon="-8.61693">
        <ele>151.0</ele>
        <time>2019-07-05T17:12:46Z</time>
      </trkpt>
      <trkpt lat="41.237671666666664" lon="-8.617031666666668">
        <ele>151.0</ele>
        <time>2019-07-05T17:12:48Z</time>
      </trkpt>
      <trkpt lat="41.237725" lon="-8.61712">
        <ele>151.0</ele>
        <time>2019-07-05T17:12:50Z</time>
      </trkpt>
      <trkpt lat="41.23779" lon="-8.617211666666666">
        <ele>150.0</ele>
        <time>2019-07-05T17:12:52Z</time>
      </trkpt>
      <trkpt lat="41.237845" lon="-8.617301666666666">
        <ele>150.0</ele>
        <time>2019-07-05T17:12:54Z</time>
      </trkpt>
      <trkpt lat="41.237896666666664" lon="-8.6174">
        <ele>150.0</ele>
        <time>2019-07-05T17:12:56Z</time>
      </trkpt>
      <trkpt lat="41.23795166666667" lon="-8.617495">
        <ele>150.0</ele>
        <time>2019-07-05T17:12:58Z</time>
      </trkpt>
      <trkpt lat="41.238005" lon="-8.61759">
        <ele>151.0</ele>
        <time>2019-07-05T17:13:00Z</time>
      </trkpt>
      <trkpt lat="41.238058333333335" lon="-8.617691666666667">
        <ele>151.0</ele>
        <time>2019-07-05T17:13:02Z</time>
      </trkpt>
      <trkpt lat="41.23812" lon="-8.617786666666667">
        <ele>151.0</ele>
        <time>2019-07-05T17:13:04Z</time>
      </trkpt>
      <trkpt lat="41.23817" lon="-8.617888333333333">
        <ele>150.0</ele>
        <time>2019-07-05T17:13:06Z</time>
      </trkpt>
      <trkpt lat="41.23823" lon="-8.617976666666667">
        <ele>150.0</ele>
        <time>2019-07-05T17:13:08Z</time>
      </trkpt>
      <trkpt lat="41.238276666666664" lon="-8.618071666666667">
        <ele>151.0</ele>
        <time>2019-07-05T17:13:10Z</time>
      </trkpt>
      <trkpt lat="41.23833" lon="-8.61818">
        <ele>152.0</ele>
        <time>2019-07-05T17:13:12Z</time>
      </trkpt>
      <trkpt lat="41.238385" lon="-8.618275">
        <ele>151.0</ele>
        <time>2019-07-05T17:13:14Z</time>
      </trkpt>
      <trkpt lat="41.238436666666665" lon="-8.61837">
        <ele>152.0</ele>
        <time>2019-07-05T17:13:16Z</time>
      </trkpt>
      <trkpt lat="41.23849" lon="-8.618465">
        <ele>152.0</ele>
        <time>2019-07-05T17:13:18Z</time>
      </trkpt>
      <trkpt lat="41.23854" lon="-8.61856">
        <ele>152.0</ele>
        <time>2019-07-05T17:13:20Z</time>
      </trkpt>
      <trkpt lat="41.23859" lon="-8.618655">
        <ele>152.0</ele>
        <time>2019-07-05T17:13:22Z</time>
      </trkpt>
      <trkpt lat="41.238641666666666" lon="-8.61874">
        <ele>153.0</ele>
        <time>2019-07-05T17:13:24Z</time>
      </trkpt>
      <trkpt lat="41.238685" lon="-8.61884">
        <ele>152.0</ele>
        <time>2019-07-05T17:13:26Z</time>
      </trkpt>
      <trkpt lat="41.23874" lon="-8.61894">
        <ele>152.0</ele>
        <time>2019-07-05T17:13:28Z</time>
      </trkpt>
      <trkpt lat="41.238795" lon="-8.619045">
        <ele>152.0</ele>
        <time>2019-07-05T17:13:30Z</time>
      </trkpt>
      <trkpt lat="41.238855" lon="-8.619145">
        <ele>152.0</ele>
        <time>2019-07-05T17:13:32Z</time>
      </trkpt>
      <trkpt lat="41.238915" lon="-8.619248333333333">
        <ele>152.0</ele>
        <time>2019-07-05T17:13:34Z</time>
      </trkpt>
      <trkpt lat="41.23897" lon="-8.619358333333333">
        <ele>151.0</ele>
        <time>2019-07-05T17:13:36Z</time>
      </trkpt>
      <trkpt lat="41.23902" lon="-8.619473333333334">
        <ele>151.0</ele>
        <time>2019-07-05T17:13:38Z</time>
      </trkpt>
      <trkpt lat="41.239065" lon="-8.619608333333334">
        <ele>150.0</ele>
        <time>2019-07-05T17:13:40Z</time>
      </trkpt>
      <trkpt lat="41.23909666666667" lon="-8.619735">
        <ele>151.0</ele>
        <time>2019-07-05T17:13:42Z</time>
      </trkpt>
      <trkpt lat="41.2391" lon="-8.619845">
        <ele>151.0</ele>
        <time>2019-07-05T17:13:44Z</time>
      </trkpt>
      <trkpt lat="41.239085" lon="-8.61996">
        <ele>151.0</ele>
        <time>2019-07-05T17:13:46Z</time>
      </trkpt>
      <trkpt lat="41.239075" lon="-8.62009">
        <ele>151.0</ele>
        <time>2019-07-05T17:13:48Z</time>
      </trkpt>
      <trkpt lat="41.239043333333335" lon="-8.620205">
        <ele>151.0</ele>
        <time>2019-07-05T17:13:50Z</time>
      </trkpt>
      <trkpt lat="41.23901166666667" lon="-8.62034">
        <ele>152.0</ele>
        <time>2019-07-05T17:13:52Z</time>
      </trkpt>
      <trkpt lat="41.238991666666664" lon="-8.620475">
        <ele>152.0</ele>
        <time>2019-07-05T17:13:54Z</time>
      </trkpt>
      <trkpt lat="41.23896" lon="-8.620571666666667">
        <ele>152.0</ele>
        <time>2019-07-05T17:13:56Z</time>
      </trkpt>
      <trkpt lat="41.23893" lon="-8.620685">
        <ele>152.0</ele>
        <time>2019-07-05T17:13:58Z</time>
      </trkpt>
      <trkpt lat="41.23889666666667" lon="-8.62079">
        <ele>153.0</ele>
        <time>2019-07-05T17:14:00Z</time>
      </trkpt>
      <trkpt lat="41.23886" lon="-8.620875">
        <ele>153.0</ele>
        <time>2019-07-05T17:14:02Z</time>
      </trkpt>
      <trkpt lat="41.23884" lon="-8.620991666666667">
        <ele>152.0</ele>
        <time>2019-07-05T17:14:05Z</time>
      </trkpt>
      <trkpt lat="41.238825" lon="-8.62111">
        <ele>152.0</ele>
        <time>2019-07-05T17:14:09Z</time>
      </trkpt>
      <trkpt lat="41.238815" lon="-8.621175">
        <ele>150.0</ele>
        <time>2019-07-05T17:14:16Z</time>
      </trkpt>
      <trkpt lat="41.23881" lon="-8.621175">
        <ele>149.0</ele>
        <time>2019-07-05T17:14:20Z</time>
      </trkpt>
      <trkpt lat="41.23880666666667" lon="-8.621181666666667">
        <ele>148.0</ele>
        <time>2019-07-05T17:14:29Z</time>
      </trkpt>
      <trkpt lat="41.23880666666667" lon="-8.621181666666667">
        <ele>148.0</ele>
        <time>2019-07-05T17:14:30Z</time>
      </trkpt>
      <trkpt lat="41.23879" lon="-8.62132">
        <ele>149.0</ele>
        <time>2019-07-05T17:14:59Z</time>
      </trkpt>
      <trkpt lat="41.238785" lon="-8.62143">
        <ele>149.0</ele>
        <time>2019-07-05T17:15:01Z</time>
      </trkpt>
      <trkpt lat="41.238785" lon="-8.621555">
        <ele>150.0</ele>
        <time>2019-07-05T17:15:03Z</time>
      </trkpt>
      <trkpt lat="41.23879" lon="-8.621696666666667">
        <ele>150.0</ele>
        <time>2019-07-05T17:15:05Z</time>
      </trkpt>
      <trkpt lat="41.23879" lon="-8.62184">
        <ele>151.0</ele>
        <time>2019-07-05T17:15:07Z</time>
      </trkpt>
      <trkpt lat="41.23879" lon="-8.62198">
        <ele>153.0</ele>
        <time>2019-07-05T17:15:09Z</time>
      </trkpt>
      <trkpt lat="41.23879" lon="-8.622108333333333">
        <ele>154.0</ele>
        <time>2019-07-05T17:15:11Z</time>
      </trkpt>
      <trkpt lat="41.238795" lon="-8.62225">
        <ele>154.0</ele>
        <time>2019-07-05T17:15:13Z</time>
      </trkpt>
      <trkpt lat="41.23879" lon="-8.62238">
        <ele>155.0</ele>
        <time>2019-07-05T17:15:15Z</time>
      </trkpt>
      <trkpt lat="41.238785" lon="-8.62251">
        <ele>155.0</ele>
        <time>2019-07-05T17:15:17Z</time>
      </trkpt>
      <trkpt lat="41.23878" lon="-8.622645">
        <ele>155.0</ele>
        <time>2019-07-05T17:15:19Z</time>
      </trkpt>
      <trkpt lat="41.23877" lon="-8.622768333333333">
        <ele>156.0</ele>
        <time>2019-07-05T17:15:21Z</time>
      </trkpt>
      <trkpt lat="41.23876" lon="-8.6229">
        <ele>156.0</ele>
        <time>2019-07-05T17:15:23Z</time>
      </trkpt>
      <trkpt lat="41.238748333333334" lon="-8.623033333333334">
        <ele>156.0</ele>
        <time>2019-07-05T17:15:25Z</time>
      </trkpt>
      <trkpt lat="41.238731666666666" lon="-8.62316">
        <ele>157.0</ele>
        <time>2019-07-05T17:15:27Z</time>
      </trkpt>
      <trkpt lat="41.238725" lon="-8.62329">
        <ele>157.0</ele>
        <time>2019-07-05T17:15:29Z</time>
      </trkpt>
      <trkpt lat="41.23871666666667" lon="-8.623405">
        <ele>158.0</ele>
        <time>2019-07-05T17:15:31Z</time>
      </trkpt>
      <trkpt lat="41.238695" lon="-8.623511666666667">
        <ele>159.0</ele>
        <time>2019-07-05T17:15:33Z</time>
      </trkpt>
      <trkpt lat="41.23867833333333" lon="-8.62362">
        <ele>160.0</ele>
        <time>2019-07-05T17:15:35Z</time>
      </trkpt>
      <trkpt lat="41.238675" lon="-8.62372">
        <ele>160.0</ele>
        <time>2019-07-05T17:15:37Z</time>
      </trkpt>
      <trkpt lat="41.238656666666664" lon="-8.623865">
        <ele>162.0</ele>
        <time>2019-07-05T17:15:40Z</time>
      </trkpt>
      <trkpt lat="41.23864" lon="-8.62397">
        <ele>162.0</ele>
        <time>2019-07-05T17:15:42Z</time>
      </trkpt>
      <trkpt lat="41.23863" lon="-8.624075">
        <ele>163.0</ele>
        <time>2019-07-05T17:15:44Z</time>
      </trkpt>
      <trkpt lat="41.238625" lon="-8.624173333333333">
        <ele>162.0</ele>
        <time>2019-07-05T17:15:46Z</time>
      </trkpt>
      <trkpt lat="41.238605" lon="-8.624285">
        <ele>162.0</ele>
        <time>2019-07-05T17:15:48Z</time>
      </trkpt>
      <trkpt lat="41.238565" lon="-8.624375">
        <ele>161.0</ele>
        <time>2019-07-05T17:15:50Z</time>
      </trkpt>
      <trkpt lat="41.23849" lon="-8.624435">
        <ele>162.0</ele>
        <time>2019-07-05T17:15:52Z</time>
      </trkpt>
      <trkpt lat="41.238415" lon="-8.62451">
        <ele>161.0</ele>
        <time>2019-07-05T17:15:54Z</time>
      </trkpt>
      <trkpt lat="41.238335" lon="-8.624568333333333">
        <ele>161.0</ele>
        <time>2019-07-05T17:15:56Z</time>
      </trkpt>
      <trkpt lat="41.238255" lon="-8.624625">
        <ele>161.0</ele>
        <time>2019-07-05T17:15:58Z</time>
      </trkpt>
      <trkpt lat="41.238175" lon="-8.62468">
        <ele>160.0</ele>
        <time>2019-07-05T17:16:00Z</time>
      </trkpt>
      <trkpt lat="41.238095" lon="-8.624741666666667">
        <ele>160.0</ele>
        <time>2019-07-05T17:16:02Z</time>
      </trkpt>
      <trkpt lat="41.238005" lon="-8.624781666666667">
        <ele>160.0</ele>
        <time>2019-07-05T17:16:04Z</time>
      </trkpt>
      <trkpt lat="41.23791833333333" lon="-8.62485">
        <ele>160.0</ele>
        <time>2019-07-05T17:16:06Z</time>
      </trkpt>
      <trkpt lat="41.237831666666665" lon="-8.624905">
        <ele>160.0</ele>
        <time>2019-07-05T17:16:08Z</time>
      </trkpt>
      <trkpt lat="41.237745" lon="-8.624961666666668">
        <ele>160.0</ele>
        <time>2019-07-05T17:16:10Z</time>
      </trkpt>
      <trkpt lat="41.23766166666667" lon="-8.625">
        <ele>161.0</ele>
        <time>2019-07-05T17:16:12Z</time>
      </trkpt>
      <trkpt lat="41.23758" lon="-8.625055">
        <ele>162.0</ele>
        <time>2019-07-05T17:16:14Z</time>
      </trkpt>
      <trkpt lat="41.237495" lon="-8.625115">
        <ele>163.0</ele>
        <time>2019-07-05T17:16:16Z</time>
      </trkpt>
      <trkpt lat="41.23741" lon="-8.625185">
        <ele>162.0</ele>
        <time>2019-07-05T17:16:18Z</time>
      </trkpt>
      <trkpt lat="41.23736" lon="-8.625291666666667">
        <ele>162.0</ele>
        <time>2019-07-05T17:16:20Z</time>
      </trkpt>
      <trkpt lat="41.237345" lon="-8.625415">
        <ele>163.0</ele>
        <time>2019-07-05T17:16:22Z</time>
      </trkpt>
      <trkpt lat="41.237341666666666" lon="-8.625535">
        <ele>163.0</ele>
        <time>2019-07-05T17:16:24Z</time>
      </trkpt>
      <trkpt lat="41.23739" lon="-8.625645">
        <ele>162.0</ele>
        <time>2019-07-05T17:16:26Z</time>
      </trkpt>
      <trkpt lat="41.23745666666667" lon="-8.62574">
        <ele>162.0</ele>
        <time>2019-07-05T17:16:28Z</time>
      </trkpt>
      <trkpt lat="41.237515" lon="-8.625835">
        <ele>162.0</ele>
        <time>2019-07-05T17:16:30Z</time>
      </trkpt>
      <trkpt lat="41.23755" lon="-8.62595">
        <ele>162.0</ele>
        <time>2019-07-05T17:16:32Z</time>
      </trkpt>
      <trkpt lat="41.237565" lon="-8.626065">
        <ele>162.0</ele>
        <time>2019-07-05T17:16:34Z</time>
      </trkpt>
      <trkpt lat="41.23754666666667" lon="-8.626175">
        <ele>162.0</ele>
        <time>2019-07-05T17:16:36Z</time>
      </trkpt>
      <trkpt lat="41.23751" lon="-8.626261666666666">
        <ele>162.0</ele>
        <time>2019-07-05T17:16:38Z</time>
      </trkpt>
      <trkpt lat="41.23746" lon="-8.626351666666666">
        <ele>162.0</ele>
        <time>2019-07-05T17:16:40Z</time>
      </trkpt>
      <trkpt lat="41.23739" lon="-8.626428333333333">
        <ele>162.0</ele>
        <time>2019-07-05T17:16:42Z</time>
      </trkpt>
      <trkpt lat="41.237305" lon="-8.62651">
        <ele>161.0</ele>
        <time>2019-07-05T17:16:44Z</time>
      </trkpt>
      <trkpt lat="41.23726666666666" lon="-8.626645">
        <ele>161.0</ele>
        <time>2019-07-05T17:16:46Z</time>
      </trkpt>
      <trkpt lat="41.237265" lon="-8.626785">
        <ele>161.0</ele>
        <time>2019-07-05T17:16:48Z</time>
      </trkpt>
      <trkpt lat="41.23726166666667" lon="-8.62693">
        <ele>161.0</ele>
        <time>2019-07-05T17:16:50Z</time>
      </trkpt>
      <trkpt lat="41.237255" lon="-8.627073333333334">
        <ele>161.0</ele>
        <time>2019-07-05T17:16:52Z</time>
      </trkpt>
      <trkpt lat="41.237245" lon="-8.627235">
        <ele>162.0</ele>
        <time>2019-07-05T17:16:54Z</time>
      </trkpt>
      <trkpt lat="41.237235" lon="-8.627406666666667">
        <ele>163.0</ele>
        <time>2019-07-05T17:16:56Z</time>
      </trkpt>
      <trkpt lat="41.23724" lon="-8.627595">
        <ele>161.0</ele>
        <time>2019-07-05T17:16:58Z</time>
      </trkpt>
      <trkpt lat="41.237235" lon="-8.627695">
        <ele>161.0</ele>
        <time>2019-07-05T17:16:59Z</time>
      </trkpt>
      <trkpt lat="41.237226666666665" lon="-8.627791666666667">
        <ele>161.0</ele>
        <time>2019-07-05T17:17:00Z</time>
      </trkpt>
      <trkpt lat="41.237225" lon="-8.62799">
        <ele>161.0</ele>
        <time>2019-07-05T17:17:02Z</time>
      </trkpt>
      <trkpt lat="41.237206666666665" lon="-8.628195">
        <ele>160.0</ele>
        <time>2019-07-05T17:17:04Z</time>
      </trkpt>
      <trkpt lat="41.2372" lon="-8.6283">
        <ele>160.0</ele>
        <time>2019-07-05T17:17:05Z</time>
      </trkpt>
      <trkpt lat="41.237195" lon="-8.628416666666666">
        <ele>161.0</ele>
        <time>2019-07-05T17:17:06Z</time>
      </trkpt>
      <trkpt lat="41.237195" lon="-8.628533333333333">
        <ele>161.0</ele>
        <time>2019-07-05T17:17:07Z</time>
      </trkpt>
      <trkpt lat="41.23718" lon="-8.628655">
        <ele>162.0</ele>
        <time>2019-07-05T17:17:08Z</time>
      </trkpt>
      <trkpt lat="41.23717666666667" lon="-8.628776666666667">
        <ele>161.0</ele>
        <time>2019-07-05T17:17:09Z</time>
      </trkpt>
      <trkpt lat="41.23719" lon="-8.6289">
        <ele>160.0</ele>
        <time>2019-07-05T17:17:10Z</time>
      </trkpt>
      <trkpt lat="41.237195" lon="-8.62902">
        <ele>160.0</ele>
        <time>2019-07-05T17:17:11Z</time>
      </trkpt>
      <trkpt lat="41.23722" lon="-8.629165">
        <ele>158.0</ele>
        <time>2019-07-05T17:17:12Z</time>
      </trkpt>
      <trkpt lat="41.23726" lon="-8.629286666666667">
        <ele>158.0</ele>
        <time>2019-07-05T17:17:13Z</time>
      </trkpt>
      <trkpt lat="41.237315" lon="-8.62941">
        <ele>156.0</ele>
        <time>2019-07-05T17:17:14Z</time>
      </trkpt>
      <trkpt lat="41.237365" lon="-8.62953">
        <ele>156.0</ele>
        <time>2019-07-05T17:17:15Z</time>
      </trkpt>
      <trkpt lat="41.237415" lon="-8.629648333333334">
        <ele>155.0</ele>
        <time>2019-07-05T17:17:16Z</time>
      </trkpt>
      <trkpt lat="41.23747" lon="-8.629765">
        <ele>154.0</ele>
        <time>2019-07-05T17:17:17Z</time>
      </trkpt>
      <trkpt lat="41.237523333333336" lon="-8.62989">
        <ele>153.0</ele>
        <time>2019-07-05T17:17:18Z</time>
      </trkpt>
      <trkpt lat="41.23757666666667" lon="-8.630005">
        <ele>152.0</ele>
        <time>2019-07-05T17:17:19Z</time>
      </trkpt>
      <trkpt lat="41.237625" lon="-8.630105">
        <ele>150.0</ele>
        <time>2019-07-05T17:17:20Z</time>
      </trkpt>
      <trkpt lat="41.237665" lon="-8.630185">
        <ele>150.0</ele>
        <time>2019-07-05T17:17:21Z</time>
      </trkpt>
      <trkpt lat="41.237715" lon="-8.630305">
        <ele>148.0</ele>
        <time>2019-07-05T17:17:23Z</time>
      </trkpt>
      <trkpt lat="41.237755" lon="-8.6304">
        <ele>147.0</ele>
        <time>2019-07-05T17:17:26Z</time>
      </trkpt>
      <trkpt lat="41.237805" lon="-8.63051">
        <ele>146.0</ele>
        <time>2019-07-05T17:17:29Z</time>
      </trkpt>
      <trkpt lat="41.237855" lon="-8.63062">
        <ele>146.0</ele>
        <time>2019-07-05T17:17:31Z</time>
      </trkpt>
      <trkpt lat="41.23791" lon="-8.63075">
        <ele>145.0</ele>
        <time>2019-07-05T17:17:33Z</time>
      </trkpt>
      <trkpt lat="41.237975" lon="-8.63089">
        <ele>143.0</ele>
        <time>2019-07-05T17:17:35Z</time>
      </trkpt>
      <trkpt lat="41.238045" lon="-8.631048333333334">
        <ele>142.0</ele>
        <time>2019-07-05T17:17:37Z</time>
      </trkpt>
      <trkpt lat="41.23808" lon="-8.631135">
        <ele>141.0</ele>
        <time>2019-07-05T17:17:38Z</time>
      </trkpt>
      <trkpt lat="41.238115" lon="-8.631225">
        <ele>140.0</ele>
        <time>2019-07-05T17:17:39Z</time>
      </trkpt>
      <trkpt lat="41.23816" lon="-8.631311666666667">
        <ele>139.0</ele>
        <time>2019-07-05T17:17:40Z</time>
      </trkpt>
      <trkpt lat="41.2382" lon="-8.631406666666667">
        <ele>139.0</ele>
        <time>2019-07-05T17:17:41Z</time>
      </trkpt>
      <trkpt lat="41.23824" lon="-8.6315">
        <ele>138.0</ele>
        <time>2019-07-05T17:17:42Z</time>
      </trkpt>
      <trkpt lat="41.238283333333335" lon="-8.6316">
        <ele>138.0</ele>
        <time>2019-07-05T17:17:43Z</time>
      </trkpt>
      <trkpt lat="41.23833" lon="-8.6317">
        <ele>138.0</ele>
        <time>2019-07-05T17:17:44Z</time>
      </trkpt>
      <trkpt lat="41.238371666666666" lon="-8.631805">
        <ele>138.0</ele>
        <time>2019-07-05T17:17:45Z</time>
      </trkpt>
      <trkpt lat="41.23841" lon="-8.631915">
        <ele>138.0</ele>
        <time>2019-07-05T17:17:46Z</time>
      </trkpt>
      <trkpt lat="41.23845333333333" lon="-8.632025">
        <ele>137.0</ele>
        <time>2019-07-05T17:17:47Z</time>
      </trkpt>
      <trkpt lat="41.2385" lon="-8.632136666666666">
        <ele>137.0</ele>
        <time>2019-07-05T17:17:48Z</time>
      </trkpt>
      <trkpt lat="41.23854" lon="-8.632235">
        <ele>136.0</ele>
        <time>2019-07-05T17:17:49Z</time>
      </trkpt>
      <trkpt lat="41.23858" lon="-8.632318333333334">
        <ele>136.0</ele>
        <time>2019-07-05T17:17:50Z</time>
      </trkpt>
      <trkpt lat="41.23865" lon="-8.632473333333333">
        <ele>135.0</ele>
        <time>2019-07-05T17:17:52Z</time>
      </trkpt>
      <trkpt lat="41.238715" lon="-8.632623333333333">
        <ele>134.0</ele>
        <time>2019-07-05T17:17:54Z</time>
      </trkpt>
      <trkpt lat="41.238765" lon="-8.63273">
        <ele>133.0</ele>
        <time>2019-07-05T17:17:56Z</time>
      </trkpt>
      <trkpt lat="41.238815" lon="-8.632793333333334">
        <ele>134.0</ele>
        <time>2019-07-05T17:18:00Z</time>
      </trkpt>
      <trkpt lat="41.238836666666664" lon="-8.632825">
        <ele>134.0</ele>
        <time>2019-07-05T17:18:07Z</time>
      </trkpt>
      <trkpt lat="41.23884" lon="-8.63282">
        <ele>134.0</ele>
        <time>2019-07-05T17:18:10Z</time>
      </trkpt>
      <trkpt lat="41.2389" lon="-8.632915">
        <ele>135.0</ele>
        <time>2019-07-05T17:18:15Z</time>
      </trkpt>
      <trkpt lat="41.238945" lon="-8.632995">
        <ele>134.0</ele>
        <time>2019-07-05T17:18:17Z</time>
      </trkpt>
      <trkpt lat="41.23901" lon="-8.633095">
        <ele>133.0</ele>
        <time>2019-07-05T17:18:19Z</time>
      </trkpt>
      <trkpt lat="41.239095" lon="-8.633208333333334">
        <ele>132.0</ele>
        <time>2019-07-05T17:18:21Z</time>
      </trkpt>
      <trkpt lat="41.23919166666666" lon="-8.633351666666666">
        <ele>131.0</ele>
        <time>2019-07-05T17:18:23Z</time>
      </trkpt>
      <trkpt lat="41.23925" lon="-8.633416666666667">
        <ele>130.0</ele>
        <time>2019-07-05T17:18:24Z</time>
      </trkpt>
      <trkpt lat="41.239306666666664" lon="-8.63349">
        <ele>129.0</ele>
        <time>2019-07-05T17:18:25Z</time>
      </trkpt>
      <trkpt lat="41.23936166666667" lon="-8.633571666666667">
        <ele>129.0</ele>
        <time>2019-07-05T17:18:26Z</time>
      </trkpt>
      <trkpt lat="41.23940666666667" lon="-8.633655">
        <ele>129.0</ele>
        <time>2019-07-05T17:18:27Z</time>
      </trkpt>
      <trkpt lat="41.239435" lon="-8.63375">
        <ele>129.0</ele>
        <time>2019-07-05T17:18:28Z</time>
      </trkpt>
      <trkpt lat="41.23946" lon="-8.63394">
        <ele>128.0</ele>
        <time>2019-07-05T17:18:30Z</time>
      </trkpt>
      <trkpt lat="41.23946" lon="-8.63404">
        <ele>128.0</ele>
        <time>2019-07-05T17:18:31Z</time>
      </trkpt>
      <trkpt lat="41.239455" lon="-8.634141666666666">
        <ele>128.0</ele>
        <time>2019-07-05T17:18:32Z</time>
      </trkpt>
      <trkpt lat="41.23945" lon="-8.634241666666666">
        <ele>128.0</ele>
        <time>2019-07-05T17:18:33Z</time>
      </trkpt>
      <trkpt lat="41.239445" lon="-8.634346666666668">
        <ele>128.0</ele>
        <time>2019-07-05T17:18:34Z</time>
      </trkpt>
      <trkpt lat="41.23943833333333" lon="-8.63445">
        <ele>128.0</ele>
        <time>2019-07-05T17:18:35Z</time>
      </trkpt>
      <trkpt lat="41.23943" lon="-8.63455">
        <ele>128.0</ele>
        <time>2019-07-05T17:18:36Z</time>
      </trkpt>
      <trkpt lat="41.239421666666665" lon="-8.634646666666667">
        <ele>128.0</ele>
        <time>2019-07-05T17:18:37Z</time>
      </trkpt>
      <trkpt lat="41.239405" lon="-8.63483">
        <ele>128.0</ele>
        <time>2019-07-05T17:18:39Z</time>
      </trkpt>
      <trkpt lat="41.239395" lon="-8.635006666666667">
        <ele>128.0</ele>
        <time>2019-07-05T17:18:41Z</time>
      </trkpt>
      <trkpt lat="41.23937" lon="-8.635181666666666">
        <ele>128.0</ele>
        <time>2019-07-05T17:18:43Z</time>
      </trkpt>
      <trkpt lat="41.239345" lon="-8.635355">
        <ele>127.0</ele>
        <time>2019-07-05T17:18:45Z</time>
      </trkpt>
      <trkpt lat="41.239335" lon="-8.635455">
        <ele>127.0</ele>
        <time>2019-07-05T17:18:46Z</time>
      </trkpt>
      <trkpt lat="41.23931" lon="-8.635635">
        <ele>127.0</ele>
        <time>2019-07-05T17:18:48Z</time>
      </trkpt>
      <trkpt lat="41.239275" lon="-8.635815">
        <ele>127.0</ele>
        <time>2019-07-05T17:18:50Z</time>
      </trkpt>
      <trkpt lat="41.23924" lon="-8.635998333333333">
        <ele>126.0</ele>
        <time>2019-07-05T17:18:52Z</time>
      </trkpt>
      <trkpt lat="41.23922" lon="-8.636093333333333">
        <ele>125.0</ele>
        <time>2019-07-05T17:18:53Z</time>
      </trkpt>
      <trkpt lat="41.239198333333334" lon="-8.636183333333333">
        <ele>125.0</ele>
        <time>2019-07-05T17:18:54Z</time>
      </trkpt>
      <trkpt lat="41.239165" lon="-8.636371666666667">
        <ele>125.0</ele>
        <time>2019-07-05T17:18:56Z</time>
      </trkpt>
      <trkpt lat="41.239165" lon="-8.636475">
        <ele>125.0</ele>
        <time>2019-07-05T17:18:57Z</time>
      </trkpt>
      <trkpt lat="41.239175" lon="-8.636575">
        <ele>125.0</ele>
        <time>2019-07-05T17:18:58Z</time>
      </trkpt>
      <trkpt lat="41.239201666666666" lon="-8.63667">
        <ele>124.0</ele>
        <time>2019-07-05T17:18:59Z</time>
      </trkpt>
      <trkpt lat="41.239245" lon="-8.636765">
        <ele>124.0</ele>
        <time>2019-07-05T17:19:00Z</time>
      </trkpt>
      <trkpt lat="41.2393" lon="-8.636835">
        <ele>124.0</ele>
        <time>2019-07-05T17:19:01Z</time>
      </trkpt>
      <trkpt lat="41.23936166666667" lon="-8.636888333333333">
        <ele>124.0</ele>
        <time>2019-07-05T17:19:02Z</time>
      </trkpt>
      <trkpt lat="41.23943" lon="-8.636936666666667">
        <ele>124.0</ele>
        <time>2019-07-05T17:19:03Z</time>
      </trkpt>
      <trkpt lat="41.2395" lon="-8.636976666666667">
        <ele>124.0</ele>
        <time>2019-07-05T17:19:04Z</time>
      </trkpt>
      <trkpt lat="41.23956666666667" lon="-8.637015">
        <ele>125.0</ele>
        <time>2019-07-05T17:19:05Z</time>
      </trkpt>
      <trkpt lat="41.23964333333333" lon="-8.637061666666666">
        <ele>125.0</ele>
        <time>2019-07-05T17:19:06Z</time>
      </trkpt>
      <trkpt lat="41.23972666666667" lon="-8.637125">
        <ele>125.0</ele>
        <time>2019-07-05T17:19:07Z</time>
      </trkpt>
      <trkpt lat="41.23980666666667" lon="-8.63719">
        <ele>124.0</ele>
        <time>2019-07-05T17:19:08Z</time>
      </trkpt>
      <trkpt lat="41.23988166666667" lon="-8.637235">
        <ele>124.0</ele>
        <time>2019-07-05T17:19:09Z</time>
      </trkpt>
      <trkpt lat="41.23995333333333" lon="-8.637285">
        <ele>124.0</ele>
        <time>2019-07-05T17:19:10Z</time>
      </trkpt>
      <trkpt lat="41.24002333333333" lon="-8.637325">
        <ele>123.0</ele>
        <time>2019-07-05T17:19:11Z</time>
      </trkpt>
      <trkpt lat="41.24015166666667" lon="-8.637405">
        <ele>124.0</ele>
        <time>2019-07-05T17:19:13Z</time>
      </trkpt>
      <trkpt lat="41.240285" lon="-8.637475">
        <ele>123.0</ele>
        <time>2019-07-05T17:19:15Z</time>
      </trkpt>
      <trkpt lat="41.240406666666665" lon="-8.63754">
        <ele>124.0</ele>
        <time>2019-07-05T17:19:17Z</time>
      </trkpt>
      <trkpt lat="41.240476666666666" lon="-8.637566666666666">
        <ele>124.0</ele>
        <time>2019-07-05T17:19:18Z</time>
      </trkpt>
      <trkpt lat="41.24061" lon="-8.637588333333333">
        <ele>124.0</ele>
        <time>2019-07-05T17:19:20Z</time>
      </trkpt>
      <trkpt lat="41.24074" lon="-8.637583333333334">
        <ele>124.0</ele>
        <time>2019-07-05T17:19:22Z</time>
      </trkpt>
      <trkpt lat="41.240865" lon="-8.637548333333333">
        <ele>124.0</ele>
        <time>2019-07-05T17:19:24Z</time>
      </trkpt>
      <trkpt lat="41.240975" lon="-8.637525">
        <ele>124.0</ele>
        <time>2019-07-05T17:19:26Z</time>
      </trkpt>
      <trkpt lat="41.241081666666666" lon="-8.637515">
        <ele>124.0</ele>
        <time>2019-07-05T17:19:28Z</time>
      </trkpt>
      <trkpt lat="41.241195" lon="-8.637525">
        <ele>123.0</ele>
        <time>2019-07-05T17:19:30Z</time>
      </trkpt>
      <trkpt lat="41.24131" lon="-8.637546666666667">
        <ele>123.0</ele>
        <time>2019-07-05T17:19:32Z</time>
      </trkpt>
      <trkpt lat="41.24142666666667" lon="-8.637576666666666">
        <ele>122.0</ele>
        <time>2019-07-05T17:19:34Z</time>
      </trkpt>
      <trkpt lat="41.24154166666667" lon="-8.63761">
        <ele>122.0</ele>
        <time>2019-07-05T17:19:36Z</time>
      </trkpt>
      <trkpt lat="41.24165" lon="-8.63764">
        <ele>123.0</ele>
        <time>2019-07-05T17:19:38Z</time>
      </trkpt>
      <trkpt lat="41.241755" lon="-8.63767">
        <ele>123.0</ele>
        <time>2019-07-05T17:19:40Z</time>
      </trkpt>
      <trkpt lat="41.241855" lon="-8.637705">
        <ele>123.0</ele>
        <time>2019-07-05T17:19:42Z</time>
      </trkpt>
      <trkpt lat="41.241951666666665" lon="-8.63773">
        <ele>123.0</ele>
        <time>2019-07-05T17:19:44Z</time>
      </trkpt>
      <trkpt lat="41.242045" lon="-8.63775">
        <ele>124.0</ele>
        <time>2019-07-05T17:19:46Z</time>
      </trkpt>
      <trkpt lat="41.24213" lon="-8.637778333333333">
        <ele>124.0</ele>
        <time>2019-07-05T17:19:48Z</time>
      </trkpt>
      <trkpt lat="41.242205" lon="-8.637791666666667">
        <ele>125.0</ele>
        <time>2019-07-05T17:19:50Z</time>
      </trkpt>
      <trkpt lat="41.24228" lon="-8.63782">
        <ele>125.0</ele>
        <time>2019-07-05T17:19:52Z</time>
      </trkpt>
      <trkpt lat="41.24236" lon="-8.63784">
        <ele>126.0</ele>
        <time>2019-07-05T17:19:54Z</time>
      </trkpt>
      <trkpt lat="41.24244" lon="-8.637866666666667">
        <ele>126.0</ele>
        <time>2019-07-05T17:19:56Z</time>
      </trkpt>
      <trkpt lat="41.24252" lon="-8.637885">
        <ele>127.0</ele>
        <time>2019-07-05T17:19:58Z</time>
      </trkpt>
      <trkpt lat="41.24259" lon="-8.6379">
        <ele>127.0</ele>
        <time>2019-07-05T17:20:00Z</time>
      </trkpt>
      <trkpt lat="41.24266" lon="-8.637921666666667">
        <ele>128.0</ele>
        <time>2019-07-05T17:20:02Z</time>
      </trkpt>
      <trkpt lat="41.24274" lon="-8.63794">
        <ele>128.0</ele>
        <time>2019-07-05T17:20:04Z</time>
      </trkpt>
      <trkpt lat="41.242815" lon="-8.637961666666667">
        <ele>128.0</ele>
        <time>2019-07-05T17:20:06Z</time>
      </trkpt>
      <trkpt lat="41.242911666666664" lon="-8.637985">
        <ele>129.0</ele>
        <time>2019-07-05T17:20:09Z</time>
      </trkpt>
      <trkpt lat="41.24301" lon="-8.63801">
        <ele>130.0</ele>
        <time>2019-07-05T17:20:12Z</time>
      </trkpt>
      <trkpt lat="41.24311" lon="-8.638045">
        <ele>131.0</ele>
        <time>2019-07-05T17:20:15Z</time>
      </trkpt>
      <trkpt lat="41.243206666666666" lon="-8.63807">
        <ele>131.0</ele>
        <time>2019-07-05T17:20:18Z</time>
      </trkpt>
      <trkpt lat="41.243305" lon="-8.638095">
        <ele>131.0</ele>
        <time>2019-07-05T17:20:21Z</time>
      </trkpt>
      <trkpt lat="41.24339666666667" lon="-8.63812">
        <ele>132.0</ele>
        <time>2019-07-05T17:20:24Z</time>
      </trkpt>
      <trkpt lat="41.243485" lon="-8.63815">
        <ele>133.0</ele>
        <time>2019-07-05T17:20:27Z</time>
      </trkpt>
      <trkpt lat="41.243575" lon="-8.638175">
        <ele>134.0</ele>
        <time>2019-07-05T17:20:30Z</time>
      </trkpt>
      <trkpt lat="41.243656666666666" lon="-8.638188333333334">
        <ele>134.0</ele>
        <time>2019-07-05T17:20:33Z</time>
      </trkpt>
      <trkpt lat="41.243741666666665" lon="-8.638211666666667">
        <ele>135.0</ele>
        <time>2019-07-05T17:20:36Z</time>
      </trkpt>
      <trkpt lat="41.24382833333333" lon="-8.638236666666666">
        <ele>136.0</ele>
        <time>2019-07-05T17:20:39Z</time>
      </trkpt>
      <trkpt lat="41.243915" lon="-8.63826">
        <ele>136.0</ele>
        <time>2019-07-05T17:20:42Z</time>
      </trkpt>
      <trkpt lat="41.244" lon="-8.638283333333334">
        <ele>136.0</ele>
        <time>2019-07-05T17:20:45Z</time>
      </trkpt>
      <trkpt lat="41.24409" lon="-8.638305">
        <ele>136.0</ele>
        <time>2019-07-05T17:20:48Z</time>
      </trkpt>
      <trkpt lat="41.244175" lon="-8.63833">
        <ele>137.0</ele>
        <time>2019-07-05T17:20:51Z</time>
      </trkpt>
      <trkpt lat="41.24426" lon="-8.63835">
        <ele>136.0</ele>
        <time>2019-07-05T17:20:54Z</time>
      </trkpt>
      <trkpt lat="41.244346666666665" lon="-8.638365">
        <ele>137.0</ele>
        <time>2019-07-05T17:20:57Z</time>
      </trkpt>
      <trkpt lat="41.244431666666664" lon="-8.638383333333334">
        <ele>137.0</ele>
        <time>2019-07-05T17:21:00Z</time>
      </trkpt>
      <trkpt lat="41.24452" lon="-8.63841">
        <ele>138.0</ele>
        <time>2019-07-05T17:21:03Z</time>
      </trkpt>
      <trkpt lat="41.24459" lon="-8.638438333333333">
        <ele>140.0</ele>
        <time>2019-07-05T17:21:06Z</time>
      </trkpt>
      <trkpt lat="41.24467" lon="-8.638465">
        <ele>141.0</ele>
        <time>2019-07-05T17:21:09Z</time>
      </trkpt>
      <trkpt lat="41.244755" lon="-8.63849">
        <ele>141.0</ele>
        <time>2019-07-05T17:21:12Z</time>
      </trkpt>
      <trkpt lat="41.244845" lon="-8.638513333333334">
        <ele>142.0</ele>
        <time>2019-07-05T17:21:15Z</time>
      </trkpt>
      <trkpt lat="41.24493" lon="-8.638536666666667">
        <ele>142.0</ele>
        <time>2019-07-05T17:21:18Z</time>
      </trkpt>
      <trkpt lat="41.245015" lon="-8.63856">
        <ele>143.0</ele>
        <time>2019-07-05T17:21:21Z</time>
      </trkpt>
      <trkpt lat="41.2451" lon="-8.638585">
        <ele>143.0</ele>
        <time>2019-07-05T17:21:24Z</time>
      </trkpt>
      <trkpt lat="41.245185" lon="-8.638605">
        <ele>143.0</ele>
        <time>2019-07-05T17:21:27Z</time>
      </trkpt>
      <trkpt lat="41.245261666666664" lon="-8.638635">
        <ele>144.0</ele>
        <time>2019-07-05T17:21:30Z</time>
      </trkpt>
      <trkpt lat="41.245351666666664" lon="-8.638651666666666">
        <ele>145.0</ele>
        <time>2019-07-05T17:21:33Z</time>
      </trkpt>
      <trkpt lat="41.245435" lon="-8.638683333333333">
        <ele>145.0</ele>
        <time>2019-07-05T17:21:36Z</time>
      </trkpt>
      <trkpt lat="41.24552" lon="-8.638715">
        <ele>146.0</ele>
        <time>2019-07-05T17:21:39Z</time>
      </trkpt>
      <trkpt lat="41.245605" lon="-8.63875">
        <ele>146.0</ele>
        <time>2019-07-05T17:21:42Z</time>
      </trkpt>
      <trkpt lat="41.245695" lon="-8.638795">
        <ele>147.0</ele>
        <time>2019-07-05T17:21:45Z</time>
      </trkpt>
      <trkpt lat="41.245783333333335" lon="-8.638845">
        <ele>147.0</ele>
        <time>2019-07-05T17:21:48Z</time>
      </trkpt>
      <trkpt lat="41.245871666666666" lon="-8.638905">
        <ele>148.0</ele>
        <time>2019-07-05T17:21:51Z</time>
      </trkpt>
      <trkpt lat="41.245938333333335" lon="-8.63896">
        <ele>148.0</ele>
        <time>2019-07-05T17:21:53Z</time>
      </trkpt>
      <trkpt lat="41.246005" lon="-8.63902">
        <ele>149.0</ele>
        <time>2019-07-05T17:21:55Z</time>
      </trkpt>
      <trkpt lat="41.246071666666666" lon="-8.639083333333334">
        <ele>149.0</ele>
        <time>2019-07-05T17:21:57Z</time>
      </trkpt>
      <trkpt lat="41.246145" lon="-8.639138333333333">
        <ele>149.0</ele>
        <time>2019-07-05T17:22:00Z</time>
      </trkpt>
      <trkpt lat="41.246225" lon="-8.6392">
        <ele>148.0</ele>
        <time>2019-07-05T17:22:01Z</time>
      </trkpt>
      <trkpt lat="41.246295" lon="-8.639265">
        <ele>148.0</ele>
        <time>2019-07-05T17:22:03Z</time>
      </trkpt>
      <trkpt lat="41.24637" lon="-8.639335">
        <ele>149.0</ele>
        <time>2019-07-05T17:22:05Z</time>
      </trkpt>
      <trkpt lat="41.24646" lon="-8.639416666666667">
        <ele>148.0</ele>
        <time>2019-07-05T17:22:07Z</time>
      </trkpt>
      <trkpt lat="41.24655666666666" lon="-8.639505">
        <ele>148.0</ele>
        <time>2019-07-05T17:22:09Z</time>
      </trkpt>
      <trkpt lat="41.24667" lon="-8.639593333333334">
        <ele>147.0</ele>
        <time>2019-07-05T17:22:11Z</time>
      </trkpt>
      <trkpt lat="41.24679" lon="-8.639695">
        <ele>146.0</ele>
        <time>2019-07-05T17:22:13Z</time>
      </trkpt>
      <trkpt lat="41.246853333333334" lon="-8.639741666666668">
        <ele>145.0</ele>
        <time>2019-07-05T17:22:14Z</time>
      </trkpt>
      <trkpt lat="41.246916666666664" lon="-8.6398">
        <ele>145.0</ele>
        <time>2019-07-05T17:22:15Z</time>
      </trkpt>
      <trkpt lat="41.24698" lon="-8.639855">
        <ele>145.0</ele>
        <time>2019-07-05T17:22:16Z</time>
      </trkpt>
      <trkpt lat="41.247045" lon="-8.63991">
        <ele>144.0</ele>
        <time>2019-07-05T17:22:17Z</time>
      </trkpt>
      <trkpt lat="41.24711" lon="-8.63997">
        <ele>144.0</ele>
        <time>2019-07-05T17:22:18Z</time>
      </trkpt>
      <trkpt lat="41.24717" lon="-8.640033333333333">
        <ele>144.0</ele>
        <time>2019-07-05T17:22:19Z</time>
      </trkpt>
      <trkpt lat="41.24724" lon="-8.640091666666667">
        <ele>143.0</ele>
        <time>2019-07-05T17:22:20Z</time>
      </trkpt>
      <trkpt lat="41.247303333333335" lon="-8.640155">
        <ele>143.0</ele>
        <time>2019-07-05T17:22:21Z</time>
      </trkpt>
      <trkpt lat="41.24738" lon="-8.640215">
        <ele>142.0</ele>
        <time>2019-07-05T17:22:22Z</time>
      </trkpt>
      <trkpt lat="41.24745" lon="-8.64028">
        <ele>142.0</ele>
        <time>2019-07-05T17:22:23Z</time>
      </trkpt>
      <trkpt lat="41.247521666666664" lon="-8.640345">
        <ele>141.0</ele>
        <time>2019-07-05T17:22:24Z</time>
      </trkpt>
      <trkpt lat="41.247595" lon="-8.640405">
        <ele>141.0</ele>
        <time>2019-07-05T17:22:25Z</time>
      </trkpt>
      <trkpt lat="41.24767" lon="-8.64047">
        <ele>140.0</ele>
        <time>2019-07-05T17:22:26Z</time>
      </trkpt>
      <trkpt lat="41.24774166666667" lon="-8.640535">
        <ele>140.0</ele>
        <time>2019-07-05T17:22:27Z</time>
      </trkpt>
      <trkpt lat="41.24782" lon="-8.640598333333333">
        <ele>139.0</ele>
        <time>2019-07-05T17:22:28Z</time>
      </trkpt>
      <trkpt lat="41.247901666666664" lon="-8.640665">
        <ele>138.0</ele>
        <time>2019-07-05T17:22:29Z</time>
      </trkpt>
      <trkpt lat="41.247975" lon="-8.640745">
        <ele>138.0</ele>
        <time>2019-07-05T17:22:30Z</time>
      </trkpt>
      <trkpt lat="41.24803" lon="-8.640845">
        <ele>137.0</ele>
        <time>2019-07-05T17:22:31Z</time>
      </trkpt>
      <trkpt lat="41.24807" lon="-8.640955">
        <ele>135.0</ele>
        <time>2019-07-05T17:22:32Z</time>
      </trkpt>
      <trkpt lat="41.248095" lon="-8.641075">
        <ele>135.0</ele>
        <time>2019-07-05T17:22:33Z</time>
      </trkpt>
      <trkpt lat="41.2481" lon="-8.641196666666668">
        <ele>133.0</ele>
        <time>2019-07-05T17:22:34Z</time>
      </trkpt>
      <trkpt lat="41.24809" lon="-8.641316666666667">
        <ele>132.0</ele>
        <time>2019-07-05T17:22:35Z</time>
      </trkpt>
      <trkpt lat="41.24807" lon="-8.641433333333334">
        <ele>132.0</ele>
        <time>2019-07-05T17:22:36Z</time>
      </trkpt>
      <trkpt lat="41.248045" lon="-8.64155">
        <ele>132.0</ele>
        <time>2019-07-05T17:22:37Z</time>
      </trkpt>
      <trkpt lat="41.248025" lon="-8.641665">
        <ele>131.0</ele>
        <time>2019-07-05T17:22:38Z</time>
      </trkpt>
      <trkpt lat="41.248005" lon="-8.641775">
        <ele>131.0</ele>
        <time>2019-07-05T17:22:39Z</time>
      </trkpt>
      <trkpt lat="41.24798666666667" lon="-8.641875">
        <ele>131.0</ele>
        <time>2019-07-05T17:22:40Z</time>
      </trkpt>
      <trkpt lat="41.24796666666667" lon="-8.641975">
        <ele>131.0</ele>
        <time>2019-07-05T17:22:41Z</time>
      </trkpt>
      <trkpt lat="41.24795" lon="-8.642073333333334">
        <ele>131.0</ele>
        <time>2019-07-05T17:22:42Z</time>
      </trkpt>
      <trkpt lat="41.24793" lon="-8.642168333333334">
        <ele>131.0</ele>
        <time>2019-07-05T17:22:43Z</time>
      </trkpt>
      <trkpt lat="41.2479" lon="-8.64234">
        <ele>131.0</ele>
        <time>2019-07-05T17:22:45Z</time>
      </trkpt>
      <trkpt lat="41.24786666666667" lon="-8.642495">
        <ele>131.0</ele>
        <time>2019-07-05T17:22:47Z</time>
      </trkpt>
      <trkpt lat="41.247836666666664" lon="-8.64263">
        <ele>131.0</ele>
        <time>2019-07-05T17:22:49Z</time>
      </trkpt>
      <trkpt lat="41.24782" lon="-8.642755">
        <ele>132.0</ele>
        <time>2019-07-05T17:22:51Z</time>
      </trkpt>
      <trkpt lat="41.247796666666666" lon="-8.642856666666667">
        <ele>132.0</ele>
        <time>2019-07-05T17:22:53Z</time>
      </trkpt>
      <trkpt lat="41.247766666666664" lon="-8.643">
        <ele>133.0</ele>
        <time>2019-07-05T17:22:56Z</time>
      </trkpt>
      <trkpt lat="41.24774" lon="-8.643131666666667">
        <ele>134.0</ele>
        <time>2019-07-05T17:22:59Z</time>
      </trkpt>
      <trkpt lat="41.247715" lon="-8.643268333333333">
        <ele>135.0</ele>
        <time>2019-07-05T17:23:02Z</time>
      </trkpt>
      <trkpt lat="41.24769166666667" lon="-8.643398333333334">
        <ele>135.0</ele>
        <time>2019-07-05T17:23:05Z</time>
      </trkpt>
      <trkpt lat="41.247665" lon="-8.64353">
        <ele>136.0</ele>
        <time>2019-07-05T17:23:08Z</time>
      </trkpt>
      <trkpt lat="41.24764" lon="-8.64366">
        <ele>137.0</ele>
        <time>2019-07-05T17:23:11Z</time>
      </trkpt>
      <trkpt lat="41.24761" lon="-8.64379">
        <ele>138.0</ele>
        <time>2019-07-05T17:23:14Z</time>
      </trkpt>
      <trkpt lat="41.247585" lon="-8.643885">
        <ele>138.0</ele>
        <time>2019-07-05T17:23:16Z</time>
      </trkpt>
      <trkpt lat="41.24754" lon="-8.644008333333334">
        <ele>138.0</ele>
        <time>2019-07-05T17:23:19Z</time>
      </trkpt>
      <trkpt lat="41.247505" lon="-8.6441">
        <ele>139.0</ele>
        <time>2019-07-05T17:23:21Z</time>
      </trkpt>
      <trkpt lat="41.24745" lon="-8.644216666666667">
        <ele>140.0</ele>
        <time>2019-07-05T17:23:24Z</time>
      </trkpt>
      <trkpt lat="41.247415" lon="-8.644305">
        <ele>139.0</ele>
        <time>2019-07-05T17:23:26Z</time>
      </trkpt>
      <trkpt lat="41.24735" lon="-8.644426666666666">
        <ele>139.0</ele>
        <time>2019-07-05T17:23:29Z</time>
      </trkpt>
      <trkpt lat="41.2473" lon="-8.644521666666666">
        <ele>138.0</ele>
        <time>2019-07-05T17:23:31Z</time>
      </trkpt>
      <trkpt lat="41.24725" lon="-8.64463">
        <ele>138.0</ele>
        <time>2019-07-05T17:23:33Z</time>
      </trkpt>
      <trkpt lat="41.247195" lon="-8.64474">
        <ele>137.0</ele>
        <time>2019-07-05T17:23:35Z</time>
      </trkpt>
      <trkpt lat="41.24714" lon="-8.64485">
        <ele>137.0</ele>
        <time>2019-07-05T17:23:37Z</time>
      </trkpt>
      <trkpt lat="41.247085" lon="-8.644965">
        <ele>137.0</ele>
        <time>2019-07-05T17:23:39Z</time>
      </trkpt>
      <trkpt lat="41.247025" lon="-8.64508">
        <ele>137.0</ele>
        <time>2019-07-05T17:23:41Z</time>
      </trkpt>
      <trkpt lat="41.24697166666667" lon="-8.645195">
        <ele>137.0</ele>
        <time>2019-07-05T17:23:43Z</time>
      </trkpt>
      <trkpt lat="41.246915" lon="-8.645291666666667">
        <ele>137.0</ele>
        <time>2019-07-05T17:23:45Z</time>
      </trkpt>
      <trkpt lat="41.246875" lon="-8.645395">
        <ele>136.0</ele>
        <time>2019-07-05T17:23:47Z</time>
      </trkpt>
      <trkpt lat="41.246825" lon="-8.64549">
        <ele>136.0</ele>
        <time>2019-07-05T17:23:49Z</time>
      </trkpt>
      <trkpt lat="41.246775" lon="-8.645605">
        <ele>136.0</ele>
        <time>2019-07-05T17:23:51Z</time>
      </trkpt>
      <trkpt lat="41.24672" lon="-8.64572">
        <ele>136.0</ele>
        <time>2019-07-05T17:23:53Z</time>
      </trkpt>
      <trkpt lat="41.246665" lon="-8.645835">
        <ele>136.0</ele>
        <time>2019-07-05T17:23:55Z</time>
      </trkpt>
      <trkpt lat="41.2466" lon="-8.645955">
        <ele>136.0</ele>
        <time>2019-07-05T17:23:57Z</time>
      </trkpt>
      <trkpt lat="41.246541666666666" lon="-8.646085">
        <ele>136.0</ele>
        <time>2019-07-05T17:23:59Z</time>
      </trkpt>
      <trkpt lat="41.246485" lon="-8.646203333333334">
        <ele>135.0</ele>
        <time>2019-07-05T17:24:01Z</time>
      </trkpt>
      <trkpt lat="41.24644" lon="-8.646321666666667">
        <ele>136.0</ele>
        <time>2019-07-05T17:24:03Z</time>
      </trkpt>
      <trkpt lat="41.246375" lon="-8.646453333333334">
        <ele>136.0</ele>
        <time>2019-07-05T17:24:06Z</time>
      </trkpt>
      <trkpt lat="41.24633" lon="-8.646555">
        <ele>136.0</ele>
        <time>2019-07-05T17:24:08Z</time>
      </trkpt>
      <trkpt lat="41.24628" lon="-8.646641666666667">
        <ele>136.0</ele>
        <time>2019-07-05T17:24:10Z</time>
      </trkpt>
      <trkpt lat="41.24624166666667" lon="-8.646745">
        <ele>137.0</ele>
        <time>2019-07-05T17:24:12Z</time>
      </trkpt>
      <trkpt lat="41.246195" lon="-8.646845">
        <ele>136.0</ele>
        <time>2019-07-05T17:24:14Z</time>
      </trkpt>
      <trkpt lat="41.246145" lon="-8.646935">
        <ele>136.0</ele>
        <time>2019-07-05T17:24:16Z</time>
      </trkpt>
      <trkpt lat="41.246105" lon="-8.647021666666667">
        <ele>136.0</ele>
        <time>2019-07-05T17:24:18Z</time>
      </trkpt>
      <trkpt lat="41.246055" lon="-8.647116666666667">
        <ele>139.0</ele>
        <time>2019-07-05T17:24:21Z</time>
      </trkpt>
      <trkpt lat="41.246005" lon="-8.647226666666667">
        <ele>141.0</ele>
        <time>2019-07-05T17:24:24Z</time>
      </trkpt>
      <trkpt lat="41.24595166666667" lon="-8.647315">
        <ele>140.0</ele>
        <time>2019-07-05T17:24:26Z</time>
      </trkpt>
      <trkpt lat="41.245905" lon="-8.647415">
        <ele>139.0</ele>
        <time>2019-07-05T17:24:28Z</time>
      </trkpt>
      <trkpt lat="41.24585666666667" lon="-8.647505">
        <ele>139.0</ele>
        <time>2019-07-05T17:24:30Z</time>
      </trkpt>
      <trkpt lat="41.24581" lon="-8.6476">
        <ele>139.0</ele>
        <time>2019-07-05T17:24:32Z</time>
      </trkpt>
      <trkpt lat="41.24577" lon="-8.6477">
        <ele>138.0</ele>
        <time>2019-07-05T17:24:34Z</time>
      </trkpt>
      <trkpt lat="41.245725" lon="-8.647781666666667">
        <ele>138.0</ele>
        <time>2019-07-05T17:24:36Z</time>
      </trkpt>
      <trkpt lat="41.245685" lon="-8.647875">
        <ele>138.0</ele>
        <time>2019-07-05T17:24:38Z</time>
      </trkpt>
      <trkpt lat="41.245645" lon="-8.647971666666667">
        <ele>138.0</ele>
        <time>2019-07-05T17:24:40Z</time>
      </trkpt>
      <trkpt lat="41.245605" lon="-8.648063333333333">
        <ele>138.0</ele>
        <time>2019-07-05T17:24:42Z</time>
      </trkpt>
      <trkpt lat="41.24557" lon="-8.648161666666667">
        <ele>139.0</ele>
        <time>2019-07-05T17:24:44Z</time>
      </trkpt>
      <trkpt lat="41.24554" lon="-8.648271666666666">
        <ele>140.0</ele>
        <time>2019-07-05T17:24:46Z</time>
      </trkpt>
      <trkpt lat="41.245511666666665" lon="-8.648386666666667">
        <ele>140.0</ele>
        <time>2019-07-05T17:24:48Z</time>
      </trkpt>
      <trkpt lat="41.245486666666665" lon="-8.648505">
        <ele>139.0</ele>
        <time>2019-07-05T17:24:50Z</time>
      </trkpt>
      <trkpt lat="41.24547" lon="-8.648633333333333">
        <ele>138.0</ele>
        <time>2019-07-05T17:24:52Z</time>
      </trkpt>
      <trkpt lat="41.24544" lon="-8.648781666666666">
        <ele>139.0</ele>
        <time>2019-07-05T17:24:54Z</time>
      </trkpt>
      <trkpt lat="41.245421666666665" lon="-8.64893">
        <ele>138.0</ele>
        <time>2019-07-05T17:24:56Z</time>
      </trkpt>
      <trkpt lat="41.245425" lon="-8.649075">
        <ele>138.0</ele>
        <time>2019-07-05T17:24:58Z</time>
      </trkpt>
      <trkpt lat="41.24541" lon="-8.649176666666667">
        <ele>137.0</ele>
        <time>2019-07-05T17:25:00Z</time>
      </trkpt>
      <trkpt lat="41.245395" lon="-8.64929">
        <ele>138.0</ele>
        <time>2019-07-05T17:25:02Z</time>
      </trkpt>
      <trkpt lat="41.245385" lon="-8.649428333333333">
        <ele>139.0</ele>
        <time>2019-07-05T17:25:04Z</time>
      </trkpt>
      <trkpt lat="41.24539" lon="-8.64958">
        <ele>140.0</ele>
        <time>2019-07-05T17:25:06Z</time>
      </trkpt>
      <trkpt lat="41.245395" lon="-8.64974">
        <ele>139.0</ele>
        <time>2019-07-05T17:25:08Z</time>
      </trkpt>
      <trkpt lat="41.245395" lon="-8.6499">
        <ele>137.0</ele>
        <time>2019-07-05T17:25:10Z</time>
      </trkpt>
      <trkpt lat="41.2454" lon="-8.65008">
        <ele>136.0</ele>
        <time>2019-07-05T17:25:12Z</time>
      </trkpt>
      <trkpt lat="41.245395" lon="-8.650215">
        <ele>136.0</ele>
        <time>2019-07-05T17:25:14Z</time>
      </trkpt>
      <trkpt lat="41.245403333333336" lon="-8.65033">
        <ele>134.0</ele>
        <time>2019-07-05T17:25:16Z</time>
      </trkpt>
      <trkpt lat="41.245425" lon="-8.650405">
        <ele>134.0</ele>
        <time>2019-07-05T17:25:23Z</time>
      </trkpt>
      <trkpt lat="41.245435" lon="-8.650451666666667">
        <ele>134.0</ele>
        <time>2019-07-05T17:25:30Z</time>
      </trkpt>
      <trkpt lat="41.245435" lon="-8.650451666666667">
        <ele>134.0</ele>
        <time>2019-07-05T17:25:33Z</time>
      </trkpt>
      <trkpt lat="41.24543666666667" lon="-8.650475">
        <ele>136.0</ele>
        <time>2019-07-05T17:25:55Z</time>
      </trkpt>
      <trkpt lat="41.245435" lon="-8.650475">
        <ele>136.0</ele>
        <time>2019-07-05T17:25:56Z</time>
      </trkpt>
      <trkpt lat="41.24542666666667" lon="-8.65058">
        <ele>133.0</ele>
        <time>2019-07-05T17:26:58Z</time>
      </trkpt>
      <trkpt lat="41.24544" lon="-8.650725">
        <ele>134.0</ele>
        <time>2019-07-05T17:27:01Z</time>
      </trkpt>
      <trkpt lat="41.24543" lon="-8.65086">
        <ele>133.0</ele>
        <time>2019-07-05T17:27:03Z</time>
      </trkpt>
      <trkpt lat="41.24543" lon="-8.651005">
        <ele>133.0</ele>
        <time>2019-07-05T17:27:05Z</time>
      </trkpt>
      <trkpt lat="41.245435" lon="-8.651151666666667">
        <ele>131.0</ele>
        <time>2019-07-05T17:27:07Z</time>
      </trkpt>
      <trkpt lat="41.245466666666665" lon="-8.651305">
        <ele>132.0</ele>
        <time>2019-07-05T17:27:09Z</time>
      </trkpt>
      <trkpt lat="41.245525" lon="-8.651445">
        <ele>131.0</ele>
        <time>2019-07-05T17:27:11Z</time>
      </trkpt>
      <trkpt lat="41.245605" lon="-8.65158">
        <ele>131.0</ele>
        <time>2019-07-05T17:27:13Z</time>
      </trkpt>
      <trkpt lat="41.24569" lon="-8.65171">
        <ele>131.0</ele>
        <time>2019-07-05T17:27:15Z</time>
      </trkpt>
      <trkpt lat="41.245781666666666" lon="-8.651845">
        <ele>130.0</ele>
        <time>2019-07-05T17:27:17Z</time>
      </trkpt>
      <trkpt lat="41.24583166666667" lon="-8.651915">
        <ele>130.0</ele>
        <time>2019-07-05T17:27:18Z</time>
      </trkpt>
      <trkpt lat="41.24588" lon="-8.65199">
        <ele>129.0</ele>
        <time>2019-07-05T17:27:19Z</time>
      </trkpt>
      <trkpt lat="41.24593" lon="-8.65207">
        <ele>129.0</ele>
        <time>2019-07-05T17:27:20Z</time>
      </trkpt>
      <trkpt lat="41.245975" lon="-8.652151666666667">
        <ele>128.0</ele>
        <time>2019-07-05T17:27:21Z</time>
      </trkpt>
      <trkpt lat="41.24603" lon="-8.652225">
        <ele>128.0</ele>
        <time>2019-07-05T17:27:22Z</time>
      </trkpt>
      <trkpt lat="41.24608" lon="-8.6523">
        <ele>127.0</ele>
        <time>2019-07-05T17:27:23Z</time>
      </trkpt>
      <trkpt lat="41.246135" lon="-8.65238">
        <ele>127.0</ele>
        <time>2019-07-05T17:27:24Z</time>
      </trkpt>
      <trkpt lat="41.246185" lon="-8.652455">
        <ele>127.0</ele>
        <time>2019-07-05T17:27:25Z</time>
      </trkpt>
      <trkpt lat="41.24624" lon="-8.652535">
        <ele>126.0</ele>
        <time>2019-07-05T17:27:26Z</time>
      </trkpt>
      <trkpt lat="41.24629" lon="-8.652615">
        <ele>125.0</ele>
        <time>2019-07-05T17:27:27Z</time>
      </trkpt>
      <trkpt lat="41.246335" lon="-8.652685">
        <ele>124.0</ele>
        <time>2019-07-05T17:27:28Z</time>
      </trkpt>
      <trkpt lat="41.246386666666666" lon="-8.652756666666667">
        <ele>124.0</ele>
        <time>2019-07-05T17:27:29Z</time>
      </trkpt>
      <trkpt lat="41.24644" lon="-8.652831666666666">
        <ele>124.0</ele>
        <time>2019-07-05T17:27:30Z</time>
      </trkpt>
      <trkpt lat="41.246495" lon="-8.652896666666667">
        <ele>124.0</ele>
        <time>2019-07-05T17:27:31Z</time>
      </trkpt>
      <trkpt lat="41.24659" lon="-8.65304">
        <ele>124.0</ele>
        <time>2019-07-05T17:27:33Z</time>
      </trkpt>
      <trkpt lat="41.24668166666667" lon="-8.65317">
        <ele>124.0</ele>
        <time>2019-07-05T17:27:35Z</time>
      </trkpt>
      <trkpt lat="41.24676" lon="-8.653301666666666">
        <ele>124.0</ele>
        <time>2019-07-05T17:27:37Z</time>
      </trkpt>
      <trkpt lat="41.24683" lon="-8.653435">
        <ele>125.0</ele>
        <time>2019-07-05T17:27:39Z</time>
      </trkpt>
      <trkpt lat="41.246876666666665" lon="-8.653565">
        <ele>125.0</ele>
        <time>2019-07-05T17:27:41Z</time>
      </trkpt>
      <trkpt lat="41.246905" lon="-8.65369">
        <ele>125.0</ele>
        <time>2019-07-05T17:27:43Z</time>
      </trkpt>
      <trkpt lat="41.246921666666665" lon="-8.65382">
        <ele>125.0</ele>
        <time>2019-07-05T17:27:45Z</time>
      </trkpt>
      <trkpt lat="41.246935" lon="-8.65394">
        <ele>126.0</ele>
        <time>2019-07-05T17:27:47Z</time>
      </trkpt>
      <trkpt lat="41.24695" lon="-8.654035">
        <ele>127.0</ele>
        <time>2019-07-05T17:27:49Z</time>
      </trkpt>
      <trkpt lat="41.246966666666665" lon="-8.654175">
        <ele>128.0</ele>
        <time>2019-07-05T17:27:52Z</time>
      </trkpt>
      <trkpt lat="41.24698" lon="-8.654281666666666">
        <ele>128.0</ele>
        <time>2019-07-05T17:27:54Z</time>
      </trkpt>
      <trkpt lat="41.246993333333336" lon="-8.65439">
        <ele>129.0</ele>
        <time>2019-07-05T17:27:56Z</time>
      </trkpt>
      <trkpt lat="41.247015" lon="-8.654495">
        <ele>129.0</ele>
        <time>2019-07-05T17:27:58Z</time>
      </trkpt>
      <trkpt lat="41.247015" lon="-8.6546">
        <ele>130.0</ele>
        <time>2019-07-05T17:28:00Z</time>
      </trkpt>
      <trkpt lat="41.247031666666665" lon="-8.654725">
        <ele>130.0</ele>
        <time>2019-07-05T17:28:03Z</time>
      </trkpt>
      <trkpt lat="41.247045" lon="-8.65485">
        <ele>131.0</ele>
        <time>2019-07-05T17:28:06Z</time>
      </trkpt>
      <trkpt lat="41.24705" lon="-8.65499">
        <ele>131.0</ele>
        <time>2019-07-05T17:28:09Z</time>
      </trkpt>
      <trkpt lat="41.247065" lon="-8.6551">
        <ele>133.0</ele>
        <time>2019-07-05T17:28:11Z</time>
      </trkpt>
      <trkpt lat="41.247076666666665" lon="-8.6552">
        <ele>133.0</ele>
        <time>2019-07-05T17:28:13Z</time>
      </trkpt>
      <trkpt lat="41.247095" lon="-8.655325">
        <ele>134.0</ele>
        <time>2019-07-05T17:28:16Z</time>
      </trkpt>
      <trkpt lat="41.24711" lon="-8.655445">
        <ele>135.0</ele>
        <time>2019-07-05T17:28:19Z</time>
      </trkpt>
      <trkpt lat="41.24713" lon="-8.655565">
        <ele>135.0</ele>
        <time>2019-07-05T17:28:22Z</time>
      </trkpt>
      <trkpt lat="41.247146666666666" lon="-8.655685">
        <ele>136.0</ele>
        <time>2019-07-05T17:28:25Z</time>
      </trkpt>
      <trkpt lat="41.24716" lon="-8.655811666666667">
        <ele>136.0</ele>
        <time>2019-07-05T17:28:28Z</time>
      </trkpt>
      <trkpt lat="41.247175" lon="-8.655948333333333">
        <ele>137.0</ele>
        <time>2019-07-05T17:28:31Z</time>
      </trkpt>
      <trkpt lat="41.247195" lon="-8.656075">
        <ele>137.0</ele>
        <time>2019-07-05T17:28:34Z</time>
      </trkpt>
      <trkpt lat="41.24721" lon="-8.65621">
        <ele>138.0</ele>
        <time>2019-07-05T17:28:37Z</time>
      </trkpt>
      <trkpt lat="41.24722" lon="-8.656345">
        <ele>138.0</ele>
        <time>2019-07-05T17:28:40Z</time>
      </trkpt>
      <trkpt lat="41.247225" lon="-8.656441666666666">
        <ele>138.0</ele>
        <time>2019-07-05T17:28:42Z</time>
      </trkpt>
      <trkpt lat="41.247235" lon="-8.65654">
        <ele>138.0</ele>
        <time>2019-07-05T17:28:44Z</time>
      </trkpt>
      <trkpt lat="41.24725" lon="-8.656635">
        <ele>138.0</ele>
        <time>2019-07-05T17:28:46Z</time>
      </trkpt>
      <trkpt lat="41.24728" lon="-8.656725">
        <ele>138.0</ele>
        <time>2019-07-05T17:28:48Z</time>
      </trkpt>
      <trkpt lat="41.2473" lon="-8.656825">
        <ele>138.0</ele>
        <time>2019-07-05T17:28:50Z</time>
      </trkpt>
      <trkpt lat="41.247315" lon="-8.656925">
        <ele>137.0</ele>
        <time>2019-07-05T17:28:52Z</time>
      </trkpt>
      <trkpt lat="41.247325" lon="-8.65703">
        <ele>138.0</ele>
        <time>2019-07-05T17:28:54Z</time>
      </trkpt>
      <trkpt lat="41.24733" lon="-8.657135">
        <ele>138.0</ele>
        <time>2019-07-05T17:28:56Z</time>
      </trkpt>
      <trkpt lat="41.24734" lon="-8.657241666666666">
        <ele>138.0</ele>
        <time>2019-07-05T17:28:58Z</time>
      </trkpt>
      <trkpt lat="41.24735166666667" lon="-8.657351666666667">
        <ele>139.0</ele>
        <time>2019-07-05T17:29:00Z</time>
      </trkpt>
      <trkpt lat="41.247371666666666" lon="-8.657465">
        <ele>140.0</ele>
        <time>2019-07-05T17:29:02Z</time>
      </trkpt>
      <trkpt lat="41.24738833333333" lon="-8.65758">
        <ele>140.0</ele>
        <time>2019-07-05T17:29:04Z</time>
      </trkpt>
      <trkpt lat="41.2474" lon="-8.657686666666667">
        <ele>140.0</ele>
        <time>2019-07-05T17:29:06Z</time>
      </trkpt>
      <trkpt lat="41.24742166666667" lon="-8.65781">
        <ele>139.0</ele>
        <time>2019-07-05T17:29:09Z</time>
      </trkpt>
      <trkpt lat="41.24742666666667" lon="-8.657865">
        <ele>139.0</ele>
        <time>2019-07-05T17:29:16Z</time>
      </trkpt>
      <trkpt lat="41.24743" lon="-8.65787">
        <ele>139.0</ele>
        <time>2019-07-05T17:29:18Z</time>
      </trkpt>
      <trkpt lat="41.24743" lon="-8.65788">
        <ele>140.0</ele>
        <time>2019-07-05T17:29:26Z</time>
      </trkpt>
      <trkpt lat="41.24743" lon="-8.65788">
        <ele>140.0</ele>
        <time>2019-07-05T17:29:27Z</time>
      </trkpt>
      <trkpt lat="41.24745" lon="-8.658">
        <ele>140.0</ele>
        <time>2019-07-05T17:29:35Z</time>
      </trkpt>
      <trkpt lat="41.247465" lon="-8.658121666666666">
        <ele>140.0</ele>
        <time>2019-07-05T17:29:38Z</time>
      </trkpt>
      <trkpt lat="41.247475" lon="-8.658216666666666">
        <ele>140.0</ele>
        <time>2019-07-05T17:29:40Z</time>
      </trkpt>
      <trkpt lat="41.24745" lon="-8.65835">
        <ele>139.0</ele>
        <time>2019-07-05T17:29:43Z</time>
      </trkpt>
      <trkpt lat="41.247465" lon="-8.658495">
        <ele>138.0</ele>
        <time>2019-07-05T17:29:46Z</time>
      </trkpt>
      <trkpt lat="41.247475" lon="-8.658605">
        <ele>138.0</ele>
        <time>2019-07-05T17:29:48Z</time>
      </trkpt>
      <trkpt lat="41.247495" lon="-8.65872">
        <ele>138.0</ele>
        <time>2019-07-05T17:29:50Z</time>
      </trkpt>
      <trkpt lat="41.24751" lon="-8.658835">
        <ele>139.0</ele>
        <time>2019-07-05T17:29:52Z</time>
      </trkpt>
      <trkpt lat="41.247525" lon="-8.65895">
        <ele>139.0</ele>
        <time>2019-07-05T17:29:54Z</time>
      </trkpt>
      <trkpt lat="41.24753666666667" lon="-8.659065">
        <ele>139.0</ele>
        <time>2019-07-05T17:29:56Z</time>
      </trkpt>
      <trkpt lat="41.247555" lon="-8.65918">
        <ele>139.0</ele>
        <time>2019-07-05T17:29:58Z</time>
      </trkpt>
      <trkpt lat="41.24757" lon="-8.659295">
        <ele>140.0</ele>
        <time>2019-07-05T17:30:00Z</time>
      </trkpt>
      <trkpt lat="41.247585" lon="-8.659405">
        <ele>139.0</ele>
        <time>2019-07-05T17:30:02Z</time>
      </trkpt>
      <trkpt lat="41.247598333333336" lon="-8.659515">
        <ele>139.0</ele>
        <time>2019-07-05T17:30:04Z</time>
      </trkpt>
      <trkpt lat="41.247615" lon="-8.65963">
        <ele>140.0</ele>
        <time>2019-07-05T17:30:06Z</time>
      </trkpt>
      <trkpt lat="41.247625" lon="-8.65974">
        <ele>139.0</ele>
        <time>2019-07-05T17:30:08Z</time>
      </trkpt>
      <trkpt lat="41.247645" lon="-8.659845">
        <ele>140.0</ele>
        <time>2019-07-05T17:30:10Z</time>
      </trkpt>
      <trkpt lat="41.247645" lon="-8.65995">
        <ele>140.0</ele>
        <time>2019-07-05T17:30:13Z</time>
      </trkpt>
      <trkpt lat="41.24765" lon="-8.660056666666666">
        <ele>140.0</ele>
        <time>2019-07-05T17:30:16Z</time>
      </trkpt>
      <trkpt lat="41.24769" lon="-8.66015">
        <ele>141.0</ele>
        <time>2019-07-05T17:30:21Z</time>
      </trkpt>
      <trkpt lat="41.247715" lon="-8.66024">
        <ele>141.0</ele>
        <time>2019-07-05T17:30:24Z</time>
      </trkpt>
      <trkpt lat="41.24772" lon="-8.66036">
        <ele>141.0</ele>
        <time>2019-07-05T17:30:26Z</time>
      </trkpt>
      <trkpt lat="41.24773166666667" lon="-8.660485">
        <ele>141.0</ele>
        <time>2019-07-05T17:30:28Z</time>
      </trkpt>
      <trkpt lat="41.24774" lon="-8.6606">
        <ele>142.0</ele>
        <time>2019-07-05T17:30:30Z</time>
      </trkpt>
      <trkpt lat="41.24775666666667" lon="-8.660715">
        <ele>142.0</ele>
        <time>2019-07-05T17:30:32Z</time>
      </trkpt>
      <trkpt lat="41.247765" lon="-8.660821666666667">
        <ele>142.0</ele>
        <time>2019-07-05T17:30:34Z</time>
      </trkpt>
      <trkpt lat="41.247785" lon="-8.660945">
        <ele>142.0</ele>
        <time>2019-07-05T17:30:37Z</time>
      </trkpt>
      <trkpt lat="41.24779" lon="-8.661063333333333">
        <ele>141.0</ele>
        <time>2019-07-05T17:30:42Z</time>
      </trkpt>
      <trkpt lat="41.247815" lon="-8.661185">
        <ele>142.0</ele>
        <time>2019-07-05T17:30:45Z</time>
      </trkpt>
      <trkpt lat="41.247855" lon="-8.661311666666666">
        <ele>143.0</ele>
        <time>2019-07-05T17:30:48Z</time>
      </trkpt>
      <trkpt lat="41.247865" lon="-8.661431666666667">
        <ele>143.0</ele>
        <time>2019-07-05T17:30:50Z</time>
      </trkpt>
      <trkpt lat="41.24788" lon="-8.66155">
        <ele>143.0</ele>
        <time>2019-07-05T17:30:52Z</time>
      </trkpt>
      <trkpt lat="41.2479" lon="-8.66165">
        <ele>143.0</ele>
        <time>2019-07-05T17:30:54Z</time>
      </trkpt>
      <trkpt lat="41.247926666666665" lon="-8.661755">
        <ele>143.0</ele>
        <time>2019-07-05T17:30:56Z</time>
      </trkpt>
      <trkpt lat="41.247945" lon="-8.661865">
        <ele>143.0</ele>
        <time>2019-07-05T17:30:58Z</time>
      </trkpt>
      <trkpt lat="41.247955" lon="-8.66198">
        <ele>143.0</ele>
        <time>2019-07-05T17:31:00Z</time>
      </trkpt>
      <trkpt lat="41.24796" lon="-8.662075">
        <ele>143.0</ele>
        <time>2019-07-05T17:31:03Z</time>
      </trkpt>
      <trkpt lat="41.24798666666667" lon="-8.662186666666667">
        <ele>143.0</ele>
        <time>2019-07-05T17:31:08Z</time>
      </trkpt>
      <trkpt lat="41.248005" lon="-8.66221">
        <ele>143.0</ele>
        <time>2019-07-05T17:31:15Z</time>
      </trkpt>
      <trkpt lat="41.247965" lon="-8.662315">
        <ele>143.0</ele>
        <time>2019-07-05T17:31:19Z</time>
      </trkpt>
      <trkpt lat="41.24792" lon="-8.6624">
        <ele>143.0</ele>
        <time>2019-07-05T17:31:21Z</time>
      </trkpt>
      <trkpt lat="41.247885" lon="-8.662495">
        <ele>142.0</ele>
        <time>2019-07-05T17:31:23Z</time>
      </trkpt>
      <trkpt lat="41.247836666666664" lon="-8.662596666666667">
        <ele>142.0</ele>
        <time>2019-07-05T17:31:25Z</time>
      </trkpt>
      <trkpt lat="41.2478" lon="-8.662686666666668">
        <ele>143.0</ele>
        <time>2019-07-05T17:31:27Z</time>
      </trkpt>
      <trkpt lat="41.247753333333335" lon="-8.662775">
        <ele>142.0</ele>
        <time>2019-07-05T17:31:29Z</time>
      </trkpt>
      <trkpt lat="41.247715" lon="-8.66286">
        <ele>142.0</ele>
        <time>2019-07-05T17:31:31Z</time>
      </trkpt>
      <trkpt lat="41.247675" lon="-8.66295">
        <ele>142.0</ele>
        <time>2019-07-05T17:31:33Z</time>
      </trkpt>
      <trkpt lat="41.24764" lon="-8.66305">
        <ele>142.0</ele>
        <time>2019-07-05T17:31:35Z</time>
      </trkpt>
      <trkpt lat="41.247675" lon="-8.663156666666668">
        <ele>142.0</ele>
        <time>2019-07-05T17:31:37Z</time>
      </trkpt>
      <trkpt lat="41.24774" lon="-8.663245">
        <ele>142.0</ele>
        <time>2019-07-05T17:31:39Z</time>
      </trkpt>
      <trkpt lat="41.2478" lon="-8.663335">
        <ele>143.0</ele>
        <time>2019-07-05T17:31:41Z</time>
      </trkpt>
      <trkpt lat="41.247861666666665" lon="-8.66343">
        <ele>143.0</ele>
        <time>2019-07-05T17:31:43Z</time>
      </trkpt>
      <trkpt lat="41.247931666666666" lon="-8.663525">
        <ele>142.0</ele>
        <time>2019-07-05T17:31:45Z</time>
      </trkpt>
      <trkpt lat="41.24799" lon="-8.663636666666667">
        <ele>144.0</ele>
        <time>2019-07-05T17:31:47Z</time>
      </trkpt>
      <trkpt lat="41.24805833333333" lon="-8.66374">
        <ele>144.0</ele>
        <time>2019-07-05T17:31:49Z</time>
      </trkpt>
      <trkpt lat="41.248125" lon="-8.663855">
        <ele>144.0</ele>
        <time>2019-07-05T17:31:51Z</time>
      </trkpt>
      <trkpt lat="41.24819" lon="-8.66397">
        <ele>143.0</ele>
        <time>2019-07-05T17:31:53Z</time>
      </trkpt>
      <trkpt lat="41.24826" lon="-8.66408">
        <ele>143.0</ele>
        <time>2019-07-05T17:31:55Z</time>
      </trkpt>
      <trkpt lat="41.248335" lon="-8.664185">
        <ele>142.0</ele>
        <time>2019-07-05T17:31:57Z</time>
      </trkpt>
      <trkpt lat="41.248415" lon="-8.664296666666667">
        <ele>142.0</ele>
        <time>2019-07-05T17:31:59Z</time>
      </trkpt>
      <trkpt lat="41.24849666666667" lon="-8.664415">
        <ele>141.0</ele>
        <time>2019-07-05T17:32:01Z</time>
      </trkpt>
      <trkpt lat="41.24858166666667" lon="-8.664525">
        <ele>141.0</ele>
        <time>2019-07-05T17:32:03Z</time>
      </trkpt>
      <trkpt lat="41.248666666666665" lon="-8.664645">
        <ele>140.0</ele>
        <time>2019-07-05T17:32:05Z</time>
      </trkpt>
      <trkpt lat="41.24876" lon="-8.664771666666667">
        <ele>140.0</ele>
        <time>2019-07-05T17:32:07Z</time>
      </trkpt>
      <trkpt lat="41.24886" lon="-8.664905">
        <ele>140.0</ele>
        <time>2019-07-05T17:32:09Z</time>
      </trkpt>
      <trkpt lat="41.248955" lon="-8.665038333333333">
        <ele>139.0</ele>
        <time>2019-07-05T17:32:11Z</time>
      </trkpt>
      <trkpt lat="41.249055" lon="-8.66518">
        <ele>138.0</ele>
        <time>2019-07-05T17:32:13Z</time>
      </trkpt>
      <trkpt lat="41.249105" lon="-8.66525">
        <ele>137.0</ele>
        <time>2019-07-05T17:32:14Z</time>
      </trkpt>
      <trkpt lat="41.249155" lon="-8.66532">
        <ele>137.0</ele>
        <time>2019-07-05T17:32:15Z</time>
      </trkpt>
      <trkpt lat="41.249205" lon="-8.66539">
        <ele>136.0</ele>
        <time>2019-07-05T17:32:16Z</time>
      </trkpt>
      <trkpt lat="41.24926" lon="-8.66546">
        <ele>136.0</ele>
        <time>2019-07-05T17:32:17Z</time>
      </trkpt>
      <trkpt lat="41.24932" lon="-8.665525">
        <ele>136.0</ele>
        <time>2019-07-05T17:32:18Z</time>
      </trkpt>
      <trkpt lat="41.24938" lon="-8.66558">
        <ele>136.0</ele>
        <time>2019-07-05T17:32:19Z</time>
      </trkpt>
      <trkpt lat="41.24951" lon="-8.665663333333333">
        <ele>136.0</ele>
        <time>2019-07-05T17:32:21Z</time>
      </trkpt>
      <trkpt lat="41.249575" lon="-8.665715">
        <ele>135.0</ele>
        <time>2019-07-05T17:32:22Z</time>
      </trkpt>
      <trkpt lat="41.249645" lon="-8.665751666666667">
        <ele>135.0</ele>
        <time>2019-07-05T17:32:23Z</time>
      </trkpt>
      <trkpt lat="41.24971" lon="-8.665796666666667">
        <ele>134.0</ele>
        <time>2019-07-05T17:32:24Z</time>
      </trkpt>
      <trkpt lat="41.249835" lon="-8.66589">
        <ele>134.0</ele>
        <time>2019-07-05T17:32:26Z</time>
      </trkpt>
      <trkpt lat="41.2499" lon="-8.665935">
        <ele>134.0</ele>
        <time>2019-07-05T17:32:27Z</time>
      </trkpt>
      <trkpt lat="41.24996" lon="-8.665985">
        <ele>134.0</ele>
        <time>2019-07-05T17:32:28Z</time>
      </trkpt>
      <trkpt lat="41.25002" lon="-8.66604">
        <ele>133.0</ele>
        <time>2019-07-05T17:32:29Z</time>
      </trkpt>
      <trkpt lat="41.25013" lon="-8.66615">
        <ele>133.0</ele>
        <time>2019-07-05T17:32:31Z</time>
      </trkpt>
      <trkpt lat="41.25024" lon="-8.666271666666667">
        <ele>132.0</ele>
        <time>2019-07-05T17:32:33Z</time>
      </trkpt>
      <trkpt lat="41.25034" lon="-8.6664">
        <ele>132.0</ele>
        <time>2019-07-05T17:32:35Z</time>
      </trkpt>
      <trkpt lat="41.250425" lon="-8.666535">
        <ele>132.0</ele>
        <time>2019-07-05T17:32:37Z</time>
      </trkpt>
      <trkpt lat="41.25051666666667" lon="-8.666655">
        <ele>131.0</ele>
        <time>2019-07-05T17:32:39Z</time>
      </trkpt>
      <trkpt lat="41.250605" lon="-8.666781666666667">
        <ele>131.0</ele>
        <time>2019-07-05T17:32:41Z</time>
      </trkpt>
      <trkpt lat="41.25068666666667" lon="-8.666911666666667">
        <ele>132.0</ele>
        <time>2019-07-05T17:32:43Z</time>
      </trkpt>
      <trkpt lat="41.250771666666665" lon="-8.66704">
        <ele>132.0</ele>
        <time>2019-07-05T17:32:45Z</time>
      </trkpt>
      <trkpt lat="41.25085166666667" lon="-8.667175">
        <ele>132.0</ele>
        <time>2019-07-05T17:32:47Z</time>
      </trkpt>
      <trkpt lat="41.25093" lon="-8.667305">
        <ele>131.0</ele>
        <time>2019-07-05T17:32:49Z</time>
      </trkpt>
      <trkpt lat="41.25101333333333" lon="-8.667435">
        <ele>131.0</ele>
        <time>2019-07-05T17:32:51Z</time>
      </trkpt>
      <trkpt lat="41.251095" lon="-8.667565">
        <ele>130.0</ele>
        <time>2019-07-05T17:32:53Z</time>
      </trkpt>
      <trkpt lat="41.251176666666666" lon="-8.667695">
        <ele>130.0</ele>
        <time>2019-07-05T17:32:55Z</time>
      </trkpt>
      <trkpt lat="41.25125166666667" lon="-8.66783">
        <ele>129.0</ele>
        <time>2019-07-05T17:32:57Z</time>
      </trkpt>
      <trkpt lat="41.251305" lon="-8.667985">
        <ele>129.0</ele>
        <time>2019-07-05T17:32:59Z</time>
      </trkpt>
      <trkpt lat="41.251326666666664" lon="-8.66815">
        <ele>129.0</ele>
        <time>2019-07-05T17:33:01Z</time>
      </trkpt>
      <trkpt lat="41.25133" lon="-8.66833">
        <ele>128.0</ele>
        <time>2019-07-05T17:33:03Z</time>
      </trkpt>
      <trkpt lat="41.251295" lon="-8.668495">
        <ele>127.0</ele>
        <time>2019-07-05T17:33:05Z</time>
      </trkpt>
      <trkpt lat="41.25123" lon="-8.66865">
        <ele>127.0</ele>
        <time>2019-07-05T17:33:07Z</time>
      </trkpt>
      <trkpt lat="41.25116833333333" lon="-8.668788333333334">
        <ele>127.0</ele>
        <time>2019-07-05T17:33:09Z</time>
      </trkpt>
      <trkpt lat="41.25110333333333" lon="-8.668936666666667">
        <ele>127.0</ele>
        <time>2019-07-05T17:33:11Z</time>
      </trkpt>
      <trkpt lat="41.25104" lon="-8.669086666666667">
        <ele>126.0</ele>
        <time>2019-07-05T17:33:13Z</time>
      </trkpt>
      <trkpt lat="41.250976666666666" lon="-8.669236666666666">
        <ele>127.0</ele>
        <time>2019-07-05T17:33:15Z</time>
      </trkpt>
      <trkpt lat="41.25091" lon="-8.669381666666666">
        <ele>127.0</ele>
        <time>2019-07-05T17:33:17Z</time>
      </trkpt>
      <trkpt lat="41.25084" lon="-8.669525">
        <ele>127.0</ele>
        <time>2019-07-05T17:33:19Z</time>
      </trkpt>
      <trkpt lat="41.250775" lon="-8.669661666666666">
        <ele>127.0</ele>
        <time>2019-07-05T17:33:21Z</time>
      </trkpt>
      <trkpt lat="41.25072" lon="-8.669805">
        <ele>126.0</ele>
        <time>2019-07-05T17:33:23Z</time>
      </trkpt>
      <trkpt lat="41.250675" lon="-8.66996">
        <ele>126.0</ele>
        <time>2019-07-05T17:33:25Z</time>
      </trkpt>
      <trkpt lat="41.25066" lon="-8.670125">
        <ele>125.0</ele>
        <time>2019-07-05T17:33:27Z</time>
      </trkpt>
      <trkpt lat="41.250656666666664" lon="-8.67029">
        <ele>125.0</ele>
        <time>2019-07-05T17:33:29Z</time>
      </trkpt>
      <trkpt lat="41.250675" lon="-8.670436666666667">
        <ele>125.0</ele>
        <time>2019-07-05T17:33:31Z</time>
      </trkpt>
      <trkpt lat="41.25067666666666" lon="-8.670586666666667">
        <ele>125.0</ele>
        <time>2019-07-05T17:33:33Z</time>
      </trkpt>
      <trkpt lat="41.250656666666664" lon="-8.670735">
        <ele>124.0</ele>
        <time>2019-07-05T17:33:35Z</time>
      </trkpt>
      <trkpt lat="41.250625" lon="-8.670866666666667">
        <ele>124.0</ele>
        <time>2019-07-05T17:33:37Z</time>
      </trkpt>
      <trkpt lat="41.250591666666665" lon="-8.67099">
        <ele>124.0</ele>
        <time>2019-07-05T17:33:39Z</time>
      </trkpt>
      <trkpt lat="41.250555" lon="-8.67111">
        <ele>123.0</ele>
        <time>2019-07-05T17:33:41Z</time>
      </trkpt>
      <trkpt lat="41.250515" lon="-8.67124">
        <ele>123.0</ele>
        <time>2019-07-05T17:33:43Z</time>
      </trkpt>
      <trkpt lat="41.250465" lon="-8.671365">
        <ele>123.0</ele>
        <time>2019-07-05T17:33:45Z</time>
      </trkpt>
      <trkpt lat="41.25042166666667" lon="-8.671465">
        <ele>123.0</ele>
        <time>2019-07-05T17:33:47Z</time>
      </trkpt>
      <trkpt lat="41.25037666666667" lon="-8.67156">
        <ele>124.0</ele>
        <time>2019-07-05T17:33:49Z</time>
      </trkpt>
      <trkpt lat="41.250345" lon="-8.67165">
        <ele>124.0</ele>
        <time>2019-07-05T17:33:51Z</time>
      </trkpt>
      <trkpt lat="41.25038166666667" lon="-8.671775">
        <ele>124.0</ele>
        <time>2019-07-05T17:33:54Z</time>
      </trkpt>
      <trkpt lat="41.250436666666666" lon="-8.671865">
        <ele>125.0</ele>
        <time>2019-07-05T17:33:56Z</time>
      </trkpt>
      <trkpt lat="41.250495" lon="-8.671965">
        <ele>125.0</ele>
        <time>2019-07-05T17:33:58Z</time>
      </trkpt>
      <trkpt lat="41.25054" lon="-8.672066666666666">
        <ele>125.0</ele>
        <time>2019-07-05T17:34:00Z</time>
      </trkpt>
      <trkpt lat="41.25059" lon="-8.672195">
        <ele>125.0</ele>
        <time>2019-07-05T17:34:02Z</time>
      </trkpt>
      <trkpt lat="41.25067" lon="-8.67226">
        <ele>125.0</ele>
        <time>2019-07-05T17:34:04Z</time>
      </trkpt>
      <trkpt lat="41.25075" lon="-8.672325">
        <ele>125.0</ele>
        <time>2019-07-05T17:34:06Z</time>
      </trkpt>
      <trkpt lat="41.25083" lon="-8.672406666666667">
        <ele>126.0</ele>
        <time>2019-07-05T17:34:08Z</time>
      </trkpt>
      <trkpt lat="41.250933333333336" lon="-8.67245">
        <ele>125.0</ele>
        <time>2019-07-05T17:34:10Z</time>
      </trkpt>
      <trkpt lat="41.251025" lon="-8.672525">
        <ele>126.0</ele>
        <time>2019-07-05T17:34:12Z</time>
      </trkpt>
      <trkpt lat="41.25112" lon="-8.672598333333333">
        <ele>126.0</ele>
        <time>2019-07-05T17:34:14Z</time>
      </trkpt>
      <trkpt lat="41.25121" lon="-8.67267">
        <ele>126.0</ele>
        <time>2019-07-05T17:34:16Z</time>
      </trkpt>
      <trkpt lat="41.2513" lon="-8.672746666666667">
        <ele>125.0</ele>
        <time>2019-07-05T17:34:18Z</time>
      </trkpt>
      <trkpt lat="41.25138" lon="-8.67284">
        <ele>125.0</ele>
        <time>2019-07-05T17:34:20Z</time>
      </trkpt>
      <trkpt lat="41.25145166666667" lon="-8.67295">
        <ele>124.0</ele>
        <time>2019-07-05T17:34:22Z</time>
      </trkpt>
      <trkpt lat="41.251515" lon="-8.673075">
        <ele>125.0</ele>
        <time>2019-07-05T17:34:24Z</time>
      </trkpt>
      <trkpt lat="41.25158" lon="-8.6732">
        <ele>125.0</ele>
        <time>2019-07-05T17:34:26Z</time>
      </trkpt>
      <trkpt lat="41.25165" lon="-8.67332">
        <ele>124.0</ele>
        <time>2019-07-05T17:34:28Z</time>
      </trkpt>
      <trkpt lat="41.25172" lon="-8.67345">
        <ele>124.0</ele>
        <time>2019-07-05T17:34:30Z</time>
      </trkpt>
      <trkpt lat="41.251785" lon="-8.673591666666667">
        <ele>124.0</ele>
        <time>2019-07-05T17:34:32Z</time>
      </trkpt>
      <trkpt lat="41.25186" lon="-8.673713333333334">
        <ele>124.0</ele>
        <time>2019-07-05T17:34:34Z</time>
      </trkpt>
      <trkpt lat="41.25194166666667" lon="-8.673836666666666">
        <ele>124.0</ele>
        <time>2019-07-05T17:34:36Z</time>
      </trkpt>
      <trkpt lat="41.252025" lon="-8.673945">
        <ele>124.0</ele>
        <time>2019-07-05T17:34:38Z</time>
      </trkpt>
      <trkpt lat="41.252115" lon="-8.674055">
        <ele>124.0</ele>
        <time>2019-07-05T17:34:40Z</time>
      </trkpt>
      <trkpt lat="41.2522" lon="-8.674165">
        <ele>124.0</ele>
        <time>2019-07-05T17:34:42Z</time>
      </trkpt>
      <trkpt lat="41.252298333333336" lon="-8.674275">
        <ele>123.0</ele>
        <time>2019-07-05T17:34:44Z</time>
      </trkpt>
      <trkpt lat="41.252405" lon="-8.674378333333333">
        <ele>123.0</ele>
        <time>2019-07-05T17:34:46Z</time>
      </trkpt>
      <trkpt lat="41.252515" lon="-8.674471666666667">
        <ele>122.0</ele>
        <time>2019-07-05T17:34:48Z</time>
      </trkpt>
      <trkpt lat="41.252626666666664" lon="-8.67456">
        <ele>122.0</ele>
        <time>2019-07-05T17:34:50Z</time>
      </trkpt>
      <trkpt lat="41.25274666666667" lon="-8.67464">
        <ele>122.0</ele>
        <time>2019-07-05T17:34:52Z</time>
      </trkpt>
      <trkpt lat="41.25287" lon="-8.674715">
        <ele>122.0</ele>
        <time>2019-07-05T17:34:54Z</time>
      </trkpt>
      <trkpt lat="41.252995" lon="-8.674785">
        <ele>122.0</ele>
        <time>2019-07-05T17:34:56Z</time>
      </trkpt>
      <trkpt lat="41.25312" lon="-8.67486">
        <ele>121.0</ele>
        <time>2019-07-05T17:34:58Z</time>
      </trkpt>
      <trkpt lat="41.25324" lon="-8.674945">
        <ele>121.0</ele>
        <time>2019-07-05T17:35:00Z</time>
      </trkpt>
      <trkpt lat="41.253355" lon="-8.675041666666667">
        <ele>121.0</ele>
        <time>2019-07-05T17:35:02Z</time>
      </trkpt>
      <trkpt lat="41.25347" lon="-8.675155">
        <ele>120.0</ele>
        <time>2019-07-05T17:35:04Z</time>
      </trkpt>
      <trkpt lat="41.25358" lon="-8.675271666666667">
        <ele>120.0</ele>
        <time>2019-07-05T17:35:06Z</time>
      </trkpt>
      <trkpt lat="41.25369" lon="-8.67539">
        <ele>120.0</ele>
        <time>2019-07-05T17:35:08Z</time>
      </trkpt>
      <trkpt lat="41.2538" lon="-8.67551">
        <ele>120.0</ele>
        <time>2019-07-05T17:35:10Z</time>
      </trkpt>
      <trkpt lat="41.253855" lon="-8.675571666666666">
        <ele>120.0</ele>
        <time>2019-07-05T17:35:11Z</time>
      </trkpt>
      <trkpt lat="41.253955" lon="-8.67571">
        <ele>120.0</ele>
        <time>2019-07-05T17:35:13Z</time>
      </trkpt>
      <trkpt lat="41.25401" lon="-8.675873333333334">
        <ele>119.0</ele>
        <time>2019-07-05T17:35:15Z</time>
      </trkpt>
      <trkpt lat="41.254035" lon="-8.676045">
        <ele>119.0</ele>
        <time>2019-07-05T17:35:17Z</time>
      </trkpt>
      <trkpt lat="41.25408" lon="-8.676205">
        <ele>119.0</ele>
        <time>2019-07-05T17:35:19Z</time>
      </trkpt>
      <trkpt lat="41.254105" lon="-8.676375">
        <ele>119.0</ele>
        <time>2019-07-05T17:35:21Z</time>
      </trkpt>
      <trkpt lat="41.25414" lon="-8.67655">
        <ele>119.0</ele>
        <time>2019-07-05T17:35:23Z</time>
      </trkpt>
      <trkpt lat="41.254185" lon="-8.67672">
        <ele>118.0</ele>
        <time>2019-07-05T17:35:25Z</time>
      </trkpt>
      <trkpt lat="41.25422" lon="-8.676895">
        <ele>118.0</ele>
        <time>2019-07-05T17:35:27Z</time>
      </trkpt>
      <trkpt lat="41.254261666666665" lon="-8.677065">
        <ele>117.0</ele>
        <time>2019-07-05T17:35:29Z</time>
      </trkpt>
      <trkpt lat="41.25428333333333" lon="-8.67716">
        <ele>117.0</ele>
        <time>2019-07-05T17:35:30Z</time>
      </trkpt>
      <trkpt lat="41.25434166666667" lon="-8.677325">
        <ele>117.0</ele>
        <time>2019-07-05T17:35:32Z</time>
      </trkpt>
      <trkpt lat="41.25438" lon="-8.677415">
        <ele>116.0</ele>
        <time>2019-07-05T17:35:33Z</time>
      </trkpt>
      <trkpt lat="41.254415" lon="-8.677505">
        <ele>116.0</ele>
        <time>2019-07-05T17:35:34Z</time>
      </trkpt>
      <trkpt lat="41.25445" lon="-8.67759">
        <ele>116.0</ele>
        <time>2019-07-05T17:35:35Z</time>
      </trkpt>
      <trkpt lat="41.254495" lon="-8.677675">
        <ele>115.0</ele>
        <time>2019-07-05T17:35:36Z</time>
      </trkpt>
      <trkpt lat="41.25454166666667" lon="-8.67776">
        <ele>115.0</ele>
        <time>2019-07-05T17:35:37Z</time>
      </trkpt>
      <trkpt lat="41.254585" lon="-8.67784">
        <ele>115.0</ele>
        <time>2019-07-05T17:35:38Z</time>
      </trkpt>
      <trkpt lat="41.25463166666667" lon="-8.677925">
        <ele>115.0</ele>
        <time>2019-07-05T17:35:39Z</time>
      </trkpt>
      <trkpt lat="41.25468" lon="-8.678011666666666">
        <ele>115.0</ele>
        <time>2019-07-05T17:35:40Z</time>
      </trkpt>
      <trkpt lat="41.254725" lon="-8.6781">
        <ele>115.0</ele>
        <time>2019-07-05T17:35:41Z</time>
      </trkpt>
      <trkpt lat="41.25478" lon="-8.67818">
        <ele>114.0</ele>
        <time>2019-07-05T17:35:42Z</time>
      </trkpt>
      <trkpt lat="41.25484" lon="-8.678255">
        <ele>114.0</ele>
        <time>2019-07-05T17:35:43Z</time>
      </trkpt>
      <trkpt lat="41.25490666666666" lon="-8.678316666666667">
        <ele>114.0</ele>
        <time>2019-07-05T17:35:44Z</time>
      </trkpt>
      <trkpt lat="41.25497333333333" lon="-8.678375">
        <ele>114.0</ele>
        <time>2019-07-05T17:35:45Z</time>
      </trkpt>
      <trkpt lat="41.25504" lon="-8.678435">
        <ele>114.0</ele>
        <time>2019-07-05T17:35:46Z</time>
      </trkpt>
      <trkpt lat="41.255105" lon="-8.6785">
        <ele>114.0</ele>
        <time>2019-07-05T17:35:47Z</time>
      </trkpt>
      <trkpt lat="41.255175" lon="-8.678555">
        <ele>114.0</ele>
        <time>2019-07-05T17:35:48Z</time>
      </trkpt>
      <trkpt lat="41.25524" lon="-8.67861">
        <ele>114.0</ele>
        <time>2019-07-05T17:35:49Z</time>
      </trkpt>
      <trkpt lat="41.2553" lon="-8.67867">
        <ele>114.0</ele>
        <time>2019-07-05T17:35:50Z</time>
      </trkpt>
      <trkpt lat="41.255375" lon="-8.67871">
        <ele>114.0</ele>
        <time>2019-07-05T17:35:51Z</time>
      </trkpt>
      <trkpt lat="41.255445" lon="-8.67874">
        <ele>114.0</ele>
        <time>2019-07-05T17:35:52Z</time>
      </trkpt>
      <trkpt lat="41.25552666666667" lon="-8.67876">
        <ele>114.0</ele>
        <time>2019-07-05T17:35:53Z</time>
      </trkpt>
      <trkpt lat="41.255605" lon="-8.678776666666666">
        <ele>113.0</ele>
        <time>2019-07-05T17:35:54Z</time>
      </trkpt>
      <trkpt lat="41.25568" lon="-8.678791666666667">
        <ele>113.0</ele>
        <time>2019-07-05T17:35:55Z</time>
      </trkpt>
      <trkpt lat="41.25576" lon="-8.6788">
        <ele>113.0</ele>
        <time>2019-07-05T17:35:56Z</time>
      </trkpt>
      <trkpt lat="41.255835" lon="-8.67881">
        <ele>113.0</ele>
        <time>2019-07-05T17:35:57Z</time>
      </trkpt>
      <trkpt lat="41.25590666666667" lon="-8.678811666666666">
        <ele>113.0</ele>
        <time>2019-07-05T17:35:58Z</time>
      </trkpt>
      <trkpt lat="41.255985" lon="-8.6788">
        <ele>112.0</ele>
        <time>2019-07-05T17:35:59Z</time>
      </trkpt>
      <trkpt lat="41.25606" lon="-8.67879">
        <ele>112.0</ele>
        <time>2019-07-05T17:36:00Z</time>
      </trkpt>
      <trkpt lat="41.25614" lon="-8.67879">
        <ele>112.0</ele>
        <time>2019-07-05T17:36:01Z</time>
      </trkpt>
      <trkpt lat="41.25621666666667" lon="-8.6788">
        <ele>111.0</ele>
        <time>2019-07-05T17:36:02Z</time>
      </trkpt>
      <trkpt lat="41.256295" lon="-8.67881">
        <ele>111.0</ele>
        <time>2019-07-05T17:36:03Z</time>
      </trkpt>
      <trkpt lat="41.256375" lon="-8.678825">
        <ele>111.0</ele>
        <time>2019-07-05T17:36:04Z</time>
      </trkpt>
      <trkpt lat="41.25645" lon="-8.67885">
        <ele>110.0</ele>
        <time>2019-07-05T17:36:05Z</time>
      </trkpt>
      <trkpt lat="41.25653" lon="-8.678875">
        <ele>110.0</ele>
        <time>2019-07-05T17:36:06Z</time>
      </trkpt>
      <trkpt lat="41.25661" lon="-8.678901666666667">
        <ele>109.0</ele>
        <time>2019-07-05T17:36:07Z</time>
      </trkpt>
      <trkpt lat="41.256685" lon="-8.67892">
        <ele>109.0</ele>
        <time>2019-07-05T17:36:08Z</time>
      </trkpt>
      <trkpt lat="41.25676" lon="-8.678935">
        <ele>108.0</ele>
        <time>2019-07-05T17:36:09Z</time>
      </trkpt>
      <trkpt lat="41.256835" lon="-8.67894">
        <ele>108.0</ele>
        <time>2019-07-05T17:36:10Z</time>
      </trkpt>
      <trkpt lat="41.256915" lon="-8.67895">
        <ele>107.0</ele>
        <time>2019-07-05T17:36:11Z</time>
      </trkpt>
      <trkpt lat="41.256991666666664" lon="-8.67897">
        <ele>106.0</ele>
        <time>2019-07-05T17:36:12Z</time>
      </trkpt>
      <trkpt lat="41.25707" lon="-8.679">
        <ele>106.0</ele>
        <time>2019-07-05T17:36:13Z</time>
      </trkpt>
      <trkpt lat="41.257151666666665" lon="-8.679018333333334">
        <ele>106.0</ele>
        <time>2019-07-05T17:36:14Z</time>
      </trkpt>
      <trkpt lat="41.25723833333333" lon="-8.679036666666667">
        <ele>105.0</ele>
        <time>2019-07-05T17:36:15Z</time>
      </trkpt>
      <trkpt lat="41.257325" lon="-8.679065">
        <ele>105.0</ele>
        <time>2019-07-05T17:36:16Z</time>
      </trkpt>
      <trkpt lat="41.257405" lon="-8.6791">
        <ele>105.0</ele>
        <time>2019-07-05T17:36:17Z</time>
      </trkpt>
      <trkpt lat="41.25749" lon="-8.67914">
        <ele>105.0</ele>
        <time>2019-07-05T17:36:18Z</time>
      </trkpt>
      <trkpt lat="41.257571666666664" lon="-8.679185">
        <ele>105.0</ele>
        <time>2019-07-05T17:36:19Z</time>
      </trkpt>
      <trkpt lat="41.257655" lon="-8.67923">
        <ele>105.0</ele>
        <time>2019-07-05T17:36:20Z</time>
      </trkpt>
      <trkpt lat="41.257745" lon="-8.679265">
        <ele>104.0</ele>
        <time>2019-07-05T17:36:21Z</time>
      </trkpt>
      <trkpt lat="41.257835" lon="-8.67931">
        <ele>103.0</ele>
        <time>2019-07-05T17:36:22Z</time>
      </trkpt>
      <trkpt lat="41.25792" lon="-8.679355">
        <ele>103.0</ele>
        <time>2019-07-05T17:36:23Z</time>
      </trkpt>
      <trkpt lat="41.25801" lon="-8.679401666666667">
        <ele>103.0</ele>
        <time>2019-07-05T17:36:24Z</time>
      </trkpt>
      <trkpt lat="41.258095" lon="-8.679445">
        <ele>102.0</ele>
        <time>2019-07-05T17:36:25Z</time>
      </trkpt>
      <trkpt lat="41.258175" lon="-8.67949">
        <ele>102.0</ele>
        <time>2019-07-05T17:36:26Z</time>
      </trkpt>
      <trkpt lat="41.258255" lon="-8.679535">
        <ele>102.0</ele>
        <time>2019-07-05T17:36:27Z</time>
      </trkpt>
      <trkpt lat="41.25833" lon="-8.67957">
        <ele>101.0</ele>
        <time>2019-07-05T17:36:28Z</time>
      </trkpt>
      <trkpt lat="41.2584" lon="-8.679605">
        <ele>101.0</ele>
        <time>2019-07-05T17:36:29Z</time>
      </trkpt>
      <trkpt lat="41.25853" lon="-8.679671666666666">
        <ele>101.0</ele>
        <time>2019-07-05T17:36:31Z</time>
      </trkpt>
      <trkpt lat="41.258655" lon="-8.67973">
        <ele>101.0</ele>
        <time>2019-07-05T17:36:33Z</time>
      </trkpt>
      <trkpt lat="41.25878" lon="-8.679771666666667">
        <ele>101.0</ele>
        <time>2019-07-05T17:36:35Z</time>
      </trkpt>
      <trkpt lat="41.258898333333335" lon="-8.679776666666667">
        <ele>101.0</ele>
        <time>2019-07-05T17:36:37Z</time>
      </trkpt>
      <trkpt lat="41.25902" lon="-8.679785">
        <ele>101.0</ele>
        <time>2019-07-05T17:36:39Z</time>
      </trkpt>
      <trkpt lat="41.259135" lon="-8.679795">
        <ele>102.0</ele>
        <time>2019-07-05T17:36:41Z</time>
      </trkpt>
      <trkpt lat="41.259256666666666" lon="-8.6798">
        <ele>103.0</ele>
        <time>2019-07-05T17:36:43Z</time>
      </trkpt>
      <trkpt lat="41.25938" lon="-8.67984">
        <ele>103.0</ele>
        <time>2019-07-05T17:36:45Z</time>
      </trkpt>
      <trkpt lat="41.259481666666666" lon="-8.679891666666666">
        <ele>103.0</ele>
        <time>2019-07-05T17:36:47Z</time>
      </trkpt>
      <trkpt lat="41.259586666666664" lon="-8.67995">
        <ele>103.0</ele>
        <time>2019-07-05T17:36:49Z</time>
      </trkpt>
      <trkpt lat="41.259695" lon="-8.680003333333334">
        <ele>103.0</ele>
        <time>2019-07-05T17:36:51Z</time>
      </trkpt>
      <trkpt lat="41.25979666666667" lon="-8.680065">
        <ele>102.0</ele>
        <time>2019-07-05T17:36:53Z</time>
      </trkpt>
      <trkpt lat="41.259895" lon="-8.680145">
        <ele>102.0</ele>
        <time>2019-07-05T17:36:55Z</time>
      </trkpt>
      <trkpt lat="41.25999" lon="-8.680235">
        <ele>102.0</ele>
        <time>2019-07-05T17:36:57Z</time>
      </trkpt>
      <trkpt lat="41.26007" lon="-8.680325">
        <ele>102.0</ele>
        <time>2019-07-05T17:36:59Z</time>
      </trkpt>
      <trkpt lat="41.260146666666664" lon="-8.68042">
        <ele>102.0</ele>
        <time>2019-07-05T17:37:01Z</time>
      </trkpt>
      <trkpt lat="41.260225" lon="-8.680515">
        <ele>102.0</ele>
        <time>2019-07-05T17:37:03Z</time>
      </trkpt>
      <trkpt lat="41.260305" lon="-8.68062">
        <ele>101.0</ele>
        <time>2019-07-05T17:37:05Z</time>
      </trkpt>
      <trkpt lat="41.260385" lon="-8.680715">
        <ele>101.0</ele>
        <time>2019-07-05T17:37:07Z</time>
      </trkpt>
      <trkpt lat="41.260465" lon="-8.680816666666667">
        <ele>101.0</ele>
        <time>2019-07-05T17:37:09Z</time>
      </trkpt>
      <trkpt lat="41.260545" lon="-8.68092">
        <ele>101.0</ele>
        <time>2019-07-05T17:37:11Z</time>
      </trkpt>
      <trkpt lat="41.26062" lon="-8.68103">
        <ele>100.0</ele>
        <time>2019-07-05T17:37:13Z</time>
      </trkpt>
      <trkpt lat="41.26069" lon="-8.681145">
        <ele>100.0</ele>
        <time>2019-07-05T17:37:15Z</time>
      </trkpt>
      <trkpt lat="41.26076" lon="-8.681266666666666">
        <ele>100.0</ele>
        <time>2019-07-05T17:37:17Z</time>
      </trkpt>
      <trkpt lat="41.260835" lon="-8.681385">
        <ele>100.0</ele>
        <time>2019-07-05T17:37:19Z</time>
      </trkpt>
      <trkpt lat="41.260905" lon="-8.681505">
        <ele>99.0</ele>
        <time>2019-07-05T17:37:21Z</time>
      </trkpt>
      <trkpt lat="41.260975" lon="-8.68163">
        <ele>99.0</ele>
        <time>2019-07-05T17:37:23Z</time>
      </trkpt>
      <trkpt lat="41.261023333333334" lon="-8.68177">
        <ele>99.0</ele>
        <time>2019-07-05T17:37:25Z</time>
      </trkpt>
      <trkpt lat="41.26107" lon="-8.681905">
        <ele>99.0</ele>
        <time>2019-07-05T17:37:27Z</time>
      </trkpt>
      <trkpt lat="41.261115" lon="-8.682035">
        <ele>98.0</ele>
        <time>2019-07-05T17:37:29Z</time>
      </trkpt>
      <trkpt lat="41.261176666666664" lon="-8.682155">
        <ele>99.0</ele>
        <time>2019-07-05T17:37:31Z</time>
      </trkpt>
      <trkpt lat="41.261266666666664" lon="-8.682246666666666">
        <ele>98.0</ele>
        <time>2019-07-05T17:37:33Z</time>
      </trkpt>
      <trkpt lat="41.26135166666667" lon="-8.682336666666666">
        <ele>98.0</ele>
        <time>2019-07-05T17:37:35Z</time>
      </trkpt>
      <trkpt lat="41.26142" lon="-8.68244">
        <ele>98.0</ele>
        <time>2019-07-05T17:37:37Z</time>
      </trkpt>
      <trkpt lat="41.261496666666666" lon="-8.682541666666667">
        <ele>98.0</ele>
        <time>2019-07-05T17:37:39Z</time>
      </trkpt>
      <trkpt lat="41.261575" lon="-8.682656666666666">
        <ele>98.0</ele>
        <time>2019-07-05T17:37:41Z</time>
      </trkpt>
      <trkpt lat="41.26165" lon="-8.682765">
        <ele>98.0</ele>
        <time>2019-07-05T17:37:43Z</time>
      </trkpt>
      <trkpt lat="41.26172" lon="-8.682866666666667">
        <ele>99.0</ele>
        <time>2019-07-05T17:37:45Z</time>
      </trkpt>
      <trkpt lat="41.261825" lon="-8.68285">
        <ele>99.0</ele>
        <time>2019-07-05T17:37:47Z</time>
      </trkpt>
      <trkpt lat="41.261941666666665" lon="-8.682811666666666">
        <ele>100.0</ele>
        <time>2019-07-05T17:37:49Z</time>
      </trkpt>
      <trkpt lat="41.26207" lon="-8.682795">
        <ele>100.0</ele>
        <time>2019-07-05T17:37:51Z</time>
      </trkpt>
      <trkpt lat="41.262185" lon="-8.682801666666666">
        <ele>101.0</ele>
        <time>2019-07-05T17:37:53Z</time>
      </trkpt>
      <trkpt lat="41.26231166666667" lon="-8.682801666666666">
        <ele>101.0</ele>
        <time>2019-07-05T17:37:55Z</time>
      </trkpt>
      <trkpt lat="41.26243" lon="-8.682805">
        <ele>101.0</ele>
        <time>2019-07-05T17:37:57Z</time>
      </trkpt>
      <trkpt lat="41.26254333333333" lon="-8.68282">
        <ele>101.0</ele>
        <time>2019-07-05T17:37:59Z</time>
      </trkpt>
      <trkpt lat="41.262655" lon="-8.682836666666667">
        <ele>102.0</ele>
        <time>2019-07-05T17:38:01Z</time>
      </trkpt>
      <trkpt lat="41.262765" lon="-8.68286">
        <ele>102.0</ele>
        <time>2019-07-05T17:38:03Z</time>
      </trkpt>
      <trkpt lat="41.26288" lon="-8.682875">
        <ele>102.0</ele>
        <time>2019-07-05T17:38:05Z</time>
      </trkpt>
      <trkpt lat="41.262991666666665" lon="-8.68289">
        <ele>102.0</ele>
        <time>2019-07-05T17:38:07Z</time>
      </trkpt>
      <trkpt lat="41.26311" lon="-8.682905">
        <ele>102.0</ele>
        <time>2019-07-05T17:38:09Z</time>
      </trkpt>
      <trkpt lat="41.263225" lon="-8.68293">
        <ele>102.0</ele>
        <time>2019-07-05T17:38:11Z</time>
      </trkpt>
      <trkpt lat="41.263335" lon="-8.682956666666668">
        <ele>102.0</ele>
        <time>2019-07-05T17:38:13Z</time>
      </trkpt>
      <trkpt lat="41.263441666666665" lon="-8.682995">
        <ele>102.0</ele>
        <time>2019-07-05T17:38:15Z</time>
      </trkpt>
      <trkpt lat="41.263545" lon="-8.683025">
        <ele>102.0</ele>
        <time>2019-07-05T17:38:17Z</time>
      </trkpt>
      <trkpt lat="41.26364" lon="-8.683051666666668">
        <ele>103.0</ele>
        <time>2019-07-05T17:38:19Z</time>
      </trkpt>
      <trkpt lat="41.263751666666664" lon="-8.68309">
        <ele>103.0</ele>
        <time>2019-07-05T17:38:21Z</time>
      </trkpt>
      <trkpt lat="41.263865" lon="-8.683115">
        <ele>103.0</ele>
        <time>2019-07-05T17:38:23Z</time>
      </trkpt>
      <trkpt lat="41.263976666666665" lon="-8.683146666666667">
        <ele>103.0</ele>
        <time>2019-07-05T17:38:25Z</time>
      </trkpt>
      <trkpt lat="41.26409" lon="-8.68318">
        <ele>102.0</ele>
        <time>2019-07-05T17:38:27Z</time>
      </trkpt>
      <trkpt lat="41.264201666666665" lon="-8.683205">
        <ele>102.0</ele>
        <time>2019-07-05T17:38:29Z</time>
      </trkpt>
      <trkpt lat="41.264325" lon="-8.683236666666666">
        <ele>102.0</ele>
        <time>2019-07-05T17:38:31Z</time>
      </trkpt>
      <trkpt lat="41.26444" lon="-8.683265">
        <ele>102.0</ele>
        <time>2019-07-05T17:38:33Z</time>
      </trkpt>
      <trkpt lat="41.264555" lon="-8.6833">
        <ele>103.0</ele>
        <time>2019-07-05T17:38:35Z</time>
      </trkpt>
      <trkpt lat="41.26468" lon="-8.683325">
        <ele>103.0</ele>
        <time>2019-07-05T17:38:37Z</time>
      </trkpt>
      <trkpt lat="41.26481166666667" lon="-8.683345">
        <ele>102.0</ele>
        <time>2019-07-05T17:38:39Z</time>
      </trkpt>
      <trkpt lat="41.264945" lon="-8.683375">
        <ele>102.0</ele>
        <time>2019-07-05T17:38:41Z</time>
      </trkpt>
      <trkpt lat="41.26508" lon="-8.683386666666667">
        <ele>101.0</ele>
        <time>2019-07-05T17:38:43Z</time>
      </trkpt>
      <trkpt lat="41.265195" lon="-8.683365">
        <ele>101.0</ele>
        <time>2019-07-05T17:38:45Z</time>
      </trkpt>
      <trkpt lat="41.265285" lon="-8.683335">
        <ele>101.0</ele>
        <time>2019-07-05T17:38:47Z</time>
      </trkpt>
      <trkpt lat="41.265385" lon="-8.68335">
        <ele>100.0</ele>
        <time>2019-07-05T17:38:49Z</time>
      </trkpt>
      <trkpt lat="41.26546166666667" lon="-8.68337">
        <ele>100.0</ele>
        <time>2019-07-05T17:38:51Z</time>
      </trkpt>
      <trkpt lat="41.26553" lon="-8.683415">
        <ele>101.0</ele>
        <time>2019-07-05T17:38:53Z</time>
      </trkpt>
      <trkpt lat="41.26559" lon="-8.683475">
        <ele>101.0</ele>
        <time>2019-07-05T17:38:55Z</time>
      </trkpt>
      <trkpt lat="41.265645" lon="-8.68356">
        <ele>102.0</ele>
        <time>2019-07-05T17:38:57Z</time>
      </trkpt>
      <trkpt lat="41.265705" lon="-8.68365">
        <ele>102.0</ele>
        <time>2019-07-05T17:38:59Z</time>
      </trkpt>
      <trkpt lat="41.265765" lon="-8.68375">
        <ele>102.0</ele>
        <time>2019-07-05T17:39:01Z</time>
      </trkpt>
      <trkpt lat="41.265825" lon="-8.683865">
        <ele>102.0</ele>
        <time>2019-07-05T17:39:03Z</time>
      </trkpt>
      <trkpt lat="41.26589" lon="-8.683985">
        <ele>102.0</ele>
        <time>2019-07-05T17:39:05Z</time>
      </trkpt>
      <trkpt lat="41.265955" lon="-8.684105">
        <ele>102.0</ele>
        <time>2019-07-05T17:39:07Z</time>
      </trkpt>
      <trkpt lat="41.266025" lon="-8.68422">
        <ele>102.0</ele>
        <time>2019-07-05T17:39:09Z</time>
      </trkpt>
      <trkpt lat="41.266088333333336" lon="-8.684341666666667">
        <ele>102.0</ele>
        <time>2019-07-05T17:39:11Z</time>
      </trkpt>
      <trkpt lat="41.26615666666667" lon="-8.68446">
        <ele>103.0</ele>
        <time>2019-07-05T17:39:13Z</time>
      </trkpt>
      <trkpt lat="41.26622" lon="-8.684585">
        <ele>103.0</ele>
        <time>2019-07-05T17:39:15Z</time>
      </trkpt>
      <trkpt lat="41.26628" lon="-8.684715">
        <ele>104.0</ele>
        <time>2019-07-05T17:39:17Z</time>
      </trkpt>
      <trkpt lat="41.26634" lon="-8.684846666666667">
        <ele>104.0</ele>
        <time>2019-07-05T17:39:19Z</time>
      </trkpt>
      <trkpt lat="41.26641333333333" lon="-8.684975">
        <ele>104.0</ele>
        <time>2019-07-05T17:39:21Z</time>
      </trkpt>
      <trkpt lat="41.26649" lon="-8.685085">
        <ele>103.0</ele>
        <time>2019-07-05T17:39:23Z</time>
      </trkpt>
      <trkpt lat="41.266575" lon="-8.685191666666666">
        <ele>102.0</ele>
        <time>2019-07-05T17:39:25Z</time>
      </trkpt>
      <trkpt lat="41.266655" lon="-8.685301666666666">
        <ele>103.0</ele>
        <time>2019-07-05T17:39:27Z</time>
      </trkpt>
      <trkpt lat="41.26674" lon="-8.685415">
        <ele>104.0</ele>
        <time>2019-07-05T17:39:29Z</time>
      </trkpt>
      <trkpt lat="41.26682" lon="-8.685525">
        <ele>103.0</ele>
        <time>2019-07-05T17:39:31Z</time>
      </trkpt>
      <trkpt lat="41.26690166666667" lon="-8.685645">
        <ele>103.0</ele>
        <time>2019-07-05T17:39:33Z</time>
      </trkpt>
      <trkpt lat="41.266985" lon="-8.685755">
        <ele>103.0</ele>
        <time>2019-07-05T17:39:35Z</time>
      </trkpt>
      <trkpt lat="41.267065" lon="-8.685865">
        <ele>103.0</ele>
        <time>2019-07-05T17:39:37Z</time>
      </trkpt>
      <trkpt lat="41.267145" lon="-8.68598">
        <ele>102.0</ele>
        <time>2019-07-05T17:39:39Z</time>
      </trkpt>
      <trkpt lat="41.267225" lon="-8.686095">
        <ele>102.0</ele>
        <time>2019-07-05T17:39:41Z</time>
      </trkpt>
      <trkpt lat="41.267311666666664" lon="-8.686216666666667">
        <ele>101.0</ele>
        <time>2019-07-05T17:39:43Z</time>
      </trkpt>
      <trkpt lat="41.2674" lon="-8.68634">
        <ele>101.0</ele>
        <time>2019-07-05T17:39:45Z</time>
      </trkpt>
      <trkpt lat="41.267491666666665" lon="-8.68647">
        <ele>101.0</ele>
        <time>2019-07-05T17:39:47Z</time>
      </trkpt>
      <trkpt lat="41.26758" lon="-8.68661">
        <ele>100.0</ele>
        <time>2019-07-05T17:39:49Z</time>
      </trkpt>
      <trkpt lat="41.267665" lon="-8.686755">
        <ele>100.0</ele>
        <time>2019-07-05T17:39:51Z</time>
      </trkpt>
      <trkpt lat="41.26775666666666" lon="-8.686895">
        <ele>100.0</ele>
        <time>2019-07-05T17:39:53Z</time>
      </trkpt>
      <trkpt lat="41.267833333333336" lon="-8.687045">
        <ele>99.0</ele>
        <time>2019-07-05T17:39:55Z</time>
      </trkpt>
      <trkpt lat="41.26791" lon="-8.6872">
        <ele>99.0</ele>
        <time>2019-07-05T17:39:57Z</time>
      </trkpt>
      <trkpt lat="41.26798" lon="-8.687351666666666">
        <ele>100.0</ele>
        <time>2019-07-05T17:39:59Z</time>
      </trkpt>
      <trkpt lat="41.26805" lon="-8.6875">
        <ele>99.0</ele>
        <time>2019-07-05T17:40:01Z</time>
      </trkpt>
      <trkpt lat="41.26810666666667" lon="-8.687646666666666">
        <ele>99.0</ele>
        <time>2019-07-05T17:40:03Z</time>
      </trkpt>
      <trkpt lat="41.268155" lon="-8.687796666666667">
        <ele>99.0</ele>
        <time>2019-07-05T17:40:05Z</time>
      </trkpt>
      <trkpt lat="41.26819" lon="-8.68793">
        <ele>99.0</ele>
        <time>2019-07-05T17:40:07Z</time>
      </trkpt>
      <trkpt lat="41.268211666666666" lon="-8.68806">
        <ele>100.0</ele>
        <time>2019-07-05T17:40:09Z</time>
      </trkpt>
      <trkpt lat="41.26822666666666" lon="-8.68818">
        <ele>100.0</ele>
        <time>2019-07-05T17:40:11Z</time>
      </trkpt>
      <trkpt lat="41.268235" lon="-8.688295">
        <ele>100.0</ele>
        <time>2019-07-05T17:40:13Z</time>
      </trkpt>
      <trkpt lat="41.268235" lon="-8.6884">
        <ele>99.0</ele>
        <time>2019-07-05T17:40:15Z</time>
      </trkpt>
      <trkpt lat="41.268235" lon="-8.68851">
        <ele>99.0</ele>
        <time>2019-07-05T17:40:17Z</time>
      </trkpt>
      <trkpt lat="41.26823" lon="-8.688626666666666">
        <ele>99.0</ele>
        <time>2019-07-05T17:40:19Z</time>
      </trkpt>
      <trkpt lat="41.26822666666666" lon="-8.68873">
        <ele>98.0</ele>
        <time>2019-07-05T17:40:21Z</time>
      </trkpt>
      <trkpt lat="41.268211666666666" lon="-8.68887">
        <ele>98.0</ele>
        <time>2019-07-05T17:40:24Z</time>
      </trkpt>
      <trkpt lat="41.268205" lon="-8.689">
        <ele>98.0</ele>
        <time>2019-07-05T17:40:27Z</time>
      </trkpt>
      <trkpt lat="41.268245" lon="-8.68909">
        <ele>98.0</ele>
        <time>2019-07-05T17:40:30Z</time>
      </trkpt>
      <trkpt lat="41.268295" lon="-8.689175">
        <ele>98.0</ele>
        <time>2019-07-05T17:40:32Z</time>
      </trkpt>
      <trkpt lat="41.268346666666666" lon="-8.68928">
        <ele>98.0</ele>
        <time>2019-07-05T17:40:34Z</time>
      </trkpt>
      <trkpt lat="41.2684" lon="-8.689385">
        <ele>97.0</ele>
        <time>2019-07-05T17:40:36Z</time>
      </trkpt>
      <trkpt lat="41.26845333333333" lon="-8.6895">
        <ele>97.0</ele>
        <time>2019-07-05T17:40:38Z</time>
      </trkpt>
      <trkpt lat="41.2685" lon="-8.68961">
        <ele>96.0</ele>
        <time>2019-07-05T17:40:40Z</time>
      </trkpt>
      <trkpt lat="41.268546666666666" lon="-8.689715">
        <ele>95.0</ele>
        <time>2019-07-05T17:40:42Z</time>
      </trkpt>
      <trkpt lat="41.268585" lon="-8.6898">
        <ele>95.0</ele>
        <time>2019-07-05T17:40:44Z</time>
      </trkpt>
      <trkpt lat="41.26858" lon="-8.689911666666667">
        <ele>95.0</ele>
        <time>2019-07-05T17:40:47Z</time>
      </trkpt>
      <trkpt lat="41.268515" lon="-8.690021666666667">
        <ele>95.0</ele>
        <time>2019-07-05T17:40:50Z</time>
      </trkpt>
      <trkpt lat="41.268451666666664" lon="-8.6901">
        <ele>94.0</ele>
        <time>2019-07-05T17:40:52Z</time>
      </trkpt>
      <trkpt lat="41.26838166666667" lon="-8.690196666666667">
        <ele>93.0</ele>
        <time>2019-07-05T17:40:54Z</time>
      </trkpt>
      <trkpt lat="41.268325" lon="-8.690305">
        <ele>92.0</ele>
        <time>2019-07-05T17:40:56Z</time>
      </trkpt>
      <trkpt lat="41.268285" lon="-8.6904">
        <ele>91.0</ele>
        <time>2019-07-05T17:40:59Z</time>
      </trkpt>
      <trkpt lat="41.268235" lon="-8.69049">
        <ele>90.0</ele>
        <time>2019-07-05T17:41:01Z</time>
      </trkpt>
      <trkpt lat="41.26819" lon="-8.69061">
        <ele>89.0</ele>
        <time>2019-07-05T17:41:03Z</time>
      </trkpt>
      <trkpt lat="41.268135" lon="-8.690706666666667">
        <ele>89.0</ele>
        <time>2019-07-05T17:41:05Z</time>
      </trkpt>
      <trkpt lat="41.268095" lon="-8.69079">
        <ele>90.0</ele>
        <time>2019-07-05T17:41:09Z</time>
      </trkpt>
      <trkpt lat="41.268015" lon="-8.69081">
        <ele>90.0</ele>
        <time>2019-07-05T17:41:16Z</time>
      </trkpt>
      <trkpt lat="41.267925" lon="-8.690725">
        <ele>89.0</ele>
        <time>2019-07-05T17:41:19Z</time>
      </trkpt>
      <trkpt lat="41.267833333333336" lon="-8.6907">
        <ele>89.0</ele>
        <time>2019-07-05T17:41:21Z</time>
      </trkpt>
      <trkpt lat="41.267735" lon="-8.690708333333333">
        <ele>88.0</ele>
        <time>2019-07-05T17:41:23Z</time>
      </trkpt>
      <trkpt lat="41.267645" lon="-8.690796666666667">
        <ele>87.0</ele>
        <time>2019-07-05T17:41:25Z</time>
      </trkpt>
      <trkpt lat="41.267556666666664" lon="-8.690905">
        <ele>86.0</ele>
        <time>2019-07-05T17:41:27Z</time>
      </trkpt>
      <trkpt lat="41.26746166666667" lon="-8.69102">
        <ele>86.0</ele>
        <time>2019-07-05T17:41:29Z</time>
      </trkpt>
      <trkpt lat="41.267365" lon="-8.691143333333333">
        <ele>85.0</ele>
        <time>2019-07-05T17:41:31Z</time>
      </trkpt>
      <trkpt lat="41.267265" lon="-8.691275">
        <ele>85.0</ele>
        <time>2019-07-05T17:41:33Z</time>
      </trkpt>
      <trkpt lat="41.267165" lon="-8.691405">
        <ele>84.0</ele>
        <time>2019-07-05T17:41:35Z</time>
      </trkpt>
      <trkpt lat="41.267055" lon="-8.691521666666667">
        <ele>84.0</ele>
        <time>2019-07-05T17:41:37Z</time>
      </trkpt>
      <trkpt lat="41.266945" lon="-8.691625">
        <ele>84.0</ele>
        <time>2019-07-05T17:41:39Z</time>
      </trkpt>
      <trkpt lat="41.266846666666666" lon="-8.691715">
        <ele>85.0</ele>
        <time>2019-07-05T17:41:41Z</time>
      </trkpt>
      <trkpt lat="41.26676" lon="-8.691795">
        <ele>86.0</ele>
        <time>2019-07-05T17:41:43Z</time>
      </trkpt>
      <trkpt lat="41.266695" lon="-8.691875">
        <ele>86.0</ele>
        <time>2019-07-05T17:41:45Z</time>
      </trkpt>
      <trkpt lat="41.26663" lon="-8.69196">
        <ele>86.0</ele>
        <time>2019-07-05T17:41:48Z</time>
      </trkpt>
      <trkpt lat="41.266585" lon="-8.692035">
        <ele>86.0</ele>
        <time>2019-07-05T17:41:50Z</time>
      </trkpt>
      <trkpt lat="41.266556666666666" lon="-8.692131666666667">
        <ele>87.0</ele>
        <time>2019-07-05T17:41:53Z</time>
      </trkpt>
      <trkpt lat="41.26654166666667" lon="-8.69223">
        <ele>87.0</ele>
        <time>2019-07-05T17:41:57Z</time>
      </trkpt>
      <trkpt lat="41.266515" lon="-8.692345">
        <ele>88.0</ele>
        <time>2019-07-05T17:42:01Z</time>
      </trkpt>
      <trkpt lat="41.266495" lon="-8.69244">
        <ele>89.0</ele>
        <time>2019-07-05T17:42:04Z</time>
      </trkpt>
      <trkpt lat="41.266468333333336" lon="-8.692535">
        <ele>89.0</ele>
        <time>2019-07-05T17:42:07Z</time>
      </trkpt>
      <trkpt lat="41.26644" lon="-8.69265">
        <ele>90.0</ele>
        <time>2019-07-05T17:42:11Z</time>
      </trkpt>
      <trkpt lat="41.26644" lon="-8.69275">
        <ele>91.0</ele>
        <time>2019-07-05T17:42:15Z</time>
      </trkpt>
      <trkpt lat="41.26651" lon="-8.692826666666667">
        <ele>92.0</ele>
        <time>2019-07-05T17:42:19Z</time>
      </trkpt>
      <trkpt lat="41.26658" lon="-8.692865">
        <ele>91.0</ele>
        <time>2019-07-05T17:42:22Z</time>
      </trkpt>
      <trkpt lat="41.26666" lon="-8.692895">
        <ele>93.0</ele>
        <time>2019-07-05T17:42:26Z</time>
      </trkpt>
      <trkpt lat="41.266765" lon="-8.692896666666666">
        <ele>93.0</ele>
        <time>2019-07-05T17:42:29Z</time>
      </trkpt>
      <trkpt lat="41.26686" lon="-8.692891666666666">
        <ele>91.0</ele>
        <time>2019-07-05T17:42:31Z</time>
      </trkpt>
      <trkpt lat="41.26698" lon="-8.692885">
        <ele>89.0</ele>
        <time>2019-07-05T17:42:33Z</time>
      </trkpt>
      <trkpt lat="41.2671" lon="-8.692875">
        <ele>87.0</ele>
        <time>2019-07-05T17:42:35Z</time>
      </trkpt>
      <trkpt lat="41.26719166666667" lon="-8.692885">
        <ele>86.0</ele>
        <time>2019-07-05T17:42:37Z</time>
      </trkpt>
      <trkpt lat="41.267255" lon="-8.69297">
        <ele>86.0</ele>
        <time>2019-07-05T17:42:39Z</time>
      </trkpt>
      <trkpt lat="41.267266666666664" lon="-8.693085">
        <ele>86.0</ele>
        <time>2019-07-05T17:42:41Z</time>
      </trkpt>
      <trkpt lat="41.26726" lon="-8.693205">
        <ele>86.0</ele>
        <time>2019-07-05T17:42:43Z</time>
      </trkpt>
      <trkpt lat="41.26725" lon="-8.693325">
        <ele>86.0</ele>
        <time>2019-07-05T17:42:45Z</time>
      </trkpt>
      <trkpt lat="41.267228333333335" lon="-8.69343">
        <ele>87.0</ele>
        <time>2019-07-05T17:42:47Z</time>
      </trkpt>
      <trkpt lat="41.26722" lon="-8.693525">
        <ele>87.0</ele>
        <time>2019-07-05T17:42:49Z</time>
      </trkpt>
      <trkpt lat="41.267205" lon="-8.69362">
        <ele>88.0</ele>
        <time>2019-07-05T17:42:51Z</time>
      </trkpt>
      <trkpt lat="41.26719" lon="-8.693715">
        <ele>88.0</ele>
        <time>2019-07-05T17:42:53Z</time>
      </trkpt>
      <trkpt lat="41.267165" lon="-8.693815">
        <ele>88.0</ele>
        <time>2019-07-05T17:42:55Z</time>
      </trkpt>
      <trkpt lat="41.26714666666667" lon="-8.693955">
        <ele>89.0</ele>
        <time>2019-07-05T17:42:58Z</time>
      </trkpt>
      <trkpt lat="41.26713" lon="-8.694085">
        <ele>90.0</ele>
        <time>2019-07-05T17:43:01Z</time>
      </trkpt>
      <trkpt lat="41.267105" lon="-8.6942">
        <ele>90.0</ele>
        <time>2019-07-05T17:43:04Z</time>
      </trkpt>
      <trkpt lat="41.26709" lon="-8.694321666666667">
        <ele>91.0</ele>
        <time>2019-07-05T17:43:07Z</time>
      </trkpt>
      <trkpt lat="41.26707" lon="-8.694446666666666">
        <ele>91.0</ele>
        <time>2019-07-05T17:43:10Z</time>
      </trkpt>
      <trkpt lat="41.26705" lon="-8.694545">
        <ele>92.0</ele>
        <time>2019-07-05T17:43:13Z</time>
      </trkpt>
      <trkpt lat="41.26704" lon="-8.694645">
        <ele>93.0</ele>
        <time>2019-07-05T17:43:16Z</time>
      </trkpt>
      <trkpt lat="41.26703" lon="-8.69475">
        <ele>93.0</ele>
        <time>2019-07-05T17:43:19Z</time>
      </trkpt>
      <trkpt lat="41.26702" lon="-8.69485">
        <ele>94.0</ele>
        <time>2019-07-05T17:43:22Z</time>
      </trkpt>
      <trkpt lat="41.267015" lon="-8.694955">
        <ele>95.0</ele>
        <time>2019-07-05T17:43:25Z</time>
      </trkpt>
      <trkpt lat="41.26700666666667" lon="-8.69506">
        <ele>95.0</ele>
        <time>2019-07-05T17:43:28Z</time>
      </trkpt>
      <trkpt lat="41.26699833333333" lon="-8.695165">
        <ele>95.0</ele>
        <time>2019-07-05T17:43:31Z</time>
      </trkpt>
      <trkpt lat="41.26699166666667" lon="-8.69527">
        <ele>95.0</ele>
        <time>2019-07-05T17:43:34Z</time>
      </trkpt>
      <trkpt lat="41.26699" lon="-8.695375">
        <ele>97.0</ele>
        <time>2019-07-05T17:43:37Z</time>
      </trkpt>
      <trkpt lat="41.267" lon="-8.69548">
        <ele>97.0</ele>
        <time>2019-07-05T17:43:40Z</time>
      </trkpt>
      <trkpt lat="41.267035" lon="-8.69558">
        <ele>98.0</ele>
        <time>2019-07-05T17:43:43Z</time>
      </trkpt>
      <trkpt lat="41.267073333333336" lon="-8.695685">
        <ele>98.0</ele>
        <time>2019-07-05T17:43:46Z</time>
      </trkpt>
      <trkpt lat="41.267105" lon="-8.69578">
        <ele>97.0</ele>
        <time>2019-07-05T17:43:49Z</time>
      </trkpt>
      <trkpt lat="41.26706" lon="-8.695881666666667">
        <ele>98.0</ele>
        <time>2019-07-05T17:43:53Z</time>
      </trkpt>
      <trkpt lat="41.26699" lon="-8.695935">
        <ele>98.0</ele>
        <time>2019-07-05T17:43:56Z</time>
      </trkpt>
      <trkpt lat="41.26691" lon="-8.696">
        <ele>99.0</ele>
        <time>2019-07-05T17:43:59Z</time>
      </trkpt>
      <trkpt lat="41.26682666666667" lon="-8.69606">
        <ele>100.0</ele>
        <time>2019-07-05T17:44:02Z</time>
      </trkpt>
      <trkpt lat="41.266735" lon="-8.696126666666666">
        <ele>100.0</ele>
        <time>2019-07-05T17:44:05Z</time>
      </trkpt>
      <trkpt lat="41.266661666666664" lon="-8.69619">
        <ele>101.0</ele>
        <time>2019-07-05T17:44:08Z</time>
      </trkpt>
      <trkpt lat="41.266605" lon="-8.696256666666667">
        <ele>102.0</ele>
        <time>2019-07-05T17:44:11Z</time>
      </trkpt>
      <trkpt lat="41.26661" lon="-8.69637">
        <ele>102.0</ele>
        <time>2019-07-05T17:44:14Z</time>
      </trkpt>
      <trkpt lat="41.266645" lon="-8.696515">
        <ele>102.0</ele>
        <time>2019-07-05T17:44:17Z</time>
      </trkpt>
      <trkpt lat="41.26668" lon="-8.696615">
        <ele>102.0</ele>
        <time>2019-07-05T17:44:19Z</time>
      </trkpt>
      <trkpt lat="41.26672" lon="-8.696741666666666">
        <ele>103.0</ele>
        <time>2019-07-05T17:44:22Z</time>
      </trkpt>
      <trkpt lat="41.26674166666667" lon="-8.69684">
        <ele>104.0</ele>
        <time>2019-07-05T17:44:24Z</time>
      </trkpt>
      <trkpt lat="41.26676666666667" lon="-8.696935">
        <ele>103.0</ele>
        <time>2019-07-05T17:44:26Z</time>
      </trkpt>
      <trkpt lat="41.26679" lon="-8.697025">
        <ele>104.0</ele>
        <time>2019-07-05T17:44:28Z</time>
      </trkpt>
      <trkpt lat="41.26681" lon="-8.697125">
        <ele>103.0</ele>
        <time>2019-07-05T17:44:30Z</time>
      </trkpt>
      <trkpt lat="41.266835" lon="-8.697221666666668">
        <ele>104.0</ele>
        <time>2019-07-05T17:44:32Z</time>
      </trkpt>
      <trkpt lat="41.266841666666664" lon="-8.697326666666667">
        <ele>104.0</ele>
        <time>2019-07-05T17:44:34Z</time>
      </trkpt>
      <trkpt lat="41.266846666666666" lon="-8.697431666666667">
        <ele>104.0</ele>
        <time>2019-07-05T17:44:36Z</time>
      </trkpt>
      <trkpt lat="41.26687" lon="-8.697535">
        <ele>105.0</ele>
        <time>2019-07-05T17:44:38Z</time>
      </trkpt>
      <trkpt lat="41.26688166666667" lon="-8.69764">
        <ele>105.0</ele>
        <time>2019-07-05T17:44:40Z</time>
      </trkpt>
      <trkpt lat="41.266885" lon="-8.697745">
        <ele>104.0</ele>
        <time>2019-07-05T17:44:42Z</time>
      </trkpt>
      <trkpt lat="41.266895" lon="-8.697851666666667">
        <ele>105.0</ele>
        <time>2019-07-05T17:44:44Z</time>
      </trkpt>
      <trkpt lat="41.2669" lon="-8.69797">
        <ele>105.0</ele>
        <time>2019-07-05T17:44:46Z</time>
      </trkpt>
      <trkpt lat="41.266895" lon="-8.698078333333333">
        <ele>105.0</ele>
        <time>2019-07-05T17:44:48Z</time>
      </trkpt>
      <trkpt lat="41.266905" lon="-8.6982">
        <ele>105.0</ele>
        <time>2019-07-05T17:44:50Z</time>
      </trkpt>
      <trkpt lat="41.266905" lon="-8.698306666666667">
        <ele>105.0</ele>
        <time>2019-07-05T17:44:52Z</time>
      </trkpt>
      <trkpt lat="41.26691" lon="-8.698416666666667">
        <ele>105.0</ele>
        <time>2019-07-05T17:44:54Z</time>
      </trkpt>
      <trkpt lat="41.266905" lon="-8.69853">
        <ele>105.0</ele>
        <time>2019-07-05T17:44:56Z</time>
      </trkpt>
      <trkpt lat="41.2669" lon="-8.698641666666667">
        <ele>105.0</ele>
        <time>2019-07-05T17:44:58Z</time>
      </trkpt>
      <trkpt lat="41.266885" lon="-8.698751666666666">
        <ele>105.0</ele>
        <time>2019-07-05T17:45:00Z</time>
      </trkpt>
      <trkpt lat="41.26687166666667" lon="-8.698861666666666">
        <ele>105.0</ele>
        <time>2019-07-05T17:45:02Z</time>
      </trkpt>
      <trkpt lat="41.26685666666667" lon="-8.698965">
        <ele>105.0</ele>
        <time>2019-07-05T17:45:04Z</time>
      </trkpt>
      <trkpt lat="41.26684" lon="-8.69907">
        <ele>105.0</ele>
        <time>2019-07-05T17:45:06Z</time>
      </trkpt>
      <trkpt lat="41.266816666666664" lon="-8.699175">
        <ele>105.0</ele>
        <time>2019-07-05T17:45:08Z</time>
      </trkpt>
      <trkpt lat="41.26679166666667" lon="-8.699281666666666">
        <ele>105.0</ele>
        <time>2019-07-05T17:45:10Z</time>
      </trkpt>
      <trkpt lat="41.26677" lon="-8.699381666666667">
        <ele>105.0</ele>
        <time>2019-07-05T17:45:12Z</time>
      </trkpt>
      <trkpt lat="41.26675" lon="-8.699495">
        <ele>105.0</ele>
        <time>2019-07-05T17:45:14Z</time>
      </trkpt>
      <trkpt lat="41.266745" lon="-8.699611666666666">
        <ele>105.0</ele>
        <time>2019-07-05T17:45:16Z</time>
      </trkpt>
      <trkpt lat="41.26675" lon="-8.699725">
        <ele>105.0</ele>
        <time>2019-07-05T17:45:18Z</time>
      </trkpt>
      <trkpt lat="41.26675" lon="-8.69984">
        <ele>105.0</ele>
        <time>2019-07-05T17:45:20Z</time>
      </trkpt>
      <trkpt lat="41.266765" lon="-8.699951666666667">
        <ele>105.0</ele>
        <time>2019-07-05T17:45:22Z</time>
      </trkpt>
      <trkpt lat="41.26677166666666" lon="-8.70007">
        <ele>105.0</ele>
        <time>2019-07-05T17:45:24Z</time>
      </trkpt>
      <trkpt lat="41.26679166666667" lon="-8.700185">
        <ele>105.0</ele>
        <time>2019-07-05T17:45:26Z</time>
      </trkpt>
      <trkpt lat="41.2668" lon="-8.700296666666667">
        <ele>105.0</ele>
        <time>2019-07-05T17:45:28Z</time>
      </trkpt>
      <trkpt lat="41.2668" lon="-8.700415">
        <ele>105.0</ele>
        <time>2019-07-05T17:45:30Z</time>
      </trkpt>
      <trkpt lat="41.2668" lon="-8.700523333333333">
        <ele>105.0</ele>
        <time>2019-07-05T17:45:32Z</time>
      </trkpt>
      <trkpt lat="41.266796666666664" lon="-8.70063">
        <ele>105.0</ele>
        <time>2019-07-05T17:45:34Z</time>
      </trkpt>
      <trkpt lat="41.266776666666665" lon="-8.700726666666666">
        <ele>105.0</ele>
        <time>2019-07-05T17:45:36Z</time>
      </trkpt>
      <trkpt lat="41.26677" lon="-8.70084">
        <ele>106.0</ele>
        <time>2019-07-05T17:45:38Z</time>
      </trkpt>
      <trkpt lat="41.26677" lon="-8.70096">
        <ele>106.0</ele>
        <time>2019-07-05T17:45:40Z</time>
      </trkpt>
      <trkpt lat="41.26676166666667" lon="-8.70108">
        <ele>106.0</ele>
        <time>2019-07-05T17:45:42Z</time>
      </trkpt>
      <trkpt lat="41.26676" lon="-8.7012">
        <ele>106.0</ele>
        <time>2019-07-05T17:45:44Z</time>
      </trkpt>
      <trkpt lat="41.266755" lon="-8.70132">
        <ele>105.0</ele>
        <time>2019-07-05T17:45:46Z</time>
      </trkpt>
      <trkpt lat="41.266745" lon="-8.701446666666667">
        <ele>105.0</ele>
        <time>2019-07-05T17:45:48Z</time>
      </trkpt>
      <trkpt lat="41.266735" lon="-8.701566666666666">
        <ele>105.0</ele>
        <time>2019-07-05T17:45:50Z</time>
      </trkpt>
      <trkpt lat="41.26674" lon="-8.701685">
        <ele>105.0</ele>
        <time>2019-07-05T17:45:52Z</time>
      </trkpt>
      <trkpt lat="41.26674" lon="-8.701795">
        <ele>105.0</ele>
        <time>2019-07-05T17:45:54Z</time>
      </trkpt>
      <trkpt lat="41.26674" lon="-8.70194">
        <ele>105.0</ele>
        <time>2019-07-05T17:45:56Z</time>
      </trkpt>
      <trkpt lat="41.26674" lon="-8.7021">
        <ele>105.0</ele>
        <time>2019-07-05T17:45:58Z</time>
      </trkpt>
      <trkpt lat="41.26672" lon="-8.70223">
        <ele>105.0</ele>
        <time>2019-07-05T17:46:00Z</time>
      </trkpt>
      <trkpt lat="41.26671" lon="-8.702366666666666">
        <ele>105.0</ele>
        <time>2019-07-05T17:46:02Z</time>
      </trkpt>
      <trkpt lat="41.266685" lon="-8.7025">
        <ele>104.0</ele>
        <time>2019-07-05T17:46:04Z</time>
      </trkpt>
      <trkpt lat="41.266655" lon="-8.70264">
        <ele>105.0</ele>
        <time>2019-07-05T17:46:06Z</time>
      </trkpt>
      <trkpt lat="41.26662666666667" lon="-8.70277">
        <ele>106.0</ele>
        <time>2019-07-05T17:46:08Z</time>
      </trkpt>
      <trkpt lat="41.266595" lon="-8.702906666666667">
        <ele>106.0</ele>
        <time>2019-07-05T17:46:10Z</time>
      </trkpt>
      <trkpt lat="41.26656" lon="-8.70304">
        <ele>106.0</ele>
        <time>2019-07-05T17:46:12Z</time>
      </trkpt>
      <trkpt lat="41.266525" lon="-8.70317">
        <ele>106.0</ele>
        <time>2019-07-05T17:46:14Z</time>
      </trkpt>
      <trkpt lat="41.26649166666667" lon="-8.703306666666666">
        <ele>106.0</ele>
        <time>2019-07-05T17:46:16Z</time>
      </trkpt>
      <trkpt lat="41.26646" lon="-8.703445">
        <ele>106.0</ele>
        <time>2019-07-05T17:46:18Z</time>
      </trkpt>
      <trkpt lat="41.266425" lon="-8.703573333333333">
        <ele>106.0</ele>
        <time>2019-07-05T17:46:20Z</time>
      </trkpt>
      <trkpt lat="41.266398333333335" lon="-8.703706666666667">
        <ele>107.0</ele>
        <time>2019-07-05T17:46:22Z</time>
      </trkpt>
      <trkpt lat="41.26639" lon="-8.70385">
        <ele>106.0</ele>
        <time>2019-07-05T17:46:24Z</time>
      </trkpt>
      <trkpt lat="41.26637" lon="-8.703996666666667">
        <ele>106.0</ele>
        <time>2019-07-05T17:46:26Z</time>
      </trkpt>
      <trkpt lat="41.266355" lon="-8.704135">
        <ele>106.0</ele>
        <time>2019-07-05T17:46:28Z</time>
      </trkpt>
      <trkpt lat="41.266345" lon="-8.704281666666667">
        <ele>106.0</ele>
        <time>2019-07-05T17:46:30Z</time>
      </trkpt>
      <trkpt lat="41.266326666666664" lon="-8.704421666666667">
        <ele>106.0</ele>
        <time>2019-07-05T17:46:32Z</time>
      </trkpt>
      <trkpt lat="41.266295" lon="-8.70456">
        <ele>106.0</ele>
        <time>2019-07-05T17:46:34Z</time>
      </trkpt>
      <trkpt lat="41.266255" lon="-8.704686666666667">
        <ele>105.0</ele>
        <time>2019-07-05T17:46:36Z</time>
      </trkpt>
      <trkpt lat="41.266215" lon="-8.70482">
        <ele>105.0</ele>
        <time>2019-07-05T17:46:38Z</time>
      </trkpt>
      <trkpt lat="41.26618833333333" lon="-8.704955">
        <ele>105.0</ele>
        <time>2019-07-05T17:46:40Z</time>
      </trkpt>
      <trkpt lat="41.26618833333333" lon="-8.7051">
        <ele>105.0</ele>
        <time>2019-07-05T17:46:42Z</time>
      </trkpt>
      <trkpt lat="41.26621" lon="-8.70525">
        <ele>105.0</ele>
        <time>2019-07-05T17:46:44Z</time>
      </trkpt>
      <trkpt lat="41.266235" lon="-8.705395">
        <ele>105.0</ele>
        <time>2019-07-05T17:46:46Z</time>
      </trkpt>
      <trkpt lat="41.266243333333335" lon="-8.705555">
        <ele>104.0</ele>
        <time>2019-07-05T17:46:48Z</time>
      </trkpt>
      <trkpt lat="41.266241666666666" lon="-8.70572">
        <ele>104.0</ele>
        <time>2019-07-05T17:46:50Z</time>
      </trkpt>
      <trkpt lat="41.26624" lon="-8.705895">
        <ele>103.0</ele>
        <time>2019-07-05T17:46:52Z</time>
      </trkpt>
      <trkpt lat="41.266235" lon="-8.706075">
        <ele>102.0</ele>
        <time>2019-07-05T17:46:54Z</time>
      </trkpt>
      <trkpt lat="41.266236666666664" lon="-8.706265">
        <ele>102.0</ele>
        <time>2019-07-05T17:46:56Z</time>
      </trkpt>
      <trkpt lat="41.266243333333335" lon="-8.706361666666666">
        <ele>101.0</ele>
        <time>2019-07-05T17:46:57Z</time>
      </trkpt>
      <trkpt lat="41.266255" lon="-8.706545">
        <ele>101.0</ele>
        <time>2019-07-05T17:46:59Z</time>
      </trkpt>
      <trkpt lat="41.266295" lon="-8.706705">
        <ele>101.0</ele>
        <time>2019-07-05T17:47:01Z</time>
      </trkpt>
      <trkpt lat="41.26638" lon="-8.706825">
        <ele>100.0</ele>
        <time>2019-07-05T17:47:03Z</time>
      </trkpt>
      <trkpt lat="41.26648" lon="-8.706921666666666">
        <ele>101.0</ele>
        <time>2019-07-05T17:47:05Z</time>
      </trkpt>
      <trkpt lat="41.26658166666667" lon="-8.707001666666667">
        <ele>100.0</ele>
        <time>2019-07-05T17:47:07Z</time>
      </trkpt>
      <trkpt lat="41.26667" lon="-8.70711">
        <ele>100.0</ele>
        <time>2019-07-05T17:47:09Z</time>
      </trkpt>
      <trkpt lat="41.26672" lon="-8.707255">
        <ele>100.0</ele>
        <time>2019-07-05T17:47:11Z</time>
      </trkpt>
      <trkpt lat="41.266765" lon="-8.707395">
        <ele>99.0</ele>
        <time>2019-07-05T17:47:13Z</time>
      </trkpt>
      <trkpt lat="41.266796666666664" lon="-8.707545">
        <ele>99.0</ele>
        <time>2019-07-05T17:47:15Z</time>
      </trkpt>
      <trkpt lat="41.266835" lon="-8.707685">
        <ele>100.0</ele>
        <time>2019-07-05T17:47:17Z</time>
      </trkpt>
      <trkpt lat="41.26685166666667" lon="-8.707816666666666">
        <ele>99.0</ele>
        <time>2019-07-05T17:47:19Z</time>
      </trkpt>
      <trkpt lat="41.26686" lon="-8.70795">
        <ele>99.0</ele>
        <time>2019-07-05T17:47:21Z</time>
      </trkpt>
      <trkpt lat="41.266855" lon="-8.70807">
        <ele>101.0</ele>
        <time>2019-07-05T17:47:23Z</time>
      </trkpt>
      <trkpt lat="41.266855" lon="-8.708166666666667">
        <ele>100.0</ele>
        <time>2019-07-05T17:47:25Z</time>
      </trkpt>
      <trkpt lat="41.266835" lon="-8.708265">
        <ele>102.0</ele>
        <time>2019-07-05T17:47:27Z</time>
      </trkpt>
      <trkpt lat="41.26682" lon="-8.70836">
        <ele>102.0</ele>
        <time>2019-07-05T17:47:29Z</time>
      </trkpt>
      <trkpt lat="41.2668" lon="-8.708455">
        <ele>101.0</ele>
        <time>2019-07-05T17:47:31Z</time>
      </trkpt>
      <trkpt lat="41.26678666666667" lon="-8.708556666666667">
        <ele>101.0</ele>
        <time>2019-07-05T17:47:33Z</time>
      </trkpt>
      <trkpt lat="41.26677" lon="-8.70866">
        <ele>102.0</ele>
        <time>2019-07-05T17:47:35Z</time>
      </trkpt>
      <trkpt lat="41.266745" lon="-8.70876">
        <ele>102.0</ele>
        <time>2019-07-05T17:47:37Z</time>
      </trkpt>
      <trkpt lat="41.266725" lon="-8.70885">
        <ele>102.0</ele>
        <time>2019-07-05T17:47:39Z</time>
      </trkpt>
      <trkpt lat="41.266695" lon="-8.708945">
        <ele>103.0</ele>
        <time>2019-07-05T17:47:41Z</time>
      </trkpt>
      <trkpt lat="41.266675" lon="-8.709065">
        <ele>103.0</ele>
        <time>2019-07-05T17:47:44Z</time>
      </trkpt>
      <trkpt lat="41.266675" lon="-8.70917">
        <ele>104.0</ele>
        <time>2019-07-05T17:47:46Z</time>
      </trkpt>
      <trkpt lat="41.26667166666667" lon="-8.709275">
        <ele>104.0</ele>
        <time>2019-07-05T17:47:48Z</time>
      </trkpt>
      <trkpt lat="41.266675" lon="-8.70939">
        <ele>103.0</ele>
        <time>2019-07-05T17:47:50Z</time>
      </trkpt>
      <trkpt lat="41.26667" lon="-8.709505">
        <ele>103.0</ele>
        <time>2019-07-05T17:47:52Z</time>
      </trkpt>
      <trkpt lat="41.266655" lon="-8.709625">
        <ele>104.0</ele>
        <time>2019-07-05T17:47:54Z</time>
      </trkpt>
      <trkpt lat="41.26664" lon="-8.709735">
        <ele>103.0</ele>
        <time>2019-07-05T17:47:56Z</time>
      </trkpt>
      <trkpt lat="41.26663" lon="-8.70988">
        <ele>103.0</ele>
        <time>2019-07-05T17:47:59Z</time>
      </trkpt>
      <trkpt lat="41.266621666666666" lon="-8.70998">
        <ele>104.0</ele>
        <time>2019-07-05T17:48:01Z</time>
      </trkpt>
      <trkpt lat="41.26663" lon="-8.71008">
        <ele>104.0</ele>
        <time>2019-07-05T17:48:03Z</time>
      </trkpt>
      <trkpt lat="41.26663833333333" lon="-8.710218333333334">
        <ele>104.0</ele>
        <time>2019-07-05T17:48:06Z</time>
      </trkpt>
      <trkpt lat="41.26666" lon="-8.71031">
        <ele>104.0</ele>
        <time>2019-07-05T17:48:08Z</time>
      </trkpt>
      <trkpt lat="41.266695" lon="-8.7104">
        <ele>104.0</ele>
        <time>2019-07-05T17:48:10Z</time>
      </trkpt>
      <trkpt lat="41.26677166666666" lon="-8.710495">
        <ele>103.0</ele>
        <time>2019-07-05T17:48:13Z</time>
      </trkpt>
      <trkpt lat="41.26683" lon="-8.710575">
        <ele>102.0</ele>
        <time>2019-07-05T17:48:16Z</time>
      </trkpt>
      <trkpt lat="41.266885" lon="-8.710655">
        <ele>102.0</ele>
        <time>2019-07-05T17:48:20Z</time>
      </trkpt>
      <trkpt lat="41.266931666666665" lon="-8.710751666666667">
        <ele>101.0</ele>
        <time>2019-07-05T17:48:23Z</time>
      </trkpt>
      <trkpt lat="41.26696" lon="-8.710845">
        <ele>101.0</ele>
        <time>2019-07-05T17:48:25Z</time>
      </trkpt>
      <trkpt lat="41.26700666666667" lon="-8.710955">
        <ele>101.0</ele>
        <time>2019-07-05T17:48:28Z</time>
      </trkpt>
      <trkpt lat="41.26711" lon="-8.710965">
        <ele>102.0</ele>
        <time>2019-07-05T17:48:30Z</time>
      </trkpt>
      <trkpt lat="41.26717166666667" lon="-8.71105">
        <ele>101.0</ele>
        <time>2019-07-05T17:48:32Z</time>
      </trkpt>
      <trkpt lat="41.267228333333335" lon="-8.71116">
        <ele>100.0</ele>
        <time>2019-07-05T17:48:34Z</time>
      </trkpt>
      <trkpt lat="41.267275" lon="-8.711275">
        <ele>100.0</ele>
        <time>2019-07-05T17:48:36Z</time>
      </trkpt>
      <trkpt lat="41.267335" lon="-8.711375">
        <ele>99.0</ele>
        <time>2019-07-05T17:48:39Z</time>
      </trkpt>
      <trkpt lat="41.267426666666665" lon="-8.71144">
        <ele>98.0</ele>
        <time>2019-07-05T17:48:42Z</time>
      </trkpt>
      <trkpt lat="41.267505" lon="-8.711495">
        <ele>98.0</ele>
        <time>2019-07-05T17:48:44Z</time>
      </trkpt>
      <trkpt lat="41.26759" lon="-8.711575">
        <ele>98.0</ele>
        <time>2019-07-05T17:48:46Z</time>
      </trkpt>
      <trkpt lat="41.267635" lon="-8.711715">
        <ele>97.0</ele>
        <time>2019-07-05T17:48:48Z</time>
      </trkpt>
      <trkpt lat="41.26767" lon="-8.711845">
        <ele>97.0</ele>
        <time>2019-07-05T17:48:50Z</time>
      </trkpt>
      <trkpt lat="41.26767" lon="-8.711995">
        <ele>96.0</ele>
        <time>2019-07-05T17:48:52Z</time>
      </trkpt>
      <trkpt lat="41.26764" lon="-8.712135">
        <ele>96.0</ele>
        <time>2019-07-05T17:48:54Z</time>
      </trkpt>
      <trkpt lat="41.267601666666664" lon="-8.712286666666667">
        <ele>96.0</ele>
        <time>2019-07-05T17:48:56Z</time>
      </trkpt>
      <trkpt lat="41.267565" lon="-8.71245">
        <ele>97.0</ele>
        <time>2019-07-05T17:48:58Z</time>
      </trkpt>
      <trkpt lat="41.267555" lon="-8.71261">
        <ele>97.0</ele>
        <time>2019-07-05T17:49:00Z</time>
      </trkpt>
      <trkpt lat="41.26757" lon="-8.712775">
        <ele>97.0</ele>
        <time>2019-07-05T17:49:02Z</time>
      </trkpt>
      <trkpt lat="41.267605" lon="-8.712925">
        <ele>97.0</ele>
        <time>2019-07-05T17:49:04Z</time>
      </trkpt>
      <trkpt lat="41.267645" lon="-8.71308">
        <ele>97.0</ele>
        <time>2019-07-05T17:49:06Z</time>
      </trkpt>
      <trkpt lat="41.26768" lon="-8.71323">
        <ele>96.0</ele>
        <time>2019-07-05T17:49:08Z</time>
      </trkpt>
      <trkpt lat="41.26772" lon="-8.713385">
        <ele>95.0</ele>
        <time>2019-07-05T17:49:10Z</time>
      </trkpt>
      <trkpt lat="41.267755" lon="-8.71354">
        <ele>95.0</ele>
        <time>2019-07-05T17:49:12Z</time>
      </trkpt>
      <trkpt lat="41.26777" lon="-8.713665">
        <ele>94.0</ele>
        <time>2019-07-05T17:49:14Z</time>
      </trkpt>
      <trkpt lat="41.267785" lon="-8.713795">
        <ele>94.0</ele>
        <time>2019-07-05T17:49:17Z</time>
      </trkpt>
      <trkpt lat="41.26786" lon="-8.71387">
        <ele>92.0</ele>
        <time>2019-07-05T17:49:20Z</time>
      </trkpt>
      <trkpt lat="41.26794" lon="-8.7139">
        <ele>91.0</ele>
        <time>2019-07-05T17:49:22Z</time>
      </trkpt>
      <trkpt lat="41.26804166666667" lon="-8.713941666666667">
        <ele>91.0</ele>
        <time>2019-07-05T17:49:24Z</time>
      </trkpt>
      <trkpt lat="41.26815666666667" lon="-8.713985">
        <ele>90.0</ele>
        <time>2019-07-05T17:49:26Z</time>
      </trkpt>
      <trkpt lat="41.26828666666667" lon="-8.71404">
        <ele>89.0</ele>
        <time>2019-07-05T17:49:28Z</time>
      </trkpt>
      <trkpt lat="41.26842" lon="-8.714105">
        <ele>88.0</ele>
        <time>2019-07-05T17:49:30Z</time>
      </trkpt>
      <trkpt lat="41.268545" lon="-8.714205">
        <ele>87.0</ele>
        <time>2019-07-05T17:49:32Z</time>
      </trkpt>
      <trkpt lat="41.26860666666666" lon="-8.71426">
        <ele>87.0</ele>
        <time>2019-07-05T17:49:33Z</time>
      </trkpt>
      <trkpt lat="41.26867166666667" lon="-8.71432">
        <ele>86.0</ele>
        <time>2019-07-05T17:49:34Z</time>
      </trkpt>
      <trkpt lat="41.26874" lon="-8.714386666666666">
        <ele>86.0</ele>
        <time>2019-07-05T17:49:35Z</time>
      </trkpt>
      <trkpt lat="41.26880666666667" lon="-8.714455">
        <ele>85.0</ele>
        <time>2019-07-05T17:49:36Z</time>
      </trkpt>
      <trkpt lat="41.26888" lon="-8.71452">
        <ele>84.0</ele>
        <time>2019-07-05T17:49:37Z</time>
      </trkpt>
      <trkpt lat="41.268955" lon="-8.71459">
        <ele>83.0</ele>
        <time>2019-07-05T17:49:38Z</time>
      </trkpt>
      <trkpt lat="41.269035" lon="-8.714665">
        <ele>82.0</ele>
        <time>2019-07-05T17:49:39Z</time>
      </trkpt>
      <trkpt lat="41.26912" lon="-8.714745">
        <ele>80.0</ele>
        <time>2019-07-05T17:49:40Z</time>
      </trkpt>
      <trkpt lat="41.269205" lon="-8.714823333333333">
        <ele>79.0</ele>
        <time>2019-07-05T17:49:41Z</time>
      </trkpt>
      <trkpt lat="41.2693" lon="-8.714905">
        <ele>78.0</ele>
        <time>2019-07-05T17:49:42Z</time>
      </trkpt>
      <trkpt lat="41.269391666666664" lon="-8.714985">
        <ele>76.0</ele>
        <time>2019-07-05T17:49:43Z</time>
      </trkpt>
      <trkpt lat="41.26949" lon="-8.715065">
        <ele>75.0</ele>
        <time>2019-07-05T17:49:44Z</time>
      </trkpt>
      <trkpt lat="41.269578333333335" lon="-8.71514">
        <ele>74.0</ele>
        <time>2019-07-05T17:49:45Z</time>
      </trkpt>
      <trkpt lat="41.269675" lon="-8.71522">
        <ele>73.0</ele>
        <time>2019-07-05T17:49:46Z</time>
      </trkpt>
      <trkpt lat="41.26977" lon="-8.71529">
        <ele>72.0</ele>
        <time>2019-07-05T17:49:47Z</time>
      </trkpt>
      <trkpt lat="41.26987" lon="-8.71536">
        <ele>70.0</ele>
        <time>2019-07-05T17:49:48Z</time>
      </trkpt>
      <trkpt lat="41.26997" lon="-8.715425">
        <ele>69.0</ele>
        <time>2019-07-05T17:49:49Z</time>
      </trkpt>
      <trkpt lat="41.270075" lon="-8.715486666666667">
        <ele>67.0</ele>
        <time>2019-07-05T17:49:50Z</time>
      </trkpt>
      <trkpt lat="41.270181666666666" lon="-8.71554">
        <ele>67.0</ele>
        <time>2019-07-05T17:49:51Z</time>
      </trkpt>
      <trkpt lat="41.270291666666665" lon="-8.71559">
        <ele>66.0</ele>
        <time>2019-07-05T17:49:52Z</time>
      </trkpt>
      <trkpt lat="41.270395" lon="-8.71564">
        <ele>66.0</ele>
        <time>2019-07-05T17:49:53Z</time>
      </trkpt>
      <trkpt lat="41.270493333333334" lon="-8.715686666666667">
        <ele>66.0</ele>
        <time>2019-07-05T17:49:54Z</time>
      </trkpt>
      <trkpt lat="41.27059" lon="-8.71573">
        <ele>67.0</ele>
        <time>2019-07-05T17:49:55Z</time>
      </trkpt>
      <trkpt lat="41.270675" lon="-8.71577">
        <ele>68.0</ele>
        <time>2019-07-05T17:49:56Z</time>
      </trkpt>
      <trkpt lat="41.270745" lon="-8.715805">
        <ele>69.0</ele>
        <time>2019-07-05T17:49:57Z</time>
      </trkpt>
      <trkpt lat="41.270855" lon="-8.71585">
        <ele>70.0</ele>
        <time>2019-07-05T17:49:59Z</time>
      </trkpt>
      <trkpt lat="41.270936666666664" lon="-8.715901666666667">
        <ele>71.0</ele>
        <time>2019-07-05T17:50:02Z</time>
      </trkpt>
      <trkpt lat="41.270925" lon="-8.71602">
        <ele>72.0</ele>
        <time>2019-07-05T17:50:05Z</time>
      </trkpt>
      <trkpt lat="41.27092" lon="-8.716145">
        <ele>71.0</ele>
        <time>2019-07-05T17:50:07Z</time>
      </trkpt>
      <trkpt lat="41.270943333333335" lon="-8.716283333333333">
        <ele>69.0</ele>
        <time>2019-07-05T17:50:09Z</time>
      </trkpt>
      <trkpt lat="41.27103" lon="-8.716405">
        <ele>68.0</ele>
        <time>2019-07-05T17:50:11Z</time>
      </trkpt>
      <trkpt lat="41.271075" lon="-8.716561666666667">
        <ele>67.0</ele>
        <time>2019-07-05T17:50:13Z</time>
      </trkpt>
      <trkpt lat="41.27105666666667" lon="-8.71673">
        <ele>67.0</ele>
        <time>2019-07-05T17:50:15Z</time>
      </trkpt>
      <trkpt lat="41.27101" lon="-8.716891666666667">
        <ele>68.0</ele>
        <time>2019-07-05T17:50:17Z</time>
      </trkpt>
      <trkpt lat="41.270975" lon="-8.717036666666667">
        <ele>67.0</ele>
        <time>2019-07-05T17:50:19Z</time>
      </trkpt>
      <trkpt lat="41.27093833333333" lon="-8.71719">
        <ele>67.0</ele>
        <time>2019-07-05T17:50:21Z</time>
      </trkpt>
      <trkpt lat="41.2709" lon="-8.71733">
        <ele>67.0</ele>
        <time>2019-07-05T17:50:23Z</time>
      </trkpt>
      <trkpt lat="41.270855" lon="-8.717475">
        <ele>67.0</ele>
        <time>2019-07-05T17:50:25Z</time>
      </trkpt>
      <trkpt lat="41.270815" lon="-8.717615">
        <ele>68.0</ele>
        <time>2019-07-05T17:50:27Z</time>
      </trkpt>
      <trkpt lat="41.27077666666667" lon="-8.71775">
        <ele>68.0</ele>
        <time>2019-07-05T17:50:29Z</time>
      </trkpt>
      <trkpt lat="41.27073166666667" lon="-8.717855">
        <ele>68.0</ele>
        <time>2019-07-05T17:50:31Z</time>
      </trkpt>
      <trkpt lat="41.270705" lon="-8.717951666666666">
        <ele>69.0</ele>
        <time>2019-07-05T17:50:33Z</time>
      </trkpt>
      <trkpt lat="41.27068" lon="-8.718081666666667">
        <ele>70.0</ele>
        <time>2019-07-05T17:50:36Z</time>
      </trkpt>
      <trkpt lat="41.270705" lon="-8.71819">
        <ele>70.0</ele>
        <time>2019-07-05T17:50:39Z</time>
      </trkpt>
      <trkpt lat="41.27073166666667" lon="-8.71829">
        <ele>70.0</ele>
        <time>2019-07-05T17:50:42Z</time>
      </trkpt>
      <trkpt lat="41.270765" lon="-8.7184">
        <ele>70.0</ele>
        <time>2019-07-05T17:50:45Z</time>
      </trkpt>
      <trkpt lat="41.270795" lon="-8.718498333333333">
        <ele>71.0</ele>
        <time>2019-07-05T17:50:48Z</time>
      </trkpt>
      <trkpt lat="41.270825" lon="-8.7186">
        <ele>71.0</ele>
        <time>2019-07-05T17:50:51Z</time>
      </trkpt>
      <trkpt lat="41.27085" lon="-8.718715">
        <ele>72.0</ele>
        <time>2019-07-05T17:50:54Z</time>
      </trkpt>
      <trkpt lat="41.27086" lon="-8.71884">
        <ele>74.0</ele>
        <time>2019-07-05T17:50:57Z</time>
      </trkpt>
      <trkpt lat="41.2709" lon="-8.718931666666666">
        <ele>75.0</ele>
        <time>2019-07-05T17:51:00Z</time>
      </trkpt>
      <trkpt lat="41.270955" lon="-8.719011666666667">
        <ele>76.0</ele>
        <time>2019-07-05T17:51:03Z</time>
      </trkpt>
      <trkpt lat="41.27102" lon="-8.719086666666668">
        <ele>76.0</ele>
        <time>2019-07-05T17:51:06Z</time>
      </trkpt>
      <trkpt lat="41.27109" lon="-8.71914">
        <ele>76.0</ele>
        <time>2019-07-05T17:51:08Z</time>
      </trkpt>
      <trkpt lat="41.271175" lon="-8.719191666666667">
        <ele>76.0</ele>
        <time>2019-07-05T17:51:10Z</time>
      </trkpt>
      <trkpt lat="41.27124166666667" lon="-8.719255">
        <ele>75.0</ele>
        <time>2019-07-05T17:51:12Z</time>
      </trkpt>
      <trkpt lat="41.271245" lon="-8.719355">
        <ele>73.0</ele>
        <time>2019-07-05T17:51:14Z</time>
      </trkpt>
      <trkpt lat="41.271185" lon="-8.71945">
        <ele>72.0</ele>
        <time>2019-07-05T17:51:16Z</time>
      </trkpt>
      <trkpt lat="41.27109" lon="-8.719546666666666">
        <ele>71.0</ele>
        <time>2019-07-05T17:51:18Z</time>
      </trkpt>
      <trkpt lat="41.271035" lon="-8.71961">
        <ele>69.0</ele>
        <time>2019-07-05T17:51:19Z</time>
      </trkpt>
      <trkpt lat="41.270935" lon="-8.719735">
        <ele>67.0</ele>
        <time>2019-07-05T17:51:21Z</time>
      </trkpt>
      <trkpt lat="41.27088166666667" lon="-8.7198">
        <ele>66.0</ele>
        <time>2019-07-05T17:51:22Z</time>
      </trkpt>
      <trkpt lat="41.270815" lon="-8.719955">
        <ele>66.0</ele>
        <time>2019-07-05T17:51:24Z</time>
      </trkpt>
      <trkpt lat="41.270781666666664" lon="-8.720125">
        <ele>66.0</ele>
        <time>2019-07-05T17:51:26Z</time>
      </trkpt>
      <trkpt lat="41.270755" lon="-8.720301666666666">
        <ele>65.0</ele>
        <time>2019-07-05T17:51:28Z</time>
      </trkpt>
      <trkpt lat="41.270715" lon="-8.72048">
        <ele>64.0</ele>
        <time>2019-07-05T17:51:30Z</time>
      </trkpt>
      <trkpt lat="41.270695" lon="-8.720666666666666">
        <ele>63.0</ele>
        <time>2019-07-05T17:51:32Z</time>
      </trkpt>
      <trkpt lat="41.270725" lon="-8.720831666666667">
        <ele>63.0</ele>
        <time>2019-07-05T17:51:34Z</time>
      </trkpt>
      <trkpt lat="41.27077166666667" lon="-8.720945">
        <ele>63.0</ele>
        <time>2019-07-05T17:51:36Z</time>
      </trkpt>
      <trkpt lat="41.270825" lon="-8.721015">
        <ele>64.0</ele>
        <time>2019-07-05T17:51:39Z</time>
      </trkpt>
      <trkpt lat="41.270885" lon="-8.721101666666666">
        <ele>64.0</ele>
        <time>2019-07-05T17:51:43Z</time>
      </trkpt>
      <trkpt lat="41.27095" lon="-8.721185">
        <ele>66.0</ele>
        <time>2019-07-05T17:51:47Z</time>
      </trkpt>
      <trkpt lat="41.271005" lon="-8.72126">
        <ele>67.0</ele>
        <time>2019-07-05T17:51:51Z</time>
      </trkpt>
      <trkpt lat="41.27104666666666" lon="-8.721335">
        <ele>69.0</ele>
        <time>2019-07-05T17:51:54Z</time>
      </trkpt>
      <trkpt lat="41.271098333333335" lon="-8.721398333333333">
        <ele>71.0</ele>
        <time>2019-07-05T17:51:57Z</time>
      </trkpt>
      <trkpt lat="41.271165" lon="-8.721485">
        <ele>72.0</ele>
        <time>2019-07-05T17:52:01Z</time>
      </trkpt>
      <trkpt lat="41.271231666666665" lon="-8.721565">
        <ele>73.0</ele>
        <time>2019-07-05T17:52:05Z</time>
      </trkpt>
      <trkpt lat="41.271285" lon="-8.721655">
        <ele>75.0</ele>
        <time>2019-07-05T17:52:09Z</time>
      </trkpt>
      <trkpt lat="41.27134" lon="-8.72175">
        <ele>76.0</ele>
        <time>2019-07-05T17:52:13Z</time>
      </trkpt>
      <trkpt lat="41.271405" lon="-8.721835">
        <ele>76.0</ele>
        <time>2019-07-05T17:52:17Z</time>
      </trkpt>
      <trkpt lat="41.271465" lon="-8.721906666666667">
        <ele>76.0</ele>
        <time>2019-07-05T17:52:20Z</time>
      </trkpt>
      <trkpt lat="41.27152" lon="-8.722003333333333">
        <ele>77.0</ele>
        <time>2019-07-05T17:52:23Z</time>
      </trkpt>
      <trkpt lat="41.271575" lon="-8.722121666666666">
        <ele>76.0</ele>
        <time>2019-07-05T17:52:26Z</time>
      </trkpt>
      <trkpt lat="41.27161" lon="-8.722215">
        <ele>77.0</ele>
        <time>2019-07-05T17:52:28Z</time>
      </trkpt>
      <trkpt lat="41.271645" lon="-8.722315">
        <ele>76.0</ele>
        <time>2019-07-05T17:52:30Z</time>
      </trkpt>
      <trkpt lat="41.271675" lon="-8.722418333333334">
        <ele>77.0</ele>
        <time>2019-07-05T17:52:32Z</time>
      </trkpt>
      <trkpt lat="41.271701666666665" lon="-8.722531666666667">
        <ele>76.0</ele>
        <time>2019-07-05T17:52:34Z</time>
      </trkpt>
      <trkpt lat="41.27173" lon="-8.722646666666666">
        <ele>76.0</ele>
        <time>2019-07-05T17:52:36Z</time>
      </trkpt>
      <trkpt lat="41.271755" lon="-8.72277">
        <ele>76.0</ele>
        <time>2019-07-05T17:52:38Z</time>
      </trkpt>
      <trkpt lat="41.271785" lon="-8.722891666666667">
        <ele>76.0</ele>
        <time>2019-07-05T17:52:40Z</time>
      </trkpt>
      <trkpt lat="41.27184" lon="-8.722986666666667">
        <ele>75.0</ele>
        <time>2019-07-05T17:52:42Z</time>
      </trkpt>
      <trkpt lat="41.27192333333333" lon="-8.72304">
        <ele>75.0</ele>
        <time>2019-07-05T17:52:44Z</time>
      </trkpt>
      <trkpt lat="41.272016666666666" lon="-8.723071666666666">
        <ele>76.0</ele>
        <time>2019-07-05T17:52:46Z</time>
      </trkpt>
      <trkpt lat="41.272105" lon="-8.72309">
        <ele>76.0</ele>
        <time>2019-07-05T17:52:48Z</time>
      </trkpt>
      <trkpt lat="41.272185" lon="-8.723095">
        <ele>76.0</ele>
        <time>2019-07-05T17:52:50Z</time>
      </trkpt>
      <trkpt lat="41.272255" lon="-8.723115">
        <ele>77.0</ele>
        <time>2019-07-05T17:52:53Z</time>
      </trkpt>
      <trkpt lat="41.272166666666664" lon="-8.723171666666667">
        <ele>77.0</ele>
        <time>2019-07-05T17:52:56Z</time>
      </trkpt>
      <trkpt lat="41.27214" lon="-8.723295">
        <ele>76.0</ele>
        <time>2019-07-05T17:52:59Z</time>
      </trkpt>
      <trkpt lat="41.272115" lon="-8.723403333333334">
        <ele>76.0</ele>
        <time>2019-07-05T17:53:01Z</time>
      </trkpt>
      <trkpt lat="41.27209" lon="-8.723525">
        <ele>75.0</ele>
        <time>2019-07-05T17:53:03Z</time>
      </trkpt>
      <trkpt lat="41.272075" lon="-8.72363">
        <ele>74.0</ele>
        <time>2019-07-05T17:53:05Z</time>
      </trkpt>
      <trkpt lat="41.27207" lon="-8.72375">
        <ele>74.0</ele>
        <time>2019-07-05T17:53:07Z</time>
      </trkpt>
      <trkpt lat="41.27205" lon="-8.723876666666667">
        <ele>74.0</ele>
        <time>2019-07-05T17:53:09Z</time>
      </trkpt>
      <trkpt lat="41.27202166666667" lon="-8.724011666666666">
        <ele>73.0</ele>
        <time>2019-07-05T17:53:11Z</time>
      </trkpt>
      <trkpt lat="41.271995" lon="-8.724161666666667">
        <ele>73.0</ele>
        <time>2019-07-05T17:53:13Z</time>
      </trkpt>
      <trkpt lat="41.27196166666667" lon="-8.72433">
        <ele>72.0</ele>
        <time>2019-07-05T17:53:15Z</time>
      </trkpt>
      <trkpt lat="41.271935" lon="-8.724501666666667">
        <ele>71.0</ele>
        <time>2019-07-05T17:53:17Z</time>
      </trkpt>
      <trkpt lat="41.271928333333335" lon="-8.72465">
        <ele>71.0</ele>
        <time>2019-07-05T17:53:19Z</time>
      </trkpt>
      <trkpt lat="41.27195" lon="-8.724761666666666">
        <ele>71.0</ele>
        <time>2019-07-05T17:53:21Z</time>
      </trkpt>
      <trkpt lat="41.27202" lon="-8.72482">
        <ele>70.0</ele>
        <time>2019-07-05T17:53:23Z</time>
      </trkpt>
      <trkpt lat="41.27211" lon="-8.72487">
        <ele>69.0</ele>
        <time>2019-07-05T17:53:25Z</time>
      </trkpt>
      <trkpt lat="41.272195" lon="-8.72491">
        <ele>70.0</ele>
        <time>2019-07-05T17:53:27Z</time>
      </trkpt>
      <trkpt lat="41.27229" lon="-8.724945">
        <ele>69.0</ele>
        <time>2019-07-05T17:53:29Z</time>
      </trkpt>
      <trkpt lat="41.272376666666666" lon="-8.72499">
        <ele>69.0</ele>
        <time>2019-07-05T17:53:31Z</time>
      </trkpt>
      <trkpt lat="41.272475" lon="-8.72503">
        <ele>69.0</ele>
        <time>2019-07-05T17:53:33Z</time>
      </trkpt>
      <trkpt lat="41.27257" lon="-8.725066666666667">
        <ele>69.0</ele>
        <time>2019-07-05T17:53:35Z</time>
      </trkpt>
      <trkpt lat="41.27267" lon="-8.725096666666667">
        <ele>69.0</ele>
        <time>2019-07-05T17:53:37Z</time>
      </trkpt>
      <trkpt lat="41.27274166666667" lon="-8.725115">
        <ele>69.0</ele>
        <time>2019-07-05T17:53:39Z</time>
      </trkpt>
      <trkpt lat="41.27281" lon="-8.725185">
        <ele>70.0</ele>
        <time>2019-07-05T17:53:42Z</time>
      </trkpt>
      <trkpt lat="41.2728" lon="-8.72528">
        <ele>69.0</ele>
        <time>2019-07-05T17:53:44Z</time>
      </trkpt>
      <trkpt lat="41.27277" lon="-8.72539">
        <ele>70.0</ele>
        <time>2019-07-05T17:53:46Z</time>
      </trkpt>
      <trkpt lat="41.272745" lon="-8.725505">
        <ele>70.0</ele>
        <time>2019-07-05T17:53:48Z</time>
      </trkpt>
      <trkpt lat="41.272715" lon="-8.725635">
        <ele>70.0</ele>
        <time>2019-07-05T17:53:50Z</time>
      </trkpt>
      <trkpt lat="41.272681666666664" lon="-8.72576">
        <ele>70.0</ele>
        <time>2019-07-05T17:53:52Z</time>
      </trkpt>
      <trkpt lat="41.27264" lon="-8.725875">
        <ele>70.0</ele>
        <time>2019-07-05T17:53:54Z</time>
      </trkpt>
      <trkpt lat="41.272596666666665" lon="-8.726001666666667">
        <ele>69.0</ele>
        <time>2019-07-05T17:53:56Z</time>
      </trkpt>
      <trkpt lat="41.272565" lon="-8.72614">
        <ele>69.0</ele>
        <time>2019-07-05T17:53:58Z</time>
      </trkpt>
      <trkpt lat="41.272531666666666" lon="-8.72628">
        <ele>69.0</ele>
        <time>2019-07-05T17:54:00Z</time>
      </trkpt>
      <trkpt lat="41.2725" lon="-8.726416666666667">
        <ele>69.0</ele>
        <time>2019-07-05T17:54:02Z</time>
      </trkpt>
      <trkpt lat="41.272461666666665" lon="-8.72656">
        <ele>69.0</ele>
        <time>2019-07-05T17:54:04Z</time>
      </trkpt>
      <trkpt lat="41.27244" lon="-8.726695">
        <ele>68.0</ele>
        <time>2019-07-05T17:54:06Z</time>
      </trkpt>
      <trkpt lat="41.272415" lon="-8.726825">
        <ele>68.0</ele>
        <time>2019-07-05T17:54:08Z</time>
      </trkpt>
      <trkpt lat="41.272365" lon="-8.726928333333333">
        <ele>67.0</ele>
        <time>2019-07-05T17:54:10Z</time>
      </trkpt>
      <trkpt lat="41.272326666666665" lon="-8.727036666666667">
        <ele>67.0</ele>
        <time>2019-07-05T17:54:12Z</time>
      </trkpt>
      <trkpt lat="41.272306666666665" lon="-8.727155">
        <ele>67.0</ele>
        <time>2019-07-05T17:54:14Z</time>
      </trkpt>
      <trkpt lat="41.2723" lon="-8.72726">
        <ele>67.0</ele>
        <time>2019-07-05T17:54:16Z</time>
      </trkpt>
      <trkpt lat="41.272301666666664" lon="-8.72736">
        <ele>67.0</ele>
        <time>2019-07-05T17:54:18Z</time>
      </trkpt>
      <trkpt lat="41.27235" lon="-8.727455">
        <ele>66.0</ele>
        <time>2019-07-05T17:54:21Z</time>
      </trkpt>
      <trkpt lat="41.27237" lon="-8.727465">
        <ele>66.0</ele>
        <time>2019-07-05T17:54:28Z</time>
      </trkpt>
      <trkpt lat="41.27237" lon="-8.727465">
        <ele>66.0</ele>
        <time>2019-07-05T17:54:30Z</time>
      </trkpt>
      <trkpt lat="41.272375" lon="-8.72746">
        <ele>65.0</ele>
        <time>2019-07-05T17:54:40Z</time>
      </trkpt>
      <trkpt lat="41.272375" lon="-8.72746">
        <ele>65.0</ele>
        <time>2019-07-05T17:54:41Z</time>
      </trkpt>
      <trkpt lat="41.272371666666665" lon="-8.727465">
        <ele>65.0</ele>
        <time>2019-07-05T17:54:49Z</time>
      </trkpt>
      <trkpt lat="41.272371666666665" lon="-8.72747">
        <ele>65.0</ele>
        <time>2019-07-05T17:54:50Z</time>
      </trkpt>
      <trkpt lat="41.27241" lon="-8.727506666666667">
        <ele>70.0</ele>
        <time>2019-07-05T17:59:59Z</time>
      </trkpt>
      <trkpt lat="41.272376666666666" lon="-8.72748">
        <ele>69.0</ele>
        <time>2019-07-05T17:59:59Z</time>
      </trkpt>
      <trkpt lat="41.272385" lon="-8.72746">
        <ele>69.0</ele>
        <time>2019-07-05T18:00:06Z</time>
      </trkpt>
      <trkpt lat="41.272385" lon="-8.727465">
        <ele>68.0</ele>
        <time>2019-07-05T18:00:12Z</time>
      </trkpt>
      <trkpt lat="41.27239" lon="-8.72746">
        <ele>68.0</ele>
        <time>2019-07-05T18:00:25Z</time>
      </trkpt>
      <trkpt lat="41.272375" lon="-8.727455">
        <ele>67.0</ele>
        <time>2019-07-05T18:00:32Z</time>
      </trkpt>
      <trkpt lat="41.27237" lon="-8.727455">
        <ele>66.0</ele>
        <time>2019-07-05T18:00:34Z</time>
      </trkpt>
      <trkpt lat="41.27247" lon="-8.727465">
        <ele>66.0</ele>
        <time>2019-07-05T18:00:55Z</time>
      </trkpt>
      <trkpt lat="41.272575" lon="-8.72748">
        <ele>66.0</ele>
        <time>2019-07-05T18:00:58Z</time>
      </trkpt>
      <trkpt lat="41.27266" lon="-8.727495">
        <ele>67.0</ele>
        <time>2019-07-05T18:01:00Z</time>
      </trkpt>
      <trkpt lat="41.27273" lon="-8.72751">
        <ele>68.0</ele>
        <time>2019-07-05T18:01:02Z</time>
      </trkpt>
      <trkpt lat="41.27283" lon="-8.72753">
        <ele>68.0</ele>
        <time>2019-07-05T18:01:05Z</time>
      </trkpt>
      <trkpt lat="41.272906666666664" lon="-8.72753">
        <ele>68.0</ele>
        <time>2019-07-05T18:01:07Z</time>
      </trkpt>
      <trkpt lat="41.272995" lon="-8.72754">
        <ele>68.0</ele>
        <time>2019-07-05T18:01:09Z</time>
      </trkpt>
      <trkpt lat="41.27322" lon="-8.727585">
        <ele>67.0</ele>
        <time>2019-07-05T18:01:15Z</time>
      </trkpt>
      <trkpt lat="41.273305" lon="-8.727595">
        <ele>68.0</ele>
        <time>2019-07-05T18:01:16Z</time>
      </trkpt>
      <trkpt lat="41.2735" lon="-8.727615">
        <ele>68.0</ele>
        <time>2019-07-05T18:01:21Z</time>
      </trkpt>
      <trkpt lat="41.273595" lon="-8.72761">
        <ele>68.0</ele>
        <time>2019-07-05T18:01:22Z</time>
      </trkpt>
      <trkpt lat="41.273695000000004" lon="-8.727625">
        <ele>68.0</ele>
        <time>2019-07-05T18:01:24Z</time>
      </trkpt>
      <trkpt lat="41.273795" lon="-8.727631666666667">
        <ele>67.0</ele>
        <time>2019-07-05T18:01:26Z</time>
      </trkpt>
      <trkpt lat="41.273885" lon="-8.727645">
        <ele>68.0</ele>
        <time>2019-07-05T18:01:28Z</time>
      </trkpt>
      <trkpt lat="41.273965" lon="-8.727655">
        <ele>68.0</ele>
        <time>2019-07-05T18:01:30Z</time>
      </trkpt>
      <trkpt lat="41.274075" lon="-8.727655">
        <ele>67.0</ele>
        <time>2019-07-05T18:01:33Z</time>
      </trkpt>
      <trkpt lat="41.274155" lon="-8.727666666666666">
        <ele>68.0</ele>
        <time>2019-07-05T18:01:35Z</time>
      </trkpt>
      <trkpt lat="41.274245" lon="-8.727675">
        <ele>68.0</ele>
        <time>2019-07-05T18:01:37Z</time>
      </trkpt>
      <trkpt lat="41.274325" lon="-8.72768">
        <ele>68.0</ele>
        <time>2019-07-05T18:01:39Z</time>
      </trkpt>
      <trkpt lat="41.274411666666666" lon="-8.727685">
        <ele>68.0</ele>
        <time>2019-07-05T18:01:41Z</time>
      </trkpt>
      <trkpt lat="41.2745" lon="-8.727695">
        <ele>69.0</ele>
        <time>2019-07-05T18:01:43Z</time>
      </trkpt>
      <trkpt lat="41.27458333333333" lon="-8.72769">
        <ele>69.0</ele>
        <time>2019-07-05T18:01:45Z</time>
      </trkpt>
      <trkpt lat="41.27467333333333" lon="-8.727686666666667">
        <ele>70.0</ele>
        <time>2019-07-05T18:01:47Z</time>
      </trkpt>
      <trkpt lat="41.27477" lon="-8.72768">
        <ele>69.0</ele>
        <time>2019-07-05T18:01:49Z</time>
      </trkpt>
      <trkpt lat="41.27486" lon="-8.72768">
        <ele>70.0</ele>
        <time>2019-07-05T18:01:51Z</time>
      </trkpt>
      <trkpt lat="41.27495" lon="-8.727685">
        <ele>70.0</ele>
        <time>2019-07-05T18:01:53Z</time>
      </trkpt>
      <trkpt lat="41.275036666666665" lon="-8.72771">
        <ele>70.0</ele>
        <time>2019-07-05T18:01:55Z</time>
      </trkpt>
      <trkpt lat="41.275106666666666" lon="-8.72774">
        <ele>70.0</ele>
        <time>2019-07-05T18:01:57Z</time>
      </trkpt>
      <trkpt lat="41.2752" lon="-8.72781">
        <ele>71.0</ele>
        <time>2019-07-05T18:02:00Z</time>
      </trkpt>
      <trkpt lat="41.27527833333333" lon="-8.727875">
        <ele>71.0</ele>
        <time>2019-07-05T18:02:03Z</time>
      </trkpt>
      <trkpt lat="41.27537" lon="-8.727936666666666">
        <ele>71.0</ele>
        <time>2019-07-05T18:02:06Z</time>
      </trkpt>
      <trkpt lat="41.27544666666667" lon="-8.727995">
        <ele>71.0</ele>
        <time>2019-07-05T18:02:09Z</time>
      </trkpt>
      <trkpt lat="41.27553" lon="-8.72807">
        <ele>71.0</ele>
        <time>2019-07-05T18:02:12Z</time>
      </trkpt>
      <trkpt lat="41.27560166666667" lon="-8.72813">
        <ele>70.0</ele>
        <time>2019-07-05T18:02:14Z</time>
      </trkpt>
      <trkpt lat="41.275675" lon="-8.728185">
        <ele>70.0</ele>
        <time>2019-07-05T18:02:16Z</time>
      </trkpt>
      <trkpt lat="41.27575" lon="-8.728246666666667">
        <ele>70.0</ele>
        <time>2019-07-05T18:02:18Z</time>
      </trkpt>
      <trkpt lat="41.275835" lon="-8.728315">
        <ele>69.0</ele>
        <time>2019-07-05T18:02:20Z</time>
      </trkpt>
      <trkpt lat="41.275906666666664" lon="-8.728371666666666">
        <ele>68.0</ele>
        <time>2019-07-05T18:02:22Z</time>
      </trkpt>
      <trkpt lat="41.275985" lon="-8.728435">
        <ele>67.0</ele>
        <time>2019-07-05T18:02:25Z</time>
      </trkpt>
      <trkpt lat="41.27605" lon="-8.72848">
        <ele>66.0</ele>
        <time>2019-07-05T18:02:28Z</time>
      </trkpt>
      <trkpt lat="41.27615" lon="-8.728475">
        <ele>67.0</ele>
        <time>2019-07-05T18:02:31Z</time>
      </trkpt>
      <trkpt lat="41.276246666666665" lon="-8.728481666666667">
        <ele>66.0</ele>
        <time>2019-07-05T18:02:33Z</time>
      </trkpt>
      <trkpt lat="41.276356666666665" lon="-8.728483333333333">
        <ele>66.0</ele>
        <time>2019-07-05T18:02:35Z</time>
      </trkpt>
      <trkpt lat="41.27647" lon="-8.72849">
        <ele>66.0</ele>
        <time>2019-07-05T18:02:37Z</time>
      </trkpt>
      <trkpt lat="41.276595" lon="-8.728483333333333">
        <ele>66.0</ele>
        <time>2019-07-05T18:02:39Z</time>
      </trkpt>
      <trkpt lat="41.27672" lon="-8.72849">
        <ele>65.0</ele>
        <time>2019-07-05T18:02:41Z</time>
      </trkpt>
      <trkpt lat="41.276846666666664" lon="-8.728495">
        <ele>65.0</ele>
        <time>2019-07-05T18:02:43Z</time>
      </trkpt>
      <trkpt lat="41.27699" lon="-8.728495">
        <ele>65.0</ele>
        <time>2019-07-05T18:02:45Z</time>
      </trkpt>
      <trkpt lat="41.27712" lon="-8.72849">
        <ele>66.0</ele>
        <time>2019-07-05T18:02:47Z</time>
      </trkpt>
      <trkpt lat="41.27723" lon="-8.728495">
        <ele>66.0</ele>
        <time>2019-07-05T18:02:49Z</time>
      </trkpt>
      <trkpt lat="41.277335" lon="-8.7285">
        <ele>67.0</ele>
        <time>2019-07-05T18:02:51Z</time>
      </trkpt>
      <trkpt lat="41.27743666666667" lon="-8.72848">
        <ele>66.0</ele>
        <time>2019-07-05T18:02:53Z</time>
      </trkpt>
      <trkpt lat="41.277535" lon="-8.72845">
        <ele>67.0</ele>
        <time>2019-07-05T18:02:55Z</time>
      </trkpt>
      <trkpt lat="41.27764" lon="-8.72841">
        <ele>66.0</ele>
        <time>2019-07-05T18:02:57Z</time>
      </trkpt>
      <trkpt lat="41.27775166666667" lon="-8.728365">
        <ele>65.0</ele>
        <time>2019-07-05T18:02:59Z</time>
      </trkpt>
      <trkpt lat="41.277875" lon="-8.72832">
        <ele>64.0</ele>
        <time>2019-07-05T18:03:01Z</time>
      </trkpt>
      <trkpt lat="41.27799" lon="-8.728291666666667">
        <ele>64.0</ele>
        <time>2019-07-05T18:03:03Z</time>
      </trkpt>
      <trkpt lat="41.278095" lon="-8.728305">
        <ele>64.0</ele>
        <time>2019-07-05T18:03:05Z</time>
      </trkpt>
      <trkpt lat="41.278196666666666" lon="-8.72834">
        <ele>63.0</ele>
        <time>2019-07-05T18:03:07Z</time>
      </trkpt>
      <trkpt lat="41.27831166666667" lon="-8.728381666666667">
        <ele>63.0</ele>
        <time>2019-07-05T18:03:09Z</time>
      </trkpt>
      <trkpt lat="41.278415" lon="-8.728415">
        <ele>62.0</ele>
        <time>2019-07-05T18:03:11Z</time>
      </trkpt>
      <trkpt lat="41.278505" lon="-8.728395">
        <ele>63.0</ele>
        <time>2019-07-05T18:03:13Z</time>
      </trkpt>
      <trkpt lat="41.27858" lon="-8.7284">
        <ele>63.0</ele>
        <time>2019-07-05T18:03:15Z</time>
      </trkpt>
      <trkpt lat="41.27865166666667" lon="-8.728411666666666">
        <ele>63.0</ele>
        <time>2019-07-05T18:03:17Z</time>
      </trkpt>
      <trkpt lat="41.278745" lon="-8.728483333333333">
        <ele>64.0</ele>
        <time>2019-07-05T18:03:20Z</time>
      </trkpt>
      <trkpt lat="41.278818333333334" lon="-8.728515">
        <ele>64.0</ele>
        <time>2019-07-05T18:03:22Z</time>
      </trkpt>
      <trkpt lat="41.2789" lon="-8.72853">
        <ele>64.0</ele>
        <time>2019-07-05T18:03:24Z</time>
      </trkpt>
      <trkpt lat="41.278985" lon="-8.728555">
        <ele>64.0</ele>
        <time>2019-07-05T18:03:26Z</time>
      </trkpt>
      <trkpt lat="41.279066666666665" lon="-8.728585">
        <ele>64.0</ele>
        <time>2019-07-05T18:03:28Z</time>
      </trkpt>
      <trkpt lat="41.27915" lon="-8.72861">
        <ele>64.0</ele>
        <time>2019-07-05T18:03:30Z</time>
      </trkpt>
      <trkpt lat="41.279235" lon="-8.72864">
        <ele>64.0</ele>
        <time>2019-07-05T18:03:32Z</time>
      </trkpt>
      <trkpt lat="41.27931" lon="-8.7287">
        <ele>63.0</ele>
        <time>2019-07-05T18:03:34Z</time>
      </trkpt>
      <trkpt lat="41.27938" lon="-8.728761666666667">
        <ele>64.0</ele>
        <time>2019-07-05T18:03:36Z</time>
      </trkpt>
      <trkpt lat="41.27946166666667" lon="-8.728841666666666">
        <ele>64.0</ele>
        <time>2019-07-05T18:03:39Z</time>
      </trkpt>
      <trkpt lat="41.27953" lon="-8.728905">
        <ele>64.0</ele>
        <time>2019-07-05T18:03:41Z</time>
      </trkpt>
      <trkpt lat="41.27959166666667" lon="-8.728966666666667">
        <ele>64.0</ele>
        <time>2019-07-05T18:03:43Z</time>
      </trkpt>
      <trkpt lat="41.27966" lon="-8.729053333333333">
        <ele>64.0</ele>
        <time>2019-07-05T18:03:46Z</time>
      </trkpt>
      <trkpt lat="41.279685" lon="-8.72908">
        <ele>65.0</ele>
        <time>2019-07-05T18:03:53Z</time>
      </trkpt>
      <trkpt lat="41.27973" lon="-8.72906">
        <ele>66.0</ele>
        <time>2019-07-05T18:04:00Z</time>
      </trkpt>
      <trkpt lat="41.27979" lon="-8.729055">
        <ele>67.0</ele>
        <time>2019-07-05T18:04:07Z</time>
      </trkpt>
      <trkpt lat="41.27986" lon="-8.72908">
        <ele>68.0</ele>
        <time>2019-07-05T18:04:14Z</time>
      </trkpt>
      <trkpt lat="41.2799" lon="-8.729095">
        <ele>70.0</ele>
        <time>2019-07-05T18:04:21Z</time>
      </trkpt>
      <trkpt lat="41.279975" lon="-8.72912">
        <ele>70.0</ele>
        <time>2019-07-05T18:04:25Z</time>
      </trkpt>
      <trkpt lat="41.280046666666664" lon="-8.729165">
        <ele>71.0</ele>
        <time>2019-07-05T18:04:28Z</time>
      </trkpt>
      <trkpt lat="41.280125" lon="-8.729205">
        <ele>72.0</ele>
        <time>2019-07-05T18:04:32Z</time>
      </trkpt>
      <trkpt lat="41.28018" lon="-8.729245">
        <ele>72.0</ele>
        <time>2019-07-05T18:04:39Z</time>
      </trkpt>
      <trkpt lat="41.280255" lon="-8.729295">
        <ele>73.0</ele>
        <time>2019-07-05T18:04:46Z</time>
      </trkpt>
      <trkpt lat="41.28027" lon="-8.729391666666666">
        <ele>74.0</ele>
        <time>2019-07-05T18:04:52Z</time>
      </trkpt>
      <trkpt lat="41.280295" lon="-8.729455">
        <ele>75.0</ele>
        <time>2019-07-05T18:04:59Z</time>
      </trkpt>
      <trkpt lat="41.280355" lon="-8.729475">
        <ele>75.0</ele>
        <time>2019-07-05T18:05:06Z</time>
      </trkpt>
      <trkpt lat="41.280435" lon="-8.7295">
        <ele>75.0</ele>
        <time>2019-07-05T18:05:09Z</time>
      </trkpt>
      <trkpt lat="41.280525" lon="-8.729495">
        <ele>76.0</ele>
        <time>2019-07-05T18:05:12Z</time>
      </trkpt>
      <trkpt lat="41.28061" lon="-8.72949">
        <ele>76.0</ele>
        <time>2019-07-05T18:05:16Z</time>
      </trkpt>
      <trkpt lat="41.28068" lon="-8.72953">
        <ele>75.0</ele>
        <time>2019-07-05T18:05:19Z</time>
      </trkpt>
      <trkpt lat="41.28073166666667" lon="-8.72956">
        <ele>73.0</ele>
        <time>2019-07-05T18:05:26Z</time>
      </trkpt>
      <trkpt lat="41.28076" lon="-8.729616666666667">
        <ele>73.0</ele>
        <time>2019-07-05T18:05:33Z</time>
      </trkpt>
      <trkpt lat="41.28079666666667" lon="-8.72968">
        <ele>73.0</ele>
        <time>2019-07-05T18:05:40Z</time>
      </trkpt>
      <trkpt lat="41.28082" lon="-8.729721666666666">
        <ele>70.0</ele>
        <time>2019-07-05T18:05:47Z</time>
      </trkpt>
      <trkpt lat="41.280815" lon="-8.729826666666666">
        <ele>68.0</ele>
        <time>2019-07-05T18:05:53Z</time>
      </trkpt>
      <trkpt lat="41.28080666666666" lon="-8.729915">
        <ele>66.0</ele>
        <time>2019-07-05T18:06:00Z</time>
      </trkpt>
      <trkpt lat="41.280805" lon="-8.72997">
        <ele>64.0</ele>
        <time>2019-07-05T18:06:07Z</time>
      </trkpt>
      <trkpt lat="41.28085" lon="-8.73001">
        <ele>63.0</ele>
        <time>2019-07-05T18:06:14Z</time>
      </trkpt>
      <trkpt lat="41.28092" lon="-8.730081666666667">
        <ele>62.0</ele>
        <time>2019-07-05T18:06:18Z</time>
      </trkpt>
      <trkpt lat="41.28100166666667" lon="-8.73016">
        <ele>62.0</ele>
        <time>2019-07-05T18:06:22Z</time>
      </trkpt>
      <trkpt lat="41.281065" lon="-8.730235">
        <ele>62.0</ele>
        <time>2019-07-05T18:06:25Z</time>
      </trkpt>
      <trkpt lat="41.281125" lon="-8.73031">
        <ele>62.0</ele>
        <time>2019-07-05T18:06:27Z</time>
      </trkpt>
      <trkpt lat="41.281205" lon="-8.73039">
        <ele>62.0</ele>
        <time>2019-07-05T18:06:29Z</time>
      </trkpt>
      <trkpt lat="41.281275" lon="-8.73045">
        <ele>63.0</ele>
        <time>2019-07-05T18:06:31Z</time>
      </trkpt>
      <trkpt lat="41.281355" lon="-8.73053">
        <ele>64.0</ele>
        <time>2019-07-05T18:06:34Z</time>
      </trkpt>
      <trkpt lat="41.28140166666667" lon="-8.730606666666667">
        <ele>64.0</ele>
        <time>2019-07-05T18:06:36Z</time>
      </trkpt>
      <trkpt lat="41.28145166666667" lon="-8.730686666666667">
        <ele>64.0</ele>
        <time>2019-07-05T18:06:38Z</time>
      </trkpt>
      <trkpt lat="41.28151" lon="-8.730765">
        <ele>63.0</ele>
        <time>2019-07-05T18:06:40Z</time>
      </trkpt>
      <trkpt lat="41.281596666666665" lon="-8.73083">
        <ele>64.0</ele>
        <time>2019-07-05T18:06:43Z</time>
      </trkpt>
      <trkpt lat="41.281695" lon="-8.730885">
        <ele>65.0</ele>
        <time>2019-07-05T18:06:46Z</time>
      </trkpt>
      <trkpt lat="41.28179" lon="-8.73092">
        <ele>66.0</ele>
        <time>2019-07-05T18:06:49Z</time>
      </trkpt>
      <trkpt lat="41.281861666666664" lon="-8.730955">
        <ele>66.0</ele>
        <time>2019-07-05T18:06:52Z</time>
      </trkpt>
      <trkpt lat="41.28189" lon="-8.73105">
        <ele>67.0</ele>
        <time>2019-07-05T18:06:55Z</time>
      </trkpt>
      <trkpt lat="41.28196666666667" lon="-8.7311">
        <ele>67.0</ele>
        <time>2019-07-05T18:06:58Z</time>
      </trkpt>
      <trkpt lat="41.28206" lon="-8.731141666666666">
        <ele>67.0</ele>
        <time>2019-07-05T18:07:01Z</time>
      </trkpt>
      <trkpt lat="41.282136666666666" lon="-8.73118">
        <ele>67.0</ele>
        <time>2019-07-05T18:07:04Z</time>
      </trkpt>
      <trkpt lat="41.282221666666665" lon="-8.73118">
        <ele>67.0</ele>
        <time>2019-07-05T18:07:09Z</time>
      </trkpt>
      <trkpt lat="41.28229" lon="-8.731081666666666">
        <ele>66.0</ele>
        <time>2019-07-05T18:07:12Z</time>
      </trkpt>
      <trkpt lat="41.28238" lon="-8.73101">
        <ele>66.0</ele>
        <time>2019-07-05T18:07:15Z</time>
      </trkpt>
      <trkpt lat="41.282445" lon="-8.730966666666667">
        <ele>66.0</ele>
        <time>2019-07-05T18:07:17Z</time>
      </trkpt>
      <trkpt lat="41.28254166666667" lon="-8.730925">
        <ele>65.0</ele>
        <time>2019-07-05T18:07:20Z</time>
      </trkpt>
      <trkpt lat="41.28264166666666" lon="-8.73088">
        <ele>65.0</ele>
        <time>2019-07-05T18:07:23Z</time>
      </trkpt>
      <trkpt lat="41.282725" lon="-8.73083">
        <ele>65.0</ele>
        <time>2019-07-05T18:07:25Z</time>
      </trkpt>
      <trkpt lat="41.28282" lon="-8.7308">
        <ele>65.0</ele>
        <time>2019-07-05T18:07:27Z</time>
      </trkpt>
      <trkpt lat="41.282916666666665" lon="-8.730771666666667">
        <ele>65.0</ele>
        <time>2019-07-05T18:07:29Z</time>
      </trkpt>
      <trkpt lat="41.283015" lon="-8.730745">
        <ele>66.0</ele>
        <time>2019-07-05T18:07:31Z</time>
      </trkpt>
      <trkpt lat="41.28311" lon="-8.73071">
        <ele>66.0</ele>
        <time>2019-07-05T18:07:33Z</time>
      </trkpt>
      <trkpt lat="41.2832" lon="-8.730675">
        <ele>67.0</ele>
        <time>2019-07-05T18:07:35Z</time>
      </trkpt>
      <trkpt lat="41.28329166666666" lon="-8.730655">
        <ele>67.0</ele>
        <time>2019-07-05T18:07:37Z</time>
      </trkpt>
      <trkpt lat="41.283375" lon="-8.73067">
        <ele>67.0</ele>
        <time>2019-07-05T18:07:39Z</time>
      </trkpt>
      <trkpt lat="41.28346166666667" lon="-8.730705">
        <ele>67.0</ele>
        <time>2019-07-05T18:07:41Z</time>
      </trkpt>
      <trkpt lat="41.283565" lon="-8.730745">
        <ele>67.0</ele>
        <time>2019-07-05T18:07:43Z</time>
      </trkpt>
      <trkpt lat="41.28367166666666" lon="-8.73077">
        <ele>67.0</ele>
        <time>2019-07-05T18:07:45Z</time>
      </trkpt>
      <trkpt lat="41.283785" lon="-8.730801666666666">
        <ele>67.0</ele>
        <time>2019-07-05T18:07:47Z</time>
      </trkpt>
      <trkpt lat="41.2839" lon="-8.730845">
        <ele>66.0</ele>
        <time>2019-07-05T18:07:49Z</time>
      </trkpt>
      <trkpt lat="41.28402" lon="-8.73089">
        <ele>66.0</ele>
        <time>2019-07-05T18:07:51Z</time>
      </trkpt>
      <trkpt lat="41.284135" lon="-8.73094">
        <ele>65.0</ele>
        <time>2019-07-05T18:07:53Z</time>
      </trkpt>
      <trkpt lat="41.284255" lon="-8.730985">
        <ele>65.0</ele>
        <time>2019-07-05T18:07:55Z</time>
      </trkpt>
      <trkpt lat="41.28437" lon="-8.731045">
        <ele>66.0</ele>
        <time>2019-07-05T18:07:57Z</time>
      </trkpt>
      <trkpt lat="41.28448" lon="-8.731115">
        <ele>66.0</ele>
        <time>2019-07-05T18:07:59Z</time>
      </trkpt>
      <trkpt lat="41.28459" lon="-8.731171666666667">
        <ele>65.0</ele>
        <time>2019-07-05T18:08:01Z</time>
      </trkpt>
      <trkpt lat="41.2847" lon="-8.73123">
        <ele>65.0</ele>
        <time>2019-07-05T18:08:03Z</time>
      </trkpt>
      <trkpt lat="41.284816666666664" lon="-8.73129">
        <ele>64.0</ele>
        <time>2019-07-05T18:08:05Z</time>
      </trkpt>
      <trkpt lat="41.28494" lon="-8.731335">
        <ele>64.0</ele>
        <time>2019-07-05T18:08:07Z</time>
      </trkpt>
      <trkpt lat="41.285065" lon="-8.73136">
        <ele>64.0</ele>
        <time>2019-07-05T18:08:09Z</time>
      </trkpt>
      <trkpt lat="41.285195" lon="-8.731375">
        <ele>64.0</ele>
        <time>2019-07-05T18:08:11Z</time>
      </trkpt>
      <trkpt lat="41.28532" lon="-8.731385">
        <ele>65.0</ele>
        <time>2019-07-05T18:08:13Z</time>
      </trkpt>
      <trkpt lat="41.285446666666665" lon="-8.731396666666667">
        <ele>64.0</ele>
        <time>2019-07-05T18:08:15Z</time>
      </trkpt>
      <trkpt lat="41.285576666666664" lon="-8.731405">
        <ele>64.0</ele>
        <time>2019-07-05T18:08:17Z</time>
      </trkpt>
      <trkpt lat="41.285705" lon="-8.73142">
        <ele>64.0</ele>
        <time>2019-07-05T18:08:19Z</time>
      </trkpt>
      <trkpt lat="41.28583" lon="-8.731425">
        <ele>64.0</ele>
        <time>2019-07-05T18:08:21Z</time>
      </trkpt>
      <trkpt lat="41.285955" lon="-8.731436666666667">
        <ele>64.0</ele>
        <time>2019-07-05T18:08:23Z</time>
      </trkpt>
      <trkpt lat="41.286075" lon="-8.731445">
        <ele>64.0</ele>
        <time>2019-07-05T18:08:25Z</time>
      </trkpt>
      <trkpt lat="41.286183333333334" lon="-8.731456666666666">
        <ele>65.0</ele>
        <time>2019-07-05T18:08:27Z</time>
      </trkpt>
      <trkpt lat="41.286285" lon="-8.731476666666667">
        <ele>65.0</ele>
        <time>2019-07-05T18:08:29Z</time>
      </trkpt>
      <trkpt lat="41.286365" lon="-8.731505">
        <ele>65.0</ele>
        <time>2019-07-05T18:08:31Z</time>
      </trkpt>
      <trkpt lat="41.28644" lon="-8.73155">
        <ele>66.0</ele>
        <time>2019-07-05T18:08:38Z</time>
      </trkpt>
      <trkpt lat="41.286521666666665" lon="-8.731565">
        <ele>65.0</ele>
        <time>2019-07-05T18:08:41Z</time>
      </trkpt>
      <trkpt lat="41.2866" lon="-8.731585">
        <ele>65.0</ele>
        <time>2019-07-05T18:08:43Z</time>
      </trkpt>
      <trkpt lat="41.28669" lon="-8.731605">
        <ele>66.0</ele>
        <time>2019-07-05T18:08:45Z</time>
      </trkpt>
      <trkpt lat="41.28678" lon="-8.731625">
        <ele>65.0</ele>
        <time>2019-07-05T18:08:47Z</time>
      </trkpt>
      <trkpt lat="41.28687" lon="-8.731641666666667">
        <ele>65.0</ele>
        <time>2019-07-05T18:08:49Z</time>
      </trkpt>
      <trkpt lat="41.28696166666667" lon="-8.73166">
        <ele>65.0</ele>
        <time>2019-07-05T18:08:51Z</time>
      </trkpt>
      <trkpt lat="41.287045" lon="-8.73168">
        <ele>65.0</ele>
        <time>2019-07-05T18:08:53Z</time>
      </trkpt>
      <trkpt lat="41.287125" lon="-8.731691666666666">
        <ele>65.0</ele>
        <time>2019-07-05T18:08:55Z</time>
      </trkpt>
      <trkpt lat="41.287205" lon="-8.73171">
        <ele>65.0</ele>
        <time>2019-07-05T18:08:57Z</time>
      </trkpt>
      <trkpt lat="41.28729" lon="-8.731735">
        <ele>65.0</ele>
        <time>2019-07-05T18:08:59Z</time>
      </trkpt>
      <trkpt lat="41.287375" lon="-8.73175">
        <ele>65.0</ele>
        <time>2019-07-05T18:09:01Z</time>
      </trkpt>
      <trkpt lat="41.287461666666665" lon="-8.731755">
        <ele>65.0</ele>
        <time>2019-07-05T18:09:03Z</time>
      </trkpt>
      <trkpt lat="41.287555" lon="-8.731695">
        <ele>64.0</ele>
        <time>2019-07-05T18:09:05Z</time>
      </trkpt>
      <trkpt lat="41.287616666666665" lon="-8.731641666666667">
        <ele>64.0</ele>
        <time>2019-07-05T18:09:07Z</time>
      </trkpt>
      <trkpt lat="41.287695" lon="-8.731663333333334">
        <ele>64.0</ele>
        <time>2019-07-05T18:09:09Z</time>
      </trkpt>
      <trkpt lat="41.287775" lon="-8.731715">
        <ele>64.0</ele>
        <time>2019-07-05T18:09:11Z</time>
      </trkpt>
      <trkpt lat="41.287865" lon="-8.731758333333334">
        <ele>64.0</ele>
        <time>2019-07-05T18:09:13Z</time>
      </trkpt>
      <trkpt lat="41.28796" lon="-8.73181">
        <ele>64.0</ele>
        <time>2019-07-05T18:09:15Z</time>
      </trkpt>
      <trkpt lat="41.28805166666667" lon="-8.731856666666667">
        <ele>64.0</ele>
        <time>2019-07-05T18:09:17Z</time>
      </trkpt>
      <trkpt lat="41.288145" lon="-8.731905">
        <ele>63.0</ele>
        <time>2019-07-05T18:09:19Z</time>
      </trkpt>
      <trkpt lat="41.288235" lon="-8.731931666666666">
        <ele>64.0</ele>
        <time>2019-07-05T18:09:21Z</time>
      </trkpt>
      <trkpt lat="41.288325" lon="-8.73193">
        <ele>64.0</ele>
        <time>2019-07-05T18:09:23Z</time>
      </trkpt>
      <trkpt lat="41.28841666666667" lon="-8.731945">
        <ele>65.0</ele>
        <time>2019-07-05T18:09:25Z</time>
      </trkpt>
      <trkpt lat="41.28851" lon="-8.731971666666666">
        <ele>65.0</ele>
        <time>2019-07-05T18:09:27Z</time>
      </trkpt>
      <trkpt lat="41.28859833333333" lon="-8.731995">
        <ele>65.0</ele>
        <time>2019-07-05T18:09:29Z</time>
      </trkpt>
      <trkpt lat="41.28868166666667" lon="-8.732035">
        <ele>65.0</ele>
        <time>2019-07-05T18:09:31Z</time>
      </trkpt>
      <trkpt lat="41.28875" lon="-8.732065">
        <ele>66.0</ele>
        <time>2019-07-05T18:09:33Z</time>
      </trkpt>
      <trkpt lat="41.288855" lon="-8.732085">
        <ele>65.0</ele>
        <time>2019-07-05T18:09:36Z</time>
      </trkpt>
      <trkpt lat="41.288936666666665" lon="-8.732105">
        <ele>65.0</ele>
        <time>2019-07-05T18:09:38Z</time>
      </trkpt>
      <trkpt lat="41.28901666666667" lon="-8.732136666666667">
        <ele>64.0</ele>
        <time>2019-07-05T18:09:40Z</time>
      </trkpt>
      <trkpt lat="41.28909" lon="-8.7322">
        <ele>64.0</ele>
        <time>2019-07-05T18:09:42Z</time>
      </trkpt>
      <trkpt lat="41.28914" lon="-8.732285">
        <ele>64.0</ele>
        <time>2019-07-05T18:09:44Z</time>
      </trkpt>
      <trkpt lat="41.2892" lon="-8.732355">
        <ele>63.0</ele>
        <time>2019-07-05T18:09:46Z</time>
      </trkpt>
      <trkpt lat="41.289276666666666" lon="-8.732421666666667">
        <ele>63.0</ele>
        <time>2019-07-05T18:09:48Z</time>
      </trkpt>
      <trkpt lat="41.289361666666665" lon="-8.732476666666667">
        <ele>63.0</ele>
        <time>2019-07-05T18:09:50Z</time>
      </trkpt>
      <trkpt lat="41.289455" lon="-8.732525">
        <ele>63.0</ele>
        <time>2019-07-05T18:09:52Z</time>
      </trkpt>
      <trkpt lat="41.289555" lon="-8.732575">
        <ele>63.0</ele>
        <time>2019-07-05T18:09:54Z</time>
      </trkpt>
      <trkpt lat="41.289655" lon="-8.732613333333333">
        <ele>63.0</ele>
        <time>2019-07-05T18:09:56Z</time>
      </trkpt>
      <trkpt lat="41.289755" lon="-8.732645">
        <ele>63.0</ele>
        <time>2019-07-05T18:09:58Z</time>
      </trkpt>
      <trkpt lat="41.289855" lon="-8.732668333333333">
        <ele>64.0</ele>
        <time>2019-07-05T18:10:00Z</time>
      </trkpt>
      <trkpt lat="41.28996" lon="-8.732686666666666">
        <ele>64.0</ele>
        <time>2019-07-05T18:10:02Z</time>
      </trkpt>
      <trkpt lat="41.29006" lon="-8.732715">
        <ele>64.0</ele>
        <time>2019-07-05T18:10:04Z</time>
      </trkpt>
      <trkpt lat="41.290155" lon="-8.73275">
        <ele>64.0</ele>
        <time>2019-07-05T18:10:06Z</time>
      </trkpt>
      <trkpt lat="41.29026" lon="-8.73276">
        <ele>64.0</ele>
        <time>2019-07-05T18:10:08Z</time>
      </trkpt>
      <trkpt lat="41.29036" lon="-8.73276">
        <ele>65.0</ele>
        <time>2019-07-05T18:10:10Z</time>
      </trkpt>
      <trkpt lat="41.290465" lon="-8.73276">
        <ele>64.0</ele>
        <time>2019-07-05T18:10:12Z</time>
      </trkpt>
      <trkpt lat="41.29056666666666" lon="-8.732765">
        <ele>64.0</ele>
        <time>2019-07-05T18:10:14Z</time>
      </trkpt>
      <trkpt lat="41.29066666666667" lon="-8.732775">
        <ele>64.0</ele>
        <time>2019-07-05T18:10:16Z</time>
      </trkpt>
      <trkpt lat="41.29076166666667" lon="-8.732785">
        <ele>64.0</ele>
        <time>2019-07-05T18:10:18Z</time>
      </trkpt>
      <trkpt lat="41.29085" lon="-8.732795">
        <ele>64.0</ele>
        <time>2019-07-05T18:10:20Z</time>
      </trkpt>
      <trkpt lat="41.290935" lon="-8.7328">
        <ele>64.0</ele>
        <time>2019-07-05T18:10:22Z</time>
      </trkpt>
      <trkpt lat="41.291015" lon="-8.73281">
        <ele>64.0</ele>
        <time>2019-07-05T18:10:24Z</time>
      </trkpt>
      <trkpt lat="41.29109666666667" lon="-8.732835">
        <ele>64.0</ele>
        <time>2019-07-05T18:10:26Z</time>
      </trkpt>
      <trkpt lat="41.291185" lon="-8.732851666666667">
        <ele>64.0</ele>
        <time>2019-07-05T18:10:28Z</time>
      </trkpt>
      <trkpt lat="41.29127" lon="-8.73287">
        <ele>64.0</ele>
        <time>2019-07-05T18:10:30Z</time>
      </trkpt>
      <trkpt lat="41.291356666666665" lon="-8.732881666666668">
        <ele>65.0</ele>
        <time>2019-07-05T18:10:33Z</time>
      </trkpt>
      <trkpt lat="41.29144" lon="-8.732895">
        <ele>65.0</ele>
        <time>2019-07-05T18:10:36Z</time>
      </trkpt>
      <trkpt lat="41.29153" lon="-8.73291">
        <ele>65.0</ele>
        <time>2019-07-05T18:10:39Z</time>
      </trkpt>
      <trkpt lat="41.29161166666667" lon="-8.73292">
        <ele>64.0</ele>
        <time>2019-07-05T18:10:42Z</time>
      </trkpt>
      <trkpt lat="41.291675" lon="-8.732965">
        <ele>63.0</ele>
        <time>2019-07-05T18:10:45Z</time>
      </trkpt>
      <trkpt lat="41.29173" lon="-8.733035">
        <ele>63.0</ele>
        <time>2019-07-05T18:10:48Z</time>
      </trkpt>
      <trkpt lat="41.29178666666667" lon="-8.7331">
        <ele>61.0</ele>
        <time>2019-07-05T18:10:52Z</time>
      </trkpt>
      <trkpt lat="41.291815" lon="-8.733218333333333">
        <ele>63.0</ele>
        <time>2019-07-05T18:10:57Z</time>
      </trkpt>
      <trkpt lat="41.29186" lon="-8.73332">
        <ele>62.0</ele>
        <time>2019-07-05T18:11:00Z</time>
      </trkpt>
      <trkpt lat="41.291891666666665" lon="-8.733411666666667">
        <ele>62.0</ele>
        <time>2019-07-05T18:11:04Z</time>
      </trkpt>
      <trkpt lat="41.29196" lon="-8.73344">
        <ele>62.0</ele>
        <time>2019-07-05T18:11:07Z</time>
      </trkpt>
      <trkpt lat="41.29204166666667" lon="-8.733408333333333">
        <ele>62.0</ele>
        <time>2019-07-05T18:11:11Z</time>
      </trkpt>
      <trkpt lat="41.29213166666667" lon="-8.733506666666667">
        <ele>62.0</ele>
        <time>2019-07-05T18:11:14Z</time>
      </trkpt>
      <trkpt lat="41.2922" lon="-8.73358">
        <ele>62.0</ele>
        <time>2019-07-05T18:11:16Z</time>
      </trkpt>
      <trkpt lat="41.292265" lon="-8.73365">
        <ele>62.0</ele>
        <time>2019-07-05T18:11:18Z</time>
      </trkpt>
      <trkpt lat="41.292335" lon="-8.73372">
        <ele>62.0</ele>
        <time>2019-07-05T18:11:20Z</time>
      </trkpt>
      <trkpt lat="41.29241" lon="-8.733776666666667">
        <ele>62.0</ele>
        <time>2019-07-05T18:11:22Z</time>
      </trkpt>
      <trkpt lat="41.2925" lon="-8.733835">
        <ele>62.0</ele>
        <time>2019-07-05T18:11:25Z</time>
      </trkpt>
      <trkpt lat="41.292585" lon="-8.733885">
        <ele>62.0</ele>
        <time>2019-07-05T18:11:28Z</time>
      </trkpt>
      <trkpt lat="41.29267" lon="-8.73397">
        <ele>62.0</ele>
        <time>2019-07-05T18:11:31Z</time>
      </trkpt>
      <trkpt lat="41.292735" lon="-8.734025">
        <ele>62.0</ele>
        <time>2019-07-05T18:11:34Z</time>
      </trkpt>
      <trkpt lat="41.292805" lon="-8.734091666666666">
        <ele>63.0</ele>
        <time>2019-07-05T18:11:39Z</time>
      </trkpt>
      <trkpt lat="41.29288" lon="-8.734151666666667">
        <ele>62.0</ele>
        <time>2019-07-05T18:11:42Z</time>
      </trkpt>
      <trkpt lat="41.292975" lon="-8.7342">
        <ele>62.0</ele>
        <time>2019-07-05T18:11:45Z</time>
      </trkpt>
      <trkpt lat="41.293065" lon="-8.73414">
        <ele>61.0</ele>
        <time>2019-07-05T18:11:48Z</time>
      </trkpt>
      <trkpt lat="41.29313" lon="-8.734065">
        <ele>62.0</ele>
        <time>2019-07-05T18:11:51Z</time>
      </trkpt>
      <trkpt lat="41.29323333333333" lon="-8.734095">
        <ele>62.0</ele>
        <time>2019-07-05T18:11:54Z</time>
      </trkpt>
      <trkpt lat="41.293306666666666" lon="-8.734101666666668">
        <ele>62.0</ele>
        <time>2019-07-05T18:11:56Z</time>
      </trkpt>
      <trkpt lat="41.293405" lon="-8.73408">
        <ele>62.0</ele>
        <time>2019-07-05T18:11:59Z</time>
      </trkpt>
      <trkpt lat="41.29348" lon="-8.734131666666666">
        <ele>63.0</ele>
        <time>2019-07-05T18:12:02Z</time>
      </trkpt>
      <trkpt lat="41.29348" lon="-8.734255">
        <ele>64.0</ele>
        <time>2019-07-05T18:12:05Z</time>
      </trkpt>
      <trkpt lat="41.293455" lon="-8.734346666666667">
        <ele>64.0</ele>
        <time>2019-07-05T18:12:07Z</time>
      </trkpt>
      <trkpt lat="41.29343" lon="-8.73444">
        <ele>64.0</ele>
        <time>2019-07-05T18:12:09Z</time>
      </trkpt>
      <trkpt lat="41.29341" lon="-8.73457">
        <ele>64.0</ele>
        <time>2019-07-05T18:12:12Z</time>
      </trkpt>
      <trkpt lat="41.293456666666664" lon="-8.734645">
        <ele>64.0</ele>
        <time>2019-07-05T18:12:14Z</time>
      </trkpt>
      <trkpt lat="41.293526666666665" lon="-8.7347">
        <ele>64.0</ele>
        <time>2019-07-05T18:12:16Z</time>
      </trkpt>
      <trkpt lat="41.293605" lon="-8.734756666666666">
        <ele>65.0</ele>
        <time>2019-07-05T18:12:18Z</time>
      </trkpt>
      <trkpt lat="41.293681666666664" lon="-8.734795">
        <ele>65.0</ele>
        <time>2019-07-05T18:12:20Z</time>
      </trkpt>
      <trkpt lat="41.293775" lon="-8.73486">
        <ele>65.0</ele>
        <time>2019-07-05T18:12:23Z</time>
      </trkpt>
      <trkpt lat="41.293845" lon="-8.734906666666667">
        <ele>66.0</ele>
        <time>2019-07-05T18:12:26Z</time>
      </trkpt>
      <trkpt lat="41.293855" lon="-8.735025">
        <ele>67.0</ele>
        <time>2019-07-05T18:12:30Z</time>
      </trkpt>
      <trkpt lat="41.29392" lon="-8.735115">
        <ele>66.0</ele>
        <time>2019-07-05T18:12:33Z</time>
      </trkpt>
      <trkpt lat="41.293985" lon="-8.735205">
        <ele>66.0</ele>
        <time>2019-07-05T18:12:36Z</time>
      </trkpt>
      <trkpt lat="41.29403166666667" lon="-8.735275">
        <ele>65.0</ele>
        <time>2019-07-05T18:12:39Z</time>
      </trkpt>
      <trkpt lat="41.294075" lon="-8.735356666666666">
        <ele>65.0</ele>
        <time>2019-07-05T18:12:42Z</time>
      </trkpt>
      <trkpt lat="41.294165" lon="-8.73541">
        <ele>65.0</ele>
        <time>2019-07-05T18:12:45Z</time>
      </trkpt>
      <trkpt lat="41.29426" lon="-8.73546">
        <ele>64.0</ele>
        <time>2019-07-05T18:12:48Z</time>
      </trkpt>
      <trkpt lat="41.29434" lon="-8.735501666666666">
        <ele>64.0</ele>
        <time>2019-07-05T18:12:50Z</time>
      </trkpt>
      <trkpt lat="41.294426666666666" lon="-8.735541666666666">
        <ele>63.0</ele>
        <time>2019-07-05T18:12:52Z</time>
      </trkpt>
      <trkpt lat="41.29451" lon="-8.735575">
        <ele>63.0</ele>
        <time>2019-07-05T18:12:54Z</time>
      </trkpt>
      <trkpt lat="41.294595" lon="-8.7356">
        <ele>63.0</ele>
        <time>2019-07-05T18:12:56Z</time>
      </trkpt>
      <trkpt lat="41.29466333333333" lon="-8.73562">
        <ele>63.0</ele>
        <time>2019-07-05T18:12:58Z</time>
      </trkpt>
      <trkpt lat="41.294745" lon="-8.73563">
        <ele>63.0</ele>
        <time>2019-07-05T18:13:02Z</time>
      </trkpt>
      <trkpt lat="41.294815" lon="-8.735705">
        <ele>63.0</ele>
        <time>2019-07-05T18:13:05Z</time>
      </trkpt>
      <trkpt lat="41.29488" lon="-8.735755">
        <ele>64.0</ele>
        <time>2019-07-05T18:13:07Z</time>
      </trkpt>
      <trkpt lat="41.294975" lon="-8.735816666666667">
        <ele>64.0</ele>
        <time>2019-07-05T18:13:10Z</time>
      </trkpt>
      <trkpt lat="41.295046666666664" lon="-8.735855">
        <ele>64.0</ele>
        <time>2019-07-05T18:13:12Z</time>
      </trkpt>
      <trkpt lat="41.29513" lon="-8.7359">
        <ele>64.0</ele>
        <time>2019-07-05T18:13:15Z</time>
      </trkpt>
      <trkpt lat="41.295195" lon="-8.73599">
        <ele>62.0</ele>
        <time>2019-07-05T18:13:18Z</time>
      </trkpt>
      <trkpt lat="41.295265" lon="-8.736055">
        <ele>62.0</ele>
        <time>2019-07-05T18:13:21Z</time>
      </trkpt>
      <trkpt lat="41.295355" lon="-8.736085">
        <ele>63.0</ele>
        <time>2019-07-05T18:13:24Z</time>
      </trkpt>
      <trkpt lat="41.295426666666664" lon="-8.736105">
        <ele>63.0</ele>
        <time>2019-07-05T18:13:27Z</time>
      </trkpt>
      <trkpt lat="41.29551166666667" lon="-8.736171666666667">
        <ele>62.0</ele>
        <time>2019-07-05T18:13:30Z</time>
      </trkpt>
      <trkpt lat="41.29559" lon="-8.736215">
        <ele>62.0</ele>
        <time>2019-07-05T18:13:32Z</time>
      </trkpt>
      <trkpt lat="41.29568" lon="-8.736226666666667">
        <ele>62.0</ele>
        <time>2019-07-05T18:13:34Z</time>
      </trkpt>
      <trkpt lat="41.29577166666667" lon="-8.736226666666667">
        <ele>62.0</ele>
        <time>2019-07-05T18:13:36Z</time>
      </trkpt>
      <trkpt lat="41.29586" lon="-8.73622">
        <ele>62.0</ele>
        <time>2019-07-05T18:13:38Z</time>
      </trkpt>
      <trkpt lat="41.29594" lon="-8.736205">
        <ele>62.0</ele>
        <time>2019-07-05T18:13:40Z</time>
      </trkpt>
      <trkpt lat="41.296015" lon="-8.7362">
        <ele>62.0</ele>
        <time>2019-07-05T18:13:42Z</time>
      </trkpt>
      <trkpt lat="41.29609" lon="-8.736195">
        <ele>63.0</ele>
        <time>2019-07-05T18:13:44Z</time>
      </trkpt>
      <trkpt lat="41.296165" lon="-8.736195">
        <ele>63.0</ele>
        <time>2019-07-05T18:13:46Z</time>
      </trkpt>
      <trkpt lat="41.296245" lon="-8.736215">
        <ele>64.0</ele>
        <time>2019-07-05T18:13:48Z</time>
      </trkpt>
      <trkpt lat="41.29632333333333" lon="-8.736245">
        <ele>64.0</ele>
        <time>2019-07-05T18:13:50Z</time>
      </trkpt>
      <trkpt lat="41.296405" lon="-8.736275">
        <ele>64.0</ele>
        <time>2019-07-05T18:13:52Z</time>
      </trkpt>
      <trkpt lat="41.29648666666667" lon="-8.736305">
        <ele>64.0</ele>
        <time>2019-07-05T18:13:54Z</time>
      </trkpt>
      <trkpt lat="41.29657" lon="-8.736325">
        <ele>64.0</ele>
        <time>2019-07-05T18:13:56Z</time>
      </trkpt>
      <trkpt lat="41.29665" lon="-8.736355">
        <ele>64.0</ele>
        <time>2019-07-05T18:13:58Z</time>
      </trkpt>
      <trkpt lat="41.296735" lon="-8.73638">
        <ele>64.0</ele>
        <time>2019-07-05T18:14:00Z</time>
      </trkpt>
      <trkpt lat="41.296821666666666" lon="-8.736423333333333">
        <ele>64.0</ele>
        <time>2019-07-05T18:14:02Z</time>
      </trkpt>
      <trkpt lat="41.29691" lon="-8.736495">
        <ele>63.0</ele>
        <time>2019-07-05T18:14:04Z</time>
      </trkpt>
      <trkpt lat="41.29701333333333" lon="-8.73656">
        <ele>63.0</ele>
        <time>2019-07-05T18:14:06Z</time>
      </trkpt>
      <trkpt lat="41.297115" lon="-8.7366">
        <ele>63.0</ele>
        <time>2019-07-05T18:14:08Z</time>
      </trkpt>
      <trkpt lat="41.297205" lon="-8.736635">
        <ele>63.0</ele>
        <time>2019-07-05T18:14:10Z</time>
      </trkpt>
      <trkpt lat="41.297285" lon="-8.736666666666666">
        <ele>63.0</ele>
        <time>2019-07-05T18:14:12Z</time>
      </trkpt>
      <trkpt lat="41.297365" lon="-8.736665">
        <ele>63.0</ele>
        <time>2019-07-05T18:14:14Z</time>
      </trkpt>
      <trkpt lat="41.297455" lon="-8.73666">
        <ele>63.0</ele>
        <time>2019-07-05T18:14:16Z</time>
      </trkpt>
      <trkpt lat="41.297545" lon="-8.736655">
        <ele>63.0</ele>
        <time>2019-07-05T18:14:18Z</time>
      </trkpt>
      <trkpt lat="41.29763166666667" lon="-8.73664">
        <ele>64.0</ele>
        <time>2019-07-05T18:14:20Z</time>
      </trkpt>
      <trkpt lat="41.29773" lon="-8.736625">
        <ele>65.0</ele>
        <time>2019-07-05T18:14:23Z</time>
      </trkpt>
      <trkpt lat="41.297805" lon="-8.736615">
        <ele>65.0</ele>
        <time>2019-07-05T18:14:27Z</time>
      </trkpt>
      <trkpt lat="41.2979" lon="-8.73658">
        <ele>65.0</ele>
        <time>2019-07-05T18:14:31Z</time>
      </trkpt>
      <trkpt lat="41.29798" lon="-8.7366">
        <ele>65.0</ele>
        <time>2019-07-05T18:14:33Z</time>
      </trkpt>
      <trkpt lat="41.298071666666665" lon="-8.73662">
        <ele>65.0</ele>
        <time>2019-07-05T18:14:35Z</time>
      </trkpt>
      <trkpt lat="41.29818" lon="-8.736635">
        <ele>65.0</ele>
        <time>2019-07-05T18:14:37Z</time>
      </trkpt>
      <trkpt lat="41.29827" lon="-8.736646666666667">
        <ele>65.0</ele>
        <time>2019-07-05T18:14:39Z</time>
      </trkpt>
      <trkpt lat="41.29836" lon="-8.736675">
        <ele>65.0</ele>
        <time>2019-07-05T18:14:41Z</time>
      </trkpt>
      <trkpt lat="41.298445" lon="-8.73668">
        <ele>65.0</ele>
        <time>2019-07-05T18:14:43Z</time>
      </trkpt>
      <trkpt lat="41.29852666666667" lon="-8.736701666666667">
        <ele>65.0</ele>
        <time>2019-07-05T18:14:45Z</time>
      </trkpt>
      <trkpt lat="41.2986" lon="-8.73674">
        <ele>65.0</ele>
        <time>2019-07-05T18:14:47Z</time>
      </trkpt>
      <trkpt lat="41.2987" lon="-8.736765">
        <ele>65.0</ele>
        <time>2019-07-05T18:14:50Z</time>
      </trkpt>
      <trkpt lat="41.298775" lon="-8.736825">
        <ele>66.0</ele>
        <time>2019-07-05T18:14:55Z</time>
      </trkpt>
      <trkpt lat="41.298875" lon="-8.736881666666667">
        <ele>66.0</ele>
        <time>2019-07-05T18:14:58Z</time>
      </trkpt>
      <trkpt lat="41.298975" lon="-8.736925">
        <ele>66.0</ele>
        <time>2019-07-05T18:15:00Z</time>
      </trkpt>
      <trkpt lat="41.299085" lon="-8.736946666666666">
        <ele>65.0</ele>
        <time>2019-07-05T18:15:02Z</time>
      </trkpt>
      <trkpt lat="41.299211666666665" lon="-8.73698">
        <ele>65.0</ele>
        <time>2019-07-05T18:15:04Z</time>
      </trkpt>
      <trkpt lat="41.299346666666665" lon="-8.737006666666666">
        <ele>65.0</ele>
        <time>2019-07-05T18:15:06Z</time>
      </trkpt>
      <trkpt lat="41.29948" lon="-8.737035">
        <ele>65.0</ele>
        <time>2019-07-05T18:15:08Z</time>
      </trkpt>
      <trkpt lat="41.29961" lon="-8.73706">
        <ele>65.0</ele>
        <time>2019-07-05T18:15:10Z</time>
      </trkpt>
      <trkpt lat="41.299745" lon="-8.737081666666667">
        <ele>65.0</ele>
        <time>2019-07-05T18:15:12Z</time>
      </trkpt>
      <trkpt lat="41.29987" lon="-8.737106666666667">
        <ele>65.0</ele>
        <time>2019-07-05T18:15:14Z</time>
      </trkpt>
      <trkpt lat="41.29999166666666" lon="-8.73713">
        <ele>66.0</ele>
        <time>2019-07-05T18:15:16Z</time>
      </trkpt>
      <trkpt lat="41.30011" lon="-8.737155">
        <ele>66.0</ele>
        <time>2019-07-05T18:15:18Z</time>
      </trkpt>
      <trkpt lat="41.300225" lon="-8.737171666666667">
        <ele>66.0</ele>
        <time>2019-07-05T18:15:20Z</time>
      </trkpt>
      <trkpt lat="41.300325" lon="-8.737175">
        <ele>66.0</ele>
        <time>2019-07-05T18:15:22Z</time>
      </trkpt>
      <trkpt lat="41.300415" lon="-8.737156666666667">
        <ele>66.0</ele>
        <time>2019-07-05T18:15:24Z</time>
      </trkpt>
      <trkpt lat="41.300525" lon="-8.737115">
        <ele>66.0</ele>
        <time>2019-07-05T18:15:26Z</time>
      </trkpt>
      <trkpt lat="41.30063" lon="-8.737045">
        <ele>65.0</ele>
        <time>2019-07-05T18:15:28Z</time>
      </trkpt>
      <trkpt lat="41.30075" lon="-8.736976666666667">
        <ele>65.0</ele>
        <time>2019-07-05T18:15:30Z</time>
      </trkpt>
      <trkpt lat="41.30087" lon="-8.7369">
        <ele>65.0</ele>
        <time>2019-07-05T18:15:32Z</time>
      </trkpt>
      <trkpt lat="41.30099166666667" lon="-8.73684">
        <ele>64.0</ele>
        <time>2019-07-05T18:15:34Z</time>
      </trkpt>
      <trkpt lat="41.301111666666664" lon="-8.736785">
        <ele>64.0</ele>
        <time>2019-07-05T18:15:36Z</time>
      </trkpt>
      <trkpt lat="41.30121166666667" lon="-8.73674">
        <ele>65.0</ele>
        <time>2019-07-05T18:15:38Z</time>
      </trkpt>
      <trkpt lat="41.301295" lon="-8.73671">
        <ele>65.0</ele>
        <time>2019-07-05T18:15:40Z</time>
      </trkpt>
      <trkpt lat="41.30138" lon="-8.73673">
        <ele>65.0</ele>
        <time>2019-07-05T18:15:42Z</time>
      </trkpt>
      <trkpt lat="41.301475" lon="-8.736751666666667">
        <ele>65.0</ele>
        <time>2019-07-05T18:15:44Z</time>
      </trkpt>
      <trkpt lat="41.301575" lon="-8.736781666666667">
        <ele>65.0</ele>
        <time>2019-07-05T18:15:46Z</time>
      </trkpt>
      <trkpt lat="41.301671666666664" lon="-8.73681">
        <ele>65.0</ele>
        <time>2019-07-05T18:15:48Z</time>
      </trkpt>
      <trkpt lat="41.301766666666666" lon="-8.73683">
        <ele>65.0</ele>
        <time>2019-07-05T18:15:50Z</time>
      </trkpt>
      <trkpt lat="41.30186166666667" lon="-8.736855">
        <ele>65.0</ele>
        <time>2019-07-05T18:15:52Z</time>
      </trkpt>
      <trkpt lat="41.301955" lon="-8.736866666666666">
        <ele>65.0</ele>
        <time>2019-07-05T18:15:54Z</time>
      </trkpt>
      <trkpt lat="41.30204" lon="-8.73683">
        <ele>65.0</ele>
        <time>2019-07-05T18:15:56Z</time>
      </trkpt>
      <trkpt lat="41.30213" lon="-8.73679">
        <ele>66.0</ele>
        <time>2019-07-05T18:15:58Z</time>
      </trkpt>
      <trkpt lat="41.30222" lon="-8.73675">
        <ele>66.0</ele>
        <time>2019-07-05T18:16:00Z</time>
      </trkpt>
      <trkpt lat="41.30231166666667" lon="-8.736715">
        <ele>67.0</ele>
        <time>2019-07-05T18:16:02Z</time>
      </trkpt>
      <trkpt lat="41.30241" lon="-8.73666">
        <ele>67.0</ele>
        <time>2019-07-05T18:16:04Z</time>
      </trkpt>
      <trkpt lat="41.30248666666667" lon="-8.736575">
        <ele>68.0</ele>
        <time>2019-07-05T18:16:06Z</time>
      </trkpt>
      <trkpt lat="41.302548333333334" lon="-8.73648">
        <ele>68.0</ele>
        <time>2019-07-05T18:16:08Z</time>
      </trkpt>
      <trkpt lat="41.30261" lon="-8.736385">
        <ele>69.0</ele>
        <time>2019-07-05T18:16:10Z</time>
      </trkpt>
      <trkpt lat="41.30266" lon="-8.736285">
        <ele>69.0</ele>
        <time>2019-07-05T18:16:12Z</time>
      </trkpt>
      <trkpt lat="41.30271166666667" lon="-8.736173333333333">
        <ele>70.0</ele>
        <time>2019-07-05T18:16:14Z</time>
      </trkpt>
      <trkpt lat="41.30276" lon="-8.736071666666666">
        <ele>70.0</ele>
        <time>2019-07-05T18:16:16Z</time>
      </trkpt>
      <trkpt lat="41.302815" lon="-8.735971666666666">
        <ele>70.0</ele>
        <time>2019-07-05T18:16:18Z</time>
      </trkpt>
      <trkpt lat="41.302875" lon="-8.735905">
        <ele>70.0</ele>
        <time>2019-07-05T18:16:20Z</time>
      </trkpt>
      <trkpt lat="41.30296" lon="-8.735911666666667">
        <ele>69.0</ele>
        <time>2019-07-05T18:16:22Z</time>
      </trkpt>
      <trkpt lat="41.303035" lon="-8.73597">
        <ele>69.0</ele>
        <time>2019-07-05T18:16:24Z</time>
      </trkpt>
      <trkpt lat="41.303115" lon="-8.736043333333333">
        <ele>69.0</ele>
        <time>2019-07-05T18:16:26Z</time>
      </trkpt>
      <trkpt lat="41.303195" lon="-8.736125">
        <ele>68.0</ele>
        <time>2019-07-05T18:16:28Z</time>
      </trkpt>
      <trkpt lat="41.303286666666665" lon="-8.736215">
        <ele>68.0</ele>
        <time>2019-07-05T18:16:30Z</time>
      </trkpt>
      <trkpt lat="41.30337333333333" lon="-8.73631">
        <ele>67.0</ele>
        <time>2019-07-05T18:16:32Z</time>
      </trkpt>
      <trkpt lat="41.303465" lon="-8.7364">
        <ele>67.0</ele>
        <time>2019-07-05T18:16:34Z</time>
      </trkpt>
      <trkpt lat="41.303565" lon="-8.736485">
        <ele>67.0</ele>
        <time>2019-07-05T18:16:36Z</time>
      </trkpt>
      <trkpt lat="41.30366" lon="-8.736565">
        <ele>67.0</ele>
        <time>2019-07-05T18:16:38Z</time>
      </trkpt>
      <trkpt lat="41.303756666666665" lon="-8.736655">
        <ele>66.0</ele>
        <time>2019-07-05T18:16:40Z</time>
      </trkpt>
      <trkpt lat="41.303855" lon="-8.73675">
        <ele>66.0</ele>
        <time>2019-07-05T18:16:42Z</time>
      </trkpt>
      <trkpt lat="41.303955" lon="-8.73684">
        <ele>66.0</ele>
        <time>2019-07-05T18:16:44Z</time>
      </trkpt>
      <trkpt lat="41.304053333333336" lon="-8.736945">
        <ele>66.0</ele>
        <time>2019-07-05T18:16:46Z</time>
      </trkpt>
      <trkpt lat="41.304155" lon="-8.73705">
        <ele>66.0</ele>
        <time>2019-07-05T18:16:48Z</time>
      </trkpt>
      <trkpt lat="41.304255" lon="-8.737155">
        <ele>66.0</ele>
        <time>2019-07-05T18:16:50Z</time>
      </trkpt>
      <trkpt lat="41.30435" lon="-8.737265">
        <ele>66.0</ele>
        <time>2019-07-05T18:16:52Z</time>
      </trkpt>
      <trkpt lat="41.304445" lon="-8.73736">
        <ele>65.0</ele>
        <time>2019-07-05T18:16:54Z</time>
      </trkpt>
      <trkpt lat="41.304535" lon="-8.73746">
        <ele>65.0</ele>
        <time>2019-07-05T18:16:56Z</time>
      </trkpt>
      <trkpt lat="41.304625" lon="-8.737551666666667">
        <ele>63.0</ele>
        <time>2019-07-05T18:16:58Z</time>
      </trkpt>
      <trkpt lat="41.304725" lon="-8.737625">
        <ele>63.0</ele>
        <time>2019-07-05T18:17:00Z</time>
      </trkpt>
      <trkpt lat="41.304831666666665" lon="-8.737681666666667">
        <ele>63.0</ele>
        <time>2019-07-05T18:17:02Z</time>
      </trkpt>
      <trkpt lat="41.30493" lon="-8.737735">
        <ele>63.0</ele>
        <time>2019-07-05T18:17:04Z</time>
      </trkpt>
      <trkpt lat="41.305015" lon="-8.737771666666667">
        <ele>63.0</ele>
        <time>2019-07-05T18:17:06Z</time>
      </trkpt>
      <trkpt lat="41.305095" lon="-8.737816666666667">
        <ele>62.0</ele>
        <time>2019-07-05T18:17:10Z</time>
      </trkpt>
      <trkpt lat="41.30516166666666" lon="-8.737855">
        <ele>62.0</ele>
        <time>2019-07-05T18:17:13Z</time>
      </trkpt>
      <trkpt lat="41.30524666666667" lon="-8.737881666666667">
        <ele>63.0</ele>
        <time>2019-07-05T18:17:16Z</time>
      </trkpt>
      <trkpt lat="41.30534166666666" lon="-8.7379">
        <ele>64.0</ele>
        <time>2019-07-05T18:17:19Z</time>
      </trkpt>
      <trkpt lat="41.305416666666666" lon="-8.73793">
        <ele>64.0</ele>
        <time>2019-07-05T18:17:21Z</time>
      </trkpt>
      <trkpt lat="41.305501666666665" lon="-8.737985">
        <ele>64.0</ele>
        <time>2019-07-05T18:17:23Z</time>
      </trkpt>
      <trkpt lat="41.3056" lon="-8.738045">
        <ele>64.0</ele>
        <time>2019-07-05T18:17:25Z</time>
      </trkpt>
      <trkpt lat="41.3057" lon="-8.738101666666667">
        <ele>63.0</ele>
        <time>2019-07-05T18:17:27Z</time>
      </trkpt>
      <trkpt lat="41.305796666666666" lon="-8.738175">
        <ele>63.0</ele>
        <time>2019-07-05T18:17:29Z</time>
      </trkpt>
      <trkpt lat="41.30591" lon="-8.738256666666667">
        <ele>63.0</ele>
        <time>2019-07-05T18:17:31Z</time>
      </trkpt>
      <trkpt lat="41.30602" lon="-8.73834">
        <ele>62.0</ele>
        <time>2019-07-05T18:17:33Z</time>
      </trkpt>
      <trkpt lat="41.30613" lon="-8.738405">
        <ele>62.0</ele>
        <time>2019-07-05T18:17:35Z</time>
      </trkpt>
      <trkpt lat="41.306245" lon="-8.73842">
        <ele>61.0</ele>
        <time>2019-07-05T18:17:37Z</time>
      </trkpt>
      <trkpt lat="41.30637" lon="-8.738428333333333">
        <ele>61.0</ele>
        <time>2019-07-05T18:17:39Z</time>
      </trkpt>
      <trkpt lat="41.306495" lon="-8.73844">
        <ele>60.0</ele>
        <time>2019-07-05T18:17:41Z</time>
      </trkpt>
      <trkpt lat="41.30662" lon="-8.738445">
        <ele>61.0</ele>
        <time>2019-07-05T18:17:43Z</time>
      </trkpt>
      <trkpt lat="41.306735" lon="-8.738475">
        <ele>61.0</ele>
        <time>2019-07-05T18:17:45Z</time>
      </trkpt>
      <trkpt lat="41.306846666666665" lon="-8.738521666666667">
        <ele>61.0</ele>
        <time>2019-07-05T18:17:47Z</time>
      </trkpt>
      <trkpt lat="41.306961666666666" lon="-8.738565">
        <ele>61.0</ele>
        <time>2019-07-05T18:17:49Z</time>
      </trkpt>
      <trkpt lat="41.307075" lon="-8.73861">
        <ele>61.0</ele>
        <time>2019-07-05T18:17:51Z</time>
      </trkpt>
      <trkpt lat="41.307181666666665" lon="-8.73865">
        <ele>61.0</ele>
        <time>2019-07-05T18:17:53Z</time>
      </trkpt>
      <trkpt lat="41.307285" lon="-8.738685">
        <ele>62.0</ele>
        <time>2019-07-05T18:17:55Z</time>
      </trkpt>
      <trkpt lat="41.307388333333336" lon="-8.738713333333333">
        <ele>63.0</ele>
        <time>2019-07-05T18:17:57Z</time>
      </trkpt>
      <trkpt lat="41.307495" lon="-8.738766666666667">
        <ele>63.0</ele>
        <time>2019-07-05T18:17:59Z</time>
      </trkpt>
      <trkpt lat="41.3076" lon="-8.738805">
        <ele>64.0</ele>
        <time>2019-07-05T18:18:01Z</time>
      </trkpt>
      <trkpt lat="41.30771166666667" lon="-8.73885">
        <ele>64.0</ele>
        <time>2019-07-05T18:18:04Z</time>
      </trkpt>
      <trkpt lat="41.307825" lon="-8.73889">
        <ele>64.0</ele>
        <time>2019-07-05T18:18:05Z</time>
      </trkpt>
      <trkpt lat="41.30793" lon="-8.738935">
        <ele>64.0</ele>
        <time>2019-07-05T18:18:07Z</time>
      </trkpt>
      <trkpt lat="41.308035" lon="-8.738966666666666">
        <ele>64.0</ele>
        <time>2019-07-05T18:18:09Z</time>
      </trkpt>
      <trkpt lat="41.308135" lon="-8.739">
        <ele>64.0</ele>
        <time>2019-07-05T18:18:11Z</time>
      </trkpt>
      <trkpt lat="41.308233333333334" lon="-8.73904">
        <ele>64.0</ele>
        <time>2019-07-05T18:18:13Z</time>
      </trkpt>
      <trkpt lat="41.308335" lon="-8.739055">
        <ele>64.0</ele>
        <time>2019-07-05T18:18:15Z</time>
      </trkpt>
      <trkpt lat="41.30844" lon="-8.73906">
        <ele>63.0</ele>
        <time>2019-07-05T18:18:17Z</time>
      </trkpt>
      <trkpt lat="41.30853666666667" lon="-8.739071666666666">
        <ele>63.0</ele>
        <time>2019-07-05T18:18:19Z</time>
      </trkpt>
      <trkpt lat="41.308605" lon="-8.739126666666667">
        <ele>63.0</ele>
        <time>2019-07-05T18:18:21Z</time>
      </trkpt>
      <trkpt lat="41.30866" lon="-8.739215">
        <ele>64.0</ele>
        <time>2019-07-05T18:18:23Z</time>
      </trkpt>
      <trkpt lat="41.308715" lon="-8.739295">
        <ele>63.0</ele>
        <time>2019-07-05T18:18:25Z</time>
      </trkpt>
      <trkpt lat="41.308775" lon="-8.739376666666667">
        <ele>63.0</ele>
        <time>2019-07-05T18:18:27Z</time>
      </trkpt>
      <trkpt lat="41.308865" lon="-8.739431666666666">
        <ele>63.0</ele>
        <time>2019-07-05T18:18:29Z</time>
      </trkpt>
      <trkpt lat="41.30896" lon="-8.739481666666666">
        <ele>63.0</ele>
        <time>2019-07-05T18:18:31Z</time>
      </trkpt>
      <trkpt lat="41.309061666666665" lon="-8.739535">
        <ele>63.0</ele>
        <time>2019-07-05T18:18:33Z</time>
      </trkpt>
      <trkpt lat="41.309165" lon="-8.739585">
        <ele>63.0</ele>
        <time>2019-07-05T18:18:35Z</time>
      </trkpt>
      <trkpt lat="41.30926" lon="-8.739631666666666">
        <ele>63.0</ele>
        <time>2019-07-05T18:18:37Z</time>
      </trkpt>
      <trkpt lat="41.30935" lon="-8.73968">
        <ele>63.0</ele>
        <time>2019-07-05T18:18:39Z</time>
      </trkpt>
      <trkpt lat="41.309441666666665" lon="-8.739705">
        <ele>64.0</ele>
        <time>2019-07-05T18:18:41Z</time>
      </trkpt>
      <trkpt lat="41.309531666666665" lon="-8.739698333333333">
        <ele>64.0</ele>
        <time>2019-07-05T18:18:43Z</time>
      </trkpt>
      <trkpt lat="41.30962" lon="-8.73973">
        <ele>64.0</ele>
        <time>2019-07-05T18:18:45Z</time>
      </trkpt>
      <trkpt lat="41.309695" lon="-8.739775">
        <ele>64.0</ele>
        <time>2019-07-05T18:18:47Z</time>
      </trkpt>
      <trkpt lat="41.30976" lon="-8.739865">
        <ele>64.0</ele>
        <time>2019-07-05T18:18:49Z</time>
      </trkpt>
      <trkpt lat="41.309846666666665" lon="-8.739935">
        <ele>65.0</ele>
        <time>2019-07-05T18:18:51Z</time>
      </trkpt>
      <trkpt lat="41.30995" lon="-8.73998">
        <ele>65.0</ele>
        <time>2019-07-05T18:18:53Z</time>
      </trkpt>
      <trkpt lat="41.310065" lon="-8.740018333333333">
        <ele>65.0</ele>
        <time>2019-07-05T18:18:55Z</time>
      </trkpt>
      <trkpt lat="41.310185" lon="-8.740046666666666">
        <ele>65.0</ele>
        <time>2019-07-05T18:18:57Z</time>
      </trkpt>
      <trkpt lat="41.310291666666664" lon="-8.740075">
        <ele>66.0</ele>
        <time>2019-07-05T18:18:59Z</time>
      </trkpt>
      <trkpt lat="41.310395" lon="-8.740105">
        <ele>66.0</ele>
        <time>2019-07-05T18:19:01Z</time>
      </trkpt>
      <trkpt lat="41.31049" lon="-8.740111666666667">
        <ele>66.0</ele>
        <time>2019-07-05T18:19:03Z</time>
      </trkpt>
      <trkpt lat="41.31059" lon="-8.74011">
        <ele>66.0</ele>
        <time>2019-07-05T18:19:05Z</time>
      </trkpt>
      <trkpt lat="41.31069" lon="-8.74011">
        <ele>66.0</ele>
        <time>2019-07-05T18:19:07Z</time>
      </trkpt>
      <trkpt lat="41.31079166666667" lon="-8.740111666666667">
        <ele>66.0</ele>
        <time>2019-07-05T18:19:09Z</time>
      </trkpt>
      <trkpt lat="41.310885" lon="-8.74005">
        <ele>65.0</ele>
        <time>2019-07-05T18:19:11Z</time>
      </trkpt>
      <trkpt lat="41.310975" lon="-8.739971666666667">
        <ele>65.0</ele>
        <time>2019-07-05T18:19:14Z</time>
      </trkpt>
      <trkpt lat="41.311065" lon="-8.739905">
        <ele>66.0</ele>
        <time>2019-07-05T18:19:16Z</time>
      </trkpt>
      <trkpt lat="41.311155" lon="-8.739846666666667">
        <ele>66.0</ele>
        <time>2019-07-05T18:19:18Z</time>
      </trkpt>
      <trkpt lat="41.31125" lon="-8.7398">
        <ele>67.0</ele>
        <time>2019-07-05T18:19:20Z</time>
      </trkpt>
      <trkpt lat="41.31135" lon="-8.739751666666667">
        <ele>67.0</ele>
        <time>2019-07-05T18:19:22Z</time>
      </trkpt>
      <trkpt lat="41.31145" lon="-8.739715">
        <ele>67.0</ele>
        <time>2019-07-05T18:19:24Z</time>
      </trkpt>
      <trkpt lat="41.311535" lon="-8.73968">
        <ele>67.0</ele>
        <time>2019-07-05T18:19:26Z</time>
      </trkpt>
      <trkpt lat="41.311625" lon="-8.739655">
        <ele>67.0</ele>
        <time>2019-07-05T18:19:28Z</time>
      </trkpt>
      <trkpt lat="41.311721666666664" lon="-8.739635">
        <ele>67.0</ele>
        <time>2019-07-05T18:19:30Z</time>
      </trkpt>
      <trkpt lat="41.31182" lon="-8.739626666666666">
        <ele>66.0</ele>
        <time>2019-07-05T18:19:32Z</time>
      </trkpt>
      <trkpt lat="41.31191666666667" lon="-8.73962">
        <ele>66.0</ele>
        <time>2019-07-05T18:19:34Z</time>
      </trkpt>
      <trkpt lat="41.31201" lon="-8.739615">
        <ele>66.0</ele>
        <time>2019-07-05T18:19:36Z</time>
      </trkpt>
      <trkpt lat="41.31210166666666" lon="-8.739603333333333">
        <ele>66.0</ele>
        <time>2019-07-05T18:19:39Z</time>
      </trkpt>
      <trkpt lat="41.312205" lon="-8.739603333333333">
        <ele>66.0</ele>
        <time>2019-07-05T18:19:42Z</time>
      </trkpt>
      <trkpt lat="41.312305" lon="-8.739603333333333">
        <ele>66.0</ele>
        <time>2019-07-05T18:19:45Z</time>
      </trkpt>
      <trkpt lat="41.312385" lon="-8.73961">
        <ele>65.0</ele>
        <time>2019-07-05T18:19:48Z</time>
      </trkpt>
      <trkpt lat="41.31246" lon="-8.73961">
        <ele>66.0</ele>
        <time>2019-07-05T18:19:51Z</time>
      </trkpt>
      <trkpt lat="41.312553333333334" lon="-8.739625">
        <ele>66.0</ele>
        <time>2019-07-05T18:19:54Z</time>
      </trkpt>
      <trkpt lat="41.31263166666667" lon="-8.73963">
        <ele>66.0</ele>
        <time>2019-07-05T18:19:56Z</time>
      </trkpt>
      <trkpt lat="41.31271" lon="-8.73963">
        <ele>66.0</ele>
        <time>2019-07-05T18:19:58Z</time>
      </trkpt>
      <trkpt lat="41.312785" lon="-8.7396">
        <ele>65.0</ele>
        <time>2019-07-05T18:20:00Z</time>
      </trkpt>
      <trkpt lat="41.312866666666665" lon="-8.739603333333333">
        <ele>65.0</ele>
        <time>2019-07-05T18:20:02Z</time>
      </trkpt>
      <trkpt lat="41.31296" lon="-8.73961">
        <ele>65.0</ele>
        <time>2019-07-05T18:20:04Z</time>
      </trkpt>
      <trkpt lat="41.313055" lon="-8.739603333333333">
        <ele>66.0</ele>
        <time>2019-07-05T18:20:06Z</time>
      </trkpt>
      <trkpt lat="41.31315333333333" lon="-8.739595">
        <ele>65.0</ele>
        <time>2019-07-05T18:20:08Z</time>
      </trkpt>
      <trkpt lat="41.313251666666666" lon="-8.739586666666666">
        <ele>65.0</ele>
        <time>2019-07-05T18:20:10Z</time>
      </trkpt>
      <trkpt lat="41.313345" lon="-8.73958">
        <ele>65.0</ele>
        <time>2019-07-05T18:20:12Z</time>
      </trkpt>
      <trkpt lat="41.31343" lon="-8.739585">
        <ele>65.0</ele>
        <time>2019-07-05T18:20:14Z</time>
      </trkpt>
      <trkpt lat="41.313523333333336" lon="-8.739585">
        <ele>65.0</ele>
        <time>2019-07-05T18:20:16Z</time>
      </trkpt>
      <trkpt lat="41.313625" lon="-8.73959">
        <ele>64.0</ele>
        <time>2019-07-05T18:20:18Z</time>
      </trkpt>
      <trkpt lat="41.313725" lon="-8.73959">
        <ele>64.0</ele>
        <time>2019-07-05T18:20:20Z</time>
      </trkpt>
      <trkpt lat="41.31382" lon="-8.739585">
        <ele>65.0</ele>
        <time>2019-07-05T18:20:22Z</time>
      </trkpt>
      <trkpt lat="41.313915" lon="-8.73958">
        <ele>65.0</ele>
        <time>2019-07-05T18:20:24Z</time>
      </trkpt>
      <trkpt lat="41.31401" lon="-8.73958">
        <ele>65.0</ele>
        <time>2019-07-05T18:20:26Z</time>
      </trkpt>
      <trkpt lat="41.31411" lon="-8.739595">
        <ele>65.0</ele>
        <time>2019-07-05T18:20:28Z</time>
      </trkpt>
      <trkpt lat="41.314213333333335" lon="-8.739601666666667">
        <ele>64.0</ele>
        <time>2019-07-05T18:20:30Z</time>
      </trkpt>
      <trkpt lat="41.31433" lon="-8.739615">
        <ele>64.0</ele>
        <time>2019-07-05T18:20:32Z</time>
      </trkpt>
      <trkpt lat="41.314438333333335" lon="-8.739615">
        <ele>64.0</ele>
        <time>2019-07-05T18:20:34Z</time>
      </trkpt>
      <trkpt lat="41.314555" lon="-8.739601666666667">
        <ele>64.0</ele>
        <time>2019-07-05T18:20:36Z</time>
      </trkpt>
      <trkpt lat="41.31466" lon="-8.73959">
        <ele>64.0</ele>
        <time>2019-07-05T18:20:38Z</time>
      </trkpt>
      <trkpt lat="41.314765" lon="-8.73957">
        <ele>64.0</ele>
        <time>2019-07-05T18:20:40Z</time>
      </trkpt>
      <trkpt lat="41.314865" lon="-8.73954">
        <ele>64.0</ele>
        <time>2019-07-05T18:20:42Z</time>
      </trkpt>
      <trkpt lat="41.314955" lon="-8.739515">
        <ele>64.0</ele>
        <time>2019-07-05T18:20:44Z</time>
      </trkpt>
      <trkpt lat="41.315035" lon="-8.739485">
        <ele>64.0</ele>
        <time>2019-07-05T18:20:46Z</time>
      </trkpt>
      <trkpt lat="41.315115" lon="-8.739436666666666">
        <ele>64.0</ele>
        <time>2019-07-05T18:20:50Z</time>
      </trkpt>
      <trkpt lat="41.31512166666667" lon="-8.739335">
        <ele>64.0</ele>
        <time>2019-07-05T18:20:53Z</time>
      </trkpt>
      <trkpt lat="41.31518" lon="-8.739265">
        <ele>64.0</ele>
        <time>2019-07-05T18:20:56Z</time>
      </trkpt>
      <trkpt lat="41.315255" lon="-8.739206666666666">
        <ele>65.0</ele>
        <time>2019-07-05T18:20:59Z</time>
      </trkpt>
      <trkpt lat="41.31532" lon="-8.739155">
        <ele>64.0</ele>
        <time>2019-07-05T18:21:01Z</time>
      </trkpt>
      <trkpt lat="41.3154" lon="-8.739091666666667">
        <ele>64.0</ele>
        <time>2019-07-05T18:21:03Z</time>
      </trkpt>
      <trkpt lat="41.315485" lon="-8.739025">
        <ele>64.0</ele>
        <time>2019-07-05T18:21:05Z</time>
      </trkpt>
      <trkpt lat="41.31557166666666" lon="-8.738965">
        <ele>63.0</ele>
        <time>2019-07-05T18:21:07Z</time>
      </trkpt>
      <trkpt lat="41.315675" lon="-8.738965">
        <ele>63.0</ele>
        <time>2019-07-05T18:21:09Z</time>
      </trkpt>
      <trkpt lat="41.315803333333335" lon="-8.738975">
        <ele>61.0</ele>
        <time>2019-07-05T18:21:11Z</time>
      </trkpt>
      <trkpt lat="41.31588" lon="-8.738976666666666">
        <ele>61.0</ele>
        <time>2019-07-05T18:21:12Z</time>
      </trkpt>
      <trkpt lat="41.315955" lon="-8.73898">
        <ele>61.0</ele>
        <time>2019-07-05T18:21:13Z</time>
      </trkpt>
      <trkpt lat="41.316028333333335" lon="-8.738985">
        <ele>61.0</ele>
        <time>2019-07-05T18:21:14Z</time>
      </trkpt>
      <trkpt lat="41.316105" lon="-8.738986666666667">
        <ele>61.0</ele>
        <time>2019-07-05T18:21:15Z</time>
      </trkpt>
      <trkpt lat="41.316176666666664" lon="-8.73899">
        <ele>61.0</ele>
        <time>2019-07-05T18:21:16Z</time>
      </trkpt>
      <trkpt lat="41.316325" lon="-8.738995">
        <ele>61.0</ele>
        <time>2019-07-05T18:21:18Z</time>
      </trkpt>
      <trkpt lat="41.316465" lon="-8.738995">
        <ele>61.0</ele>
        <time>2019-07-05T18:21:20Z</time>
      </trkpt>
      <trkpt lat="41.31654" lon="-8.738995">
        <ele>61.0</ele>
        <time>2019-07-05T18:21:21Z</time>
      </trkpt>
      <trkpt lat="41.316675" lon="-8.739005">
        <ele>62.0</ele>
        <time>2019-07-05T18:21:23Z</time>
      </trkpt>
      <trkpt lat="41.316806666666665" lon="-8.73901">
        <ele>61.0</ele>
        <time>2019-07-05T18:21:25Z</time>
      </trkpt>
      <trkpt lat="41.31694" lon="-8.738995">
        <ele>61.0</ele>
        <time>2019-07-05T18:21:27Z</time>
      </trkpt>
      <trkpt lat="41.31707" lon="-8.738955">
        <ele>61.0</ele>
        <time>2019-07-05T18:21:29Z</time>
      </trkpt>
      <trkpt lat="41.3172" lon="-8.738925">
        <ele>61.0</ele>
        <time>2019-07-05T18:21:31Z</time>
      </trkpt>
      <trkpt lat="41.317321666666665" lon="-8.738901666666667">
        <ele>61.0</ele>
        <time>2019-07-05T18:21:33Z</time>
      </trkpt>
      <trkpt lat="41.317445" lon="-8.73891">
        <ele>61.0</ele>
        <time>2019-07-05T18:21:35Z</time>
      </trkpt>
      <trkpt lat="41.317555" lon="-8.738961666666667">
        <ele>61.0</ele>
        <time>2019-07-05T18:21:37Z</time>
      </trkpt>
      <trkpt lat="41.317675" lon="-8.738975">
        <ele>61.0</ele>
        <time>2019-07-05T18:21:39Z</time>
      </trkpt>
      <trkpt lat="41.31778" lon="-8.738975">
        <ele>62.0</ele>
        <time>2019-07-05T18:21:41Z</time>
      </trkpt>
      <trkpt lat="41.31787666666666" lon="-8.73897">
        <ele>63.0</ele>
        <time>2019-07-05T18:21:43Z</time>
      </trkpt>
      <trkpt lat="41.317975" lon="-8.738975">
        <ele>63.0</ele>
        <time>2019-07-05T18:21:45Z</time>
      </trkpt>
      <trkpt lat="41.31807" lon="-8.73897">
        <ele>63.0</ele>
        <time>2019-07-05T18:21:47Z</time>
      </trkpt>
      <trkpt lat="41.318175" lon="-8.738945">
        <ele>63.0</ele>
        <time>2019-07-05T18:21:49Z</time>
      </trkpt>
      <trkpt lat="41.31828" lon="-8.73892">
        <ele>63.0</ele>
        <time>2019-07-05T18:21:51Z</time>
      </trkpt>
      <trkpt lat="41.318385" lon="-8.73889">
        <ele>63.0</ele>
        <time>2019-07-05T18:21:53Z</time>
      </trkpt>
      <trkpt lat="41.31849" lon="-8.738861666666667">
        <ele>63.0</ele>
        <time>2019-07-05T18:21:55Z</time>
      </trkpt>
      <trkpt lat="41.318595" lon="-8.73883">
        <ele>63.0</ele>
        <time>2019-07-05T18:21:57Z</time>
      </trkpt>
      <trkpt lat="41.3187" lon="-8.7388">
        <ele>63.0</ele>
        <time>2019-07-05T18:21:59Z</time>
      </trkpt>
      <trkpt lat="41.31880666666667" lon="-8.738765">
        <ele>62.0</ele>
        <time>2019-07-05T18:22:01Z</time>
      </trkpt>
      <trkpt lat="41.31892" lon="-8.73874">
        <ele>62.0</ele>
        <time>2019-07-05T18:22:03Z</time>
      </trkpt>
      <trkpt lat="41.31903166666667" lon="-8.738725">
        <ele>62.0</ele>
        <time>2019-07-05T18:22:05Z</time>
      </trkpt>
      <trkpt lat="41.319145" lon="-8.73872">
        <ele>62.0</ele>
        <time>2019-07-05T18:22:07Z</time>
      </trkpt>
      <trkpt lat="41.31926" lon="-8.738713333333333">
        <ele>62.0</ele>
        <time>2019-07-05T18:22:09Z</time>
      </trkpt>
      <trkpt lat="41.31937" lon="-8.73871">
        <ele>62.0</ele>
        <time>2019-07-05T18:22:11Z</time>
      </trkpt>
      <trkpt lat="41.31949" lon="-8.73871">
        <ele>61.0</ele>
        <time>2019-07-05T18:22:13Z</time>
      </trkpt>
      <trkpt lat="41.319605" lon="-8.738701666666667">
        <ele>61.0</ele>
        <time>2019-07-05T18:22:15Z</time>
      </trkpt>
      <trkpt lat="41.31971166666667" lon="-8.7387">
        <ele>61.0</ele>
        <time>2019-07-05T18:22:17Z</time>
      </trkpt>
      <trkpt lat="41.319813333333336" lon="-8.738665">
        <ele>61.0</ele>
        <time>2019-07-05T18:22:19Z</time>
      </trkpt>
      <trkpt lat="41.31992" lon="-8.73861">
        <ele>62.0</ele>
        <time>2019-07-05T18:22:21Z</time>
      </trkpt>
      <trkpt lat="41.32001666666667" lon="-8.738555">
        <ele>62.0</ele>
        <time>2019-07-05T18:22:23Z</time>
      </trkpt>
      <trkpt lat="41.320115" lon="-8.73851">
        <ele>62.0</ele>
        <time>2019-07-05T18:22:25Z</time>
      </trkpt>
      <trkpt lat="41.32022" lon="-8.738505">
        <ele>62.0</ele>
        <time>2019-07-05T18:22:27Z</time>
      </trkpt>
      <trkpt lat="41.32032" lon="-8.73853">
        <ele>62.0</ele>
        <time>2019-07-05T18:22:29Z</time>
      </trkpt>
      <trkpt lat="41.320411666666665" lon="-8.73854">
        <ele>63.0</ele>
        <time>2019-07-05T18:22:31Z</time>
      </trkpt>
      <trkpt lat="41.320503333333335" lon="-8.738555">
        <ele>63.0</ele>
        <time>2019-07-05T18:22:33Z</time>
      </trkpt>
      <trkpt lat="41.320595" lon="-8.738571666666667">
        <ele>64.0</ele>
        <time>2019-07-05T18:22:35Z</time>
      </trkpt>
      <trkpt lat="41.32068" lon="-8.73859">
        <ele>64.0</ele>
        <time>2019-07-05T18:22:37Z</time>
      </trkpt>
      <trkpt lat="41.32076" lon="-8.738601666666666">
        <ele>65.0</ele>
        <time>2019-07-05T18:22:39Z</time>
      </trkpt>
      <trkpt lat="41.320861666666666" lon="-8.738605">
        <ele>65.0</ele>
        <time>2019-07-05T18:22:42Z</time>
      </trkpt>
      <trkpt lat="41.32094166666667" lon="-8.738578333333333">
        <ele>65.0</ele>
        <time>2019-07-05T18:22:44Z</time>
      </trkpt>
      <trkpt lat="41.32103" lon="-8.73855">
        <ele>65.0</ele>
        <time>2019-07-05T18:22:46Z</time>
      </trkpt>
      <trkpt lat="41.321105" lon="-8.738521666666667">
        <ele>65.0</ele>
        <time>2019-07-05T18:22:48Z</time>
      </trkpt>
      <trkpt lat="41.32119" lon="-8.7385">
        <ele>65.0</ele>
        <time>2019-07-05T18:22:50Z</time>
      </trkpt>
      <trkpt lat="41.321275" lon="-8.738471666666667">
        <ele>64.0</ele>
        <time>2019-07-05T18:22:52Z</time>
      </trkpt>
      <trkpt lat="41.32136" lon="-8.73845">
        <ele>64.0</ele>
        <time>2019-07-05T18:22:54Z</time>
      </trkpt>
      <trkpt lat="41.32145" lon="-8.738421666666667">
        <ele>64.0</ele>
        <time>2019-07-05T18:22:56Z</time>
      </trkpt>
      <trkpt lat="41.32154" lon="-8.738395">
        <ele>64.0</ele>
        <time>2019-07-05T18:22:58Z</time>
      </trkpt>
      <trkpt lat="41.32162" lon="-8.73837">
        <ele>64.0</ele>
        <time>2019-07-05T18:23:00Z</time>
      </trkpt>
      <trkpt lat="41.321691666666666" lon="-8.73836">
        <ele>65.0</ele>
        <time>2019-07-05T18:23:02Z</time>
      </trkpt>
      <trkpt lat="41.3218" lon="-8.73834">
        <ele>65.0</ele>
        <time>2019-07-05T18:23:05Z</time>
      </trkpt>
      <trkpt lat="41.32188166666667" lon="-8.738333333333333">
        <ele>64.0</ele>
        <time>2019-07-05T18:23:07Z</time>
      </trkpt>
      <trkpt lat="41.321975" lon="-8.738325">
        <ele>64.0</ele>
        <time>2019-07-05T18:23:09Z</time>
      </trkpt>
      <trkpt lat="41.32208166666667" lon="-8.738315">
        <ele>63.0</ele>
        <time>2019-07-05T18:23:11Z</time>
      </trkpt>
      <trkpt lat="41.322195" lon="-8.738296666666667">
        <ele>63.0</ele>
        <time>2019-07-05T18:23:13Z</time>
      </trkpt>
      <trkpt lat="41.32230166666667" lon="-8.73828">
        <ele>63.0</ele>
        <time>2019-07-05T18:23:15Z</time>
      </trkpt>
      <trkpt lat="41.32241" lon="-8.73826">
        <ele>63.0</ele>
        <time>2019-07-05T18:23:17Z</time>
      </trkpt>
      <trkpt lat="41.322515" lon="-8.738238333333333">
        <ele>63.0</ele>
        <time>2019-07-05T18:23:19Z</time>
      </trkpt>
      <trkpt lat="41.32262333333333" lon="-8.73822">
        <ele>62.0</ele>
        <time>2019-07-05T18:23:21Z</time>
      </trkpt>
      <trkpt lat="41.32273166666667" lon="-8.7382">
        <ele>62.0</ele>
        <time>2019-07-05T18:23:23Z</time>
      </trkpt>
      <trkpt lat="41.322845" lon="-8.73818">
        <ele>62.0</ele>
        <time>2019-07-05T18:23:25Z</time>
      </trkpt>
      <trkpt lat="41.322945" lon="-8.738185">
        <ele>62.0</ele>
        <time>2019-07-05T18:23:27Z</time>
      </trkpt>
      <trkpt lat="41.32304" lon="-8.738185">
        <ele>62.0</ele>
        <time>2019-07-05T18:23:29Z</time>
      </trkpt>
      <trkpt lat="41.323135" lon="-8.738191666666667">
        <ele>61.0</ele>
        <time>2019-07-05T18:23:31Z</time>
      </trkpt>
      <trkpt lat="41.32322" lon="-8.7382">
        <ele>61.0</ele>
        <time>2019-07-05T18:23:33Z</time>
      </trkpt>
      <trkpt lat="41.32331833333333" lon="-8.738166666666666">
        <ele>61.0</ele>
        <time>2019-07-05T18:23:36Z</time>
      </trkpt>
      <trkpt lat="41.323386666666664" lon="-8.73809">
        <ele>61.0</ele>
        <time>2019-07-05T18:23:38Z</time>
      </trkpt>
      <trkpt lat="41.323465" lon="-8.738">
        <ele>62.0</ele>
        <time>2019-07-05T18:23:40Z</time>
      </trkpt>
      <trkpt lat="41.32354" lon="-8.737925">
        <ele>62.0</ele>
        <time>2019-07-05T18:23:42Z</time>
      </trkpt>
      <trkpt lat="41.32360833333333" lon="-8.73785">
        <ele>62.0</ele>
        <time>2019-07-05T18:23:44Z</time>
      </trkpt>
      <trkpt lat="41.323655" lon="-8.73773">
        <ele>62.0</ele>
        <time>2019-07-05T18:23:47Z</time>
      </trkpt>
      <trkpt lat="41.323655" lon="-8.73762">
        <ele>62.0</ele>
        <time>2019-07-05T18:23:49Z</time>
      </trkpt>
      <trkpt lat="41.323661666666666" lon="-8.737505">
        <ele>62.0</ele>
        <time>2019-07-05T18:23:51Z</time>
      </trkpt>
      <trkpt lat="41.32366" lon="-8.737406666666667">
        <ele>62.0</ele>
        <time>2019-07-05T18:23:53Z</time>
      </trkpt>
      <trkpt lat="41.32371" lon="-8.737325">
        <ele>62.0</ele>
        <time>2019-07-05T18:23:55Z</time>
      </trkpt>
      <trkpt lat="41.323785" lon="-8.737266666666667">
        <ele>62.0</ele>
        <time>2019-07-05T18:23:57Z</time>
      </trkpt>
      <trkpt lat="41.32387166666667" lon="-8.737225">
        <ele>62.0</ele>
        <time>2019-07-05T18:23:59Z</time>
      </trkpt>
      <trkpt lat="41.32397" lon="-8.737225">
        <ele>62.0</ele>
        <time>2019-07-05T18:24:01Z</time>
      </trkpt>
      <trkpt lat="41.324075" lon="-8.73722">
        <ele>62.0</ele>
        <time>2019-07-05T18:24:03Z</time>
      </trkpt>
      <trkpt lat="41.32418166666667" lon="-8.73722">
        <ele>61.0</ele>
        <time>2019-07-05T18:24:05Z</time>
      </trkpt>
      <trkpt lat="41.324286666666666" lon="-8.73722">
        <ele>61.0</ele>
        <time>2019-07-05T18:24:07Z</time>
      </trkpt>
      <trkpt lat="41.324395" lon="-8.737235">
        <ele>61.0</ele>
        <time>2019-07-05T18:24:09Z</time>
      </trkpt>
      <trkpt lat="41.32451" lon="-8.737251666666667">
        <ele>61.0</ele>
        <time>2019-07-05T18:24:11Z</time>
      </trkpt>
      <trkpt lat="41.324625" lon="-8.737275">
        <ele>61.0</ele>
        <time>2019-07-05T18:24:13Z</time>
      </trkpt>
      <trkpt lat="41.324745" lon="-8.737301666666667">
        <ele>61.0</ele>
        <time>2019-07-05T18:24:15Z</time>
      </trkpt>
      <trkpt lat="41.32486166666666" lon="-8.73733">
        <ele>61.0</ele>
        <time>2019-07-05T18:24:17Z</time>
      </trkpt>
      <trkpt lat="41.324985" lon="-8.737348333333333">
        <ele>61.0</ele>
        <time>2019-07-05T18:24:19Z</time>
      </trkpt>
      <trkpt lat="41.3251" lon="-8.737371666666666">
        <ele>62.0</ele>
        <time>2019-07-05T18:24:21Z</time>
      </trkpt>
      <trkpt lat="41.32522" lon="-8.73739">
        <ele>62.0</ele>
        <time>2019-07-05T18:24:23Z</time>
      </trkpt>
      <trkpt lat="41.325335" lon="-8.73741">
        <ele>62.0</ele>
        <time>2019-07-05T18:24:25Z</time>
      </trkpt>
      <trkpt lat="41.325450000000004" lon="-8.73743">
        <ele>61.0</ele>
        <time>2019-07-05T18:24:27Z</time>
      </trkpt>
      <trkpt lat="41.32557" lon="-8.737455">
        <ele>61.0</ele>
        <time>2019-07-05T18:24:29Z</time>
      </trkpt>
      <trkpt lat="41.325685" lon="-8.73748">
        <ele>62.0</ele>
        <time>2019-07-05T18:24:31Z</time>
      </trkpt>
      <trkpt lat="41.3258" lon="-8.737495">
        <ele>62.0</ele>
        <time>2019-07-05T18:24:33Z</time>
      </trkpt>
      <trkpt lat="41.325915" lon="-8.737501666666667">
        <ele>62.0</ele>
        <time>2019-07-05T18:24:35Z</time>
      </trkpt>
      <trkpt lat="41.326025" lon="-8.737495">
        <ele>62.0</ele>
        <time>2019-07-05T18:24:37Z</time>
      </trkpt>
      <trkpt lat="41.326135" lon="-8.73749">
        <ele>62.0</ele>
        <time>2019-07-05T18:24:39Z</time>
      </trkpt>
      <trkpt lat="41.32624" lon="-8.737475">
        <ele>62.0</ele>
        <time>2019-07-05T18:24:41Z</time>
      </trkpt>
      <trkpt lat="41.326335" lon="-8.737408333333333">
        <ele>62.0</ele>
        <time>2019-07-05T18:24:43Z</time>
      </trkpt>
      <trkpt lat="41.32643" lon="-8.73734">
        <ele>62.0</ele>
        <time>2019-07-05T18:24:45Z</time>
      </trkpt>
      <trkpt lat="41.326525" lon="-8.73727">
        <ele>62.0</ele>
        <time>2019-07-05T18:24:47Z</time>
      </trkpt>
      <trkpt lat="41.326616666666666" lon="-8.7372">
        <ele>61.0</ele>
        <time>2019-07-05T18:24:49Z</time>
      </trkpt>
      <trkpt lat="41.326715" lon="-8.737215">
        <ele>62.0</ele>
        <time>2019-07-05T18:24:51Z</time>
      </trkpt>
      <trkpt lat="41.32681" lon="-8.737276666666666">
        <ele>61.0</ele>
        <time>2019-07-05T18:24:53Z</time>
      </trkpt>
      <trkpt lat="41.32691166666667" lon="-8.737345">
        <ele>61.0</ele>
        <time>2019-07-05T18:24:55Z</time>
      </trkpt>
      <trkpt lat="41.327011666666664" lon="-8.737415">
        <ele>61.0</ele>
        <time>2019-07-05T18:24:57Z</time>
      </trkpt>
      <trkpt lat="41.327115" lon="-8.737481666666667">
        <ele>61.0</ele>
        <time>2019-07-05T18:24:59Z</time>
      </trkpt>
      <trkpt lat="41.327205" lon="-8.73757">
        <ele>61.0</ele>
        <time>2019-07-05T18:25:01Z</time>
      </trkpt>
      <trkpt lat="41.32728" lon="-8.737665">
        <ele>61.0</ele>
        <time>2019-07-05T18:25:03Z</time>
      </trkpt>
      <trkpt lat="41.327355" lon="-8.737751666666666">
        <ele>61.0</ele>
        <time>2019-07-05T18:25:05Z</time>
      </trkpt>
      <trkpt lat="41.32742" lon="-8.73783">
        <ele>62.0</ele>
        <time>2019-07-05T18:25:07Z</time>
      </trkpt>
      <trkpt lat="41.327495" lon="-8.73789">
        <ele>62.0</ele>
        <time>2019-07-05T18:25:09Z</time>
      </trkpt>
      <trkpt lat="41.327595" lon="-8.737905">
        <ele>62.0</ele>
        <time>2019-07-05T18:25:11Z</time>
      </trkpt>
      <trkpt lat="41.32770166666667" lon="-8.737905">
        <ele>63.0</ele>
        <time>2019-07-05T18:25:13Z</time>
      </trkpt>
      <trkpt lat="41.327805" lon="-8.737915">
        <ele>63.0</ele>
        <time>2019-07-05T18:25:15Z</time>
      </trkpt>
      <trkpt lat="41.32789" lon="-8.737951666666667">
        <ele>64.0</ele>
        <time>2019-07-05T18:25:17Z</time>
      </trkpt>
      <trkpt lat="41.327965" lon="-8.73801">
        <ele>64.0</ele>
        <time>2019-07-05T18:25:19Z</time>
      </trkpt>
      <trkpt lat="41.328046666666665" lon="-8.73807">
        <ele>64.0</ele>
        <time>2019-07-05T18:25:21Z</time>
      </trkpt>
      <trkpt lat="41.32814" lon="-8.73814">
        <ele>63.0</ele>
        <time>2019-07-05T18:25:23Z</time>
      </trkpt>
      <trkpt lat="41.32824" lon="-8.738215">
        <ele>63.0</ele>
        <time>2019-07-05T18:25:25Z</time>
      </trkpt>
      <trkpt lat="41.32834" lon="-8.73828">
        <ele>63.0</ele>
        <time>2019-07-05T18:25:27Z</time>
      </trkpt>
      <trkpt lat="41.32844" lon="-8.738333333333333">
        <ele>63.0</ele>
        <time>2019-07-05T18:25:29Z</time>
      </trkpt>
      <trkpt lat="41.32853" lon="-8.738385">
        <ele>64.0</ele>
        <time>2019-07-05T18:25:31Z</time>
      </trkpt>
      <trkpt lat="41.32862333333333" lon="-8.738435">
        <ele>63.0</ele>
        <time>2019-07-05T18:25:33Z</time>
      </trkpt>
      <trkpt lat="41.32872" lon="-8.73846">
        <ele>64.0</ele>
        <time>2019-07-05T18:25:35Z</time>
      </trkpt>
      <trkpt lat="41.32881166666667" lon="-8.73848">
        <ele>64.0</ele>
        <time>2019-07-05T18:25:37Z</time>
      </trkpt>
      <trkpt lat="41.328905" lon="-8.738495">
        <ele>65.0</ele>
        <time>2019-07-05T18:25:39Z</time>
      </trkpt>
      <trkpt lat="41.328995" lon="-8.7385">
        <ele>64.0</ele>
        <time>2019-07-05T18:25:41Z</time>
      </trkpt>
      <trkpt lat="41.32909" lon="-8.738515">
        <ele>65.0</ele>
        <time>2019-07-05T18:25:43Z</time>
      </trkpt>
      <trkpt lat="41.329185" lon="-8.738545">
        <ele>64.0</ele>
        <time>2019-07-05T18:25:45Z</time>
      </trkpt>
      <trkpt lat="41.329285" lon="-8.738565">
        <ele>64.0</ele>
        <time>2019-07-05T18:25:47Z</time>
      </trkpt>
      <trkpt lat="41.32938" lon="-8.738585">
        <ele>64.0</ele>
        <time>2019-07-05T18:25:49Z</time>
      </trkpt>
      <trkpt lat="41.329475" lon="-8.73861">
        <ele>64.0</ele>
        <time>2019-07-05T18:25:51Z</time>
      </trkpt>
      <trkpt lat="41.32956166666666" lon="-8.73863">
        <ele>65.0</ele>
        <time>2019-07-05T18:25:53Z</time>
      </trkpt>
      <trkpt lat="41.32964" lon="-8.73865">
        <ele>65.0</ele>
        <time>2019-07-05T18:25:55Z</time>
      </trkpt>
      <trkpt lat="41.32974" lon="-8.73867">
        <ele>65.0</ele>
        <time>2019-07-05T18:25:58Z</time>
      </trkpt>
      <trkpt lat="41.329815" lon="-8.738685">
        <ele>65.0</ele>
        <time>2019-07-05T18:26:00Z</time>
      </trkpt>
      <trkpt lat="41.32989166666667" lon="-8.738701666666667">
        <ele>65.0</ele>
        <time>2019-07-05T18:26:02Z</time>
      </trkpt>
      <trkpt lat="41.32996833333333" lon="-8.738725">
        <ele>64.0</ele>
        <time>2019-07-05T18:26:04Z</time>
      </trkpt>
      <trkpt lat="41.33005" lon="-8.738745">
        <ele>64.0</ele>
        <time>2019-07-05T18:26:06Z</time>
      </trkpt>
      <trkpt lat="41.330128333333334" lon="-8.73873">
        <ele>63.0</ele>
        <time>2019-07-05T18:26:08Z</time>
      </trkpt>
      <trkpt lat="41.33022" lon="-8.738735">
        <ele>63.0</ele>
        <time>2019-07-05T18:26:10Z</time>
      </trkpt>
      <trkpt lat="41.330315" lon="-8.738746666666668">
        <ele>63.0</ele>
        <time>2019-07-05T18:26:12Z</time>
      </trkpt>
      <trkpt lat="41.33041" lon="-8.738768333333333">
        <ele>63.0</ele>
        <time>2019-07-05T18:26:14Z</time>
      </trkpt>
      <trkpt lat="41.330505" lon="-8.738795">
        <ele>64.0</ele>
        <time>2019-07-05T18:26:16Z</time>
      </trkpt>
      <trkpt lat="41.330605" lon="-8.738786666666666">
        <ele>64.0</ele>
        <time>2019-07-05T18:26:18Z</time>
      </trkpt>
      <trkpt lat="41.330715" lon="-8.73878">
        <ele>64.0</ele>
        <time>2019-07-05T18:26:20Z</time>
      </trkpt>
      <trkpt lat="41.33083" lon="-8.738801666666667">
        <ele>64.0</ele>
        <time>2019-07-05T18:26:22Z</time>
      </trkpt>
      <trkpt lat="41.33094" lon="-8.738831666666666">
        <ele>64.0</ele>
        <time>2019-07-05T18:26:24Z</time>
      </trkpt>
      <trkpt lat="41.33105" lon="-8.738865">
        <ele>64.0</ele>
        <time>2019-07-05T18:26:26Z</time>
      </trkpt>
      <trkpt lat="41.33116666666667" lon="-8.7389">
        <ele>64.0</ele>
        <time>2019-07-05T18:26:28Z</time>
      </trkpt>
      <trkpt lat="41.331285" lon="-8.73893">
        <ele>63.0</ele>
        <time>2019-07-05T18:26:30Z</time>
      </trkpt>
      <trkpt lat="41.331405" lon="-8.738965">
        <ele>63.0</ele>
        <time>2019-07-05T18:26:32Z</time>
      </trkpt>
      <trkpt lat="41.33152" lon="-8.739">
        <ele>63.0</ele>
        <time>2019-07-05T18:26:34Z</time>
      </trkpt>
      <trkpt lat="41.33163" lon="-8.739026666666666">
        <ele>63.0</ele>
        <time>2019-07-05T18:26:36Z</time>
      </trkpt>
      <trkpt lat="41.331745" lon="-8.739045">
        <ele>63.0</ele>
        <time>2019-07-05T18:26:38Z</time>
      </trkpt>
      <trkpt lat="41.33185" lon="-8.739075">
        <ele>63.0</ele>
        <time>2019-07-05T18:26:40Z</time>
      </trkpt>
      <trkpt lat="41.33195" lon="-8.739106666666666">
        <ele>63.0</ele>
        <time>2019-07-05T18:26:42Z</time>
      </trkpt>
      <trkpt lat="41.33204" lon="-8.739135">
        <ele>63.0</ele>
        <time>2019-07-05T18:26:44Z</time>
      </trkpt>
      <trkpt lat="41.33213" lon="-8.73915">
        <ele>64.0</ele>
        <time>2019-07-05T18:26:46Z</time>
      </trkpt>
      <trkpt lat="41.33221" lon="-8.739095">
        <ele>64.0</ele>
        <time>2019-07-05T18:26:48Z</time>
      </trkpt>
      <trkpt lat="41.332255" lon="-8.73902">
        <ele>64.0</ele>
        <time>2019-07-05T18:26:51Z</time>
      </trkpt>
      <trkpt lat="41.332295" lon="-8.738998333333333">
        <ele>65.0</ele>
        <time>2019-07-05T18:26:58Z</time>
      </trkpt>
      <trkpt lat="41.33233" lon="-8.738998333333333">
        <ele>65.0</ele>
        <time>2019-07-05T18:27:05Z</time>
      </trkpt>
      <trkpt lat="41.332415" lon="-8.73901">
        <ele>66.0</ele>
        <time>2019-07-05T18:27:10Z</time>
      </trkpt>
      <trkpt lat="41.332501666666666" lon="-8.73902">
        <ele>66.0</ele>
        <time>2019-07-05T18:27:13Z</time>
      </trkpt>
      <trkpt lat="41.33260166666667" lon="-8.739031666666667">
        <ele>67.0</ele>
        <time>2019-07-05T18:27:16Z</time>
      </trkpt>
      <trkpt lat="41.332675" lon="-8.73904">
        <ele>67.0</ele>
        <time>2019-07-05T18:27:18Z</time>
      </trkpt>
      <trkpt lat="41.33275666666667" lon="-8.73905">
        <ele>67.0</ele>
        <time>2019-07-05T18:27:20Z</time>
      </trkpt>
      <trkpt lat="41.33284166666667" lon="-8.739065">
        <ele>68.0</ele>
        <time>2019-07-05T18:27:22Z</time>
      </trkpt>
      <trkpt lat="41.332935" lon="-8.739075">
        <ele>67.0</ele>
        <time>2019-07-05T18:27:24Z</time>
      </trkpt>
      <trkpt lat="41.33302" lon="-8.739085">
        <ele>67.0</ele>
        <time>2019-07-05T18:27:26Z</time>
      </trkpt>
      <trkpt lat="41.333105" lon="-8.739095">
        <ele>67.0</ele>
        <time>2019-07-05T18:27:28Z</time>
      </trkpt>
      <trkpt lat="41.333195" lon="-8.73911">
        <ele>67.0</ele>
        <time>2019-07-05T18:27:30Z</time>
      </trkpt>
      <trkpt lat="41.333286666666666" lon="-8.73912">
        <ele>66.0</ele>
        <time>2019-07-05T18:27:32Z</time>
      </trkpt>
      <trkpt lat="41.333376666666666" lon="-8.739125">
        <ele>66.0</ele>
        <time>2019-07-05T18:27:34Z</time>
      </trkpt>
      <trkpt lat="41.333463333333334" lon="-8.739141666666667">
        <ele>66.0</ele>
        <time>2019-07-05T18:27:36Z</time>
      </trkpt>
      <trkpt lat="41.333533333333335" lon="-8.739175">
        <ele>66.0</ele>
        <time>2019-07-05T18:27:38Z</time>
      </trkpt>
      <trkpt lat="41.33360166666667" lon="-8.739215">
        <ele>66.0</ele>
        <time>2019-07-05T18:27:44Z</time>
      </trkpt>
      <trkpt lat="41.33365666666667" lon="-8.73912">
        <ele>65.0</ele>
        <time>2019-07-05T18:27:49Z</time>
      </trkpt>
      <trkpt lat="41.33371" lon="-8.73901">
        <ele>63.0</ele>
        <time>2019-07-05T18:27:51Z</time>
      </trkpt>
      <trkpt lat="41.333776666666665" lon="-8.738865">
        <ele>62.0</ele>
        <time>2019-07-05T18:27:53Z</time>
      </trkpt>
      <trkpt lat="41.333825" lon="-8.73876">
        <ele>61.0</ele>
        <time>2019-07-05T18:27:55Z</time>
      </trkpt>
      <trkpt lat="41.33388" lon="-8.73866">
        <ele>61.0</ele>
        <time>2019-07-05T18:27:57Z</time>
      </trkpt>
      <trkpt lat="41.33392666666666" lon="-8.738555">
        <ele>61.0</ele>
        <time>2019-07-05T18:27:59Z</time>
      </trkpt>
      <trkpt lat="41.333981666666666" lon="-8.738455">
        <ele>61.0</ele>
        <time>2019-07-05T18:28:01Z</time>
      </trkpt>
      <trkpt lat="41.33404" lon="-8.738345">
        <ele>61.0</ele>
        <time>2019-07-05T18:28:03Z</time>
      </trkpt>
      <trkpt lat="41.33409" lon="-8.738236666666667">
        <ele>61.0</ele>
        <time>2019-07-05T18:28:05Z</time>
      </trkpt>
      <trkpt lat="41.334136666666666" lon="-8.738143333333333">
        <ele>61.0</ele>
        <time>2019-07-05T18:28:07Z</time>
      </trkpt>
      <trkpt lat="41.3342" lon="-8.738025">
        <ele>61.0</ele>
        <time>2019-07-05T18:28:10Z</time>
      </trkpt>
      <trkpt lat="41.334245" lon="-8.737935">
        <ele>62.0</ele>
        <time>2019-07-05T18:28:12Z</time>
      </trkpt>
      <trkpt lat="41.334293333333335" lon="-8.73784">
        <ele>63.0</ele>
        <time>2019-07-05T18:28:14Z</time>
      </trkpt>
      <trkpt lat="41.33435" lon="-8.737725">
        <ele>63.0</ele>
        <time>2019-07-05T18:28:16Z</time>
      </trkpt>
      <trkpt lat="41.33441" lon="-8.737615">
        <ele>63.0</ele>
        <time>2019-07-05T18:28:18Z</time>
      </trkpt>
      <trkpt lat="41.334465" lon="-8.737525">
        <ele>64.0</ele>
        <time>2019-07-05T18:28:20Z</time>
      </trkpt>
      <trkpt lat="41.334525" lon="-8.737455">
        <ele>64.0</ele>
        <time>2019-07-05T18:28:22Z</time>
      </trkpt>
      <trkpt lat="41.33459" lon="-8.73737">
        <ele>65.0</ele>
        <time>2019-07-05T18:28:25Z</time>
      </trkpt>
      <trkpt lat="41.334615" lon="-8.73726">
        <ele>69.0</ele>
        <time>2019-07-05T18:28:28Z</time>
      </trkpt>
      <trkpt lat="41.334655" lon="-8.737165">
        <ele>69.0</ele>
        <time>2019-07-05T18:28:30Z</time>
      </trkpt>
      <trkpt lat="41.334711666666664" lon="-8.73707">
        <ele>69.0</ele>
        <time>2019-07-05T18:28:32Z</time>
      </trkpt>
      <trkpt lat="41.33477" lon="-8.736975">
        <ele>70.0</ele>
        <time>2019-07-05T18:28:34Z</time>
      </trkpt>
      <trkpt lat="41.33482166666667" lon="-8.736873333333333">
        <ele>70.0</ele>
        <time>2019-07-05T18:28:36Z</time>
      </trkpt>
      <trkpt lat="41.33487" lon="-8.736771666666666">
        <ele>71.0</ele>
        <time>2019-07-05T18:28:38Z</time>
      </trkpt>
      <trkpt lat="41.33492" lon="-8.73667">
        <ele>71.0</ele>
        <time>2019-07-05T18:28:40Z</time>
      </trkpt>
      <trkpt lat="41.33497166666667" lon="-8.73658">
        <ele>72.0</ele>
        <time>2019-07-05T18:28:42Z</time>
      </trkpt>
      <trkpt lat="41.33502" lon="-8.736486666666666">
        <ele>71.0</ele>
        <time>2019-07-05T18:28:44Z</time>
      </trkpt>
      <trkpt lat="41.335065" lon="-8.736395">
        <ele>72.0</ele>
        <time>2019-07-05T18:28:46Z</time>
      </trkpt>
      <trkpt lat="41.335116666666664" lon="-8.736295">
        <ele>71.0</ele>
        <time>2019-07-05T18:28:48Z</time>
      </trkpt>
      <trkpt lat="41.335165" lon="-8.736186666666667">
        <ele>71.0</ele>
        <time>2019-07-05T18:28:50Z</time>
      </trkpt>
      <trkpt lat="41.335215" lon="-8.736085">
        <ele>72.0</ele>
        <time>2019-07-05T18:28:52Z</time>
      </trkpt>
      <trkpt lat="41.33526666666667" lon="-8.735983333333333">
        <ele>72.0</ele>
        <time>2019-07-05T18:28:54Z</time>
      </trkpt>
      <trkpt lat="41.335325" lon="-8.73588">
        <ele>71.0</ele>
        <time>2019-07-05T18:28:56Z</time>
      </trkpt>
      <trkpt lat="41.335385" lon="-8.735781666666666">
        <ele>72.0</ele>
        <time>2019-07-05T18:28:58Z</time>
      </trkpt>
      <trkpt lat="41.335445" lon="-8.73569">
        <ele>72.0</ele>
        <time>2019-07-05T18:29:00Z</time>
      </trkpt>
      <trkpt lat="41.335495" lon="-8.735591666666666">
        <ele>73.0</ele>
        <time>2019-07-05T18:29:02Z</time>
      </trkpt>
      <trkpt lat="41.335555" lon="-8.735496666666666">
        <ele>74.0</ele>
        <time>2019-07-05T18:29:04Z</time>
      </trkpt>
      <trkpt lat="41.33562" lon="-8.7354">
        <ele>75.0</ele>
        <time>2019-07-05T18:29:06Z</time>
      </trkpt>
      <trkpt lat="41.335685" lon="-8.735305">
        <ele>76.0</ele>
        <time>2019-07-05T18:29:09Z</time>
      </trkpt>
      <trkpt lat="41.33575" lon="-8.735185">
        <ele>75.0</ele>
        <time>2019-07-05T18:29:10Z</time>
      </trkpt>
      <trkpt lat="41.335811666666665" lon="-8.7351">
        <ele>75.0</ele>
        <time>2019-07-05T18:29:12Z</time>
      </trkpt>
      <trkpt lat="41.33587166666667" lon="-8.734996666666667">
        <ele>75.0</ele>
        <time>2019-07-05T18:29:14Z</time>
      </trkpt>
      <trkpt lat="41.33594" lon="-8.734915">
        <ele>75.0</ele>
        <time>2019-07-05T18:29:16Z</time>
      </trkpt>
      <trkpt lat="41.33603" lon="-8.734855">
        <ele>73.0</ele>
        <time>2019-07-05T18:29:18Z</time>
      </trkpt>
      <trkpt lat="41.336115" lon="-8.73485">
        <ele>71.0</ele>
        <time>2019-07-05T18:29:20Z</time>
      </trkpt>
      <trkpt lat="41.3362" lon="-8.734805">
        <ele>70.0</ele>
        <time>2019-07-05T18:29:22Z</time>
      </trkpt>
      <trkpt lat="41.336261666666665" lon="-8.73473">
        <ele>70.0</ele>
        <time>2019-07-05T18:29:24Z</time>
      </trkpt>
      <trkpt lat="41.336305" lon="-8.734636666666667">
        <ele>70.0</ele>
        <time>2019-07-05T18:29:26Z</time>
      </trkpt>
      <trkpt lat="41.336345" lon="-8.73452">
        <ele>70.0</ele>
        <time>2019-07-05T18:29:28Z</time>
      </trkpt>
      <trkpt lat="41.33638166666667" lon="-8.734401666666667">
        <ele>69.0</ele>
        <time>2019-07-05T18:29:30Z</time>
      </trkpt>
      <trkpt lat="41.336416666666665" lon="-8.73428">
        <ele>69.0</ele>
        <time>2019-07-05T18:29:32Z</time>
      </trkpt>
      <trkpt lat="41.33646" lon="-8.73416">
        <ele>69.0</ele>
        <time>2019-07-05T18:29:34Z</time>
      </trkpt>
      <trkpt lat="41.336495" lon="-8.73406">
        <ele>71.0</ele>
        <time>2019-07-05T18:29:36Z</time>
      </trkpt>
      <trkpt lat="41.336545" lon="-8.733935">
        <ele>71.0</ele>
        <time>2019-07-05T18:29:38Z</time>
      </trkpt>
      <trkpt lat="41.336605" lon="-8.733795">
        <ele>70.0</ele>
        <time>2019-07-05T18:29:40Z</time>
      </trkpt>
      <trkpt lat="41.33666" lon="-8.733646666666667">
        <ele>70.0</ele>
        <time>2019-07-05T18:29:42Z</time>
      </trkpt>
      <trkpt lat="41.3367" lon="-8.73349">
        <ele>71.0</ele>
        <time>2019-07-05T18:29:44Z</time>
      </trkpt>
      <trkpt lat="41.33671" lon="-8.733356666666667">
        <ele>71.0</ele>
        <time>2019-07-05T18:29:46Z</time>
      </trkpt>
      <trkpt lat="41.336751666666665" lon="-8.733261666666667">
        <ele>70.0</ele>
        <time>2019-07-05T18:29:48Z</time>
      </trkpt>
      <trkpt lat="41.336835" lon="-8.733265">
        <ele>69.0</ele>
        <time>2019-07-05T18:29:50Z</time>
      </trkpt>
      <trkpt lat="41.336906666666664" lon="-8.73334">
        <ele>69.0</ele>
        <time>2019-07-05T18:29:52Z</time>
      </trkpt>
      <trkpt lat="41.337005" lon="-8.733405">
        <ele>68.0</ele>
        <time>2019-07-05T18:29:54Z</time>
      </trkpt>
      <trkpt lat="41.337115" lon="-8.733485">
        <ele>68.0</ele>
        <time>2019-07-05T18:29:56Z</time>
      </trkpt>
      <trkpt lat="41.33722" lon="-8.73355">
        <ele>68.0</ele>
        <time>2019-07-05T18:29:58Z</time>
      </trkpt>
      <trkpt lat="41.337316666666666" lon="-8.73361">
        <ele>67.0</ele>
        <time>2019-07-05T18:30:00Z</time>
      </trkpt>
      <trkpt lat="41.33742" lon="-8.733675">
        <ele>67.0</ele>
        <time>2019-07-05T18:30:02Z</time>
      </trkpt>
      <trkpt lat="41.33752" lon="-8.733731666666667">
        <ele>66.0</ele>
        <time>2019-07-05T18:30:04Z</time>
      </trkpt>
      <trkpt lat="41.337625" lon="-8.733785">
        <ele>66.0</ele>
        <time>2019-07-05T18:30:06Z</time>
      </trkpt>
      <trkpt lat="41.33773" lon="-8.73383">
        <ele>66.0</ele>
        <time>2019-07-05T18:30:08Z</time>
      </trkpt>
      <trkpt lat="41.337835" lon="-8.73388">
        <ele>66.0</ele>
        <time>2019-07-05T18:30:10Z</time>
      </trkpt>
      <trkpt lat="41.337945" lon="-8.733925">
        <ele>65.0</ele>
        <time>2019-07-05T18:30:12Z</time>
      </trkpt>
      <trkpt lat="41.33804666666666" lon="-8.73396">
        <ele>65.0</ele>
        <time>2019-07-05T18:30:14Z</time>
      </trkpt>
      <trkpt lat="41.33815" lon="-8.73398">
        <ele>65.0</ele>
        <time>2019-07-05T18:30:16Z</time>
      </trkpt>
      <trkpt lat="41.33824666666667" lon="-8.733976666666667">
        <ele>66.0</ele>
        <time>2019-07-05T18:30:18Z</time>
      </trkpt>
      <trkpt lat="41.338345" lon="-8.733975">
        <ele>66.0</ele>
        <time>2019-07-05T18:30:20Z</time>
      </trkpt>
      <trkpt lat="41.338435" lon="-8.733976666666667">
        <ele>66.0</ele>
        <time>2019-07-05T18:30:22Z</time>
      </trkpt>
      <trkpt lat="41.33852" lon="-8.73397">
        <ele>66.0</ele>
        <time>2019-07-05T18:30:24Z</time>
      </trkpt>
      <trkpt lat="41.338605" lon="-8.73396">
        <ele>66.0</ele>
        <time>2019-07-05T18:30:26Z</time>
      </trkpt>
      <trkpt lat="41.33869" lon="-8.733965">
        <ele>67.0</ele>
        <time>2019-07-05T18:30:28Z</time>
      </trkpt>
      <trkpt lat="41.338775" lon="-8.73396">
        <ele>67.0</ele>
        <time>2019-07-05T18:30:30Z</time>
      </trkpt>
      <trkpt lat="41.33885333333333" lon="-8.73396">
        <ele>67.0</ele>
        <time>2019-07-05T18:30:32Z</time>
      </trkpt>
      <trkpt lat="41.338935" lon="-8.733961666666668">
        <ele>67.0</ele>
        <time>2019-07-05T18:30:34Z</time>
      </trkpt>
      <trkpt lat="41.339015" lon="-8.733965">
        <ele>68.0</ele>
        <time>2019-07-05T18:30:36Z</time>
      </trkpt>
      <trkpt lat="41.339095" lon="-8.733965">
        <ele>68.0</ele>
        <time>2019-07-05T18:30:38Z</time>
      </trkpt>
      <trkpt lat="41.339175" lon="-8.733976666666667">
        <ele>68.0</ele>
        <time>2019-07-05T18:30:40Z</time>
      </trkpt>
      <trkpt lat="41.339255" lon="-8.733985">
        <ele>69.0</ele>
        <time>2019-07-05T18:30:42Z</time>
      </trkpt>
      <trkpt lat="41.339335" lon="-8.733995">
        <ele>69.0</ele>
        <time>2019-07-05T18:30:44Z</time>
      </trkpt>
      <trkpt lat="41.33941" lon="-8.734005">
        <ele>69.0</ele>
        <time>2019-07-05T18:30:46Z</time>
      </trkpt>
      <trkpt lat="41.339485" lon="-8.734011666666667">
        <ele>69.0</ele>
        <time>2019-07-05T18:30:48Z</time>
      </trkpt>
      <trkpt lat="41.339565" lon="-8.73403">
        <ele>70.0</ele>
        <time>2019-07-05T18:30:50Z</time>
      </trkpt>
      <trkpt lat="41.339665" lon="-8.73405">
        <ele>71.0</ele>
        <time>2019-07-05T18:30:53Z</time>
      </trkpt>
      <trkpt lat="41.33977" lon="-8.734085">
        <ele>71.0</ele>
        <time>2019-07-05T18:30:56Z</time>
      </trkpt>
      <trkpt lat="41.339845" lon="-8.734095">
        <ele>71.0</ele>
        <time>2019-07-05T18:30:58Z</time>
      </trkpt>
      <trkpt lat="41.33991666666667" lon="-8.7341">
        <ele>71.0</ele>
        <time>2019-07-05T18:31:00Z</time>
      </trkpt>
      <trkpt lat="41.34001666666666" lon="-8.73413">
        <ele>72.0</ele>
        <time>2019-07-05T18:31:03Z</time>
      </trkpt>
      <trkpt lat="41.340105" lon="-8.73416">
        <ele>72.0</ele>
        <time>2019-07-05T18:31:06Z</time>
      </trkpt>
      <trkpt lat="41.340203333333335" lon="-8.734186666666666">
        <ele>73.0</ele>
        <time>2019-07-05T18:31:09Z</time>
      </trkpt>
      <trkpt lat="41.340305" lon="-8.7342">
        <ele>73.0</ele>
        <time>2019-07-05T18:31:12Z</time>
      </trkpt>
      <trkpt lat="41.340405" lon="-8.73422">
        <ele>73.0</ele>
        <time>2019-07-05T18:31:15Z</time>
      </trkpt>
      <trkpt lat="41.3405" lon="-8.734235">
        <ele>74.0</ele>
        <time>2019-07-05T18:31:18Z</time>
      </trkpt>
      <trkpt lat="41.34059166666667" lon="-8.734255">
        <ele>74.0</ele>
        <time>2019-07-05T18:31:21Z</time>
      </trkpt>
      <trkpt lat="41.34069" lon="-8.734275">
        <ele>75.0</ele>
        <time>2019-07-05T18:31:24Z</time>
      </trkpt>
      <trkpt lat="41.340785" lon="-8.734295">
        <ele>75.0</ele>
        <time>2019-07-05T18:31:27Z</time>
      </trkpt>
      <trkpt lat="41.340871666666665" lon="-8.734311666666667">
        <ele>75.0</ele>
        <time>2019-07-05T18:31:30Z</time>
      </trkpt>
      <trkpt lat="41.34095" lon="-8.734325">
        <ele>75.0</ele>
        <time>2019-07-05T18:31:33Z</time>
      </trkpt>
      <trkpt lat="41.341025" lon="-8.73433">
        <ele>76.0</ele>
        <time>2019-07-05T18:31:36Z</time>
      </trkpt>
      <trkpt lat="41.3411" lon="-8.734336666666668">
        <ele>76.0</ele>
        <time>2019-07-05T18:31:41Z</time>
      </trkpt>
      <trkpt lat="41.34101166666667" lon="-8.73438">
        <ele>75.0</ele>
        <time>2019-07-05T18:31:48Z</time>
      </trkpt>
      <trkpt lat="41.34093" lon="-8.734425">
        <ele>75.0</ele>
        <time>2019-07-05T18:31:51Z</time>
      </trkpt>
      <trkpt lat="41.3409" lon="-8.734535">
        <ele>74.0</ele>
        <time>2019-07-05T18:31:54Z</time>
      </trkpt>
      <trkpt lat="41.340885" lon="-8.734636666666667">
        <ele>75.0</ele>
        <time>2019-07-05T18:31:57Z</time>
      </trkpt>
      <trkpt lat="41.34084166666667" lon="-8.734725">
        <ele>75.0</ele>
        <time>2019-07-05T18:32:00Z</time>
      </trkpt>
      <trkpt lat="41.34078" lon="-8.734805">
        <ele>75.0</ele>
        <time>2019-07-05T18:32:03Z</time>
      </trkpt>
      <trkpt lat="41.34071" lon="-8.734901666666667">
        <ele>76.0</ele>
        <time>2019-07-05T18:32:06Z</time>
      </trkpt>
      <trkpt lat="41.34065" lon="-8.735016666666667">
        <ele>76.0</ele>
        <time>2019-07-05T18:32:09Z</time>
      </trkpt>
      <trkpt lat="41.34059666666667" lon="-8.73509">
        <ele>76.0</ele>
        <time>2019-07-05T18:32:11Z</time>
      </trkpt>
      <trkpt lat="41.34054" lon="-8.735155">
        <ele>75.0</ele>
        <time>2019-07-05T18:32:13Z</time>
      </trkpt>
      <trkpt lat="41.34048" lon="-8.735215">
        <ele>75.0</ele>
        <time>2019-07-05T18:32:15Z</time>
      </trkpt>
      <trkpt lat="41.340405" lon="-8.735295">
        <ele>75.0</ele>
        <time>2019-07-05T18:32:18Z</time>
      </trkpt>
      <trkpt lat="41.340335" lon="-8.735365">
        <ele>76.0</ele>
        <time>2019-07-05T18:32:22Z</time>
      </trkpt>
      <trkpt lat="41.3404" lon="-8.735295">
        <ele>78.0</ele>
        <time>2019-07-05T18:32:29Z</time>
      </trkpt>
      <trkpt lat="41.340465" lon="-8.73523">
        <ele>78.0</ele>
        <time>2019-07-05T18:32:31Z</time>
      </trkpt>
      <trkpt lat="41.340525" lon="-8.735165">
        <ele>78.0</ele>
        <time>2019-07-05T18:32:33Z</time>
      </trkpt>
      <trkpt lat="41.340601666666664" lon="-8.735075">
        <ele>79.0</ele>
        <time>2019-07-05T18:32:36Z</time>
      </trkpt>
      <trkpt lat="41.34066166666667" lon="-8.73497">
        <ele>80.0</ele>
        <time>2019-07-05T18:32:39Z</time>
      </trkpt>
      <trkpt lat="41.34071" lon="-8.73489">
        <ele>81.0</ele>
        <time>2019-07-05T18:32:42Z</time>
      </trkpt>
      <trkpt lat="41.34076" lon="-8.73482">
        <ele>83.0</ele>
        <time>2019-07-05T18:32:46Z</time>
      </trkpt>
      <trkpt lat="41.340831666666666" lon="-8.734836666666666">
        <ele>82.0</ele>
        <time>2019-07-05T18:32:49Z</time>
      </trkpt>
      <trkpt lat="41.340905" lon="-8.734865">
        <ele>82.0</ele>
        <time>2019-07-05T18:32:51Z</time>
      </trkpt>
      <trkpt lat="41.340975" lon="-8.734915">
        <ele>81.0</ele>
        <time>2019-07-05T18:32:53Z</time>
      </trkpt>
      <trkpt lat="41.34104166666667" lon="-8.734965">
        <ele>81.0</ele>
        <time>2019-07-05T18:32:55Z</time>
      </trkpt>
      <trkpt lat="41.34111" lon="-8.735015">
        <ele>80.0</ele>
        <time>2019-07-05T18:32:57Z</time>
      </trkpt>
      <trkpt lat="41.341175" lon="-8.735065">
        <ele>80.0</ele>
        <time>2019-07-05T18:32:59Z</time>
      </trkpt>
      <trkpt lat="41.341245" lon="-8.735116666666666">
        <ele>79.0</ele>
        <time>2019-07-05T18:33:01Z</time>
      </trkpt>
      <trkpt lat="41.34132" lon="-8.735171666666666">
        <ele>78.0</ele>
        <time>2019-07-05T18:33:03Z</time>
      </trkpt>
      <trkpt lat="41.341395" lon="-8.735235">
        <ele>78.0</ele>
        <time>2019-07-05T18:33:05Z</time>
      </trkpt>
      <trkpt lat="41.34147" lon="-8.735315">
        <ele>77.0</ele>
        <time>2019-07-05T18:33:07Z</time>
      </trkpt>
      <trkpt lat="41.341565" lon="-8.73537">
        <ele>77.0</ele>
        <time>2019-07-05T18:33:09Z</time>
      </trkpt>
      <trkpt lat="41.34166" lon="-8.73543">
        <ele>76.0</ele>
        <time>2019-07-05T18:33:11Z</time>
      </trkpt>
      <trkpt lat="41.341735" lon="-8.735535">
        <ele>76.0</ele>
        <time>2019-07-05T18:33:13Z</time>
      </trkpt>
      <trkpt lat="41.34180666666666" lon="-8.73564">
        <ele>76.0</ele>
        <time>2019-07-05T18:33:15Z</time>
      </trkpt>
      <trkpt lat="41.341865" lon="-8.735745">
        <ele>75.0</ele>
        <time>2019-07-05T18:33:17Z</time>
      </trkpt>
      <trkpt lat="41.3419" lon="-8.73584">
        <ele>75.0</ele>
        <time>2019-07-05T18:33:19Z</time>
      </trkpt>
      <trkpt lat="41.34191" lon="-8.735945">
        <ele>75.0</ele>
        <time>2019-07-05T18:33:21Z</time>
      </trkpt>
      <trkpt lat="41.3419" lon="-8.736055">
        <ele>74.0</ele>
        <time>2019-07-05T18:33:23Z</time>
      </trkpt>
      <trkpt lat="41.3419" lon="-8.736171666666667">
        <ele>74.0</ele>
        <time>2019-07-05T18:33:25Z</time>
      </trkpt>
      <trkpt lat="41.341901666666665" lon="-8.736296666666666">
        <ele>74.0</ele>
        <time>2019-07-05T18:33:27Z</time>
      </trkpt>
      <trkpt lat="41.3419" lon="-8.73643">
        <ele>73.0</ele>
        <time>2019-07-05T18:33:29Z</time>
      </trkpt>
      <trkpt lat="41.3419" lon="-8.736565">
        <ele>73.0</ele>
        <time>2019-07-05T18:33:31Z</time>
      </trkpt>
      <trkpt lat="41.3419" lon="-8.736711666666666">
        <ele>72.0</ele>
        <time>2019-07-05T18:33:33Z</time>
      </trkpt>
      <trkpt lat="41.34189666666666" lon="-8.736865">
        <ele>72.0</ele>
        <time>2019-07-05T18:33:35Z</time>
      </trkpt>
      <trkpt lat="41.34189" lon="-8.737015">
        <ele>72.0</ele>
        <time>2019-07-05T18:33:37Z</time>
      </trkpt>
      <trkpt lat="41.34189" lon="-8.737161666666667">
        <ele>71.0</ele>
        <time>2019-07-05T18:33:39Z</time>
      </trkpt>
      <trkpt lat="41.341895" lon="-8.7373">
        <ele>72.0</ele>
        <time>2019-07-05T18:33:41Z</time>
      </trkpt>
      <trkpt lat="41.341905" lon="-8.737456666666667">
        <ele>71.0</ele>
        <time>2019-07-05T18:33:43Z</time>
      </trkpt>
      <trkpt lat="41.34191" lon="-8.737606666666666">
        <ele>71.0</ele>
        <time>2019-07-05T18:33:45Z</time>
      </trkpt>
      <trkpt lat="41.34192" lon="-8.737755">
        <ele>71.0</ele>
        <time>2019-07-05T18:33:47Z</time>
      </trkpt>
      <trkpt lat="41.34193" lon="-8.737911666666667">
        <ele>70.0</ele>
        <time>2019-07-05T18:33:49Z</time>
      </trkpt>
      <trkpt lat="41.34194166666666" lon="-8.73808">
        <ele>69.0</ele>
        <time>2019-07-05T18:33:51Z</time>
      </trkpt>
      <trkpt lat="41.341955" lon="-8.738256666666667">
        <ele>69.0</ele>
        <time>2019-07-05T18:33:53Z</time>
      </trkpt>
      <trkpt lat="41.34195666666667" lon="-8.73844">
        <ele>68.0</ele>
        <time>2019-07-05T18:33:55Z</time>
      </trkpt>
      <trkpt lat="41.34196" lon="-8.738625">
        <ele>69.0</ele>
        <time>2019-07-05T18:33:57Z</time>
      </trkpt>
      <trkpt lat="41.341955" lon="-8.738806666666667">
        <ele>68.0</ele>
        <time>2019-07-05T18:33:59Z</time>
      </trkpt>
      <trkpt lat="41.341935" lon="-8.73898">
        <ele>67.0</ele>
        <time>2019-07-05T18:34:01Z</time>
      </trkpt>
      <trkpt lat="41.34191166666667" lon="-8.739145">
        <ele>67.0</ele>
        <time>2019-07-05T18:34:03Z</time>
      </trkpt>
      <trkpt lat="41.341895" lon="-8.739305">
        <ele>67.0</ele>
        <time>2019-07-05T18:34:05Z</time>
      </trkpt>
      <trkpt lat="41.341885" lon="-8.739451666666668">
        <ele>67.0</ele>
        <time>2019-07-05T18:34:07Z</time>
      </trkpt>
      <trkpt lat="41.341885" lon="-8.739603333333333">
        <ele>66.0</ele>
        <time>2019-07-05T18:34:09Z</time>
      </trkpt>
      <trkpt lat="41.34188" lon="-8.739725">
        <ele>66.0</ele>
        <time>2019-07-05T18:34:11Z</time>
      </trkpt>
      <trkpt lat="41.341876666666664" lon="-8.739835">
        <ele>65.0</ele>
        <time>2019-07-05T18:34:13Z</time>
      </trkpt>
      <trkpt lat="41.3419" lon="-8.73996">
        <ele>65.0</ele>
        <time>2019-07-05T18:34:16Z</time>
      </trkpt>
      <trkpt lat="41.34193166666667" lon="-8.74005">
        <ele>66.0</ele>
        <time>2019-07-05T18:34:18Z</time>
      </trkpt>
      <trkpt lat="41.34196333333333" lon="-8.740185">
        <ele>66.0</ele>
        <time>2019-07-05T18:34:21Z</time>
      </trkpt>
      <trkpt lat="41.34199" lon="-8.74028">
        <ele>67.0</ele>
        <time>2019-07-05T18:34:23Z</time>
      </trkpt>
      <trkpt lat="41.342018333333336" lon="-8.74038">
        <ele>67.0</ele>
        <time>2019-07-05T18:34:25Z</time>
      </trkpt>
      <trkpt lat="41.342061666666666" lon="-8.74049">
        <ele>67.0</ele>
        <time>2019-07-05T18:34:27Z</time>
      </trkpt>
      <trkpt lat="41.34212" lon="-8.740595">
        <ele>66.0</ele>
        <time>2019-07-05T18:34:29Z</time>
      </trkpt>
      <trkpt lat="41.3422" lon="-8.740681666666667">
        <ele>67.0</ele>
        <time>2019-07-05T18:34:31Z</time>
      </trkpt>
      <trkpt lat="41.34229166666667" lon="-8.74076">
        <ele>66.0</ele>
        <time>2019-07-05T18:34:33Z</time>
      </trkpt>
      <trkpt lat="41.34238166666667" lon="-8.740826666666667">
        <ele>66.0</ele>
        <time>2019-07-05T18:34:35Z</time>
      </trkpt>
      <trkpt lat="41.342461666666665" lon="-8.740905">
        <ele>66.0</ele>
        <time>2019-07-05T18:34:37Z</time>
      </trkpt>
      <trkpt lat="41.34254" lon="-8.74097">
        <ele>66.0</ele>
        <time>2019-07-05T18:34:39Z</time>
      </trkpt>
      <trkpt lat="41.342635" lon="-8.741035">
        <ele>66.0</ele>
        <time>2019-07-05T18:34:41Z</time>
      </trkpt>
      <trkpt lat="41.34275" lon="-8.741098333333333">
        <ele>64.0</ele>
        <time>2019-07-05T18:34:43Z</time>
      </trkpt>
      <trkpt lat="41.34289166666667" lon="-8.741135">
        <ele>62.0</ele>
        <time>2019-07-05T18:34:45Z</time>
      </trkpt>
      <trkpt lat="41.342971666666664" lon="-8.741135">
        <ele>61.0</ele>
        <time>2019-07-05T18:34:46Z</time>
      </trkpt>
      <trkpt lat="41.343055" lon="-8.74113">
        <ele>61.0</ele>
        <time>2019-07-05T18:34:47Z</time>
      </trkpt>
      <trkpt lat="41.34314166666667" lon="-8.741121666666666">
        <ele>60.0</ele>
        <time>2019-07-05T18:34:48Z</time>
      </trkpt>
      <trkpt lat="41.343225" lon="-8.74112">
        <ele>60.0</ele>
        <time>2019-07-05T18:34:49Z</time>
      </trkpt>
      <trkpt lat="41.343305" lon="-8.74112">
        <ele>60.0</ele>
        <time>2019-07-05T18:34:50Z</time>
      </trkpt>
      <trkpt lat="41.34339" lon="-8.741115">
        <ele>60.0</ele>
        <time>2019-07-05T18:34:51Z</time>
      </trkpt>
      <trkpt lat="41.34347" lon="-8.741111666666667">
        <ele>59.0</ele>
        <time>2019-07-05T18:34:52Z</time>
      </trkpt>
      <trkpt lat="41.34355166666667" lon="-8.741115">
        <ele>60.0</ele>
        <time>2019-07-05T18:34:53Z</time>
      </trkpt>
      <trkpt lat="41.343635" lon="-8.741111666666667">
        <ele>59.0</ele>
        <time>2019-07-05T18:34:54Z</time>
      </trkpt>
      <trkpt lat="41.343715" lon="-8.74111">
        <ele>59.0</ele>
        <time>2019-07-05T18:34:55Z</time>
      </trkpt>
      <trkpt lat="41.34379" lon="-8.74111">
        <ele>59.0</ele>
        <time>2019-07-05T18:34:56Z</time>
      </trkpt>
      <trkpt lat="41.34387" lon="-8.741105">
        <ele>60.0</ele>
        <time>2019-07-05T18:34:57Z</time>
      </trkpt>
      <trkpt lat="41.343941666666666" lon="-8.741105">
        <ele>59.0</ele>
        <time>2019-07-05T18:34:58Z</time>
      </trkpt>
      <trkpt lat="41.344085" lon="-8.74109">
        <ele>60.0</ele>
        <time>2019-07-05T18:35:00Z</time>
      </trkpt>
      <trkpt lat="41.34422" lon="-8.74108">
        <ele>61.0</ele>
        <time>2019-07-05T18:35:02Z</time>
      </trkpt>
      <trkpt lat="41.34434666666667" lon="-8.74106">
        <ele>62.0</ele>
        <time>2019-07-05T18:35:04Z</time>
      </trkpt>
      <trkpt lat="41.344455" lon="-8.74098">
        <ele>62.0</ele>
        <time>2019-07-05T18:35:06Z</time>
      </trkpt>
      <trkpt lat="41.34452666666667" lon="-8.740841666666666">
        <ele>63.0</ele>
        <time>2019-07-05T18:35:08Z</time>
      </trkpt>
      <trkpt lat="41.344585" lon="-8.74071">
        <ele>63.0</ele>
        <time>2019-07-05T18:35:10Z</time>
      </trkpt>
      <trkpt lat="41.34465" lon="-8.740605">
        <ele>64.0</ele>
        <time>2019-07-05T18:35:12Z</time>
      </trkpt>
      <trkpt lat="41.34472" lon="-8.74051">
        <ele>64.0</ele>
        <time>2019-07-05T18:35:14Z</time>
      </trkpt>
      <trkpt lat="41.34479" lon="-8.74042">
        <ele>64.0</ele>
        <time>2019-07-05T18:35:16Z</time>
      </trkpt>
      <trkpt lat="41.344865" lon="-8.74034">
        <ele>64.0</ele>
        <time>2019-07-05T18:35:18Z</time>
      </trkpt>
      <trkpt lat="41.34493666666667" lon="-8.740285">
        <ele>64.0</ele>
        <time>2019-07-05T18:35:20Z</time>
      </trkpt>
      <trkpt lat="41.345015" lon="-8.74029">
        <ele>64.0</ele>
        <time>2019-07-05T18:35:22Z</time>
      </trkpt>
      <trkpt lat="41.345095" lon="-8.740346666666667">
        <ele>64.0</ele>
        <time>2019-07-05T18:35:24Z</time>
      </trkpt>
      <trkpt lat="41.34520166666667" lon="-8.740375">
        <ele>63.0</ele>
        <time>2019-07-05T18:35:26Z</time>
      </trkpt>
      <trkpt lat="41.34531666666667" lon="-8.740385">
        <ele>63.0</ele>
        <time>2019-07-05T18:35:28Z</time>
      </trkpt>
      <trkpt lat="41.345438333333334" lon="-8.740405">
        <ele>63.0</ele>
        <time>2019-07-05T18:35:30Z</time>
      </trkpt>
      <trkpt lat="41.34556166666667" lon="-8.740415">
        <ele>63.0</ele>
        <time>2019-07-05T18:35:32Z</time>
      </trkpt>
      <trkpt lat="41.345686666666666" lon="-8.740435">
        <ele>63.0</ele>
        <time>2019-07-05T18:35:34Z</time>
      </trkpt>
      <trkpt lat="41.34581166666667" lon="-8.74044">
        <ele>63.0</ele>
        <time>2019-07-05T18:35:36Z</time>
      </trkpt>
      <trkpt lat="41.345935" lon="-8.74045">
        <ele>63.0</ele>
        <time>2019-07-05T18:35:38Z</time>
      </trkpt>
      <trkpt lat="41.346043333333334" lon="-8.74045">
        <ele>63.0</ele>
        <time>2019-07-05T18:35:40Z</time>
      </trkpt>
      <trkpt lat="41.34615" lon="-8.74046">
        <ele>63.0</ele>
        <time>2019-07-05T18:35:42Z</time>
      </trkpt>
      <trkpt lat="41.346265" lon="-8.74047">
        <ele>62.0</ele>
        <time>2019-07-05T18:35:44Z</time>
      </trkpt>
      <trkpt lat="41.346385" lon="-8.74049">
        <ele>62.0</ele>
        <time>2019-07-05T18:35:46Z</time>
      </trkpt>
      <trkpt lat="41.34650666666667" lon="-8.7405">
        <ele>62.0</ele>
        <time>2019-07-05T18:35:48Z</time>
      </trkpt>
      <trkpt lat="41.34663" lon="-8.7405">
        <ele>61.0</ele>
        <time>2019-07-05T18:35:50Z</time>
      </trkpt>
      <trkpt lat="41.346756666666664" lon="-8.7405">
        <ele>61.0</ele>
        <time>2019-07-05T18:35:52Z</time>
      </trkpt>
      <trkpt lat="41.34688" lon="-8.74051">
        <ele>61.0</ele>
        <time>2019-07-05T18:35:54Z</time>
      </trkpt>
      <trkpt lat="41.34701" lon="-8.740521666666666">
        <ele>61.0</ele>
        <time>2019-07-05T18:35:56Z</time>
      </trkpt>
      <trkpt lat="41.347135" lon="-8.740525">
        <ele>61.0</ele>
        <time>2019-07-05T18:35:58Z</time>
      </trkpt>
      <trkpt lat="41.347265" lon="-8.74053">
        <ele>61.0</ele>
        <time>2019-07-05T18:36:00Z</time>
      </trkpt>
      <trkpt lat="41.34739" lon="-8.740535">
        <ele>61.0</ele>
        <time>2019-07-05T18:36:02Z</time>
      </trkpt>
      <trkpt lat="41.347515" lon="-8.740545">
        <ele>61.0</ele>
        <time>2019-07-05T18:36:04Z</time>
      </trkpt>
      <trkpt lat="41.34764" lon="-8.740551666666667">
        <ele>61.0</ele>
        <time>2019-07-05T18:36:06Z</time>
      </trkpt>
      <trkpt lat="41.34777" lon="-8.740551666666667">
        <ele>61.0</ele>
        <time>2019-07-05T18:36:08Z</time>
      </trkpt>
      <trkpt lat="41.347895" lon="-8.74056">
        <ele>61.0</ele>
        <time>2019-07-05T18:36:10Z</time>
      </trkpt>
      <trkpt lat="41.348025" lon="-8.74057">
        <ele>61.0</ele>
        <time>2019-07-05T18:36:12Z</time>
      </trkpt>
      <trkpt lat="41.348151666666666" lon="-8.74058">
        <ele>61.0</ele>
        <time>2019-07-05T18:36:14Z</time>
      </trkpt>
      <trkpt lat="41.34828" lon="-8.740581666666667">
        <ele>61.0</ele>
        <time>2019-07-05T18:36:16Z</time>
      </trkpt>
      <trkpt lat="41.34841" lon="-8.740585">
        <ele>61.0</ele>
        <time>2019-07-05T18:36:18Z</time>
      </trkpt>
      <trkpt lat="41.348531666666666" lon="-8.74058">
        <ele>61.0</ele>
        <time>2019-07-05T18:36:20Z</time>
      </trkpt>
      <trkpt lat="41.348655" lon="-8.740546666666667">
        <ele>60.0</ele>
        <time>2019-07-05T18:36:22Z</time>
      </trkpt>
      <trkpt lat="41.34876666666667" lon="-8.740493333333333">
        <ele>60.0</ele>
        <time>2019-07-05T18:36:24Z</time>
      </trkpt>
      <trkpt lat="41.348875" lon="-8.740436666666668">
        <ele>60.0</ele>
        <time>2019-07-05T18:36:26Z</time>
      </trkpt>
      <trkpt lat="41.34898" lon="-8.740381666666666">
        <ele>60.0</ele>
        <time>2019-07-05T18:36:28Z</time>
      </trkpt>
      <trkpt lat="41.349075" lon="-8.740321666666667">
        <ele>60.0</ele>
        <time>2019-07-05T18:36:30Z</time>
      </trkpt>
      <trkpt lat="41.34917" lon="-8.740255">
        <ele>60.0</ele>
        <time>2019-07-05T18:36:32Z</time>
      </trkpt>
      <trkpt lat="41.34926" lon="-8.74019">
        <ele>60.0</ele>
        <time>2019-07-05T18:36:34Z</time>
      </trkpt>
      <trkpt lat="41.34935" lon="-8.74013">
        <ele>61.0</ele>
        <time>2019-07-05T18:36:36Z</time>
      </trkpt>
      <trkpt lat="41.349441666666664" lon="-8.740075">
        <ele>61.0</ele>
        <time>2019-07-05T18:36:38Z</time>
      </trkpt>
      <trkpt lat="41.349531666666664" lon="-8.740025">
        <ele>61.0</ele>
        <time>2019-07-05T18:36:40Z</time>
      </trkpt>
      <trkpt lat="41.34961166666667" lon="-8.739981666666667">
        <ele>61.0</ele>
        <time>2019-07-05T18:36:42Z</time>
      </trkpt>
      <trkpt lat="41.349705" lon="-8.73992">
        <ele>61.0</ele>
        <time>2019-07-05T18:36:44Z</time>
      </trkpt>
      <trkpt lat="41.34978666666667" lon="-8.739905">
        <ele>62.0</ele>
        <time>2019-07-05T18:36:46Z</time>
      </trkpt>
      <trkpt lat="41.34986166666667" lon="-8.73986">
        <ele>61.0</ele>
        <time>2019-07-05T18:36:48Z</time>
      </trkpt>
      <trkpt lat="41.349935" lon="-8.739765">
        <ele>61.0</ele>
        <time>2019-07-05T18:36:51Z</time>
      </trkpt>
      <trkpt lat="41.350025" lon="-8.73969">
        <ele>65.0</ele>
        <time>2019-07-05T18:36:55Z</time>
      </trkpt>
      <trkpt lat="41.35008" lon="-8.73958">
        <ele>64.0</ele>
        <time>2019-07-05T18:36:58Z</time>
      </trkpt>
      <trkpt lat="41.350135" lon="-8.739485">
        <ele>65.0</ele>
        <time>2019-07-05T18:37:01Z</time>
      </trkpt>
      <trkpt lat="41.3502" lon="-8.739386666666666">
        <ele>64.0</ele>
        <time>2019-07-05T18:37:04Z</time>
      </trkpt>
      <trkpt lat="41.35026" lon="-8.739265">
        <ele>64.0</ele>
        <time>2019-07-05T18:37:07Z</time>
      </trkpt>
      <trkpt lat="41.350295" lon="-8.73915">
        <ele>65.0</ele>
        <time>2019-07-05T18:37:10Z</time>
      </trkpt>
      <trkpt lat="41.350325" lon="-8.739056666666666">
        <ele>65.0</ele>
        <time>2019-07-05T18:37:13Z</time>
      </trkpt>
      <trkpt lat="41.350415" lon="-8.739085">
        <ele>67.0</ele>
        <time>2019-07-05T18:37:19Z</time>
      </trkpt>
      <trkpt lat="41.350501666666666" lon="-8.73914">
        <ele>66.0</ele>
        <time>2019-07-05T18:37:22Z</time>
      </trkpt>
      <trkpt lat="41.350575" lon="-8.739176666666667">
        <ele>66.0</ele>
        <time>2019-07-05T18:37:24Z</time>
      </trkpt>
      <trkpt lat="41.350651666666664" lon="-8.739215">
        <ele>65.0</ele>
        <time>2019-07-05T18:37:26Z</time>
      </trkpt>
      <trkpt lat="41.350725" lon="-8.73925">
        <ele>64.0</ele>
        <time>2019-07-05T18:37:28Z</time>
      </trkpt>
      <trkpt lat="41.3508" lon="-8.739283333333333">
        <ele>64.0</ele>
        <time>2019-07-05T18:37:30Z</time>
      </trkpt>
      <trkpt lat="41.350875" lon="-8.739321666666667">
        <ele>64.0</ele>
        <time>2019-07-05T18:37:32Z</time>
      </trkpt>
      <trkpt lat="41.350945" lon="-8.739361666666667">
        <ele>64.0</ele>
        <time>2019-07-05T18:37:34Z</time>
      </trkpt>
      <trkpt lat="41.35102" lon="-8.739396666666666">
        <ele>64.0</ele>
        <time>2019-07-05T18:37:36Z</time>
      </trkpt>
      <trkpt lat="41.351095" lon="-8.739435">
        <ele>64.0</ele>
        <time>2019-07-05T18:37:38Z</time>
      </trkpt>
      <trkpt lat="41.35117666666667" lon="-8.739468333333333">
        <ele>64.0</ele>
        <time>2019-07-05T18:37:40Z</time>
      </trkpt>
      <trkpt lat="41.35126" lon="-8.739508333333333">
        <ele>64.0</ele>
        <time>2019-07-05T18:37:42Z</time>
      </trkpt>
      <trkpt lat="41.351335" lon="-8.739555">
        <ele>64.0</ele>
        <time>2019-07-05T18:37:44Z</time>
      </trkpt>
      <trkpt lat="41.351415" lon="-8.739595">
        <ele>64.0</ele>
        <time>2019-07-05T18:37:46Z</time>
      </trkpt>
      <trkpt lat="41.351495" lon="-8.739631666666666">
        <ele>64.0</ele>
        <time>2019-07-05T18:37:48Z</time>
      </trkpt>
      <trkpt lat="41.351573333333334" lon="-8.73967">
        <ele>64.0</ele>
        <time>2019-07-05T18:37:50Z</time>
      </trkpt>
      <trkpt lat="41.35165" lon="-8.73971">
        <ele>64.0</ele>
        <time>2019-07-05T18:37:52Z</time>
      </trkpt>
      <trkpt lat="41.351726666666664" lon="-8.73975">
        <ele>63.0</ele>
        <time>2019-07-05T18:37:54Z</time>
      </trkpt>
      <trkpt lat="41.351805" lon="-8.739785">
        <ele>63.0</ele>
        <time>2019-07-05T18:37:56Z</time>
      </trkpt>
      <trkpt lat="41.35188" lon="-8.739821666666666">
        <ele>62.0</ele>
        <time>2019-07-05T18:37:58Z</time>
      </trkpt>
      <trkpt lat="41.351865" lon="-8.73989">
        <ele>62.0</ele>
        <time>2019-07-05T18:38:05Z</time>
      </trkpt>
      <trkpt lat="41.351825" lon="-8.73997">
        <ele>62.0</ele>
        <time>2019-07-05T18:38:10Z</time>
      </trkpt>
      <trkpt lat="41.35173666666667" lon="-8.740018333333333">
        <ele>61.0</ele>
        <time>2019-07-05T18:38:15Z</time>
      </trkpt>
      <trkpt lat="41.351655" lon="-8.740111666666667">
        <ele>61.0</ele>
        <time>2019-07-05T18:38:18Z</time>
      </trkpt>
      <trkpt lat="41.35161" lon="-8.740225">
        <ele>61.0</ele>
        <time>2019-07-05T18:38:20Z</time>
      </trkpt>
      <trkpt lat="41.351571666666665" lon="-8.740335">
        <ele>60.0</ele>
        <time>2019-07-05T18:38:22Z</time>
      </trkpt>
      <trkpt lat="41.351545" lon="-8.740445">
        <ele>60.0</ele>
        <time>2019-07-05T18:38:24Z</time>
      </trkpt>
      <trkpt lat="41.351505" lon="-8.740545">
        <ele>61.0</ele>
        <time>2019-07-05T18:38:26Z</time>
      </trkpt>
      <trkpt lat="41.35145" lon="-8.740635">
        <ele>62.0</ele>
        <time>2019-07-05T18:38:29Z</time>
      </trkpt>
      <trkpt lat="41.35136" lon="-8.740666666666666">
        <ele>62.0</ele>
        <time>2019-07-05T18:38:33Z</time>
      </trkpt>
      <trkpt lat="41.35134" lon="-8.74081">
        <ele>60.0</ele>
        <time>2019-07-05T18:38:35Z</time>
      </trkpt>
      <trkpt lat="41.35132" lon="-8.740926666666667">
        <ele>60.0</ele>
        <time>2019-07-05T18:38:37Z</time>
      </trkpt>
      <trkpt lat="41.351275" lon="-8.74105">
        <ele>60.0</ele>
        <time>2019-07-05T18:38:39Z</time>
      </trkpt>
      <trkpt lat="41.35125" lon="-8.74117">
        <ele>59.0</ele>
        <time>2019-07-05T18:38:41Z</time>
      </trkpt>
      <trkpt lat="41.35122" lon="-8.741276666666666">
        <ele>58.0</ele>
        <time>2019-07-05T18:38:43Z</time>
      </trkpt>
      <trkpt lat="41.35119" lon="-8.74137">
        <ele>58.0</ele>
        <time>2019-07-05T18:38:45Z</time>
      </trkpt>
      <trkpt lat="41.351101666666665" lon="-8.741426666666667">
        <ele>59.0</ele>
        <time>2019-07-05T18:38:48Z</time>
      </trkpt>
      <trkpt lat="41.351015" lon="-8.7415">
        <ele>59.0</ele>
        <time>2019-07-05T18:38:51Z</time>
      </trkpt>
      <trkpt lat="41.350955" lon="-8.741573333333333">
        <ele>59.0</ele>
        <time>2019-07-05T18:38:53Z</time>
      </trkpt>
      <trkpt lat="41.350901666666665" lon="-8.7417">
        <ele>62.0</ele>
        <time>2019-07-05T18:38:56Z</time>
      </trkpt>
      <trkpt lat="41.350875" lon="-8.74182">
        <ele>62.0</ele>
        <time>2019-07-05T18:38:58Z</time>
      </trkpt>
      <trkpt lat="41.350856666666665" lon="-8.741935">
        <ele>61.0</ele>
        <time>2019-07-05T18:39:00Z</time>
      </trkpt>
      <trkpt lat="41.350825" lon="-8.74207">
        <ele>62.0</ele>
        <time>2019-07-05T18:39:03Z</time>
      </trkpt>
      <trkpt lat="41.35082666666667" lon="-8.74219">
        <ele>62.0</ele>
        <time>2019-07-05T18:39:05Z</time>
      </trkpt>
      <trkpt lat="41.350785" lon="-8.74228">
        <ele>62.0</ele>
        <time>2019-07-05T18:39:07Z</time>
      </trkpt>
      <trkpt lat="41.350735" lon="-8.742365">
        <ele>61.0</ele>
        <time>2019-07-05T18:39:09Z</time>
      </trkpt>
      <trkpt lat="41.350675" lon="-8.742485">
        <ele>61.0</ele>
        <time>2019-07-05T18:39:12Z</time>
      </trkpt>
      <trkpt lat="41.35063" lon="-8.742565">
        <ele>61.0</ele>
        <time>2019-07-05T18:39:14Z</time>
      </trkpt>
      <trkpt lat="41.350586666666665" lon="-8.74265">
        <ele>60.0</ele>
        <time>2019-07-05T18:39:16Z</time>
      </trkpt>
      <trkpt lat="41.350535" lon="-8.742735">
        <ele>60.0</ele>
        <time>2019-07-05T18:39:18Z</time>
      </trkpt>
      <trkpt lat="41.35047" lon="-8.742811666666666">
        <ele>60.0</ele>
        <time>2019-07-05T18:39:20Z</time>
      </trkpt>
      <trkpt lat="41.350425" lon="-8.742915">
        <ele>60.0</ele>
        <time>2019-07-05T18:39:22Z</time>
      </trkpt>
      <trkpt lat="41.35038" lon="-8.743025">
        <ele>60.0</ele>
        <time>2019-07-05T18:39:24Z</time>
      </trkpt>
      <trkpt lat="41.350335" lon="-8.743135">
        <ele>59.0</ele>
        <time>2019-07-05T18:39:26Z</time>
      </trkpt>
      <trkpt lat="41.35028166666667" lon="-8.74325">
        <ele>59.0</ele>
        <time>2019-07-05T18:39:28Z</time>
      </trkpt>
      <trkpt lat="41.350231666666666" lon="-8.74337">
        <ele>59.0</ele>
        <time>2019-07-05T18:39:30Z</time>
      </trkpt>
      <trkpt lat="41.35017166666667" lon="-8.743475">
        <ele>59.0</ele>
        <time>2019-07-05T18:39:32Z</time>
      </trkpt>
      <trkpt lat="41.350095" lon="-8.743541666666667">
        <ele>59.0</ele>
        <time>2019-07-05T18:39:34Z</time>
      </trkpt>
      <trkpt lat="41.35001" lon="-8.743601666666667">
        <ele>59.0</ele>
        <time>2019-07-05T18:39:36Z</time>
      </trkpt>
      <trkpt lat="41.349915" lon="-8.743636666666667">
        <ele>58.0</ele>
        <time>2019-07-05T18:39:38Z</time>
      </trkpt>
      <trkpt lat="41.34982" lon="-8.74363">
        <ele>58.0</ele>
        <time>2019-07-05T18:39:40Z</time>
      </trkpt>
      <trkpt lat="41.349725" lon="-8.743605">
        <ele>59.0</ele>
        <time>2019-07-05T18:39:42Z</time>
      </trkpt>
      <trkpt lat="41.34963166666667" lon="-8.74358">
        <ele>59.0</ele>
        <time>2019-07-05T18:39:44Z</time>
      </trkpt>
      <trkpt lat="41.349545" lon="-8.743546666666667">
        <ele>59.0</ele>
        <time>2019-07-05T18:39:46Z</time>
      </trkpt>
      <trkpt lat="41.349455" lon="-8.743535">
        <ele>59.0</ele>
        <time>2019-07-05T18:39:48Z</time>
      </trkpt>
      <trkpt lat="41.349375" lon="-8.74351">
        <ele>59.0</ele>
        <time>2019-07-05T18:39:50Z</time>
      </trkpt>
      <trkpt lat="41.3493" lon="-8.74352">
        <ele>58.0</ele>
        <time>2019-07-05T18:39:52Z</time>
      </trkpt>
      <trkpt lat="41.349235" lon="-8.74357">
        <ele>58.0</ele>
        <time>2019-07-05T18:39:54Z</time>
      </trkpt>
      <trkpt lat="41.34917" lon="-8.743635">
        <ele>58.0</ele>
        <time>2019-07-05T18:39:56Z</time>
      </trkpt>
      <trkpt lat="41.34909" lon="-8.74369">
        <ele>58.0</ele>
        <time>2019-07-05T18:39:58Z</time>
      </trkpt>
      <trkpt lat="41.349005" lon="-8.743755">
        <ele>59.0</ele>
        <time>2019-07-05T18:40:00Z</time>
      </trkpt>
      <trkpt lat="41.348911666666666" lon="-8.743815">
        <ele>59.0</ele>
        <time>2019-07-05T18:40:03Z</time>
      </trkpt>
      <trkpt lat="41.34883" lon="-8.743891666666666">
        <ele>58.0</ele>
        <time>2019-07-05T18:40:05Z</time>
      </trkpt>
      <trkpt lat="41.348745" lon="-8.743965">
        <ele>58.0</ele>
        <time>2019-07-05T18:40:07Z</time>
      </trkpt>
      <trkpt lat="41.34866" lon="-8.74401">
        <ele>58.0</ele>
        <time>2019-07-05T18:40:09Z</time>
      </trkpt>
      <trkpt lat="41.34858666666667" lon="-8.744045">
        <ele>58.0</ele>
        <time>2019-07-05T18:40:11Z</time>
      </trkpt>
      <trkpt lat="41.348515" lon="-8.744101666666667">
        <ele>57.0</ele>
        <time>2019-07-05T18:40:13Z</time>
      </trkpt>
      <trkpt lat="41.34843166666667" lon="-8.744165">
        <ele>57.0</ele>
        <time>2019-07-05T18:40:15Z</time>
      </trkpt>
      <trkpt lat="41.348355" lon="-8.744231666666666">
        <ele>57.0</ele>
        <time>2019-07-05T18:40:17Z</time>
      </trkpt>
      <trkpt lat="41.34828" lon="-8.74428">
        <ele>57.0</ele>
        <time>2019-07-05T18:40:19Z</time>
      </trkpt>
      <trkpt lat="41.348205" lon="-8.744325">
        <ele>56.0</ele>
        <time>2019-07-05T18:40:21Z</time>
      </trkpt>
      <trkpt lat="41.348126666666666" lon="-8.74437">
        <ele>56.0</ele>
        <time>2019-07-05T18:40:23Z</time>
      </trkpt>
      <trkpt lat="41.348055" lon="-8.74443">
        <ele>57.0</ele>
        <time>2019-07-05T18:40:25Z</time>
      </trkpt>
      <trkpt lat="41.347975" lon="-8.744486666666667">
        <ele>57.0</ele>
        <time>2019-07-05T18:40:27Z</time>
      </trkpt>
      <trkpt lat="41.34789166666667" lon="-8.744545">
        <ele>57.0</ele>
        <time>2019-07-05T18:40:29Z</time>
      </trkpt>
      <trkpt lat="41.347815" lon="-8.74462">
        <ele>57.0</ele>
        <time>2019-07-05T18:40:31Z</time>
      </trkpt>
      <trkpt lat="41.347725" lon="-8.744675">
        <ele>57.0</ele>
        <time>2019-07-05T18:40:33Z</time>
      </trkpt>
      <trkpt lat="41.347645" lon="-8.744725">
        <ele>57.0</ele>
        <time>2019-07-05T18:40:35Z</time>
      </trkpt>
      <trkpt lat="41.347561666666664" lon="-8.74479">
        <ele>57.0</ele>
        <time>2019-07-05T18:40:37Z</time>
      </trkpt>
      <trkpt lat="41.347476666666665" lon="-8.744846666666668">
        <ele>57.0</ele>
        <time>2019-07-05T18:40:39Z</time>
      </trkpt>
      <trkpt lat="41.3474" lon="-8.744908333333333">
        <ele>57.0</ele>
        <time>2019-07-05T18:40:41Z</time>
      </trkpt>
      <trkpt lat="41.34731" lon="-8.744941666666668">
        <ele>58.0</ele>
        <time>2019-07-05T18:40:43Z</time>
      </trkpt>
      <trkpt lat="41.347225" lon="-8.744975">
        <ele>58.0</ele>
        <time>2019-07-05T18:40:45Z</time>
      </trkpt>
      <trkpt lat="41.34715" lon="-8.74503">
        <ele>58.0</ele>
        <time>2019-07-05T18:40:47Z</time>
      </trkpt>
      <trkpt lat="41.34705666666667" lon="-8.745056666666667">
        <ele>58.0</ele>
        <time>2019-07-05T18:40:49Z</time>
      </trkpt>
      <trkpt lat="41.34697" lon="-8.74507">
        <ele>58.0</ele>
        <time>2019-07-05T18:40:51Z</time>
      </trkpt>
      <trkpt lat="41.34686166666667" lon="-8.74508">
        <ele>57.0</ele>
        <time>2019-07-05T18:40:53Z</time>
      </trkpt>
      <trkpt lat="41.34676" lon="-8.745095">
        <ele>57.0</ele>
        <time>2019-07-05T18:40:55Z</time>
      </trkpt>
      <trkpt lat="41.346655" lon="-8.74511">
        <ele>57.0</ele>
        <time>2019-07-05T18:40:57Z</time>
      </trkpt>
      <trkpt lat="41.34655" lon="-8.745125">
        <ele>57.0</ele>
        <time>2019-07-05T18:40:59Z</time>
      </trkpt>
      <trkpt lat="41.346445" lon="-8.745133333333333">
        <ele>57.0</ele>
        <time>2019-07-05T18:41:01Z</time>
      </trkpt>
      <trkpt lat="41.346345" lon="-8.745165">
        <ele>57.0</ele>
        <time>2019-07-05T18:41:03Z</time>
      </trkpt>
      <trkpt lat="41.34624" lon="-8.745195">
        <ele>57.0</ele>
        <time>2019-07-05T18:41:05Z</time>
      </trkpt>
      <trkpt lat="41.346135" lon="-8.745215">
        <ele>57.0</ele>
        <time>2019-07-05T18:41:07Z</time>
      </trkpt>
      <trkpt lat="41.34603" lon="-8.74524">
        <ele>57.0</ele>
        <time>2019-07-05T18:41:09Z</time>
      </trkpt>
      <trkpt lat="41.34593" lon="-8.745255">
        <ele>56.0</ele>
        <time>2019-07-05T18:41:11Z</time>
      </trkpt>
      <trkpt lat="41.345821666666666" lon="-8.745266666666666">
        <ele>56.0</ele>
        <time>2019-07-05T18:41:13Z</time>
      </trkpt>
      <trkpt lat="41.345711666666666" lon="-8.745285">
        <ele>56.0</ele>
        <time>2019-07-05T18:41:15Z</time>
      </trkpt>
      <trkpt lat="41.345605" lon="-8.745305">
        <ele>57.0</ele>
        <time>2019-07-05T18:41:17Z</time>
      </trkpt>
      <trkpt lat="41.34549" lon="-8.745321666666667">
        <ele>58.0</ele>
        <time>2019-07-05T18:41:19Z</time>
      </trkpt>
      <trkpt lat="41.34538" lon="-8.74534">
        <ele>58.0</ele>
        <time>2019-07-05T18:41:21Z</time>
      </trkpt>
      <trkpt lat="41.345275" lon="-8.745365">
        <ele>57.0</ele>
        <time>2019-07-05T18:41:23Z</time>
      </trkpt>
      <trkpt lat="41.34517" lon="-8.74538">
        <ele>57.0</ele>
        <time>2019-07-05T18:41:25Z</time>
      </trkpt>
      <trkpt lat="41.345058333333334" lon="-8.745395">
        <ele>58.0</ele>
        <time>2019-07-05T18:41:27Z</time>
      </trkpt>
      <trkpt lat="41.34495666666667" lon="-8.745406666666666">
        <ele>58.0</ele>
        <time>2019-07-05T18:41:29Z</time>
      </trkpt>
      <trkpt lat="41.344855" lon="-8.745421666666667">
        <ele>57.0</ele>
        <time>2019-07-05T18:41:31Z</time>
      </trkpt>
      <trkpt lat="41.344755" lon="-8.745436666666667">
        <ele>58.0</ele>
        <time>2019-07-05T18:41:33Z</time>
      </trkpt>
      <trkpt lat="41.34464666666667" lon="-8.745441666666666">
        <ele>58.0</ele>
        <time>2019-07-05T18:41:35Z</time>
      </trkpt>
      <trkpt lat="41.344545" lon="-8.745465">
        <ele>58.0</ele>
        <time>2019-07-05T18:41:37Z</time>
      </trkpt>
      <trkpt lat="41.344435" lon="-8.745491666666666">
        <ele>58.0</ele>
        <time>2019-07-05T18:41:39Z</time>
      </trkpt>
      <trkpt lat="41.344335" lon="-8.745505">
        <ele>59.0</ele>
        <time>2019-07-05T18:41:41Z</time>
      </trkpt>
      <trkpt lat="41.344245" lon="-8.745525">
        <ele>58.0</ele>
        <time>2019-07-05T18:41:43Z</time>
      </trkpt>
      <trkpt lat="41.344165" lon="-8.745536666666666">
        <ele>59.0</ele>
        <time>2019-07-05T18:41:45Z</time>
      </trkpt>
      <trkpt lat="41.344073333333334" lon="-8.74556">
        <ele>58.0</ele>
        <time>2019-07-05T18:41:47Z</time>
      </trkpt>
      <trkpt lat="41.343985" lon="-8.74558">
        <ele>58.0</ele>
        <time>2019-07-05T18:41:49Z</time>
      </trkpt>
      <trkpt lat="41.34388666666667" lon="-8.74559">
        <ele>59.0</ele>
        <time>2019-07-05T18:41:51Z</time>
      </trkpt>
      <trkpt lat="41.34379" lon="-8.745601666666667">
        <ele>59.0</ele>
        <time>2019-07-05T18:41:53Z</time>
      </trkpt>
      <trkpt lat="41.343691666666665" lon="-8.745615">
        <ele>59.0</ele>
        <time>2019-07-05T18:41:55Z</time>
      </trkpt>
      <trkpt lat="41.3436" lon="-8.74564">
        <ele>59.0</ele>
        <time>2019-07-05T18:41:57Z</time>
      </trkpt>
      <trkpt lat="41.34351" lon="-8.745675">
        <ele>59.0</ele>
        <time>2019-07-05T18:41:59Z</time>
      </trkpt>
      <trkpt lat="41.343415" lon="-8.745725">
        <ele>59.0</ele>
        <time>2019-07-05T18:42:01Z</time>
      </trkpt>
      <trkpt lat="41.343325" lon="-8.74577">
        <ele>59.0</ele>
        <time>2019-07-05T18:42:03Z</time>
      </trkpt>
      <trkpt lat="41.343235" lon="-8.745836666666667">
        <ele>59.0</ele>
        <time>2019-07-05T18:42:05Z</time>
      </trkpt>
      <trkpt lat="41.343145" lon="-8.74591">
        <ele>59.0</ele>
        <time>2019-07-05T18:42:07Z</time>
      </trkpt>
      <trkpt lat="41.34306" lon="-8.74598">
        <ele>60.0</ele>
        <time>2019-07-05T18:42:09Z</time>
      </trkpt>
      <trkpt lat="41.34298" lon="-8.746065">
        <ele>60.0</ele>
        <time>2019-07-05T18:42:11Z</time>
      </trkpt>
      <trkpt lat="41.3429" lon="-8.746146666666666">
        <ele>59.0</ele>
        <time>2019-07-05T18:42:13Z</time>
      </trkpt>
      <trkpt lat="41.342821666666666" lon="-8.74624">
        <ele>60.0</ele>
        <time>2019-07-05T18:42:15Z</time>
      </trkpt>
      <trkpt lat="41.34275" lon="-8.74634">
        <ele>59.0</ele>
        <time>2019-07-05T18:42:17Z</time>
      </trkpt>
      <trkpt lat="41.34268" lon="-8.746445">
        <ele>59.0</ele>
        <time>2019-07-05T18:42:19Z</time>
      </trkpt>
      <trkpt lat="41.342615" lon="-8.74656">
        <ele>59.0</ele>
        <time>2019-07-05T18:42:21Z</time>
      </trkpt>
      <trkpt lat="41.342553333333335" lon="-8.746686666666667">
        <ele>58.0</ele>
        <time>2019-07-05T18:42:23Z</time>
      </trkpt>
      <trkpt lat="41.342501666666664" lon="-8.74681">
        <ele>58.0</ele>
        <time>2019-07-05T18:42:25Z</time>
      </trkpt>
      <trkpt lat="41.34245166666667" lon="-8.746945">
        <ele>58.0</ele>
        <time>2019-07-05T18:42:27Z</time>
      </trkpt>
      <trkpt lat="41.342405" lon="-8.747085">
        <ele>58.0</ele>
        <time>2019-07-05T18:42:29Z</time>
      </trkpt>
      <trkpt lat="41.34236" lon="-8.747215">
        <ele>58.0</ele>
        <time>2019-07-05T18:42:31Z</time>
      </trkpt>
      <trkpt lat="41.342305" lon="-8.74735">
        <ele>58.0</ele>
        <time>2019-07-05T18:42:33Z</time>
      </trkpt>
      <trkpt lat="41.342256666666664" lon="-8.747481666666667">
        <ele>58.0</ele>
        <time>2019-07-05T18:42:35Z</time>
      </trkpt>
      <trkpt lat="41.342215" lon="-8.74762">
        <ele>58.0</ele>
        <time>2019-07-05T18:42:37Z</time>
      </trkpt>
      <trkpt lat="41.34216" lon="-8.74775">
        <ele>58.0</ele>
        <time>2019-07-05T18:42:39Z</time>
      </trkpt>
      <trkpt lat="41.34211166666667" lon="-8.747885">
        <ele>58.0</ele>
        <time>2019-07-05T18:42:41Z</time>
      </trkpt>
      <trkpt lat="41.34206666666667" lon="-8.74802">
        <ele>58.0</ele>
        <time>2019-07-05T18:42:43Z</time>
      </trkpt>
      <trkpt lat="41.342016666666666" lon="-8.748146666666667">
        <ele>58.0</ele>
        <time>2019-07-05T18:42:45Z</time>
      </trkpt>
      <trkpt lat="41.34197" lon="-8.748276666666667">
        <ele>58.0</ele>
        <time>2019-07-05T18:42:47Z</time>
      </trkpt>
      <trkpt lat="41.341925" lon="-8.74841">
        <ele>57.0</ele>
        <time>2019-07-05T18:42:49Z</time>
      </trkpt>
      <trkpt lat="41.341875" lon="-8.748521666666667">
        <ele>57.0</ele>
        <time>2019-07-05T18:42:51Z</time>
      </trkpt>
      <trkpt lat="41.34183" lon="-8.748625">
        <ele>57.0</ele>
        <time>2019-07-05T18:42:53Z</time>
      </trkpt>
      <trkpt lat="41.34177" lon="-8.7487">
        <ele>58.0</ele>
        <time>2019-07-05T18:42:55Z</time>
      </trkpt>
      <trkpt lat="41.34171" lon="-8.74876">
        <ele>57.0</ele>
        <time>2019-07-05T18:42:57Z</time>
      </trkpt>
      <trkpt lat="41.34165" lon="-8.748848333333333">
        <ele>57.0</ele>
        <time>2019-07-05T18:42:59Z</time>
      </trkpt>
      <trkpt lat="41.341611666666665" lon="-8.74897">
        <ele>58.0</ele>
        <time>2019-07-05T18:43:01Z</time>
      </trkpt>
      <trkpt lat="41.34156333333333" lon="-8.749091666666667">
        <ele>58.0</ele>
        <time>2019-07-05T18:43:03Z</time>
      </trkpt>
      <trkpt lat="41.341515" lon="-8.74922">
        <ele>58.0</ele>
        <time>2019-07-05T18:43:05Z</time>
      </trkpt>
      <trkpt lat="41.341465" lon="-8.749345">
        <ele>58.0</ele>
        <time>2019-07-05T18:43:07Z</time>
      </trkpt>
      <trkpt lat="41.34142" lon="-8.749465">
        <ele>58.0</ele>
        <time>2019-07-05T18:43:09Z</time>
      </trkpt>
      <trkpt lat="41.34138" lon="-8.74959">
        <ele>58.0</ele>
        <time>2019-07-05T18:43:11Z</time>
      </trkpt>
      <trkpt lat="41.34135" lon="-8.749715">
        <ele>58.0</ele>
        <time>2019-07-05T18:43:13Z</time>
      </trkpt>
      <trkpt lat="41.341321666666666" lon="-8.749845">
        <ele>59.0</ele>
        <time>2019-07-05T18:43:15Z</time>
      </trkpt>
      <trkpt lat="41.341295" lon="-8.749961666666668">
        <ele>59.0</ele>
        <time>2019-07-05T18:43:17Z</time>
      </trkpt>
      <trkpt lat="41.34126166666667" lon="-8.750075">
        <ele>60.0</ele>
        <time>2019-07-05T18:43:19Z</time>
      </trkpt>
      <trkpt lat="41.34125" lon="-8.750195">
        <ele>60.0</ele>
        <time>2019-07-05T18:43:21Z</time>
      </trkpt>
      <trkpt lat="41.341255" lon="-8.75031">
        <ele>61.0</ele>
        <time>2019-07-05T18:43:23Z</time>
      </trkpt>
      <trkpt lat="41.34127" lon="-8.75043">
        <ele>61.0</ele>
        <time>2019-07-05T18:43:25Z</time>
      </trkpt>
      <trkpt lat="41.34128" lon="-8.75054">
        <ele>61.0</ele>
        <time>2019-07-05T18:43:27Z</time>
      </trkpt>
      <trkpt lat="41.341296666666665" lon="-8.75065">
        <ele>61.0</ele>
        <time>2019-07-05T18:43:29Z</time>
      </trkpt>
      <trkpt lat="41.3413" lon="-8.750755">
        <ele>61.0</ele>
        <time>2019-07-05T18:43:31Z</time>
      </trkpt>
      <trkpt lat="41.341295" lon="-8.750871666666667">
        <ele>61.0</ele>
        <time>2019-07-05T18:43:33Z</time>
      </trkpt>
      <trkpt lat="41.341285" lon="-8.750991666666666">
        <ele>61.0</ele>
        <time>2019-07-05T18:43:35Z</time>
      </trkpt>
      <trkpt lat="41.34129" lon="-8.75112">
        <ele>61.0</ele>
        <time>2019-07-05T18:43:37Z</time>
      </trkpt>
      <trkpt lat="41.34129166666666" lon="-8.751255">
        <ele>62.0</ele>
        <time>2019-07-05T18:43:39Z</time>
      </trkpt>
      <trkpt lat="41.3413" lon="-8.75139">
        <ele>61.0</ele>
        <time>2019-07-05T18:43:41Z</time>
      </trkpt>
      <trkpt lat="41.341305" lon="-8.751535">
        <ele>61.0</ele>
        <time>2019-07-05T18:43:43Z</time>
      </trkpt>
      <trkpt lat="41.341315" lon="-8.751668333333333">
        <ele>61.0</ele>
        <time>2019-07-05T18:43:45Z</time>
      </trkpt>
      <trkpt lat="41.34132" lon="-8.751795">
        <ele>61.0</ele>
        <time>2019-07-05T18:43:47Z</time>
      </trkpt>
      <trkpt lat="41.34133666666666" lon="-8.751898333333333">
        <ele>62.0</ele>
        <time>2019-07-05T18:43:49Z</time>
      </trkpt>
      <trkpt lat="41.34136" lon="-8.752015">
        <ele>62.0</ele>
        <time>2019-07-05T18:43:51Z</time>
      </trkpt>
      <trkpt lat="41.34142" lon="-8.752115">
        <ele>62.0</ele>
        <time>2019-07-05T18:43:53Z</time>
      </trkpt>
      <trkpt lat="41.341498333333334" lon="-8.75217">
        <ele>63.0</ele>
        <time>2019-07-05T18:43:55Z</time>
      </trkpt>
      <trkpt lat="41.34159" lon="-8.752195">
        <ele>63.0</ele>
        <time>2019-07-05T18:43:57Z</time>
      </trkpt>
      <trkpt lat="41.34168" lon="-8.752261666666667">
        <ele>63.0</ele>
        <time>2019-07-05T18:43:59Z</time>
      </trkpt>
      <trkpt lat="41.34176" lon="-8.75233">
        <ele>63.0</ele>
        <time>2019-07-05T18:44:01Z</time>
      </trkpt>
      <trkpt lat="41.341845" lon="-8.75237">
        <ele>64.0</ele>
        <time>2019-07-05T18:44:03Z</time>
      </trkpt>
      <trkpt lat="41.341925" lon="-8.752385">
        <ele>64.0</ele>
        <time>2019-07-05T18:44:05Z</time>
      </trkpt>
      <trkpt lat="41.342011666666664" lon="-8.752415">
        <ele>64.0</ele>
        <time>2019-07-05T18:44:07Z</time>
      </trkpt>
      <trkpt lat="41.34209666666667" lon="-8.752451666666667">
        <ele>64.0</ele>
        <time>2019-07-05T18:44:09Z</time>
      </trkpt>
      <trkpt lat="41.342185" lon="-8.752495">
        <ele>64.0</ele>
        <time>2019-07-05T18:44:11Z</time>
      </trkpt>
      <trkpt lat="41.34226" lon="-8.752555">
        <ele>64.0</ele>
        <time>2019-07-05T18:44:13Z</time>
      </trkpt>
      <trkpt lat="41.34234" lon="-8.752606666666667">
        <ele>64.0</ele>
        <time>2019-07-05T18:44:15Z</time>
      </trkpt>
      <trkpt lat="41.34242" lon="-8.75266">
        <ele>64.0</ele>
        <time>2019-07-05T18:44:17Z</time>
      </trkpt>
      <trkpt lat="41.34249166666667" lon="-8.752735">
        <ele>64.0</ele>
        <time>2019-07-05T18:44:19Z</time>
      </trkpt>
      <trkpt lat="41.342565" lon="-8.752805">
        <ele>65.0</ele>
        <time>2019-07-05T18:44:21Z</time>
      </trkpt>
      <trkpt lat="41.342645" lon="-8.752865">
        <ele>64.0</ele>
        <time>2019-07-05T18:44:23Z</time>
      </trkpt>
      <trkpt lat="41.34274" lon="-8.752945">
        <ele>63.0</ele>
        <time>2019-07-05T18:44:25Z</time>
      </trkpt>
      <trkpt lat="41.34284" lon="-8.753041666666666">
        <ele>63.0</ele>
        <time>2019-07-05T18:44:27Z</time>
      </trkpt>
      <trkpt lat="41.342933333333335" lon="-8.753135">
        <ele>64.0</ele>
        <time>2019-07-05T18:44:29Z</time>
      </trkpt>
      <trkpt lat="41.343021666666665" lon="-8.75322">
        <ele>63.0</ele>
        <time>2019-07-05T18:44:31Z</time>
      </trkpt>
      <trkpt lat="41.343106666666664" lon="-8.753305">
        <ele>64.0</ele>
        <time>2019-07-05T18:44:33Z</time>
      </trkpt>
      <trkpt lat="41.343195" lon="-8.753385">
        <ele>64.0</ele>
        <time>2019-07-05T18:44:35Z</time>
      </trkpt>
      <trkpt lat="41.343285" lon="-8.753465">
        <ele>64.0</ele>
        <time>2019-07-05T18:44:37Z</time>
      </trkpt>
      <trkpt lat="41.343375" lon="-8.753548333333333">
        <ele>64.0</ele>
        <time>2019-07-05T18:44:39Z</time>
      </trkpt>
      <trkpt lat="41.34346" lon="-8.753635">
        <ele>65.0</ele>
        <time>2019-07-05T18:44:41Z</time>
      </trkpt>
      <trkpt lat="41.343555" lon="-8.753705">
        <ele>65.0</ele>
        <time>2019-07-05T18:44:43Z</time>
      </trkpt>
      <trkpt lat="41.34366" lon="-8.753771666666667">
        <ele>65.0</ele>
        <time>2019-07-05T18:44:45Z</time>
      </trkpt>
      <trkpt lat="41.343761666666666" lon="-8.753835">
        <ele>65.0</ele>
        <time>2019-07-05T18:44:47Z</time>
      </trkpt>
      <trkpt lat="41.343871666666665" lon="-8.753885">
        <ele>64.0</ele>
        <time>2019-07-05T18:44:49Z</time>
      </trkpt>
      <trkpt lat="41.343985" lon="-8.75391">
        <ele>64.0</ele>
        <time>2019-07-05T18:44:51Z</time>
      </trkpt>
      <trkpt lat="41.3441" lon="-8.753935">
        <ele>64.0</ele>
        <time>2019-07-05T18:44:53Z</time>
      </trkpt>
      <trkpt lat="41.344213333333336" lon="-8.753935">
        <ele>64.0</ele>
        <time>2019-07-05T18:44:55Z</time>
      </trkpt>
      <trkpt lat="41.344325" lon="-8.75393">
        <ele>64.0</ele>
        <time>2019-07-05T18:44:57Z</time>
      </trkpt>
      <trkpt lat="41.34444" lon="-8.753916666666667">
        <ele>65.0</ele>
        <time>2019-07-05T18:44:59Z</time>
      </trkpt>
      <trkpt lat="41.34455" lon="-8.753886666666666">
        <ele>65.0</ele>
        <time>2019-07-05T18:45:01Z</time>
      </trkpt>
      <trkpt lat="41.34466" lon="-8.753835">
        <ele>65.0</ele>
        <time>2019-07-05T18:45:03Z</time>
      </trkpt>
      <trkpt lat="41.34477" lon="-8.753786666666667">
        <ele>64.0</ele>
        <time>2019-07-05T18:45:05Z</time>
      </trkpt>
      <trkpt lat="41.34488" lon="-8.75374">
        <ele>64.0</ele>
        <time>2019-07-05T18:45:07Z</time>
      </trkpt>
      <trkpt lat="41.344986666666664" lon="-8.7537">
        <ele>64.0</ele>
        <time>2019-07-05T18:45:09Z</time>
      </trkpt>
      <trkpt lat="41.3451" lon="-8.753665">
        <ele>64.0</ele>
        <time>2019-07-05T18:45:11Z</time>
      </trkpt>
      <trkpt lat="41.34521" lon="-8.75363">
        <ele>64.0</ele>
        <time>2019-07-05T18:45:13Z</time>
      </trkpt>
      <trkpt lat="41.34532" lon="-8.753595">
        <ele>64.0</ele>
        <time>2019-07-05T18:45:15Z</time>
      </trkpt>
      <trkpt lat="41.345435" lon="-8.75357">
        <ele>64.0</ele>
        <time>2019-07-05T18:45:17Z</time>
      </trkpt>
      <trkpt lat="41.34555" lon="-8.75355">
        <ele>64.0</ele>
        <time>2019-07-05T18:45:19Z</time>
      </trkpt>
      <trkpt lat="41.34566" lon="-8.75353">
        <ele>64.0</ele>
        <time>2019-07-05T18:45:21Z</time>
      </trkpt>
      <trkpt lat="41.345776666666666" lon="-8.75352">
        <ele>64.0</ele>
        <time>2019-07-05T18:45:23Z</time>
      </trkpt>
      <trkpt lat="41.345888333333335" lon="-8.753505">
        <ele>63.0</ele>
        <time>2019-07-05T18:45:25Z</time>
      </trkpt>
      <trkpt lat="41.346" lon="-8.753485">
        <ele>63.0</ele>
        <time>2019-07-05T18:45:27Z</time>
      </trkpt>
      <trkpt lat="41.346111666666665" lon="-8.753495">
        <ele>63.0</ele>
        <time>2019-07-05T18:45:29Z</time>
      </trkpt>
      <trkpt lat="41.346225" lon="-8.753485">
        <ele>63.0</ele>
        <time>2019-07-05T18:45:31Z</time>
      </trkpt>
      <trkpt lat="41.346345" lon="-8.75347">
        <ele>63.0</ele>
        <time>2019-07-05T18:45:33Z</time>
      </trkpt>
      <trkpt lat="41.34646" lon="-8.753465">
        <ele>63.0</ele>
        <time>2019-07-05T18:45:35Z</time>
      </trkpt>
      <trkpt lat="41.346576666666664" lon="-8.753465">
        <ele>63.0</ele>
        <time>2019-07-05T18:45:37Z</time>
      </trkpt>
      <trkpt lat="41.3467" lon="-8.753455">
        <ele>63.0</ele>
        <time>2019-07-05T18:45:39Z</time>
      </trkpt>
      <trkpt lat="41.34682" lon="-8.75346">
        <ele>64.0</ele>
        <time>2019-07-05T18:45:41Z</time>
      </trkpt>
      <trkpt lat="41.346941666666666" lon="-8.753461666666666">
        <ele>64.0</ele>
        <time>2019-07-05T18:45:43Z</time>
      </trkpt>
      <trkpt lat="41.347065" lon="-8.75346">
        <ele>64.0</ele>
        <time>2019-07-05T18:45:45Z</time>
      </trkpt>
      <trkpt lat="41.34718" lon="-8.753465">
        <ele>64.0</ele>
        <time>2019-07-05T18:45:47Z</time>
      </trkpt>
      <trkpt lat="41.347295" lon="-8.753475">
        <ele>64.0</ele>
        <time>2019-07-05T18:45:49Z</time>
      </trkpt>
      <trkpt lat="41.34741666666667" lon="-8.75348">
        <ele>64.0</ele>
        <time>2019-07-05T18:45:51Z</time>
      </trkpt>
      <trkpt lat="41.347535" lon="-8.753501666666667">
        <ele>64.0</ele>
        <time>2019-07-05T18:45:53Z</time>
      </trkpt>
      <trkpt lat="41.34764666666667" lon="-8.753525">
        <ele>63.0</ele>
        <time>2019-07-05T18:45:55Z</time>
      </trkpt>
      <trkpt lat="41.34776" lon="-8.753541666666667">
        <ele>64.0</ele>
        <time>2019-07-05T18:45:57Z</time>
      </trkpt>
      <trkpt lat="41.347875" lon="-8.753565">
        <ele>64.0</ele>
        <time>2019-07-05T18:45:59Z</time>
      </trkpt>
      <trkpt lat="41.347991666666665" lon="-8.753583333333333">
        <ele>64.0</ele>
        <time>2019-07-05T18:46:01Z</time>
      </trkpt>
      <trkpt lat="41.34811" lon="-8.753605">
        <ele>64.0</ele>
        <time>2019-07-05T18:46:03Z</time>
      </trkpt>
      <trkpt lat="41.34823" lon="-8.75361">
        <ele>64.0</ele>
        <time>2019-07-05T18:46:05Z</time>
      </trkpt>
      <trkpt lat="41.348355" lon="-8.753615">
        <ele>64.0</ele>
        <time>2019-07-05T18:46:07Z</time>
      </trkpt>
      <trkpt lat="41.34847166666667" lon="-8.753615">
        <ele>64.0</ele>
        <time>2019-07-05T18:46:09Z</time>
      </trkpt>
      <trkpt lat="41.348595" lon="-8.753615">
        <ele>64.0</ele>
        <time>2019-07-05T18:46:11Z</time>
      </trkpt>
      <trkpt lat="41.34871" lon="-8.753596666666667">
        <ele>64.0</ele>
        <time>2019-07-05T18:46:13Z</time>
      </trkpt>
      <trkpt lat="41.348825" lon="-8.753571666666666">
        <ele>63.0</ele>
        <time>2019-07-05T18:46:15Z</time>
      </trkpt>
      <trkpt lat="41.34894" lon="-8.753546666666667">
        <ele>63.0</ele>
        <time>2019-07-05T18:46:17Z</time>
      </trkpt>
      <trkpt lat="41.349055" lon="-8.753516666666666">
        <ele>63.0</ele>
        <time>2019-07-05T18:46:19Z</time>
      </trkpt>
      <trkpt lat="41.34917" lon="-8.753491666666667">
        <ele>63.0</ele>
        <time>2019-07-05T18:46:21Z</time>
      </trkpt>
      <trkpt lat="41.349285" lon="-8.753475">
        <ele>63.0</ele>
        <time>2019-07-05T18:46:23Z</time>
      </trkpt>
      <trkpt lat="41.34939" lon="-8.75346">
        <ele>63.0</ele>
        <time>2019-07-05T18:46:25Z</time>
      </trkpt>
      <trkpt lat="41.3495" lon="-8.75347">
        <ele>63.0</ele>
        <time>2019-07-05T18:46:27Z</time>
      </trkpt>
      <trkpt lat="41.34961" lon="-8.753486666666667">
        <ele>63.0</ele>
        <time>2019-07-05T18:46:29Z</time>
      </trkpt>
      <trkpt lat="41.34972" lon="-8.753501666666667">
        <ele>63.0</ele>
        <time>2019-07-05T18:46:31Z</time>
      </trkpt>
      <trkpt lat="41.349825" lon="-8.75353">
        <ele>63.0</ele>
        <time>2019-07-05T18:46:33Z</time>
      </trkpt>
      <trkpt lat="41.34993" lon="-8.75357">
        <ele>63.0</ele>
        <time>2019-07-05T18:46:35Z</time>
      </trkpt>
      <trkpt lat="41.35004166666667" lon="-8.75361">
        <ele>63.0</ele>
        <time>2019-07-05T18:46:37Z</time>
      </trkpt>
      <trkpt lat="41.350155" lon="-8.75365">
        <ele>63.0</ele>
        <time>2019-07-05T18:46:39Z</time>
      </trkpt>
      <trkpt lat="41.35027" lon="-8.75369">
        <ele>63.0</ele>
        <time>2019-07-05T18:46:41Z</time>
      </trkpt>
      <trkpt lat="41.350381666666664" lon="-8.753725">
        <ele>63.0</ele>
        <time>2019-07-05T18:46:43Z</time>
      </trkpt>
      <trkpt lat="41.350495" lon="-8.753761666666668">
        <ele>63.0</ele>
        <time>2019-07-05T18:46:45Z</time>
      </trkpt>
      <trkpt lat="41.35061" lon="-8.753801666666666">
        <ele>63.0</ele>
        <time>2019-07-05T18:46:47Z</time>
      </trkpt>
      <trkpt lat="41.350721666666665" lon="-8.753835">
        <ele>64.0</ele>
        <time>2019-07-05T18:46:49Z</time>
      </trkpt>
      <trkpt lat="41.350835000000004" lon="-8.753875">
        <ele>64.0</ele>
        <time>2019-07-05T18:46:51Z</time>
      </trkpt>
      <trkpt lat="41.35094" lon="-8.75392">
        <ele>64.0</ele>
        <time>2019-07-05T18:46:53Z</time>
      </trkpt>
      <trkpt lat="41.35105166666666" lon="-8.75396">
        <ele>64.0</ele>
        <time>2019-07-05T18:46:55Z</time>
      </trkpt>
      <trkpt lat="41.351165" lon="-8.753995">
        <ele>64.0</ele>
        <time>2019-07-05T18:46:57Z</time>
      </trkpt>
      <trkpt lat="41.351275" lon="-8.75403">
        <ele>64.0</ele>
        <time>2019-07-05T18:46:59Z</time>
      </trkpt>
      <trkpt lat="41.35139" lon="-8.75407">
        <ele>64.0</ele>
        <time>2019-07-05T18:47:01Z</time>
      </trkpt>
      <trkpt lat="41.351506666666666" lon="-8.75409">
        <ele>64.0</ele>
        <time>2019-07-05T18:47:03Z</time>
      </trkpt>
      <trkpt lat="41.351615" lon="-8.7541">
        <ele>64.0</ele>
        <time>2019-07-05T18:47:05Z</time>
      </trkpt>
      <trkpt lat="41.351715" lon="-8.754093333333334">
        <ele>64.0</ele>
        <time>2019-07-05T18:47:07Z</time>
      </trkpt>
      <trkpt lat="41.351815" lon="-8.7541">
        <ele>64.0</ele>
        <time>2019-07-05T18:47:09Z</time>
      </trkpt>
      <trkpt lat="41.35192" lon="-8.7541">
        <ele>64.0</ele>
        <time>2019-07-05T18:47:11Z</time>
      </trkpt>
      <trkpt lat="41.35203" lon="-8.754105">
        <ele>63.0</ele>
        <time>2019-07-05T18:47:13Z</time>
      </trkpt>
      <trkpt lat="41.352145" lon="-8.754105">
        <ele>63.0</ele>
        <time>2019-07-05T18:47:15Z</time>
      </trkpt>
      <trkpt lat="41.35225166666667" lon="-8.754101666666667">
        <ele>63.0</ele>
        <time>2019-07-05T18:47:17Z</time>
      </trkpt>
      <trkpt lat="41.35236" lon="-8.75411">
        <ele>64.0</ele>
        <time>2019-07-05T18:47:19Z</time>
      </trkpt>
      <trkpt lat="41.35247" lon="-8.754116666666667">
        <ele>64.0</ele>
        <time>2019-07-05T18:47:21Z</time>
      </trkpt>
      <trkpt lat="41.352575" lon="-8.754125">
        <ele>64.0</ele>
        <time>2019-07-05T18:47:23Z</time>
      </trkpt>
      <trkpt lat="41.352685" lon="-8.75412">
        <ele>64.0</ele>
        <time>2019-07-05T18:47:25Z</time>
      </trkpt>
      <trkpt lat="41.35279" lon="-8.754125">
        <ele>63.0</ele>
        <time>2019-07-05T18:47:27Z</time>
      </trkpt>
      <trkpt lat="41.352895" lon="-8.754125">
        <ele>63.0</ele>
        <time>2019-07-05T18:47:29Z</time>
      </trkpt>
      <trkpt lat="41.353006666666666" lon="-8.754135">
        <ele>64.0</ele>
        <time>2019-07-05T18:47:31Z</time>
      </trkpt>
      <trkpt lat="41.35312" lon="-8.754145">
        <ele>64.0</ele>
        <time>2019-07-05T18:47:33Z</time>
      </trkpt>
      <trkpt lat="41.353231666666666" lon="-8.75415">
        <ele>64.0</ele>
        <time>2019-07-05T18:47:35Z</time>
      </trkpt>
      <trkpt lat="41.353345" lon="-8.754165">
        <ele>63.0</ele>
        <time>2019-07-05T18:47:37Z</time>
      </trkpt>
      <trkpt lat="41.353455" lon="-8.754176666666666">
        <ele>63.0</ele>
        <time>2019-07-05T18:47:39Z</time>
      </trkpt>
      <trkpt lat="41.35357" lon="-8.754191666666667">
        <ele>64.0</ele>
        <time>2019-07-05T18:47:41Z</time>
      </trkpt>
      <trkpt lat="41.35368" lon="-8.75421">
        <ele>64.0</ele>
        <time>2019-07-05T18:47:43Z</time>
      </trkpt>
      <trkpt lat="41.35379" lon="-8.754226666666666">
        <ele>63.0</ele>
        <time>2019-07-05T18:47:45Z</time>
      </trkpt>
      <trkpt lat="41.3539" lon="-8.754245">
        <ele>63.0</ele>
        <time>2019-07-05T18:47:47Z</time>
      </trkpt>
      <trkpt lat="41.35401" lon="-8.75426">
        <ele>64.0</ele>
        <time>2019-07-05T18:47:49Z</time>
      </trkpt>
      <trkpt lat="41.35412" lon="-8.754281666666667">
        <ele>64.0</ele>
        <time>2019-07-05T18:47:51Z</time>
      </trkpt>
      <trkpt lat="41.35423" lon="-8.75431">
        <ele>64.0</ele>
        <time>2019-07-05T18:47:53Z</time>
      </trkpt>
      <trkpt lat="41.35434" lon="-8.75433">
        <ele>64.0</ele>
        <time>2019-07-05T18:47:55Z</time>
      </trkpt>
      <trkpt lat="41.35445" lon="-8.75435">
        <ele>65.0</ele>
        <time>2019-07-05T18:47:57Z</time>
      </trkpt>
      <trkpt lat="41.35456166666667" lon="-8.754375">
        <ele>64.0</ele>
        <time>2019-07-05T18:47:59Z</time>
      </trkpt>
      <trkpt lat="41.354675" lon="-8.75441">
        <ele>64.0</ele>
        <time>2019-07-05T18:48:01Z</time>
      </trkpt>
      <trkpt lat="41.354785" lon="-8.754435">
        <ele>65.0</ele>
        <time>2019-07-05T18:48:03Z</time>
      </trkpt>
      <trkpt lat="41.35489" lon="-8.754455">
        <ele>65.0</ele>
        <time>2019-07-05T18:48:05Z</time>
      </trkpt>
      <trkpt lat="41.354995" lon="-8.754485">
        <ele>66.0</ele>
        <time>2019-07-05T18:48:07Z</time>
      </trkpt>
      <trkpt lat="41.35510166666667" lon="-8.75452">
        <ele>66.0</ele>
        <time>2019-07-05T18:48:09Z</time>
      </trkpt>
      <trkpt lat="41.35521166666667" lon="-8.75455">
        <ele>66.0</ele>
        <time>2019-07-05T18:48:11Z</time>
      </trkpt>
      <trkpt lat="41.35532" lon="-8.754585">
        <ele>66.0</ele>
        <time>2019-07-05T18:48:13Z</time>
      </trkpt>
      <trkpt lat="41.355426666666666" lon="-8.754621666666667">
        <ele>66.0</ele>
        <time>2019-07-05T18:48:15Z</time>
      </trkpt>
      <trkpt lat="41.355536666666666" lon="-8.754661666666667">
        <ele>66.0</ele>
        <time>2019-07-05T18:48:17Z</time>
      </trkpt>
      <trkpt lat="41.355645" lon="-8.754705">
        <ele>66.0</ele>
        <time>2019-07-05T18:48:19Z</time>
      </trkpt>
      <trkpt lat="41.355756666666665" lon="-8.754745">
        <ele>65.0</ele>
        <time>2019-07-05T18:48:21Z</time>
      </trkpt>
      <trkpt lat="41.35586166666667" lon="-8.754795">
        <ele>65.0</ele>
        <time>2019-07-05T18:48:23Z</time>
      </trkpt>
      <trkpt lat="41.355956666666664" lon="-8.75484">
        <ele>66.0</ele>
        <time>2019-07-05T18:48:25Z</time>
      </trkpt>
      <trkpt lat="41.35605" lon="-8.754875">
        <ele>65.0</ele>
        <time>2019-07-05T18:48:27Z</time>
      </trkpt>
      <trkpt lat="41.35614" lon="-8.75492">
        <ele>65.0</ele>
        <time>2019-07-05T18:48:29Z</time>
      </trkpt>
      <trkpt lat="41.356226666666664" lon="-8.75496">
        <ele>65.0</ele>
        <time>2019-07-05T18:48:31Z</time>
      </trkpt>
      <trkpt lat="41.35632" lon="-8.754995">
        <ele>66.0</ele>
        <time>2019-07-05T18:48:33Z</time>
      </trkpt>
      <trkpt lat="41.35642" lon="-8.75504">
        <ele>66.0</ele>
        <time>2019-07-05T18:48:35Z</time>
      </trkpt>
      <trkpt lat="41.35652" lon="-8.755085">
        <ele>66.0</ele>
        <time>2019-07-05T18:48:37Z</time>
      </trkpt>
      <trkpt lat="41.356625" lon="-8.755135">
        <ele>66.0</ele>
        <time>2019-07-05T18:48:39Z</time>
      </trkpt>
      <trkpt lat="41.35673" lon="-8.755185">
        <ele>66.0</ele>
        <time>2019-07-05T18:48:41Z</time>
      </trkpt>
      <trkpt lat="41.35684" lon="-8.755245">
        <ele>66.0</ele>
        <time>2019-07-05T18:48:43Z</time>
      </trkpt>
      <trkpt lat="41.356955" lon="-8.755295">
        <ele>66.0</ele>
        <time>2019-07-05T18:48:45Z</time>
      </trkpt>
      <trkpt lat="41.35706166666667" lon="-8.75535">
        <ele>66.0</ele>
        <time>2019-07-05T18:48:47Z</time>
      </trkpt>
      <trkpt lat="41.357171666666666" lon="-8.755406666666667">
        <ele>66.0</ele>
        <time>2019-07-05T18:48:49Z</time>
      </trkpt>
      <trkpt lat="41.357285" lon="-8.755456666666667">
        <ele>66.0</ele>
        <time>2019-07-05T18:48:51Z</time>
      </trkpt>
      <trkpt lat="41.357398333333336" lon="-8.755515">
        <ele>66.0</ele>
        <time>2019-07-05T18:48:53Z</time>
      </trkpt>
      <trkpt lat="41.35751" lon="-8.75557">
        <ele>66.0</ele>
        <time>2019-07-05T18:48:55Z</time>
      </trkpt>
      <trkpt lat="41.357625" lon="-8.755625">
        <ele>66.0</ele>
        <time>2019-07-05T18:48:57Z</time>
      </trkpt>
      <trkpt lat="41.357735" lon="-8.755685">
        <ele>66.0</ele>
        <time>2019-07-05T18:48:59Z</time>
      </trkpt>
      <trkpt lat="41.35785166666667" lon="-8.75574">
        <ele>66.0</ele>
        <time>2019-07-05T18:49:01Z</time>
      </trkpt>
      <trkpt lat="41.357965" lon="-8.755798333333333">
        <ele>66.0</ele>
        <time>2019-07-05T18:49:03Z</time>
      </trkpt>
      <trkpt lat="41.35808" lon="-8.75586">
        <ele>66.0</ele>
        <time>2019-07-05T18:49:05Z</time>
      </trkpt>
      <trkpt lat="41.35819" lon="-8.75591">
        <ele>66.0</ele>
        <time>2019-07-05T18:49:07Z</time>
      </trkpt>
      <trkpt lat="41.358305" lon="-8.755968333333334">
        <ele>66.0</ele>
        <time>2019-07-05T18:49:09Z</time>
      </trkpt>
      <trkpt lat="41.358415" lon="-8.756015">
        <ele>66.0</ele>
        <time>2019-07-05T18:49:11Z</time>
      </trkpt>
      <trkpt lat="41.35851666666667" lon="-8.756046666666666">
        <ele>66.0</ele>
        <time>2019-07-05T18:49:13Z</time>
      </trkpt>
      <trkpt lat="41.35861666666667" lon="-8.756075">
        <ele>66.0</ele>
        <time>2019-07-05T18:49:15Z</time>
      </trkpt>
      <trkpt lat="41.35872" lon="-8.756115">
        <ele>65.0</ele>
        <time>2019-07-05T18:49:17Z</time>
      </trkpt>
      <trkpt lat="41.358826666666666" lon="-8.756131666666667">
        <ele>65.0</ele>
        <time>2019-07-05T18:49:19Z</time>
      </trkpt>
      <trkpt lat="41.35894" lon="-8.756175">
        <ele>65.0</ele>
        <time>2019-07-05T18:49:21Z</time>
      </trkpt>
      <trkpt lat="41.35905" lon="-8.75622">
        <ele>65.0</ele>
        <time>2019-07-05T18:49:23Z</time>
      </trkpt>
      <trkpt lat="41.35916" lon="-8.756281666666666">
        <ele>65.0</ele>
        <time>2019-07-05T18:49:25Z</time>
      </trkpt>
      <trkpt lat="41.35927" lon="-8.756346666666667">
        <ele>65.0</ele>
        <time>2019-07-05T18:49:27Z</time>
      </trkpt>
      <trkpt lat="41.359375" lon="-8.756415">
        <ele>65.0</ele>
        <time>2019-07-05T18:49:29Z</time>
      </trkpt>
      <trkpt lat="41.35948" lon="-8.75649">
        <ele>65.0</ele>
        <time>2019-07-05T18:49:31Z</time>
      </trkpt>
      <trkpt lat="41.35958" lon="-8.756565">
        <ele>65.0</ele>
        <time>2019-07-05T18:49:33Z</time>
      </trkpt>
      <trkpt lat="41.359676666666665" lon="-8.756655">
        <ele>65.0</ele>
        <time>2019-07-05T18:49:35Z</time>
      </trkpt>
      <trkpt lat="41.359775" lon="-8.756745">
        <ele>65.0</ele>
        <time>2019-07-05T18:49:37Z</time>
      </trkpt>
      <trkpt lat="41.35986666666667" lon="-8.756835">
        <ele>65.0</ele>
        <time>2019-07-05T18:49:39Z</time>
      </trkpt>
      <trkpt lat="41.35994" lon="-8.756925">
        <ele>65.0</ele>
        <time>2019-07-05T18:49:42Z</time>
      </trkpt>
      <trkpt lat="41.360005" lon="-8.75701">
        <ele>64.0</ele>
        <time>2019-07-05T18:49:44Z</time>
      </trkpt>
      <trkpt lat="41.360085" lon="-8.757105">
        <ele>65.0</ele>
        <time>2019-07-05T18:49:46Z</time>
      </trkpt>
      <trkpt lat="41.36017666666667" lon="-8.757205">
        <ele>65.0</ele>
        <time>2019-07-05T18:49:48Z</time>
      </trkpt>
      <trkpt lat="41.36027166666667" lon="-8.75732">
        <ele>65.0</ele>
        <time>2019-07-05T18:49:50Z</time>
      </trkpt>
      <trkpt lat="41.360365" lon="-8.757435">
        <ele>65.0</ele>
        <time>2019-07-05T18:49:52Z</time>
      </trkpt>
      <trkpt lat="41.360456666666664" lon="-8.75754">
        <ele>65.0</ele>
        <time>2019-07-05T18:49:54Z</time>
      </trkpt>
      <trkpt lat="41.36055" lon="-8.757645">
        <ele>65.0</ele>
        <time>2019-07-05T18:49:56Z</time>
      </trkpt>
      <trkpt lat="41.360645" lon="-8.757755">
        <ele>65.0</ele>
        <time>2019-07-05T18:49:58Z</time>
      </trkpt>
      <trkpt lat="41.360733333333336" lon="-8.757861666666667">
        <ele>65.0</ele>
        <time>2019-07-05T18:50:00Z</time>
      </trkpt>
      <trkpt lat="41.36082666666667" lon="-8.757965">
        <ele>65.0</ele>
        <time>2019-07-05T18:50:02Z</time>
      </trkpt>
      <trkpt lat="41.360915" lon="-8.75808">
        <ele>65.0</ele>
        <time>2019-07-05T18:50:04Z</time>
      </trkpt>
      <trkpt lat="41.36101" lon="-8.758195">
        <ele>65.0</ele>
        <time>2019-07-05T18:50:06Z</time>
      </trkpt>
      <trkpt lat="41.3611" lon="-8.758305">
        <ele>65.0</ele>
        <time>2019-07-05T18:50:08Z</time>
      </trkpt>
      <trkpt lat="41.36119333333333" lon="-8.758416666666667">
        <ele>65.0</ele>
        <time>2019-07-05T18:50:10Z</time>
      </trkpt>
      <trkpt lat="41.361286666666665" lon="-8.75853">
        <ele>65.0</ele>
        <time>2019-07-05T18:50:12Z</time>
      </trkpt>
      <trkpt lat="41.36138" lon="-8.758641666666668">
        <ele>65.0</ele>
        <time>2019-07-05T18:50:14Z</time>
      </trkpt>
      <trkpt lat="41.36147" lon="-8.758753333333333">
        <ele>65.0</ele>
        <time>2019-07-05T18:50:16Z</time>
      </trkpt>
      <trkpt lat="41.36156" lon="-8.75887">
        <ele>65.0</ele>
        <time>2019-07-05T18:50:18Z</time>
      </trkpt>
      <trkpt lat="41.361655" lon="-8.75898">
        <ele>65.0</ele>
        <time>2019-07-05T18:50:20Z</time>
      </trkpt>
      <trkpt lat="41.361745" lon="-8.759085">
        <ele>65.0</ele>
        <time>2019-07-05T18:50:22Z</time>
      </trkpt>
      <trkpt lat="41.36184" lon="-8.759195">
        <ele>65.0</ele>
        <time>2019-07-05T18:50:24Z</time>
      </trkpt>
      <trkpt lat="41.36194166666667" lon="-8.759286666666666">
        <ele>65.0</ele>
        <time>2019-07-05T18:50:26Z</time>
      </trkpt>
      <trkpt lat="41.362049999999996" lon="-8.75938">
        <ele>65.0</ele>
        <time>2019-07-05T18:50:28Z</time>
      </trkpt>
      <trkpt lat="41.36216" lon="-8.759455">
        <ele>65.0</ele>
        <time>2019-07-05T18:50:30Z</time>
      </trkpt>
      <trkpt lat="41.36227" lon="-8.75953">
        <ele>65.0</ele>
        <time>2019-07-05T18:50:32Z</time>
      </trkpt>
      <trkpt lat="41.362385" lon="-8.7596">
        <ele>65.0</ele>
        <time>2019-07-05T18:50:34Z</time>
      </trkpt>
      <trkpt lat="41.36249166666666" lon="-8.759675">
        <ele>65.0</ele>
        <time>2019-07-05T18:50:36Z</time>
      </trkpt>
      <trkpt lat="41.3626" lon="-8.759745">
        <ele>65.0</ele>
        <time>2019-07-05T18:50:38Z</time>
      </trkpt>
      <trkpt lat="41.36271" lon="-8.759825">
        <ele>65.0</ele>
        <time>2019-07-05T18:50:40Z</time>
      </trkpt>
      <trkpt lat="41.362815" lon="-8.759895">
        <ele>65.0</ele>
        <time>2019-07-05T18:50:42Z</time>
      </trkpt>
      <trkpt lat="41.362925" lon="-8.759966666666667">
        <ele>65.0</ele>
        <time>2019-07-05T18:50:44Z</time>
      </trkpt>
      <trkpt lat="41.36303" lon="-8.760035">
        <ele>65.0</ele>
        <time>2019-07-05T18:50:46Z</time>
      </trkpt>
      <trkpt lat="41.36313" lon="-8.760115">
        <ele>66.0</ele>
        <time>2019-07-05T18:50:48Z</time>
      </trkpt>
      <trkpt lat="41.36324166666667" lon="-8.760185">
        <ele>65.0</ele>
        <time>2019-07-05T18:50:50Z</time>
      </trkpt>
      <trkpt lat="41.363345" lon="-8.760255">
        <ele>65.0</ele>
        <time>2019-07-05T18:50:52Z</time>
      </trkpt>
      <trkpt lat="41.363455" lon="-8.760326666666666">
        <ele>65.0</ele>
        <time>2019-07-05T18:50:54Z</time>
      </trkpt>
      <trkpt lat="41.363565" lon="-8.76038">
        <ele>65.0</ele>
        <time>2019-07-05T18:50:56Z</time>
      </trkpt>
      <trkpt lat="41.36368" lon="-8.760425">
        <ele>65.0</ele>
        <time>2019-07-05T18:50:58Z</time>
      </trkpt>
      <trkpt lat="41.363795" lon="-8.760461666666666">
        <ele>65.0</ele>
        <time>2019-07-05T18:51:00Z</time>
      </trkpt>
      <trkpt lat="41.36391166666667" lon="-8.7605">
        <ele>65.0</ele>
        <time>2019-07-05T18:51:02Z</time>
      </trkpt>
      <trkpt lat="41.364025" lon="-8.760546666666666">
        <ele>65.0</ele>
        <time>2019-07-05T18:51:04Z</time>
      </trkpt>
      <trkpt lat="41.36414" lon="-8.76059">
        <ele>65.0</ele>
        <time>2019-07-05T18:51:06Z</time>
      </trkpt>
      <trkpt lat="41.36426" lon="-8.760631666666667">
        <ele>65.0</ele>
        <time>2019-07-05T18:51:08Z</time>
      </trkpt>
      <trkpt lat="41.364376666666665" lon="-8.760666666666667">
        <ele>65.0</ele>
        <time>2019-07-05T18:51:10Z</time>
      </trkpt>
      <trkpt lat="41.364495" lon="-8.760715">
        <ele>65.0</ele>
        <time>2019-07-05T18:51:12Z</time>
      </trkpt>
      <trkpt lat="41.36461" lon="-8.76076">
        <ele>64.0</ele>
        <time>2019-07-05T18:51:14Z</time>
      </trkpt>
      <trkpt lat="41.36473" lon="-8.760805">
        <ele>64.0</ele>
        <time>2019-07-05T18:51:16Z</time>
      </trkpt>
      <trkpt lat="41.364846666666665" lon="-8.76085">
        <ele>64.0</ele>
        <time>2019-07-05T18:51:18Z</time>
      </trkpt>
      <trkpt lat="41.36496" lon="-8.760895">
        <ele>64.0</ele>
        <time>2019-07-05T18:51:20Z</time>
      </trkpt>
      <trkpt lat="41.365071666666665" lon="-8.760945">
        <ele>64.0</ele>
        <time>2019-07-05T18:51:22Z</time>
      </trkpt>
      <trkpt lat="41.36518" lon="-8.760985">
        <ele>64.0</ele>
        <time>2019-07-05T18:51:24Z</time>
      </trkpt>
      <trkpt lat="41.365285" lon="-8.761025">
        <ele>64.0</ele>
        <time>2019-07-05T18:51:26Z</time>
      </trkpt>
      <trkpt lat="41.36539666666667" lon="-8.761065">
        <ele>64.0</ele>
        <time>2019-07-05T18:51:28Z</time>
      </trkpt>
      <trkpt lat="41.36551" lon="-8.761106666666667">
        <ele>64.0</ele>
        <time>2019-07-05T18:51:30Z</time>
      </trkpt>
      <trkpt lat="41.365625" lon="-8.761151666666667">
        <ele>64.0</ele>
        <time>2019-07-05T18:51:32Z</time>
      </trkpt>
      <trkpt lat="41.36574" lon="-8.7612">
        <ele>64.0</ele>
        <time>2019-07-05T18:51:34Z</time>
      </trkpt>
      <trkpt lat="41.36586" lon="-8.761245">
        <ele>64.0</ele>
        <time>2019-07-05T18:51:36Z</time>
      </trkpt>
      <trkpt lat="41.365975" lon="-8.76129">
        <ele>64.0</ele>
        <time>2019-07-05T18:51:38Z</time>
      </trkpt>
      <trkpt lat="41.366085" lon="-8.76135">
        <ele>64.0</ele>
        <time>2019-07-05T18:51:40Z</time>
      </trkpt>
      <trkpt lat="41.3662" lon="-8.7614">
        <ele>64.0</ele>
        <time>2019-07-05T18:51:42Z</time>
      </trkpt>
      <trkpt lat="41.366325" lon="-8.76143">
        <ele>64.0</ele>
        <time>2019-07-05T18:51:44Z</time>
      </trkpt>
      <trkpt lat="41.366456666666664" lon="-8.761455">
        <ele>63.0</ele>
        <time>2019-07-05T18:51:46Z</time>
      </trkpt>
      <trkpt lat="41.36658666666667" lon="-8.761475">
        <ele>63.0</ele>
        <time>2019-07-05T18:51:48Z</time>
      </trkpt>
      <trkpt lat="41.366725" lon="-8.761485">
        <ele>63.0</ele>
        <time>2019-07-05T18:51:50Z</time>
      </trkpt>
      <trkpt lat="41.36686" lon="-8.761481666666667">
        <ele>63.0</ele>
        <time>2019-07-05T18:51:52Z</time>
      </trkpt>
      <trkpt lat="41.366995" lon="-8.7615">
        <ele>63.0</ele>
        <time>2019-07-05T18:51:54Z</time>
      </trkpt>
      <trkpt lat="41.36713" lon="-8.761495">
        <ele>63.0</ele>
        <time>2019-07-05T18:51:56Z</time>
      </trkpt>
      <trkpt lat="41.367266666666666" lon="-8.76148">
        <ele>63.0</ele>
        <time>2019-07-05T18:51:58Z</time>
      </trkpt>
      <trkpt lat="41.367403333333336" lon="-8.76148">
        <ele>63.0</ele>
        <time>2019-07-05T18:52:00Z</time>
      </trkpt>
      <trkpt lat="41.36754" lon="-8.761475">
        <ele>63.0</ele>
        <time>2019-07-05T18:52:02Z</time>
      </trkpt>
      <trkpt lat="41.36768" lon="-8.76148">
        <ele>63.0</ele>
        <time>2019-07-05T18:52:04Z</time>
      </trkpt>
      <trkpt lat="41.367815" lon="-8.761495">
        <ele>63.0</ele>
        <time>2019-07-05T18:52:06Z</time>
      </trkpt>
      <trkpt lat="41.36795166666667" lon="-8.761495">
        <ele>63.0</ele>
        <time>2019-07-05T18:52:08Z</time>
      </trkpt>
      <trkpt lat="41.36808666666667" lon="-8.761505">
        <ele>62.0</ele>
        <time>2019-07-05T18:52:10Z</time>
      </trkpt>
      <trkpt lat="41.368225" lon="-8.761515">
        <ele>62.0</ele>
        <time>2019-07-05T18:52:12Z</time>
      </trkpt>
      <trkpt lat="41.36836" lon="-8.76152">
        <ele>62.0</ele>
        <time>2019-07-05T18:52:14Z</time>
      </trkpt>
      <trkpt lat="41.36849" lon="-8.761525">
        <ele>63.0</ele>
        <time>2019-07-05T18:52:16Z</time>
      </trkpt>
      <trkpt lat="41.36862" lon="-8.761536666666666">
        <ele>63.0</ele>
        <time>2019-07-05T18:52:18Z</time>
      </trkpt>
      <trkpt lat="41.36874" lon="-8.76155">
        <ele>63.0</ele>
        <time>2019-07-05T18:52:20Z</time>
      </trkpt>
      <trkpt lat="41.36886" lon="-8.761545">
        <ele>63.0</ele>
        <time>2019-07-05T18:52:22Z</time>
      </trkpt>
      <trkpt lat="41.368975" lon="-8.76155">
        <ele>63.0</ele>
        <time>2019-07-05T18:52:24Z</time>
      </trkpt>
      <trkpt lat="41.36909" lon="-8.761556666666667">
        <ele>63.0</ele>
        <time>2019-07-05T18:52:26Z</time>
      </trkpt>
      <trkpt lat="41.369205" lon="-8.76157">
        <ele>63.0</ele>
        <time>2019-07-05T18:52:28Z</time>
      </trkpt>
      <trkpt lat="41.36932" lon="-8.761575">
        <ele>63.0</ele>
        <time>2019-07-05T18:52:30Z</time>
      </trkpt>
      <trkpt lat="41.369435" lon="-8.76159">
        <ele>64.0</ele>
        <time>2019-07-05T18:52:32Z</time>
      </trkpt>
      <trkpt lat="41.369535" lon="-8.761596666666666">
        <ele>64.0</ele>
        <time>2019-07-05T18:52:34Z</time>
      </trkpt>
      <trkpt lat="41.369625" lon="-8.761618333333333">
        <ele>64.0</ele>
        <time>2019-07-05T18:52:36Z</time>
      </trkpt>
      <trkpt lat="41.369715" lon="-8.761635">
        <ele>64.0</ele>
        <time>2019-07-05T18:52:38Z</time>
      </trkpt>
      <trkpt lat="41.369795" lon="-8.761635">
        <ele>65.0</ele>
        <time>2019-07-05T18:52:40Z</time>
      </trkpt>
      <trkpt lat="41.36989166666667" lon="-8.761615">
        <ele>64.0</ele>
        <time>2019-07-05T18:52:42Z</time>
      </trkpt>
      <trkpt lat="41.370005" lon="-8.761615">
        <ele>64.0</ele>
        <time>2019-07-05T18:52:44Z</time>
      </trkpt>
      <trkpt lat="41.370131666666666" lon="-8.76162">
        <ele>64.0</ele>
        <time>2019-07-05T18:52:46Z</time>
      </trkpt>
      <trkpt lat="41.37025666666667" lon="-8.761625">
        <ele>64.0</ele>
        <time>2019-07-05T18:52:48Z</time>
      </trkpt>
      <trkpt lat="41.37037333333333" lon="-8.761631666666666">
        <ele>64.0</ele>
        <time>2019-07-05T18:52:50Z</time>
      </trkpt>
      <trkpt lat="41.37049" lon="-8.76164">
        <ele>65.0</ele>
        <time>2019-07-05T18:52:52Z</time>
      </trkpt>
      <trkpt lat="41.370605" lon="-8.761653333333333">
        <ele>65.0</ele>
        <time>2019-07-05T18:52:54Z</time>
      </trkpt>
      <trkpt lat="41.37072" lon="-8.76167">
        <ele>66.0</ele>
        <time>2019-07-05T18:52:56Z</time>
      </trkpt>
      <trkpt lat="41.37084" lon="-8.761676666666666">
        <ele>66.0</ele>
        <time>2019-07-05T18:52:58Z</time>
      </trkpt>
      <trkpt lat="41.370955" lon="-8.761685">
        <ele>66.0</ele>
        <time>2019-07-05T18:53:00Z</time>
      </trkpt>
      <trkpt lat="41.37107" lon="-8.761695">
        <ele>66.0</ele>
        <time>2019-07-05T18:53:02Z</time>
      </trkpt>
      <trkpt lat="41.371185" lon="-8.7617">
        <ele>66.0</ele>
        <time>2019-07-05T18:53:04Z</time>
      </trkpt>
      <trkpt lat="41.3713" lon="-8.761706666666667">
        <ele>66.0</ele>
        <time>2019-07-05T18:53:06Z</time>
      </trkpt>
      <trkpt lat="41.37142" lon="-8.76172">
        <ele>66.0</ele>
        <time>2019-07-05T18:53:08Z</time>
      </trkpt>
      <trkpt lat="41.371536666666664" lon="-8.761725">
        <ele>66.0</ele>
        <time>2019-07-05T18:53:10Z</time>
      </trkpt>
      <trkpt lat="41.371651666666665" lon="-8.761735">
        <ele>66.0</ele>
        <time>2019-07-05T18:53:12Z</time>
      </trkpt>
      <trkpt lat="41.371765" lon="-8.761745">
        <ele>66.0</ele>
        <time>2019-07-05T18:53:14Z</time>
      </trkpt>
      <trkpt lat="41.371876666666665" lon="-8.761756666666667">
        <ele>66.0</ele>
        <time>2019-07-05T18:53:16Z</time>
      </trkpt>
      <trkpt lat="41.371995" lon="-8.761745">
        <ele>66.0</ele>
        <time>2019-07-05T18:53:18Z</time>
      </trkpt>
      <trkpt lat="41.372101666666666" lon="-8.76173">
        <ele>66.0</ele>
        <time>2019-07-05T18:53:20Z</time>
      </trkpt>
      <trkpt lat="41.372205" lon="-8.761736666666666">
        <ele>66.0</ele>
        <time>2019-07-05T18:53:22Z</time>
      </trkpt>
      <trkpt lat="41.372301666666665" lon="-8.761745">
        <ele>67.0</ele>
        <time>2019-07-05T18:53:24Z</time>
      </trkpt>
      <trkpt lat="41.37239" lon="-8.761746666666667">
        <ele>67.0</ele>
        <time>2019-07-05T18:53:26Z</time>
      </trkpt>
      <trkpt lat="41.372481666666665" lon="-8.76177">
        <ele>67.0</ele>
        <time>2019-07-05T18:53:29Z</time>
      </trkpt>
      <trkpt lat="41.372575" lon="-8.761765">
        <ele>67.0</ele>
        <time>2019-07-05T18:53:31Z</time>
      </trkpt>
      <trkpt lat="41.372675" lon="-8.76177">
        <ele>67.0</ele>
        <time>2019-07-05T18:53:33Z</time>
      </trkpt>
      <trkpt lat="41.37279" lon="-8.761775">
        <ele>66.0</ele>
        <time>2019-07-05T18:53:35Z</time>
      </trkpt>
      <trkpt lat="41.372901666666664" lon="-8.761785">
        <ele>66.0</ele>
        <time>2019-07-05T18:53:37Z</time>
      </trkpt>
      <trkpt lat="41.37301" lon="-8.761795">
        <ele>66.0</ele>
        <time>2019-07-05T18:53:39Z</time>
      </trkpt>
      <trkpt lat="41.373115" lon="-8.761795">
        <ele>65.0</ele>
        <time>2019-07-05T18:53:41Z</time>
      </trkpt>
      <trkpt lat="41.373225" lon="-8.761806666666667">
        <ele>66.0</ele>
        <time>2019-07-05T18:53:43Z</time>
      </trkpt>
      <trkpt lat="41.37334" lon="-8.761825">
        <ele>65.0</ele>
        <time>2019-07-05T18:53:45Z</time>
      </trkpt>
      <trkpt lat="41.373455" lon="-8.761841666666667">
        <ele>65.0</ele>
        <time>2019-07-05T18:53:47Z</time>
      </trkpt>
      <trkpt lat="41.373565" lon="-8.76187">
        <ele>65.0</ele>
        <time>2019-07-05T18:53:49Z</time>
      </trkpt>
      <trkpt lat="41.37367" lon="-8.761911666666666">
        <ele>65.0</ele>
        <time>2019-07-05T18:53:51Z</time>
      </trkpt>
      <trkpt lat="41.37377" lon="-8.761931666666667">
        <ele>65.0</ele>
        <time>2019-07-05T18:53:53Z</time>
      </trkpt>
      <trkpt lat="41.37386" lon="-8.76195">
        <ele>65.0</ele>
        <time>2019-07-05T18:53:55Z</time>
      </trkpt>
      <trkpt lat="41.37393" lon="-8.761956666666666">
        <ele>65.0</ele>
        <time>2019-07-05T18:53:59Z</time>
      </trkpt>
      <trkpt lat="41.37401" lon="-8.761996666666667">
        <ele>66.0</ele>
        <time>2019-07-05T18:54:06Z</time>
      </trkpt>
      <trkpt lat="41.37412" lon="-8.762011666666666">
        <ele>67.0</ele>
        <time>2019-07-05T18:54:09Z</time>
      </trkpt>
      <trkpt lat="41.374215" lon="-8.762033333333333">
        <ele>67.0</ele>
        <time>2019-07-05T18:54:11Z</time>
      </trkpt>
      <trkpt lat="41.374325" lon="-8.76206">
        <ele>67.0</ele>
        <time>2019-07-05T18:54:13Z</time>
      </trkpt>
      <trkpt lat="41.374446666666664" lon="-8.762095">
        <ele>66.0</ele>
        <time>2019-07-05T18:54:15Z</time>
      </trkpt>
      <trkpt lat="41.37456" lon="-8.76214">
        <ele>66.0</ele>
        <time>2019-07-05T18:54:17Z</time>
      </trkpt>
      <trkpt lat="41.374675" lon="-8.762186666666667">
        <ele>65.0</ele>
        <time>2019-07-05T18:54:19Z</time>
      </trkpt>
      <trkpt lat="41.374785" lon="-8.76224">
        <ele>65.0</ele>
        <time>2019-07-05T18:54:21Z</time>
      </trkpt>
      <trkpt lat="41.3749" lon="-8.76229">
        <ele>65.0</ele>
        <time>2019-07-05T18:54:23Z</time>
      </trkpt>
      <trkpt lat="41.375011666666666" lon="-8.76235">
        <ele>64.0</ele>
        <time>2019-07-05T18:54:25Z</time>
      </trkpt>
      <trkpt lat="41.37513" lon="-8.76241">
        <ele>65.0</ele>
        <time>2019-07-05T18:54:27Z</time>
      </trkpt>
      <trkpt lat="41.375245" lon="-8.76247">
        <ele>65.0</ele>
        <time>2019-07-05T18:54:29Z</time>
      </trkpt>
      <trkpt lat="41.37536" lon="-8.76254">
        <ele>65.0</ele>
        <time>2019-07-05T18:54:31Z</time>
      </trkpt>
      <trkpt lat="41.37546" lon="-8.76262">
        <ele>65.0</ele>
        <time>2019-07-05T18:54:33Z</time>
      </trkpt>
      <trkpt lat="41.375555" lon="-8.7627">
        <ele>65.0</ele>
        <time>2019-07-05T18:54:35Z</time>
      </trkpt>
      <trkpt lat="41.37565" lon="-8.762785">
        <ele>65.0</ele>
        <time>2019-07-05T18:54:37Z</time>
      </trkpt>
      <trkpt lat="41.375745" lon="-8.762856666666666">
        <ele>65.0</ele>
        <time>2019-07-05T18:54:39Z</time>
      </trkpt>
      <trkpt lat="41.37581" lon="-8.762923333333333">
        <ele>65.0</ele>
        <time>2019-07-05T18:54:42Z</time>
      </trkpt>
      <trkpt lat="41.375885" lon="-8.76296">
        <ele>65.0</ele>
        <time>2019-07-05T18:54:48Z</time>
      </trkpt>
      <trkpt lat="41.37598166666667" lon="-8.76303">
        <ele>66.0</ele>
        <time>2019-07-05T18:54:51Z</time>
      </trkpt>
      <trkpt lat="41.376061666666665" lon="-8.763101666666667">
        <ele>66.0</ele>
        <time>2019-07-05T18:54:53Z</time>
      </trkpt>
      <trkpt lat="41.37614666666666" lon="-8.763196666666667">
        <ele>66.0</ele>
        <time>2019-07-05T18:54:55Z</time>
      </trkpt>
      <trkpt lat="41.37623" lon="-8.763326666666666">
        <ele>67.0</ele>
        <time>2019-07-05T18:54:57Z</time>
      </trkpt>
      <trkpt lat="41.37628" lon="-8.763396666666667">
        <ele>67.0</ele>
        <time>2019-07-05T18:54:58Z</time>
      </trkpt>
      <trkpt lat="41.37639" lon="-8.763505">
        <ele>67.0</ele>
        <time>2019-07-05T18:55:00Z</time>
      </trkpt>
      <trkpt lat="41.37650166666667" lon="-8.763588333333333">
        <ele>66.0</ele>
        <time>2019-07-05T18:55:02Z</time>
      </trkpt>
      <trkpt lat="41.376615" lon="-8.76366">
        <ele>66.0</ele>
        <time>2019-07-05T18:55:04Z</time>
      </trkpt>
      <trkpt lat="41.376725" lon="-8.763746666666666">
        <ele>65.0</ele>
        <time>2019-07-05T18:55:06Z</time>
      </trkpt>
      <trkpt lat="41.37681" lon="-8.76386">
        <ele>65.0</ele>
        <time>2019-07-05T18:55:08Z</time>
      </trkpt>
      <trkpt lat="41.376871666666666" lon="-8.764">
        <ele>66.0</ele>
        <time>2019-07-05T18:55:10Z</time>
      </trkpt>
      <trkpt lat="41.37691" lon="-8.76415">
        <ele>65.0</ele>
        <time>2019-07-05T18:55:12Z</time>
      </trkpt>
      <trkpt lat="41.37695" lon="-8.764288333333333">
        <ele>65.0</ele>
        <time>2019-07-05T18:55:14Z</time>
      </trkpt>
      <trkpt lat="41.377025" lon="-8.764381666666667">
        <ele>66.0</ele>
        <time>2019-07-05T18:55:16Z</time>
      </trkpt>
      <trkpt lat="41.37711" lon="-8.764435">
        <ele>66.0</ele>
        <time>2019-07-05T18:55:18Z</time>
      </trkpt>
      <trkpt lat="41.377201666666664" lon="-8.764496666666666">
        <ele>66.0</ele>
        <time>2019-07-05T18:55:20Z</time>
      </trkpt>
      <trkpt lat="41.377295" lon="-8.76457">
        <ele>65.0</ele>
        <time>2019-07-05T18:55:22Z</time>
      </trkpt>
      <trkpt lat="41.377385" lon="-8.76467">
        <ele>65.0</ele>
        <time>2019-07-05T18:55:24Z</time>
      </trkpt>
      <trkpt lat="41.377455" lon="-8.76481">
        <ele>65.0</ele>
        <time>2019-07-05T18:55:26Z</time>
      </trkpt>
      <trkpt lat="41.377515" lon="-8.764955">
        <ele>64.0</ele>
        <time>2019-07-05T18:55:28Z</time>
      </trkpt>
      <trkpt lat="41.37757" lon="-8.765115">
        <ele>64.0</ele>
        <time>2019-07-05T18:55:30Z</time>
      </trkpt>
      <trkpt lat="41.37764" lon="-8.765275">
        <ele>64.0</ele>
        <time>2019-07-05T18:55:32Z</time>
      </trkpt>
      <trkpt lat="41.3777" lon="-8.765445">
        <ele>63.0</ele>
        <time>2019-07-05T18:55:34Z</time>
      </trkpt>
      <trkpt lat="41.377745" lon="-8.765616666666666">
        <ele>63.0</ele>
        <time>2019-07-05T18:55:36Z</time>
      </trkpt>
      <trkpt lat="41.377788333333335" lon="-8.765781666666667">
        <ele>63.0</ele>
        <time>2019-07-05T18:55:38Z</time>
      </trkpt>
      <trkpt lat="41.377835" lon="-8.76595">
        <ele>62.0</ele>
        <time>2019-07-05T18:55:40Z</time>
      </trkpt>
      <trkpt lat="41.377871666666664" lon="-8.766115">
        <ele>62.0</ele>
        <time>2019-07-05T18:55:42Z</time>
      </trkpt>
      <trkpt lat="41.37790666666667" lon="-8.766281666666666">
        <ele>62.0</ele>
        <time>2019-07-05T18:55:44Z</time>
      </trkpt>
      <trkpt lat="41.377943333333334" lon="-8.76644">
        <ele>62.0</ele>
        <time>2019-07-05T18:55:46Z</time>
      </trkpt>
      <trkpt lat="41.37798166666666" lon="-8.766595">
        <ele>62.0</ele>
        <time>2019-07-05T18:55:48Z</time>
      </trkpt>
      <trkpt lat="41.37802" lon="-8.766755">
        <ele>62.0</ele>
        <time>2019-07-05T18:55:50Z</time>
      </trkpt>
      <trkpt lat="41.378055" lon="-8.7669">
        <ele>63.0</ele>
        <time>2019-07-05T18:55:52Z</time>
      </trkpt>
      <trkpt lat="41.37809333333333" lon="-8.767035">
        <ele>63.0</ele>
        <time>2019-07-05T18:55:54Z</time>
      </trkpt>
      <trkpt lat="41.378125" lon="-8.76716">
        <ele>63.0</ele>
        <time>2019-07-05T18:55:56Z</time>
      </trkpt>
      <trkpt lat="41.378145" lon="-8.767276666666667">
        <ele>63.0</ele>
        <time>2019-07-05T18:55:58Z</time>
      </trkpt>
      <trkpt lat="41.378175" lon="-8.76739">
        <ele>63.0</ele>
        <time>2019-07-05T18:56:00Z</time>
      </trkpt>
      <trkpt lat="41.37821" lon="-8.76749">
        <ele>63.0</ele>
        <time>2019-07-05T18:56:02Z</time>
      </trkpt>
      <trkpt lat="41.37829" lon="-8.767515">
        <ele>63.0</ele>
        <time>2019-07-05T18:56:04Z</time>
      </trkpt>
      <trkpt lat="41.378386666666664" lon="-8.76751">
        <ele>63.0</ele>
        <time>2019-07-05T18:56:06Z</time>
      </trkpt>
      <trkpt lat="41.378495" lon="-8.767536666666667">
        <ele>63.0</ele>
        <time>2019-07-05T18:56:08Z</time>
      </trkpt>
      <trkpt lat="41.378605" lon="-8.7676">
        <ele>63.0</ele>
        <time>2019-07-05T18:56:10Z</time>
      </trkpt>
      <trkpt lat="41.378706666666666" lon="-8.767676666666667">
        <ele>62.0</ele>
        <time>2019-07-05T18:56:12Z</time>
      </trkpt>
      <trkpt lat="41.3788" lon="-8.76775">
        <ele>63.0</ele>
        <time>2019-07-05T18:56:14Z</time>
      </trkpt>
      <trkpt lat="41.378895" lon="-8.76781">
        <ele>62.0</ele>
        <time>2019-07-05T18:56:16Z</time>
      </trkpt>
      <trkpt lat="41.378995" lon="-8.767865">
        <ele>62.0</ele>
        <time>2019-07-05T18:56:18Z</time>
      </trkpt>
      <trkpt lat="41.37909" lon="-8.767925">
        <ele>63.0</ele>
        <time>2019-07-05T18:56:20Z</time>
      </trkpt>
      <trkpt lat="41.379185" lon="-8.76798">
        <ele>63.0</ele>
        <time>2019-07-05T18:56:22Z</time>
      </trkpt>
      <trkpt lat="41.37927666666667" lon="-8.768035">
        <ele>63.0</ele>
        <time>2019-07-05T18:56:24Z</time>
      </trkpt>
      <trkpt lat="41.37936666666667" lon="-8.768091666666667">
        <ele>64.0</ele>
        <time>2019-07-05T18:56:26Z</time>
      </trkpt>
      <trkpt lat="41.379455" lon="-8.76815">
        <ele>64.0</ele>
        <time>2019-07-05T18:56:28Z</time>
      </trkpt>
      <trkpt lat="41.379533333333335" lon="-8.768186666666667">
        <ele>64.0</ele>
        <time>2019-07-05T18:56:30Z</time>
      </trkpt>
      <trkpt lat="41.379625" lon="-8.768185">
        <ele>64.0</ele>
        <time>2019-07-05T18:56:32Z</time>
      </trkpt>
      <trkpt lat="41.379706666666664" lon="-8.768228333333333">
        <ele>64.0</ele>
        <time>2019-07-05T18:56:34Z</time>
      </trkpt>
      <trkpt lat="41.379801666666665" lon="-8.768275">
        <ele>64.0</ele>
        <time>2019-07-05T18:56:36Z</time>
      </trkpt>
      <trkpt lat="41.3799" lon="-8.768335">
        <ele>64.0</ele>
        <time>2019-07-05T18:56:38Z</time>
      </trkpt>
      <trkpt lat="41.380005" lon="-8.76839">
        <ele>64.0</ele>
        <time>2019-07-05T18:56:40Z</time>
      </trkpt>
      <trkpt lat="41.3801" lon="-8.768461666666667">
        <ele>64.0</ele>
        <time>2019-07-05T18:56:42Z</time>
      </trkpt>
      <trkpt lat="41.380195" lon="-8.768541666666666">
        <ele>64.0</ele>
        <time>2019-07-05T18:56:44Z</time>
      </trkpt>
      <trkpt lat="41.380285" lon="-8.768616666666667">
        <ele>64.0</ele>
        <time>2019-07-05T18:56:46Z</time>
      </trkpt>
      <trkpt lat="41.380375" lon="-8.76869">
        <ele>65.0</ele>
        <time>2019-07-05T18:56:48Z</time>
      </trkpt>
      <trkpt lat="41.38047" lon="-8.76877">
        <ele>66.0</ele>
        <time>2019-07-05T18:56:50Z</time>
      </trkpt>
      <trkpt lat="41.380555" lon="-8.768861666666666">
        <ele>67.0</ele>
        <time>2019-07-05T18:56:52Z</time>
      </trkpt>
      <trkpt lat="41.380655" lon="-8.768946666666666">
        <ele>67.0</ele>
        <time>2019-07-05T18:56:54Z</time>
      </trkpt>
      <trkpt lat="41.380755" lon="-8.76903">
        <ele>66.0</ele>
        <time>2019-07-05T18:56:56Z</time>
      </trkpt>
      <trkpt lat="41.38086" lon="-8.76911">
        <ele>66.0</ele>
        <time>2019-07-05T18:56:58Z</time>
      </trkpt>
      <trkpt lat="41.380965" lon="-8.7692">
        <ele>65.0</ele>
        <time>2019-07-05T18:57:00Z</time>
      </trkpt>
      <trkpt lat="41.381051666666664" lon="-8.769265">
        <ele>65.0</ele>
        <time>2019-07-05T18:57:02Z</time>
      </trkpt>
      <trkpt lat="41.381141666666664" lon="-8.769335">
        <ele>65.0</ele>
        <time>2019-07-05T18:57:04Z</time>
      </trkpt>
      <trkpt lat="41.381231666666665" lon="-8.76941">
        <ele>66.0</ele>
        <time>2019-07-05T18:57:06Z</time>
      </trkpt>
      <trkpt lat="41.381325" lon="-8.769485">
        <ele>65.0</ele>
        <time>2019-07-05T18:57:08Z</time>
      </trkpt>
      <trkpt lat="41.381425" lon="-8.769571666666666">
        <ele>65.0</ele>
        <time>2019-07-05T18:57:10Z</time>
      </trkpt>
      <trkpt lat="41.38153" lon="-8.769656666666666">
        <ele>65.0</ele>
        <time>2019-07-05T18:57:12Z</time>
      </trkpt>
      <trkpt lat="41.381635" lon="-8.769741666666667">
        <ele>65.0</ele>
        <time>2019-07-05T18:57:14Z</time>
      </trkpt>
      <trkpt lat="41.381735" lon="-8.769826666666667">
        <ele>66.0</ele>
        <time>2019-07-05T18:57:16Z</time>
      </trkpt>
      <trkpt lat="41.38185" lon="-8.769906666666667">
        <ele>65.0</ele>
        <time>2019-07-05T18:57:18Z</time>
      </trkpt>
      <trkpt lat="41.38196" lon="-8.769985">
        <ele>65.0</ele>
        <time>2019-07-05T18:57:20Z</time>
      </trkpt>
      <trkpt lat="41.382075" lon="-8.770051666666667">
        <ele>64.0</ele>
        <time>2019-07-05T18:57:22Z</time>
      </trkpt>
      <trkpt lat="41.382178333333336" lon="-8.77012">
        <ele>65.0</ele>
        <time>2019-07-05T18:57:24Z</time>
      </trkpt>
      <trkpt lat="41.382285" lon="-8.770185">
        <ele>65.0</ele>
        <time>2019-07-05T18:57:26Z</time>
      </trkpt>
      <trkpt lat="41.38240166666667" lon="-8.770245">
        <ele>64.0</ele>
        <time>2019-07-05T18:57:28Z</time>
      </trkpt>
      <trkpt lat="41.38251" lon="-8.770311666666666">
        <ele>63.0</ele>
        <time>2019-07-05T18:57:30Z</time>
      </trkpt>
      <trkpt lat="41.382615" lon="-8.77038">
        <ele>64.0</ele>
        <time>2019-07-05T18:57:32Z</time>
      </trkpt>
      <trkpt lat="41.38271666666667" lon="-8.770441666666667">
        <ele>64.0</ele>
        <time>2019-07-05T18:57:34Z</time>
      </trkpt>
      <trkpt lat="41.382826666666666" lon="-8.770505">
        <ele>64.0</ele>
        <time>2019-07-05T18:57:36Z</time>
      </trkpt>
      <trkpt lat="41.382938333333335" lon="-8.77057">
        <ele>63.0</ele>
        <time>2019-07-05T18:57:38Z</time>
      </trkpt>
      <trkpt lat="41.38305" lon="-8.770635">
        <ele>64.0</ele>
        <time>2019-07-05T18:57:40Z</time>
      </trkpt>
      <trkpt lat="41.383161666666666" lon="-8.770701666666668">
        <ele>64.0</ele>
        <time>2019-07-05T18:57:42Z</time>
      </trkpt>
      <trkpt lat="41.38327666666667" lon="-8.77076">
        <ele>64.0</ele>
        <time>2019-07-05T18:57:44Z</time>
      </trkpt>
      <trkpt lat="41.383385" lon="-8.770825">
        <ele>64.0</ele>
        <time>2019-07-05T18:57:46Z</time>
      </trkpt>
      <trkpt lat="41.38348833333333" lon="-8.770886666666666">
        <ele>65.0</ele>
        <time>2019-07-05T18:57:48Z</time>
      </trkpt>
      <trkpt lat="41.38359166666667" lon="-8.770955">
        <ele>65.0</ele>
        <time>2019-07-05T18:57:50Z</time>
      </trkpt>
      <trkpt lat="41.383685" lon="-8.77102">
        <ele>65.0</ele>
        <time>2019-07-05T18:57:52Z</time>
      </trkpt>
      <trkpt lat="41.38380166666666" lon="-8.771088333333333">
        <ele>65.0</ele>
        <time>2019-07-05T18:57:54Z</time>
      </trkpt>
      <trkpt lat="41.38390666666667" lon="-8.771143333333333">
        <ele>65.0</ele>
        <time>2019-07-05T18:57:56Z</time>
      </trkpt>
      <trkpt lat="41.384025" lon="-8.7712">
        <ele>65.0</ele>
        <time>2019-07-05T18:57:58Z</time>
      </trkpt>
      <trkpt lat="41.384125" lon="-8.77125">
        <ele>66.0</ele>
        <time>2019-07-05T18:58:00Z</time>
      </trkpt>
      <trkpt lat="41.384215" lon="-8.771306666666666">
        <ele>66.0</ele>
        <time>2019-07-05T18:58:02Z</time>
      </trkpt>
      <trkpt lat="41.38431166666667" lon="-8.771375">
        <ele>66.0</ele>
        <time>2019-07-05T18:58:04Z</time>
      </trkpt>
      <trkpt lat="41.384425" lon="-8.771435">
        <ele>66.0</ele>
        <time>2019-07-05T18:58:06Z</time>
      </trkpt>
      <trkpt lat="41.384535" lon="-8.771501666666667">
        <ele>66.0</ele>
        <time>2019-07-05T18:58:08Z</time>
      </trkpt>
      <trkpt lat="41.384645" lon="-8.771565">
        <ele>67.0</ele>
        <time>2019-07-05T18:58:10Z</time>
      </trkpt>
      <trkpt lat="41.38476" lon="-8.771625">
        <ele>66.0</ele>
        <time>2019-07-05T18:58:12Z</time>
      </trkpt>
      <trkpt lat="41.384865" lon="-8.77169">
        <ele>66.0</ele>
        <time>2019-07-05T18:58:14Z</time>
      </trkpt>
      <trkpt lat="41.384975" lon="-8.77175">
        <ele>66.0</ele>
        <time>2019-07-05T18:58:16Z</time>
      </trkpt>
      <trkpt lat="41.385085" lon="-8.77181">
        <ele>66.0</ele>
        <time>2019-07-05T18:58:18Z</time>
      </trkpt>
      <trkpt lat="41.3852" lon="-8.771875">
        <ele>65.0</ele>
        <time>2019-07-05T18:58:20Z</time>
      </trkpt>
      <trkpt lat="41.385305" lon="-8.771938333333333">
        <ele>65.0</ele>
        <time>2019-07-05T18:58:22Z</time>
      </trkpt>
      <trkpt lat="41.38541" lon="-8.771996666666666">
        <ele>65.0</ele>
        <time>2019-07-05T18:58:24Z</time>
      </trkpt>
      <trkpt lat="41.385511666666666" lon="-8.77205">
        <ele>65.0</ele>
        <time>2019-07-05T18:58:26Z</time>
      </trkpt>
      <trkpt lat="41.385605" lon="-8.7721">
        <ele>65.0</ele>
        <time>2019-07-05T18:58:28Z</time>
      </trkpt>
      <trkpt lat="41.385685" lon="-8.772145">
        <ele>65.0</ele>
        <time>2019-07-05T18:58:30Z</time>
      </trkpt>
      <trkpt lat="41.385765" lon="-8.772195">
        <ele>66.0</ele>
        <time>2019-07-05T18:58:32Z</time>
      </trkpt>
      <trkpt lat="41.38583166666667" lon="-8.772251666666667">
        <ele>66.0</ele>
        <time>2019-07-05T18:58:34Z</time>
      </trkpt>
      <trkpt lat="41.385885" lon="-8.772365">
        <ele>66.0</ele>
        <time>2019-07-05T18:58:37Z</time>
      </trkpt>
      <trkpt lat="41.385955" lon="-8.772451666666667">
        <ele>66.0</ele>
        <time>2019-07-05T18:58:40Z</time>
      </trkpt>
      <trkpt lat="41.38602" lon="-8.772495">
        <ele>66.0</ele>
        <time>2019-07-05T18:58:42Z</time>
      </trkpt>
      <trkpt lat="41.38610666666667" lon="-8.772531666666668">
        <ele>66.0</ele>
        <time>2019-07-05T18:58:44Z</time>
      </trkpt>
      <trkpt lat="41.38619" lon="-8.77259">
        <ele>67.0</ele>
        <time>2019-07-05T18:58:46Z</time>
      </trkpt>
      <trkpt lat="41.3863" lon="-8.77261">
        <ele>67.0</ele>
        <time>2019-07-05T18:58:48Z</time>
      </trkpt>
      <trkpt lat="41.38641166666667" lon="-8.772625">
        <ele>66.0</ele>
        <time>2019-07-05T18:58:50Z</time>
      </trkpt>
      <trkpt lat="41.38651" lon="-8.772675">
        <ele>66.0</ele>
        <time>2019-07-05T18:58:52Z</time>
      </trkpt>
      <trkpt lat="41.38659" lon="-8.772731666666667">
        <ele>66.0</ele>
        <time>2019-07-05T18:58:54Z</time>
      </trkpt>
      <trkpt lat="41.386665" lon="-8.772785">
        <ele>66.0</ele>
        <time>2019-07-05T18:58:56Z</time>
      </trkpt>
      <trkpt lat="41.38675" lon="-8.772825">
        <ele>66.0</ele>
        <time>2019-07-05T18:58:58Z</time>
      </trkpt>
      <trkpt lat="41.38685" lon="-8.772868333333333">
        <ele>66.0</ele>
        <time>2019-07-05T18:59:00Z</time>
      </trkpt>
      <trkpt lat="41.38695" lon="-8.77294">
        <ele>65.0</ele>
        <time>2019-07-05T18:59:02Z</time>
      </trkpt>
      <trkpt lat="41.387055" lon="-8.773005">
        <ele>66.0</ele>
        <time>2019-07-05T18:59:04Z</time>
      </trkpt>
      <trkpt lat="41.387145" lon="-8.77305">
        <ele>66.0</ele>
        <time>2019-07-05T18:59:06Z</time>
      </trkpt>
      <trkpt lat="41.38722166666667" lon="-8.773086666666666">
        <ele>68.0</ele>
        <time>2019-07-05T18:59:08Z</time>
      </trkpt>
      <trkpt lat="41.38731" lon="-8.773136666666666">
        <ele>68.0</ele>
        <time>2019-07-05T18:59:10Z</time>
      </trkpt>
      <trkpt lat="41.387395" lon="-8.773185">
        <ele>68.0</ele>
        <time>2019-07-05T18:59:12Z</time>
      </trkpt>
      <trkpt lat="41.387475" lon="-8.773235">
        <ele>68.0</ele>
        <time>2019-07-05T18:59:14Z</time>
      </trkpt>
      <trkpt lat="41.38754" lon="-8.773286666666667">
        <ele>68.0</ele>
        <time>2019-07-05T18:59:16Z</time>
      </trkpt>
      <trkpt lat="41.387625" lon="-8.77334">
        <ele>67.0</ele>
        <time>2019-07-05T18:59:19Z</time>
      </trkpt>
      <trkpt lat="41.387708333333336" lon="-8.773335">
        <ele>67.0</ele>
        <time>2019-07-05T18:59:22Z</time>
      </trkpt>
      <trkpt lat="41.38778833333333" lon="-8.77336">
        <ele>67.0</ele>
        <time>2019-07-05T18:59:24Z</time>
      </trkpt>
      <trkpt lat="41.387875" lon="-8.7734">
        <ele>67.0</ele>
        <time>2019-07-05T18:59:26Z</time>
      </trkpt>
      <trkpt lat="41.387951666666666" lon="-8.77344">
        <ele>67.0</ele>
        <time>2019-07-05T18:59:28Z</time>
      </trkpt>
      <trkpt lat="41.38803" lon="-8.773485">
        <ele>68.0</ele>
        <time>2019-07-05T18:59:30Z</time>
      </trkpt>
      <trkpt lat="41.388106666666665" lon="-8.773525">
        <ele>68.0</ele>
        <time>2019-07-05T18:59:32Z</time>
      </trkpt>
      <trkpt lat="41.38819" lon="-8.77358">
        <ele>68.0</ele>
        <time>2019-07-05T18:59:34Z</time>
      </trkpt>
      <trkpt lat="41.388265" lon="-8.77362">
        <ele>68.0</ele>
        <time>2019-07-05T18:59:36Z</time>
      </trkpt>
      <trkpt lat="41.38835666666667" lon="-8.77365">
        <ele>67.0</ele>
        <time>2019-07-05T18:59:38Z</time>
      </trkpt>
      <trkpt lat="41.38845666666667" lon="-8.773671666666667">
        <ele>67.0</ele>
        <time>2019-07-05T18:59:40Z</time>
      </trkpt>
      <trkpt lat="41.388565" lon="-8.77372">
        <ele>67.0</ele>
        <time>2019-07-05T18:59:42Z</time>
      </trkpt>
      <trkpt lat="41.38868" lon="-8.77379">
        <ele>67.0</ele>
        <time>2019-07-05T18:59:44Z</time>
      </trkpt>
      <trkpt lat="41.38879" lon="-8.77386">
        <ele>67.0</ele>
        <time>2019-07-05T18:59:46Z</time>
      </trkpt>
      <trkpt lat="41.388905" lon="-8.773921666666666">
        <ele>67.0</ele>
        <time>2019-07-05T18:59:48Z</time>
      </trkpt>
      <trkpt lat="41.389015" lon="-8.77397">
        <ele>66.0</ele>
        <time>2019-07-05T18:59:50Z</time>
      </trkpt>
      <trkpt lat="41.389135" lon="-8.774001666666667">
        <ele>66.0</ele>
        <time>2019-07-05T18:59:52Z</time>
      </trkpt>
      <trkpt lat="41.389245" lon="-8.77401">
        <ele>67.0</ele>
        <time>2019-07-05T18:59:54Z</time>
      </trkpt>
      <trkpt lat="41.389355" lon="-8.77401">
        <ele>67.0</ele>
        <time>2019-07-05T18:59:56Z</time>
      </trkpt>
      <trkpt lat="41.389465" lon="-8.774016666666666">
        <ele>67.0</ele>
        <time>2019-07-05T18:59:58Z</time>
      </trkpt>
      <trkpt lat="41.38957" lon="-8.774015">
        <ele>67.0</ele>
        <time>2019-07-05T19:00:00Z</time>
      </trkpt>
      <trkpt lat="41.389678333333336" lon="-8.774026666666666">
        <ele>67.0</ele>
        <time>2019-07-05T19:00:02Z</time>
      </trkpt>
      <trkpt lat="41.389785" lon="-8.77404">
        <ele>67.0</ele>
        <time>2019-07-05T19:00:04Z</time>
      </trkpt>
      <trkpt lat="41.389885" lon="-8.774043333333333">
        <ele>67.0</ele>
        <time>2019-07-05T19:00:06Z</time>
      </trkpt>
      <trkpt lat="41.38999166666667" lon="-8.774036666666667">
        <ele>67.0</ele>
        <time>2019-07-05T19:00:08Z</time>
      </trkpt>
      <trkpt lat="41.390095" lon="-8.774026666666666">
        <ele>66.0</ele>
        <time>2019-07-05T19:00:10Z</time>
      </trkpt>
      <trkpt lat="41.390195" lon="-8.77402">
        <ele>66.0</ele>
        <time>2019-07-05T19:00:12Z</time>
      </trkpt>
      <trkpt lat="41.390295" lon="-8.774025">
        <ele>65.0</ele>
        <time>2019-07-05T19:00:14Z</time>
      </trkpt>
      <trkpt lat="41.39039" lon="-8.774021666666666">
        <ele>65.0</ele>
        <time>2019-07-05T19:00:16Z</time>
      </trkpt>
      <trkpt lat="41.390475" lon="-8.774021666666666">
        <ele>65.0</ele>
        <time>2019-07-05T19:00:18Z</time>
      </trkpt>
      <trkpt lat="41.39055" lon="-8.773995">
        <ele>65.0</ele>
        <time>2019-07-05T19:00:20Z</time>
      </trkpt>
      <trkpt lat="41.390636666666666" lon="-8.773975">
        <ele>66.0</ele>
        <time>2019-07-05T19:00:22Z</time>
      </trkpt>
      <trkpt lat="41.390735" lon="-8.773985">
        <ele>66.0</ele>
        <time>2019-07-05T19:00:24Z</time>
      </trkpt>
      <trkpt lat="41.390845" lon="-8.77398">
        <ele>66.0</ele>
        <time>2019-07-05T19:00:26Z</time>
      </trkpt>
      <trkpt lat="41.39095666666667" lon="-8.774">
        <ele>66.0</ele>
        <time>2019-07-05T19:00:28Z</time>
      </trkpt>
      <trkpt lat="41.39107" lon="-8.774035">
        <ele>66.0</ele>
        <time>2019-07-05T19:00:30Z</time>
      </trkpt>
      <trkpt lat="41.39117" lon="-8.774098333333333">
        <ele>66.0</ele>
        <time>2019-07-05T19:00:32Z</time>
      </trkpt>
      <trkpt lat="41.39128" lon="-8.774145">
        <ele>66.0</ele>
        <time>2019-07-05T19:00:34Z</time>
      </trkpt>
      <trkpt lat="41.391385" lon="-8.774181666666667">
        <ele>66.0</ele>
        <time>2019-07-05T19:00:36Z</time>
      </trkpt>
      <trkpt lat="41.39147666666667" lon="-8.774231666666667">
        <ele>65.0</ele>
        <time>2019-07-05T19:00:38Z</time>
      </trkpt>
      <trkpt lat="41.39157" lon="-8.7743">
        <ele>65.0</ele>
        <time>2019-07-05T19:00:40Z</time>
      </trkpt>
      <trkpt lat="41.391655" lon="-8.774363333333334">
        <ele>65.0</ele>
        <time>2019-07-05T19:00:42Z</time>
      </trkpt>
      <trkpt lat="41.391745" lon="-8.774411666666667">
        <ele>65.0</ele>
        <time>2019-07-05T19:00:44Z</time>
      </trkpt>
      <trkpt lat="41.391835" lon="-8.774455">
        <ele>65.0</ele>
        <time>2019-07-05T19:00:46Z</time>
      </trkpt>
      <trkpt lat="41.39192" lon="-8.774506666666667">
        <ele>65.0</ele>
        <time>2019-07-05T19:00:48Z</time>
      </trkpt>
      <trkpt lat="41.391995" lon="-8.77459">
        <ele>66.0</ele>
        <time>2019-07-05T19:00:50Z</time>
      </trkpt>
      <trkpt lat="41.392075" lon="-8.77468">
        <ele>66.0</ele>
        <time>2019-07-05T19:00:52Z</time>
      </trkpt>
      <trkpt lat="41.39216" lon="-8.774765">
        <ele>66.0</ele>
        <time>2019-07-05T19:00:54Z</time>
      </trkpt>
      <trkpt lat="41.392245" lon="-8.774865">
        <ele>66.0</ele>
        <time>2019-07-05T19:00:56Z</time>
      </trkpt>
      <trkpt lat="41.392336666666665" lon="-8.774956666666666">
        <ele>66.0</ele>
        <time>2019-07-05T19:00:58Z</time>
      </trkpt>
      <trkpt lat="41.392426666666665" lon="-8.775065">
        <ele>66.0</ele>
        <time>2019-07-05T19:01:00Z</time>
      </trkpt>
      <trkpt lat="41.392505" lon="-8.775176666666667">
        <ele>66.0</ele>
        <time>2019-07-05T19:01:02Z</time>
      </trkpt>
      <trkpt lat="41.392555" lon="-8.775265">
        <ele>66.0</ele>
        <time>2019-07-05T19:01:04Z</time>
      </trkpt>
      <trkpt lat="41.392595" lon="-8.775368333333333">
        <ele>66.0</ele>
        <time>2019-07-05T19:01:07Z</time>
      </trkpt>
      <trkpt lat="41.39264" lon="-8.775441666666667">
        <ele>67.0</ele>
        <time>2019-07-05T19:01:09Z</time>
      </trkpt>
      <trkpt lat="41.39271" lon="-8.77551">
        <ele>67.0</ele>
        <time>2019-07-05T19:01:11Z</time>
      </trkpt>
      <trkpt lat="41.39277" lon="-8.775585">
        <ele>67.0</ele>
        <time>2019-07-05T19:01:14Z</time>
      </trkpt>
      <trkpt lat="41.392845" lon="-8.77566">
        <ele>68.0</ele>
        <time>2019-07-05T19:01:18Z</time>
      </trkpt>
      <trkpt lat="41.3929" lon="-8.775728333333333">
        <ele>68.0</ele>
        <time>2019-07-05T19:01:20Z</time>
      </trkpt>
      <trkpt lat="41.39297" lon="-8.77581">
        <ele>68.0</ele>
        <time>2019-07-05T19:01:22Z</time>
      </trkpt>
      <trkpt lat="41.393045" lon="-8.77587">
        <ele>68.0</ele>
        <time>2019-07-05T19:01:24Z</time>
      </trkpt>
      <trkpt lat="41.39311" lon="-8.775935">
        <ele>69.0</ele>
        <time>2019-07-05T19:01:26Z</time>
      </trkpt>
      <trkpt lat="41.39319" lon="-8.776026666666667">
        <ele>69.0</ele>
        <time>2019-07-05T19:01:28Z</time>
      </trkpt>
      <trkpt lat="41.39327" lon="-8.776116666666667">
        <ele>69.0</ele>
        <time>2019-07-05T19:01:30Z</time>
      </trkpt>
      <trkpt lat="41.393346666666666" lon="-8.776225">
        <ele>69.0</ele>
        <time>2019-07-05T19:01:32Z</time>
      </trkpt>
      <trkpt lat="41.393425" lon="-8.776325">
        <ele>69.0</ele>
        <time>2019-07-05T19:01:34Z</time>
      </trkpt>
      <trkpt lat="41.393515" lon="-8.776411666666666">
        <ele>68.0</ele>
        <time>2019-07-05T19:01:36Z</time>
      </trkpt>
      <trkpt lat="41.393615" lon="-8.776485">
        <ele>67.0</ele>
        <time>2019-07-05T19:01:38Z</time>
      </trkpt>
      <trkpt lat="41.393695" lon="-8.77656">
        <ele>67.0</ele>
        <time>2019-07-05T19:01:40Z</time>
      </trkpt>
      <trkpt lat="41.393766666666664" lon="-8.776625">
        <ele>68.0</ele>
        <time>2019-07-05T19:01:42Z</time>
      </trkpt>
      <trkpt lat="41.393856666666665" lon="-8.776675">
        <ele>68.0</ele>
        <time>2019-07-05T19:01:44Z</time>
      </trkpt>
      <trkpt lat="41.393955" lon="-8.77674">
        <ele>68.0</ele>
        <time>2019-07-05T19:01:46Z</time>
      </trkpt>
      <trkpt lat="41.394061666666666" lon="-8.776808333333333">
        <ele>68.0</ele>
        <time>2019-07-05T19:01:48Z</time>
      </trkpt>
      <trkpt lat="41.39416" lon="-8.776885">
        <ele>68.0</ele>
        <time>2019-07-05T19:01:50Z</time>
      </trkpt>
      <trkpt lat="41.39425" lon="-8.77694">
        <ele>68.0</ele>
        <time>2019-07-05T19:01:52Z</time>
      </trkpt>
      <trkpt lat="41.394346666666664" lon="-8.776971666666666">
        <ele>68.0</ele>
        <time>2019-07-05T19:01:54Z</time>
      </trkpt>
      <trkpt lat="41.394435" lon="-8.77702">
        <ele>68.0</ele>
        <time>2019-07-05T19:01:56Z</time>
      </trkpt>
      <trkpt lat="41.39452166666667" lon="-8.77707">
        <ele>68.0</ele>
        <time>2019-07-05T19:01:58Z</time>
      </trkpt>
      <trkpt lat="41.3946" lon="-8.77712">
        <ele>68.0</ele>
        <time>2019-07-05T19:02:00Z</time>
      </trkpt>
      <trkpt lat="41.39468" lon="-8.777155">
        <ele>67.0</ele>
        <time>2019-07-05T19:02:02Z</time>
      </trkpt>
      <trkpt lat="41.39475" lon="-8.777165">
        <ele>68.0</ele>
        <time>2019-07-05T19:02:05Z</time>
      </trkpt>
      <trkpt lat="41.394835" lon="-8.777155">
        <ele>67.0</ele>
        <time>2019-07-05T19:02:12Z</time>
      </trkpt>
      <trkpt lat="41.394935" lon="-8.777175">
        <ele>67.0</ele>
        <time>2019-07-05T19:02:15Z</time>
      </trkpt>
      <trkpt lat="41.39503" lon="-8.777201666666667">
        <ele>68.0</ele>
        <time>2019-07-05T19:02:17Z</time>
      </trkpt>
      <trkpt lat="41.395115" lon="-8.777255">
        <ele>67.0</ele>
        <time>2019-07-05T19:02:19Z</time>
      </trkpt>
      <trkpt lat="41.395195" lon="-8.777305">
        <ele>67.0</ele>
        <time>2019-07-05T19:02:21Z</time>
      </trkpt>
      <trkpt lat="41.39526" lon="-8.777355">
        <ele>67.0</ele>
        <time>2019-07-05T19:02:23Z</time>
      </trkpt>
      <trkpt lat="41.395325" lon="-8.777411666666668">
        <ele>67.0</ele>
        <time>2019-07-05T19:02:25Z</time>
      </trkpt>
      <trkpt lat="41.39541" lon="-8.77748">
        <ele>68.0</ele>
        <time>2019-07-05T19:02:28Z</time>
      </trkpt>
      <trkpt lat="41.395475" lon="-8.777565">
        <ele>67.0</ele>
        <time>2019-07-05T19:02:31Z</time>
      </trkpt>
      <trkpt lat="41.395535" lon="-8.77767">
        <ele>66.0</ele>
        <time>2019-07-05T19:02:34Z</time>
      </trkpt>
      <trkpt lat="41.39561166666667" lon="-8.77773">
        <ele>67.0</ele>
        <time>2019-07-05T19:02:36Z</time>
      </trkpt>
      <trkpt lat="41.3957" lon="-8.777785">
        <ele>67.0</ele>
        <time>2019-07-05T19:02:38Z</time>
      </trkpt>
      <trkpt lat="41.395795" lon="-8.777846666666667">
        <ele>67.0</ele>
        <time>2019-07-05T19:02:40Z</time>
      </trkpt>
      <trkpt lat="41.39589" lon="-8.77791">
        <ele>67.0</ele>
        <time>2019-07-05T19:02:42Z</time>
      </trkpt>
      <trkpt lat="41.396" lon="-8.77796">
        <ele>66.0</ele>
        <time>2019-07-05T19:02:44Z</time>
      </trkpt>
      <trkpt lat="41.396105" lon="-8.77802">
        <ele>66.0</ele>
        <time>2019-07-05T19:02:46Z</time>
      </trkpt>
      <trkpt lat="41.396215" lon="-8.778081666666667">
        <ele>66.0</ele>
        <time>2019-07-05T19:02:48Z</time>
      </trkpt>
      <trkpt lat="41.39632" lon="-8.778131666666667">
        <ele>66.0</ele>
        <time>2019-07-05T19:02:50Z</time>
      </trkpt>
      <trkpt lat="41.396425" lon="-8.778195">
        <ele>66.0</ele>
        <time>2019-07-05T19:02:52Z</time>
      </trkpt>
      <trkpt lat="41.39653" lon="-8.778255">
        <ele>66.0</ele>
        <time>2019-07-05T19:02:54Z</time>
      </trkpt>
      <trkpt lat="41.39663" lon="-8.778315">
        <ele>67.0</ele>
        <time>2019-07-05T19:02:56Z</time>
      </trkpt>
      <trkpt lat="41.396735" lon="-8.778375">
        <ele>67.0</ele>
        <time>2019-07-05T19:02:58Z</time>
      </trkpt>
      <trkpt lat="41.396836666666665" lon="-8.778435">
        <ele>67.0</ele>
        <time>2019-07-05T19:03:00Z</time>
      </trkpt>
      <trkpt lat="41.39694" lon="-8.7785">
        <ele>67.0</ele>
        <time>2019-07-05T19:03:02Z</time>
      </trkpt>
      <trkpt lat="41.397045" lon="-8.77855">
        <ele>68.0</ele>
        <time>2019-07-05T19:03:04Z</time>
      </trkpt>
      <trkpt lat="41.39714" lon="-8.778606666666667">
        <ele>68.0</ele>
        <time>2019-07-05T19:03:06Z</time>
      </trkpt>
      <trkpt lat="41.39723" lon="-8.77866">
        <ele>68.0</ele>
        <time>2019-07-05T19:03:08Z</time>
      </trkpt>
      <trkpt lat="41.39732" lon="-8.77871">
        <ele>68.0</ele>
        <time>2019-07-05T19:03:10Z</time>
      </trkpt>
      <trkpt lat="41.397418333333334" lon="-8.778725">
        <ele>69.0</ele>
        <time>2019-07-05T19:03:12Z</time>
      </trkpt>
      <trkpt lat="41.397515" lon="-8.7787">
        <ele>69.0</ele>
        <time>2019-07-05T19:03:14Z</time>
      </trkpt>
      <trkpt lat="41.39761" lon="-8.77865">
        <ele>68.0</ele>
        <time>2019-07-05T19:03:16Z</time>
      </trkpt>
      <trkpt lat="41.397695" lon="-8.778595">
        <ele>68.0</ele>
        <time>2019-07-05T19:03:18Z</time>
      </trkpt>
      <trkpt lat="41.397775" lon="-8.778545">
        <ele>68.0</ele>
        <time>2019-07-05T19:03:20Z</time>
      </trkpt>
      <trkpt lat="41.39786" lon="-8.778501666666667">
        <ele>68.0</ele>
        <time>2019-07-05T19:03:22Z</time>
      </trkpt>
      <trkpt lat="41.397945" lon="-8.778451666666667">
        <ele>67.0</ele>
        <time>2019-07-05T19:03:24Z</time>
      </trkpt>
      <trkpt lat="41.398035" lon="-8.778398333333334">
        <ele>67.0</ele>
        <time>2019-07-05T19:03:26Z</time>
      </trkpt>
      <trkpt lat="41.398135" lon="-8.778345">
        <ele>66.0</ele>
        <time>2019-07-05T19:03:28Z</time>
      </trkpt>
      <trkpt lat="41.398235" lon="-8.778295">
        <ele>65.0</ele>
        <time>2019-07-05T19:03:30Z</time>
      </trkpt>
      <trkpt lat="41.39834" lon="-8.778235">
        <ele>65.0</ele>
        <time>2019-07-05T19:03:32Z</time>
      </trkpt>
      <trkpt lat="41.39844" lon="-8.77818">
        <ele>65.0</ele>
        <time>2019-07-05T19:03:34Z</time>
      </trkpt>
      <trkpt lat="41.398555" lon="-8.77812">
        <ele>64.0</ele>
        <time>2019-07-05T19:03:36Z</time>
      </trkpt>
      <trkpt lat="41.39867666666667" lon="-8.77806">
        <ele>63.0</ele>
        <time>2019-07-05T19:03:38Z</time>
      </trkpt>
      <trkpt lat="41.39879" lon="-8.777965">
        <ele>64.0</ele>
        <time>2019-07-05T19:03:40Z</time>
      </trkpt>
      <trkpt lat="41.398885" lon="-8.777835">
        <ele>63.0</ele>
        <time>2019-07-05T19:03:42Z</time>
      </trkpt>
      <trkpt lat="41.39899" lon="-8.77773">
        <ele>62.0</ele>
        <time>2019-07-05T19:03:44Z</time>
      </trkpt>
      <trkpt lat="41.3991" lon="-8.777635">
        <ele>62.0</ele>
        <time>2019-07-05T19:03:46Z</time>
      </trkpt>
      <trkpt lat="41.39915666666667" lon="-8.777575">
        <ele>62.0</ele>
        <time>2019-07-05T19:03:47Z</time>
      </trkpt>
      <trkpt lat="41.39928" lon="-8.777491666666666">
        <ele>61.0</ele>
        <time>2019-07-05T19:03:49Z</time>
      </trkpt>
      <trkpt lat="41.3994" lon="-8.777411666666668">
        <ele>61.0</ele>
        <time>2019-07-05T19:03:51Z</time>
      </trkpt>
      <trkpt lat="41.399515" lon="-8.777325">
        <ele>61.0</ele>
        <time>2019-07-05T19:03:53Z</time>
      </trkpt>
      <trkpt lat="41.399625" lon="-8.777241666666667">
        <ele>61.0</ele>
        <time>2019-07-05T19:03:55Z</time>
      </trkpt>
      <trkpt lat="41.39973" lon="-8.777165">
        <ele>60.0</ele>
        <time>2019-07-05T19:03:57Z</time>
      </trkpt>
      <trkpt lat="41.399835" lon="-8.777125">
        <ele>61.0</ele>
        <time>2019-07-05T19:03:59Z</time>
      </trkpt>
      <trkpt lat="41.399945" lon="-8.77709">
        <ele>62.0</ele>
        <time>2019-07-05T19:04:01Z</time>
      </trkpt>
      <trkpt lat="41.400035" lon="-8.77701">
        <ele>62.0</ele>
        <time>2019-07-05T19:04:03Z</time>
      </trkpt>
      <trkpt lat="41.40014" lon="-8.776915">
        <ele>62.0</ele>
        <time>2019-07-05T19:04:05Z</time>
      </trkpt>
      <trkpt lat="41.400245" lon="-8.77683">
        <ele>62.0</ele>
        <time>2019-07-05T19:04:07Z</time>
      </trkpt>
      <trkpt lat="41.40035" lon="-8.776745">
        <ele>61.0</ele>
        <time>2019-07-05T19:04:09Z</time>
      </trkpt>
      <trkpt lat="41.40045166666667" lon="-8.776665">
        <ele>61.0</ele>
        <time>2019-07-05T19:04:11Z</time>
      </trkpt>
      <trkpt lat="41.40055" lon="-8.77661">
        <ele>61.0</ele>
        <time>2019-07-05T19:04:13Z</time>
      </trkpt>
      <trkpt lat="41.40065" lon="-8.77653">
        <ele>60.0</ele>
        <time>2019-07-05T19:04:15Z</time>
      </trkpt>
      <trkpt lat="41.40075" lon="-8.776535">
        <ele>61.0</ele>
        <time>2019-07-05T19:04:18Z</time>
      </trkpt>
      <trkpt lat="41.400785" lon="-8.77663">
        <ele>60.0</ele>
        <time>2019-07-05T19:04:21Z</time>
      </trkpt>
      <trkpt lat="41.4008" lon="-8.77674">
        <ele>61.0</ele>
        <time>2019-07-05T19:04:25Z</time>
      </trkpt>
      <trkpt lat="41.4009" lon="-8.776751666666666">
        <ele>62.0</ele>
        <time>2019-07-05T19:04:29Z</time>
      </trkpt>
      <trkpt lat="41.401" lon="-8.776761666666667">
        <ele>62.0</ele>
        <time>2019-07-05T19:04:32Z</time>
      </trkpt>
      <trkpt lat="41.401085" lon="-8.776735">
        <ele>62.0</ele>
        <time>2019-07-05T19:04:34Z</time>
      </trkpt>
      <trkpt lat="41.40116" lon="-8.776713333333333">
        <ele>63.0</ele>
        <time>2019-07-05T19:04:36Z</time>
      </trkpt>
      <trkpt lat="41.40124" lon="-8.7767">
        <ele>63.0</ele>
        <time>2019-07-05T19:04:39Z</time>
      </trkpt>
      <trkpt lat="41.401271666666666" lon="-8.776795">
        <ele>64.0</ele>
        <time>2019-07-05T19:04:44Z</time>
      </trkpt>
      <trkpt lat="41.40125666666667" lon="-8.7769">
        <ele>65.0</ele>
        <time>2019-07-05T19:04:49Z</time>
      </trkpt>
      <trkpt lat="41.401215" lon="-8.776996666666667">
        <ele>66.0</ele>
        <time>2019-07-05T19:04:52Z</time>
      </trkpt>
      <trkpt lat="41.40119" lon="-8.777116666666666">
        <ele>67.0</ele>
        <time>2019-07-05T19:04:55Z</time>
      </trkpt>
      <trkpt lat="41.40118" lon="-8.77724">
        <ele>68.0</ele>
        <time>2019-07-05T19:04:58Z</time>
      </trkpt>
      <trkpt lat="41.40114166666667" lon="-8.777345">
        <ele>68.0</ele>
        <time>2019-07-05T19:05:01Z</time>
      </trkpt>
      <trkpt lat="41.401105" lon="-8.77746">
        <ele>68.0</ele>
        <time>2019-07-05T19:05:04Z</time>
      </trkpt>
      <trkpt lat="41.40107" lon="-8.77758">
        <ele>70.0</ele>
        <time>2019-07-05T19:05:08Z</time>
      </trkpt>
      <trkpt lat="41.401045" lon="-8.777685">
        <ele>70.0</ele>
        <time>2019-07-05T19:05:11Z</time>
      </trkpt>
      <trkpt lat="41.401086666666664" lon="-8.77778">
        <ele>69.0</ele>
        <time>2019-07-05T19:05:14Z</time>
      </trkpt>
      <trkpt lat="41.401185" lon="-8.777845">
        <ele>69.0</ele>
        <time>2019-07-05T19:05:17Z</time>
      </trkpt>
      <trkpt lat="41.401255" lon="-8.77788">
        <ele>69.0</ele>
        <time>2019-07-05T19:05:19Z</time>
      </trkpt>
      <trkpt lat="41.40133" lon="-8.777906666666667">
        <ele>68.0</ele>
        <time>2019-07-05T19:05:21Z</time>
      </trkpt>
      <trkpt lat="41.401415" lon="-8.77794">
        <ele>68.0</ele>
        <time>2019-07-05T19:05:23Z</time>
      </trkpt>
      <trkpt lat="41.4015" lon="-8.777975">
        <ele>68.0</ele>
        <time>2019-07-05T19:05:25Z</time>
      </trkpt>
      <trkpt lat="41.40159166666667" lon="-8.77802">
        <ele>68.0</ele>
        <time>2019-07-05T19:05:27Z</time>
      </trkpt>
      <trkpt lat="41.401685" lon="-8.778065">
        <ele>68.0</ele>
        <time>2019-07-05T19:05:29Z</time>
      </trkpt>
      <trkpt lat="41.40178" lon="-8.778115">
        <ele>67.0</ele>
        <time>2019-07-05T19:05:31Z</time>
      </trkpt>
      <trkpt lat="41.401878333333336" lon="-8.778156666666666">
        <ele>68.0</ele>
        <time>2019-07-05T19:05:33Z</time>
      </trkpt>
      <trkpt lat="41.40198" lon="-8.778205">
        <ele>67.0</ele>
        <time>2019-07-05T19:05:35Z</time>
      </trkpt>
      <trkpt lat="41.402085" lon="-8.778255">
        <ele>67.0</ele>
        <time>2019-07-05T19:05:37Z</time>
      </trkpt>
      <trkpt lat="41.40219166666667" lon="-8.7783">
        <ele>67.0</ele>
        <time>2019-07-05T19:05:39Z</time>
      </trkpt>
      <trkpt lat="41.402295" lon="-8.77835">
        <ele>67.0</ele>
        <time>2019-07-05T19:05:41Z</time>
      </trkpt>
      <trkpt lat="41.40239" lon="-8.778395">
        <ele>67.0</ele>
        <time>2019-07-05T19:05:43Z</time>
      </trkpt>
      <trkpt lat="41.40249" lon="-8.778435">
        <ele>67.0</ele>
        <time>2019-07-05T19:05:45Z</time>
      </trkpt>
      <trkpt lat="41.40258" lon="-8.778475">
        <ele>68.0</ele>
        <time>2019-07-05T19:05:47Z</time>
      </trkpt>
      <trkpt lat="41.402665" lon="-8.778511666666667">
        <ele>67.0</ele>
        <time>2019-07-05T19:05:49Z</time>
      </trkpt>
      <trkpt lat="41.40275" lon="-8.778545">
        <ele>67.0</ele>
        <time>2019-07-05T19:05:51Z</time>
      </trkpt>
      <trkpt lat="41.40283" lon="-8.77857">
        <ele>67.0</ele>
        <time>2019-07-05T19:05:53Z</time>
      </trkpt>
      <trkpt lat="41.402915" lon="-8.778601666666667">
        <ele>68.0</ele>
        <time>2019-07-05T19:05:55Z</time>
      </trkpt>
      <trkpt lat="41.403" lon="-8.778655">
        <ele>68.0</ele>
        <time>2019-07-05T19:05:57Z</time>
      </trkpt>
      <trkpt lat="41.403095" lon="-8.778691666666667">
        <ele>68.0</ele>
        <time>2019-07-05T19:05:59Z</time>
      </trkpt>
      <trkpt lat="41.403185" lon="-8.778745">
        <ele>68.0</ele>
        <time>2019-07-05T19:06:01Z</time>
      </trkpt>
      <trkpt lat="41.403275" lon="-8.778805">
        <ele>68.0</ele>
        <time>2019-07-05T19:06:03Z</time>
      </trkpt>
      <trkpt lat="41.403375" lon="-8.778871666666667">
        <ele>67.0</ele>
        <time>2019-07-05T19:06:05Z</time>
      </trkpt>
      <trkpt lat="41.403475" lon="-8.778946666666666">
        <ele>68.0</ele>
        <time>2019-07-05T19:06:07Z</time>
      </trkpt>
      <trkpt lat="41.40358" lon="-8.779025">
        <ele>68.0</ele>
        <time>2019-07-05T19:06:09Z</time>
      </trkpt>
      <trkpt lat="41.40369" lon="-8.779101666666667">
        <ele>67.0</ele>
        <time>2019-07-05T19:06:11Z</time>
      </trkpt>
      <trkpt lat="41.403796666666665" lon="-8.77918">
        <ele>67.0</ele>
        <time>2019-07-05T19:06:13Z</time>
      </trkpt>
      <trkpt lat="41.403905" lon="-8.779251666666667">
        <ele>67.0</ele>
        <time>2019-07-05T19:06:15Z</time>
      </trkpt>
      <trkpt lat="41.404025" lon="-8.77933">
        <ele>67.0</ele>
        <time>2019-07-05T19:06:17Z</time>
      </trkpt>
      <trkpt lat="41.404145" lon="-8.779415">
        <ele>67.0</ele>
        <time>2019-07-05T19:06:19Z</time>
      </trkpt>
      <trkpt lat="41.40421" lon="-8.779455">
        <ele>67.0</ele>
        <time>2019-07-05T19:06:20Z</time>
      </trkpt>
      <trkpt lat="41.40428" lon="-8.779491666666667">
        <ele>67.0</ele>
        <time>2019-07-05T19:06:21Z</time>
      </trkpt>
      <trkpt lat="41.40441" lon="-8.77956">
        <ele>67.0</ele>
        <time>2019-07-05T19:06:23Z</time>
      </trkpt>
      <trkpt lat="41.40453" lon="-8.77963">
        <ele>67.0</ele>
        <time>2019-07-05T19:06:25Z</time>
      </trkpt>
      <trkpt lat="41.40465" lon="-8.779696666666666">
        <ele>67.0</ele>
        <time>2019-07-05T19:06:27Z</time>
      </trkpt>
      <trkpt lat="41.40472" lon="-8.779736666666667">
        <ele>66.0</ele>
        <time>2019-07-05T19:06:28Z</time>
      </trkpt>
      <trkpt lat="41.40483166666667" lon="-8.7798">
        <ele>66.0</ele>
        <time>2019-07-05T19:06:30Z</time>
      </trkpt>
      <trkpt lat="41.404945" lon="-8.779866666666667">
        <ele>66.0</ele>
        <time>2019-07-05T19:06:32Z</time>
      </trkpt>
      <trkpt lat="41.405065" lon="-8.77992">
        <ele>66.0</ele>
        <time>2019-07-05T19:06:34Z</time>
      </trkpt>
      <trkpt lat="41.405175" lon="-8.77998">
        <ele>66.0</ele>
        <time>2019-07-05T19:06:36Z</time>
      </trkpt>
      <trkpt lat="41.405285" lon="-8.780035">
        <ele>66.0</ele>
        <time>2019-07-05T19:06:38Z</time>
      </trkpt>
      <trkpt lat="41.405375" lon="-8.780095">
        <ele>66.0</ele>
        <time>2019-07-05T19:06:40Z</time>
      </trkpt>
      <trkpt lat="41.40545" lon="-8.780155">
        <ele>66.0</ele>
        <time>2019-07-05T19:06:42Z</time>
      </trkpt>
      <trkpt lat="41.405535" lon="-8.78018">
        <ele>66.0</ele>
        <time>2019-07-05T19:06:44Z</time>
      </trkpt>
      <trkpt lat="41.405606666666664" lon="-8.780135">
        <ele>65.0</ele>
        <time>2019-07-05T19:06:47Z</time>
      </trkpt>
      <trkpt lat="41.40566" lon="-8.780008333333333">
        <ele>65.0</ele>
        <time>2019-07-05T19:06:50Z</time>
      </trkpt>
      <trkpt lat="41.405725" lon="-8.779945">
        <ele>64.0</ele>
        <time>2019-07-05T19:06:52Z</time>
      </trkpt>
      <trkpt lat="41.4058" lon="-8.77996">
        <ele>65.0</ele>
        <time>2019-07-05T19:06:54Z</time>
      </trkpt>
      <trkpt lat="41.40588666666667" lon="-8.78">
        <ele>65.0</ele>
        <time>2019-07-05T19:06:56Z</time>
      </trkpt>
      <trkpt lat="41.405986666666664" lon="-8.780048333333333">
        <ele>65.0</ele>
        <time>2019-07-05T19:06:58Z</time>
      </trkpt>
      <trkpt lat="41.40609" lon="-8.780096666666667">
        <ele>65.0</ele>
        <time>2019-07-05T19:07:00Z</time>
      </trkpt>
      <trkpt lat="41.406195" lon="-8.780116666666666">
        <ele>65.0</ele>
        <time>2019-07-05T19:07:02Z</time>
      </trkpt>
      <trkpt lat="41.40629666666667" lon="-8.78014">
        <ele>65.0</ele>
        <time>2019-07-05T19:07:04Z</time>
      </trkpt>
      <trkpt lat="41.4064" lon="-8.78021">
        <ele>64.0</ele>
        <time>2019-07-05T19:07:06Z</time>
      </trkpt>
      <trkpt lat="41.406501666666664" lon="-8.780291666666667">
        <ele>64.0</ele>
        <time>2019-07-05T19:07:08Z</time>
      </trkpt>
      <trkpt lat="41.406605" lon="-8.780385">
        <ele>64.0</ele>
        <time>2019-07-05T19:07:10Z</time>
      </trkpt>
      <trkpt lat="41.40670166666666" lon="-8.78048">
        <ele>65.0</ele>
        <time>2019-07-05T19:07:12Z</time>
      </trkpt>
      <trkpt lat="41.406805" lon="-8.78057">
        <ele>65.0</ele>
        <time>2019-07-05T19:07:14Z</time>
      </trkpt>
      <trkpt lat="41.406906666666664" lon="-8.780661666666667">
        <ele>65.0</ele>
        <time>2019-07-05T19:07:16Z</time>
      </trkpt>
      <trkpt lat="41.407015" lon="-8.78076">
        <ele>65.0</ele>
        <time>2019-07-05T19:07:18Z</time>
      </trkpt>
      <trkpt lat="41.40712" lon="-8.780841666666667">
        <ele>65.0</ele>
        <time>2019-07-05T19:07:20Z</time>
      </trkpt>
      <trkpt lat="41.407225" lon="-8.780935">
        <ele>65.0</ele>
        <time>2019-07-05T19:07:22Z</time>
      </trkpt>
      <trkpt lat="41.40733" lon="-8.78102">
        <ele>66.0</ele>
        <time>2019-07-05T19:07:24Z</time>
      </trkpt>
      <trkpt lat="41.40743166666667" lon="-8.781105">
        <ele>66.0</ele>
        <time>2019-07-05T19:07:26Z</time>
      </trkpt>
      <trkpt lat="41.40752" lon="-8.781185">
        <ele>67.0</ele>
        <time>2019-07-05T19:07:28Z</time>
      </trkpt>
      <trkpt lat="41.40762" lon="-8.781261666666667">
        <ele>67.0</ele>
        <time>2019-07-05T19:07:30Z</time>
      </trkpt>
      <trkpt lat="41.407725" lon="-8.78134">
        <ele>67.0</ele>
        <time>2019-07-05T19:07:32Z</time>
      </trkpt>
      <trkpt lat="41.40784" lon="-8.781415">
        <ele>67.0</ele>
        <time>2019-07-05T19:07:34Z</time>
      </trkpt>
      <trkpt lat="41.40795" lon="-8.78148">
        <ele>67.0</ele>
        <time>2019-07-05T19:07:36Z</time>
      </trkpt>
      <trkpt lat="41.40806" lon="-8.781555">
        <ele>67.0</ele>
        <time>2019-07-05T19:07:38Z</time>
      </trkpt>
      <trkpt lat="41.408165" lon="-8.781603333333333">
        <ele>67.0</ele>
        <time>2019-07-05T19:07:40Z</time>
      </trkpt>
      <trkpt lat="41.40824" lon="-8.78158">
        <ele>67.0</ele>
        <time>2019-07-05T19:07:42Z</time>
      </trkpt>
      <trkpt lat="41.4083" lon="-8.781475">
        <ele>66.0</ele>
        <time>2019-07-05T19:07:44Z</time>
      </trkpt>
      <trkpt lat="41.408355" lon="-8.781335">
        <ele>66.0</ele>
        <time>2019-07-05T19:07:46Z</time>
      </trkpt>
      <trkpt lat="41.408405" lon="-8.78118">
        <ele>65.0</ele>
        <time>2019-07-05T19:07:48Z</time>
      </trkpt>
      <trkpt lat="41.40846" lon="-8.781025">
        <ele>65.0</ele>
        <time>2019-07-05T19:07:50Z</time>
      </trkpt>
      <trkpt lat="41.408515" lon="-8.780885">
        <ele>64.0</ele>
        <time>2019-07-05T19:07:52Z</time>
      </trkpt>
      <trkpt lat="41.408565" lon="-8.78076">
        <ele>64.0</ele>
        <time>2019-07-05T19:07:54Z</time>
      </trkpt>
      <trkpt lat="41.40861" lon="-8.780625">
        <ele>65.0</ele>
        <time>2019-07-05T19:07:56Z</time>
      </trkpt>
      <trkpt lat="41.40865" lon="-8.780491666666666">
        <ele>66.0</ele>
        <time>2019-07-05T19:07:58Z</time>
      </trkpt>
      <trkpt lat="41.40869" lon="-8.780371666666667">
        <ele>66.0</ele>
        <time>2019-07-05T19:08:00Z</time>
      </trkpt>
      <trkpt lat="41.408696666666664" lon="-8.780265">
        <ele>66.0</ele>
        <time>2019-07-05T19:08:02Z</time>
      </trkpt>
      <trkpt lat="41.40872" lon="-8.78015">
        <ele>67.0</ele>
        <time>2019-07-05T19:08:04Z</time>
      </trkpt>
      <trkpt lat="41.408735" lon="-8.780031666666666">
        <ele>69.0</ele>
        <time>2019-07-05T19:08:07Z</time>
      </trkpt>
      <trkpt lat="41.408815" lon="-8.780015">
        <ele>68.0</ele>
        <time>2019-07-05T19:08:10Z</time>
      </trkpt>
      <trkpt lat="41.40887" lon="-8.78009">
        <ele>68.0</ele>
        <time>2019-07-05T19:08:12Z</time>
      </trkpt>
      <trkpt lat="41.408935" lon="-8.78018">
        <ele>68.0</ele>
        <time>2019-07-05T19:08:14Z</time>
      </trkpt>
      <trkpt lat="41.409016666666666" lon="-8.78028">
        <ele>69.0</ele>
        <time>2019-07-05T19:08:16Z</time>
      </trkpt>
      <trkpt lat="41.4091" lon="-8.780385">
        <ele>68.0</ele>
        <time>2019-07-05T19:08:18Z</time>
      </trkpt>
      <trkpt lat="41.409175" lon="-8.780505">
        <ele>69.0</ele>
        <time>2019-07-05T19:08:20Z</time>
      </trkpt>
      <trkpt lat="41.40924666666667" lon="-8.780635">
        <ele>68.0</ele>
        <time>2019-07-05T19:08:22Z</time>
      </trkpt>
      <trkpt lat="41.40932333333333" lon="-8.78076">
        <ele>68.0</ele>
        <time>2019-07-05T19:08:24Z</time>
      </trkpt>
      <trkpt lat="41.409405" lon="-8.780886666666667">
        <ele>68.0</ele>
        <time>2019-07-05T19:08:26Z</time>
      </trkpt>
      <trkpt lat="41.4095" lon="-8.781015">
        <ele>68.0</ele>
        <time>2019-07-05T19:08:28Z</time>
      </trkpt>
      <trkpt lat="41.4096" lon="-8.78114">
        <ele>68.0</ele>
        <time>2019-07-05T19:08:30Z</time>
      </trkpt>
      <trkpt lat="41.4097" lon="-8.78127">
        <ele>67.0</ele>
        <time>2019-07-05T19:08:32Z</time>
      </trkpt>
      <trkpt lat="41.40979166666666" lon="-8.78141">
        <ele>67.0</ele>
        <time>2019-07-05T19:08:34Z</time>
      </trkpt>
      <trkpt lat="41.40987" lon="-8.78156">
        <ele>67.0</ele>
        <time>2019-07-05T19:08:36Z</time>
      </trkpt>
      <trkpt lat="41.409965" lon="-8.781691666666667">
        <ele>67.0</ele>
        <time>2019-07-05T19:08:38Z</time>
      </trkpt>
      <trkpt lat="41.410068333333335" lon="-8.781781666666667">
        <ele>68.0</ele>
        <time>2019-07-05T19:08:40Z</time>
      </trkpt>
      <trkpt lat="41.410185" lon="-8.781865">
        <ele>67.0</ele>
        <time>2019-07-05T19:08:42Z</time>
      </trkpt>
      <trkpt lat="41.410291666666666" lon="-8.781955">
        <ele>67.0</ele>
        <time>2019-07-05T19:08:44Z</time>
      </trkpt>
      <trkpt lat="41.41039" lon="-8.782055">
        <ele>68.0</ele>
        <time>2019-07-05T19:08:46Z</time>
      </trkpt>
      <trkpt lat="41.410486666666664" lon="-8.782165">
        <ele>68.0</ele>
        <time>2019-07-05T19:08:48Z</time>
      </trkpt>
      <trkpt lat="41.410585" lon="-8.78228">
        <ele>68.0</ele>
        <time>2019-07-05T19:08:50Z</time>
      </trkpt>
      <trkpt lat="41.410685" lon="-8.782385">
        <ele>68.0</ele>
        <time>2019-07-05T19:08:52Z</time>
      </trkpt>
      <trkpt lat="41.410785" lon="-8.782495">
        <ele>68.0</ele>
        <time>2019-07-05T19:08:54Z</time>
      </trkpt>
      <trkpt lat="41.410896666666666" lon="-8.782585">
        <ele>69.0</ele>
        <time>2019-07-05T19:08:56Z</time>
      </trkpt>
      <trkpt lat="41.41102" lon="-8.78263">
        <ele>69.0</ele>
        <time>2019-07-05T19:08:58Z</time>
      </trkpt>
      <trkpt lat="41.41114" lon="-8.78264">
        <ele>69.0</ele>
        <time>2019-07-05T19:09:00Z</time>
      </trkpt>
      <trkpt lat="41.41125" lon="-8.782635">
        <ele>70.0</ele>
        <time>2019-07-05T19:09:02Z</time>
      </trkpt>
      <trkpt lat="41.411345" lon="-8.782661666666666">
        <ele>70.0</ele>
        <time>2019-07-05T19:09:04Z</time>
      </trkpt>
      <trkpt lat="41.411431666666665" lon="-8.782716666666667">
        <ele>71.0</ele>
        <time>2019-07-05T19:09:06Z</time>
      </trkpt>
      <trkpt lat="41.41153" lon="-8.782775">
        <ele>71.0</ele>
        <time>2019-07-05T19:09:08Z</time>
      </trkpt>
      <trkpt lat="41.41162" lon="-8.782835">
        <ele>71.0</ele>
        <time>2019-07-05T19:09:10Z</time>
      </trkpt>
      <trkpt lat="41.41172" lon="-8.782895">
        <ele>72.0</ele>
        <time>2019-07-05T19:09:12Z</time>
      </trkpt>
      <trkpt lat="41.41182" lon="-8.78294">
        <ele>72.0</ele>
        <time>2019-07-05T19:09:14Z</time>
      </trkpt>
      <trkpt lat="41.41192" lon="-8.783001666666667">
        <ele>72.0</ele>
        <time>2019-07-05T19:09:16Z</time>
      </trkpt>
      <trkpt lat="41.412025" lon="-8.783055">
        <ele>72.0</ele>
        <time>2019-07-05T19:09:18Z</time>
      </trkpt>
      <trkpt lat="41.412135" lon="-8.783115">
        <ele>72.0</ele>
        <time>2019-07-05T19:09:20Z</time>
      </trkpt>
      <trkpt lat="41.41225" lon="-8.783185">
        <ele>72.0</ele>
        <time>2019-07-05T19:09:22Z</time>
      </trkpt>
      <trkpt lat="41.41236" lon="-8.783245">
        <ele>71.0</ele>
        <time>2019-07-05T19:09:24Z</time>
      </trkpt>
      <trkpt lat="41.41247" lon="-8.78331">
        <ele>72.0</ele>
        <time>2019-07-05T19:09:26Z</time>
      </trkpt>
      <trkpt lat="41.41258" lon="-8.783375">
        <ele>72.0</ele>
        <time>2019-07-05T19:09:28Z</time>
      </trkpt>
      <trkpt lat="41.412685" lon="-8.78343">
        <ele>72.0</ele>
        <time>2019-07-05T19:09:30Z</time>
      </trkpt>
      <trkpt lat="41.41279" lon="-8.78349">
        <ele>72.0</ele>
        <time>2019-07-05T19:09:32Z</time>
      </trkpt>
      <trkpt lat="41.41289" lon="-8.783555">
        <ele>72.0</ele>
        <time>2019-07-05T19:09:34Z</time>
      </trkpt>
      <trkpt lat="41.412985" lon="-8.783616666666667">
        <ele>73.0</ele>
        <time>2019-07-05T19:09:36Z</time>
      </trkpt>
      <trkpt lat="41.41307666666667" lon="-8.783681666666666">
        <ele>73.0</ele>
        <time>2019-07-05T19:09:38Z</time>
      </trkpt>
      <trkpt lat="41.41317" lon="-8.78374">
        <ele>72.0</ele>
        <time>2019-07-05T19:09:40Z</time>
      </trkpt>
      <trkpt lat="41.413275" lon="-8.78377">
        <ele>73.0</ele>
        <time>2019-07-05T19:09:42Z</time>
      </trkpt>
      <trkpt lat="41.413385" lon="-8.783786666666666">
        <ele>72.0</ele>
        <time>2019-07-05T19:09:44Z</time>
      </trkpt>
      <trkpt lat="41.41349666666667" lon="-8.78381">
        <ele>72.0</ele>
        <time>2019-07-05T19:09:46Z</time>
      </trkpt>
      <trkpt lat="41.413605" lon="-8.78387">
        <ele>71.0</ele>
        <time>2019-07-05T19:09:48Z</time>
      </trkpt>
      <trkpt lat="41.41369" lon="-8.783985">
        <ele>71.0</ele>
        <time>2019-07-05T19:09:50Z</time>
      </trkpt>
      <trkpt lat="41.413765" lon="-8.784115">
        <ele>72.0</ele>
        <time>2019-07-05T19:09:52Z</time>
      </trkpt>
      <trkpt lat="41.413846666666664" lon="-8.784245">
        <ele>72.0</ele>
        <time>2019-07-05T19:09:54Z</time>
      </trkpt>
      <trkpt lat="41.413936666666665" lon="-8.784365">
        <ele>72.0</ele>
        <time>2019-07-05T19:09:56Z</time>
      </trkpt>
      <trkpt lat="41.41404166666667" lon="-8.78447">
        <ele>72.0</ele>
        <time>2019-07-05T19:09:58Z</time>
      </trkpt>
      <trkpt lat="41.414155" lon="-8.78456">
        <ele>72.0</ele>
        <time>2019-07-05T19:10:00Z</time>
      </trkpt>
      <trkpt lat="41.414285" lon="-8.78458">
        <ele>71.0</ele>
        <time>2019-07-05T19:10:02Z</time>
      </trkpt>
      <trkpt lat="41.41442" lon="-8.78457">
        <ele>71.0</ele>
        <time>2019-07-05T19:10:04Z</time>
      </trkpt>
      <trkpt lat="41.414555" lon="-8.784566666666667">
        <ele>70.0</ele>
        <time>2019-07-05T19:10:06Z</time>
      </trkpt>
      <trkpt lat="41.41469" lon="-8.784556666666667">
        <ele>70.0</ele>
        <time>2019-07-05T19:10:08Z</time>
      </trkpt>
      <trkpt lat="41.414825" lon="-8.784545">
        <ele>70.0</ele>
        <time>2019-07-05T19:10:10Z</time>
      </trkpt>
      <trkpt lat="41.41495" lon="-8.784485">
        <ele>70.0</ele>
        <time>2019-07-05T19:10:12Z</time>
      </trkpt>
      <trkpt lat="41.415063333333336" lon="-8.784426666666667">
        <ele>70.0</ele>
        <time>2019-07-05T19:10:14Z</time>
      </trkpt>
      <trkpt lat="41.41518" lon="-8.784446666666666">
        <ele>71.0</ele>
        <time>2019-07-05T19:10:16Z</time>
      </trkpt>
      <trkpt lat="41.41529" lon="-8.78446">
        <ele>71.0</ele>
        <time>2019-07-05T19:10:18Z</time>
      </trkpt>
      <trkpt lat="41.4154" lon="-8.78448">
        <ele>72.0</ele>
        <time>2019-07-05T19:10:20Z</time>
      </trkpt>
      <trkpt lat="41.41549" lon="-8.784565">
        <ele>71.0</ele>
        <time>2019-07-05T19:10:22Z</time>
      </trkpt>
      <trkpt lat="41.41551" lon="-8.784691666666667">
        <ele>71.0</ele>
        <time>2019-07-05T19:10:24Z</time>
      </trkpt>
      <trkpt lat="41.41548" lon="-8.78483">
        <ele>71.0</ele>
        <time>2019-07-05T19:10:26Z</time>
      </trkpt>
      <trkpt lat="41.41542666666667" lon="-8.78497">
        <ele>70.0</ele>
        <time>2019-07-05T19:10:28Z</time>
      </trkpt>
      <trkpt lat="41.415371666666665" lon="-8.78512">
        <ele>70.0</ele>
        <time>2019-07-05T19:10:30Z</time>
      </trkpt>
      <trkpt lat="41.41533666666667" lon="-8.78527">
        <ele>69.0</ele>
        <time>2019-07-05T19:10:32Z</time>
      </trkpt>
      <trkpt lat="41.415355" lon="-8.785385">
        <ele>69.0</ele>
        <time>2019-07-05T19:10:34Z</time>
      </trkpt>
      <trkpt lat="41.41542" lon="-8.785456666666667">
        <ele>69.0</ele>
        <time>2019-07-05T19:10:36Z</time>
      </trkpt>
      <trkpt lat="41.41551666666667" lon="-8.785425">
        <ele>69.0</ele>
        <time>2019-07-05T19:10:38Z</time>
      </trkpt>
      <trkpt lat="41.415605" lon="-8.785408333333333">
        <ele>70.0</ele>
        <time>2019-07-05T19:10:40Z</time>
      </trkpt>
      <trkpt lat="41.4157" lon="-8.78537">
        <ele>71.0</ele>
        <time>2019-07-05T19:10:42Z</time>
      </trkpt>
      <trkpt lat="41.415805" lon="-8.785345">
        <ele>71.0</ele>
        <time>2019-07-05T19:10:44Z</time>
      </trkpt>
      <trkpt lat="41.415905" lon="-8.785335">
        <ele>72.0</ele>
        <time>2019-07-05T19:10:46Z</time>
      </trkpt>
      <trkpt lat="41.416015" lon="-8.78531">
        <ele>72.0</ele>
        <time>2019-07-05T19:10:48Z</time>
      </trkpt>
      <trkpt lat="41.4161" lon="-8.785286666666666">
        <ele>72.0</ele>
        <time>2019-07-05T19:10:50Z</time>
      </trkpt>
      <trkpt lat="41.416195" lon="-8.7853">
        <ele>72.0</ele>
        <time>2019-07-05T19:10:53Z</time>
      </trkpt>
      <trkpt lat="41.41623" lon="-8.785385">
        <ele>72.0</ele>
        <time>2019-07-05T19:10:55Z</time>
      </trkpt>
      <trkpt lat="41.416255" lon="-8.78549">
        <ele>72.0</ele>
        <time>2019-07-05T19:10:57Z</time>
      </trkpt>
      <trkpt lat="41.41627666666667" lon="-8.785605">
        <ele>72.0</ele>
        <time>2019-07-05T19:10:59Z</time>
      </trkpt>
      <trkpt lat="41.41634" lon="-8.785696666666666">
        <ele>71.0</ele>
        <time>2019-07-05T19:11:02Z</time>
      </trkpt>
      <trkpt lat="41.416415" lon="-8.785676666666667">
        <ele>71.0</ele>
        <time>2019-07-05T19:11:05Z</time>
      </trkpt>
      <trkpt lat="41.41649" lon="-8.785665">
        <ele>71.0</ele>
        <time>2019-07-05T19:11:09Z</time>
      </trkpt>
      <trkpt lat="41.41656" lon="-8.7857">
        <ele>71.0</ele>
        <time>2019-07-05T19:11:11Z</time>
      </trkpt>
      <trkpt lat="41.41665" lon="-8.785745">
        <ele>71.0</ele>
        <time>2019-07-05T19:11:13Z</time>
      </trkpt>
      <trkpt lat="41.41675" lon="-8.78579">
        <ele>71.0</ele>
        <time>2019-07-05T19:11:15Z</time>
      </trkpt>
      <trkpt lat="41.41687" lon="-8.78582">
        <ele>71.0</ele>
        <time>2019-07-05T19:11:17Z</time>
      </trkpt>
      <trkpt lat="41.41699" lon="-8.7858">
        <ele>71.0</ele>
        <time>2019-07-05T19:11:19Z</time>
      </trkpt>
      <trkpt lat="41.4171" lon="-8.785771666666667">
        <ele>71.0</ele>
        <time>2019-07-05T19:11:21Z</time>
      </trkpt>
      <trkpt lat="41.417215" lon="-8.785741666666667">
        <ele>71.0</ele>
        <time>2019-07-05T19:11:23Z</time>
      </trkpt>
      <trkpt lat="41.417335" lon="-8.78571">
        <ele>71.0</ele>
        <time>2019-07-05T19:11:25Z</time>
      </trkpt>
      <trkpt lat="41.41746" lon="-8.785671666666667">
        <ele>71.0</ele>
        <time>2019-07-05T19:11:27Z</time>
      </trkpt>
      <trkpt lat="41.417575" lon="-8.785616666666666">
        <ele>72.0</ele>
        <time>2019-07-05T19:11:29Z</time>
      </trkpt>
      <trkpt lat="41.41768666666667" lon="-8.785565">
        <ele>72.0</ele>
        <time>2019-07-05T19:11:31Z</time>
      </trkpt>
      <trkpt lat="41.417793333333336" lon="-8.78551">
        <ele>72.0</ele>
        <time>2019-07-05T19:11:33Z</time>
      </trkpt>
      <trkpt lat="41.4179" lon="-8.78546">
        <ele>72.0</ele>
        <time>2019-07-05T19:11:35Z</time>
      </trkpt>
      <trkpt lat="41.41799666666667" lon="-8.785405">
        <ele>73.0</ele>
        <time>2019-07-05T19:11:37Z</time>
      </trkpt>
      <trkpt lat="41.41809666666666" lon="-8.78536">
        <ele>73.0</ele>
        <time>2019-07-05T19:11:39Z</time>
      </trkpt>
      <trkpt lat="41.418205" lon="-8.785315">
        <ele>72.0</ele>
        <time>2019-07-05T19:11:41Z</time>
      </trkpt>
      <trkpt lat="41.41831" lon="-8.785265">
        <ele>72.0</ele>
        <time>2019-07-05T19:11:43Z</time>
      </trkpt>
      <trkpt lat="41.418405" lon="-8.78522">
        <ele>72.0</ele>
        <time>2019-07-05T19:11:45Z</time>
      </trkpt>
      <trkpt lat="41.418505" lon="-8.78519">
        <ele>72.0</ele>
        <time>2019-07-05T19:11:47Z</time>
      </trkpt>
      <trkpt lat="41.41859" lon="-8.785155">
        <ele>72.0</ele>
        <time>2019-07-05T19:11:49Z</time>
      </trkpt>
      <trkpt lat="41.41865" lon="-8.785091666666666">
        <ele>73.0</ele>
        <time>2019-07-05T19:11:52Z</time>
      </trkpt>
      <trkpt lat="41.418641666666666" lon="-8.784965">
        <ele>72.0</ele>
        <time>2019-07-05T19:11:55Z</time>
      </trkpt>
      <trkpt lat="41.418645" lon="-8.78483">
        <ele>71.0</ele>
        <time>2019-07-05T19:11:58Z</time>
      </trkpt>
      <trkpt lat="41.41870333333333" lon="-8.784736666666667">
        <ele>71.0</ele>
        <time>2019-07-05T19:12:01Z</time>
      </trkpt>
      <trkpt lat="41.418778333333336" lon="-8.784688333333333">
        <ele>71.0</ele>
        <time>2019-07-05T19:12:03Z</time>
      </trkpt>
      <trkpt lat="41.41888" lon="-8.78467">
        <ele>71.0</ele>
        <time>2019-07-05T19:12:05Z</time>
      </trkpt>
      <trkpt lat="41.41899" lon="-8.78466">
        <ele>70.0</ele>
        <time>2019-07-05T19:12:07Z</time>
      </trkpt>
      <trkpt lat="41.419115" lon="-8.78464">
        <ele>70.0</ele>
        <time>2019-07-05T19:12:09Z</time>
      </trkpt>
      <trkpt lat="41.419225" lon="-8.78462">
        <ele>70.0</ele>
        <time>2019-07-05T19:12:11Z</time>
      </trkpt>
      <trkpt lat="41.419325" lon="-8.784576666666666">
        <ele>71.0</ele>
        <time>2019-07-05T19:12:13Z</time>
      </trkpt>
      <trkpt lat="41.419435" lon="-8.784565">
        <ele>70.0</ele>
        <time>2019-07-05T19:12:15Z</time>
      </trkpt>
      <trkpt lat="41.419535" lon="-8.78455">
        <ele>70.0</ele>
        <time>2019-07-05T19:12:17Z</time>
      </trkpt>
      <trkpt lat="41.41964" lon="-8.784535">
        <ele>70.0</ele>
        <time>2019-07-05T19:12:19Z</time>
      </trkpt>
      <trkpt lat="41.41975" lon="-8.784506666666667">
        <ele>69.0</ele>
        <time>2019-07-05T19:12:21Z</time>
      </trkpt>
      <trkpt lat="41.41985666666667" lon="-8.784486666666666">
        <ele>69.0</ele>
        <time>2019-07-05T19:12:23Z</time>
      </trkpt>
      <trkpt lat="41.41997" lon="-8.784461666666667">
        <ele>69.0</ele>
        <time>2019-07-05T19:12:25Z</time>
      </trkpt>
      <trkpt lat="41.42008" lon="-8.784446666666666">
        <ele>69.0</ele>
        <time>2019-07-05T19:12:27Z</time>
      </trkpt>
      <trkpt lat="41.42019" lon="-8.784423333333333">
        <ele>68.0</ele>
        <time>2019-07-05T19:12:29Z</time>
      </trkpt>
      <trkpt lat="41.420298333333335" lon="-8.78439">
        <ele>68.0</ele>
        <time>2019-07-05T19:12:31Z</time>
      </trkpt>
      <trkpt lat="41.420405" lon="-8.784366666666667">
        <ele>69.0</ele>
        <time>2019-07-05T19:12:33Z</time>
      </trkpt>
      <trkpt lat="41.42051" lon="-8.784345">
        <ele>69.0</ele>
        <time>2019-07-05T19:12:35Z</time>
      </trkpt>
      <trkpt lat="41.42062" lon="-8.784325">
        <ele>69.0</ele>
        <time>2019-07-05T19:12:37Z</time>
      </trkpt>
      <trkpt lat="41.42074" lon="-8.784325">
        <ele>69.0</ele>
        <time>2019-07-05T19:12:39Z</time>
      </trkpt>
      <trkpt lat="41.420856666666666" lon="-8.78434">
        <ele>68.0</ele>
        <time>2019-07-05T19:12:41Z</time>
      </trkpt>
      <trkpt lat="41.42097666666667" lon="-8.784346666666666">
        <ele>69.0</ele>
        <time>2019-07-05T19:12:43Z</time>
      </trkpt>
      <trkpt lat="41.421095" lon="-8.784355">
        <ele>69.0</ele>
        <time>2019-07-05T19:12:45Z</time>
      </trkpt>
      <trkpt lat="41.421205" lon="-8.784368333333333">
        <ele>70.0</ele>
        <time>2019-07-05T19:12:47Z</time>
      </trkpt>
      <trkpt lat="41.42131666666667" lon="-8.784375">
        <ele>70.0</ele>
        <time>2019-07-05T19:12:49Z</time>
      </trkpt>
      <trkpt lat="41.42142" lon="-8.784355">
        <ele>70.0</ele>
        <time>2019-07-05T19:12:51Z</time>
      </trkpt>
      <trkpt lat="41.42152" lon="-8.78434">
        <ele>70.0</ele>
        <time>2019-07-05T19:12:53Z</time>
      </trkpt>
      <trkpt lat="41.42162" lon="-8.784325">
        <ele>70.0</ele>
        <time>2019-07-05T19:12:55Z</time>
      </trkpt>
      <trkpt lat="41.42171" lon="-8.784305">
        <ele>70.0</ele>
        <time>2019-07-05T19:12:57Z</time>
      </trkpt>
      <trkpt lat="41.4218" lon="-8.784295">
        <ele>71.0</ele>
        <time>2019-07-05T19:12:59Z</time>
      </trkpt>
      <trkpt lat="41.421885" lon="-8.784273333333333">
        <ele>70.0</ele>
        <time>2019-07-05T19:13:02Z</time>
      </trkpt>
      <trkpt lat="41.421915" lon="-8.784165">
        <ele>69.0</ele>
        <time>2019-07-05T19:13:07Z</time>
      </trkpt>
      <trkpt lat="41.422" lon="-8.78414">
        <ele>69.0</ele>
        <time>2019-07-05T19:13:10Z</time>
      </trkpt>
      <trkpt lat="41.42207666666667" lon="-8.784175">
        <ele>70.0</ele>
        <time>2019-07-05T19:13:14Z</time>
      </trkpt>
      <trkpt lat="41.42214666666667" lon="-8.78422">
        <ele>71.0</ele>
        <time>2019-07-05T19:13:19Z</time>
      </trkpt>
      <trkpt lat="41.422221666666665" lon="-8.7842">
        <ele>70.0</ele>
        <time>2019-07-05T19:13:21Z</time>
      </trkpt>
      <trkpt lat="41.42231666666667" lon="-8.784178333333333">
        <ele>71.0</ele>
        <time>2019-07-05T19:13:23Z</time>
      </trkpt>
      <trkpt lat="41.42241833333333" lon="-8.784156666666666">
        <ele>71.0</ele>
        <time>2019-07-05T19:13:25Z</time>
      </trkpt>
      <trkpt lat="41.422515" lon="-8.784135">
        <ele>71.0</ele>
        <time>2019-07-05T19:13:27Z</time>
      </trkpt>
      <trkpt lat="41.422601666666665" lon="-8.78411">
        <ele>71.0</ele>
        <time>2019-07-05T19:13:29Z</time>
      </trkpt>
      <trkpt lat="41.422695" lon="-8.784083333333333">
        <ele>71.0</ele>
        <time>2019-07-05T19:13:31Z</time>
      </trkpt>
      <trkpt lat="41.422795" lon="-8.784066666666666">
        <ele>71.0</ele>
        <time>2019-07-05T19:13:33Z</time>
      </trkpt>
      <trkpt lat="41.42289666666667" lon="-8.784046666666667">
        <ele>71.0</ele>
        <time>2019-07-05T19:13:35Z</time>
      </trkpt>
      <trkpt lat="41.42299666666667" lon="-8.78402">
        <ele>70.0</ele>
        <time>2019-07-05T19:13:37Z</time>
      </trkpt>
      <trkpt lat="41.42309" lon="-8.784005">
        <ele>71.0</ele>
        <time>2019-07-05T19:13:39Z</time>
      </trkpt>
      <trkpt lat="41.423181666666665" lon="-8.783995">
        <ele>71.0</ele>
        <time>2019-07-05T19:13:41Z</time>
      </trkpt>
      <trkpt lat="41.423275" lon="-8.783986666666667">
        <ele>71.0</ele>
        <time>2019-07-05T19:13:43Z</time>
      </trkpt>
      <trkpt lat="41.42337166666667" lon="-8.783965">
        <ele>70.0</ele>
        <time>2019-07-05T19:13:45Z</time>
      </trkpt>
      <trkpt lat="41.423475" lon="-8.783936666666667">
        <ele>70.0</ele>
        <time>2019-07-05T19:13:47Z</time>
      </trkpt>
      <trkpt lat="41.42358" lon="-8.7839">
        <ele>70.0</ele>
        <time>2019-07-05T19:13:49Z</time>
      </trkpt>
      <trkpt lat="41.423695" lon="-8.783855">
        <ele>69.0</ele>
        <time>2019-07-05T19:13:51Z</time>
      </trkpt>
      <trkpt lat="41.423815" lon="-8.78382">
        <ele>69.0</ele>
        <time>2019-07-05T19:13:53Z</time>
      </trkpt>
      <trkpt lat="41.423935" lon="-8.783775">
        <ele>68.0</ele>
        <time>2019-07-05T19:13:55Z</time>
      </trkpt>
      <trkpt lat="41.424055" lon="-8.78373">
        <ele>68.0</ele>
        <time>2019-07-05T19:13:57Z</time>
      </trkpt>
      <trkpt lat="41.424185" lon="-8.783685">
        <ele>68.0</ele>
        <time>2019-07-05T19:13:59Z</time>
      </trkpt>
      <trkpt lat="41.4243" lon="-8.78363">
        <ele>68.0</ele>
        <time>2019-07-05T19:14:01Z</time>
      </trkpt>
      <trkpt lat="41.424393333333335" lon="-8.783545">
        <ele>70.0</ele>
        <time>2019-07-05T19:14:03Z</time>
      </trkpt>
      <trkpt lat="41.42447" lon="-8.783455">
        <ele>70.0</ele>
        <time>2019-07-05T19:14:05Z</time>
      </trkpt>
      <trkpt lat="41.42454333333333" lon="-8.78337">
        <ele>70.0</ele>
        <time>2019-07-05T19:14:07Z</time>
      </trkpt>
      <trkpt lat="41.424635" lon="-8.783346666666667">
        <ele>70.0</ele>
        <time>2019-07-05T19:14:09Z</time>
      </trkpt>
      <trkpt lat="41.42475" lon="-8.783323333333334">
        <ele>70.0</ele>
        <time>2019-07-05T19:14:11Z</time>
      </trkpt>
      <trkpt lat="41.42487666666667" lon="-8.783315">
        <ele>71.0</ele>
        <time>2019-07-05T19:14:13Z</time>
      </trkpt>
      <trkpt lat="41.424995" lon="-8.783315">
        <ele>70.0</ele>
        <time>2019-07-05T19:14:15Z</time>
      </trkpt>
      <trkpt lat="41.425115" lon="-8.7833">
        <ele>71.0</ele>
        <time>2019-07-05T19:14:17Z</time>
      </trkpt>
      <trkpt lat="41.42523" lon="-8.783281666666667">
        <ele>71.0</ele>
        <time>2019-07-05T19:14:19Z</time>
      </trkpt>
      <trkpt lat="41.42535" lon="-8.78326">
        <ele>71.0</ele>
        <time>2019-07-05T19:14:21Z</time>
      </trkpt>
      <trkpt lat="41.42546166666666" lon="-8.783245">
        <ele>71.0</ele>
        <time>2019-07-05T19:14:23Z</time>
      </trkpt>
      <trkpt lat="41.425585" lon="-8.78323">
        <ele>72.0</ele>
        <time>2019-07-05T19:14:25Z</time>
      </trkpt>
      <trkpt lat="41.425705" lon="-8.783225">
        <ele>72.0</ele>
        <time>2019-07-05T19:14:27Z</time>
      </trkpt>
      <trkpt lat="41.42584" lon="-8.783191666666667">
        <ele>73.0</ele>
        <time>2019-07-05T19:14:29Z</time>
      </trkpt>
      <trkpt lat="41.42597166666667" lon="-8.78318">
        <ele>73.0</ele>
        <time>2019-07-05T19:14:31Z</time>
      </trkpt>
      <trkpt lat="41.426105" lon="-8.78317">
        <ele>72.0</ele>
        <time>2019-07-05T19:14:33Z</time>
      </trkpt>
      <trkpt lat="41.426235" lon="-8.78316">
        <ele>72.0</ele>
        <time>2019-07-05T19:14:35Z</time>
      </trkpt>
      <trkpt lat="41.426361666666665" lon="-8.783158333333333">
        <ele>71.0</ele>
        <time>2019-07-05T19:14:37Z</time>
      </trkpt>
      <trkpt lat="41.426496666666665" lon="-8.78318">
        <ele>71.0</ele>
        <time>2019-07-05T19:14:39Z</time>
      </trkpt>
      <trkpt lat="41.426625" lon="-8.78323">
        <ele>71.0</ele>
        <time>2019-07-05T19:14:41Z</time>
      </trkpt>
      <trkpt lat="41.426755" lon="-8.783265">
        <ele>71.0</ele>
        <time>2019-07-05T19:14:43Z</time>
      </trkpt>
      <trkpt lat="41.426885" lon="-8.783295">
        <ele>71.0</ele>
        <time>2019-07-05T19:14:45Z</time>
      </trkpt>
      <trkpt lat="41.42702" lon="-8.7833">
        <ele>72.0</ele>
        <time>2019-07-05T19:14:47Z</time>
      </trkpt>
      <trkpt lat="41.42714" lon="-8.783305">
        <ele>71.0</ele>
        <time>2019-07-05T19:14:49Z</time>
      </trkpt>
      <trkpt lat="41.427255" lon="-8.783341666666667">
        <ele>71.0</ele>
        <time>2019-07-05T19:14:51Z</time>
      </trkpt>
      <trkpt lat="41.42736333333333" lon="-8.783375">
        <ele>71.0</ele>
        <time>2019-07-05T19:14:53Z</time>
      </trkpt>
      <trkpt lat="41.427481666666665" lon="-8.783405">
        <ele>71.0</ele>
        <time>2019-07-05T19:14:55Z</time>
      </trkpt>
      <trkpt lat="41.4276" lon="-8.783425">
        <ele>71.0</ele>
        <time>2019-07-05T19:14:57Z</time>
      </trkpt>
      <trkpt lat="41.427715" lon="-8.783455">
        <ele>71.0</ele>
        <time>2019-07-05T19:14:59Z</time>
      </trkpt>
      <trkpt lat="41.42783" lon="-8.78347">
        <ele>71.0</ele>
        <time>2019-07-05T19:15:01Z</time>
      </trkpt>
      <trkpt lat="41.427945" lon="-8.7835">
        <ele>71.0</ele>
        <time>2019-07-05T19:15:03Z</time>
      </trkpt>
      <trkpt lat="41.42806" lon="-8.783531666666667">
        <ele>70.0</ele>
        <time>2019-07-05T19:15:05Z</time>
      </trkpt>
      <trkpt lat="41.428176666666666" lon="-8.78357">
        <ele>70.0</ele>
        <time>2019-07-05T19:15:07Z</time>
      </trkpt>
      <trkpt lat="41.42829166666667" lon="-8.783595">
        <ele>70.0</ele>
        <time>2019-07-05T19:15:09Z</time>
      </trkpt>
      <trkpt lat="41.428403333333335" lon="-8.783625">
        <ele>70.0</ele>
        <time>2019-07-05T19:15:11Z</time>
      </trkpt>
      <trkpt lat="41.42852" lon="-8.783655">
        <ele>70.0</ele>
        <time>2019-07-05T19:15:13Z</time>
      </trkpt>
      <trkpt lat="41.428626666666666" lon="-8.78364">
        <ele>70.0</ele>
        <time>2019-07-05T19:15:15Z</time>
      </trkpt>
      <trkpt lat="41.42874" lon="-8.78362">
        <ele>70.0</ele>
        <time>2019-07-05T19:15:17Z</time>
      </trkpt>
      <trkpt lat="41.428865" lon="-8.783635">
        <ele>70.0</ele>
        <time>2019-07-05T19:15:19Z</time>
      </trkpt>
      <trkpt lat="41.42899" lon="-8.78365">
        <ele>71.0</ele>
        <time>2019-07-05T19:15:21Z</time>
      </trkpt>
      <trkpt lat="41.42911" lon="-8.783665">
        <ele>71.0</ele>
        <time>2019-07-05T19:15:23Z</time>
      </trkpt>
      <trkpt lat="41.429225" lon="-8.783696666666666">
        <ele>71.0</ele>
        <time>2019-07-05T19:15:25Z</time>
      </trkpt>
      <trkpt lat="41.429335" lon="-8.78372">
        <ele>72.0</ele>
        <time>2019-07-05T19:15:27Z</time>
      </trkpt>
      <trkpt lat="41.42946" lon="-8.783715">
        <ele>71.0</ele>
        <time>2019-07-05T19:15:29Z</time>
      </trkpt>
      <trkpt lat="41.429595" lon="-8.78373">
        <ele>71.0</ele>
        <time>2019-07-05T19:15:31Z</time>
      </trkpt>
      <trkpt lat="41.429735" lon="-8.783735">
        <ele>71.0</ele>
        <time>2019-07-05T19:15:33Z</time>
      </trkpt>
      <trkpt lat="41.42987" lon="-8.783735">
        <ele>71.0</ele>
        <time>2019-07-05T19:15:35Z</time>
      </trkpt>
      <trkpt lat="41.43" lon="-8.78373">
        <ele>69.0</ele>
        <time>2019-07-05T19:15:37Z</time>
      </trkpt>
      <trkpt lat="41.43013" lon="-8.783711666666667">
        <ele>69.0</ele>
        <time>2019-07-05T19:15:39Z</time>
      </trkpt>
      <trkpt lat="41.430245" lon="-8.783695">
        <ele>69.0</ele>
        <time>2019-07-05T19:15:41Z</time>
      </trkpt>
      <trkpt lat="41.43036" lon="-8.783703333333333">
        <ele>69.0</ele>
        <time>2019-07-05T19:15:43Z</time>
      </trkpt>
      <trkpt lat="41.430465" lon="-8.783701666666667">
        <ele>69.0</ele>
        <time>2019-07-05T19:15:45Z</time>
      </trkpt>
      <trkpt lat="41.43056" lon="-8.783715">
        <ele>68.0</ele>
        <time>2019-07-05T19:15:47Z</time>
      </trkpt>
      <trkpt lat="41.43064" lon="-8.78371">
        <ele>68.0</ele>
        <time>2019-07-05T19:15:49Z</time>
      </trkpt>
      <trkpt lat="41.430705" lon="-8.783615">
        <ele>68.0</ele>
        <time>2019-07-05T19:15:52Z</time>
      </trkpt>
      <trkpt lat="41.43069166666667" lon="-8.783475">
        <ele>69.0</ele>
        <time>2019-07-05T19:15:55Z</time>
      </trkpt>
      <trkpt lat="41.430705" lon="-8.783355">
        <ele>71.0</ele>
        <time>2019-07-05T19:15:58Z</time>
      </trkpt>
      <trkpt lat="41.430775" lon="-8.783261666666666">
        <ele>69.0</ele>
        <time>2019-07-05T19:16:02Z</time>
      </trkpt>
      <trkpt lat="41.43082166666667" lon="-8.78318">
        <ele>69.0</ele>
        <time>2019-07-05T19:16:04Z</time>
      </trkpt>
      <trkpt lat="41.430835" lon="-8.78305">
        <ele>68.0</ele>
        <time>2019-07-05T19:16:06Z</time>
      </trkpt>
      <trkpt lat="41.43083166666667" lon="-8.78292">
        <ele>68.0</ele>
        <time>2019-07-05T19:16:08Z</time>
      </trkpt>
      <trkpt lat="41.430815" lon="-8.782765">
        <ele>68.0</ele>
        <time>2019-07-05T19:16:10Z</time>
      </trkpt>
      <trkpt lat="41.43081" lon="-8.78263">
        <ele>67.0</ele>
        <time>2019-07-05T19:16:12Z</time>
      </trkpt>
      <trkpt lat="41.43084666666667" lon="-8.782528333333333">
        <ele>66.0</ele>
        <time>2019-07-05T19:16:14Z</time>
      </trkpt>
      <trkpt lat="41.430925" lon="-8.7825">
        <ele>66.0</ele>
        <time>2019-07-05T19:16:16Z</time>
      </trkpt>
      <trkpt lat="41.431035" lon="-8.78249">
        <ele>64.0</ele>
        <time>2019-07-05T19:16:18Z</time>
      </trkpt>
      <trkpt lat="41.43114" lon="-8.782495">
        <ele>64.0</ele>
        <time>2019-07-05T19:16:20Z</time>
      </trkpt>
      <trkpt lat="41.431221666666666" lon="-8.782565">
        <ele>64.0</ele>
        <time>2019-07-05T19:16:22Z</time>
      </trkpt>
      <trkpt lat="41.431286666666665" lon="-8.782635">
        <ele>65.0</ele>
        <time>2019-07-05T19:16:24Z</time>
      </trkpt>
      <trkpt lat="41.43138" lon="-8.782655">
        <ele>65.0</ele>
        <time>2019-07-05T19:16:26Z</time>
      </trkpt>
      <trkpt lat="41.431485" lon="-8.782675">
        <ele>65.0</ele>
        <time>2019-07-05T19:16:28Z</time>
      </trkpt>
      <trkpt lat="41.431605" lon="-8.782681666666667">
        <ele>65.0</ele>
        <time>2019-07-05T19:16:30Z</time>
      </trkpt>
      <trkpt lat="41.43172666666667" lon="-8.78268">
        <ele>65.0</ele>
        <time>2019-07-05T19:16:32Z</time>
      </trkpt>
      <trkpt lat="41.431841666666664" lon="-8.782695">
        <ele>63.0</ele>
        <time>2019-07-05T19:16:34Z</time>
      </trkpt>
      <trkpt lat="41.431955" lon="-8.782675">
        <ele>63.0</ele>
        <time>2019-07-05T19:16:36Z</time>
      </trkpt>
      <trkpt lat="41.43207" lon="-8.782666666666668">
        <ele>62.0</ele>
        <time>2019-07-05T19:16:38Z</time>
      </trkpt>
      <trkpt lat="41.43218" lon="-8.782675">
        <ele>62.0</ele>
        <time>2019-07-05T19:16:40Z</time>
      </trkpt>
      <trkpt lat="41.432285" lon="-8.782655">
        <ele>63.0</ele>
        <time>2019-07-05T19:16:42Z</time>
      </trkpt>
      <trkpt lat="41.432385" lon="-8.782621666666667">
        <ele>63.0</ele>
        <time>2019-07-05T19:16:44Z</time>
      </trkpt>
      <trkpt lat="41.43249" lon="-8.782575">
        <ele>63.0</ele>
        <time>2019-07-05T19:16:46Z</time>
      </trkpt>
      <trkpt lat="41.4326" lon="-8.782545">
        <ele>63.0</ele>
        <time>2019-07-05T19:16:48Z</time>
      </trkpt>
      <trkpt lat="41.432705" lon="-8.782505">
        <ele>63.0</ele>
        <time>2019-07-05T19:16:50Z</time>
      </trkpt>
      <trkpt lat="41.43281" lon="-8.782465">
        <ele>62.0</ele>
        <time>2019-07-05T19:16:52Z</time>
      </trkpt>
      <trkpt lat="41.43292" lon="-8.78243">
        <ele>62.0</ele>
        <time>2019-07-05T19:16:54Z</time>
      </trkpt>
      <trkpt lat="41.43303" lon="-8.78238">
        <ele>63.0</ele>
        <time>2019-07-05T19:16:56Z</time>
      </trkpt>
      <trkpt lat="41.43313" lon="-8.782345">
        <ele>64.0</ele>
        <time>2019-07-05T19:16:58Z</time>
      </trkpt>
      <trkpt lat="41.433235" lon="-8.782301666666667">
        <ele>64.0</ele>
        <time>2019-07-05T19:17:00Z</time>
      </trkpt>
      <trkpt lat="41.433321666666664" lon="-8.782275">
        <ele>64.0</ele>
        <time>2019-07-05T19:17:02Z</time>
      </trkpt>
      <trkpt lat="41.433405" lon="-8.782301666666667">
        <ele>64.0</ele>
        <time>2019-07-05T19:17:04Z</time>
      </trkpt>
      <trkpt lat="41.433465" lon="-8.782385">
        <ele>64.0</ele>
        <time>2019-07-05T19:17:06Z</time>
      </trkpt>
      <trkpt lat="41.433525" lon="-8.78247">
        <ele>64.0</ele>
        <time>2019-07-05T19:17:08Z</time>
      </trkpt>
      <trkpt lat="41.43362" lon="-8.782545">
        <ele>64.0</ele>
        <time>2019-07-05T19:17:10Z</time>
      </trkpt>
      <trkpt lat="41.433706666666666" lon="-8.78254">
        <ele>64.0</ele>
        <time>2019-07-05T19:17:12Z</time>
      </trkpt>
      <trkpt lat="41.433805" lon="-8.7825">
        <ele>64.0</ele>
        <time>2019-07-05T19:17:14Z</time>
      </trkpt>
      <trkpt lat="41.433915" lon="-8.78246">
        <ele>65.0</ele>
        <time>2019-07-05T19:17:16Z</time>
      </trkpt>
      <trkpt lat="41.434021666666666" lon="-8.78241">
        <ele>65.0</ele>
        <time>2019-07-05T19:17:18Z</time>
      </trkpt>
      <trkpt lat="41.43413" lon="-8.78235">
        <ele>65.0</ele>
        <time>2019-07-05T19:17:20Z</time>
      </trkpt>
      <trkpt lat="41.434225" lon="-8.782275">
        <ele>66.0</ele>
        <time>2019-07-05T19:17:22Z</time>
      </trkpt>
      <trkpt lat="41.434331666666665" lon="-8.782201666666667">
        <ele>65.0</ele>
        <time>2019-07-05T19:17:24Z</time>
      </trkpt>
      <trkpt lat="41.43443666666667" lon="-8.782125">
        <ele>65.0</ele>
        <time>2019-07-05T19:17:26Z</time>
      </trkpt>
      <trkpt lat="41.43455" lon="-8.782045">
        <ele>65.0</ele>
        <time>2019-07-05T19:17:28Z</time>
      </trkpt>
      <trkpt lat="41.43465" lon="-8.781955">
        <ele>65.0</ele>
        <time>2019-07-05T19:17:30Z</time>
      </trkpt>
      <trkpt lat="41.434755" lon="-8.78187">
        <ele>65.0</ele>
        <time>2019-07-05T19:17:32Z</time>
      </trkpt>
      <trkpt lat="41.434848333333335" lon="-8.78178">
        <ele>65.0</ele>
        <time>2019-07-05T19:17:34Z</time>
      </trkpt>
      <trkpt lat="41.434945" lon="-8.781675">
        <ele>65.0</ele>
        <time>2019-07-05T19:17:36Z</time>
      </trkpt>
      <trkpt lat="41.43504" lon="-8.78158">
        <ele>65.0</ele>
        <time>2019-07-05T19:17:38Z</time>
      </trkpt>
      <trkpt lat="41.43513" lon="-8.78149">
        <ele>66.0</ele>
        <time>2019-07-05T19:17:40Z</time>
      </trkpt>
      <trkpt lat="41.43521" lon="-8.781405">
        <ele>66.0</ele>
        <time>2019-07-05T19:17:42Z</time>
      </trkpt>
      <trkpt lat="41.435285" lon="-8.781318333333333">
        <ele>66.0</ele>
        <time>2019-07-05T19:17:44Z</time>
      </trkpt>
      <trkpt lat="41.435355" lon="-8.78124">
        <ele>66.0</ele>
        <time>2019-07-05T19:17:46Z</time>
      </trkpt>
      <trkpt lat="41.435405" lon="-8.781145">
        <ele>65.0</ele>
        <time>2019-07-05T19:17:48Z</time>
      </trkpt>
      <trkpt lat="41.43544" lon="-8.781055">
        <ele>65.0</ele>
        <time>2019-07-05T19:17:50Z</time>
      </trkpt>
      <trkpt lat="41.435485" lon="-8.780955">
        <ele>65.0</ele>
        <time>2019-07-05T19:17:52Z</time>
      </trkpt>
      <trkpt lat="41.43555" lon="-8.78088">
        <ele>65.0</ele>
        <time>2019-07-05T19:17:54Z</time>
      </trkpt>
      <trkpt lat="41.43562333333333" lon="-8.780808333333333">
        <ele>66.0</ele>
        <time>2019-07-05T19:17:56Z</time>
      </trkpt>
      <trkpt lat="41.4357" lon="-8.78074">
        <ele>66.0</ele>
        <time>2019-07-05T19:17:58Z</time>
      </trkpt>
      <trkpt lat="41.43577" lon="-8.780665">
        <ele>66.0</ele>
        <time>2019-07-05T19:18:00Z</time>
      </trkpt>
      <trkpt lat="41.435826666666664" lon="-8.780596666666666">
        <ele>66.0</ele>
        <time>2019-07-05T19:18:02Z</time>
      </trkpt>
      <trkpt lat="41.435865" lon="-8.78051">
        <ele>66.0</ele>
        <time>2019-07-05T19:18:04Z</time>
      </trkpt>
      <trkpt lat="41.43591" lon="-8.780425">
        <ele>66.0</ele>
        <time>2019-07-05T19:18:06Z</time>
      </trkpt>
      <trkpt lat="41.43598" lon="-8.780355">
        <ele>66.0</ele>
        <time>2019-07-05T19:18:08Z</time>
      </trkpt>
      <trkpt lat="41.436056666666666" lon="-8.780265">
        <ele>66.0</ele>
        <time>2019-07-05T19:18:10Z</time>
      </trkpt>
      <trkpt lat="41.436146666666666" lon="-8.78017">
        <ele>67.0</ele>
        <time>2019-07-05T19:18:12Z</time>
      </trkpt>
      <trkpt lat="41.43624" lon="-8.78007">
        <ele>67.0</ele>
        <time>2019-07-05T19:18:14Z</time>
      </trkpt>
      <trkpt lat="41.436326666666666" lon="-8.77998">
        <ele>67.0</ele>
        <time>2019-07-05T19:18:16Z</time>
      </trkpt>
      <trkpt lat="41.43640166666667" lon="-8.779895">
        <ele>67.0</ele>
        <time>2019-07-05T19:18:18Z</time>
      </trkpt>
      <trkpt lat="41.436475" lon="-8.779821666666667">
        <ele>67.0</ele>
        <time>2019-07-05T19:18:20Z</time>
      </trkpt>
      <trkpt lat="41.436545" lon="-8.77975">
        <ele>67.0</ele>
        <time>2019-07-05T19:18:22Z</time>
      </trkpt>
      <trkpt lat="41.436605" lon="-8.77968">
        <ele>66.0</ele>
        <time>2019-07-05T19:18:24Z</time>
      </trkpt>
      <trkpt lat="41.43669666666667" lon="-8.779585">
        <ele>66.0</ele>
        <time>2019-07-05T19:18:27Z</time>
      </trkpt>
      <trkpt lat="41.436765" lon="-8.779506666666666">
        <ele>65.0</ele>
        <time>2019-07-05T19:18:29Z</time>
      </trkpt>
      <trkpt lat="41.43683" lon="-8.779421666666666">
        <ele>66.0</ele>
        <time>2019-07-05T19:18:31Z</time>
      </trkpt>
      <trkpt lat="41.43690333333333" lon="-8.77933">
        <ele>66.0</ele>
        <time>2019-07-05T19:18:33Z</time>
      </trkpt>
      <trkpt lat="41.436973333333334" lon="-8.779245">
        <ele>66.0</ele>
        <time>2019-07-05T19:18:35Z</time>
      </trkpt>
      <trkpt lat="41.43704" lon="-8.77918">
        <ele>65.0</ele>
        <time>2019-07-05T19:18:37Z</time>
      </trkpt>
      <trkpt lat="41.43711" lon="-8.77911">
        <ele>65.0</ele>
        <time>2019-07-05T19:18:39Z</time>
      </trkpt>
      <trkpt lat="41.437185" lon="-8.77906">
        <ele>64.0</ele>
        <time>2019-07-05T19:18:41Z</time>
      </trkpt>
      <trkpt lat="41.43726" lon="-8.779015">
        <ele>65.0</ele>
        <time>2019-07-05T19:18:43Z</time>
      </trkpt>
      <trkpt lat="41.43733" lon="-8.7789">
        <ele>67.0</ele>
        <time>2019-07-05T19:18:45Z</time>
      </trkpt>
      <trkpt lat="41.437365" lon="-8.778765">
        <ele>68.0</ele>
        <time>2019-07-05T19:18:47Z</time>
      </trkpt>
      <trkpt lat="41.437395" lon="-8.778635">
        <ele>70.0</ele>
        <time>2019-07-05T19:18:49Z</time>
      </trkpt>
      <trkpt lat="41.43742" lon="-8.77851">
        <ele>70.0</ele>
        <time>2019-07-05T19:18:51Z</time>
      </trkpt>
      <trkpt lat="41.43744" lon="-8.778405">
        <ele>70.0</ele>
        <time>2019-07-05T19:18:54Z</time>
      </trkpt>
      <trkpt lat="41.43753" lon="-8.77832">
        <ele>67.0</ele>
        <time>2019-07-05T19:18:59Z</time>
      </trkpt>
      <trkpt lat="41.437605" lon="-8.778275">
        <ele>67.0</ele>
        <time>2019-07-05T19:19:01Z</time>
      </trkpt>
      <trkpt lat="41.437705" lon="-8.778231666666667">
        <ele>66.0</ele>
        <time>2019-07-05T19:19:03Z</time>
      </trkpt>
      <trkpt lat="41.437801666666665" lon="-8.77819">
        <ele>67.0</ele>
        <time>2019-07-05T19:19:05Z</time>
      </trkpt>
      <trkpt lat="41.437905" lon="-8.778145">
        <ele>66.0</ele>
        <time>2019-07-05T19:19:07Z</time>
      </trkpt>
      <trkpt lat="41.438" lon="-8.778095">
        <ele>67.0</ele>
        <time>2019-07-05T19:19:09Z</time>
      </trkpt>
      <trkpt lat="41.43810166666667" lon="-8.77805">
        <ele>67.0</ele>
        <time>2019-07-05T19:19:11Z</time>
      </trkpt>
      <trkpt lat="41.4382" lon="-8.778">
        <ele>67.0</ele>
        <time>2019-07-05T19:19:13Z</time>
      </trkpt>
      <trkpt lat="41.43830166666667" lon="-8.777948333333333">
        <ele>67.0</ele>
        <time>2019-07-05T19:19:15Z</time>
      </trkpt>
      <trkpt lat="41.438395" lon="-8.777896666666667">
        <ele>66.0</ele>
        <time>2019-07-05T19:19:17Z</time>
      </trkpt>
      <trkpt lat="41.43850166666667" lon="-8.777845">
        <ele>66.0</ele>
        <time>2019-07-05T19:19:19Z</time>
      </trkpt>
      <trkpt lat="41.438605" lon="-8.7778">
        <ele>67.0</ele>
        <time>2019-07-05T19:19:21Z</time>
      </trkpt>
      <trkpt lat="41.43871" lon="-8.77774">
        <ele>66.0</ele>
        <time>2019-07-05T19:19:23Z</time>
      </trkpt>
      <trkpt lat="41.438825" lon="-8.77769">
        <ele>67.0</ele>
        <time>2019-07-05T19:19:25Z</time>
      </trkpt>
      <trkpt lat="41.43893666666666" lon="-8.777616666666667">
        <ele>68.0</ele>
        <time>2019-07-05T19:19:27Z</time>
      </trkpt>
      <trkpt lat="41.439" lon="-8.777575">
        <ele>69.0</ele>
        <time>2019-07-05T19:19:28Z</time>
      </trkpt>
      <trkpt lat="41.439115" lon="-8.777515">
        <ele>69.0</ele>
        <time>2019-07-05T19:19:30Z</time>
      </trkpt>
      <trkpt lat="41.439231666666664" lon="-8.77744">
        <ele>70.0</ele>
        <time>2019-07-05T19:19:32Z</time>
      </trkpt>
      <trkpt lat="41.43935166666667" lon="-8.777375">
        <ele>70.0</ele>
        <time>2019-07-05T19:19:34Z</time>
      </trkpt>
      <trkpt lat="41.43947" lon="-8.77731">
        <ele>70.0</ele>
        <time>2019-07-05T19:19:36Z</time>
      </trkpt>
      <trkpt lat="41.43959" lon="-8.77724">
        <ele>70.0</ele>
        <time>2019-07-05T19:19:38Z</time>
      </trkpt>
      <trkpt lat="41.439715" lon="-8.777175">
        <ele>71.0</ele>
        <time>2019-07-05T19:19:40Z</time>
      </trkpt>
      <trkpt lat="41.43984" lon="-8.777105">
        <ele>71.0</ele>
        <time>2019-07-05T19:19:42Z</time>
      </trkpt>
      <trkpt lat="41.439965" lon="-8.777035">
        <ele>72.0</ele>
        <time>2019-07-05T19:19:44Z</time>
      </trkpt>
      <trkpt lat="41.440085" lon="-8.77697">
        <ele>71.0</ele>
        <time>2019-07-05T19:19:46Z</time>
      </trkpt>
      <trkpt lat="41.44021" lon="-8.776895">
        <ele>71.0</ele>
        <time>2019-07-05T19:19:48Z</time>
      </trkpt>
      <trkpt lat="41.440335" lon="-8.776825">
        <ele>71.0</ele>
        <time>2019-07-05T19:19:50Z</time>
      </trkpt>
      <trkpt lat="41.440463333333334" lon="-8.776755">
        <ele>71.0</ele>
        <time>2019-07-05T19:19:52Z</time>
      </trkpt>
      <trkpt lat="41.440595" lon="-8.776685">
        <ele>72.0</ele>
        <time>2019-07-05T19:19:54Z</time>
      </trkpt>
      <trkpt lat="41.44072" lon="-8.776615">
        <ele>73.0</ele>
        <time>2019-07-05T19:19:56Z</time>
      </trkpt>
      <trkpt lat="41.44083666666667" lon="-8.776545">
        <ele>72.0</ele>
        <time>2019-07-05T19:19:58Z</time>
      </trkpt>
      <trkpt lat="41.44096" lon="-8.776475">
        <ele>71.0</ele>
        <time>2019-07-05T19:20:00Z</time>
      </trkpt>
      <trkpt lat="41.44108" lon="-8.77641">
        <ele>71.0</ele>
        <time>2019-07-05T19:20:02Z</time>
      </trkpt>
      <trkpt lat="41.441205" lon="-8.77634">
        <ele>71.0</ele>
        <time>2019-07-05T19:20:04Z</time>
      </trkpt>
      <trkpt lat="41.441325" lon="-8.77627">
        <ele>70.0</ele>
        <time>2019-07-05T19:20:06Z</time>
      </trkpt>
      <trkpt lat="41.441445" lon="-8.7762">
        <ele>70.0</ele>
        <time>2019-07-05T19:20:08Z</time>
      </trkpt>
      <trkpt lat="41.44156666666667" lon="-8.776135">
        <ele>70.0</ele>
        <time>2019-07-05T19:20:10Z</time>
      </trkpt>
      <trkpt lat="41.44169" lon="-8.776061666666667">
        <ele>69.0</ele>
        <time>2019-07-05T19:20:12Z</time>
      </trkpt>
      <trkpt lat="41.441811666666666" lon="-8.775995">
        <ele>69.0</ele>
        <time>2019-07-05T19:20:14Z</time>
      </trkpt>
      <trkpt lat="41.441935" lon="-8.775925">
        <ele>69.0</ele>
        <time>2019-07-05T19:20:16Z</time>
      </trkpt>
      <trkpt lat="41.442051666666664" lon="-8.775851666666666">
        <ele>69.0</ele>
        <time>2019-07-05T19:20:18Z</time>
      </trkpt>
      <trkpt lat="41.442166666666665" lon="-8.775781666666667">
        <ele>69.0</ele>
        <time>2019-07-05T19:20:20Z</time>
      </trkpt>
      <trkpt lat="41.442281666666666" lon="-8.77572">
        <ele>68.0</ele>
        <time>2019-07-05T19:20:22Z</time>
      </trkpt>
      <trkpt lat="41.442395" lon="-8.77565">
        <ele>68.0</ele>
        <time>2019-07-05T19:20:24Z</time>
      </trkpt>
      <trkpt lat="41.442501666666665" lon="-8.775575">
        <ele>68.0</ele>
        <time>2019-07-05T19:20:26Z</time>
      </trkpt>
      <trkpt lat="41.44261" lon="-8.7755">
        <ele>68.0</ele>
        <time>2019-07-05T19:20:28Z</time>
      </trkpt>
      <trkpt lat="41.442715" lon="-8.775408333333333">
        <ele>68.0</ele>
        <time>2019-07-05T19:20:30Z</time>
      </trkpt>
      <trkpt lat="41.442816666666666" lon="-8.775325">
        <ele>69.0</ele>
        <time>2019-07-05T19:20:32Z</time>
      </trkpt>
      <trkpt lat="41.44291" lon="-8.775226666666667">
        <ele>69.0</ele>
        <time>2019-07-05T19:20:34Z</time>
      </trkpt>
      <trkpt lat="41.442995" lon="-8.775126666666667">
        <ele>70.0</ele>
        <time>2019-07-05T19:20:36Z</time>
      </trkpt>
      <trkpt lat="41.44307166666667" lon="-8.77502">
        <ele>70.0</ele>
        <time>2019-07-05T19:20:38Z</time>
      </trkpt>
      <trkpt lat="41.443145" lon="-8.77491">
        <ele>69.0</ele>
        <time>2019-07-05T19:20:40Z</time>
      </trkpt>
      <trkpt lat="41.443225" lon="-8.774803333333333">
        <ele>69.0</ele>
        <time>2019-07-05T19:20:42Z</time>
      </trkpt>
      <trkpt lat="41.443305" lon="-8.774695">
        <ele>69.0</ele>
        <time>2019-07-05T19:20:44Z</time>
      </trkpt>
      <trkpt lat="41.44338666666667" lon="-8.774611666666667">
        <ele>68.0</ele>
        <time>2019-07-05T19:20:46Z</time>
      </trkpt>
      <trkpt lat="41.44348" lon="-8.77453">
        <ele>69.0</ele>
        <time>2019-07-05T19:20:48Z</time>
      </trkpt>
      <trkpt lat="41.443571666666664" lon="-8.774466666666667">
        <ele>70.0</ele>
        <time>2019-07-05T19:20:50Z</time>
      </trkpt>
      <trkpt lat="41.443675" lon="-8.774415">
        <ele>71.0</ele>
        <time>2019-07-05T19:20:52Z</time>
      </trkpt>
      <trkpt lat="41.443781666666666" lon="-8.774375">
        <ele>71.0</ele>
        <time>2019-07-05T19:20:54Z</time>
      </trkpt>
      <trkpt lat="41.44389" lon="-8.774335">
        <ele>71.0</ele>
        <time>2019-07-05T19:20:56Z</time>
      </trkpt>
      <trkpt lat="41.444005" lon="-8.774295">
        <ele>71.0</ele>
        <time>2019-07-05T19:20:58Z</time>
      </trkpt>
      <trkpt lat="41.444115" lon="-8.774275">
        <ele>71.0</ele>
        <time>2019-07-05T19:21:00Z</time>
      </trkpt>
      <trkpt lat="41.44422" lon="-8.774255">
        <ele>72.0</ele>
        <time>2019-07-05T19:21:02Z</time>
      </trkpt>
      <trkpt lat="41.44433166666666" lon="-8.77423">
        <ele>71.0</ele>
        <time>2019-07-05T19:21:04Z</time>
      </trkpt>
      <trkpt lat="41.444445" lon="-8.77421">
        <ele>71.0</ele>
        <time>2019-07-05T19:21:06Z</time>
      </trkpt>
      <trkpt lat="41.44455166666667" lon="-8.77417">
        <ele>71.0</ele>
        <time>2019-07-05T19:21:08Z</time>
      </trkpt>
      <trkpt lat="41.444665" lon="-8.774145">
        <ele>71.0</ele>
        <time>2019-07-05T19:21:10Z</time>
      </trkpt>
      <trkpt lat="41.44478" lon="-8.774125">
        <ele>71.0</ele>
        <time>2019-07-05T19:21:12Z</time>
      </trkpt>
      <trkpt lat="41.44489166666666" lon="-8.77409">
        <ele>71.0</ele>
        <time>2019-07-05T19:21:14Z</time>
      </trkpt>
      <trkpt lat="41.445005" lon="-8.774061666666666">
        <ele>71.0</ele>
        <time>2019-07-05T19:21:16Z</time>
      </trkpt>
      <trkpt lat="41.445121666666665" lon="-8.774035">
        <ele>71.0</ele>
        <time>2019-07-05T19:21:18Z</time>
      </trkpt>
      <trkpt lat="41.445231666666665" lon="-8.774005">
        <ele>70.0</ele>
        <time>2019-07-05T19:21:20Z</time>
      </trkpt>
      <trkpt lat="41.44535" lon="-8.773976666666666">
        <ele>71.0</ele>
        <time>2019-07-05T19:21:22Z</time>
      </trkpt>
      <trkpt lat="41.44547" lon="-8.773955">
        <ele>71.0</ele>
        <time>2019-07-05T19:21:24Z</time>
      </trkpt>
      <trkpt lat="41.44558" lon="-8.773925">
        <ele>71.0</ele>
        <time>2019-07-05T19:21:26Z</time>
      </trkpt>
      <trkpt lat="41.44568666666667" lon="-8.7739">
        <ele>71.0</ele>
        <time>2019-07-05T19:21:28Z</time>
      </trkpt>
      <trkpt lat="41.44578666666666" lon="-8.77386">
        <ele>71.0</ele>
        <time>2019-07-05T19:21:30Z</time>
      </trkpt>
      <trkpt lat="41.445895" lon="-8.773825">
        <ele>71.0</ele>
        <time>2019-07-05T19:21:32Z</time>
      </trkpt>
      <trkpt lat="41.445996666666666" lon="-8.77379">
        <ele>72.0</ele>
        <time>2019-07-05T19:21:34Z</time>
      </trkpt>
      <trkpt lat="41.446105" lon="-8.773755">
        <ele>72.0</ele>
        <time>2019-07-05T19:21:36Z</time>
      </trkpt>
      <trkpt lat="41.44621333333333" lon="-8.77372">
        <ele>70.0</ele>
        <time>2019-07-05T19:21:38Z</time>
      </trkpt>
      <trkpt lat="41.446325" lon="-8.77368">
        <ele>70.0</ele>
        <time>2019-07-05T19:21:40Z</time>
      </trkpt>
      <trkpt lat="41.44643166666667" lon="-8.77364">
        <ele>70.0</ele>
        <time>2019-07-05T19:21:42Z</time>
      </trkpt>
      <trkpt lat="41.446545" lon="-8.773605">
        <ele>70.0</ele>
        <time>2019-07-05T19:21:44Z</time>
      </trkpt>
      <trkpt lat="41.446666666666665" lon="-8.77356">
        <ele>70.0</ele>
        <time>2019-07-05T19:21:46Z</time>
      </trkpt>
      <trkpt lat="41.446785" lon="-8.77352">
        <ele>69.0</ele>
        <time>2019-07-05T19:21:48Z</time>
      </trkpt>
      <trkpt lat="41.446891666666666" lon="-8.773473333333333">
        <ele>69.0</ele>
        <time>2019-07-05T19:21:50Z</time>
      </trkpt>
      <trkpt lat="41.447" lon="-8.77343">
        <ele>69.0</ele>
        <time>2019-07-05T19:21:52Z</time>
      </trkpt>
      <trkpt lat="41.447105" lon="-8.773375">
        <ele>69.0</ele>
        <time>2019-07-05T19:21:54Z</time>
      </trkpt>
      <trkpt lat="41.44722" lon="-8.773315">
        <ele>70.0</ele>
        <time>2019-07-05T19:21:56Z</time>
      </trkpt>
      <trkpt lat="41.44733" lon="-8.773276666666666">
        <ele>70.0</ele>
        <time>2019-07-05T19:21:58Z</time>
      </trkpt>
      <trkpt lat="41.44745" lon="-8.773245">
        <ele>71.0</ele>
        <time>2019-07-05T19:22:00Z</time>
      </trkpt>
      <trkpt lat="41.44756" lon="-8.773215">
        <ele>70.0</ele>
        <time>2019-07-05T19:22:02Z</time>
      </trkpt>
      <trkpt lat="41.44768" lon="-8.773188333333334">
        <ele>70.0</ele>
        <time>2019-07-05T19:22:04Z</time>
      </trkpt>
      <trkpt lat="41.44779" lon="-8.773165">
        <ele>70.0</ele>
        <time>2019-07-05T19:22:06Z</time>
      </trkpt>
      <trkpt lat="41.44791" lon="-8.77314">
        <ele>70.0</ele>
        <time>2019-07-05T19:22:08Z</time>
      </trkpt>
      <trkpt lat="41.448031666666665" lon="-8.773105">
        <ele>70.0</ele>
        <time>2019-07-05T19:22:10Z</time>
      </trkpt>
      <trkpt lat="41.448155" lon="-8.773075">
        <ele>69.0</ele>
        <time>2019-07-05T19:22:12Z</time>
      </trkpt>
      <trkpt lat="41.44827333333333" lon="-8.77305">
        <ele>69.0</ele>
        <time>2019-07-05T19:22:14Z</time>
      </trkpt>
      <trkpt lat="41.44839666666667" lon="-8.773018333333333">
        <ele>69.0</ele>
        <time>2019-07-05T19:22:16Z</time>
      </trkpt>
      <trkpt lat="41.448515" lon="-8.77299">
        <ele>69.0</ele>
        <time>2019-07-05T19:22:18Z</time>
      </trkpt>
      <trkpt lat="41.448631666666664" lon="-8.772975">
        <ele>69.0</ele>
        <time>2019-07-05T19:22:20Z</time>
      </trkpt>
      <trkpt lat="41.44875" lon="-8.772956666666667">
        <ele>69.0</ele>
        <time>2019-07-05T19:22:22Z</time>
      </trkpt>
      <trkpt lat="41.44886666666667" lon="-8.77295">
        <ele>69.0</ele>
        <time>2019-07-05T19:22:24Z</time>
      </trkpt>
      <trkpt lat="41.44899" lon="-8.772926666666667">
        <ele>69.0</ele>
        <time>2019-07-05T19:22:26Z</time>
      </trkpt>
      <trkpt lat="41.44910333333333" lon="-8.772921666666667">
        <ele>69.0</ele>
        <time>2019-07-05T19:22:28Z</time>
      </trkpt>
      <trkpt lat="41.449215" lon="-8.7729">
        <ele>69.0</ele>
        <time>2019-07-05T19:22:30Z</time>
      </trkpt>
      <trkpt lat="41.44932333333333" lon="-8.772876666666667">
        <ele>68.0</ele>
        <time>2019-07-05T19:22:32Z</time>
      </trkpt>
      <trkpt lat="41.44943166666667" lon="-8.772865">
        <ele>69.0</ele>
        <time>2019-07-05T19:22:34Z</time>
      </trkpt>
      <trkpt lat="41.449535" lon="-8.77284">
        <ele>69.0</ele>
        <time>2019-07-05T19:22:36Z</time>
      </trkpt>
      <trkpt lat="41.44964" lon="-8.772786666666667">
        <ele>69.0</ele>
        <time>2019-07-05T19:22:38Z</time>
      </trkpt>
      <trkpt lat="41.449745" lon="-8.77274">
        <ele>69.0</ele>
        <time>2019-07-05T19:22:40Z</time>
      </trkpt>
      <trkpt lat="41.449848333333335" lon="-8.77269">
        <ele>70.0</ele>
        <time>2019-07-05T19:22:42Z</time>
      </trkpt>
      <trkpt lat="41.44996" lon="-8.772645">
        <ele>70.0</ele>
        <time>2019-07-05T19:22:44Z</time>
      </trkpt>
      <trkpt lat="41.450066666666665" lon="-8.77262">
        <ele>70.0</ele>
        <time>2019-07-05T19:22:46Z</time>
      </trkpt>
      <trkpt lat="41.450175" lon="-8.77257">
        <ele>69.0</ele>
        <time>2019-07-05T19:22:48Z</time>
      </trkpt>
      <trkpt lat="41.450285" lon="-8.772515">
        <ele>69.0</ele>
        <time>2019-07-05T19:22:50Z</time>
      </trkpt>
      <trkpt lat="41.450405" lon="-8.77247">
        <ele>69.0</ele>
        <time>2019-07-05T19:22:52Z</time>
      </trkpt>
      <trkpt lat="41.45052" lon="-8.772425">
        <ele>70.0</ele>
        <time>2019-07-05T19:22:54Z</time>
      </trkpt>
      <trkpt lat="41.450635" lon="-8.77236">
        <ele>69.0</ele>
        <time>2019-07-05T19:22:56Z</time>
      </trkpt>
      <trkpt lat="41.45075166666667" lon="-8.772311666666667">
        <ele>69.0</ele>
        <time>2019-07-05T19:22:58Z</time>
      </trkpt>
      <trkpt lat="41.45087" lon="-8.77226">
        <ele>69.0</ele>
        <time>2019-07-05T19:23:00Z</time>
      </trkpt>
      <trkpt lat="41.450985" lon="-8.772203333333334">
        <ele>69.0</ele>
        <time>2019-07-05T19:23:02Z</time>
      </trkpt>
      <trkpt lat="41.451105" lon="-8.77214">
        <ele>69.0</ele>
        <time>2019-07-05T19:23:04Z</time>
      </trkpt>
      <trkpt lat="41.45122666666666" lon="-8.77209">
        <ele>69.0</ele>
        <time>2019-07-05T19:23:06Z</time>
      </trkpt>
      <trkpt lat="41.451345" lon="-8.772038333333333">
        <ele>69.0</ele>
        <time>2019-07-05T19:23:08Z</time>
      </trkpt>
      <trkpt lat="41.451465" lon="-8.772">
        <ele>68.0</ele>
        <time>2019-07-05T19:23:10Z</time>
      </trkpt>
      <trkpt lat="41.451585" lon="-8.771955">
        <ele>69.0</ele>
        <time>2019-07-05T19:23:12Z</time>
      </trkpt>
      <trkpt lat="41.451705" lon="-8.771915">
        <ele>69.0</ele>
        <time>2019-07-05T19:23:14Z</time>
      </trkpt>
      <trkpt lat="41.451825" lon="-8.771881666666667">
        <ele>69.0</ele>
        <time>2019-07-05T19:23:16Z</time>
      </trkpt>
      <trkpt lat="41.45194" lon="-8.771855">
        <ele>68.0</ele>
        <time>2019-07-05T19:23:18Z</time>
      </trkpt>
      <trkpt lat="41.452055" lon="-8.77182">
        <ele>67.0</ele>
        <time>2019-07-05T19:23:20Z</time>
      </trkpt>
      <trkpt lat="41.452165" lon="-8.771786666666667">
        <ele>66.0</ele>
        <time>2019-07-05T19:23:22Z</time>
      </trkpt>
      <trkpt lat="41.45227" lon="-8.77175">
        <ele>67.0</ele>
        <time>2019-07-05T19:23:24Z</time>
      </trkpt>
      <trkpt lat="41.452376666666666" lon="-8.77172">
        <ele>67.0</ele>
        <time>2019-07-05T19:23:26Z</time>
      </trkpt>
      <trkpt lat="41.452495" lon="-8.77168">
        <ele>67.0</ele>
        <time>2019-07-05T19:23:28Z</time>
      </trkpt>
      <trkpt lat="41.452615" lon="-8.771635">
        <ele>66.0</ele>
        <time>2019-07-05T19:23:30Z</time>
      </trkpt>
      <trkpt lat="41.452725" lon="-8.771595">
        <ele>67.0</ele>
        <time>2019-07-05T19:23:32Z</time>
      </trkpt>
      <trkpt lat="41.452825" lon="-8.77156">
        <ele>67.0</ele>
        <time>2019-07-05T19:23:34Z</time>
      </trkpt>
      <trkpt lat="41.45292" lon="-8.771526666666666">
        <ele>67.0</ele>
        <time>2019-07-05T19:23:36Z</time>
      </trkpt>
      <trkpt lat="41.45302" lon="-8.771495">
        <ele>66.0</ele>
        <time>2019-07-05T19:23:38Z</time>
      </trkpt>
      <trkpt lat="41.453135" lon="-8.77144">
        <ele>66.0</ele>
        <time>2019-07-05T19:23:40Z</time>
      </trkpt>
      <trkpt lat="41.453255" lon="-8.77139">
        <ele>67.0</ele>
        <time>2019-07-05T19:23:42Z</time>
      </trkpt>
      <trkpt lat="41.45336" lon="-8.77135">
        <ele>67.0</ele>
        <time>2019-07-05T19:23:44Z</time>
      </trkpt>
      <trkpt lat="41.453455" lon="-8.77128">
        <ele>68.0</ele>
        <time>2019-07-05T19:23:46Z</time>
      </trkpt>
      <trkpt lat="41.45354" lon="-8.771225">
        <ele>69.0</ele>
        <time>2019-07-05T19:23:48Z</time>
      </trkpt>
      <trkpt lat="41.453625" lon="-8.771175">
        <ele>69.0</ele>
        <time>2019-07-05T19:23:50Z</time>
      </trkpt>
      <trkpt lat="41.453716666666665" lon="-8.771123333333334">
        <ele>69.0</ele>
        <time>2019-07-05T19:23:52Z</time>
      </trkpt>
      <trkpt lat="41.453815" lon="-8.771071666666666">
        <ele>69.0</ele>
        <time>2019-07-05T19:23:54Z</time>
      </trkpt>
      <trkpt lat="41.453915" lon="-8.771025">
        <ele>69.0</ele>
        <time>2019-07-05T19:23:56Z</time>
      </trkpt>
      <trkpt lat="41.45402" lon="-8.77096">
        <ele>70.0</ele>
        <time>2019-07-05T19:23:58Z</time>
      </trkpt>
      <trkpt lat="41.454125" lon="-8.770915">
        <ele>70.0</ele>
        <time>2019-07-05T19:24:00Z</time>
      </trkpt>
      <trkpt lat="41.45423" lon="-8.77087">
        <ele>69.0</ele>
        <time>2019-07-05T19:24:02Z</time>
      </trkpt>
      <trkpt lat="41.45433666666667" lon="-8.770835">
        <ele>69.0</ele>
        <time>2019-07-05T19:24:04Z</time>
      </trkpt>
      <trkpt lat="41.454445" lon="-8.770801666666667">
        <ele>69.0</ele>
        <time>2019-07-05T19:24:06Z</time>
      </trkpt>
      <trkpt lat="41.45455166666667" lon="-8.770761666666667">
        <ele>69.0</ele>
        <time>2019-07-05T19:24:08Z</time>
      </trkpt>
      <trkpt lat="41.45466" lon="-8.77073">
        <ele>69.0</ele>
        <time>2019-07-05T19:24:10Z</time>
      </trkpt>
      <trkpt lat="41.454771666666666" lon="-8.770675">
        <ele>69.0</ele>
        <time>2019-07-05T19:24:12Z</time>
      </trkpt>
      <trkpt lat="41.454885" lon="-8.770645">
        <ele>69.0</ele>
        <time>2019-07-05T19:24:14Z</time>
      </trkpt>
      <trkpt lat="41.45499" lon="-8.770611666666667">
        <ele>69.0</ele>
        <time>2019-07-05T19:24:16Z</time>
      </trkpt>
      <trkpt lat="41.455095" lon="-8.770571666666667">
        <ele>68.0</ele>
        <time>2019-07-05T19:24:18Z</time>
      </trkpt>
      <trkpt lat="41.4552" lon="-8.77053">
        <ele>68.0</ele>
        <time>2019-07-05T19:24:20Z</time>
      </trkpt>
      <trkpt lat="41.455315" lon="-8.77049">
        <ele>68.0</ele>
        <time>2019-07-05T19:24:22Z</time>
      </trkpt>
      <trkpt lat="41.455425" lon="-8.770451666666666">
        <ele>68.0</ele>
        <time>2019-07-05T19:24:24Z</time>
      </trkpt>
      <trkpt lat="41.455533333333335" lon="-8.770405">
        <ele>68.0</ele>
        <time>2019-07-05T19:24:26Z</time>
      </trkpt>
      <trkpt lat="41.45565166666667" lon="-8.77036">
        <ele>69.0</ele>
        <time>2019-07-05T19:24:28Z</time>
      </trkpt>
      <trkpt lat="41.45577" lon="-8.77032">
        <ele>69.0</ele>
        <time>2019-07-05T19:24:30Z</time>
      </trkpt>
      <trkpt lat="41.45589" lon="-8.77029">
        <ele>69.0</ele>
        <time>2019-07-05T19:24:32Z</time>
      </trkpt>
      <trkpt lat="41.45601" lon="-8.770271666666666">
        <ele>70.0</ele>
        <time>2019-07-05T19:24:34Z</time>
      </trkpt>
      <trkpt lat="41.456125" lon="-8.770265">
        <ele>70.0</ele>
        <time>2019-07-05T19:24:36Z</time>
      </trkpt>
      <trkpt lat="41.456246666666665" lon="-8.770256666666667">
        <ele>70.0</ele>
        <time>2019-07-05T19:24:38Z</time>
      </trkpt>
      <trkpt lat="41.45636" lon="-8.770271666666666">
        <ele>69.0</ele>
        <time>2019-07-05T19:24:40Z</time>
      </trkpt>
      <trkpt lat="41.45647666666667" lon="-8.770275">
        <ele>69.0</ele>
        <time>2019-07-05T19:24:42Z</time>
      </trkpt>
      <trkpt lat="41.45659666666667" lon="-8.77029">
        <ele>69.0</ele>
        <time>2019-07-05T19:24:44Z</time>
      </trkpt>
      <trkpt lat="41.45672" lon="-8.770285">
        <ele>70.0</ele>
        <time>2019-07-05T19:24:46Z</time>
      </trkpt>
      <trkpt lat="41.45684" lon="-8.77029">
        <ele>69.0</ele>
        <time>2019-07-05T19:24:48Z</time>
      </trkpt>
      <trkpt lat="41.456955" lon="-8.7703">
        <ele>69.0</ele>
        <time>2019-07-05T19:24:50Z</time>
      </trkpt>
      <trkpt lat="41.45707" lon="-8.77031">
        <ele>70.0</ele>
        <time>2019-07-05T19:24:52Z</time>
      </trkpt>
      <trkpt lat="41.457185" lon="-8.77031">
        <ele>70.0</ele>
        <time>2019-07-05T19:24:54Z</time>
      </trkpt>
      <trkpt lat="41.4573" lon="-8.77031">
        <ele>70.0</ele>
        <time>2019-07-05T19:24:56Z</time>
      </trkpt>
      <trkpt lat="41.457411666666665" lon="-8.770305">
        <ele>69.0</ele>
        <time>2019-07-05T19:24:58Z</time>
      </trkpt>
      <trkpt lat="41.457525" lon="-8.770285">
        <ele>69.0</ele>
        <time>2019-07-05T19:25:00Z</time>
      </trkpt>
      <trkpt lat="41.457635" lon="-8.770265">
        <ele>68.0</ele>
        <time>2019-07-05T19:25:02Z</time>
      </trkpt>
      <trkpt lat="41.457755" lon="-8.77024">
        <ele>69.0</ele>
        <time>2019-07-05T19:25:04Z</time>
      </trkpt>
      <trkpt lat="41.457865" lon="-8.77021">
        <ele>69.0</ele>
        <time>2019-07-05T19:25:06Z</time>
      </trkpt>
      <trkpt lat="41.457985" lon="-8.770175">
        <ele>70.0</ele>
        <time>2019-07-05T19:25:08Z</time>
      </trkpt>
      <trkpt lat="41.458095" lon="-8.770135">
        <ele>69.0</ele>
        <time>2019-07-05T19:25:10Z</time>
      </trkpt>
      <trkpt lat="41.4582" lon="-8.77009">
        <ele>70.0</ele>
        <time>2019-07-05T19:25:12Z</time>
      </trkpt>
      <trkpt lat="41.4583" lon="-8.770051666666667">
        <ele>70.0</ele>
        <time>2019-07-05T19:25:14Z</time>
      </trkpt>
      <trkpt lat="41.458405" lon="-8.770008333333333">
        <ele>69.0</ele>
        <time>2019-07-05T19:25:16Z</time>
      </trkpt>
      <trkpt lat="41.458515" lon="-8.769985">
        <ele>69.0</ele>
        <time>2019-07-05T19:25:18Z</time>
      </trkpt>
      <trkpt lat="41.45863" lon="-8.769975">
        <ele>69.0</ele>
        <time>2019-07-05T19:25:20Z</time>
      </trkpt>
      <trkpt lat="41.45874" lon="-8.769968333333333">
        <ele>70.0</ele>
        <time>2019-07-05T19:25:22Z</time>
      </trkpt>
      <trkpt lat="41.458855" lon="-8.769965">
        <ele>69.0</ele>
        <time>2019-07-05T19:25:24Z</time>
      </trkpt>
      <trkpt lat="41.458965" lon="-8.769965">
        <ele>69.0</ele>
        <time>2019-07-05T19:25:26Z</time>
      </trkpt>
      <trkpt lat="41.45908" lon="-8.769975">
        <ele>70.0</ele>
        <time>2019-07-05T19:25:28Z</time>
      </trkpt>
      <trkpt lat="41.45919" lon="-8.769965">
        <ele>70.0</ele>
        <time>2019-07-05T19:25:30Z</time>
      </trkpt>
      <trkpt lat="41.459295" lon="-8.7699">
        <ele>69.0</ele>
        <time>2019-07-05T19:25:32Z</time>
      </trkpt>
      <trkpt lat="41.45937166666667" lon="-8.76978">
        <ele>70.0</ele>
        <time>2019-07-05T19:25:34Z</time>
      </trkpt>
      <trkpt lat="41.459406666666666" lon="-8.769655">
        <ele>70.0</ele>
        <time>2019-07-05T19:25:36Z</time>
      </trkpt>
      <trkpt lat="41.45943666666667" lon="-8.76952">
        <ele>70.0</ele>
        <time>2019-07-05T19:25:38Z</time>
      </trkpt>
      <trkpt lat="41.459471666666666" lon="-8.76936">
        <ele>70.0</ele>
        <time>2019-07-05T19:25:40Z</time>
      </trkpt>
      <trkpt lat="41.459516666666666" lon="-8.7692">
        <ele>70.0</ele>
        <time>2019-07-05T19:25:42Z</time>
      </trkpt>
      <trkpt lat="41.459561666666666" lon="-8.769055">
        <ele>70.0</ele>
        <time>2019-07-05T19:25:44Z</time>
      </trkpt>
      <trkpt lat="41.459625" lon="-8.768925">
        <ele>69.0</ele>
        <time>2019-07-05T19:25:46Z</time>
      </trkpt>
      <trkpt lat="41.45971" lon="-8.768806666666666">
        <ele>72.0</ele>
        <time>2019-07-05T19:25:48Z</time>
      </trkpt>
      <trkpt lat="41.45977666666667" lon="-8.76871">
        <ele>72.0</ele>
        <time>2019-07-05T19:25:50Z</time>
      </trkpt>
      <trkpt lat="41.45985" lon="-8.7686">
        <ele>73.0</ele>
        <time>2019-07-05T19:25:52Z</time>
      </trkpt>
      <trkpt lat="41.459921666666666" lon="-8.768485">
        <ele>74.0</ele>
        <time>2019-07-05T19:25:54Z</time>
      </trkpt>
      <trkpt lat="41.459986666666666" lon="-8.768358333333333">
        <ele>74.0</ele>
        <time>2019-07-05T19:25:56Z</time>
      </trkpt>
      <trkpt lat="41.460045" lon="-8.768245">
        <ele>74.0</ele>
        <time>2019-07-05T19:25:58Z</time>
      </trkpt>
      <trkpt lat="41.46009166666666" lon="-8.768125">
        <ele>73.0</ele>
        <time>2019-07-05T19:26:00Z</time>
      </trkpt>
      <trkpt lat="41.46014" lon="-8.767985">
        <ele>73.0</ele>
        <time>2019-07-05T19:26:02Z</time>
      </trkpt>
      <trkpt lat="41.46018" lon="-8.76784">
        <ele>73.0</ele>
        <time>2019-07-05T19:26:04Z</time>
      </trkpt>
      <trkpt lat="41.460210000000004" lon="-8.767725">
        <ele>72.0</ele>
        <time>2019-07-05T19:26:06Z</time>
      </trkpt>
      <trkpt lat="41.46025" lon="-8.767635">
        <ele>72.0</ele>
        <time>2019-07-05T19:26:08Z</time>
      </trkpt>
      <trkpt lat="41.46031" lon="-8.767575">
        <ele>72.0</ele>
        <time>2019-07-05T19:26:10Z</time>
      </trkpt>
      <trkpt lat="41.460395" lon="-8.76757">
        <ele>72.0</ele>
        <time>2019-07-05T19:26:12Z</time>
      </trkpt>
      <trkpt lat="41.46047333333333" lon="-8.767585">
        <ele>72.0</ele>
        <time>2019-07-05T19:26:14Z</time>
      </trkpt>
      <trkpt lat="41.46056" lon="-8.767605">
        <ele>73.0</ele>
        <time>2019-07-05T19:26:16Z</time>
      </trkpt>
      <trkpt lat="41.460651666666664" lon="-8.76763">
        <ele>73.0</ele>
        <time>2019-07-05T19:26:18Z</time>
      </trkpt>
      <trkpt lat="41.46075" lon="-8.76765">
        <ele>73.0</ele>
        <time>2019-07-05T19:26:20Z</time>
      </trkpt>
      <trkpt lat="41.46084166666667" lon="-8.767666666666667">
        <ele>73.0</ele>
        <time>2019-07-05T19:26:22Z</time>
      </trkpt>
      <trkpt lat="41.460935" lon="-8.767675">
        <ele>73.0</ele>
        <time>2019-07-05T19:26:24Z</time>
      </trkpt>
      <trkpt lat="41.46103" lon="-8.76769">
        <ele>72.0</ele>
        <time>2019-07-05T19:26:26Z</time>
      </trkpt>
      <trkpt lat="41.461135" lon="-8.76771">
        <ele>73.0</ele>
        <time>2019-07-05T19:26:28Z</time>
      </trkpt>
      <trkpt lat="41.461241666666666" lon="-8.76773">
        <ele>72.0</ele>
        <time>2019-07-05T19:26:30Z</time>
      </trkpt>
      <trkpt lat="41.461355" lon="-8.767746666666667">
        <ele>72.0</ele>
        <time>2019-07-05T19:26:32Z</time>
      </trkpt>
      <trkpt lat="41.461475" lon="-8.76776">
        <ele>72.0</ele>
        <time>2019-07-05T19:26:34Z</time>
      </trkpt>
      <trkpt lat="41.46159166666666" lon="-8.767775">
        <ele>72.0</ele>
        <time>2019-07-05T19:26:36Z</time>
      </trkpt>
      <trkpt lat="41.461715" lon="-8.76779">
        <ele>72.0</ele>
        <time>2019-07-05T19:26:38Z</time>
      </trkpt>
      <trkpt lat="41.46183833333333" lon="-8.7678">
        <ele>71.0</ele>
        <time>2019-07-05T19:26:40Z</time>
      </trkpt>
      <trkpt lat="41.46196" lon="-8.767811666666667">
        <ele>71.0</ele>
        <time>2019-07-05T19:26:42Z</time>
      </trkpt>
      <trkpt lat="41.46207" lon="-8.76786">
        <ele>71.0</ele>
        <time>2019-07-05T19:26:44Z</time>
      </trkpt>
      <trkpt lat="41.462151666666664" lon="-8.76795">
        <ele>71.0</ele>
        <time>2019-07-05T19:26:46Z</time>
      </trkpt>
      <trkpt lat="41.462225" lon="-8.76806">
        <ele>71.0</ele>
        <time>2019-07-05T19:26:48Z</time>
      </trkpt>
      <trkpt lat="41.462295" lon="-8.768168333333334">
        <ele>71.0</ele>
        <time>2019-07-05T19:26:50Z</time>
      </trkpt>
      <trkpt lat="41.462356666666665" lon="-8.768295">
        <ele>70.0</ele>
        <time>2019-07-05T19:26:52Z</time>
      </trkpt>
      <trkpt lat="41.462435" lon="-8.768415">
        <ele>70.0</ele>
        <time>2019-07-05T19:26:54Z</time>
      </trkpt>
      <trkpt lat="41.462515" lon="-8.768535">
        <ele>69.0</ele>
        <time>2019-07-05T19:26:56Z</time>
      </trkpt>
      <trkpt lat="41.46259" lon="-8.768643333333333">
        <ele>69.0</ele>
        <time>2019-07-05T19:26:58Z</time>
      </trkpt>
      <trkpt lat="41.462666666666664" lon="-8.76876">
        <ele>69.0</ele>
        <time>2019-07-05T19:27:00Z</time>
      </trkpt>
      <trkpt lat="41.462736666666665" lon="-8.76887">
        <ele>69.0</ele>
        <time>2019-07-05T19:27:02Z</time>
      </trkpt>
      <trkpt lat="41.46283" lon="-8.76895">
        <ele>69.0</ele>
        <time>2019-07-05T19:27:04Z</time>
      </trkpt>
      <trkpt lat="41.46293" lon="-8.768951666666666">
        <ele>69.0</ele>
        <time>2019-07-05T19:27:06Z</time>
      </trkpt>
      <trkpt lat="41.46302" lon="-8.768891666666667">
        <ele>69.0</ele>
        <time>2019-07-05T19:27:08Z</time>
      </trkpt>
      <trkpt lat="41.463116666666664" lon="-8.76883">
        <ele>69.0</ele>
        <time>2019-07-05T19:27:10Z</time>
      </trkpt>
      <trkpt lat="41.46322" lon="-8.76878">
        <ele>69.0</ele>
        <time>2019-07-05T19:27:12Z</time>
      </trkpt>
      <trkpt lat="41.463325" lon="-8.76873">
        <ele>69.0</ele>
        <time>2019-07-05T19:27:14Z</time>
      </trkpt>
      <trkpt lat="41.46343" lon="-8.76868">
        <ele>69.0</ele>
        <time>2019-07-05T19:27:16Z</time>
      </trkpt>
      <trkpt lat="41.463535" lon="-8.76864">
        <ele>70.0</ele>
        <time>2019-07-05T19:27:18Z</time>
      </trkpt>
      <trkpt lat="41.463638333333336" lon="-8.768605">
        <ele>70.0</ele>
        <time>2019-07-05T19:27:20Z</time>
      </trkpt>
      <trkpt lat="41.46375" lon="-8.76856">
        <ele>71.0</ele>
        <time>2019-07-05T19:27:22Z</time>
      </trkpt>
      <trkpt lat="41.463856666666665" lon="-8.768525">
        <ele>72.0</ele>
        <time>2019-07-05T19:27:24Z</time>
      </trkpt>
      <trkpt lat="41.46396166666667" lon="-8.768481666666666">
        <ele>72.0</ele>
        <time>2019-07-05T19:27:26Z</time>
      </trkpt>
      <trkpt lat="41.46407" lon="-8.76844">
        <ele>72.0</ele>
        <time>2019-07-05T19:27:28Z</time>
      </trkpt>
      <trkpt lat="41.464166666666664" lon="-8.768395">
        <ele>72.0</ele>
        <time>2019-07-05T19:27:30Z</time>
      </trkpt>
      <trkpt lat="41.464265" lon="-8.768356666666667">
        <ele>72.0</ele>
        <time>2019-07-05T19:27:32Z</time>
      </trkpt>
      <trkpt lat="41.46437" lon="-8.768323333333333">
        <ele>72.0</ele>
        <time>2019-07-05T19:27:34Z</time>
      </trkpt>
      <trkpt lat="41.46447" lon="-8.768286666666667">
        <ele>72.0</ele>
        <time>2019-07-05T19:27:36Z</time>
      </trkpt>
      <trkpt lat="41.464565" lon="-8.76824">
        <ele>72.0</ele>
        <time>2019-07-05T19:27:38Z</time>
      </trkpt>
      <trkpt lat="41.464641666666665" lon="-8.768226666666667">
        <ele>72.0</ele>
        <time>2019-07-05T19:27:40Z</time>
      </trkpt>
      <trkpt lat="41.46472" lon="-8.7682">
        <ele>71.0</ele>
        <time>2019-07-05T19:27:42Z</time>
      </trkpt>
      <trkpt lat="41.464805" lon="-8.768211666666666">
        <ele>70.0</ele>
        <time>2019-07-05T19:27:44Z</time>
      </trkpt>
      <trkpt lat="41.464905" lon="-8.768185">
        <ele>69.0</ele>
        <time>2019-07-05T19:27:46Z</time>
      </trkpt>
      <trkpt lat="41.465001666666666" lon="-8.768175">
        <ele>68.0</ele>
        <time>2019-07-05T19:27:48Z</time>
      </trkpt>
      <trkpt lat="41.4651" lon="-8.768165">
        <ele>67.0</ele>
        <time>2019-07-05T19:27:50Z</time>
      </trkpt>
      <trkpt lat="41.46520666666667" lon="-8.76816">
        <ele>66.0</ele>
        <time>2019-07-05T19:27:52Z</time>
      </trkpt>
      <trkpt lat="41.46532" lon="-8.768146666666667">
        <ele>66.0</ele>
        <time>2019-07-05T19:27:54Z</time>
      </trkpt>
      <trkpt lat="41.465425" lon="-8.76813">
        <ele>67.0</ele>
        <time>2019-07-05T19:27:56Z</time>
      </trkpt>
      <trkpt lat="41.465525" lon="-8.768125">
        <ele>67.0</ele>
        <time>2019-07-05T19:27:58Z</time>
      </trkpt>
      <trkpt lat="41.46562" lon="-8.768105">
        <ele>69.0</ele>
        <time>2019-07-05T19:28:00Z</time>
      </trkpt>
      <trkpt lat="41.465705" lon="-8.768115">
        <ele>69.0</ele>
        <time>2019-07-05T19:28:02Z</time>
      </trkpt>
      <trkpt lat="41.46579" lon="-8.768115">
        <ele>71.0</ele>
        <time>2019-07-05T19:28:04Z</time>
      </trkpt>
      <trkpt lat="41.465865" lon="-8.768111666666666">
        <ele>70.0</ele>
        <time>2019-07-05T19:28:06Z</time>
      </trkpt>
      <trkpt lat="41.46595666666666" lon="-8.76811">
        <ele>70.0</ele>
        <time>2019-07-05T19:28:08Z</time>
      </trkpt>
      <trkpt lat="41.466065" lon="-8.7681">
        <ele>69.0</ele>
        <time>2019-07-05T19:28:10Z</time>
      </trkpt>
      <trkpt lat="41.46617" lon="-8.768086666666667">
        <ele>70.0</ele>
        <time>2019-07-05T19:28:12Z</time>
      </trkpt>
      <trkpt lat="41.46628166666667" lon="-8.768065">
        <ele>71.0</ele>
        <time>2019-07-05T19:28:14Z</time>
      </trkpt>
      <trkpt lat="41.46639" lon="-8.76805">
        <ele>72.0</ele>
        <time>2019-07-05T19:28:16Z</time>
      </trkpt>
      <trkpt lat="41.466485" lon="-8.768025">
        <ele>73.0</ele>
        <time>2019-07-05T19:28:18Z</time>
      </trkpt>
      <trkpt lat="41.46657" lon="-8.767985">
        <ele>71.0</ele>
        <time>2019-07-05T19:28:20Z</time>
      </trkpt>
      <trkpt lat="41.46666" lon="-8.767955">
        <ele>70.0</ele>
        <time>2019-07-05T19:28:22Z</time>
      </trkpt>
      <trkpt lat="41.46675166666667" lon="-8.767925">
        <ele>71.0</ele>
        <time>2019-07-05T19:28:24Z</time>
      </trkpt>
      <trkpt lat="41.466831666666664" lon="-8.76789">
        <ele>70.0</ele>
        <time>2019-07-05T19:28:26Z</time>
      </trkpt>
      <trkpt lat="41.46690666666667" lon="-8.767845">
        <ele>70.0</ele>
        <time>2019-07-05T19:28:28Z</time>
      </trkpt>
      <trkpt lat="41.466973333333335" lon="-8.767813333333333">
        <ele>70.0</ele>
        <time>2019-07-05T19:28:30Z</time>
      </trkpt>
      <trkpt lat="41.46707" lon="-8.76777">
        <ele>71.0</ele>
        <time>2019-07-05T19:28:33Z</time>
      </trkpt>
      <trkpt lat="41.467146666666665" lon="-8.767761666666667">
        <ele>69.0</ele>
        <time>2019-07-05T19:28:36Z</time>
      </trkpt>
      <trkpt lat="41.46722166666667" lon="-8.767745">
        <ele>69.0</ele>
        <time>2019-07-05T19:28:39Z</time>
      </trkpt>
      <trkpt lat="41.467315" lon="-8.76771">
        <ele>70.0</ele>
        <time>2019-07-05T19:28:42Z</time>
      </trkpt>
      <trkpt lat="41.467375" lon="-8.767655">
        <ele>70.0</ele>
        <time>2019-07-05T19:28:44Z</time>
      </trkpt>
      <trkpt lat="41.467425" lon="-8.767566666666667">
        <ele>71.0</ele>
        <time>2019-07-05T19:28:46Z</time>
      </trkpt>
      <trkpt lat="41.467455" lon="-8.76746">
        <ele>72.0</ele>
        <time>2019-07-05T19:28:48Z</time>
      </trkpt>
      <trkpt lat="41.4675" lon="-8.76737">
        <ele>73.0</ele>
        <time>2019-07-05T19:28:50Z</time>
      </trkpt>
      <trkpt lat="41.46753" lon="-8.767225">
        <ele>74.0</ele>
        <time>2019-07-05T19:28:52Z</time>
      </trkpt>
      <trkpt lat="41.467565" lon="-8.767085">
        <ele>74.0</ele>
        <time>2019-07-05T19:28:54Z</time>
      </trkpt>
      <trkpt lat="41.467585" lon="-8.76698">
        <ele>73.0</ele>
        <time>2019-07-05T19:28:56Z</time>
      </trkpt>
      <trkpt lat="41.467616666666665" lon="-8.76688">
        <ele>73.0</ele>
        <time>2019-07-05T19:28:58Z</time>
      </trkpt>
      <trkpt lat="41.46767" lon="-8.766781666666667">
        <ele>73.0</ele>
        <time>2019-07-05T19:29:00Z</time>
      </trkpt>
      <trkpt lat="41.46769166666667" lon="-8.766636666666667">
        <ele>72.0</ele>
        <time>2019-07-05T19:29:02Z</time>
      </trkpt>
      <trkpt lat="41.467715" lon="-8.766515">
        <ele>72.0</ele>
        <time>2019-07-05T19:29:04Z</time>
      </trkpt>
      <trkpt lat="41.46776" lon="-8.766355">
        <ele>75.0</ele>
        <time>2019-07-05T19:29:06Z</time>
      </trkpt>
      <trkpt lat="41.467776666666666" lon="-8.76623">
        <ele>76.0</ele>
        <time>2019-07-05T19:29:08Z</time>
      </trkpt>
      <trkpt lat="41.46782" lon="-8.766146666666666">
        <ele>74.0</ele>
        <time>2019-07-05T19:29:10Z</time>
      </trkpt>
      <trkpt lat="41.46789166666667" lon="-8.7661">
        <ele>74.0</ele>
        <time>2019-07-05T19:29:12Z</time>
      </trkpt>
      <trkpt lat="41.46799" lon="-8.76609">
        <ele>74.0</ele>
        <time>2019-07-05T19:29:14Z</time>
      </trkpt>
      <trkpt lat="41.46808" lon="-8.766055">
        <ele>74.0</ele>
        <time>2019-07-05T19:29:16Z</time>
      </trkpt>
      <trkpt lat="41.46818" lon="-8.76598">
        <ele>74.0</ele>
        <time>2019-07-05T19:29:18Z</time>
      </trkpt>
      <trkpt lat="41.468268333333334" lon="-8.76592">
        <ele>74.0</ele>
        <time>2019-07-05T19:29:20Z</time>
      </trkpt>
      <trkpt lat="41.468356666666665" lon="-8.765855">
        <ele>74.0</ele>
        <time>2019-07-05T19:29:22Z</time>
      </trkpt>
      <trkpt lat="41.46844166666666" lon="-8.76578">
        <ele>74.0</ele>
        <time>2019-07-05T19:29:24Z</time>
      </trkpt>
      <trkpt lat="41.46853" lon="-8.765691666666667">
        <ele>75.0</ele>
        <time>2019-07-05T19:29:26Z</time>
      </trkpt>
      <trkpt lat="41.468615" lon="-8.765605">
        <ele>75.0</ele>
        <time>2019-07-05T19:29:28Z</time>
      </trkpt>
      <trkpt lat="41.468696666666666" lon="-8.76551">
        <ele>74.0</ele>
        <time>2019-07-05T19:29:30Z</time>
      </trkpt>
      <trkpt lat="41.46878" lon="-8.765426666666666">
        <ele>74.0</ele>
        <time>2019-07-05T19:29:32Z</time>
      </trkpt>
      <trkpt lat="41.46886" lon="-8.765335">
        <ele>71.0</ele>
        <time>2019-07-05T19:29:34Z</time>
      </trkpt>
      <trkpt lat="41.468941666666666" lon="-8.76526">
        <ele>71.0</ele>
        <time>2019-07-05T19:29:36Z</time>
      </trkpt>
      <trkpt lat="41.46902166666667" lon="-8.76518">
        <ele>71.0</ele>
        <time>2019-07-05T19:29:38Z</time>
      </trkpt>
      <trkpt lat="41.469105" lon="-8.765106666666666">
        <ele>71.0</ele>
        <time>2019-07-05T19:29:40Z</time>
      </trkpt>
      <trkpt lat="41.469195" lon="-8.765055">
        <ele>72.0</ele>
        <time>2019-07-05T19:29:42Z</time>
      </trkpt>
      <trkpt lat="41.46929" lon="-8.765">
        <ele>73.0</ele>
        <time>2019-07-05T19:29:44Z</time>
      </trkpt>
      <trkpt lat="41.46938" lon="-8.764965">
        <ele>73.0</ele>
        <time>2019-07-05T19:29:46Z</time>
      </trkpt>
      <trkpt lat="41.469475" lon="-8.764935">
        <ele>73.0</ele>
        <time>2019-07-05T19:29:48Z</time>
      </trkpt>
      <trkpt lat="41.469561666666664" lon="-8.764905">
        <ele>73.0</ele>
        <time>2019-07-05T19:29:50Z</time>
      </trkpt>
      <trkpt lat="41.46964" lon="-8.764865">
        <ele>73.0</ele>
        <time>2019-07-05T19:29:52Z</time>
      </trkpt>
      <trkpt lat="41.46975" lon="-8.76485">
        <ele>72.0</ele>
        <time>2019-07-05T19:29:54Z</time>
      </trkpt>
      <trkpt lat="41.469865" lon="-8.764805">
        <ele>72.0</ele>
        <time>2019-07-05T19:29:56Z</time>
      </trkpt>
      <trkpt lat="41.46996" lon="-8.764795">
        <ele>71.0</ele>
        <time>2019-07-05T19:29:58Z</time>
      </trkpt>
      <trkpt lat="41.470055" lon="-8.764785">
        <ele>72.0</ele>
        <time>2019-07-05T19:30:00Z</time>
      </trkpt>
      <trkpt lat="41.47015" lon="-8.764745">
        <ele>73.0</ele>
        <time>2019-07-05T19:30:02Z</time>
      </trkpt>
      <trkpt lat="41.470255" lon="-8.764725">
        <ele>74.0</ele>
        <time>2019-07-05T19:30:05Z</time>
      </trkpt>
      <trkpt lat="41.470365" lon="-8.76476">
        <ele>73.0</ele>
        <time>2019-07-05T19:30:07Z</time>
      </trkpt>
      <trkpt lat="41.470475" lon="-8.764771666666666">
        <ele>73.0</ele>
        <time>2019-07-05T19:30:09Z</time>
      </trkpt>
      <trkpt lat="41.470576666666666" lon="-8.764795">
        <ele>73.0</ele>
        <time>2019-07-05T19:30:11Z</time>
      </trkpt>
      <trkpt lat="41.470686666666666" lon="-8.764835">
        <ele>73.0</ele>
        <time>2019-07-05T19:30:13Z</time>
      </trkpt>
      <trkpt lat="41.470796666666665" lon="-8.76488">
        <ele>73.0</ele>
        <time>2019-07-05T19:30:15Z</time>
      </trkpt>
      <trkpt lat="41.470905" lon="-8.764925">
        <ele>73.0</ele>
        <time>2019-07-05T19:30:17Z</time>
      </trkpt>
      <trkpt lat="41.47102" lon="-8.764961666666666">
        <ele>73.0</ele>
        <time>2019-07-05T19:30:19Z</time>
      </trkpt>
      <trkpt lat="41.471135" lon="-8.764985">
        <ele>73.0</ele>
        <time>2019-07-05T19:30:21Z</time>
      </trkpt>
      <trkpt lat="41.471255" lon="-8.76502">
        <ele>74.0</ele>
        <time>2019-07-05T19:30:23Z</time>
      </trkpt>
      <trkpt lat="41.47137333333333" lon="-8.76506">
        <ele>74.0</ele>
        <time>2019-07-05T19:30:25Z</time>
      </trkpt>
      <trkpt lat="41.471495" lon="-8.76509">
        <ele>73.0</ele>
        <time>2019-07-05T19:30:27Z</time>
      </trkpt>
      <trkpt lat="41.47161166666667" lon="-8.765118333333334">
        <ele>74.0</ele>
        <time>2019-07-05T19:30:29Z</time>
      </trkpt>
      <trkpt lat="41.47173" lon="-8.765156666666666">
        <ele>74.0</ele>
        <time>2019-07-05T19:30:31Z</time>
      </trkpt>
      <trkpt lat="41.47185" lon="-8.765186666666667">
        <ele>75.0</ele>
        <time>2019-07-05T19:30:33Z</time>
      </trkpt>
      <trkpt lat="41.47197" lon="-8.765225">
        <ele>75.0</ele>
        <time>2019-07-05T19:30:35Z</time>
      </trkpt>
      <trkpt lat="41.472085" lon="-8.765265">
        <ele>74.0</ele>
        <time>2019-07-05T19:30:37Z</time>
      </trkpt>
      <trkpt lat="41.4722" lon="-8.765296666666666">
        <ele>74.0</ele>
        <time>2019-07-05T19:30:39Z</time>
      </trkpt>
      <trkpt lat="41.472316666666664" lon="-8.765326666666667">
        <ele>74.0</ele>
        <time>2019-07-05T19:30:41Z</time>
      </trkpt>
      <trkpt lat="41.47243666666667" lon="-8.76536">
        <ele>73.0</ele>
        <time>2019-07-05T19:30:43Z</time>
      </trkpt>
      <trkpt lat="41.472555" lon="-8.76539">
        <ele>73.0</ele>
        <time>2019-07-05T19:30:45Z</time>
      </trkpt>
      <trkpt lat="41.47267333333333" lon="-8.765411666666667">
        <ele>75.0</ele>
        <time>2019-07-05T19:30:47Z</time>
      </trkpt>
      <trkpt lat="41.47278" lon="-8.765445">
        <ele>75.0</ele>
        <time>2019-07-05T19:30:49Z</time>
      </trkpt>
      <trkpt lat="41.47288" lon="-8.76547">
        <ele>76.0</ele>
        <time>2019-07-05T19:30:51Z</time>
      </trkpt>
      <trkpt lat="41.472975" lon="-8.76549">
        <ele>76.0</ele>
        <time>2019-07-05T19:30:53Z</time>
      </trkpt>
      <trkpt lat="41.473075" lon="-8.765498333333333">
        <ele>76.0</ele>
        <time>2019-07-05T19:30:55Z</time>
      </trkpt>
      <trkpt lat="41.47318" lon="-8.76551">
        <ele>77.0</ele>
        <time>2019-07-05T19:30:57Z</time>
      </trkpt>
      <trkpt lat="41.4733" lon="-8.765505">
        <ele>76.0</ele>
        <time>2019-07-05T19:30:59Z</time>
      </trkpt>
      <trkpt lat="41.47342166666667" lon="-8.765525">
        <ele>76.0</ele>
        <time>2019-07-05T19:31:01Z</time>
      </trkpt>
      <trkpt lat="41.473515" lon="-8.765545">
        <ele>76.0</ele>
        <time>2019-07-05T19:31:04Z</time>
      </trkpt>
      <trkpt lat="41.473615" lon="-8.765555">
        <ele>77.0</ele>
        <time>2019-07-05T19:31:07Z</time>
      </trkpt>
      <trkpt lat="41.473725" lon="-8.76557">
        <ele>74.0</ele>
        <time>2019-07-05T19:31:09Z</time>
      </trkpt>
      <trkpt lat="41.473836666666664" lon="-8.765565">
        <ele>73.0</ele>
        <time>2019-07-05T19:31:11Z</time>
      </trkpt>
      <trkpt lat="41.47391666666667" lon="-8.765601666666667">
        <ele>72.0</ele>
        <time>2019-07-05T19:31:13Z</time>
      </trkpt>
      <trkpt lat="41.47399" lon="-8.76563">
        <ele>73.0</ele>
        <time>2019-07-05T19:31:15Z</time>
      </trkpt>
      <trkpt lat="41.47407" lon="-8.765615">
        <ele>75.0</ele>
        <time>2019-07-05T19:31:17Z</time>
      </trkpt>
      <trkpt lat="41.474178333333334" lon="-8.765625">
        <ele>74.0</ele>
        <time>2019-07-05T19:31:19Z</time>
      </trkpt>
      <trkpt lat="41.47428" lon="-8.76561">
        <ele>74.0</ele>
        <time>2019-07-05T19:31:21Z</time>
      </trkpt>
      <trkpt lat="41.474396666666664" lon="-8.76562">
        <ele>73.0</ele>
        <time>2019-07-05T19:31:24Z</time>
      </trkpt>
      <trkpt lat="41.47450666666667" lon="-8.76562">
        <ele>71.0</ele>
        <time>2019-07-05T19:31:26Z</time>
      </trkpt>
      <trkpt lat="41.474605" lon="-8.765591666666667">
        <ele>71.0</ele>
        <time>2019-07-05T19:31:28Z</time>
      </trkpt>
      <trkpt lat="41.47472" lon="-8.765555">
        <ele>70.0</ele>
        <time>2019-07-05T19:31:30Z</time>
      </trkpt>
      <trkpt lat="41.474821666666664" lon="-8.765511666666667">
        <ele>70.0</ele>
        <time>2019-07-05T19:31:32Z</time>
      </trkpt>
      <trkpt lat="41.474905" lon="-8.765455">
        <ele>69.0</ele>
        <time>2019-07-05T19:31:34Z</time>
      </trkpt>
      <trkpt lat="41.47499166666667" lon="-8.76542">
        <ele>69.0</ele>
        <time>2019-07-05T19:31:36Z</time>
      </trkpt>
      <trkpt lat="41.4751" lon="-8.76538">
        <ele>70.0</ele>
        <time>2019-07-05T19:31:38Z</time>
      </trkpt>
      <trkpt lat="41.47520166666666" lon="-8.765355">
        <ele>70.0</ele>
        <time>2019-07-05T19:31:40Z</time>
      </trkpt>
      <trkpt lat="41.47529" lon="-8.765346666666666">
        <ele>69.0</ele>
        <time>2019-07-05T19:31:42Z</time>
      </trkpt>
      <trkpt lat="41.475375" lon="-8.765385">
        <ele>69.0</ele>
        <time>2019-07-05T19:31:44Z</time>
      </trkpt>
      <trkpt lat="41.47544166666667" lon="-8.765435">
        <ele>72.0</ele>
        <time>2019-07-05T19:31:46Z</time>
      </trkpt>
      <trkpt lat="41.475505" lon="-8.765525">
        <ele>73.0</ele>
        <time>2019-07-05T19:31:48Z</time>
      </trkpt>
      <trkpt lat="41.47556" lon="-8.765625">
        <ele>72.0</ele>
        <time>2019-07-05T19:31:50Z</time>
      </trkpt>
      <trkpt lat="41.475625" lon="-8.765748333333333">
        <ele>72.0</ele>
        <time>2019-07-05T19:31:52Z</time>
      </trkpt>
      <trkpt lat="41.47568" lon="-8.765856666666666">
        <ele>72.0</ele>
        <time>2019-07-05T19:31:54Z</time>
      </trkpt>
      <trkpt lat="41.47573666666667" lon="-8.765965">
        <ele>71.0</ele>
        <time>2019-07-05T19:31:56Z</time>
      </trkpt>
      <trkpt lat="41.475795" lon="-8.766075">
        <ele>71.0</ele>
        <time>2019-07-05T19:31:58Z</time>
      </trkpt>
      <trkpt lat="41.47585333333333" lon="-8.766185">
        <ele>70.0</ele>
        <time>2019-07-05T19:32:00Z</time>
      </trkpt>
      <trkpt lat="41.47591166666667" lon="-8.766293333333333">
        <ele>70.0</ele>
        <time>2019-07-05T19:32:02Z</time>
      </trkpt>
      <trkpt lat="41.47597666666667" lon="-8.766406666666667">
        <ele>68.0</ele>
        <time>2019-07-05T19:32:04Z</time>
      </trkpt>
      <trkpt lat="41.47602" lon="-8.76653">
        <ele>69.0</ele>
        <time>2019-07-05T19:32:06Z</time>
      </trkpt>
      <trkpt lat="41.476075" lon="-8.766651666666666">
        <ele>68.0</ele>
        <time>2019-07-05T19:32:08Z</time>
      </trkpt>
      <trkpt lat="41.47611166666667" lon="-8.766745">
        <ele>70.0</ele>
        <time>2019-07-05T19:32:10Z</time>
      </trkpt>
      <trkpt lat="41.47616" lon="-8.766846666666666">
        <ele>70.0</ele>
        <time>2019-07-05T19:32:12Z</time>
      </trkpt>
      <trkpt lat="41.476225" lon="-8.76697">
        <ele>69.0</ele>
        <time>2019-07-05T19:32:14Z</time>
      </trkpt>
      <trkpt lat="41.47627" lon="-8.76708">
        <ele>69.0</ele>
        <time>2019-07-05T19:32:16Z</time>
      </trkpt>
      <trkpt lat="41.47631" lon="-8.767195">
        <ele>69.0</ele>
        <time>2019-07-05T19:32:18Z</time>
      </trkpt>
      <trkpt lat="41.476405" lon="-8.76736">
        <ele>66.0</ele>
        <time>2019-07-05T19:32:20Z</time>
      </trkpt>
      <trkpt lat="41.476461666666665" lon="-8.767486666666667">
        <ele>67.0</ele>
        <time>2019-07-05T19:32:22Z</time>
      </trkpt>
      <trkpt lat="41.476515" lon="-8.767621666666667">
        <ele>67.0</ele>
        <time>2019-07-05T19:32:24Z</time>
      </trkpt>
      <trkpt lat="41.476575" lon="-8.76774">
        <ele>68.0</ele>
        <time>2019-07-05T19:32:26Z</time>
      </trkpt>
      <trkpt lat="41.476635" lon="-8.767855">
        <ele>68.0</ele>
        <time>2019-07-05T19:32:28Z</time>
      </trkpt>
      <trkpt lat="41.476705" lon="-8.76795">
        <ele>66.0</ele>
        <time>2019-07-05T19:32:30Z</time>
      </trkpt>
      <trkpt lat="41.47673" lon="-8.76806">
        <ele>67.0</ele>
        <time>2019-07-05T19:32:32Z</time>
      </trkpt>
      <trkpt lat="41.47678" lon="-8.76819">
        <ele>66.0</ele>
        <time>2019-07-05T19:32:34Z</time>
      </trkpt>
      <trkpt lat="41.47685666666667" lon="-8.768271666666667">
        <ele>68.0</ele>
        <time>2019-07-05T19:32:36Z</time>
      </trkpt>
      <trkpt lat="41.476906666666665" lon="-8.768385">
        <ele>67.0</ele>
        <time>2019-07-05T19:32:38Z</time>
      </trkpt>
      <trkpt lat="41.476955" lon="-8.768475">
        <ele>66.0</ele>
        <time>2019-07-05T19:32:40Z</time>
      </trkpt>
      <trkpt lat="41.477015" lon="-8.768565">
        <ele>67.0</ele>
        <time>2019-07-05T19:32:42Z</time>
      </trkpt>
      <trkpt lat="41.477065" lon="-8.76868">
        <ele>66.0</ele>
        <time>2019-07-05T19:32:44Z</time>
      </trkpt>
      <trkpt lat="41.477125" lon="-8.76876">
        <ele>67.0</ele>
        <time>2019-07-05T19:32:46Z</time>
      </trkpt>
      <trkpt lat="41.47718666666667" lon="-8.768846666666667">
        <ele>66.0</ele>
        <time>2019-07-05T19:32:48Z</time>
      </trkpt>
      <trkpt lat="41.477255" lon="-8.768911666666666">
        <ele>66.0</ele>
        <time>2019-07-05T19:32:50Z</time>
      </trkpt>
      <trkpt lat="41.4773" lon="-8.768995">
        <ele>66.0</ele>
        <time>2019-07-05T19:32:52Z</time>
      </trkpt>
      <trkpt lat="41.477305" lon="-8.769111666666667">
        <ele>66.0</ele>
        <time>2019-07-05T19:32:54Z</time>
      </trkpt>
      <trkpt lat="41.477288333333334" lon="-8.769235">
        <ele>66.0</ele>
        <time>2019-07-05T19:32:56Z</time>
      </trkpt>
      <trkpt lat="41.47727" lon="-8.76937">
        <ele>66.0</ele>
        <time>2019-07-05T19:32:58Z</time>
      </trkpt>
      <trkpt lat="41.47725" lon="-8.76951">
        <ele>66.0</ele>
        <time>2019-07-05T19:33:00Z</time>
      </trkpt>
      <trkpt lat="41.47723" lon="-8.76966">
        <ele>67.0</ele>
        <time>2019-07-05T19:33:02Z</time>
      </trkpt>
      <trkpt lat="41.47721" lon="-8.76981">
        <ele>67.0</ele>
        <time>2019-07-05T19:33:04Z</time>
      </trkpt>
      <trkpt lat="41.47718" lon="-8.76997">
        <ele>67.0</ele>
        <time>2019-07-05T19:33:06Z</time>
      </trkpt>
      <trkpt lat="41.477155" lon="-8.770135">
        <ele>67.0</ele>
        <time>2019-07-05T19:33:08Z</time>
      </trkpt>
      <trkpt lat="41.477125" lon="-8.770306666666666">
        <ele>67.0</ele>
        <time>2019-07-05T19:33:10Z</time>
      </trkpt>
      <trkpt lat="41.477095" lon="-8.77048">
        <ele>67.0</ele>
        <time>2019-07-05T19:33:12Z</time>
      </trkpt>
      <trkpt lat="41.477061666666664" lon="-8.770651666666666">
        <ele>67.0</ele>
        <time>2019-07-05T19:33:14Z</time>
      </trkpt>
      <trkpt lat="41.47703" lon="-8.770825">
        <ele>67.0</ele>
        <time>2019-07-05T19:33:16Z</time>
      </trkpt>
      <trkpt lat="41.476995" lon="-8.77101">
        <ele>67.0</ele>
        <time>2019-07-05T19:33:18Z</time>
      </trkpt>
      <trkpt lat="41.476976666666665" lon="-8.771105">
        <ele>67.0</ele>
        <time>2019-07-05T19:33:19Z</time>
      </trkpt>
      <trkpt lat="41.47695" lon="-8.77129">
        <ele>67.0</ele>
        <time>2019-07-05T19:33:21Z</time>
      </trkpt>
      <trkpt lat="41.47693666666667" lon="-8.771385">
        <ele>66.0</ele>
        <time>2019-07-05T19:33:22Z</time>
      </trkpt>
      <trkpt lat="41.476906666666665" lon="-8.77157">
        <ele>67.0</ele>
        <time>2019-07-05T19:33:24Z</time>
      </trkpt>
      <trkpt lat="41.47688" lon="-8.77176">
        <ele>66.0</ele>
        <time>2019-07-05T19:33:26Z</time>
      </trkpt>
      <trkpt lat="41.476865" lon="-8.771855">
        <ele>66.0</ele>
        <time>2019-07-05T19:33:27Z</time>
      </trkpt>
      <trkpt lat="41.47685" lon="-8.77195">
        <ele>66.0</ele>
        <time>2019-07-05T19:33:28Z</time>
      </trkpt>
      <trkpt lat="41.476836666666664" lon="-8.772045">
        <ele>66.0</ele>
        <time>2019-07-05T19:33:29Z</time>
      </trkpt>
      <trkpt lat="41.476821666666666" lon="-8.77214">
        <ele>65.0</ele>
        <time>2019-07-05T19:33:30Z</time>
      </trkpt>
      <trkpt lat="41.476805" lon="-8.772235">
        <ele>65.0</ele>
        <time>2019-07-05T19:33:31Z</time>
      </trkpt>
      <trkpt lat="41.476791666666664" lon="-8.77233">
        <ele>65.0</ele>
        <time>2019-07-05T19:33:32Z</time>
      </trkpt>
      <trkpt lat="41.476775" lon="-8.772425">
        <ele>64.0</ele>
        <time>2019-07-05T19:33:33Z</time>
      </trkpt>
      <trkpt lat="41.47674666666666" lon="-8.772615">
        <ele>64.0</ele>
        <time>2019-07-05T19:33:35Z</time>
      </trkpt>
      <trkpt lat="41.476725" lon="-8.772795">
        <ele>64.0</ele>
        <time>2019-07-05T19:33:37Z</time>
      </trkpt>
      <trkpt lat="41.476705" lon="-8.77296">
        <ele>65.0</ele>
        <time>2019-07-05T19:33:39Z</time>
      </trkpt>
      <trkpt lat="41.47670166666666" lon="-8.77311">
        <ele>64.0</ele>
        <time>2019-07-05T19:33:41Z</time>
      </trkpt>
      <trkpt lat="41.47674833333333" lon="-8.77323">
        <ele>64.0</ele>
        <time>2019-07-05T19:33:43Z</time>
      </trkpt>
      <trkpt lat="41.47683" lon="-8.773271666666666">
        <ele>66.0</ele>
        <time>2019-07-05T19:33:45Z</time>
      </trkpt>
      <trkpt lat="41.476926666666664" lon="-8.77329">
        <ele>66.0</ele>
        <time>2019-07-05T19:33:47Z</time>
      </trkpt>
      <trkpt lat="41.477035" lon="-8.773295">
        <ele>66.0</ele>
        <time>2019-07-05T19:33:49Z</time>
      </trkpt>
      <trkpt lat="41.47715" lon="-8.773305">
        <ele>66.0</ele>
        <time>2019-07-05T19:33:51Z</time>
      </trkpt>
      <trkpt lat="41.47727" lon="-8.773315">
        <ele>66.0</ele>
        <time>2019-07-05T19:33:53Z</time>
      </trkpt>
      <trkpt lat="41.477385" lon="-8.77331">
        <ele>67.0</ele>
        <time>2019-07-05T19:33:55Z</time>
      </trkpt>
      <trkpt lat="41.47749666666667" lon="-8.77332">
        <ele>66.0</ele>
        <time>2019-07-05T19:33:57Z</time>
      </trkpt>
      <trkpt lat="41.47761" lon="-8.773315">
        <ele>67.0</ele>
        <time>2019-07-05T19:33:59Z</time>
      </trkpt>
      <trkpt lat="41.477725" lon="-8.773315">
        <ele>68.0</ele>
        <time>2019-07-05T19:34:01Z</time>
      </trkpt>
      <trkpt lat="41.477845" lon="-8.77331">
        <ele>68.0</ele>
        <time>2019-07-05T19:34:03Z</time>
      </trkpt>
      <trkpt lat="41.47797166666667" lon="-8.773303333333333">
        <ele>68.0</ele>
        <time>2019-07-05T19:34:05Z</time>
      </trkpt>
      <trkpt lat="41.478095" lon="-8.773291666666667">
        <ele>69.0</ele>
        <time>2019-07-05T19:34:07Z</time>
      </trkpt>
      <trkpt lat="41.47822" lon="-8.773281666666668">
        <ele>69.0</ele>
        <time>2019-07-05T19:34:09Z</time>
      </trkpt>
      <trkpt lat="41.478341666666665" lon="-8.773271666666666">
        <ele>68.0</ele>
        <time>2019-07-05T19:34:11Z</time>
      </trkpt>
      <trkpt lat="41.47846" lon="-8.77327">
        <ele>67.0</ele>
        <time>2019-07-05T19:34:13Z</time>
      </trkpt>
      <trkpt lat="41.478585" lon="-8.773255">
        <ele>68.0</ele>
        <time>2019-07-05T19:34:15Z</time>
      </trkpt>
      <trkpt lat="41.478705" lon="-8.773248333333333">
        <ele>68.0</ele>
        <time>2019-07-05T19:34:17Z</time>
      </trkpt>
      <trkpt lat="41.478815" lon="-8.77324">
        <ele>68.0</ele>
        <time>2019-07-05T19:34:19Z</time>
      </trkpt>
      <trkpt lat="41.47892" lon="-8.773235">
        <ele>68.0</ele>
        <time>2019-07-05T19:34:21Z</time>
      </trkpt>
      <trkpt lat="41.479005" lon="-8.773235">
        <ele>69.0</ele>
        <time>2019-07-05T19:34:23Z</time>
      </trkpt>
      <trkpt lat="41.47908666666667" lon="-8.77323">
        <ele>69.0</ele>
        <time>2019-07-05T19:34:25Z</time>
      </trkpt>
      <trkpt lat="41.47917" lon="-8.773215">
        <ele>70.0</ele>
        <time>2019-07-05T19:34:27Z</time>
      </trkpt>
      <trkpt lat="41.479275" lon="-8.773195">
        <ele>72.0</ele>
        <time>2019-07-05T19:34:29Z</time>
      </trkpt>
      <trkpt lat="41.479385" lon="-8.773185">
        <ele>71.0</ele>
        <time>2019-07-05T19:34:31Z</time>
      </trkpt>
      <trkpt lat="41.4795" lon="-8.773181666666666">
        <ele>71.0</ele>
        <time>2019-07-05T19:34:33Z</time>
      </trkpt>
      <trkpt lat="41.47961" lon="-8.773205">
        <ele>71.0</ele>
        <time>2019-07-05T19:34:35Z</time>
      </trkpt>
      <trkpt lat="41.47971666666667" lon="-8.773245">
        <ele>71.0</ele>
        <time>2019-07-05T19:34:37Z</time>
      </trkpt>
      <trkpt lat="41.47981" lon="-8.77332">
        <ele>70.0</ele>
        <time>2019-07-05T19:34:39Z</time>
      </trkpt>
      <trkpt lat="41.4799" lon="-8.773396666666667">
        <ele>72.0</ele>
        <time>2019-07-05T19:34:41Z</time>
      </trkpt>
      <trkpt lat="41.479985" lon="-8.77349">
        <ele>72.0</ele>
        <time>2019-07-05T19:34:43Z</time>
      </trkpt>
      <trkpt lat="41.48006" lon="-8.773621666666667">
        <ele>71.0</ele>
        <time>2019-07-05T19:34:45Z</time>
      </trkpt>
      <trkpt lat="41.48012666666666" lon="-8.77375">
        <ele>71.0</ele>
        <time>2019-07-05T19:34:47Z</time>
      </trkpt>
      <trkpt lat="41.4802" lon="-8.77386">
        <ele>70.0</ele>
        <time>2019-07-05T19:34:49Z</time>
      </trkpt>
      <trkpt lat="41.480275" lon="-8.77396">
        <ele>70.0</ele>
        <time>2019-07-05T19:34:51Z</time>
      </trkpt>
      <trkpt lat="41.480335" lon="-8.77406">
        <ele>70.0</ele>
        <time>2019-07-05T19:34:53Z</time>
      </trkpt>
      <trkpt lat="41.4804" lon="-8.77416">
        <ele>70.0</ele>
        <time>2019-07-05T19:34:55Z</time>
      </trkpt>
      <trkpt lat="41.480475" lon="-8.77426">
        <ele>70.0</ele>
        <time>2019-07-05T19:34:57Z</time>
      </trkpt>
      <trkpt lat="41.48055" lon="-8.77436">
        <ele>70.0</ele>
        <time>2019-07-05T19:34:59Z</time>
      </trkpt>
      <trkpt lat="41.480625" lon="-8.774466666666667">
        <ele>70.0</ele>
        <time>2019-07-05T19:35:01Z</time>
      </trkpt>
      <trkpt lat="41.480715000000004" lon="-8.77456">
        <ele>70.0</ele>
        <time>2019-07-05T19:35:03Z</time>
      </trkpt>
      <trkpt lat="41.48081666666667" lon="-8.774648333333333">
        <ele>69.0</ele>
        <time>2019-07-05T19:35:05Z</time>
      </trkpt>
      <trkpt lat="41.480915" lon="-8.77475">
        <ele>69.0</ele>
        <time>2019-07-05T19:35:07Z</time>
      </trkpt>
      <trkpt lat="41.48102" lon="-8.774851666666667">
        <ele>69.0</ele>
        <time>2019-07-05T19:35:09Z</time>
      </trkpt>
      <trkpt lat="41.481115" lon="-8.774965">
        <ele>69.0</ele>
        <time>2019-07-05T19:35:11Z</time>
      </trkpt>
      <trkpt lat="41.481225" lon="-8.77506">
        <ele>69.0</ele>
        <time>2019-07-05T19:35:13Z</time>
      </trkpt>
      <trkpt lat="41.481345" lon="-8.775155">
        <ele>69.0</ele>
        <time>2019-07-05T19:35:15Z</time>
      </trkpt>
      <trkpt lat="41.481453333333334" lon="-8.775253333333334">
        <ele>68.0</ele>
        <time>2019-07-05T19:35:17Z</time>
      </trkpt>
      <trkpt lat="41.481561666666664" lon="-8.77536">
        <ele>68.0</ele>
        <time>2019-07-05T19:35:19Z</time>
      </trkpt>
      <trkpt lat="41.48167" lon="-8.775456666666667">
        <ele>69.0</ele>
        <time>2019-07-05T19:35:21Z</time>
      </trkpt>
      <trkpt lat="41.481766666666665" lon="-8.77555">
        <ele>69.0</ele>
        <time>2019-07-05T19:35:23Z</time>
      </trkpt>
      <trkpt lat="41.48187" lon="-8.775631666666667">
        <ele>69.0</ele>
        <time>2019-07-05T19:35:25Z</time>
      </trkpt>
      <trkpt lat="41.48197166666667" lon="-8.775725">
        <ele>69.0</ele>
        <time>2019-07-05T19:35:27Z</time>
      </trkpt>
      <trkpt lat="41.48209" lon="-8.775795">
        <ele>69.0</ele>
        <time>2019-07-05T19:35:29Z</time>
      </trkpt>
      <trkpt lat="41.48219666666667" lon="-8.775865">
        <ele>69.0</ele>
        <time>2019-07-05T19:35:31Z</time>
      </trkpt>
      <trkpt lat="41.482295" lon="-8.775935">
        <ele>68.0</ele>
        <time>2019-07-05T19:35:33Z</time>
      </trkpt>
      <trkpt lat="41.4824" lon="-8.776005">
        <ele>68.0</ele>
        <time>2019-07-05T19:35:35Z</time>
      </trkpt>
      <trkpt lat="41.4825" lon="-8.776095">
        <ele>68.0</ele>
        <time>2019-07-05T19:35:37Z</time>
      </trkpt>
      <trkpt lat="41.482615" lon="-8.77616">
        <ele>68.0</ele>
        <time>2019-07-05T19:35:39Z</time>
      </trkpt>
      <trkpt lat="41.482725" lon="-8.776226666666666">
        <ele>68.0</ele>
        <time>2019-07-05T19:35:41Z</time>
      </trkpt>
      <trkpt lat="41.48283" lon="-8.776295">
        <ele>68.0</ele>
        <time>2019-07-05T19:35:43Z</time>
      </trkpt>
      <trkpt lat="41.48293" lon="-8.776365">
        <ele>68.0</ele>
        <time>2019-07-05T19:35:45Z</time>
      </trkpt>
      <trkpt lat="41.483035" lon="-8.776435">
        <ele>68.0</ele>
        <time>2019-07-05T19:35:47Z</time>
      </trkpt>
      <trkpt lat="41.483145" lon="-8.7765">
        <ele>68.0</ele>
        <time>2019-07-05T19:35:49Z</time>
      </trkpt>
      <trkpt lat="41.483235" lon="-8.776575">
        <ele>67.0</ele>
        <time>2019-07-05T19:35:51Z</time>
      </trkpt>
      <trkpt lat="41.48333" lon="-8.776645">
        <ele>68.0</ele>
        <time>2019-07-05T19:35:53Z</time>
      </trkpt>
      <trkpt lat="41.483415" lon="-8.77669">
        <ele>67.0</ele>
        <time>2019-07-05T19:35:55Z</time>
      </trkpt>
      <trkpt lat="41.48348" lon="-8.776765">
        <ele>68.0</ele>
        <time>2019-07-05T19:35:57Z</time>
      </trkpt>
      <trkpt lat="41.483545" lon="-8.776825">
        <ele>68.0</ele>
        <time>2019-07-05T19:35:59Z</time>
      </trkpt>
      <trkpt lat="41.483605" lon="-8.77688">
        <ele>68.0</ele>
        <time>2019-07-05T19:36:01Z</time>
      </trkpt>
      <trkpt lat="41.483685" lon="-8.776935">
        <ele>68.0</ele>
        <time>2019-07-05T19:36:04Z</time>
      </trkpt>
      <trkpt lat="41.483736666666665" lon="-8.777016666666666">
        <ele>68.0</ele>
        <time>2019-07-05T19:36:07Z</time>
      </trkpt>
      <trkpt lat="41.483715" lon="-8.777115">
        <ele>68.0</ele>
        <time>2019-07-05T19:36:09Z</time>
      </trkpt>
      <trkpt lat="41.483685" lon="-8.777215">
        <ele>67.0</ele>
        <time>2019-07-05T19:36:11Z</time>
      </trkpt>
      <trkpt lat="41.48366" lon="-8.777316666666668">
        <ele>68.0</ele>
        <time>2019-07-05T19:36:13Z</time>
      </trkpt>
      <trkpt lat="41.48364333333333" lon="-8.777413333333334">
        <ele>67.0</ele>
        <time>2019-07-05T19:36:15Z</time>
      </trkpt>
      <trkpt lat="41.48362" lon="-8.777526666666667">
        <ele>68.0</ele>
        <time>2019-07-05T19:36:17Z</time>
      </trkpt>
      <trkpt lat="41.48360666666667" lon="-8.777655">
        <ele>68.0</ele>
        <time>2019-07-05T19:36:19Z</time>
      </trkpt>
      <trkpt lat="41.48361" lon="-8.77778">
        <ele>68.0</ele>
        <time>2019-07-05T19:36:21Z</time>
      </trkpt>
      <trkpt lat="41.483635" lon="-8.777905">
        <ele>68.0</ele>
        <time>2019-07-05T19:36:23Z</time>
      </trkpt>
      <trkpt lat="41.483685" lon="-8.778006666666666">
        <ele>67.0</ele>
        <time>2019-07-05T19:36:25Z</time>
      </trkpt>
      <trkpt lat="41.483745" lon="-8.778075">
        <ele>68.0</ele>
        <time>2019-07-05T19:36:27Z</time>
      </trkpt>
      <trkpt lat="41.48381" lon="-8.778165">
        <ele>68.0</ele>
        <time>2019-07-05T19:36:29Z</time>
      </trkpt>
      <trkpt lat="41.48388" lon="-8.778246666666666">
        <ele>68.0</ele>
        <time>2019-07-05T19:36:31Z</time>
      </trkpt>
      <trkpt lat="41.483956666666664" lon="-8.77832">
        <ele>68.0</ele>
        <time>2019-07-05T19:36:33Z</time>
      </trkpt>
      <trkpt lat="41.484035" lon="-8.778391666666666">
        <ele>69.0</ele>
        <time>2019-07-05T19:36:35Z</time>
      </trkpt>
      <trkpt lat="41.48411" lon="-8.778465">
        <ele>69.0</ele>
        <time>2019-07-05T19:36:37Z</time>
      </trkpt>
      <trkpt lat="41.484186666666666" lon="-8.778541666666667">
        <ele>69.0</ele>
        <time>2019-07-05T19:36:39Z</time>
      </trkpt>
      <trkpt lat="41.48426" lon="-8.778615">
        <ele>69.0</ele>
        <time>2019-07-05T19:36:41Z</time>
      </trkpt>
      <trkpt lat="41.484335" lon="-8.778695">
        <ele>69.0</ele>
        <time>2019-07-05T19:36:43Z</time>
      </trkpt>
      <trkpt lat="41.484406666666665" lon="-8.778775">
        <ele>69.0</ele>
        <time>2019-07-05T19:36:45Z</time>
      </trkpt>
      <trkpt lat="41.484485" lon="-8.778855">
        <ele>69.0</ele>
        <time>2019-07-05T19:36:47Z</time>
      </trkpt>
      <trkpt lat="41.48455833333333" lon="-8.77892">
        <ele>70.0</ele>
        <time>2019-07-05T19:36:49Z</time>
      </trkpt>
      <trkpt lat="41.48464" lon="-8.778991666666666">
        <ele>70.0</ele>
        <time>2019-07-05T19:36:51Z</time>
      </trkpt>
      <trkpt lat="41.48473" lon="-8.77906">
        <ele>69.0</ele>
        <time>2019-07-05T19:36:53Z</time>
      </trkpt>
      <trkpt lat="41.48481" lon="-8.779125">
        <ele>69.0</ele>
        <time>2019-07-05T19:36:55Z</time>
      </trkpt>
      <trkpt lat="41.484895" lon="-8.779185">
        <ele>69.0</ele>
        <time>2019-07-05T19:36:57Z</time>
      </trkpt>
      <trkpt lat="41.48497666666667" lon="-8.77926">
        <ele>69.0</ele>
        <time>2019-07-05T19:36:59Z</time>
      </trkpt>
      <trkpt lat="41.485065" lon="-8.779325">
        <ele>69.0</ele>
        <time>2019-07-05T19:37:01Z</time>
      </trkpt>
      <trkpt lat="41.48515166666667" lon="-8.779396666666667">
        <ele>69.0</ele>
        <time>2019-07-05T19:37:03Z</time>
      </trkpt>
      <trkpt lat="41.485231666666664" lon="-8.779476666666667">
        <ele>70.0</ele>
        <time>2019-07-05T19:37:05Z</time>
      </trkpt>
      <trkpt lat="41.48532" lon="-8.779538333333333">
        <ele>70.0</ele>
        <time>2019-07-05T19:37:07Z</time>
      </trkpt>
      <trkpt lat="41.485405" lon="-8.779615">
        <ele>69.0</ele>
        <time>2019-07-05T19:37:09Z</time>
      </trkpt>
      <trkpt lat="41.485485" lon="-8.779691666666666">
        <ele>69.0</ele>
        <time>2019-07-05T19:37:11Z</time>
      </trkpt>
      <trkpt lat="41.48556" lon="-8.779775">
        <ele>69.0</ele>
        <time>2019-07-05T19:37:13Z</time>
      </trkpt>
      <trkpt lat="41.48564" lon="-8.779846666666666">
        <ele>69.0</ele>
        <time>2019-07-05T19:37:15Z</time>
      </trkpt>
      <trkpt lat="41.48572" lon="-8.779895">
        <ele>69.0</ele>
        <time>2019-07-05T19:37:17Z</time>
      </trkpt>
      <trkpt lat="41.485795" lon="-8.779925">
        <ele>70.0</ele>
        <time>2019-07-05T19:37:19Z</time>
      </trkpt>
      <trkpt lat="41.48587" lon="-8.77995">
        <ele>70.0</ele>
        <time>2019-07-05T19:37:21Z</time>
      </trkpt>
      <trkpt lat="41.485955" lon="-8.77995">
        <ele>71.0</ele>
        <time>2019-07-05T19:37:23Z</time>
      </trkpt>
      <trkpt lat="41.486035" lon="-8.77996">
        <ele>71.0</ele>
        <time>2019-07-05T19:37:25Z</time>
      </trkpt>
      <trkpt lat="41.48614" lon="-8.779976666666666">
        <ele>71.0</ele>
        <time>2019-07-05T19:37:27Z</time>
      </trkpt>
      <trkpt lat="41.486245" lon="-8.779995">
        <ele>71.0</ele>
        <time>2019-07-05T19:37:29Z</time>
      </trkpt>
      <trkpt lat="41.48634166666667" lon="-8.78002">
        <ele>70.0</ele>
        <time>2019-07-05T19:37:31Z</time>
      </trkpt>
      <trkpt lat="41.48644" lon="-8.780025">
        <ele>70.0</ele>
        <time>2019-07-05T19:37:33Z</time>
      </trkpt>
      <trkpt lat="41.486531666666664" lon="-8.780035">
        <ele>71.0</ele>
        <time>2019-07-05T19:37:35Z</time>
      </trkpt>
      <trkpt lat="41.48661666666667" lon="-8.780066666666666">
        <ele>70.0</ele>
        <time>2019-07-05T19:37:38Z</time>
      </trkpt>
      <trkpt lat="41.48668166666667" lon="-8.780156666666667">
        <ele>69.0</ele>
        <time>2019-07-05T19:37:41Z</time>
      </trkpt>
      <trkpt lat="41.486755" lon="-8.78026">
        <ele>68.0</ele>
        <time>2019-07-05T19:37:44Z</time>
      </trkpt>
      <trkpt lat="41.486806666666666" lon="-8.78035">
        <ele>66.0</ele>
        <time>2019-07-05T19:37:46Z</time>
      </trkpt>
      <trkpt lat="41.48687" lon="-8.78044">
        <ele>66.0</ele>
        <time>2019-07-05T19:37:48Z</time>
      </trkpt>
      <trkpt lat="41.486935" lon="-8.78054">
        <ele>66.0</ele>
        <time>2019-07-05T19:37:50Z</time>
      </trkpt>
      <trkpt lat="41.487" lon="-8.78064">
        <ele>66.0</ele>
        <time>2019-07-05T19:37:52Z</time>
      </trkpt>
      <trkpt lat="41.48706" lon="-8.78072">
        <ele>65.0</ele>
        <time>2019-07-05T19:37:54Z</time>
      </trkpt>
      <trkpt lat="41.487115" lon="-8.780801666666667">
        <ele>65.0</ele>
        <time>2019-07-05T19:37:56Z</time>
      </trkpt>
      <trkpt lat="41.48717666666667" lon="-8.7809">
        <ele>65.0</ele>
        <time>2019-07-05T19:37:58Z</time>
      </trkpt>
      <trkpt lat="41.487235" lon="-8.780993333333333">
        <ele>65.0</ele>
        <time>2019-07-05T19:38:00Z</time>
      </trkpt>
      <trkpt lat="41.4873" lon="-8.781075">
        <ele>66.0</ele>
        <time>2019-07-05T19:38:02Z</time>
      </trkpt>
      <trkpt lat="41.487361666666665" lon="-8.781171666666667">
        <ele>66.0</ele>
        <time>2019-07-05T19:38:04Z</time>
      </trkpt>
      <trkpt lat="41.48743666666667" lon="-8.781276666666667">
        <ele>65.0</ele>
        <time>2019-07-05T19:38:06Z</time>
      </trkpt>
      <trkpt lat="41.487525" lon="-8.781395">
        <ele>66.0</ele>
        <time>2019-07-05T19:38:08Z</time>
      </trkpt>
      <trkpt lat="41.48762" lon="-8.781515">
        <ele>66.0</ele>
        <time>2019-07-05T19:38:10Z</time>
      </trkpt>
      <trkpt lat="41.48771166666667" lon="-8.78162">
        <ele>66.0</ele>
        <time>2019-07-05T19:38:12Z</time>
      </trkpt>
      <trkpt lat="41.4878" lon="-8.78172">
        <ele>67.0</ele>
        <time>2019-07-05T19:38:14Z</time>
      </trkpt>
      <trkpt lat="41.487885" lon="-8.781815">
        <ele>67.0</ele>
        <time>2019-07-05T19:38:16Z</time>
      </trkpt>
      <trkpt lat="41.48796166666666" lon="-8.781915">
        <ele>68.0</ele>
        <time>2019-07-05T19:38:18Z</time>
      </trkpt>
      <trkpt lat="41.48804166666667" lon="-8.782011666666667">
        <ele>68.0</ele>
        <time>2019-07-05T19:38:20Z</time>
      </trkpt>
      <trkpt lat="41.48811666666667" lon="-8.782105">
        <ele>68.0</ele>
        <time>2019-07-05T19:38:22Z</time>
      </trkpt>
      <trkpt lat="41.4882" lon="-8.782195">
        <ele>69.0</ele>
        <time>2019-07-05T19:38:24Z</time>
      </trkpt>
      <trkpt lat="41.488276666666664" lon="-8.78228">
        <ele>69.0</ele>
        <time>2019-07-05T19:38:26Z</time>
      </trkpt>
      <trkpt lat="41.48836166666667" lon="-8.78236">
        <ele>69.0</ele>
        <time>2019-07-05T19:38:28Z</time>
      </trkpt>
      <trkpt lat="41.48845" lon="-8.78243">
        <ele>69.0</ele>
        <time>2019-07-05T19:38:30Z</time>
      </trkpt>
      <trkpt lat="41.48854" lon="-8.78249">
        <ele>69.0</ele>
        <time>2019-07-05T19:38:32Z</time>
      </trkpt>
      <trkpt lat="41.48862666666667" lon="-8.78254">
        <ele>69.0</ele>
        <time>2019-07-05T19:38:34Z</time>
      </trkpt>
      <trkpt lat="41.488715" lon="-8.782585">
        <ele>69.0</ele>
        <time>2019-07-05T19:38:36Z</time>
      </trkpt>
      <trkpt lat="41.488805" lon="-8.782621666666667">
        <ele>69.0</ele>
        <time>2019-07-05T19:38:38Z</time>
      </trkpt>
      <trkpt lat="41.488895" lon="-8.782665">
        <ele>70.0</ele>
        <time>2019-07-05T19:38:40Z</time>
      </trkpt>
      <trkpt lat="41.48898" lon="-8.782705">
        <ele>70.0</ele>
        <time>2019-07-05T19:38:42Z</time>
      </trkpt>
      <trkpt lat="41.489065" lon="-8.782725">
        <ele>71.0</ele>
        <time>2019-07-05T19:38:44Z</time>
      </trkpt>
      <trkpt lat="41.48915" lon="-8.78274">
        <ele>71.0</ele>
        <time>2019-07-05T19:38:46Z</time>
      </trkpt>
      <trkpt lat="41.489235" lon="-8.782765">
        <ele>71.0</ele>
        <time>2019-07-05T19:38:48Z</time>
      </trkpt>
      <trkpt lat="41.48932166666667" lon="-8.7828">
        <ele>71.0</ele>
        <time>2019-07-05T19:38:50Z</time>
      </trkpt>
      <trkpt lat="41.489415" lon="-8.782831666666667">
        <ele>72.0</ele>
        <time>2019-07-05T19:38:52Z</time>
      </trkpt>
      <trkpt lat="41.4895" lon="-8.782855">
        <ele>72.0</ele>
        <time>2019-07-05T19:38:54Z</time>
      </trkpt>
      <trkpt lat="41.48961" lon="-8.782871666666667">
        <ele>73.0</ele>
        <time>2019-07-05T19:38:57Z</time>
      </trkpt>
      <trkpt lat="41.48969" lon="-8.782908333333333">
        <ele>74.0</ele>
        <time>2019-07-05T19:39:00Z</time>
      </trkpt>
      <trkpt lat="41.489776666666664" lon="-8.782945">
        <ele>75.0</ele>
        <time>2019-07-05T19:39:03Z</time>
      </trkpt>
      <trkpt lat="41.48985" lon="-8.782961666666667">
        <ele>75.0</ele>
        <time>2019-07-05T19:39:05Z</time>
      </trkpt>
      <trkpt lat="41.489925" lon="-8.78298">
        <ele>75.0</ele>
        <time>2019-07-05T19:39:07Z</time>
      </trkpt>
      <trkpt lat="41.49" lon="-8.783003333333333">
        <ele>76.0</ele>
        <time>2019-07-05T19:39:09Z</time>
      </trkpt>
      <trkpt lat="41.490075" lon="-8.783025">
        <ele>76.0</ele>
        <time>2019-07-05T19:39:11Z</time>
      </trkpt>
      <trkpt lat="41.49015" lon="-8.783045">
        <ele>76.0</ele>
        <time>2019-07-05T19:39:13Z</time>
      </trkpt>
      <trkpt lat="41.490225" lon="-8.783065">
        <ele>77.0</ele>
        <time>2019-07-05T19:39:15Z</time>
      </trkpt>
      <trkpt lat="41.4903" lon="-8.783086666666666">
        <ele>77.0</ele>
        <time>2019-07-05T19:39:17Z</time>
      </trkpt>
      <trkpt lat="41.490375" lon="-8.78311">
        <ele>77.0</ele>
        <time>2019-07-05T19:39:19Z</time>
      </trkpt>
      <trkpt lat="41.49045" lon="-8.78313">
        <ele>77.0</ele>
        <time>2019-07-05T19:39:21Z</time>
      </trkpt>
      <trkpt lat="41.49052666666667" lon="-8.78315">
        <ele>78.0</ele>
        <time>2019-07-05T19:39:23Z</time>
      </trkpt>
      <trkpt lat="41.490605" lon="-8.78317">
        <ele>78.0</ele>
        <time>2019-07-05T19:39:25Z</time>
      </trkpt>
      <trkpt lat="41.490685" lon="-8.7832">
        <ele>78.0</ele>
        <time>2019-07-05T19:39:27Z</time>
      </trkpt>
      <trkpt lat="41.490765" lon="-8.783215">
        <ele>78.0</ele>
        <time>2019-07-05T19:39:29Z</time>
      </trkpt>
      <trkpt lat="41.490845" lon="-8.783245">
        <ele>78.0</ele>
        <time>2019-07-05T19:39:31Z</time>
      </trkpt>
      <trkpt lat="41.490923333333335" lon="-8.78327">
        <ele>79.0</ele>
        <time>2019-07-05T19:39:33Z</time>
      </trkpt>
      <trkpt lat="41.49101" lon="-8.783295">
        <ele>79.0</ele>
        <time>2019-07-05T19:39:35Z</time>
      </trkpt>
      <trkpt lat="41.49109" lon="-8.78332">
        <ele>78.0</ele>
        <time>2019-07-05T19:39:37Z</time>
      </trkpt>
      <trkpt lat="41.49117" lon="-8.78334">
        <ele>79.0</ele>
        <time>2019-07-05T19:39:39Z</time>
      </trkpt>
      <trkpt lat="41.49124" lon="-8.78336">
        <ele>78.0</ele>
        <time>2019-07-05T19:39:41Z</time>
      </trkpt>
      <trkpt lat="41.491345" lon="-8.78339">
        <ele>78.0</ele>
        <time>2019-07-05T19:39:44Z</time>
      </trkpt>
      <trkpt lat="41.491445" lon="-8.783425">
        <ele>78.0</ele>
        <time>2019-07-05T19:39:47Z</time>
      </trkpt>
      <trkpt lat="41.49152" lon="-8.78344">
        <ele>78.0</ele>
        <time>2019-07-05T19:39:49Z</time>
      </trkpt>
      <trkpt lat="41.491596666666666" lon="-8.783475">
        <ele>77.0</ele>
        <time>2019-07-05T19:39:51Z</time>
      </trkpt>
      <trkpt lat="41.49167666666666" lon="-8.7835">
        <ele>76.0</ele>
        <time>2019-07-05T19:39:53Z</time>
      </trkpt>
      <trkpt lat="41.49176166666667" lon="-8.783525">
        <ele>76.0</ele>
        <time>2019-07-05T19:39:55Z</time>
      </trkpt>
      <trkpt lat="41.491841666666666" lon="-8.78354">
        <ele>76.0</ele>
        <time>2019-07-05T19:39:58Z</time>
      </trkpt>
      <trkpt lat="41.491915" lon="-8.783555">
        <ele>76.0</ele>
        <time>2019-07-05T19:40:03Z</time>
      </trkpt>
      <trkpt lat="41.49195" lon="-8.783555">
        <ele>75.0</ele>
        <time>2019-07-05T19:40:10Z</time>
      </trkpt>
      <trkpt lat="41.492035" lon="-8.783555">
        <ele>75.0</ele>
        <time>2019-07-05T19:40:14Z</time>
      </trkpt>
      <trkpt lat="41.492125" lon="-8.783575">
        <ele>75.0</ele>
        <time>2019-07-05T19:40:17Z</time>
      </trkpt>
      <trkpt lat="41.49222666666667" lon="-8.7836">
        <ele>74.0</ele>
        <time>2019-07-05T19:40:20Z</time>
      </trkpt>
      <trkpt lat="41.49231" lon="-8.783626666666667">
        <ele>73.0</ele>
        <time>2019-07-05T19:40:22Z</time>
      </trkpt>
      <trkpt lat="41.492395" lon="-8.783665">
        <ele>73.0</ele>
        <time>2019-07-05T19:40:24Z</time>
      </trkpt>
      <trkpt lat="41.492485" lon="-8.7837">
        <ele>73.0</ele>
        <time>2019-07-05T19:40:26Z</time>
      </trkpt>
      <trkpt lat="41.492565" lon="-8.783721666666667">
        <ele>73.0</ele>
        <time>2019-07-05T19:40:28Z</time>
      </trkpt>
      <trkpt lat="41.492645" lon="-8.783745">
        <ele>72.0</ele>
        <time>2019-07-05T19:40:30Z</time>
      </trkpt>
      <trkpt lat="41.49272666666667" lon="-8.78376">
        <ele>72.0</ele>
        <time>2019-07-05T19:40:32Z</time>
      </trkpt>
      <trkpt lat="41.492805" lon="-8.783786666666666">
        <ele>72.0</ele>
        <time>2019-07-05T19:40:34Z</time>
      </trkpt>
      <trkpt lat="41.49288166666667" lon="-8.783815">
        <ele>73.0</ele>
        <time>2019-07-05T19:40:36Z</time>
      </trkpt>
      <trkpt lat="41.49295166666667" lon="-8.78384">
        <ele>72.0</ele>
        <time>2019-07-05T19:40:38Z</time>
      </trkpt>
      <trkpt lat="41.493035" lon="-8.783855">
        <ele>72.0</ele>
        <time>2019-07-05T19:40:41Z</time>
      </trkpt>
      <trkpt lat="41.49315" lon="-8.783856666666667">
        <ele>73.0</ele>
        <time>2019-07-05T19:40:44Z</time>
      </trkpt>
      <trkpt lat="41.493235" lon="-8.783881666666666">
        <ele>73.0</ele>
        <time>2019-07-05T19:40:46Z</time>
      </trkpt>
      <trkpt lat="41.49332" lon="-8.783915">
        <ele>73.0</ele>
        <time>2019-07-05T19:40:48Z</time>
      </trkpt>
      <trkpt lat="41.493405" lon="-8.783945">
        <ele>72.0</ele>
        <time>2019-07-05T19:40:50Z</time>
      </trkpt>
      <trkpt lat="41.493496666666665" lon="-8.78397">
        <ele>73.0</ele>
        <time>2019-07-05T19:40:52Z</time>
      </trkpt>
      <trkpt lat="41.49359166666667" lon="-8.784001666666667">
        <ele>73.0</ele>
        <time>2019-07-05T19:40:54Z</time>
      </trkpt>
      <trkpt lat="41.49369" lon="-8.784026666666668">
        <ele>73.0</ele>
        <time>2019-07-05T19:40:56Z</time>
      </trkpt>
      <trkpt lat="41.493795" lon="-8.784048333333333">
        <ele>73.0</ele>
        <time>2019-07-05T19:40:58Z</time>
      </trkpt>
      <trkpt lat="41.493895" lon="-8.784076666666667">
        <ele>73.0</ele>
        <time>2019-07-05T19:41:00Z</time>
      </trkpt>
      <trkpt lat="41.494" lon="-8.78411">
        <ele>73.0</ele>
        <time>2019-07-05T19:41:02Z</time>
      </trkpt>
      <trkpt lat="41.49409" lon="-8.784141666666667">
        <ele>73.0</ele>
        <time>2019-07-05T19:41:04Z</time>
      </trkpt>
      <trkpt lat="41.494185" lon="-8.784165">
        <ele>73.0</ele>
        <time>2019-07-05T19:41:06Z</time>
      </trkpt>
      <trkpt lat="41.49426666666667" lon="-8.784191666666667">
        <ele>73.0</ele>
        <time>2019-07-05T19:41:08Z</time>
      </trkpt>
      <trkpt lat="41.49432" lon="-8.78427">
        <ele>73.0</ele>
        <time>2019-07-05T19:41:10Z</time>
      </trkpt>
      <trkpt lat="41.494385" lon="-8.78432">
        <ele>73.0</ele>
        <time>2019-07-05T19:41:12Z</time>
      </trkpt>
      <trkpt lat="41.49447166666667" lon="-8.78434">
        <ele>73.0</ele>
        <time>2019-07-05T19:41:14Z</time>
      </trkpt>
      <trkpt lat="41.49457666666667" lon="-8.784365">
        <ele>73.0</ele>
        <time>2019-07-05T19:41:16Z</time>
      </trkpt>
      <trkpt lat="41.49468" lon="-8.784391666666666">
        <ele>73.0</ele>
        <time>2019-07-05T19:41:18Z</time>
      </trkpt>
      <trkpt lat="41.494785" lon="-8.784425">
        <ele>73.0</ele>
        <time>2019-07-05T19:41:20Z</time>
      </trkpt>
      <trkpt lat="41.49489" lon="-8.78446">
        <ele>73.0</ele>
        <time>2019-07-05T19:41:22Z</time>
      </trkpt>
      <trkpt lat="41.495" lon="-8.784486666666666">
        <ele>73.0</ele>
        <time>2019-07-05T19:41:24Z</time>
      </trkpt>
      <trkpt lat="41.495115" lon="-8.784516666666667">
        <ele>72.0</ele>
        <time>2019-07-05T19:41:26Z</time>
      </trkpt>
      <trkpt lat="41.495225" lon="-8.78455">
        <ele>72.0</ele>
        <time>2019-07-05T19:41:28Z</time>
      </trkpt>
      <trkpt lat="41.49534" lon="-8.784585">
        <ele>71.0</ele>
        <time>2019-07-05T19:41:30Z</time>
      </trkpt>
      <trkpt lat="41.49546" lon="-8.784625">
        <ele>71.0</ele>
        <time>2019-07-05T19:41:32Z</time>
      </trkpt>
      <trkpt lat="41.495585" lon="-8.78466">
        <ele>71.0</ele>
        <time>2019-07-05T19:41:34Z</time>
      </trkpt>
      <trkpt lat="41.495715" lon="-8.7847">
        <ele>70.0</ele>
        <time>2019-07-05T19:41:36Z</time>
      </trkpt>
      <trkpt lat="41.495845" lon="-8.784741666666667">
        <ele>70.0</ele>
        <time>2019-07-05T19:41:38Z</time>
      </trkpt>
      <trkpt lat="41.495975" lon="-8.784776666666666">
        <ele>69.0</ele>
        <time>2019-07-05T19:41:40Z</time>
      </trkpt>
      <trkpt lat="41.496111666666664" lon="-8.78481">
        <ele>69.0</ele>
        <time>2019-07-05T19:41:42Z</time>
      </trkpt>
      <trkpt lat="41.496185" lon="-8.78483">
        <ele>69.0</ele>
        <time>2019-07-05T19:41:43Z</time>
      </trkpt>
      <trkpt lat="41.496255" lon="-8.78485">
        <ele>69.0</ele>
        <time>2019-07-05T19:41:44Z</time>
      </trkpt>
      <trkpt lat="41.496325" lon="-8.784866666666666">
        <ele>69.0</ele>
        <time>2019-07-05T19:41:45Z</time>
      </trkpt>
      <trkpt lat="41.496395" lon="-8.784886666666667">
        <ele>69.0</ele>
        <time>2019-07-05T19:41:46Z</time>
      </trkpt>
      <trkpt lat="41.496536666666664" lon="-8.784926666666667">
        <ele>68.0</ele>
        <time>2019-07-05T19:41:48Z</time>
      </trkpt>
      <trkpt lat="41.496608333333334" lon="-8.784951666666666">
        <ele>68.0</ele>
        <time>2019-07-05T19:41:49Z</time>
      </trkpt>
      <trkpt lat="41.496678333333335" lon="-8.784971666666667">
        <ele>68.0</ele>
        <time>2019-07-05T19:41:50Z</time>
      </trkpt>
      <trkpt lat="41.496755" lon="-8.78499">
        <ele>68.0</ele>
        <time>2019-07-05T19:41:51Z</time>
      </trkpt>
      <trkpt lat="41.496895" lon="-8.785035">
        <ele>68.0</ele>
        <time>2019-07-05T19:41:53Z</time>
      </trkpt>
      <trkpt lat="41.49703" lon="-8.785066666666667">
        <ele>68.0</ele>
        <time>2019-07-05T19:41:55Z</time>
      </trkpt>
      <trkpt lat="41.497165" lon="-8.785105">
        <ele>68.0</ele>
        <time>2019-07-05T19:41:57Z</time>
      </trkpt>
      <trkpt lat="41.49729" lon="-8.78514">
        <ele>68.0</ele>
        <time>2019-07-05T19:41:59Z</time>
      </trkpt>
      <trkpt lat="41.497415" lon="-8.78517">
        <ele>68.0</ele>
        <time>2019-07-05T19:42:01Z</time>
      </trkpt>
      <trkpt lat="41.49753166666667" lon="-8.78521">
        <ele>68.0</ele>
        <time>2019-07-05T19:42:03Z</time>
      </trkpt>
      <trkpt lat="41.49765" lon="-8.785236666666666">
        <ele>68.0</ele>
        <time>2019-07-05T19:42:05Z</time>
      </trkpt>
      <trkpt lat="41.497746666666664" lon="-8.785275">
        <ele>67.0</ele>
        <time>2019-07-05T19:42:07Z</time>
      </trkpt>
      <trkpt lat="41.497825" lon="-8.78529">
        <ele>68.0</ele>
        <time>2019-07-05T19:42:09Z</time>
      </trkpt>
      <trkpt lat="41.497915" lon="-8.78527">
        <ele>68.0</ele>
        <time>2019-07-05T19:42:12Z</time>
      </trkpt>
      <trkpt lat="41.498015" lon="-8.785258333333333">
        <ele>68.0</ele>
        <time>2019-07-05T19:42:15Z</time>
      </trkpt>
      <trkpt lat="41.4981" lon="-8.785275">
        <ele>68.0</ele>
        <time>2019-07-05T19:42:17Z</time>
      </trkpt>
      <trkpt lat="41.498196666666665" lon="-8.785275">
        <ele>68.0</ele>
        <time>2019-07-05T19:42:19Z</time>
      </trkpt>
      <trkpt lat="41.49831" lon="-8.785265">
        <ele>70.0</ele>
        <time>2019-07-05T19:42:21Z</time>
      </trkpt>
      <trkpt lat="41.498435" lon="-8.785271666666667">
        <ele>70.0</ele>
        <time>2019-07-05T19:42:23Z</time>
      </trkpt>
      <trkpt lat="41.49857" lon="-8.785295">
        <ele>68.0</ele>
        <time>2019-07-05T19:42:25Z</time>
      </trkpt>
      <trkpt lat="41.498705" lon="-8.785296666666667">
        <ele>68.0</ele>
        <time>2019-07-05T19:42:27Z</time>
      </trkpt>
      <trkpt lat="41.498821666666664" lon="-8.78529">
        <ele>67.0</ele>
        <time>2019-07-05T19:42:29Z</time>
      </trkpt>
      <trkpt lat="41.49894" lon="-8.78528">
        <ele>67.0</ele>
        <time>2019-07-05T19:42:31Z</time>
      </trkpt>
      <trkpt lat="41.49906" lon="-8.785265">
        <ele>66.0</ele>
        <time>2019-07-05T19:42:33Z</time>
      </trkpt>
      <trkpt lat="41.49917" lon="-8.785265">
        <ele>65.0</ele>
        <time>2019-07-05T19:42:35Z</time>
      </trkpt>
      <trkpt lat="41.499285" lon="-8.785258333333333">
        <ele>66.0</ele>
        <time>2019-07-05T19:42:37Z</time>
      </trkpt>
      <trkpt lat="41.499406666666665" lon="-8.785258333333333">
        <ele>65.0</ele>
        <time>2019-07-05T19:42:39Z</time>
      </trkpt>
      <trkpt lat="41.49952" lon="-8.785245">
        <ele>65.0</ele>
        <time>2019-07-05T19:42:41Z</time>
      </trkpt>
      <trkpt lat="41.499626666666664" lon="-8.785223333333333">
        <ele>66.0</ele>
        <time>2019-07-05T19:42:43Z</time>
      </trkpt>
      <trkpt lat="41.49972666666667" lon="-8.785211666666667">
        <ele>66.0</ele>
        <time>2019-07-05T19:42:45Z</time>
      </trkpt>
      <trkpt lat="41.499815" lon="-8.785191666666666">
        <ele>66.0</ele>
        <time>2019-07-05T19:42:47Z</time>
      </trkpt>
      <trkpt lat="41.499905" lon="-8.78518">
        <ele>65.0</ele>
        <time>2019-07-05T19:42:49Z</time>
      </trkpt>
      <trkpt lat="41.500005" lon="-8.785155">
        <ele>65.0</ele>
        <time>2019-07-05T19:42:51Z</time>
      </trkpt>
      <trkpt lat="41.500105" lon="-8.785145">
        <ele>65.0</ele>
        <time>2019-07-05T19:42:53Z</time>
      </trkpt>
      <trkpt lat="41.50022" lon="-8.78514">
        <ele>64.0</ele>
        <time>2019-07-05T19:42:55Z</time>
      </trkpt>
      <trkpt lat="41.50035" lon="-8.785111666666667">
        <ele>66.0</ele>
        <time>2019-07-05T19:42:57Z</time>
      </trkpt>
      <trkpt lat="41.50047" lon="-8.785085">
        <ele>65.0</ele>
        <time>2019-07-05T19:42:59Z</time>
      </trkpt>
      <trkpt lat="41.500548333333334" lon="-8.785065">
        <ele>64.0</ele>
        <time>2019-07-05T19:43:00Z</time>
      </trkpt>
      <trkpt lat="41.500685" lon="-8.785035">
        <ele>63.0</ele>
        <time>2019-07-05T19:43:02Z</time>
      </trkpt>
      <trkpt lat="41.50076" lon="-8.785016666666667">
        <ele>63.0</ele>
        <time>2019-07-05T19:43:03Z</time>
      </trkpt>
      <trkpt lat="41.50089666666667" lon="-8.78498">
        <ele>63.0</ele>
        <time>2019-07-05T19:43:05Z</time>
      </trkpt>
      <trkpt lat="41.50097" lon="-8.784971666666667">
        <ele>62.0</ele>
        <time>2019-07-05T19:43:06Z</time>
      </trkpt>
      <trkpt lat="41.50104" lon="-8.784955">
        <ele>62.0</ele>
        <time>2019-07-05T19:43:07Z</time>
      </trkpt>
      <trkpt lat="41.501115" lon="-8.784955">
        <ele>62.0</ele>
        <time>2019-07-05T19:43:08Z</time>
      </trkpt>
      <trkpt lat="41.50119" lon="-8.78494">
        <ele>62.0</ele>
        <time>2019-07-05T19:43:09Z</time>
      </trkpt>
      <trkpt lat="41.50126" lon="-8.78492">
        <ele>61.0</ele>
        <time>2019-07-05T19:43:10Z</time>
      </trkpt>
      <trkpt lat="41.501395" lon="-8.784895">
        <ele>62.0</ele>
        <time>2019-07-05T19:43:12Z</time>
      </trkpt>
      <trkpt lat="41.50152833333333" lon="-8.78486">
        <ele>63.0</ele>
        <time>2019-07-05T19:43:14Z</time>
      </trkpt>
      <trkpt lat="41.501655" lon="-8.784826666666667">
        <ele>63.0</ele>
        <time>2019-07-05T19:43:16Z</time>
      </trkpt>
      <trkpt lat="41.50176666666667" lon="-8.78481">
        <ele>62.0</ele>
        <time>2019-07-05T19:43:18Z</time>
      </trkpt>
      <trkpt lat="41.501891666666666" lon="-8.784775">
        <ele>62.0</ele>
        <time>2019-07-05T19:43:20Z</time>
      </trkpt>
      <trkpt lat="41.502015" lon="-8.784765">
        <ele>63.0</ele>
        <time>2019-07-05T19:43:22Z</time>
      </trkpt>
      <trkpt lat="41.50214666666667" lon="-8.78473">
        <ele>63.0</ele>
        <time>2019-07-05T19:43:24Z</time>
      </trkpt>
      <trkpt lat="41.50228" lon="-8.784705">
        <ele>64.0</ele>
        <time>2019-07-05T19:43:26Z</time>
      </trkpt>
      <trkpt lat="41.502405" lon="-8.784686666666667">
        <ele>65.0</ele>
        <time>2019-07-05T19:43:28Z</time>
      </trkpt>
      <trkpt lat="41.502518333333335" lon="-8.784675">
        <ele>65.0</ele>
        <time>2019-07-05T19:43:30Z</time>
      </trkpt>
      <trkpt lat="41.502631666666666" lon="-8.784645">
        <ele>64.0</ele>
        <time>2019-07-05T19:43:32Z</time>
      </trkpt>
      <trkpt lat="41.502741666666665" lon="-8.78462">
        <ele>64.0</ele>
        <time>2019-07-05T19:43:34Z</time>
      </trkpt>
      <trkpt lat="41.502851666666665" lon="-8.784605">
        <ele>65.0</ele>
        <time>2019-07-05T19:43:36Z</time>
      </trkpt>
      <trkpt lat="41.502968333333335" lon="-8.784585">
        <ele>65.0</ele>
        <time>2019-07-05T19:43:38Z</time>
      </trkpt>
      <trkpt lat="41.503065" lon="-8.784558333333333">
        <ele>63.0</ele>
        <time>2019-07-05T19:43:40Z</time>
      </trkpt>
      <trkpt lat="41.50322" lon="-8.784565">
        <ele>63.0</ele>
        <time>2019-07-05T19:43:43Z</time>
      </trkpt>
      <trkpt lat="41.503345" lon="-8.784545">
        <ele>64.0</ele>
        <time>2019-07-05T19:43:45Z</time>
      </trkpt>
      <trkpt lat="41.503465" lon="-8.784518333333333">
        <ele>67.0</ele>
        <time>2019-07-05T19:43:47Z</time>
      </trkpt>
      <trkpt lat="41.503526666666666" lon="-8.784471666666667">
        <ele>67.0</ele>
        <time>2019-07-05T19:43:48Z</time>
      </trkpt>
      <trkpt lat="41.5036" lon="-8.78444">
        <ele>69.0</ele>
        <time>2019-07-05T19:43:49Z</time>
      </trkpt>
      <trkpt lat="41.503721666666664" lon="-8.78441">
        <ele>70.0</ele>
        <time>2019-07-05T19:43:51Z</time>
      </trkpt>
      <trkpt lat="41.503825" lon="-8.78439">
        <ele>70.0</ele>
        <time>2019-07-05T19:43:53Z</time>
      </trkpt>
      <trkpt lat="41.503915" lon="-8.78436">
        <ele>67.0</ele>
        <time>2019-07-05T19:43:55Z</time>
      </trkpt>
      <trkpt lat="41.50402" lon="-8.784346666666666">
        <ele>67.0</ele>
        <time>2019-07-05T19:43:57Z</time>
      </trkpt>
      <trkpt lat="41.50412166666667" lon="-8.784335">
        <ele>68.0</ele>
        <time>2019-07-05T19:43:59Z</time>
      </trkpt>
      <trkpt lat="41.504215" lon="-8.784295">
        <ele>68.0</ele>
        <time>2019-07-05T19:44:01Z</time>
      </trkpt>
      <trkpt lat="41.50429666666667" lon="-8.784235">
        <ele>67.0</ele>
        <time>2019-07-05T19:44:03Z</time>
      </trkpt>
      <trkpt lat="41.504385" lon="-8.784205">
        <ele>67.0</ele>
        <time>2019-07-05T19:44:05Z</time>
      </trkpt>
      <trkpt lat="41.50447" lon="-8.784125">
        <ele>67.0</ele>
        <time>2019-07-05T19:44:07Z</time>
      </trkpt>
      <trkpt lat="41.504515" lon="-8.784016666666666">
        <ele>63.0</ele>
        <time>2019-07-05T19:44:09Z</time>
      </trkpt>
      <trkpt lat="41.504535" lon="-8.783901666666667">
        <ele>61.0</ele>
        <time>2019-07-05T19:44:11Z</time>
      </trkpt>
      <trkpt lat="41.50454666666667" lon="-8.783786666666666">
        <ele>62.0</ele>
        <time>2019-07-05T19:44:13Z</time>
      </trkpt>
      <trkpt lat="41.50454166666667" lon="-8.783666666666667">
        <ele>60.0</ele>
        <time>2019-07-05T19:44:15Z</time>
      </trkpt>
      <trkpt lat="41.50456166666667" lon="-8.783551666666666">
        <ele>61.0</ele>
        <time>2019-07-05T19:44:17Z</time>
      </trkpt>
      <trkpt lat="41.504585" lon="-8.783441666666667">
        <ele>62.0</ele>
        <time>2019-07-05T19:44:19Z</time>
      </trkpt>
      <trkpt lat="41.50463" lon="-8.78335">
        <ele>63.0</ele>
        <time>2019-07-05T19:44:21Z</time>
      </trkpt>
      <trkpt lat="41.504685" lon="-8.783275">
        <ele>65.0</ele>
        <time>2019-07-05T19:44:23Z</time>
      </trkpt>
      <trkpt lat="41.504745" lon="-8.783185">
        <ele>66.0</ele>
        <time>2019-07-05T19:44:25Z</time>
      </trkpt>
      <trkpt lat="41.504805" lon="-8.783095">
        <ele>67.0</ele>
        <time>2019-07-05T19:44:27Z</time>
      </trkpt>
      <trkpt lat="41.504865" lon="-8.783003333333333">
        <ele>66.0</ele>
        <time>2019-07-05T19:44:29Z</time>
      </trkpt>
      <trkpt lat="41.504925" lon="-8.782925">
        <ele>66.0</ele>
        <time>2019-07-05T19:44:31Z</time>
      </trkpt>
      <trkpt lat="41.50498666666667" lon="-8.782841666666666">
        <ele>65.0</ele>
        <time>2019-07-05T19:44:33Z</time>
      </trkpt>
      <trkpt lat="41.50505" lon="-8.782746666666666">
        <ele>64.0</ele>
        <time>2019-07-05T19:44:35Z</time>
      </trkpt>
      <trkpt lat="41.505105" lon="-8.782665">
        <ele>64.0</ele>
        <time>2019-07-05T19:44:37Z</time>
      </trkpt>
      <trkpt lat="41.505161666666666" lon="-8.782596666666667">
        <ele>65.0</ele>
        <time>2019-07-05T19:44:39Z</time>
      </trkpt>
      <trkpt lat="41.505235" lon="-8.782515">
        <ele>65.0</ele>
        <time>2019-07-05T19:44:41Z</time>
      </trkpt>
      <trkpt lat="41.505296666666666" lon="-8.78243">
        <ele>65.0</ele>
        <time>2019-07-05T19:44:43Z</time>
      </trkpt>
      <trkpt lat="41.50538" lon="-8.78235">
        <ele>67.0</ele>
        <time>2019-07-05T19:44:46Z</time>
      </trkpt>
      <trkpt lat="41.505465" lon="-8.782261666666667">
        <ele>71.0</ele>
        <time>2019-07-05T19:44:48Z</time>
      </trkpt>
      <trkpt lat="41.50553166666667" lon="-8.782196666666668">
        <ele>73.0</ele>
        <time>2019-07-05T19:44:50Z</time>
      </trkpt>
      <trkpt lat="41.505595" lon="-8.782141666666666">
        <ele>74.0</ele>
        <time>2019-07-05T19:44:52Z</time>
      </trkpt>
      <trkpt lat="41.505655" lon="-8.782078333333333">
        <ele>73.0</ele>
        <time>2019-07-05T19:44:54Z</time>
      </trkpt>
      <trkpt lat="41.505735" lon="-8.782">
        <ele>73.0</ele>
        <time>2019-07-05T19:44:57Z</time>
      </trkpt>
      <trkpt lat="41.505781666666664" lon="-8.781921666666667">
        <ele>73.0</ele>
        <time>2019-07-05T19:44:59Z</time>
      </trkpt>
      <trkpt lat="41.50586" lon="-8.781826666666667">
        <ele>74.0</ele>
        <time>2019-07-05T19:45:02Z</time>
      </trkpt>
      <trkpt lat="41.505935" lon="-8.78176">
        <ele>74.0</ele>
        <time>2019-07-05T19:45:05Z</time>
      </trkpt>
      <trkpt lat="41.505995" lon="-8.78172">
        <ele>68.0</ele>
        <time>2019-07-05T19:45:12Z</time>
      </trkpt>
      <trkpt lat="41.50599166666667" lon="-8.781716666666666">
        <ele>67.0</ele>
        <time>2019-07-05T19:45:17Z</time>
      </trkpt>
    </trkseg>
  </trk>
</gpx>
